<?xml version='1.0' encoding='UTF-8'?><gpx version="1.1" creator="JPX - https://github.com/jenetics/jpx" xmlns="http://www.topografix.com/GPX/1/1"><trk><trkseg><trkpt lat="41.17730660524567" lon="15.046389990143073"><ele>620.0</ele><time>2026-03-22T08:53:40Z</time></trkpt><trkpt lat="41.17726867146213" lon="15.046458911566326"><ele>620.0</ele><time>2026-03-22T08:53:42Z</time></trkpt><trkpt lat="41.17718058198227" lon="15.046447908582287"><ele>620.0</ele><time>2026-03-22T08:53:44Z</time></trkpt><trkpt lat="41.177108336485176" lon="15.046414459492192"><ele>620.0</ele><time>2026-03-22T08:53:46Z</time></trkpt><trkpt lat="41.17701024306621" lon="15.046452189187818"><ele>620.0</ele><time>2026-03-22T08:53:51Z</time></trkpt><trkpt lat="41.176928090825506" lon="15.046503020591892"><ele>620.0</ele><time>2026-03-22T08:53:53Z</time></trkpt><trkpt lat="41.17683098706302" lon="15.046497820563696"><ele>620.0</ele><time>2026-03-22T08:53:55Z</time></trkpt><trkpt lat="41.176745208948375" lon="15.046540540026902"><ele>620.0</ele><time>2026-03-22T08:53:57Z</time></trkpt><trkpt lat="41.17666074060204" lon="15.04658969661511"><ele>620.0</ele><time>2026-03-22T08:53:59Z</time></trkpt><trkpt lat="41.176566019592464" lon="15.046548144209568"><ele>620.0</ele><time>2026-03-22T08:54:01Z</time></trkpt><trkpt lat="41.176474139522895" lon="15.046486692609887"><ele>620.0</ele><time>2026-03-22T08:54:03Z</time></trkpt><trkpt lat="41.17640107265128" lon="15.046458223837426"><ele>617.8333333333333</ele><time>2026-03-22T08:54:05Z</time></trkpt><trkpt lat="41.1763223993359" lon="15.046444632693351"><ele>615.6666666666666</ele><time>2026-03-22T08:54:07Z</time></trkpt><trkpt lat="41.17624868490386" lon="15.04636436695236"><ele>613.5</ele><time>2026-03-22T08:54:10Z</time></trkpt><trkpt lat="41.1762489872039" lon="15.04627249611409"><ele>611.3333333333334</ele><time>2026-03-22T08:54:12Z</time></trkpt><trkpt lat="41.17625289850882" lon="15.046177067024217"><ele>609.1666666666667</ele><time>2026-03-22T08:54:14Z</time></trkpt><trkpt lat="41.17622641035821" lon="15.046087872285467"><ele>607.0</ele><time>2026-03-22T08:54:16Z</time></trkpt><trkpt lat="41.17617245229018" lon="15.046039086938832"><ele>607.0</ele><time>2026-03-22T08:54:18Z</time></trkpt><trkpt lat="41.176110950177765" lon="15.045984311100032"><ele>607.0</ele><time>2026-03-22T08:54:31Z</time></trkpt><trkpt lat="41.176084734810274" lon="15.04587151596725"><ele>607.0</ele><time>2026-03-22T08:54:34Z</time></trkpt><trkpt lat="41.17608943297176" lon="15.045761848261511"><ele>607.0</ele><time>2026-03-22T08:54:37Z</time></trkpt><trkpt lat="41.17613938306394" lon="15.045701897922902"><ele>607.0</ele><time>2026-03-22T08:57:36Z</time></trkpt><trkpt lat="41.17617306456442" lon="15.045602659114724"><ele>607.0</ele><time>2026-03-22T08:57:39Z</time></trkpt><trkpt lat="41.176217833324266" lon="15.045534781483648"><ele>607.6666666666667</ele><time>2026-03-22T08:57:43Z</time></trkpt><trkpt lat="41.176263294377144" lon="15.045418743735336"><ele>608.3333333333334</ele><time>2026-03-22T08:57:55Z</time></trkpt><trkpt lat="41.1762705216417" lon="15.045519424091433"><ele>609.0</ele><time>2026-03-22T08:58:09Z</time></trkpt><trkpt lat="41.176238383954995" lon="15.045623853833238"><ele>609.6666666666666</ele><time>2026-03-22T08:58:12Z</time></trkpt><trkpt lat="41.1761977225579" lon="15.045718595042931"><ele>610.3333333333333</ele><time>2026-03-22T08:58:15Z</time></trkpt><trkpt lat="41.17612255774304" lon="15.045758204791861"><ele>611.0</ele><time>2026-03-22T08:58:19Z</time></trkpt><trkpt lat="41.17612155809658" lon="15.045646971376598"><ele>611.0000000000001</ele><time>2026-03-22T09:00:24Z</time></trkpt><trkpt lat="41.17616896893051" lon="15.045579212109441"><ele>611.0</ele><time>2026-03-22T09:00:27Z</time></trkpt><trkpt lat="41.176212264242814" lon="15.045516202109432"><ele>611.0</ele><time>2026-03-22T09:00:39Z</time></trkpt><trkpt lat="41.17625809530386" lon="15.045443280641413"><ele>611.0</ele><time>2026-03-22T09:00:41Z</time></trkpt><trkpt lat="41.1762738392504" lon="15.045359055636288"><ele>611.0</ele><time>2026-03-22T09:00:42Z</time></trkpt><trkpt lat="41.17630073336494" lon="15.04544619155714"><ele>611.0000000000001</ele><time>2026-03-22T09:00:49Z</time></trkpt><trkpt lat="41.17624236007325" lon="15.045534223550417"><ele>611.0</ele><time>2026-03-22T09:00:52Z</time></trkpt><trkpt lat="41.17622145473203" lon="15.045640847482039"><ele>611.0</ele><time>2026-03-22T09:00:55Z</time></trkpt><trkpt lat="41.17618580003633" lon="15.045739978778906"><ele>611.0</ele><time>2026-03-22T09:00:58Z</time></trkpt><trkpt lat="41.176149931917166" lon="15.045627203322331"><ele>611.0</ele><time>2026-03-22T09:01:09Z</time></trkpt><trkpt lat="41.176189068401804" lon="15.04555061767533"><ele>611.0</ele><time>2026-03-22T09:01:42Z</time></trkpt><trkpt lat="41.17623874354071" lon="15.045605262374544"><ele>611.0</ele><time>2026-03-22T09:01:46Z</time></trkpt><trkpt lat="41.1762111943984" lon="15.04568394221062"><ele>611.0</ele><time>2026-03-22T09:01:49Z</time></trkpt><trkpt lat="41.176157714790264" lon="15.04576073371659"><ele>611.0</ele><time>2026-03-22T09:01:52Z</time></trkpt><trkpt lat="41.17618369929618" lon="15.045588550731114"><ele>611.0</ele><time>2026-03-22T09:07:29Z</time></trkpt><trkpt lat="41.17622975585644" lon="15.04548947603851"><ele>611.0</ele><time>2026-03-22T09:07:44Z</time></trkpt><trkpt lat="41.17627841497352" lon="15.045396803270117"><ele>611.0</ele><time>2026-03-22T09:07:46Z</time></trkpt><trkpt lat="41.17620486118316" lon="15.045406348515776"><ele>611.0</ele><time>2026-03-22T09:08:43Z</time></trkpt><trkpt lat="41.176121710789246" lon="15.045480641177097"><ele>611.0000000000001</ele><time>2026-03-22T09:08:45Z</time></trkpt><trkpt lat="41.17613150921431" lon="15.045572604805548"><ele>611.0</ele><time>2026-03-22T09:09:00Z</time></trkpt><trkpt lat="41.176075175889295" lon="15.04563382743997"><ele>611.0</ele><time>2026-03-22T09:11:55Z</time></trkpt><trkpt lat="41.17606713101339" lon="15.045724253277333"><ele>611.0</ele><time>2026-03-22T09:13:03Z</time></trkpt><trkpt lat="41.17601486308898" lon="15.045775710862639"><ele>611.0</ele><time>2026-03-22T09:13:06Z</time></trkpt><trkpt lat="41.176064040810274" lon="15.045855705861886"><ele>611.0000000000001</ele><time>2026-03-22T09:13:09Z</time></trkpt><trkpt lat="41.17608811572346" lon="15.045771072382765"><ele>611.0</ele><time>2026-03-22T09:13:12Z</time></trkpt><trkpt lat="41.17611273554743" lon="15.045690400909969"><ele>611.0</ele><time>2026-03-22T09:14:39Z</time></trkpt><trkpt lat="41.17616578430151" lon="15.045611289730216"><ele>611.0</ele><time>2026-03-22T09:14:41Z</time></trkpt><trkpt lat="41.176214621304055" lon="15.045524628455748"><ele>611.0</ele><time>2026-03-22T09:14:47Z</time></trkpt><trkpt lat="41.17629023830322" lon="15.045404251170096"><ele>611.0</ele><time>2026-03-22T09:14:50Z</time></trkpt><trkpt lat="41.176298158584856" lon="15.045496778758805"><ele>611.0</ele><time>2026-03-22T09:15:02Z</time></trkpt><trkpt lat="41.176243408891196" lon="15.04557923751179"><ele>611.0</ele><time>2026-03-22T09:15:04Z</time></trkpt><trkpt lat="41.176229662113805" lon="15.04570173565083"><ele>611.0</ele><time>2026-03-22T09:15:07Z</time></trkpt><trkpt lat="41.17618317442856" lon="15.045775368877905"><ele>611.0</ele><time>2026-03-22T09:15:09Z</time></trkpt><trkpt lat="41.1761080929535" lon="15.045791655923143"><ele>611.0</ele><time>2026-03-22T09:15:11Z</time></trkpt><trkpt lat="41.17607319286873" lon="15.045713113558357"><ele>611.0</ele><time>2026-03-22T09:15:13Z</time></trkpt><trkpt lat="41.176085147449434" lon="15.04558953510663"><ele>611.0</ele><time>2026-03-22T09:15:15Z</time></trkpt><trkpt lat="41.17613014257919" lon="15.04543431747568"><ele>611.0</ele><time>2026-03-22T09:15:17Z</time></trkpt><trkpt lat="41.176164625915334" lon="15.045336966448534"><ele>611.0000000000001</ele><time>2026-03-22T09:15:18Z</time></trkpt><trkpt lat="41.17620508331828" lon="15.045250226362452"><ele>611.0</ele><time>2026-03-22T09:15:19Z</time></trkpt><trkpt lat="41.176247625457115" lon="15.045163768656483"><ele>611.0</ele><time>2026-03-22T09:15:21Z</time></trkpt><trkpt lat="41.17630544655025" lon="15.045222236785616"><ele>611.0</ele><time>2026-03-22T09:15:25Z</time></trkpt><trkpt lat="41.17634198370456" lon="15.045291485589814"><ele>611.0</ele><time>2026-03-22T09:15:28Z</time></trkpt><trkpt lat="41.17638347964181" lon="15.045357207144491"><ele>611.0000000000001</ele><time>2026-03-22T09:15:32Z</time></trkpt><trkpt lat="41.17643575882215" lon="15.04542871365603"><ele>611.0</ele><time>2026-03-22T09:15:33Z</time></trkpt><trkpt lat="41.17651239754813" lon="15.045527571739875"><ele>612.8</ele><time>2026-03-22T09:15:34Z</time></trkpt><trkpt lat="41.176566551130605" lon="15.04560471590342"><ele>614.6</ele><time>2026-03-22T09:15:35Z</time></trkpt><trkpt lat="41.176609253451204" lon="15.04567437318057"><ele>616.4</ele><time>2026-03-22T09:15:36Z</time></trkpt><trkpt lat="41.17667616195508" lon="15.045794732354963"><ele>618.2</ele><time>2026-03-22T09:15:38Z</time></trkpt><trkpt lat="41.17673617685642" lon="15.045892520600855"><ele>620.0</ele><time>2026-03-22T09:15:40Z</time></trkpt><trkpt lat="41.17680542866742" lon="15.046003201477461"><ele>620.0</ele><time>2026-03-22T09:15:42Z</time></trkpt><trkpt lat="41.176858181726075" lon="15.046062614642912"><ele>620.0</ele><time>2026-03-22T09:15:43Z</time></trkpt><trkpt lat="41.17691808604471" lon="15.046105566372031"><ele>620.0</ele><time>2026-03-22T09:15:44Z</time></trkpt><trkpt lat="41.17705481281891" lon="15.046154186190156"><ele>620.0</ele><time>2026-03-22T09:15:46Z</time></trkpt><trkpt lat="41.17714065094025" lon="15.04616899766036"><ele>620.0</ele><time>2026-03-22T09:15:47Z</time></trkpt><trkpt lat="41.17721510524331" lon="15.046205956614228"><ele>620.0</ele><time>2026-03-22T09:15:48Z</time></trkpt><trkpt lat="41.17728609658919" lon="15.04623007287241"><ele>619.8571428571429</ele><time>2026-03-22T09:15:49Z</time></trkpt><trkpt lat="41.177360482564744" lon="15.046247544783535"><ele>619.7142857142857</ele><time>2026-03-22T09:15:50Z</time></trkpt><trkpt lat="41.17743583947821" lon="15.046256550310977"><ele>619.5714285714286</ele><time>2026-03-22T09:15:51Z</time></trkpt><trkpt lat="41.1775128891087" lon="15.046253197111726"><ele>619.4285714285714</ele><time>2026-03-22T09:15:52Z</time></trkpt><trkpt lat="41.177582125832444" lon="15.046240649210942"><ele>619.2857142857143</ele><time>2026-03-22T09:15:53Z</time></trkpt><trkpt lat="41.177645925291195" lon="15.046218655332927"><ele>619.1428571428571</ele><time>2026-03-22T09:15:54Z</time></trkpt><trkpt lat="41.17771127006118" lon="15.04619495617676"><ele>619.0</ele><time>2026-03-22T09:15:55Z</time></trkpt><trkpt lat="41.17784015441358" lon="15.04613784809004"><ele>619.0</ele><time>2026-03-22T09:15:57Z</time></trkpt><trkpt lat="41.17792959305995" lon="15.04606997537316"><ele>619.0</ele><time>2026-03-22T09:15:58Z</time></trkpt><trkpt lat="41.17803261683818" lon="15.04600782049813"><ele>619.0</ele><time>2026-03-22T09:15:59Z</time></trkpt><trkpt lat="41.17811711449143" lon="15.045886069236762"><ele>619.0</ele><time>2026-03-22T09:16:01Z</time></trkpt><trkpt lat="41.17814242106905" lon="15.04575279933113"><ele>619.0</ele><time>2026-03-22T09:16:02Z</time></trkpt><trkpt lat="41.17816962146959" lon="15.045584047013218"><ele>621.0</ele><time>2026-03-22T09:16:03Z</time></trkpt><trkpt lat="41.17820806680533" lon="15.045418441499187"><ele>623.0</ele><time>2026-03-22T09:16:04Z</time></trkpt><trkpt lat="41.17823735319997" lon="15.045279648242964"><ele>625.0</ele><time>2026-03-22T09:16:05Z</time></trkpt><trkpt lat="41.17826412120589" lon="15.045134376954431"><ele>627.0</ele><time>2026-03-22T09:16:06Z</time></trkpt><trkpt lat="41.17830371849607" lon="15.044956170822923"><ele>627.6666666666666</ele><time>2026-03-22T09:16:07Z</time></trkpt><trkpt lat="41.17833661290921" lon="15.044858683751194"><ele>628.3333333333334</ele><time>2026-03-22T09:16:08Z</time></trkpt><trkpt lat="41.178381895375786" lon="15.044793789448974"><ele>629.0</ele><time>2026-03-22T09:16:09Z</time></trkpt><trkpt lat="41.17845057747558" lon="15.044765449797554"><ele>629.6666666666667</ele><time>2026-03-22T09:16:10Z</time></trkpt><trkpt lat="41.178537145052964" lon="15.04477965213445"><ele>630.3333333333334</ele><time>2026-03-22T09:16:11Z</time></trkpt><trkpt lat="41.17863923498052" lon="15.044822279372184"><ele>631.0</ele><time>2026-03-22T09:16:12Z</time></trkpt><trkpt lat="41.17873443238526" lon="15.04487640727638"><ele>631.0</ele><time>2026-03-22T09:16:13Z</time></trkpt><trkpt lat="41.17882614269217" lon="15.044929323320478"><ele>631.0</ele><time>2026-03-22T09:16:14Z</time></trkpt><trkpt lat="41.17896354669378" lon="15.044983995933721"><ele>631.0</ele><time>2026-03-22T09:16:15Z</time></trkpt><trkpt lat="41.17913231761088" lon="15.04502024617122"><ele>631.0</ele><time>2026-03-22T09:16:16Z</time></trkpt><trkpt lat="41.17928895011053" lon="15.045016473428909"><ele>629.0</ele><time>2026-03-22T09:16:17Z</time></trkpt><trkpt lat="41.179418842073936" lon="15.045009928236182"><ele>627.0</ele><time>2026-03-22T09:16:18Z</time></trkpt><trkpt lat="41.1795406594721" lon="15.0449626939008"><ele>625.0</ele><time>2026-03-22T09:16:19Z</time></trkpt><trkpt lat="41.1796344816518" lon="15.04490222333937"><ele>623.0</ele><time>2026-03-22T09:16:20Z</time></trkpt><trkpt lat="41.17972772165204" lon="15.044882855027412"><ele>622.75</ele><time>2026-03-22T09:16:21Z</time></trkpt><trkpt lat="41.17984495401771" lon="15.044907639425015"><ele>622.5</ele><time>2026-03-22T09:16:22Z</time></trkpt><trkpt lat="41.17999768249258" lon="15.04496423490027"><ele>622.25</ele><time>2026-03-22T09:16:23Z</time></trkpt><trkpt lat="41.1801524950795" lon="15.045034222514609"><ele>622.0</ele><time>2026-03-22T09:16:24Z</time></trkpt><trkpt lat="41.1802760174272" lon="15.045100603036753"><ele>621.8000000000001</ele><time>2026-03-22T09:16:25Z</time></trkpt><trkpt lat="41.180367882631245" lon="15.045157232754311"><ele>621.6</ele><time>2026-03-22T09:16:26Z</time></trkpt><trkpt lat="41.180439178080896" lon="15.045230165544954"><ele>621.4000000000001</ele><time>2026-03-22T09:16:27Z</time></trkpt><trkpt lat="41.180469120652134" lon="15.045329774046207"><ele>621.2</ele><time>2026-03-22T09:16:28Z</time></trkpt><trkpt lat="41.18050036980072" lon="15.045484160748074"><ele>621.0</ele><time>2026-03-22T09:16:29Z</time></trkpt><trkpt lat="41.180536538011545" lon="15.0456192819645"><ele>621.0</ele><time>2026-03-22T09:16:30Z</time></trkpt><trkpt lat="41.180602407034485" lon="15.045737960608054"><ele>621.0</ele><time>2026-03-22T09:16:31Z</time></trkpt><trkpt lat="41.180698046808935" lon="15.045854748404619"><ele>621.0</ele><time>2026-03-22T09:16:32Z</time></trkpt><trkpt lat="41.180794973537445" lon="15.045960620554048"><ele>621.0</ele><time>2026-03-22T09:16:33Z</time></trkpt><trkpt lat="41.180888991424254" lon="15.04607095303399"><ele>622.0</ele><time>2026-03-22T09:16:34Z</time></trkpt><trkpt lat="41.18096753854577" lon="15.046163006717299"><ele>623.0</ele><time>2026-03-22T09:16:35Z</time></trkpt><trkpt lat="41.18103813806182" lon="15.0462566793547"><ele>624.0</ele><time>2026-03-22T09:16:36Z</time></trkpt><trkpt lat="41.18110935957528" lon="15.046357881110175"><ele>625.0</ele><time>2026-03-22T09:16:37Z</time></trkpt><trkpt lat="41.18116082019872" lon="15.046425615453499"><ele>626.0</ele><time>2026-03-22T09:16:38Z</time></trkpt><trkpt lat="41.18123447841413" lon="15.04648698836745"><ele>626.0</ele><time>2026-03-22T09:16:39Z</time></trkpt><trkpt lat="41.18132289448585" lon="15.046551486933403"><ele>626.0</ele><time>2026-03-22T09:16:40Z</time></trkpt><trkpt lat="41.18140783119473" lon="15.046636511657757"><ele>626.0</ele><time>2026-03-22T09:16:41Z</time></trkpt><trkpt lat="41.181485213536575" lon="15.046728984895966"><ele>626.0</ele><time>2026-03-22T09:16:42Z</time></trkpt><trkpt lat="41.18155390535499" lon="15.046812696947677"><ele>626.0</ele><time>2026-03-22T09:16:43Z</time></trkpt><trkpt lat="41.18160825190782" lon="15.046867046170153"><ele>626.2</ele><time>2026-03-22T09:16:44Z</time></trkpt><trkpt lat="41.18166948568258" lon="15.046910822855741"><ele>626.4000000000001</ele><time>2026-03-22T09:16:46Z</time></trkpt><trkpt lat="41.18170899340139" lon="15.046818446938136"><ele>626.6</ele><time>2026-03-22T09:16:48Z</time></trkpt><trkpt lat="41.181677711010224" lon="15.046684974757605"><ele>626.8000000000001</ele><time>2026-03-22T09:16:50Z</time></trkpt><trkpt lat="41.181659435341125" lon="15.04649156529592"><ele>627.0</ele><time>2026-03-22T09:16:51Z</time></trkpt><trkpt lat="41.18168624319907" lon="15.046296997979779"><ele>630.0</ele><time>2026-03-22T09:16:52Z</time></trkpt><trkpt lat="41.18171619107324" lon="15.046108334684897"><ele>633.0</ele><time>2026-03-22T09:16:53Z</time></trkpt><trkpt lat="41.18178396778474" lon="15.04595603168037"><ele>636.0</ele><time>2026-03-22T09:16:54Z</time></trkpt><trkpt lat="41.18181444256706" lon="15.04580710425331"><ele>639.0</ele><time>2026-03-22T09:16:55Z</time></trkpt><trkpt lat="41.18181325207634" lon="15.045658739353941"><ele>640.0</ele><time>2026-03-22T09:16:56Z</time></trkpt><trkpt lat="41.18180166950508" lon="15.045518866450111"><ele>641.0</ele><time>2026-03-22T09:16:57Z</time></trkpt><trkpt lat="41.18178804399194" lon="15.045363231593546"><ele>642.0</ele><time>2026-03-22T09:16:58Z</time></trkpt><trkpt lat="41.181784975579895" lon="15.04518481545251"><ele>643.0</ele><time>2026-03-22T09:16:59Z</time></trkpt><trkpt lat="41.18176808378086" lon="15.045044456904721"><ele>643.0</ele><time>2026-03-22T09:17:00Z</time></trkpt><trkpt lat="41.18174785902461" lon="15.044942797152256"><ele>643.0</ele><time>2026-03-22T09:17:01Z</time></trkpt><trkpt lat="41.18182440166596" lon="15.044945879030308"><ele>643.0</ele><time>2026-03-22T09:17:05Z</time></trkpt><trkpt lat="41.18188739086712" lon="15.04494381012093"><ele>643.0</ele><time>2026-03-22T09:17:07Z</time></trkpt><trkpt lat="41.18198853518966" lon="15.044976165446332"><ele>643.0</ele><time>2026-03-22T09:17:08Z</time></trkpt><trkpt lat="41.182092401555096" lon="15.045028953143776"><ele>643.0</ele><time>2026-03-22T09:17:09Z</time></trkpt><trkpt lat="41.18216858341059" lon="15.04507149989752"><ele>643.0</ele><time>2026-03-22T09:17:10Z</time></trkpt><trkpt lat="41.1822214911058" lon="15.04512586125001"><ele>643.0</ele><time>2026-03-22T09:17:12Z</time></trkpt><trkpt lat="41.18222611622714" lon="15.04500143358059"><ele>643.0</ele><time>2026-03-22T09:17:28Z</time></trkpt><trkpt lat="41.18222120085977" lon="15.044916046448368"><ele>643.0</ele><time>2026-03-22T09:17:31Z</time></trkpt><trkpt lat="41.18229215352408" lon="15.044870018088563"><ele>643.0</ele><time>2026-03-22T09:17:34Z</time></trkpt><trkpt lat="41.18235618016333" lon="15.044811232761948"><ele>643.0</ele><time>2026-03-22T09:17:36Z</time></trkpt><trkpt lat="41.182389716133194" lon="15.04469566405532"><ele>638.1428571428571</ele><time>2026-03-22T09:17:39Z</time></trkpt><trkpt lat="41.18236935535483" lon="15.044605097216143"><ele>633.2857142857143</ele><time>2026-03-22T09:17:45Z</time></trkpt><trkpt lat="41.182376199578535" lon="15.044512913492854"><ele>628.4285714285714</ele><time>2026-03-22T09:17:48Z</time></trkpt><trkpt lat="41.18240124363526" lon="15.044427576756025"><ele>623.5714285714286</ele><time>2026-03-22T09:17:51Z</time></trkpt><trkpt lat="41.18241164491705" lon="15.044336444838844"><ele>618.7142857142858</ele><time>2026-03-22T09:17:55Z</time></trkpt><trkpt lat="41.18243334773381" lon="15.044240192435021"><ele>613.8571428571429</ele><time>2026-03-22T09:17:59Z</time></trkpt><trkpt lat="41.18249667043075" lon="15.04418034407366"><ele>609.0</ele><time>2026-03-22T09:18:02Z</time></trkpt><trkpt lat="41.18255443387022" lon="15.044104739658865"><ele>604.4</ele><time>2026-03-22T09:18:05Z</time></trkpt><trkpt lat="41.18259976158801" lon="15.044028413694583"><ele>599.8</ele><time>2026-03-22T09:18:08Z</time></trkpt><trkpt lat="41.18266264702241" lon="15.04395473931277"><ele>595.2</ele><time>2026-03-22T09:18:11Z</time></trkpt><trkpt lat="41.18277547408354" lon="15.043795313934584"><ele>590.6</ele><time>2026-03-22T09:18:14Z</time></trkpt><trkpt lat="41.18283849072761" lon="15.043727538498187"><ele>586.0</ele><time>2026-03-22T09:18:16Z</time></trkpt><trkpt lat="41.182927674348086" lon="15.043701933335027"><ele>586.0</ele><time>2026-03-22T09:18:18Z</time></trkpt><trkpt lat="41.183023425412514" lon="15.043751449116206"><ele>586.0</ele><time>2026-03-22T09:18:19Z</time></trkpt><trkpt lat="41.18311585668204" lon="15.043722888000946"><ele>586.0</ele><time>2026-03-22T09:18:20Z</time></trkpt><trkpt lat="41.183215011586235" lon="15.043717124866983"><ele>586.0</ele><time>2026-03-22T09:18:21Z</time></trkpt><trkpt lat="41.18331961464619" lon="15.043752972137732"><ele>586.0</ele><time>2026-03-22T09:18:22Z</time></trkpt><trkpt lat="41.18341216731357" lon="15.043801821576903"><ele>586.25</ele><time>2026-03-22T09:18:23Z</time></trkpt><trkpt lat="41.18350827327541" lon="15.043861366671488"><ele>586.5</ele><time>2026-03-22T09:18:24Z</time></trkpt><trkpt lat="41.183622037917964" lon="15.043959376158995"><ele>586.75</ele><time>2026-03-22T09:18:25Z</time></trkpt><trkpt lat="41.183727557791265" lon="15.044084918325398"><ele>587.0</ele><time>2026-03-22T09:18:26Z</time></trkpt><trkpt lat="41.183794727907966" lon="15.044124610296551"><ele>587.0</ele><time>2026-03-22T09:18:27Z</time></trkpt><trkpt lat="41.183902123851496" lon="15.044181181262893"><ele>587.0</ele><time>2026-03-22T09:18:29Z</time></trkpt><trkpt lat="41.183973739940825" lon="15.044205095733581"><ele>587.0</ele><time>2026-03-22T09:18:33Z</time></trkpt><trkpt lat="41.1839726684321" lon="15.043936795731273"><ele>587.0</ele><time>2026-03-22T09:18:34Z</time></trkpt><trkpt lat="41.18400412384793" lon="15.043779819907627"><ele>584.2</ele><time>2026-03-22T09:18:35Z</time></trkpt><trkpt lat="41.18403970766312" lon="15.043628441924321"><ele>581.4000000000001</ele><time>2026-03-22T09:18:36Z</time></trkpt><trkpt lat="41.18409209604126" lon="15.04356144144635"><ele>578.5999999999999</ele><time>2026-03-22T09:18:37Z</time></trkpt><trkpt lat="41.18415666255445" lon="15.043450029335991"><ele>575.8</ele><time>2026-03-22T09:18:38Z</time></trkpt><trkpt lat="41.1842199237251" lon="15.043349203615511"><ele>573.0</ele><time>2026-03-22T09:18:39Z</time></trkpt><trkpt lat="41.18427374214614" lon="15.043269128716844"><ele>572.0</ele><time>2026-03-22T09:18:40Z</time></trkpt><trkpt lat="41.184313468183404" lon="15.043173973328367"><ele>571.0</ele><time>2026-03-22T09:18:41Z</time></trkpt><trkpt lat="41.18434293252156" lon="15.043079110783127"><ele>570.0</ele><time>2026-03-22T09:18:42Z</time></trkpt><trkpt lat="41.184363258707755" lon="15.042964253088696"><ele>569.0</ele><time>2026-03-22T09:18:43Z</time></trkpt><trkpt lat="41.1843807019656" lon="15.04283402049941"><ele>568.0</ele><time>2026-03-22T09:18:44Z</time></trkpt><trkpt lat="41.18439885787568" lon="15.042704320167422"><ele>567.0</ele><time>2026-03-22T09:18:45Z</time></trkpt><trkpt lat="41.18441105450091" lon="15.042588358992989"><ele>565.4</ele><time>2026-03-22T09:18:46Z</time></trkpt><trkpt lat="41.18439864232924" lon="15.042410506578298"><ele>563.8000000000001</ele><time>2026-03-22T09:18:48Z</time></trkpt><trkpt lat="41.18435910897176" lon="15.042300405025571"><ele>562.2</ele><time>2026-03-22T09:18:49Z</time></trkpt><trkpt lat="41.184316316778116" lon="15.042192937129915"><ele>560.6</ele><time>2026-03-22T09:18:50Z</time></trkpt><trkpt lat="41.184268126329286" lon="15.042094418209729"><ele>559.0</ele><time>2026-03-22T09:18:51Z</time></trkpt><trkpt lat="41.18424777342627" lon="15.042009405216902"><ele>559.0</ele><time>2026-03-22T09:18:52Z</time></trkpt><trkpt lat="41.18424148900267" lon="15.041870379456002"><ele>559.0</ele><time>2026-03-22T09:18:54Z</time></trkpt><trkpt lat="41.184241523833535" lon="15.041764503625664"><ele>559.0</ele><time>2026-03-22T09:18:56Z</time></trkpt><trkpt lat="41.184156337230526" lon="15.041660752712968"><ele>559.0</ele><time>2026-03-22T09:18:57Z</time></trkpt><trkpt lat="41.18388297840757" lon="15.041747806883338"><ele>558.4</ele><time>2026-03-22T09:18:58Z</time></trkpt><trkpt lat="41.18379579469926" lon="15.041769411755025"><ele>557.8</ele><time>2026-03-22T09:18:59Z</time></trkpt><trkpt lat="41.1836709253003" lon="15.041823342739674"><ele>557.2</ele><time>2026-03-22T09:19:00Z</time></trkpt><trkpt lat="41.183553402380696" lon="15.041869862898846"><ele>556.6</ele><time>2026-03-22T09:19:01Z</time></trkpt><trkpt lat="41.183469754365895" lon="15.041901145382633"><ele>556.0</ele><time>2026-03-22T09:19:02Z</time></trkpt><trkpt lat="41.18338209486788" lon="15.041965680656665"><ele>556.0</ele><time>2026-03-22T09:19:03Z</time></trkpt><trkpt lat="41.18328169310146" lon="15.042044474101223"><ele>556.0</ele><time>2026-03-22T09:19:04Z</time></trkpt><trkpt lat="41.18319858708654" lon="15.04209409447598"><ele>556.0</ele><time>2026-03-22T09:19:05Z</time></trkpt><trkpt lat="41.183133721920775" lon="15.042087352999257"><ele>556.0</ele><time>2026-03-22T09:19:06Z</time></trkpt><trkpt lat="41.18307094430307" lon="15.042096790958043"><ele>556.0</ele><time>2026-03-22T09:19:07Z</time></trkpt><trkpt lat="41.18299209201925" lon="15.042147533232116"><ele>556.0</ele><time>2026-03-22T09:19:08Z</time></trkpt><trkpt lat="41.1828688812942" lon="15.04220040083073"><ele>554.2</ele><time>2026-03-22T09:19:09Z</time></trkpt><trkpt lat="41.182773841123634" lon="15.042285701607096"><ele>552.4000000000001</ele><time>2026-03-22T09:19:10Z</time></trkpt><trkpt lat="41.182699713322734" lon="15.042338928650006"><ele>550.6</ele><time>2026-03-22T09:19:11Z</time></trkpt><trkpt lat="41.18262166888383" lon="15.042364074321464"><ele>548.8000000000001</ele><time>2026-03-22T09:19:13Z</time></trkpt><trkpt lat="41.1825925587221" lon="15.042186138724777"><ele>547.0</ele><time>2026-03-22T09:19:15Z</time></trkpt><trkpt lat="41.1825982080596" lon="15.042013433396177"><ele>547.0</ele><time>2026-03-22T09:19:16Z</time></trkpt><trkpt lat="41.182597416325834" lon="15.041914021190845"><ele>547.0</ele><time>2026-03-22T09:19:17Z</time></trkpt><trkpt lat="41.18264419420275" lon="15.041810746949043"><ele>547.0</ele><time>2026-03-22T09:19:19Z</time></trkpt><trkpt lat="41.182742967471306" lon="15.041772953573078"><ele>547.0</ele><time>2026-03-22T09:19:20Z</time></trkpt><trkpt lat="41.18286149404156" lon="15.041665354062307"><ele>547.0</ele><time>2026-03-22T09:19:21Z</time></trkpt><trkpt lat="41.182942853249266" lon="15.041566183143974"><ele>543.6</ele><time>2026-03-22T09:19:22Z</time></trkpt><trkpt lat="41.18298702738891" lon="15.041429458425304"><ele>540.2</ele><time>2026-03-22T09:19:24Z</time></trkpt><trkpt lat="41.18298471387985" lon="15.041311164768498"><ele>536.8</ele><time>2026-03-22T09:19:25Z</time></trkpt><trkpt lat="41.182966646280356" lon="15.041177237807018"><ele>533.4</ele><time>2026-03-22T09:19:26Z</time></trkpt><trkpt lat="41.18294942137138" lon="15.041088790045029"><ele>530.0</ele><time>2026-03-22T09:19:27Z</time></trkpt><trkpt lat="41.183036593689046" lon="15.040974960847942"><ele>530.0</ele><time>2026-03-22T09:19:30Z</time></trkpt><trkpt lat="41.18310242050029" lon="15.04091094446723"><ele>530.0</ele><time>2026-03-22T09:19:32Z</time></trkpt><trkpt lat="41.18316407000916" lon="15.040800976094594"><ele>530.0</ele><time>2026-03-22T09:19:34Z</time></trkpt><trkpt lat="41.18323530964291" lon="15.040768194830482"><ele>530.0</ele><time>2026-03-22T09:19:35Z</time></trkpt><trkpt lat="41.18332490267409" lon="15.040720091791437"><ele>530.0</ele><time>2026-03-22T09:19:36Z</time></trkpt><trkpt lat="41.18343291555824" lon="15.04065558969707"><ele>526.25</ele><time>2026-03-22T09:19:37Z</time></trkpt><trkpt lat="41.183562413725525" lon="15.040596852935003"><ele>522.5</ele><time>2026-03-22T09:19:38Z</time></trkpt><trkpt lat="41.18368939598175" lon="15.040493401995171"><ele>518.75</ele><time>2026-03-22T09:19:39Z</time></trkpt><trkpt lat="41.18382414074724" lon="15.040393963131413"><ele>515.0</ele><time>2026-03-22T09:19:40Z</time></trkpt><trkpt lat="41.18393921734903" lon="15.040283801462232"><ele>517.0</ele><time>2026-03-22T09:19:41Z</time></trkpt><trkpt lat="41.184024036813724" lon="15.04016865925782"><ele>519.0</ele><time>2026-03-22T09:19:42Z</time></trkpt><trkpt lat="41.184100710000045" lon="15.040039599380792"><ele>521.0</ele><time>2026-03-22T09:19:43Z</time></trkpt><trkpt lat="41.18416887499895" lon="15.039933241262812"><ele>523.0</ele><time>2026-03-22T09:19:44Z</time></trkpt><trkpt lat="41.18423684309335" lon="15.039874576405953"><ele>525.0</ele><time>2026-03-22T09:19:45Z</time></trkpt><trkpt lat="41.18429481826053" lon="15.03982554563012"><ele>520.2</ele><time>2026-03-22T09:19:46Z</time></trkpt><trkpt lat="41.18433109408715" lon="15.039742081589523"><ele>515.4</ele><time>2026-03-22T09:19:48Z</time></trkpt><trkpt lat="41.18428453466843" lon="15.039678762601394"><ele>510.6</ele><time>2026-03-22T09:19:50Z</time></trkpt><trkpt lat="41.18421621883087" lon="15.03968262386004"><ele>505.8</ele><time>2026-03-22T09:19:51Z</time></trkpt><trkpt lat="41.184073500019075" lon="15.039613118244228"><ele>501.0</ele><time>2026-03-22T09:19:53Z</time></trkpt><trkpt lat="41.18392723392286" lon="15.039658844492648"><ele>500.6</ele><time>2026-03-22T09:19:54Z</time></trkpt><trkpt lat="41.183787808142995" lon="15.039644100651962"><ele>500.20000000000005</ele><time>2026-03-22T09:19:55Z</time></trkpt><trkpt lat="41.1836844922592" lon="15.039642332976573"><ele>499.79999999999995</ele><time>2026-03-22T09:19:56Z</time></trkpt><trkpt lat="41.183593484430446" lon="15.039632656864846"><ele>499.4</ele><time>2026-03-22T09:19:57Z</time></trkpt><trkpt lat="41.18351821949953" lon="15.039613018195915"><ele>499.0</ele><time>2026-03-22T09:19:58Z</time></trkpt><trkpt lat="41.18344540150278" lon="15.039610819669557"><ele>499.00000000000006</ele><time>2026-03-22T09:19:59Z</time></trkpt><trkpt lat="41.18338441240126" lon="15.039572767042387"><ele>499.0</ele><time>2026-03-22T09:20:00Z</time></trkpt><trkpt lat="41.1833183549992" lon="15.039512481841657"><ele>499.0</ele><time>2026-03-22T09:20:01Z</time></trkpt><trkpt lat="41.183253779057786" lon="15.03946330175157"><ele>499.0</ele><time>2026-03-22T09:20:02Z</time></trkpt><trkpt lat="41.18320131915962" lon="15.039404431397575"><ele>499.00000000000006</ele><time>2026-03-22T09:20:03Z</time></trkpt><trkpt lat="41.18316928843075" lon="15.039332384471704"><ele>499.0</ele><time>2026-03-22T09:20:04Z</time></trkpt><trkpt lat="41.18314357081313" lon="15.039171712251582"><ele>497.0</ele><time>2026-03-22T09:20:06Z</time></trkpt><trkpt lat="41.18318728964237" lon="15.03902554847138"><ele>495.0</ele><time>2026-03-22T09:20:07Z</time></trkpt><trkpt lat="41.18326762583844" lon="15.038828613143247"><ele>493.0</ele><time>2026-03-22T09:20:08Z</time></trkpt><trkpt lat="41.183292877942435" lon="15.038664174139319"><ele>491.0</ele><time>2026-03-22T09:20:09Z</time></trkpt><trkpt lat="41.183295790428105" lon="15.038545277130714"><ele>491.0</ele><time>2026-03-22T09:20:10Z</time></trkpt><trkpt lat="41.18332568403608" lon="15.038392621808665"><ele>491.0</ele><time>2026-03-22T09:20:11Z</time></trkpt><trkpt lat="41.18333312058671" lon="15.038278565295753"><ele>491.0</ele><time>2026-03-22T09:20:12Z</time></trkpt><trkpt lat="41.18334793557952" lon="15.038120811130762"><ele>491.0</ele><time>2026-03-22T09:20:14Z</time></trkpt><trkpt lat="41.18333558163287" lon="15.03798303442639"><ele>491.0</ele><time>2026-03-22T09:20:15Z</time></trkpt><trkpt lat="41.18334966797917" lon="15.037829373984664"><ele>491.6</ele><time>2026-03-22T09:20:16Z</time></trkpt><trkpt lat="41.18335832307021" lon="15.03772173300612"><ele>492.20000000000005</ele><time>2026-03-22T09:20:17Z</time></trkpt><trkpt lat="41.183366600579134" lon="15.037565716727899"><ele>492.79999999999995</ele><time>2026-03-22T09:20:18Z</time></trkpt><trkpt lat="41.183394721277914" lon="15.037386924332163"><ele>493.4</ele><time>2026-03-22T09:20:19Z</time></trkpt><trkpt lat="41.18341830399335" lon="15.037285015806342"><ele>494.0</ele><time>2026-03-22T09:20:20Z</time></trkpt><trkpt lat="41.183426243343995" lon="15.037192340790495"><ele>492.79999999999995</ele><time>2026-03-22T09:20:21Z</time></trkpt><trkpt lat="41.18343302972314" lon="15.03710221039847"><ele>491.59999999999997</ele><time>2026-03-22T09:20:22Z</time></trkpt><trkpt lat="41.18338951997609" lon="15.036920733706205"><ele>490.4</ele><time>2026-03-22T09:20:24Z</time></trkpt><trkpt lat="41.18332866050237" lon="15.036784028944494"><ele>489.2</ele><time>2026-03-22T09:20:25Z</time></trkpt><trkpt lat="41.18328210781053" lon="15.036654183067773"><ele>488.0</ele><time>2026-03-22T09:20:26Z</time></trkpt><trkpt lat="41.183279709642555" lon="15.036487185839784"><ele>486.2</ele><time>2026-03-22T09:20:27Z</time></trkpt><trkpt lat="41.18328889449905" lon="15.036349860113068"><ele>484.4</ele><time>2026-03-22T09:20:28Z</time></trkpt><trkpt lat="41.183303482019866" lon="15.036234038981082"><ele>482.59999999999997</ele><time>2026-03-22T09:20:29Z</time></trkpt><trkpt lat="41.183319121882654" lon="15.036108585743035"><ele>480.79999999999995</ele><time>2026-03-22T09:20:30Z</time></trkpt><trkpt lat="41.18337779235366" lon="15.035958067729565"><ele>479.0</ele><time>2026-03-22T09:20:31Z</time></trkpt><trkpt lat="41.1834023265818" lon="15.035851670239353"><ele>476.79999999999995</ele><time>2026-03-22T09:20:32Z</time></trkpt><trkpt lat="41.183421974343425" lon="15.035762811980167"><ele>474.59999999999997</ele><time>2026-03-22T09:20:33Z</time></trkpt><trkpt lat="41.18339672278536" lon="15.035665409426656"><ele>472.4</ele><time>2026-03-22T09:20:35Z</time></trkpt><trkpt lat="41.18331128348637" lon="15.035526412701362"><ele>470.2</ele><time>2026-03-22T09:20:37Z</time></trkpt><trkpt lat="41.18327440075131" lon="15.03538688135714"><ele>468.0</ele><time>2026-03-22T09:20:38Z</time></trkpt><trkpt lat="41.18323962390588" lon="15.03527032355167"><ele>468.0</ele><time>2026-03-22T09:20:39Z</time></trkpt><trkpt lat="41.183226738866416" lon="15.035170972528489"><ele>468.0</ele><time>2026-03-22T09:20:40Z</time></trkpt><trkpt lat="41.18323102163187" lon="15.035076329215348"><ele>468.0</ele><time>2026-03-22T09:20:41Z</time></trkpt><trkpt lat="41.18328669504758" lon="15.034947878198716"><ele>468.0</ele><time>2026-03-22T09:20:44Z</time></trkpt><trkpt lat="41.18330990783533" lon="15.034832993435069"><ele>468.0</ele><time>2026-03-22T09:20:45Z</time></trkpt><trkpt lat="41.18334322547105" lon="15.034732093191025"><ele>468.0</ele><time>2026-03-22T09:20:46Z</time></trkpt><trkpt lat="41.183368658624595" lon="15.034647076800189"><ele>465.0</ele><time>2026-03-22T09:20:47Z</time></trkpt><trkpt lat="41.18339055403671" lon="15.034565769316616"><ele>462.0</ele><time>2026-03-22T09:20:48Z</time></trkpt><trkpt lat="41.183418316987" lon="15.034471741205824"><ele>459.0</ele><time>2026-03-22T09:20:49Z</time></trkpt><trkpt lat="41.18344656918648" lon="15.034388186863545"><ele>456.0</ele><time>2026-03-22T09:20:50Z</time></trkpt><trkpt lat="41.183498587956734" lon="15.03423624770796"><ele>453.0</ele><time>2026-03-22T09:20:52Z</time></trkpt><trkpt lat="41.183521003044575" lon="15.034141724043213"><ele>450.0</ele><time>2026-03-22T09:20:53Z</time></trkpt><trkpt lat="41.18354995711499" lon="15.03406636046777"><ele>445.6</ele><time>2026-03-22T09:20:54Z</time></trkpt><trkpt lat="41.18355687731379" lon="15.033916089075248"><ele>441.2</ele><time>2026-03-22T09:20:56Z</time></trkpt><trkpt lat="41.18348951869878" lon="15.033791642733073"><ele>436.79999999999995</ele><time>2026-03-22T09:20:58Z</time></trkpt><trkpt lat="41.18340591399407" lon="15.033660716932518"><ele>432.4</ele><time>2026-03-22T09:21:00Z</time></trkpt><trkpt lat="41.1833816050262" lon="15.033559234626702"><ele>428.0</ele><time>2026-03-22T09:21:01Z</time></trkpt><trkpt lat="41.18336184973297" lon="15.033451288903676"><ele>427.99999999999994</ele><time>2026-03-22T09:21:02Z</time></trkpt><trkpt lat="41.183362620728325" lon="15.033337564557819"><ele>428.0</ele><time>2026-03-22T09:21:03Z</time></trkpt><trkpt lat="41.18338241582945" lon="15.033224409606568"><ele>428.0</ele><time>2026-03-22T09:21:04Z</time></trkpt><trkpt lat="41.18339904990003" lon="15.033137393680674"><ele>428.0</ele><time>2026-03-22T09:21:05Z</time></trkpt><trkpt lat="41.183402995558886" lon="15.033024163951893"><ele>427.99999999999994</ele><time>2026-03-22T09:21:06Z</time></trkpt><trkpt lat="41.18340329611071" lon="15.03291098323663"><ele>428.0</ele><time>2026-03-22T09:21:07Z</time></trkpt><trkpt lat="41.183408596094" lon="15.03282343188308"><ele>424.66666666666663</ele><time>2026-03-22T09:21:08Z</time></trkpt><trkpt lat="41.183417192588735" lon="15.032732239590947"><ele>421.3333333333333</ele><time>2026-03-22T09:21:09Z</time></trkpt><trkpt lat="41.18342710189792" lon="15.03260845520265"><ele>418.0</ele><time>2026-03-22T09:21:10Z</time></trkpt><trkpt lat="41.18343038093688" lon="15.032485310767369"><ele>414.66666666666663</ele><time>2026-03-22T09:21:11Z</time></trkpt><trkpt lat="41.18342030037313" lon="15.032386024727856"><ele>411.3333333333333</ele><time>2026-03-22T09:21:12Z</time></trkpt><trkpt lat="41.183406778561505" lon="15.03229154880125"><ele>408.0</ele><time>2026-03-22T09:21:13Z</time></trkpt><trkpt lat="41.183454809297125" lon="15.032211632447675"><ele>405.0</ele><time>2026-03-22T09:21:15Z</time></trkpt><trkpt lat="41.18354154864371" lon="15.03217181182268"><ele>402.0</ele><time>2026-03-22T09:21:16Z</time></trkpt><trkpt lat="41.18362145545862" lon="15.03216139083517"><ele>399.0</ele><time>2026-03-22T09:21:17Z</time></trkpt><trkpt lat="41.183689513493924" lon="15.03213433570054"><ele>396.0</ele><time>2026-03-22T09:21:18Z</time></trkpt><trkpt lat="41.18371285040035" lon="15.032038319902103"><ele>393.0</ele><time>2026-03-22T09:21:20Z</time></trkpt><trkpt lat="41.18367493627228" lon="15.031939663371578"><ele>390.0</ele><time>2026-03-22T09:21:22Z</time></trkpt><trkpt lat="41.18377585153572" lon="15.031817040583658"><ele>390.0</ele><time>2026-03-22T09:21:24Z</time></trkpt><trkpt lat="41.18386132944627" lon="15.03177838464499"><ele>390.0</ele><time>2026-03-22T09:21:25Z</time></trkpt><trkpt lat="41.1839562906033" lon="15.03178773043628"><ele>390.0</ele><time>2026-03-22T09:21:26Z</time></trkpt><trkpt lat="41.184041931531546" lon="15.03174895438184"><ele>390.0</ele><time>2026-03-22T09:21:27Z</time></trkpt><trkpt lat="41.18412864100145" lon="15.031677662933498"><ele>390.0</ele><time>2026-03-22T09:21:28Z</time></trkpt><trkpt lat="41.18424959364662" lon="15.031587732909731"><ele>386.2</ele><time>2026-03-22T09:21:29Z</time></trkpt><trkpt lat="41.18435425947888" lon="15.031514090754435"><ele>382.4</ele><time>2026-03-22T09:21:30Z</time></trkpt><trkpt lat="41.18444925797798" lon="15.031428773700839"><ele>378.6</ele><time>2026-03-22T09:21:31Z</time></trkpt><trkpt lat="41.184528439080324" lon="15.031360773794706"><ele>374.8</ele><time>2026-03-22T09:21:32Z</time></trkpt><trkpt lat="41.18458696912263" lon="15.031286322716806"><ele>371.0</ele><time>2026-03-22T09:21:33Z</time></trkpt><trkpt lat="41.184615521816916" lon="15.031179356640456"><ele>371.0</ele><time>2026-03-22T09:21:34Z</time></trkpt><trkpt lat="41.18465993372004" lon="15.031055155681067"><ele>371.0</ele><time>2026-03-22T09:21:35Z</time></trkpt><trkpt lat="41.184720610592024" lon="15.03098682308917"><ele>371.0</ele><time>2026-03-22T09:21:36Z</time></trkpt><trkpt lat="41.18477722207965" lon="15.030936570346492"><ele>371.0</ele><time>2026-03-22T09:21:37Z</time></trkpt><trkpt lat="41.18481701283411" lon="15.03086125347729"><ele>371.0</ele><time>2026-03-22T09:21:38Z</time></trkpt><trkpt lat="41.184853152845946" lon="15.030766076688671"><ele>371.0</ele><time>2026-03-22T09:21:39Z</time></trkpt><trkpt lat="41.18490268593066" lon="15.030695872205689"><ele>368.6666666666667</ele><time>2026-03-22T09:21:40Z</time></trkpt><trkpt lat="41.18495665274501" lon="15.030615306682659"><ele>366.33333333333337</ele><time>2026-03-22T09:21:41Z</time></trkpt><trkpt lat="41.18501993987786" lon="15.0305533976444"><ele>364.0</ele><time>2026-03-22T09:21:42Z</time></trkpt><trkpt lat="41.185105606631396" lon="15.03047926260305"><ele>361.6666666666667</ele><time>2026-03-22T09:21:44Z</time></trkpt><trkpt lat="41.18512311572788" lon="15.030373625863989"><ele>359.3333333333333</ele><time>2026-03-22T09:21:46Z</time></trkpt><trkpt lat="41.18503545511844" lon="15.030296679830562"><ele>357.0</ele><time>2026-03-22T09:21:48Z</time></trkpt><trkpt lat="41.184968097968294" lon="15.030340679736002"><ele>357.0</ele><time>2026-03-22T09:21:49Z</time></trkpt><trkpt lat="41.1848559010132" lon="15.030420409572852"><ele>357.0</ele><time>2026-03-22T09:21:51Z</time></trkpt><trkpt lat="41.18478885897028" lon="15.030469475260029"><ele>357.0</ele><time>2026-03-22T09:21:52Z</time></trkpt><trkpt lat="41.1847347310054" lon="15.030524558126977"><ele>357.0</ele><time>2026-03-22T09:21:53Z</time></trkpt><trkpt lat="41.18472291283555" lon="15.030439408615614"><ele>357.0</ele><time>2026-03-22T09:21:56Z</time></trkpt><trkpt lat="41.184690961526556" lon="15.030273419295906"><ele>357.0</ele><time>2026-03-22T09:21:58Z</time></trkpt><trkpt lat="41.18474287693793" lon="15.03016962225063"><ele>357.0</ele><time>2026-03-22T09:21:59Z</time></trkpt><trkpt lat="41.18479657971024" lon="15.030073329036329"><ele>357.0</ele><time>2026-03-22T09:22:00Z</time></trkpt><trkpt lat="41.18486107836926" lon="15.029979342864005"><ele>357.0</ele><time>2026-03-22T09:22:01Z</time></trkpt><trkpt lat="41.18494313832458" lon="15.029870624215622"><ele>357.0</ele><time>2026-03-22T09:22:02Z</time></trkpt><trkpt lat="41.185054053188075" lon="15.02980909012821"><ele>356.3333333333333</ele><time>2026-03-22T09:22:03Z</time></trkpt><trkpt lat="41.18512506495605" lon="15.029792060815158"><ele>355.6666666666667</ele><time>2026-03-22T09:22:05Z</time></trkpt><trkpt lat="41.185178037738055" lon="15.029842787902256"><ele>355.0</ele><time>2026-03-22T09:22:06Z</time></trkpt><trkpt lat="41.18525672889215" lon="15.029869081099113"><ele>354.33333333333337</ele><time>2026-03-22T09:22:08Z</time></trkpt><trkpt lat="41.185323689653444" lon="15.029879793534034"><ele>353.6666666666667</ele><time>2026-03-22T09:22:10Z</time></trkpt><trkpt lat="41.185407309212145" lon="15.029871241941887"><ele>353.0</ele><time>2026-03-22T09:22:12Z</time></trkpt><trkpt lat="41.18548071475784" lon="15.02979891569069"><ele>353.0</ele><time>2026-03-22T09:22:15Z</time></trkpt><trkpt lat="41.185468473782805" lon="15.029661985257158"><ele>353.0</ele><time>2026-03-22T09:22:17Z</time></trkpt><trkpt lat="41.1853731764431" lon="15.029615857303144"><ele>353.0</ele><time>2026-03-22T09:22:20Z</time></trkpt><trkpt lat="41.18527931281623" lon="15.029527051783877"><ele>353.0</ele><time>2026-03-22T09:22:22Z</time></trkpt><trkpt lat="41.185177862608825" lon="15.029506177726157"><ele>353.0</ele><time>2026-03-22T09:22:23Z</time></trkpt><trkpt lat="41.18508441984844" lon="15.029482028663276"><ele>353.0</ele><time>2026-03-22T09:22:24Z</time></trkpt><trkpt lat="41.184929833189486" lon="15.029435002506288"><ele>353.0</ele><time>2026-03-22T09:22:25Z</time></trkpt><trkpt lat="41.18485144236407" lon="15.029371724499404"><ele>353.0</ele><time>2026-03-22T09:22:26Z</time></trkpt><trkpt lat="41.1847604598867" lon="15.029219311007699"><ele>353.0</ele><time>2026-03-22T09:22:28Z</time></trkpt><trkpt lat="41.184742533952544" lon="15.029113872583705"><ele>354.75</ele><time>2026-03-22T09:22:29Z</time></trkpt><trkpt lat="41.184784595855696" lon="15.028921669988435"><ele>356.5</ele><time>2026-03-22T09:22:30Z</time></trkpt><trkpt lat="41.18481820259454" lon="15.02877427217937"><ele>358.25</ele><time>2026-03-22T09:22:31Z</time></trkpt><trkpt lat="41.184839382120664" lon="15.028598222094738"><ele>360.0</ele><time>2026-03-22T09:22:32Z</time></trkpt><trkpt lat="41.184835880095754" lon="15.028448907740833"><ele>360.0</ele><time>2026-03-22T09:22:33Z</time></trkpt><trkpt lat="41.18482160075271" lon="15.028310931484613"><ele>360.0</ele><time>2026-03-22T09:22:34Z</time></trkpt><trkpt lat="41.18480972831012" lon="15.028155437620141"><ele>360.0</ele><time>2026-03-22T09:22:35Z</time></trkpt><trkpt lat="41.18478039051048" lon="15.028037008573238"><ele>360.0</ele><time>2026-03-22T09:22:36Z</time></trkpt><trkpt lat="41.184834010553466" lon="15.02794044129508"><ele>360.0</ele><time>2026-03-22T09:22:37Z</time></trkpt><trkpt lat="41.18484140097835" lon="15.027856179893682"><ele>357.2</ele><time>2026-03-22T09:22:38Z</time></trkpt><trkpt lat="41.18483941213623" lon="15.027702587752263"><ele>354.4</ele><time>2026-03-22T09:22:39Z</time></trkpt><trkpt lat="41.18481477853105" lon="15.027557025485892"><ele>351.6</ele><time>2026-03-22T09:22:40Z</time></trkpt><trkpt lat="41.184779382417865" lon="15.027453902090333"><ele>348.8</ele><time>2026-03-22T09:22:41Z</time></trkpt><trkpt lat="41.18471241419035" lon="15.027369950479258"><ele>346.0</ele><time>2026-03-22T09:22:42Z</time></trkpt><trkpt lat="41.1846369213056" lon="15.027293286123001"><ele>344.20000000000005</ele><time>2026-03-22T09:22:43Z</time></trkpt><trkpt lat="41.18451539937214" lon="15.027207541808046"><ele>342.40000000000003</ele><time>2026-03-22T09:22:44Z</time></trkpt><trkpt lat="41.18443404190961" lon="15.027129390397887"><ele>340.6</ele><time>2026-03-22T09:22:45Z</time></trkpt><trkpt lat="41.18436622796583" lon="15.02705869181508"><ele>338.8</ele><time>2026-03-22T09:22:46Z</time></trkpt><trkpt lat="41.184278707774176" lon="15.026972062283303"><ele>337.0</ele><time>2026-03-22T09:22:47Z</time></trkpt><trkpt lat="41.18420034072818" lon="15.026878180653636"><ele>337.0</ele><time>2026-03-22T09:22:48Z</time></trkpt><trkpt lat="41.18413911904904" lon="15.026776793136177"><ele>337.0</ele><time>2026-03-22T09:22:49Z</time></trkpt><trkpt lat="41.18409610716697" lon="15.026698153243508"><ele>337.0</ele><time>2026-03-22T09:22:50Z</time></trkpt><trkpt lat="41.18404199676542" lon="15.026585501801382"><ele>337.0</ele><time>2026-03-22T09:22:52Z</time></trkpt><trkpt lat="41.1839348024294" lon="15.02645843975986"><ele>337.0</ele><time>2026-03-22T09:22:54Z</time></trkpt><trkpt lat="41.183873384546835" lon="15.026381445912417"><ele>336.75</ele><time>2026-03-22T09:22:55Z</time></trkpt><trkpt lat="41.18383935250817" lon="15.026263691399473"><ele>336.5</ele><time>2026-03-22T09:22:56Z</time></trkpt><trkpt lat="41.18378995208397" lon="15.026059235521272"><ele>336.25</ele><time>2026-03-22T09:22:57Z</time></trkpt><trkpt lat="41.183733388904194" lon="15.025859280916059"><ele>336.0</ele><time>2026-03-22T09:22:58Z</time></trkpt><trkpt lat="41.18366693326165" lon="15.02570781035404"><ele>333.3333333333333</ele><time>2026-03-22T09:22:59Z</time></trkpt><trkpt lat="41.183583736292384" lon="15.025562387594574"><ele>330.66666666666663</ele><time>2026-03-22T09:23:00Z</time></trkpt><trkpt lat="41.18346757329512" lon="15.02541523124353"><ele>328.0</ele><time>2026-03-22T09:23:01Z</time></trkpt><trkpt lat="41.18335031591597" lon="15.025277245504705"><ele>328.0</ele><time>2026-03-22T09:23:02Z</time></trkpt><trkpt lat="41.183256991762626" lon="15.025156998746068"><ele>328.0</ele><time>2026-03-22T09:23:03Z</time></trkpt><trkpt lat="41.18320242740458" lon="15.025075399099887"><ele>328.0</ele><time>2026-03-22T09:23:04Z</time></trkpt><trkpt lat="41.183159841438574" lon="15.025011546105588"><ele>328.0</ele><time>2026-03-22T09:23:05Z</time></trkpt><trkpt lat="41.18310500521363" lon="15.025056494289089"><ele>328.0</ele><time>2026-03-22T09:23:08Z</time></trkpt><trkpt lat="41.1831243122683" lon="15.025186598108144"><ele>328.0</ele><time>2026-03-22T09:23:10Z</time></trkpt><trkpt lat="41.18310108453155" lon="15.025271111775544"><ele>329.0</ele><time>2026-03-22T09:23:11Z</time></trkpt><trkpt lat="41.18306567078856" lon="15.02538000237338"><ele>330.0</ele><time>2026-03-22T09:23:12Z</time></trkpt><trkpt lat="41.18300161953908" lon="15.025520880566491"><ele>331.0</ele><time>2026-03-22T09:23:13Z</time></trkpt><trkpt lat="41.18293593325911" lon="15.025671035335836"><ele>332.0</ele><time>2026-03-22T09:23:14Z</time></trkpt><trkpt lat="41.18288618725577" lon="15.02581172395911"><ele>334.5</ele><time>2026-03-22T09:23:15Z</time></trkpt><trkpt lat="41.18283636830988" lon="15.025919610097548"><ele>337.0</ele><time>2026-03-22T09:23:16Z</time></trkpt><trkpt lat="41.18277531797001" lon="15.025992371579665"><ele>339.5</ele><time>2026-03-22T09:23:17Z</time></trkpt><trkpt lat="41.18269635443932" lon="15.026039145169026"><ele>342.0</ele><time>2026-03-22T09:23:18Z</time></trkpt><trkpt lat="41.18261509595445" lon="15.026048279849"><ele>344.5</ele><time>2026-03-22T09:23:19Z</time></trkpt><trkpt lat="41.18251913158815" lon="15.026047153535904"><ele>347.0</ele><time>2026-03-22T09:23:20Z</time></trkpt><trkpt lat="41.18241558697319" lon="15.026049844099331"><ele>346.8</ele><time>2026-03-22T09:23:21Z</time></trkpt><trkpt lat="41.182307962195985" lon="15.02608120674624"><ele>346.6</ele><time>2026-03-22T09:23:22Z</time></trkpt><trkpt lat="41.18217427060449" lon="15.026119689045787"><ele>346.40000000000003</ele><time>2026-03-22T09:23:23Z</time></trkpt><trkpt lat="41.182080772734544" lon="15.026118683767914"><ele>346.20000000000005</ele><time>2026-03-22T09:23:24Z</time></trkpt><trkpt lat="41.181996286589666" lon="15.026099843291837"><ele>346.0</ele><time>2026-03-22T09:23:25Z</time></trkpt><trkpt lat="41.18190912473587" lon="15.026060698009752"><ele>346.0</ele><time>2026-03-22T09:23:27Z</time></trkpt><trkpt lat="41.18184475816306" lon="15.026067841621128"><ele>346.0</ele><time>2026-03-22T09:23:29Z</time></trkpt><trkpt lat="41.181796729693275" lon="15.026130994835407"><ele>346.0</ele><time>2026-03-22T09:23:31Z</time></trkpt><trkpt lat="41.18175573661123" lon="15.02622690801764"><ele>346.0</ele><time>2026-03-22T09:23:33Z</time></trkpt><trkpt lat="41.18171821766572" lon="15.026297138540635"><ele>346.0</ele><time>2026-03-22T09:23:35Z</time></trkpt><trkpt lat="41.18167379163824" lon="15.02637516056582"><ele>346.0</ele><time>2026-03-22T09:23:37Z</time></trkpt><trkpt lat="41.18160979915546" lon="15.026427675120672"><ele>346.0</ele><time>2026-03-22T09:23:38Z</time></trkpt><trkpt lat="41.181522564703805" lon="15.026514844477564"><ele>346.20000000000005</ele><time>2026-03-22T09:23:39Z</time></trkpt><trkpt lat="41.181442319864956" lon="15.026565546981415"><ele>346.40000000000003</ele><time>2026-03-22T09:23:40Z</time></trkpt><trkpt lat="41.181365232392835" lon="15.026611135123868"><ele>346.6</ele><time>2026-03-22T09:23:41Z</time></trkpt><trkpt lat="41.18128017123396" lon="15.0266740706642"><ele>346.8</ele><time>2026-03-22T09:23:42Z</time></trkpt><trkpt lat="41.18119377152762" lon="15.026731656856336"><ele>347.0</ele><time>2026-03-22T09:23:43Z</time></trkpt><trkpt lat="41.181106562642256" lon="15.026794734594205"><ele>353.75</ele><time>2026-03-22T09:23:44Z</time></trkpt><trkpt lat="41.18100324441357" lon="15.026881529082576"><ele>360.5</ele><time>2026-03-22T09:23:45Z</time></trkpt><trkpt lat="41.180895409287295" lon="15.026964574884182"><ele>367.25</ele><time>2026-03-22T09:23:46Z</time></trkpt><trkpt lat="41.18078007254447" lon="15.027061958156695"><ele>374.0</ele><time>2026-03-22T09:23:47Z</time></trkpt><trkpt lat="41.18066964662369" lon="15.027193365982418"><ele>374.75</ele><time>2026-03-22T09:23:48Z</time></trkpt><trkpt lat="41.18057110493036" lon="15.027312718143683"><ele>375.5</ele><time>2026-03-22T09:23:49Z</time></trkpt><trkpt lat="41.18046806908055" lon="15.027428288475242"><ele>376.25</ele><time>2026-03-22T09:23:50Z</time></trkpt><trkpt lat="41.18035214088359" lon="15.027547182580689"><ele>377.0</ele><time>2026-03-22T09:23:51Z</time></trkpt><trkpt lat="41.18024271775998" lon="15.027649344123304"><ele>382.75</ele><time>2026-03-22T09:23:52Z</time></trkpt><trkpt lat="41.18013705192551" lon="15.027757994498213"><ele>388.5</ele><time>2026-03-22T09:23:53Z</time></trkpt><trkpt lat="41.180046114894424" lon="15.027839729308276"><ele>394.25</ele><time>2026-03-22T09:23:54Z</time></trkpt><trkpt lat="41.17995104897145" lon="15.027920485751665"><ele>400.0</ele><time>2026-03-22T09:23:55Z</time></trkpt><trkpt lat="41.179848510994326" lon="15.027982181331849"><ele>400.6</ele><time>2026-03-22T09:23:56Z</time></trkpt><trkpt lat="41.17975778356816" lon="15.028012151867006"><ele>401.2</ele><time>2026-03-22T09:23:57Z</time></trkpt><trkpt lat="41.17965477421279" lon="15.028020220427736"><ele>401.79999999999995</ele><time>2026-03-22T09:23:58Z</time></trkpt><trkpt lat="41.17953589701576" lon="15.028023793849748"><ele>402.4</ele><time>2026-03-22T09:23:59Z</time></trkpt><trkpt lat="41.17944016452463" lon="15.028050928361852"><ele>403.0</ele><time>2026-03-22T09:24:00Z</time></trkpt><trkpt lat="41.17934692859176" lon="15.028137681189074"><ele>403.0</ele><time>2026-03-22T09:24:01Z</time></trkpt><trkpt lat="41.17924497368521" lon="15.028260703032803"><ele>403.0</ele><time>2026-03-22T09:24:02Z</time></trkpt><trkpt lat="41.17914435638741" lon="15.028399839774549"><ele>403.0</ele><time>2026-03-22T09:24:03Z</time></trkpt><trkpt lat="41.17905916361603" lon="15.028522342049854"><ele>403.0</ele><time>2026-03-22T09:24:04Z</time></trkpt><trkpt lat="41.17900862817919" lon="15.028646303549877"><ele>403.5</ele><time>2026-03-22T09:24:05Z</time></trkpt><trkpt lat="41.17895690515697" lon="15.028825025092587"><ele>404.0</ele><time>2026-03-22T09:24:06Z</time></trkpt><trkpt lat="41.17887789068389" lon="15.028990351880415"><ele>404.5</ele><time>2026-03-22T09:24:07Z</time></trkpt><trkpt lat="41.17879370012887" lon="15.029142414465912"><ele>405.0</ele><time>2026-03-22T09:24:08Z</time></trkpt><trkpt lat="41.17874682288595" lon="15.029264442757118"><ele>408.0</ele><time>2026-03-22T09:24:09Z</time></trkpt><trkpt lat="41.17872496276473" lon="15.029400892623794"><ele>411.0</ele><time>2026-03-22T09:24:10Z</time></trkpt><trkpt lat="41.178726743909515" lon="15.029534554144565"><ele>414.0</ele><time>2026-03-22T09:24:11Z</time></trkpt><trkpt lat="41.178727209622316" lon="15.029693154473716"><ele>417.0</ele><time>2026-03-22T09:24:12Z</time></trkpt><trkpt lat="41.17873945421453" lon="15.02989707704784"><ele>419.0</ele><time>2026-03-22T09:24:13Z</time></trkpt><trkpt lat="41.178740183664395" lon="15.030102535640031"><ele>421.0</ele><time>2026-03-22T09:24:14Z</time></trkpt><trkpt lat="41.178734412946646" lon="15.03026735651534"><ele>423.0</ele><time>2026-03-22T09:24:15Z</time></trkpt><trkpt lat="41.17873945701897" lon="15.030434429760492"><ele>425.0</ele><time>2026-03-22T09:24:16Z</time></trkpt><trkpt lat="41.17876705085737" lon="15.030597274930862"><ele>425.0</ele><time>2026-03-22T09:24:17Z</time></trkpt><trkpt lat="41.178766179953314" lon="15.030713112809686"><ele>425.0</ele><time>2026-03-22T09:24:18Z</time></trkpt><trkpt lat="41.178731037688756" lon="15.030812753459001"><ele>425.0</ele><time>2026-03-22T09:24:19Z</time></trkpt><trkpt lat="41.17866938768598" lon="15.030921392156715"><ele>425.0</ele><time>2026-03-22T09:24:20Z</time></trkpt><trkpt lat="41.17858731488316" lon="15.031035850547536"><ele>425.0</ele><time>2026-03-22T09:24:21Z</time></trkpt><trkpt lat="41.178483974145855" lon="15.031158028955833"><ele>428.6</ele><time>2026-03-22T09:24:22Z</time></trkpt><trkpt lat="41.17841519948787" lon="15.031279164116457"><ele>432.2</ele><time>2026-03-22T09:24:23Z</time></trkpt><trkpt lat="41.1783672962632" lon="15.031393915697857"><ele>435.79999999999995</ele><time>2026-03-22T09:24:25Z</time></trkpt><trkpt lat="41.1783165296074" lon="15.0314905136291"><ele>439.4</ele><time>2026-03-22T09:24:27Z</time></trkpt><trkpt lat="41.178287242026535" lon="15.031611084827333"><ele>443.0</ele><time>2026-03-22T09:24:29Z</time></trkpt><trkpt lat="41.17824082911283" lon="15.031770403221758"><ele>445.49999999999994</ele><time>2026-03-22T09:24:31Z</time></trkpt><trkpt lat="41.178225791676894" lon="15.031880332166871"><ele>448.0</ele><time>2026-03-22T09:24:33Z</time></trkpt><trkpt lat="41.17820804303121" lon="15.0319739412938"><ele>450.5</ele><time>2026-03-22T09:24:36Z</time></trkpt><trkpt lat="41.178135349752985" lon="15.032058470201244"><ele>453.0</ele><time>2026-03-22T09:24:38Z</time></trkpt><trkpt lat="41.17812018094049" lon="15.032179318015228"><ele>455.49999999999994</ele><time>2026-03-22T09:24:40Z</time></trkpt><trkpt lat="41.17811063845069" lon="15.032278299409889"><ele>458.0</ele><time>2026-03-22T09:24:41Z</time></trkpt><trkpt lat="41.17809758586558" lon="15.032371819268624"><ele>460.59999999999997</ele><time>2026-03-22T09:24:42Z</time></trkpt><trkpt lat="41.17808763928382" lon="15.03247780909521"><ele>463.19999999999993</ele><time>2026-03-22T09:24:43Z</time></trkpt><trkpt lat="41.178076231777105" lon="15.032589467454505"><ele>465.8</ele><time>2026-03-22T09:24:44Z</time></trkpt><trkpt lat="41.17810985217714" lon="15.03270445500247"><ele>468.4</ele><time>2026-03-22T09:24:46Z</time></trkpt><trkpt lat="41.178220094716075" lon="15.032751915383109"><ele>471.0</ele><time>2026-03-22T09:24:48Z</time></trkpt><trkpt lat="41.17829975354261" lon="15.03277773667882"><ele>471.0</ele><time>2026-03-22T09:24:51Z</time></trkpt><trkpt lat="41.178276475905705" lon="15.032865752327917"><ele>471.0</ele><time>2026-03-22T09:24:53Z</time></trkpt><trkpt lat="41.17829682083019" lon="15.033137665596902"><ele>471.0</ele><time>2026-03-22T09:24:55Z</time></trkpt><trkpt lat="41.17830240708237" lon="15.03326246838485"><ele>471.0</ele><time>2026-03-22T09:24:56Z</time></trkpt><trkpt lat="41.178302371376866" lon="15.03335006532006"><ele>471.0</ele><time>2026-03-22T09:24:57Z</time></trkpt><trkpt lat="41.17820906682896" lon="15.033359749406523"><ele>468.66666666666663</ele><time>2026-03-22T09:24:59Z</time></trkpt><trkpt lat="41.17802474727109" lon="15.033402434861664"><ele>466.3333333333333</ele><time>2026-03-22T09:25:01Z</time></trkpt><trkpt lat="41.177892806104886" lon="15.033474372264005"><ele>464.0</ele><time>2026-03-22T09:25:02Z</time></trkpt><trkpt lat="41.17776372689139" lon="15.033540124127196"><ele>464.0</ele><time>2026-03-22T09:25:03Z</time></trkpt><trkpt lat="41.177687766784324" lon="15.033641049928084"><ele>464.0</ele><time>2026-03-22T09:25:04Z</time></trkpt><trkpt lat="41.17756916455385" lon="15.033753405525367"><ele>464.0</ele><time>2026-03-22T09:25:06Z</time></trkpt><trkpt lat="41.17755564741781" lon="15.034010339329058"><ele>464.0</ele><time>2026-03-22T09:25:07Z</time></trkpt><trkpt lat="41.177490385811055" lon="15.034174333349617"><ele>466.75</ele><time>2026-03-22T09:25:08Z</time></trkpt><trkpt lat="41.1774648663369" lon="15.03435041358491"><ele>469.5</ele><time>2026-03-22T09:25:09Z</time></trkpt><trkpt lat="41.17746082380652" lon="15.034551404056076"><ele>472.25</ele><time>2026-03-22T09:25:10Z</time></trkpt><trkpt lat="41.177498646078234" lon="15.03466468040469"><ele>475.0</ele><time>2026-03-22T09:25:11Z</time></trkpt><trkpt lat="41.17752267354494" lon="15.034834698463346"><ele>474.8</ele><time>2026-03-22T09:25:12Z</time></trkpt><trkpt lat="41.177558351259236" lon="15.035019493862933"><ele>474.6</ele><time>2026-03-22T09:25:13Z</time></trkpt><trkpt lat="41.17757904957905" lon="15.0351586604515"><ele>474.4</ele><time>2026-03-22T09:25:14Z</time></trkpt><trkpt lat="41.17759065458553" lon="15.035253526319485"><ele>474.2</ele><time>2026-03-22T09:25:15Z</time></trkpt><trkpt lat="41.17766849507834" lon="15.035316593502836"><ele>474.0</ele><time>2026-03-22T09:25:17Z</time></trkpt><trkpt lat="41.177732743020634" lon="15.035326872119223"><ele>474.0</ele><time>2026-03-22T09:25:18Z</time></trkpt><trkpt lat="41.177808005247655" lon="15.035338849904525"><ele>474.0</ele><time>2026-03-22T09:25:19Z</time></trkpt><trkpt lat="41.177919687768814" lon="15.035339487194765"><ele>474.0</ele><time>2026-03-22T09:25:20Z</time></trkpt><trkpt lat="41.17801122893115" lon="15.035326228973329"><ele>474.0</ele><time>2026-03-22T09:25:21Z</time></trkpt><trkpt lat="41.178114240912336" lon="15.03529842884702"><ele>474.0</ele><time>2026-03-22T09:25:22Z</time></trkpt><trkpt lat="41.17821502351429" lon="15.035294913390484"><ele>480.5</ele><time>2026-03-22T09:25:23Z</time></trkpt><trkpt lat="41.178336713185274" lon="15.035308558827289"><ele>487.0</ele><time>2026-03-22T09:25:24Z</time></trkpt><trkpt lat="41.17845327036071" lon="15.035338791963012"><ele>493.5</ele><time>2026-03-22T09:25:25Z</time></trkpt><trkpt lat="41.17857916827588" lon="15.035364151581296"><ele>500.0</ele><time>2026-03-22T09:25:26Z</time></trkpt><trkpt lat="41.17870716304035" lon="15.03538635246901"><ele>500.0</ele><time>2026-03-22T09:25:27Z</time></trkpt><trkpt lat="41.17882458508902" lon="15.035396847804344"><ele>500.0</ele><time>2026-03-22T09:25:28Z</time></trkpt><trkpt lat="41.17892222535349" lon="15.035399191607667"><ele>500.0</ele><time>2026-03-22T09:25:29Z</time></trkpt><trkpt lat="41.178945936970685" lon="15.035539128110326"><ele>500.0</ele><time>2026-03-22T09:25:32Z</time></trkpt><trkpt lat="41.1789451824598" lon="15.035643781973942"><ele>500.0</ele><time>2026-03-22T09:25:33Z</time></trkpt><trkpt lat="41.17897768165026" lon="15.035721582716727"><ele>500.49999999999994</ele><time>2026-03-22T09:25:34Z</time></trkpt><trkpt lat="41.1790298483649" lon="15.035780650723714"><ele>501.0</ele><time>2026-03-22T09:25:35Z</time></trkpt><trkpt lat="41.1791038889833" lon="15.035834001365048"><ele>501.5</ele><time>2026-03-22T09:25:36Z</time></trkpt><trkpt lat="41.17914605481077" lon="15.035901402671351"><ele>502.0</ele><time>2026-03-22T09:25:37Z</time></trkpt><trkpt lat="41.17918444019844" lon="15.035998782749175"><ele>502.49999999999994</ele><time>2026-03-22T09:25:39Z</time></trkpt><trkpt lat="41.179223810185505" lon="15.036154427428324"><ele>503.0</ele><time>2026-03-22T09:25:44Z</time></trkpt><trkpt lat="41.17925350887271" lon="15.036290798153027"><ele>503.75</ele><time>2026-03-22T09:25:45Z</time></trkpt><trkpt lat="41.179241671420215" lon="15.036457229479998"><ele>504.5</ele><time>2026-03-22T09:25:46Z</time></trkpt><trkpt lat="41.179235335416095" lon="15.036600327791662"><ele>505.25</ele><time>2026-03-22T09:25:47Z</time></trkpt><trkpt lat="41.17920503694994" lon="15.036773496768458"><ele>506.0</ele><time>2026-03-22T09:25:48Z</time></trkpt><trkpt lat="41.179184569580165" lon="15.036891395894148"><ele>507.6</ele><time>2026-03-22T09:25:49Z</time></trkpt><trkpt lat="41.17922754280578" lon="15.036972781287233"><ele>509.20000000000005</ele><time>2026-03-22T09:25:50Z</time></trkpt><trkpt lat="41.179310448931304" lon="15.037068843638043"><ele>510.79999999999995</ele><time>2026-03-22T09:25:51Z</time></trkpt><trkpt lat="41.17937705532314" lon="15.037155914286915"><ele>512.4</ele><time>2026-03-22T09:25:52Z</time></trkpt><trkpt lat="41.17947186772277" lon="15.037265344249095"><ele>514.0</ele><time>2026-03-22T09:25:53Z</time></trkpt><trkpt lat="41.17955730698648" lon="15.037401952081055"><ele>515.8333333333334</ele><time>2026-03-22T09:25:54Z</time></trkpt><trkpt lat="41.179616249337855" lon="15.037507010971565"><ele>517.6666666666667</ele><time>2026-03-22T09:25:55Z</time></trkpt><trkpt lat="41.179645582914155" lon="15.037612843827304"><ele>519.5</ele><time>2026-03-22T09:25:56Z</time></trkpt><trkpt lat="41.17959799680504" lon="15.037685894500651"><ele>521.3333333333334</ele><time>2026-03-22T09:25:57Z</time></trkpt><trkpt lat="41.17956012166814" lon="15.037764273330598"><ele>523.1666666666666</ele><time>2026-03-22T09:25:58Z</time></trkpt><trkpt lat="41.17952768883781" lon="15.03787073377398"><ele>525.0</ele><time>2026-03-22T09:25:59Z</time></trkpt><trkpt lat="41.17950167838962" lon="15.038020387989"><ele>525.0</ele><time>2026-03-22T09:26:00Z</time></trkpt><trkpt lat="41.179517505600295" lon="15.038131599496529"><ele>525.0</ele><time>2026-03-22T09:26:01Z</time></trkpt><trkpt lat="41.179551518493724" lon="15.03822114254041"><ele>525.0</ele><time>2026-03-22T09:26:02Z</time></trkpt><trkpt lat="41.17959845332258" lon="15.03833197625425"><ele>525.0</ele><time>2026-03-22T09:26:03Z</time></trkpt><trkpt lat="41.17964526229502" lon="15.038505189544518"><ele>525.0</ele><time>2026-03-22T09:26:04Z</time></trkpt><trkpt lat="41.179702100720284" lon="15.038674212004654"><ele>526.0</ele><time>2026-03-22T09:26:05Z</time></trkpt><trkpt lat="41.17975063796403" lon="15.038833237523146"><ele>527.0</ele><time>2026-03-22T09:26:06Z</time></trkpt><trkpt lat="41.179775511542616" lon="15.039019267322585"><ele>528.0</ele><time>2026-03-22T09:26:07Z</time></trkpt><trkpt lat="41.17978306324493" lon="15.039174307075204"><ele>529.0</ele><time>2026-03-22T09:26:08Z</time></trkpt><trkpt lat="41.17979255271326" lon="15.039307197895656"><ele>530.0</ele><time>2026-03-22T09:26:09Z</time></trkpt><trkpt lat="41.17980801627009" lon="15.03944157060164"><ele>531.0</ele><time>2026-03-22T09:26:11Z</time></trkpt><trkpt lat="41.17970637063447" lon="15.039380458233126"><ele>532.0</ele><time>2026-03-22T09:26:13Z</time></trkpt><trkpt lat="41.179626528997744" lon="15.039431097703245"><ele>533.0</ele><time>2026-03-22T09:26:14Z</time></trkpt><trkpt lat="41.17952242382499" lon="15.039512363672035"><ele>534.0</ele><time>2026-03-22T09:26:15Z</time></trkpt><trkpt lat="41.17939058610238" lon="15.03963198266803"><ele>534.0</ele><time>2026-03-22T09:26:16Z</time></trkpt><trkpt lat="41.17924534869553" lon="15.039773710831469"><ele>534.0</ele><time>2026-03-22T09:26:17Z</time></trkpt><trkpt lat="41.17908938983737" lon="15.03992837342852"><ele>534.0</ele><time>2026-03-22T09:26:18Z</time></trkpt><trkpt lat="41.17895377568157" lon="15.040040380849181"><ele>532.0</ele><time>2026-03-22T09:26:19Z</time></trkpt><trkpt lat="41.17886040027961" lon="15.04011900866809"><ele>530.0</ele><time>2026-03-22T09:26:20Z</time></trkpt><trkpt lat="41.17877934923266" lon="15.040194381785819"><ele>528.0</ele><time>2026-03-22T09:26:21Z</time></trkpt><trkpt lat="41.17870928265983" lon="15.040279079450238"><ele>526.0</ele><time>2026-03-22T09:26:22Z</time></trkpt><trkpt lat="41.17862283483072" lon="15.040413601737646"><ele>524.0</ele><time>2026-03-22T09:26:23Z</time></trkpt><trkpt lat="41.178515106052885" lon="15.040569313986083"><ele>524.0</ele><time>2026-03-22T09:26:24Z</time></trkpt><trkpt lat="41.17843232530449" lon="15.040693920327243"><ele>524.0</ele><time>2026-03-22T09:26:25Z</time></trkpt><trkpt lat="41.17836074913295" lon="15.040790434992333"><ele>524.0</ele><time>2026-03-22T09:26:26Z</time></trkpt><trkpt lat="41.1782921019935" lon="15.040840870285246"><ele>524.0</ele><time>2026-03-22T09:26:27Z</time></trkpt><trkpt lat="41.178223060024685" lon="15.040863356215791"><ele>524.0</ele><time>2026-03-22T09:26:28Z</time></trkpt><trkpt lat="41.17814856169372" lon="15.040929914814734"><ele>519.75</ele><time>2026-03-22T09:26:29Z</time></trkpt><trkpt lat="41.178098077946885" lon="15.040763920667034"><ele>515.5</ele><time>2026-03-22T09:26:30Z</time></trkpt><trkpt lat="41.17798475708751" lon="15.040738355685482"><ele>511.25</ele><time>2026-03-22T09:26:31Z</time></trkpt><trkpt lat="41.17787880783632" lon="15.04067794618513"><ele>507.0</ele><time>2026-03-22T09:26:32Z</time></trkpt><trkpt lat="41.1777924698323" lon="15.040607150065965"><ele>507.0</ele><time>2026-03-22T09:26:33Z</time></trkpt><trkpt lat="41.177760541281884" lon="15.040526306891543"><ele>507.00000000000006</ele><time>2026-03-22T09:26:34Z</time></trkpt><trkpt lat="41.17769081849214" lon="15.040440423719623"><ele>507.00000000000006</ele><time>2026-03-22T09:26:35Z</time></trkpt><trkpt lat="41.17767850610481" lon="15.040343114378866"><ele>507.0</ele><time>2026-03-22T09:26:37Z</time></trkpt><trkpt lat="41.17762030834382" lon="15.0402845310677"><ele>507.0</ele><time>2026-03-22T09:26:38Z</time></trkpt><trkpt lat="41.17715113176894" lon="15.040625134725536"><ele>507.6</ele><time>2026-03-22T09:26:39Z</time></trkpt><trkpt lat="41.177100431379294" lon="15.040544183646048"><ele>508.20000000000005</ele><time>2026-03-22T09:26:40Z</time></trkpt><trkpt lat="41.17702519244206" lon="15.040491050819226"><ele>508.8</ele><time>2026-03-22T09:26:41Z</time></trkpt><trkpt lat="41.176933418906124" lon="15.040457909561765"><ele>509.4</ele><time>2026-03-22T09:26:42Z</time></trkpt><trkpt lat="41.17681190644779" lon="15.040457568178653"><ele>510.0</ele><time>2026-03-22T09:26:43Z</time></trkpt><trkpt lat="41.17674448421113" lon="15.040441247524296"><ele>510.0</ele><time>2026-03-22T09:26:44Z</time></trkpt><trkpt lat="41.17665993544989" lon="15.040349880456127"><ele>510.0</ele><time>2026-03-22T09:26:45Z</time></trkpt><trkpt lat="41.1765457804927" lon="15.040245961474248"><ele>510.0</ele><time>2026-03-22T09:26:46Z</time></trkpt><trkpt lat="41.176445549551424" lon="15.040181847684236"><ele>510.0</ele><time>2026-03-22T09:26:47Z</time></trkpt><trkpt lat="41.17634680404949" lon="15.040106476015504"><ele>512.0</ele><time>2026-03-22T09:26:48Z</time></trkpt><trkpt lat="41.17626439846144" lon="15.040051186940458"><ele>514.0</ele><time>2026-03-22T09:26:49Z</time></trkpt><trkpt lat="41.17618314275466" lon="15.040003394294068"><ele>516.0</ele><time>2026-03-22T09:26:50Z</time></trkpt><trkpt lat="41.176080062534304" lon="15.039989377945753"><ele>518.0</ele><time>2026-03-22T09:26:51Z</time></trkpt><trkpt lat="41.1759576086104" lon="15.039903979074623"><ele>520.0</ele><time>2026-03-22T09:26:52Z</time></trkpt><trkpt lat="41.175871746771605" lon="15.039800401845877"><ele>520.0</ele><time>2026-03-22T09:26:53Z</time></trkpt><trkpt lat="41.175843609432036" lon="15.03968740472398"><ele>520.0</ele><time>2026-03-22T09:26:54Z</time></trkpt><trkpt lat="41.175814732398926" lon="15.039521282823499"><ele>520.0</ele><time>2026-03-22T09:26:55Z</time></trkpt><trkpt lat="41.175800260131126" lon="15.039332554708842"><ele>520.0</ele><time>2026-03-22T09:26:56Z</time></trkpt><trkpt lat="41.17578057958327" lon="15.03911325486672"><ele>521.5</ele><time>2026-03-22T09:26:57Z</time></trkpt><trkpt lat="41.175750602450634" lon="15.038901666771126"><ele>523.0</ele><time>2026-03-22T09:26:58Z</time></trkpt><trkpt lat="41.17573179728651" lon="15.038767027088145"><ele>524.5</ele><time>2026-03-22T09:26:59Z</time></trkpt><trkpt lat="41.1756799908596" lon="15.038647686735953"><ele>526.0</ele><time>2026-03-22T09:27:00Z</time></trkpt><trkpt lat="41.175598468237446" lon="15.038484265890187"><ele>526.0</ele><time>2026-03-22T09:27:01Z</time></trkpt><trkpt lat="41.17549023700697" lon="15.038345837825542"><ele>526.0</ele><time>2026-03-22T09:27:02Z</time></trkpt><trkpt lat="41.175442371242944" lon="15.038256157281662"><ele>526.0</ele><time>2026-03-22T09:27:03Z</time></trkpt><trkpt lat="41.175403297379084" lon="15.038190351683676"><ele>526.0</ele><time>2026-03-22T09:27:04Z</time></trkpt><trkpt lat="41.17532712281815" lon="15.038154085052577"><ele>526.0</ele><time>2026-03-22T09:27:05Z</time></trkpt><trkpt lat="41.17522641111803" lon="15.03812553105905"><ele>519.0</ele><time>2026-03-22T09:27:06Z</time></trkpt><trkpt lat="41.17508849165015" lon="15.038115844033285"><ele>512.0</ele><time>2026-03-22T09:27:07Z</time></trkpt><trkpt lat="41.17492219754039" lon="15.038121211289402"><ele>505.0</ele><time>2026-03-22T09:27:08Z</time></trkpt><trkpt lat="41.17475443379562" lon="15.038143862975355"><ele>505.0</ele><time>2026-03-22T09:27:09Z</time></trkpt><trkpt lat="41.1746008623817" lon="15.038151639132945"><ele>505.0</ele><time>2026-03-22T09:27:10Z</time></trkpt><trkpt lat="41.17443901528128" lon="15.038163732321323"><ele>505.0</ele><time>2026-03-22T09:27:11Z</time></trkpt><trkpt lat="41.17432701679462" lon="15.038175192321898"><ele>505.0</ele><time>2026-03-22T09:27:12Z</time></trkpt><trkpt lat="41.17421419751544" lon="15.038147415019194"><ele>505.0</ele><time>2026-03-22T09:27:13Z</time></trkpt><trkpt lat="41.174065831320355" lon="15.038088173994913"><ele>505.0</ele><time>2026-03-22T09:27:14Z</time></trkpt><trkpt lat="41.17390762180134" lon="15.038017894860419"><ele>505.0</ele><time>2026-03-22T09:27:15Z</time></trkpt><trkpt lat="41.17375397534462" lon="15.037933334920881"><ele>507.75</ele><time>2026-03-22T09:27:16Z</time></trkpt><trkpt lat="41.17360506092923" lon="15.037873444092895"><ele>510.5</ele><time>2026-03-22T09:27:17Z</time></trkpt><trkpt lat="41.17347313742329" lon="15.037827053589465"><ele>513.25</ele><time>2026-03-22T09:27:18Z</time></trkpt><trkpt lat="41.17335421656101" lon="15.037806932790868"><ele>516.0</ele><time>2026-03-22T09:27:19Z</time></trkpt><trkpt lat="41.17326468006608" lon="15.037798787693127"><ele>519.75</ele><time>2026-03-22T09:27:20Z</time></trkpt><trkpt lat="41.1731391559272" lon="15.037811961474986"><ele>523.5</ele><time>2026-03-22T09:27:21Z</time></trkpt><trkpt lat="41.17299911311074" lon="15.037871182585782"><ele>527.25</ele><time>2026-03-22T09:27:22Z</time></trkpt><trkpt lat="41.1728403944423" lon="15.03795296892888"><ele>531.0</ele><time>2026-03-22T09:27:23Z</time></trkpt><trkpt lat="41.17270063909904" lon="15.03798307409224"><ele>531.0</ele><time>2026-03-22T09:27:24Z</time></trkpt><trkpt lat="41.17261639769863" lon="15.038004038252529"><ele>531.0</ele><time>2026-03-22T09:27:25Z</time></trkpt><trkpt lat="41.17252694766621" lon="15.038023863178582"><ele>531.0</ele><time>2026-03-22T09:27:27Z</time></trkpt><trkpt lat="41.172514238561256" lon="15.037931593930207"><ele>531.0</ele><time>2026-03-22T09:27:30Z</time></trkpt><trkpt lat="41.17252469856048" lon="15.037837788244678"><ele>531.0</ele><time>2026-03-22T09:27:31Z</time></trkpt><trkpt lat="41.17253818677475" lon="15.037753939337906"><ele>531.0</ele><time>2026-03-22T09:27:32Z</time></trkpt><trkpt lat="41.172536905545876" lon="15.037639967671321"><ele>531.0</ele><time>2026-03-22T09:27:34Z</time></trkpt><trkpt lat="41.17251664002509" lon="15.037535742070588"><ele>531.0</ele><time>2026-03-22T09:27:35Z</time></trkpt><trkpt lat="41.1724877467095" lon="15.037441517708029"><ele>531.0</ele><time>2026-03-22T09:27:36Z</time></trkpt><trkpt lat="41.17249177619959" lon="15.037288363625427"><ele>531.0</ele><time>2026-03-22T09:27:38Z</time></trkpt><trkpt lat="41.17254058430885" lon="15.037201446517525"><ele>531.0</ele><time>2026-03-22T09:27:42Z</time></trkpt><trkpt lat="41.17257992986069" lon="15.037134846949323"><ele>531.0</ele><time>2026-03-22T09:27:44Z</time></trkpt><trkpt lat="41.17259225949644" lon="15.037042357618978"><ele>531.2</ele><time>2026-03-22T09:27:45Z</time></trkpt><trkpt lat="41.172607144146724" lon="15.036918978529934"><ele>531.4000000000001</ele><time>2026-03-22T09:27:46Z</time></trkpt><trkpt lat="41.17260371531157" lon="15.036765347741005"><ele>531.6</ele><time>2026-03-22T09:27:47Z</time></trkpt><trkpt lat="41.17261740005481" lon="15.036669822262422"><ele>531.8000000000001</ele><time>2026-03-22T09:27:48Z</time></trkpt><trkpt lat="41.1726916407714" lon="15.03664494363213"><ele>532.0</ele><time>2026-03-22T09:27:50Z</time></trkpt><trkpt lat="41.172759635585265" lon="15.036557750112237"><ele>533.5</ele><time>2026-03-22T09:27:52Z</time></trkpt><trkpt lat="41.172793675450606" lon="15.036419210856721"><ele>535.0</ele><time>2026-03-22T09:27:54Z</time></trkpt><trkpt lat="41.17276912170148" lon="15.036228018964215"><ele>536.5</ele><time>2026-03-22T09:27:56Z</time></trkpt><trkpt lat="41.172725162373" lon="15.036102075606475"><ele>538.0</ele><time>2026-03-22T09:27:57Z</time></trkpt><trkpt lat="41.17270066330736" lon="15.035965436867235"><ele>538.0</ele><time>2026-03-22T09:27:58Z</time></trkpt><trkpt lat="41.172707447656286" lon="15.03582746153391"><ele>538.0</ele><time>2026-03-22T09:27:59Z</time></trkpt><trkpt lat="41.17272085819736" lon="15.035706538383677"><ele>538.0</ele><time>2026-03-22T09:28:00Z</time></trkpt><trkpt lat="41.172723042228164" lon="15.035600956909114"><ele>538.0</ele><time>2026-03-22T09:28:01Z</time></trkpt><trkpt lat="41.17272727036955" lon="15.035479079636834"><ele>538.0</ele><time>2026-03-22T09:28:02Z</time></trkpt><trkpt lat="41.172731760120904" lon="15.03538099881862"><ele>538.0</ele><time>2026-03-22T09:28:03Z</time></trkpt><trkpt lat="41.17270707065475" lon="15.035270081666338"><ele>537.3333333333334</ele><time>2026-03-22T09:28:05Z</time></trkpt><trkpt lat="41.17267485126994" lon="15.035180436460992"><ele>536.6666666666667</ele><time>2026-03-22T09:28:06Z</time></trkpt><trkpt lat="41.1726397228347" lon="15.035098042751864"><ele>536.0</ele><time>2026-03-22T09:28:07Z</time></trkpt><trkpt lat="41.172599484990585" lon="15.035019407609317"><ele>535.3333333333334</ele><time>2026-03-22T09:28:08Z</time></trkpt><trkpt lat="41.17251434815228" lon="15.034934251003033"><ele>534.6666666666666</ele><time>2026-03-22T09:28:11Z</time></trkpt><trkpt lat="41.17241367326669" lon="15.034877546086644"><ele>534.0</ele><time>2026-03-22T09:28:13Z</time></trkpt><trkpt lat="41.172277237906684" lon="15.03485426709882"><ele>533.4</ele><time>2026-03-22T09:28:15Z</time></trkpt><trkpt lat="41.17220515857499" lon="15.034840239764522"><ele>532.8</ele><time>2026-03-22T09:28:16Z</time></trkpt><trkpt lat="41.17211054153497" lon="15.034762761255955"><ele>532.2</ele><time>2026-03-22T09:28:18Z</time></trkpt><trkpt lat="41.172038065401715" lon="15.034749466018889"><ele>531.6</ele><time>2026-03-22T09:28:19Z</time></trkpt><trkpt lat="41.171925917644295" lon="15.034751728995946"><ele>531.0</ele><time>2026-03-22T09:28:20Z</time></trkpt><trkpt lat="41.17178897930089" lon="15.03474099932557"><ele>531.0</ele><time>2026-03-22T09:28:21Z</time></trkpt><trkpt lat="41.17165497951303" lon="15.034687089740597"><ele>531.0</ele><time>2026-03-22T09:28:22Z</time></trkpt><trkpt lat="41.171546155225535" lon="15.034612363713252"><ele>531.0</ele><time>2026-03-22T09:28:23Z</time></trkpt><trkpt lat="41.171474034776494" lon="15.034554345179014"><ele>531.0</ele><time>2026-03-22T09:28:24Z</time></trkpt><trkpt lat="41.17135823128387" lon="15.034553753075413"><ele>533.2</ele><time>2026-03-22T09:28:26Z</time></trkpt><trkpt lat="41.171308233525075" lon="15.034486437014946"><ele>535.4000000000001</ele><time>2026-03-22T09:28:28Z</time></trkpt><trkpt lat="41.17130311459417" lon="15.034388349376156"><ele>537.6</ele><time>2026-03-22T09:28:29Z</time></trkpt><trkpt lat="41.17131833719415" lon="15.034242844729427"><ele>539.8000000000001</ele><time>2026-03-22T09:28:30Z</time></trkpt><trkpt lat="41.17131795792583" lon="15.03405477344724"><ele>542.0</ele><time>2026-03-22T09:28:31Z</time></trkpt><trkpt lat="41.171309617583795" lon="15.033830947572884"><ele>542.0</ele><time>2026-03-22T09:28:32Z</time></trkpt><trkpt lat="41.171306479770834" lon="15.03359660238024"><ele>542.0</ele><time>2026-03-22T09:28:33Z</time></trkpt><trkpt lat="41.17130393516118" lon="15.033388899428555"><ele>542.0</ele><time>2026-03-22T09:28:34Z</time></trkpt><trkpt lat="41.1713101077617" lon="15.033197686140824"><ele>538.25</ele><time>2026-03-22T09:28:35Z</time></trkpt><trkpt lat="41.171326320458775" lon="15.033014274833679"><ele>534.5</ele><time>2026-03-22T09:28:36Z</time></trkpt><trkpt lat="41.1713366926179" lon="15.0328353646628"><ele>530.75</ele><time>2026-03-22T09:28:37Z</time></trkpt><trkpt lat="41.17133548980203" lon="15.032625156265109"><ele>527.0</ele><time>2026-03-22T09:28:38Z</time></trkpt><trkpt lat="41.1713323422743" lon="15.032381547269885"><ele>523.3333333333333</ele><time>2026-03-22T09:28:39Z</time></trkpt><trkpt lat="41.17133401653797" lon="15.032125201859634"><ele>519.6666666666666</ele><time>2026-03-22T09:28:40Z</time></trkpt><trkpt lat="41.17133530072905" lon="15.031887262924736"><ele>516.0</ele><time>2026-03-22T09:28:41Z</time></trkpt><trkpt lat="41.171334458412055" lon="15.03167164314183"><ele>513.6666666666666</ele><time>2026-03-22T09:28:42Z</time></trkpt><trkpt lat="41.171328407263324" lon="15.031454829725554"><ele>511.3333333333333</ele><time>2026-03-22T09:28:43Z</time></trkpt><trkpt lat="41.171324513231255" lon="15.031244740266041"><ele>509.0</ele><time>2026-03-22T09:28:44Z</time></trkpt><trkpt lat="41.17132476155157" lon="15.031046554005156"><ele>509.0</ele><time>2026-03-22T09:28:45Z</time></trkpt><trkpt lat="41.171331532370964" lon="15.030850392829507"><ele>509.0</ele><time>2026-03-22T09:28:46Z</time></trkpt><trkpt lat="41.17133954863266" lon="15.030656835233556"><ele>509.0</ele><time>2026-03-22T09:28:47Z</time></trkpt><trkpt lat="41.1713457966577" lon="15.030470109400275"><ele>509.0</ele><time>2026-03-22T09:28:48Z</time></trkpt><trkpt lat="41.17135518318769" lon="15.030278505185587"><ele>506.25</ele><time>2026-03-22T09:28:49Z</time></trkpt><trkpt lat="41.1713587836014" lon="15.030082744054083"><ele>503.5</ele><time>2026-03-22T09:28:50Z</time></trkpt><trkpt lat="41.1713548047889" lon="15.029895303421547"><ele>500.75</ele><time>2026-03-22T09:28:51Z</time></trkpt><trkpt lat="41.17135272792322" lon="15.029713321414711"><ele>498.0</ele><time>2026-03-22T09:28:52Z</time></trkpt><trkpt lat="41.171342718778355" lon="15.029517851259865"><ele>495.5</ele><time>2026-03-22T09:28:53Z</time></trkpt><trkpt lat="41.17132074844527" lon="15.02934780573661"><ele>493.0</ele><time>2026-03-22T09:28:54Z</time></trkpt><trkpt lat="41.171297631267066" lon="15.029164777264016"><ele>490.5</ele><time>2026-03-22T09:28:55Z</time></trkpt><trkpt lat="41.171273212978065" lon="15.02898363370733"><ele>488.0</ele><time>2026-03-22T09:28:56Z</time></trkpt><trkpt lat="41.171249527552526" lon="15.028804138256538"><ele>486.0</ele><time>2026-03-22T09:28:57Z</time></trkpt><trkpt lat="41.171226271363416" lon="15.02862785509248"><ele>484.0</ele><time>2026-03-22T09:28:58Z</time></trkpt><trkpt lat="41.171199530771354" lon="15.028458448003734"><ele>482.0</ele><time>2026-03-22T09:28:59Z</time></trkpt><trkpt lat="41.17116921875681" lon="15.028294926765943"><ele>480.0</ele><time>2026-03-22T09:29:00Z</time></trkpt><trkpt lat="41.171139561578954" lon="15.02814885415742"><ele>478.75</ele><time>2026-03-22T09:29:01Z</time></trkpt><trkpt lat="41.17111986898622" lon="15.028043398665412"><ele>477.5</ele><time>2026-03-22T09:29:02Z</time></trkpt><trkpt lat="41.171117162582675" lon="15.027917824642051"><ele>476.25</ele><time>2026-03-22T09:29:04Z</time></trkpt><trkpt lat="41.171092204130765" lon="15.027822946641155"><ele>475.0</ele><time>2026-03-22T09:29:06Z</time></trkpt><trkpt lat="41.17139584099886" lon="15.027643075650012"><ele>475.00000000000006</ele><time>2026-03-22T09:29:08Z</time></trkpt><trkpt lat="41.171481946207884" lon="15.027567604078413"><ele>475.0</ele><time>2026-03-22T09:29:09Z</time></trkpt><trkpt lat="41.171564484234175" lon="15.027509664169607"><ele>475.0</ele><time>2026-03-22T09:29:10Z</time></trkpt><trkpt lat="41.17163416017577" lon="15.027451634823416"><ele>475.0</ele><time>2026-03-22T09:29:11Z</time></trkpt><trkpt lat="41.17170144320087" lon="15.02738443463488"><ele>475.00000000000006</ele><time>2026-03-22T09:29:12Z</time></trkpt><trkpt lat="41.17176813620376" lon="15.02732668593395"><ele>475.0</ele><time>2026-03-22T09:29:13Z</time></trkpt><trkpt lat="41.171832205422994" lon="15.027269327631746"><ele>473.83333333333337</ele><time>2026-03-22T09:29:14Z</time></trkpt><trkpt lat="41.17190697436855" lon="15.02720780643738"><ele>472.6666666666667</ele><time>2026-03-22T09:29:15Z</time></trkpt><trkpt lat="41.171977979281095" lon="15.027133196231013"><ele>471.5</ele><time>2026-03-22T09:29:16Z</time></trkpt><trkpt lat="41.17205095943779" lon="15.027064333760809"><ele>470.33333333333337</ele><time>2026-03-22T09:29:17Z</time></trkpt><trkpt lat="41.172113493155244" lon="15.02701126129889"><ele>469.1666666666667</ele><time>2026-03-22T09:29:18Z</time></trkpt><trkpt lat="41.172183048213846" lon="15.026958266886423"><ele>468.0</ele><time>2026-03-22T09:29:19Z</time></trkpt><trkpt lat="41.17224785638796" lon="15.026903496003873"><ele>468.0</ele><time>2026-03-22T09:29:20Z</time></trkpt><trkpt lat="41.17231695152124" lon="15.02684831596768"><ele>468.0</ele><time>2026-03-22T09:29:21Z</time></trkpt><trkpt lat="41.172381174423585" lon="15.026806208413843"><ele>468.0</ele><time>2026-03-22T09:29:22Z</time></trkpt><trkpt lat="41.172444304065515" lon="15.026783128283379"><ele>468.0</ele><time>2026-03-22T09:29:23Z</time></trkpt><trkpt lat="41.17252730238512" lon="15.026763452969242"><ele>468.0</ele><time>2026-03-22T09:29:24Z</time></trkpt><trkpt lat="41.17260986107858" lon="15.026747039725262"><ele>468.0</ele><time>2026-03-22T09:29:25Z</time></trkpt><trkpt lat="41.172679736880134" lon="15.026736464555247"><ele>465.59999999999997</ele><time>2026-03-22T09:29:26Z</time></trkpt><trkpt lat="41.172745231921134" lon="15.026725857835515"><ele>463.19999999999993</ele><time>2026-03-22T09:29:27Z</time></trkpt><trkpt lat="41.172869097196475" lon="15.02669412441212"><ele>460.8</ele><time>2026-03-22T09:29:29Z</time></trkpt><trkpt lat="41.17295886583817" lon="15.026678881370112"><ele>458.4</ele><time>2026-03-22T09:29:30Z</time></trkpt><trkpt lat="41.17305982144742" lon="15.026641399892865"><ele>456.0</ele><time>2026-03-22T09:29:31Z</time></trkpt><trkpt lat="41.17313010707359" lon="15.026611172240703"><ele>451.1666666666667</ele><time>2026-03-22T09:29:32Z</time></trkpt><trkpt lat="41.17320779398974" lon="15.026580145300537"><ele>446.33333333333337</ele><time>2026-03-22T09:29:33Z</time></trkpt><trkpt lat="41.17328144145484" lon="15.026552351808721"><ele>441.5</ele><time>2026-03-22T09:29:34Z</time></trkpt><trkpt lat="41.17335212435606" lon="15.02651975741391"><ele>436.6666666666667</ele><time>2026-03-22T09:29:35Z</time></trkpt><trkpt lat="41.17342542324228" lon="15.026482662743307"><ele>431.83333333333337</ele><time>2026-03-22T09:29:36Z</time></trkpt><trkpt lat="41.17349905702631" lon="15.026455357729278"><ele>427.0</ele><time>2026-03-22T09:29:37Z</time></trkpt><trkpt lat="41.17357407612358" lon="15.026414971123135"><ele>427.00000000000006</ele><time>2026-03-22T09:29:38Z</time></trkpt><trkpt lat="41.173655123677236" lon="15.026382775575446"><ele>427.0</ele><time>2026-03-22T09:29:39Z</time></trkpt><trkpt lat="41.17374404338451" lon="15.026350343830462"><ele>427.0</ele><time>2026-03-22T09:29:40Z</time></trkpt><trkpt lat="41.173831215545874" lon="15.02632296531238"><ele>427.0</ele><time>2026-03-22T09:29:41Z</time></trkpt><trkpt lat="41.173894974887226" lon="15.026298534039347"><ele>427.00000000000006</ele><time>2026-03-22T09:29:42Z</time></trkpt><trkpt lat="41.173964704467984" lon="15.026267064602944"><ele>427.0</ele><time>2026-03-22T09:29:43Z</time></trkpt><trkpt lat="41.17402686041754" lon="15.026245472645428"><ele>425.33333333333337</ele><time>2026-03-22T09:29:44Z</time></trkpt><trkpt lat="41.17408935368486" lon="15.026210995452304"><ele>423.6666666666667</ele><time>2026-03-22T09:29:45Z</time></trkpt><trkpt lat="41.17416177217255" lon="15.026188782003295"><ele>422.0</ele><time>2026-03-22T09:29:46Z</time></trkpt><trkpt lat="41.17422773404164" lon="15.026165880504553"><ele>420.33333333333337</ele><time>2026-03-22T09:29:47Z</time></trkpt><trkpt lat="41.1742909460049" lon="15.026149839681157"><ele>418.6666666666667</ele><time>2026-03-22T09:29:48Z</time></trkpt><trkpt lat="41.17439611105104" lon="15.026103539631654"><ele>417.0</ele><time>2026-03-22T09:29:50Z</time></trkpt><trkpt lat="41.174483358453166" lon="15.026104801318608"><ele>417.0</ele><time>2026-03-22T09:29:51Z</time></trkpt><trkpt lat="41.17458207411719" lon="15.02608240157"><ele>417.0</ele><time>2026-03-22T09:29:52Z</time></trkpt><trkpt lat="41.17467370621342" lon="15.026053537752162"><ele>417.0</ele><time>2026-03-22T09:29:53Z</time></trkpt><trkpt lat="41.174750281079085" lon="15.02602580456381"><ele>417.0</ele><time>2026-03-22T09:29:54Z</time></trkpt><trkpt lat="41.174827671614274" lon="15.025999980293106"><ele>417.0</ele><time>2026-03-22T09:29:55Z</time></trkpt><trkpt lat="41.17489157304444" lon="15.025989193449789"><ele>417.0</ele><time>2026-03-22T09:29:56Z</time></trkpt><trkpt lat="41.17498287082629" lon="15.025967868504756"><ele>415.8333333333333</ele><time>2026-03-22T09:29:58Z</time></trkpt><trkpt lat="41.17495753854553" lon="15.025876733257208"><ele>414.66666666666663</ele><time>2026-03-22T09:30:00Z</time></trkpt><trkpt lat="41.17489766211229" lon="15.025807861289893"><ele>413.5</ele><time>2026-03-22T09:30:01Z</time></trkpt><trkpt lat="41.17484173446738" lon="15.025742189899939"><ele>412.3333333333333</ele><time>2026-03-22T09:30:02Z</time></trkpt><trkpt lat="41.17474938511821" lon="15.025662834068108"><ele>411.16666666666663</ele><time>2026-03-22T09:30:04Z</time></trkpt><trkpt lat="41.17468429258084" lon="15.025598353121136"><ele>410.0</ele><time>2026-03-22T09:30:05Z</time></trkpt><trkpt lat="41.174608952042234" lon="15.025531137562169"><ele>407.99999999999994</ele><time>2026-03-22T09:30:06Z</time></trkpt><trkpt lat="41.17454678329987" lon="15.025471962520058"><ele>406.0</ele><time>2026-03-22T09:30:07Z</time></trkpt><trkpt lat="41.17449084492487" lon="15.025426047524556"><ele>404.0</ele><time>2026-03-22T09:30:08Z</time></trkpt><trkpt lat="41.174425249523175" lon="15.025405405396912"><ele>402.0</ele><time>2026-03-22T09:30:09Z</time></trkpt><trkpt lat="41.174344958210035" lon="15.025382231456547"><ele>399.99999999999994</ele><time>2026-03-22T09:30:10Z</time></trkpt><trkpt lat="41.174297792986195" lon="15.025295166486943"><ele>398.0</ele><time>2026-03-22T09:30:12Z</time></trkpt><trkpt lat="41.17430225693694" lon="15.025184514317322"><ele>398.0</ele><time>2026-03-22T09:30:13Z</time></trkpt><trkpt lat="41.174315449082535" lon="15.025100188618655"><ele>398.0</ele><time>2026-03-22T09:30:14Z</time></trkpt><trkpt lat="41.17431160451088" lon="15.025011742465711"><ele>398.0</ele><time>2026-03-22T09:30:15Z</time></trkpt><trkpt lat="41.17431548257475" lon="15.024858212193713"><ele>398.0</ele><time>2026-03-22T09:30:17Z</time></trkpt><trkpt lat="41.174369946091225" lon="15.024722680090283"><ele>398.0</ele><time>2026-03-22T09:30:19Z</time></trkpt><trkpt lat="41.174444106291595" lon="15.024619393030491"><ele>394.4</ele><time>2026-03-22T09:30:21Z</time></trkpt><trkpt lat="41.17445948917375" lon="15.024487397874625"><ele>390.79999999999995</ele><time>2026-03-22T09:30:23Z</time></trkpt><trkpt lat="41.174489270712876" lon="15.024355115574235"><ele>387.2</ele><time>2026-03-22T09:30:25Z</time></trkpt><trkpt lat="41.17455607585834" lon="15.024250859511477"><ele>383.6</ele><time>2026-03-22T09:30:27Z</time></trkpt><trkpt lat="41.17459387611138" lon="15.024133967954912"><ele>380.0</ele><time>2026-03-22T09:30:29Z</time></trkpt><trkpt lat="41.1746572421031" lon="15.02401465697233"><ele>378.0</ele><time>2026-03-22T09:30:31Z</time></trkpt><trkpt lat="41.174741680714824" lon="15.02392222639788"><ele>376.0</ele><time>2026-03-22T09:30:33Z</time></trkpt><trkpt lat="41.17484244273267" lon="15.023928054406444"><ele>374.0</ele><time>2026-03-22T09:30:35Z</time></trkpt><trkpt lat="41.174900410066016" lon="15.023968856903755"><ele>372.0</ele><time>2026-03-22T09:30:36Z</time></trkpt><trkpt lat="41.174986894968" lon="15.023951721279756"><ele>370.0</ele><time>2026-03-22T09:30:39Z</time></trkpt><trkpt lat="41.17508825705348" lon="15.023884850404983"><ele>369.6</ele><time>2026-03-22T09:30:41Z</time></trkpt><trkpt lat="41.17516456940303" lon="15.023867911633829"><ele>369.2</ele><time>2026-03-22T09:30:42Z</time></trkpt><trkpt lat="41.175250183927886" lon="15.023826556779909"><ele>368.79999999999995</ele><time>2026-03-22T09:30:43Z</time></trkpt><trkpt lat="41.17532764370486" lon="15.023748296694013"><ele>368.4</ele><time>2026-03-22T09:30:44Z</time></trkpt><trkpt lat="41.17541047755894" lon="15.023665776034658"><ele>368.0</ele><time>2026-03-22T09:30:45Z</time></trkpt><trkpt lat="41.17551795606426" lon="15.02359446211133"><ele>368.0</ele><time>2026-03-22T09:30:46Z</time></trkpt><trkpt lat="41.175619142823265" lon="15.02353202189054"><ele>368.0</ele><time>2026-03-22T09:30:47Z</time></trkpt><trkpt lat="41.17571376921916" lon="15.023458725508661"><ele>368.0</ele><time>2026-03-22T09:30:48Z</time></trkpt><trkpt lat="41.17578986387188" lon="15.023367115514718"><ele>368.0</ele><time>2026-03-22T09:30:49Z</time></trkpt><trkpt lat="41.17582428771139" lon="15.023274572262498"><ele>368.0</ele><time>2026-03-22T09:30:50Z</time></trkpt><trkpt lat="41.17584511075831" lon="15.023137945607692"><ele>370.7142857142857</ele><time>2026-03-22T09:30:51Z</time></trkpt><trkpt lat="41.17587246903382" lon="15.023046736894477"><ele>373.4285714285714</ele><time>2026-03-22T09:30:52Z</time></trkpt><trkpt lat="41.17592777791216" lon="15.023004412659066"><ele>376.1428571428571</ele><time>2026-03-22T09:30:53Z</time></trkpt><trkpt lat="41.17599806656274" lon="15.023009227528904"><ele>378.8571428571429</ele><time>2026-03-22T09:30:54Z</time></trkpt><trkpt lat="41.17606001412628" lon="15.023031221927768"><ele>381.57142857142856</ele><time>2026-03-22T09:30:55Z</time></trkpt><trkpt lat="41.176156723513714" lon="15.023057746533535"><ele>384.2857142857143</ele><time>2026-03-22T09:30:57Z</time></trkpt><trkpt lat="41.17622381684555" lon="15.023092239861665"><ele>387.0</ele><time>2026-03-22T09:30:58Z</time></trkpt><trkpt lat="41.17628681752451" lon="15.023155015513119"><ele>387.0</ele><time>2026-03-22T09:30:59Z</time></trkpt><trkpt lat="41.176334388025005" lon="15.023242281479227"><ele>387.0</ele><time>2026-03-22T09:31:00Z</time></trkpt><trkpt lat="41.17639020438021" lon="15.02332101922622"><ele>387.0</ele><time>2026-03-22T09:31:01Z</time></trkpt><trkpt lat="41.17645079820106" lon="15.023379501877363"><ele>387.0</ele><time>2026-03-22T09:31:02Z</time></trkpt><trkpt lat="41.176533867182144" lon="15.023427711086969"><ele>387.0</ele><time>2026-03-22T09:31:03Z</time></trkpt><trkpt lat="41.17661541242012" lon="15.023459550613515"><ele>387.0</ele><time>2026-03-22T09:31:04Z</time></trkpt><trkpt lat="41.176707494140295" lon="15.0234739782466"><ele>388.0</ele><time>2026-03-22T09:31:05Z</time></trkpt><trkpt lat="41.176810251397264" lon="15.023489780897433"><ele>389.0</ele><time>2026-03-22T09:31:06Z</time></trkpt><trkpt lat="41.17690250095009" lon="15.023543549248826"><ele>390.0</ele><time>2026-03-22T09:31:07Z</time></trkpt><trkpt lat="41.17699932912827" lon="15.023636701665916"><ele>391.0</ele><time>2026-03-22T09:31:08Z</time></trkpt><trkpt lat="41.17712082380715" lon="15.023683967967534"><ele>391.0</ele><time>2026-03-22T09:31:09Z</time></trkpt><trkpt lat="41.177230198085354" lon="15.02375211356026"><ele>391.0</ele><time>2026-03-22T09:31:10Z</time></trkpt><trkpt lat="41.177334278253" lon="15.02379428544055"><ele>391.0</ele><time>2026-03-22T09:31:11Z</time></trkpt><trkpt lat="41.17740911542405" lon="15.023848369537603"><ele>391.0</ele><time>2026-03-22T09:31:12Z</time></trkpt><trkpt lat="41.177518178465114" lon="15.023878817518597"><ele>391.0</ele><time>2026-03-22T09:31:14Z</time></trkpt><trkpt lat="41.17765568700343" lon="15.02390644207598"><ele>393.0</ele><time>2026-03-22T09:31:16Z</time></trkpt><trkpt lat="41.17777333638099" lon="15.023939880835842"><ele>395.0</ele><time>2026-03-22T09:31:17Z</time></trkpt><trkpt lat="41.17787262038111" lon="15.023979678834863"><ele>397.0</ele><time>2026-03-22T09:31:18Z</time></trkpt><trkpt lat="41.17795002088444" lon="15.02398228247457"><ele>399.0</ele><time>2026-03-22T09:31:19Z</time></trkpt><trkpt lat="41.17801359087575" lon="15.023959632444578"><ele>401.0</ele><time>2026-03-22T09:31:20Z</time></trkpt><trkpt lat="41.1781009631738" lon="15.023879200078058"><ele>401.0</ele><time>2026-03-22T09:31:21Z</time></trkpt><trkpt lat="41.17818288176435" lon="15.023781463463875"><ele>401.0</ele><time>2026-03-22T09:31:22Z</time></trkpt><trkpt lat="41.17826747721345" lon="15.02375197107321"><ele>401.0</ele><time>2026-03-22T09:31:23Z</time></trkpt><trkpt lat="41.17836691186676" lon="15.02367634941514"><ele>401.0</ele><time>2026-03-22T09:31:24Z</time></trkpt><trkpt lat="41.17851190706144" lon="15.023615259599053"><ele>400.6</ele><time>2026-03-22T09:31:25Z</time></trkpt><trkpt lat="41.17863273258018" lon="15.023575356313936"><ele>400.20000000000005</ele><time>2026-03-22T09:31:26Z</time></trkpt><trkpt lat="41.17872384471663" lon="15.02354280744967"><ele>399.79999999999995</ele><time>2026-03-22T09:31:27Z</time></trkpt><trkpt lat="41.1788150575954" lon="15.023519755226951"><ele>399.4</ele><time>2026-03-22T09:31:28Z</time></trkpt><trkpt lat="41.17894964833532" lon="15.023493722723527"><ele>399.0</ele><time>2026-03-22T09:31:30Z</time></trkpt><trkpt lat="41.17903239993824" lon="15.023546451125995"><ele>396.5</ele><time>2026-03-22T09:31:31Z</time></trkpt><trkpt lat="41.17909607461715" lon="15.023620230448723"><ele>394.0</ele><time>2026-03-22T09:31:32Z</time></trkpt><trkpt lat="41.17912510024471" lon="15.02372945281836"><ele>391.5</ele><time>2026-03-22T09:31:33Z</time></trkpt><trkpt lat="41.17914957029465" lon="15.023817896898274"><ele>389.0</ele><time>2026-03-22T09:31:34Z</time></trkpt><trkpt lat="41.179183878368235" lon="15.023891080538634"><ele>386.5</ele><time>2026-03-22T09:31:35Z</time></trkpt><trkpt lat="41.1792816797467" lon="15.0239891246094"><ele>384.0</ele><time>2026-03-22T09:31:37Z</time></trkpt><trkpt lat="41.17936204907933" lon="15.024018214636175"><ele>384.0</ele><time>2026-03-22T09:31:38Z</time></trkpt><trkpt lat="41.1794504128326" lon="15.02402217986097"><ele>384.0</ele><time>2026-03-22T09:31:39Z</time></trkpt><trkpt lat="41.17952639936389" lon="15.024017977616198"><ele>384.0</ele><time>2026-03-22T09:31:40Z</time></trkpt><trkpt lat="41.17959256508943" lon="15.024016721858299"><ele>384.0</ele><time>2026-03-22T09:31:41Z</time></trkpt><trkpt lat="41.179662044974435" lon="15.023967883533228"><ele>384.0</ele><time>2026-03-22T09:31:43Z</time></trkpt><trkpt lat="41.17970848337497" lon="15.023890486262182"><ele>384.0</ele><time>2026-03-22T09:31:44Z</time></trkpt><trkpt lat="41.17975839141692" lon="15.02379343178129"><ele>384.0</ele><time>2026-03-22T09:31:45Z</time></trkpt><trkpt lat="41.179822876727734" lon="15.023785495169172"><ele>384.0</ele><time>2026-03-22T09:31:46Z</time></trkpt><trkpt lat="41.17988531538882" lon="15.023810283012123"><ele>384.0</ele><time>2026-03-22T09:31:47Z</time></trkpt><trkpt lat="41.17999367962472" lon="15.023875949064672"><ele>384.0</ele><time>2026-03-22T09:31:48Z</time></trkpt><trkpt lat="41.180124664171345" lon="15.023927773770398"><ele>384.0</ele><time>2026-03-22T09:31:49Z</time></trkpt><trkpt lat="41.180228889851506" lon="15.023999575233926"><ele>382.6</ele><time>2026-03-22T09:31:50Z</time></trkpt><trkpt lat="41.18032892514913" lon="15.024052563400815"><ele>381.2</ele><time>2026-03-22T09:31:51Z</time></trkpt><trkpt lat="41.18041186291479" lon="15.024080766043323"><ele>379.8</ele><time>2026-03-22T09:31:52Z</time></trkpt><trkpt lat="41.18051453056833" lon="15.024091303088854"><ele>378.40000000000003</ele><time>2026-03-22T09:31:53Z</time></trkpt><trkpt lat="41.18063133547165" lon="15.024079700738978"><ele>377.0</ele><time>2026-03-22T09:31:54Z</time></trkpt><trkpt lat="41.180744785453115" lon="15.02403288481485"><ele>375.33333333333337</ele><time>2026-03-22T09:31:55Z</time></trkpt><trkpt lat="41.180833516900464" lon="15.024046799912142"><ele>373.6666666666667</ele><time>2026-03-22T09:31:56Z</time></trkpt><trkpt lat="41.18092015046251" lon="15.024090650298586"><ele>372.0</ele><time>2026-03-22T09:31:57Z</time></trkpt><trkpt lat="41.18098481732576" lon="15.02413283726819"><ele>370.3333333333333</ele><time>2026-03-22T09:31:58Z</time></trkpt><trkpt lat="41.18105027554932" lon="15.024156066559007"><ele>368.66666666666663</ele><time>2026-03-22T09:31:59Z</time></trkpt><trkpt lat="41.1811460856398" lon="15.02420228913848"><ele>367.0</ele><time>2026-03-22T09:32:01Z</time></trkpt><trkpt lat="41.181176171658926" lon="15.024112840318148"><ele>367.0</ele><time>2026-03-22T09:32:19Z</time></trkpt><trkpt lat="41.1811352976173" lon="15.023998713205824"><ele>367.0</ele><time>2026-03-22T09:32:21Z</time></trkpt><trkpt lat="41.181099716194595" lon="15.02387258977493"><ele>367.0</ele><time>2026-03-22T09:32:22Z</time></trkpt><trkpt lat="41.1810666941853" lon="15.023732720481586"><ele>367.0</ele><time>2026-03-22T09:32:23Z</time></trkpt><trkpt lat="41.18100304390577" lon="15.023579851309336"><ele>367.0</ele><time>2026-03-22T09:32:24Z</time></trkpt><trkpt lat="41.18095983619866" lon="15.023426279016393"><ele>370.0</ele><time>2026-03-22T09:32:25Z</time></trkpt><trkpt lat="41.18095208149086" lon="15.023300685094627"><ele>373.0</ele><time>2026-03-22T09:32:26Z</time></trkpt><trkpt lat="41.18103520578402" lon="15.023209601154921"><ele>376.0</ele><time>2026-03-22T09:32:28Z</time></trkpt><trkpt lat="41.181145409744644" lon="15.023210272735321"><ele>379.0</ele><time>2026-03-22T09:32:29Z</time></trkpt><trkpt lat="41.18129578459784" lon="15.023208324128987"><ele>379.0</ele><time>2026-03-22T09:32:30Z</time></trkpt><trkpt lat="41.18148239177683" lon="15.023220792287956"><ele>379.0</ele><time>2026-03-22T09:32:31Z</time></trkpt><trkpt lat="41.181647799625054" lon="15.02324690225583"><ele>379.0</ele><time>2026-03-22T09:32:32Z</time></trkpt><trkpt lat="41.181755633378806" lon="15.023288472558495"><ele>377.79999999999995</ele><time>2026-03-22T09:32:33Z</time></trkpt><trkpt lat="41.181799271441555" lon="15.023195124488199"><ele>376.59999999999997</ele><time>2026-03-22T09:32:36Z</time></trkpt><trkpt lat="41.18177798325836" lon="15.023098277150458"><ele>375.4</ele><time>2026-03-22T09:32:37Z</time></trkpt><trkpt lat="41.1817148299361" lon="15.022980711430662"><ele>374.2</ele><time>2026-03-22T09:32:38Z</time></trkpt><trkpt lat="41.181657778928816" lon="15.02281862026006"><ele>373.0</ele><time>2026-03-22T09:32:39Z</time></trkpt><trkpt lat="41.181599601899165" lon="15.022658545843514"><ele>373.0</ele><time>2026-03-22T09:32:40Z</time></trkpt><trkpt lat="41.18154691189298" lon="15.022491094582652"><ele>373.0</ele><time>2026-03-22T09:32:41Z</time></trkpt><trkpt lat="41.181493072157146" lon="15.022378688450406"><ele>373.0</ele><time>2026-03-22T09:32:42Z</time></trkpt><trkpt lat="41.1814250703143" lon="15.022289626002738"><ele>373.0</ele><time>2026-03-22T09:32:43Z</time></trkpt><trkpt lat="41.18131231539972" lon="15.022176070971398"><ele>378.75</ele><time>2026-03-22T09:32:44Z</time></trkpt><trkpt lat="41.18120652412804" lon="15.022064796986665"><ele>384.5</ele><time>2026-03-22T09:32:45Z</time></trkpt><trkpt lat="41.18112798251443" lon="15.021951421199253"><ele>390.25</ele><time>2026-03-22T09:32:46Z</time></trkpt><trkpt lat="41.18106765504036" lon="15.02183612950233"><ele>396.0</ele><time>2026-03-22T09:32:47Z</time></trkpt><trkpt lat="41.18103328799071" lon="15.021713963058678"><ele>400.25</ele><time>2026-03-22T09:32:48Z</time></trkpt><trkpt lat="41.180980007530216" lon="15.021562790600404"><ele>404.5</ele><time>2026-03-22T09:32:49Z</time></trkpt><trkpt lat="41.1809218160239" lon="15.021413471072036"><ele>408.75</ele><time>2026-03-22T09:32:50Z</time></trkpt><trkpt lat="41.180871176325326" lon="15.02128902141972"><ele>413.0</ele><time>2026-03-22T09:32:51Z</time></trkpt><trkpt lat="41.180831186742104" lon="15.021176548593354"><ele>413.0</ele><time>2026-03-22T09:32:53Z</time></trkpt><trkpt lat="41.1807917990468" lon="15.02104690251929"><ele>413.0</ele><time>2026-03-22T09:32:55Z</time></trkpt><trkpt lat="41.180732066177896" lon="15.020939199950101"><ele>413.0</ele><time>2026-03-22T09:32:56Z</time></trkpt><trkpt lat="41.18064555268911" lon="15.020804964993374"><ele>413.0</ele><time>2026-03-22T09:32:57Z</time></trkpt><trkpt lat="41.18053949293062" lon="15.02066914544938"><ele>416.5</ele><time>2026-03-22T09:32:58Z</time></trkpt><trkpt lat="41.18044617161333" lon="15.020538507357125"><ele>420.0</ele><time>2026-03-22T09:32:59Z</time></trkpt><trkpt lat="41.180362479230766" lon="15.020399206905944"><ele>423.5</ele><time>2026-03-22T09:33:00Z</time></trkpt><trkpt lat="41.18028941511108" lon="15.020248982249782"><ele>427.0</ele><time>2026-03-22T09:33:01Z</time></trkpt><trkpt lat="41.18021123835328" lon="15.020120902655796"><ele>427.6666666666667</ele><time>2026-03-22T09:33:02Z</time></trkpt><trkpt lat="41.18011013990161" lon="15.019983038775631"><ele>428.33333333333337</ele><time>2026-03-22T09:33:03Z</time></trkpt><trkpt lat="41.17999347040542" lon="15.01982000024589"><ele>429.0</ele><time>2026-03-22T09:33:04Z</time></trkpt><trkpt lat="41.179888071174375" lon="15.019662891837953"><ele>433.0</ele><time>2026-03-22T09:33:05Z</time></trkpt><trkpt lat="41.17977997072109" lon="15.019516493774052"><ele>437.0</ele><time>2026-03-22T09:33:06Z</time></trkpt><trkpt lat="41.179687206407216" lon="15.019405043629629"><ele>441.0</ele><time>2026-03-22T09:33:07Z</time></trkpt><trkpt lat="41.17961391871247" lon="15.019276844982953"><ele>445.0</ele><time>2026-03-22T09:33:08Z</time></trkpt><trkpt lat="41.179536818239676" lon="15.019142597296407"><ele>445.33333333333337</ele><time>2026-03-22T09:33:09Z</time></trkpt><trkpt lat="41.17945554283858" lon="15.01898304680328"><ele>445.66666666666663</ele><time>2026-03-22T09:33:10Z</time></trkpt><trkpt lat="41.17935653039311" lon="15.018807404440912"><ele>446.0</ele><time>2026-03-22T09:33:11Z</time></trkpt><trkpt lat="41.17926701379123" lon="15.018644385768594"><ele>446.0</ele><time>2026-03-22T09:33:12Z</time></trkpt><trkpt lat="41.17919276515144" lon="15.018511760444976"><ele>446.0</ele><time>2026-03-22T09:33:13Z</time></trkpt><trkpt lat="41.179116329189974" lon="15.018389313678995"><ele>446.0</ele><time>2026-03-22T09:33:14Z</time></trkpt><trkpt lat="41.179068614302935" lon="15.018293097989888"><ele>446.0</ele><time>2026-03-22T09:33:15Z</time></trkpt><trkpt lat="41.17917452228254" lon="15.01824862455939"><ele>446.0</ele><time>2026-03-22T09:33:20Z</time></trkpt><trkpt lat="41.179243687746876" lon="15.018282293215869"><ele>443.5</ele><time>2026-03-22T09:33:21Z</time></trkpt><trkpt lat="41.17931702632304" lon="15.018254392336495"><ele>441.0</ele><time>2026-03-22T09:33:22Z</time></trkpt><trkpt lat="41.17943802036778" lon="15.018165087567041"><ele>438.5</ele><time>2026-03-22T09:33:23Z</time></trkpt><trkpt lat="41.179558476195076" lon="15.018077103817747"><ele>436.0</ele><time>2026-03-22T09:33:24Z</time></trkpt><trkpt lat="41.17967331376724" lon="15.0180207540985"><ele>436.0</ele><time>2026-03-22T09:33:25Z</time></trkpt><trkpt lat="41.17977729880111" lon="15.018000285121081"><ele>436.0</ele><time>2026-03-22T09:33:26Z</time></trkpt><trkpt lat="41.17986564572188" lon="15.01796290912133"><ele>436.0</ele><time>2026-03-22T09:33:27Z</time></trkpt><trkpt lat="41.17995368824575" lon="15.017899086405071"><ele>436.0</ele><time>2026-03-22T09:33:28Z</time></trkpt><trkpt lat="41.180034889195376" lon="15.01783294329027"><ele>436.0</ele><time>2026-03-22T09:33:29Z</time></trkpt><trkpt lat="41.18011809329886" lon="15.017807457842636"><ele>433.8</ele><time>2026-03-22T09:33:30Z</time></trkpt><trkpt lat="41.180210116935825" lon="15.017832078517596"><ele>431.6</ele><time>2026-03-22T09:33:31Z</time></trkpt><trkpt lat="41.18026929498646" lon="15.017862450195809"><ele>429.4</ele><time>2026-03-22T09:33:32Z</time></trkpt><trkpt lat="41.18032181146282" lon="15.017687957087375"><ele>427.2</ele><time>2026-03-22T09:33:34Z</time></trkpt><trkpt lat="41.18036703752586" lon="15.017610773905924"><ele>425.0</ele><time>2026-03-22T09:33:35Z</time></trkpt><trkpt lat="41.18046539413237" lon="15.017590531636325"><ele>424.99999999999994</ele><time>2026-03-22T09:33:36Z</time></trkpt><trkpt lat="41.18055665492035" lon="15.017538575896772"><ele>425.0</ele><time>2026-03-22T09:33:37Z</time></trkpt><trkpt lat="41.18062146629824" lon="15.017486734476586"><ele>425.0</ele><time>2026-03-22T09:33:38Z</time></trkpt><trkpt lat="41.180667456497645" lon="15.017425475960097"><ele>425.0</ele><time>2026-03-22T09:33:39Z</time></trkpt><trkpt lat="41.180713183017104" lon="15.017353036879122"><ele>424.99999999999994</ele><time>2026-03-22T09:33:41Z</time></trkpt><trkpt lat="41.18079850834184" lon="15.017442469605248"><ele>425.0</ele><time>2026-03-22T09:33:43Z</time></trkpt><trkpt lat="41.180798073923846" lon="15.017550221153472"><ele>424.0</ele><time>2026-03-22T09:33:44Z</time></trkpt><trkpt lat="41.18078238466402" lon="15.017706226648302"><ele>423.0</ele><time>2026-03-22T09:33:45Z</time></trkpt><trkpt lat="41.18079456252136" lon="15.017858097306645"><ele>422.0</ele><time>2026-03-22T09:33:46Z</time></trkpt><trkpt lat="41.18085657903339" lon="15.017946272999918"><ele>421.0</ele><time>2026-03-22T09:33:47Z</time></trkpt><trkpt lat="41.18094649387985" lon="15.017970868483548"><ele>420.0</ele><time>2026-03-22T09:33:48Z</time></trkpt><trkpt lat="41.181032264091655" lon="15.01795262373676"><ele>420.0</ele><time>2026-03-22T09:33:49Z</time></trkpt><trkpt lat="41.18112356639883" lon="15.017891040324848"><ele>420.0</ele><time>2026-03-22T09:33:50Z</time></trkpt><trkpt lat="41.1812020591037" lon="15.017847760476132"><ele>420.0</ele><time>2026-03-22T09:33:51Z</time></trkpt><trkpt lat="41.18128385633925" lon="15.01781364065331"><ele>420.0</ele><time>2026-03-22T09:33:52Z</time></trkpt><trkpt lat="41.181366490985326" lon="15.01776265491222"><ele>420.0</ele><time>2026-03-22T09:33:53Z</time></trkpt><trkpt lat="41.18145466986284" lon="15.017689933454465"><ele>415.4</ele><time>2026-03-22T09:33:54Z</time></trkpt><trkpt lat="41.18154029311877" lon="15.017597966183999"><ele>410.8</ele><time>2026-03-22T09:33:55Z</time></trkpt><trkpt lat="41.18159237667104" lon="15.017527334379777"><ele>406.20000000000005</ele><time>2026-03-22T09:33:56Z</time></trkpt><trkpt lat="41.18162324721289" lon="15.017420841766295"><ele>401.6</ele><time>2026-03-22T09:33:57Z</time></trkpt><trkpt lat="41.18164870449452" lon="15.017307867705995"><ele>397.0</ele><time>2026-03-22T09:33:58Z</time></trkpt><trkpt lat="41.181648292136" lon="15.017158746576113"><ele>395.83333333333337</ele><time>2026-03-22T09:34:01Z</time></trkpt><trkpt lat="41.18163897600753" lon="15.017073566417634"><ele>394.6666666666667</ele><time>2026-03-22T09:34:02Z</time></trkpt><trkpt lat="41.18163780607713" lon="15.016981103433826"><ele>393.5</ele><time>2026-03-22T09:34:03Z</time></trkpt><trkpt lat="41.18166539373839" lon="15.01681342351794"><ele>392.33333333333337</ele><time>2026-03-22T09:34:05Z</time></trkpt><trkpt lat="41.181652462800294" lon="15.016707069157496"><ele>391.1666666666667</ele><time>2026-03-22T09:34:07Z</time></trkpt><trkpt lat="41.181647255407114" lon="15.016613254179525"><ele>390.0</ele><time>2026-03-22T09:34:11Z</time></trkpt><trkpt lat="41.18162564016602" lon="15.016532024725416"><ele>389.0</ele><time>2026-03-22T09:34:15Z</time></trkpt><trkpt lat="41.181556839807634" lon="15.016481522097525"><ele>388.0</ele><time>2026-03-22T09:34:19Z</time></trkpt><trkpt lat="41.181476442554015" lon="15.016475317293906"><ele>387.0</ele><time>2026-03-22T09:34:20Z</time></trkpt><trkpt lat="41.18137706519587" lon="15.016477108482796"><ele>386.0</ele><time>2026-03-22T09:34:21Z</time></trkpt><trkpt lat="41.181262663452955" lon="15.016477515480195"><ele>385.0</ele><time>2026-03-22T09:34:22Z</time></trkpt><trkpt lat="41.18113729983472" lon="15.016472215550301"><ele>385.0</ele><time>2026-03-22T09:34:23Z</time></trkpt><trkpt lat="41.181036985108264" lon="15.016439754919448"><ele>385.0</ele><time>2026-03-22T09:34:24Z</time></trkpt><trkpt lat="41.1809355894043" lon="15.016407386110558"><ele>385.0</ele><time>2026-03-22T09:34:26Z</time></trkpt><trkpt lat="41.18093496719242" lon="15.016319685322458"><ele>385.0</ele><time>2026-03-22T09:34:29Z</time></trkpt><trkpt lat="41.1809964167406" lon="15.016232993290258"><ele>385.0</ele><time>2026-03-22T09:34:31Z</time></trkpt><trkpt lat="41.18103399110361" lon="15.016114004117282"><ele>385.00000000000006</ele><time>2026-03-22T09:34:33Z</time></trkpt><trkpt lat="41.18112255739971" lon="15.01601743293154"><ele>385.0</ele><time>2026-03-22T09:34:35Z</time></trkpt><trkpt lat="41.18116632007002" lon="15.015953853240049"><ele>385.0</ele><time>2026-03-22T09:34:36Z</time></trkpt><trkpt lat="41.181212113388355" lon="15.015879484277468"><ele>385.0</ele><time>2026-03-22T09:34:37Z</time></trkpt><trkpt lat="41.18124582198148" lon="15.015808320253775"><ele>385.00000000000006</ele><time>2026-03-22T09:34:38Z</time></trkpt><trkpt lat="41.18126979148204" lon="15.015704373405223"><ele>385.0</ele><time>2026-03-22T09:34:40Z</time></trkpt><trkpt lat="41.18114057638627" lon="15.015640626652777"><ele>385.6</ele><time>2026-03-22T09:34:43Z</time></trkpt><trkpt lat="41.18106885652938" lon="15.015640875820074"><ele>386.2</ele><time>2026-03-22T09:34:44Z</time></trkpt><trkpt lat="41.1810029481456" lon="15.0156304423254"><ele>386.79999999999995</ele><time>2026-03-22T09:34:45Z</time></trkpt><trkpt lat="41.181136782260914" lon="15.01553486567151"><ele>387.4</ele><time>2026-03-22T09:34:48Z</time></trkpt><trkpt lat="41.18121556805272" lon="15.01557391381961"><ele>388.0</ele><time>2026-03-22T09:34:49Z</time></trkpt><trkpt lat="41.181308656616196" lon="15.015607692438353"><ele>388.0</ele><time>2026-03-22T09:34:50Z</time></trkpt><trkpt lat="41.18138773396801" lon="15.015638560667123"><ele>388.0</ele><time>2026-03-22T09:34:51Z</time></trkpt><trkpt lat="41.18145507753856" lon="15.015654199671182"><ele>388.0</ele><time>2026-03-22T09:34:52Z</time></trkpt><trkpt lat="41.18154436118998" lon="15.01563297772416"><ele>388.0</ele><time>2026-03-22T09:34:55Z</time></trkpt><trkpt lat="41.18153077885732" lon="15.015485835053157"><ele>388.0</ele><time>2026-03-22T09:34:57Z</time></trkpt><trkpt lat="41.18158055630126" lon="15.015371342479805"><ele>385.79999999999995</ele><time>2026-03-22T09:34:58Z</time></trkpt><trkpt lat="41.181553868637806" lon="15.015255928104597"><ele>383.6</ele><time>2026-03-22T09:34:59Z</time></trkpt><trkpt lat="41.181530749693266" lon="15.015153145416656"><ele>381.4</ele><time>2026-03-22T09:35:00Z</time></trkpt><trkpt lat="41.18156745959343" lon="15.015034406856875"><ele>379.20000000000005</ele><time>2026-03-22T09:35:03Z</time></trkpt><trkpt lat="41.18169882863469" lon="15.01501875191644"><ele>377.0</ele><time>2026-03-22T09:35:05Z</time></trkpt><trkpt lat="41.18179027508914" lon="15.014997850732083"><ele>377.0</ele><time>2026-03-22T09:35:06Z</time></trkpt><trkpt lat="41.181882106887144" lon="15.01497844415519"><ele>377.0</ele><time>2026-03-22T09:35:07Z</time></trkpt><trkpt lat="41.18196099146281" lon="15.014966334230206"><ele>377.0</ele><time>2026-03-22T09:35:08Z</time></trkpt><trkpt lat="41.1820291434959" lon="15.014956931222136"><ele>377.0</ele><time>2026-03-22T09:35:09Z</time></trkpt><trkpt lat="41.18209516831283" lon="15.014974383147928"><ele>377.0</ele><time>2026-03-22T09:35:10Z</time></trkpt><trkpt lat="41.182134739749046" lon="15.015062115456843"><ele>377.0</ele><time>2026-03-22T09:35:11Z</time></trkpt><trkpt lat="41.18217225777047" lon="15.01517246105261"><ele>377.0</ele><time>2026-03-22T09:35:12Z</time></trkpt><trkpt lat="41.18215685124646" lon="15.015290235457712"><ele>377.0</ele><time>2026-03-22T09:35:13Z</time></trkpt><trkpt lat="41.18221788741224" lon="15.015323985642866"><ele>377.0</ele><time>2026-03-22T09:35:16Z</time></trkpt><trkpt lat="41.18234332035512" lon="15.015176571089034"><ele>377.0</ele><time>2026-03-22T09:35:18Z</time></trkpt><trkpt lat="41.1823871272019" lon="15.015099760048228"><ele>377.0</ele><time>2026-03-22T09:35:19Z</time></trkpt><trkpt lat="41.182438278639715" lon="15.01502759501593"><ele>371.6</ele><time>2026-03-22T09:35:20Z</time></trkpt><trkpt lat="41.18249963507019" lon="15.01498253570627"><ele>366.20000000000005</ele><time>2026-03-22T09:35:21Z</time></trkpt><trkpt lat="41.1825556539809" lon="15.014927234198431"><ele>360.8</ele><time>2026-03-22T09:35:22Z</time></trkpt><trkpt lat="41.18260495835312" lon="15.014809708924354"><ele>355.4</ele><time>2026-03-22T09:35:24Z</time></trkpt><trkpt lat="41.18271923598866" lon="15.014745187531043"><ele>350.0</ele><time>2026-03-22T09:35:26Z</time></trkpt><trkpt lat="41.18280720170137" lon="15.014704051931936"><ele>350.0</ele><time>2026-03-22T09:35:27Z</time></trkpt><trkpt lat="41.182872950573866" lon="15.014643922693635"><ele>350.0</ele><time>2026-03-22T09:35:28Z</time></trkpt><trkpt lat="41.182935973501614" lon="15.01460775499396"><ele>350.0</ele><time>2026-03-22T09:35:29Z</time></trkpt><trkpt lat="41.18302406678919" lon="15.014633953420507"><ele>350.0</ele><time>2026-03-22T09:35:31Z</time></trkpt><trkpt lat="41.183051071371786" lon="15.014717751613892"><ele>350.0</ele><time>2026-03-22T09:35:32Z</time></trkpt><trkpt lat="41.18306617969803" lon="15.014850127787486"><ele>350.0</ele><time>2026-03-22T09:35:33Z</time></trkpt><trkpt lat="41.18307735054178" lon="15.01500913428173"><ele>351.8</ele><time>2026-03-22T09:35:34Z</time></trkpt><trkpt lat="41.18310851591974" lon="15.015151596685211"><ele>353.6</ele><time>2026-03-22T09:35:35Z</time></trkpt><trkpt lat="41.18313579449885" lon="15.015248848990616"><ele>355.4</ele><time>2026-03-22T09:35:36Z</time></trkpt><trkpt lat="41.1831865170268" lon="15.01539222936576"><ele>357.2</ele><time>2026-03-22T09:35:38Z</time></trkpt><trkpt lat="41.183234356545775" lon="15.015514366326583"><ele>359.0</ele><time>2026-03-22T09:35:40Z</time></trkpt><trkpt lat="41.18330432443476" lon="15.015532416057317"><ele>353.6</ele><time>2026-03-22T09:35:41Z</time></trkpt><trkpt lat="41.183405481691246" lon="15.015591936007779"><ele>348.2</ele><time>2026-03-22T09:35:43Z</time></trkpt><trkpt lat="41.18341657237335" lon="15.01572693186403"><ele>342.8</ele><time>2026-03-22T09:35:45Z</time></trkpt><trkpt lat="41.18337214853751" lon="15.015814053809637"><ele>337.40000000000003</ele><time>2026-03-22T09:35:46Z</time></trkpt><trkpt lat="41.18336361680314" lon="15.015979993322901"><ele>332.0</ele><time>2026-03-22T09:35:48Z</time></trkpt><trkpt lat="41.1833975363767" lon="15.016107117492805"><ele>331.20000000000005</ele><time>2026-03-22T09:35:50Z</time></trkpt><trkpt lat="41.18352227296763" lon="15.016120293344708"><ele>330.4</ele><time>2026-03-22T09:35:52Z</time></trkpt><trkpt lat="41.18359345863371" lon="15.016059541137366"><ele>329.6</ele><time>2026-03-22T09:35:53Z</time></trkpt><trkpt lat="41.18366582736647" lon="15.015975172343031"><ele>328.79999999999995</ele><time>2026-03-22T09:35:54Z</time></trkpt><trkpt lat="41.18372442498332" lon="15.015935230609161"><ele>328.0</ele><time>2026-03-22T09:35:55Z</time></trkpt><trkpt lat="41.18384630138675" lon="15.016018595712584"><ele>328.0</ele><time>2026-03-22T09:35:57Z</time></trkpt><trkpt lat="41.183901775376036" lon="15.016089176471732"><ele>328.0</ele><time>2026-03-22T09:35:58Z</time></trkpt><trkpt lat="41.18396680768975" lon="15.01608398669051"><ele>328.0</ele><time>2026-03-22T09:36:00Z</time></trkpt><trkpt lat="41.184026864908255" lon="15.016000739297167"><ele>328.0</ele><time>2026-03-22T09:36:01Z</time></trkpt><trkpt lat="41.18407870165067" lon="15.015938509622972"><ele>328.0</ele><time>2026-03-22T09:36:02Z</time></trkpt><trkpt lat="41.184102047343245" lon="15.015813812490846"><ele>328.0</ele><time>2026-03-22T09:36:04Z</time></trkpt><trkpt lat="41.18411941905005" lon="15.01572982210933"><ele>324.3333333333333</ele><time>2026-03-22T09:36:05Z</time></trkpt><trkpt lat="41.184222744965936" lon="15.01567431043714"><ele>320.66666666666663</ele><time>2026-03-22T09:36:07Z</time></trkpt><trkpt lat="41.18427239372894" lon="15.015598351699767"><ele>317.0</ele><time>2026-03-22T09:36:08Z</time></trkpt><trkpt lat="41.18430380118626" lon="15.01550465147154"><ele>313.3333333333333</ele><time>2026-03-22T09:36:09Z</time></trkpt><trkpt lat="41.184295693873196" lon="15.015388578166693"><ele>309.6666666666667</ele><time>2026-03-22T09:36:10Z</time></trkpt><trkpt lat="41.1842450971256" lon="15.015292919450491"><ele>306.0</ele><time>2026-03-22T09:36:11Z</time></trkpt><trkpt lat="41.18417479056597" lon="15.015203110194431"><ele>306.0</ele><time>2026-03-22T09:36:12Z</time></trkpt><trkpt lat="41.18410586403367" lon="15.015137859943056"><ele>306.0</ele><time>2026-03-22T09:36:13Z</time></trkpt><trkpt lat="41.18405929086462" lon="15.015058978747838"><ele>306.0</ele><time>2026-03-22T09:36:15Z</time></trkpt><trkpt lat="41.184023821267246" lon="15.014820707026656"><ele>306.0</ele><time>2026-03-22T09:37:31Z</time></trkpt><trkpt lat="41.184027855103366" lon="15.014715743697362"><ele>306.0</ele><time>2026-03-22T09:37:32Z</time></trkpt><trkpt lat="41.18412799654074" lon="15.014584567242892"><ele>305.6</ele><time>2026-03-22T09:37:34Z</time></trkpt><trkpt lat="41.18421269855883" lon="15.01452899771542"><ele>305.20000000000005</ele><time>2026-03-22T09:37:35Z</time></trkpt><trkpt lat="41.184279533607615" lon="15.014449715147727"><ele>304.79999999999995</ele><time>2026-03-22T09:37:36Z</time></trkpt><trkpt lat="41.18432042257304" lon="15.014325944210404"><ele>304.4</ele><time>2026-03-22T09:37:37Z</time></trkpt><trkpt lat="41.184356783465404" lon="15.014221296484363"><ele>304.0</ele><time>2026-03-22T09:37:38Z</time></trkpt><trkpt lat="41.18440635879884" lon="15.014139317077813"><ele>304.0</ele><time>2026-03-22T09:37:39Z</time></trkpt><trkpt lat="41.18448191527849" lon="15.014050822242607"><ele>304.0</ele><time>2026-03-22T09:37:40Z</time></trkpt><trkpt lat="41.18453866748378" lon="15.013991075487036"><ele>304.0</ele><time>2026-03-22T09:37:41Z</time></trkpt><trkpt lat="41.18462120884299" lon="15.014009609542219"><ele>304.0</ele><time>2026-03-22T09:37:42Z</time></trkpt><trkpt lat="41.184733238682064" lon="15.01403008186253"><ele>304.0</ele><time>2026-03-22T09:37:43Z</time></trkpt><trkpt lat="41.184846784564016" lon="15.01400733973188"><ele>305.4</ele><time>2026-03-22T09:37:44Z</time></trkpt><trkpt lat="41.18494082109261" lon="15.013942219863672"><ele>306.79999999999995</ele><time>2026-03-22T09:37:45Z</time></trkpt><trkpt lat="41.185029090610705" lon="15.013825803518674"><ele>308.20000000000005</ele><time>2026-03-22T09:37:46Z</time></trkpt><trkpt lat="41.18505134744301" lon="15.013725360247012"><ele>309.6</ele><time>2026-03-22T09:37:48Z</time></trkpt><trkpt lat="41.185015050814954" lon="15.013558360520303"><ele>311.0</ele><time>2026-03-22T09:37:50Z</time></trkpt><trkpt lat="41.18501402253017" lon="15.013440892838243"><ele>311.0</ele><time>2026-03-22T09:37:51Z</time></trkpt><trkpt lat="41.1850409930598" lon="15.013336586700087"><ele>311.0</ele><time>2026-03-22T09:37:52Z</time></trkpt><trkpt lat="41.185062738761474" lon="15.013236396692642"><ele>311.0</ele><time>2026-03-22T09:37:53Z</time></trkpt><trkpt lat="41.18505034636662" lon="15.0131035539038"><ele>311.0</ele><time>2026-03-22T09:37:55Z</time></trkpt><trkpt lat="41.185012670762006" lon="15.013029343305751"><ele>311.0</ele><time>2026-03-22T09:37:56Z</time></trkpt><trkpt lat="41.18496633367883" lon="15.012922199966386"><ele>311.0</ele><time>2026-03-22T09:37:57Z</time></trkpt><trkpt lat="41.184912733631236" lon="15.012767388724624"><ele>311.75</ele><time>2026-03-22T09:37:58Z</time></trkpt><trkpt lat="41.184867242516106" lon="15.01257497971812"><ele>312.5</ele><time>2026-03-22T09:37:59Z</time></trkpt><trkpt lat="41.18482482286434" lon="15.01241095259867"><ele>313.25</ele><time>2026-03-22T09:38:00Z</time></trkpt><trkpt lat="41.18479799634644" lon="15.012262780857753"><ele>314.0</ele><time>2026-03-22T09:38:01Z</time></trkpt><trkpt lat="41.18476223396784" lon="15.012118384286383"><ele>309.75</ele><time>2026-03-22T09:38:02Z</time></trkpt><trkpt lat="41.18473213452594" lon="15.011977386165368"><ele>305.5</ele><time>2026-03-22T09:38:03Z</time></trkpt><trkpt lat="41.18470200719384" lon="15.011811119908447"><ele>301.25</ele><time>2026-03-22T09:38:04Z</time></trkpt><trkpt lat="41.18465927386116" lon="15.011666888697729"><ele>297.0</ele><time>2026-03-22T09:38:05Z</time></trkpt><trkpt lat="41.18460119025152" lon="15.01151950410308"><ele>296.8</ele><time>2026-03-22T09:38:06Z</time></trkpt><trkpt lat="41.18454803130093" lon="15.011372925038984"><ele>296.6</ele><time>2026-03-22T09:38:07Z</time></trkpt><trkpt lat="41.18451701961926" lon="15.011243520880994"><ele>296.40000000000003</ele><time>2026-03-22T09:38:08Z</time></trkpt><trkpt lat="41.184487712082124" lon="15.011133281453002"><ele>296.2</ele><time>2026-03-22T09:38:09Z</time></trkpt><trkpt lat="41.184468332807825" lon="15.010995600277479"><ele>296.0</ele><time>2026-03-22T09:38:10Z</time></trkpt><trkpt lat="41.18447185098246" lon="15.0108273086443"><ele>295.40000000000003</ele><time>2026-03-22T09:38:11Z</time></trkpt><trkpt lat="41.184482881034405" lon="15.010689890140636"><ele>294.8</ele><time>2026-03-22T09:38:12Z</time></trkpt><trkpt lat="41.184455342700105" lon="15.01057335791813"><ele>294.20000000000005</ele><time>2026-03-22T09:38:13Z</time></trkpt><trkpt lat="41.18438468651817" lon="15.010461729062929"><ele>293.6</ele><time>2026-03-22T09:38:14Z</time></trkpt><trkpt lat="41.184297919586754" lon="15.010347717097721"><ele>293.0</ele><time>2026-03-22T09:38:15Z</time></trkpt><trkpt lat="41.18422087486374" lon="15.01026688907085"><ele>293.0</ele><time>2026-03-22T09:38:16Z</time></trkpt><trkpt lat="41.18417220485173" lon="15.010185025475261"><ele>293.0</ele><time>2026-03-22T09:38:17Z</time></trkpt><trkpt lat="41.1841378721024" lon="15.010065395682622"><ele>293.0</ele><time>2026-03-22T09:38:18Z</time></trkpt><trkpt lat="41.18411407974572" lon="15.009922715325292"><ele>293.0</ele><time>2026-03-22T09:38:19Z</time></trkpt><trkpt lat="41.18410190902319" lon="15.009786636937745"><ele>293.0</ele><time>2026-03-22T09:38:20Z</time></trkpt><trkpt lat="41.18411619431984" lon="15.00966740287837"><ele>293.0</ele><time>2026-03-22T09:38:21Z</time></trkpt><trkpt lat="41.18415131790567" lon="15.00954052410365"><ele>293.0</ele><time>2026-03-22T09:38:22Z</time></trkpt><trkpt lat="41.18420679505958" lon="15.009435435193353"><ele>293.0</ele><time>2026-03-22T09:38:23Z</time></trkpt><trkpt lat="41.184299121125626" lon="15.009328471805203"><ele>293.0</ele><time>2026-03-22T09:38:24Z</time></trkpt><trkpt lat="41.18441012914878" lon="15.009200770099506"><ele>293.0</ele><time>2026-03-22T09:38:25Z</time></trkpt><trkpt lat="41.184466705884276" lon="15.009106397075271"><ele>293.0</ele><time>2026-03-22T09:38:26Z</time></trkpt><trkpt lat="41.18444594340318" lon="15.008981243405444"><ele>293.0</ele><time>2026-03-22T09:38:28Z</time></trkpt><trkpt lat="41.18446501925756" lon="15.008854888105821"><ele>293.0</ele><time>2026-03-22T09:38:29Z</time></trkpt><trkpt lat="41.18452479510847" lon="15.008672492736357"><ele>293.0</ele><time>2026-03-22T09:38:30Z</time></trkpt><trkpt lat="41.18460623382759" lon="15.008471436114839"><ele>292.5</ele><time>2026-03-22T09:38:31Z</time></trkpt><trkpt lat="41.184677626322845" lon="15.008300161947242"><ele>292.0</ele><time>2026-03-22T09:38:32Z</time></trkpt><trkpt lat="41.184751560309415" lon="15.008183696684892"><ele>291.5</ele><time>2026-03-22T09:38:33Z</time></trkpt><trkpt lat="41.18482832704376" lon="15.008082474701434"><ele>291.0</ele><time>2026-03-22T09:38:34Z</time></trkpt><trkpt lat="41.18489504945687" lon="15.008011144597818"><ele>291.0</ele><time>2026-03-22T09:38:35Z</time></trkpt><trkpt lat="41.184844716454045" lon="15.007824331460299"><ele>291.0</ele><time>2026-03-22T09:38:37Z</time></trkpt><trkpt lat="41.18478529389863" lon="15.007686587942137"><ele>291.0</ele><time>2026-03-22T09:38:38Z</time></trkpt><trkpt lat="41.18474194755375" lon="15.007585422542586"><ele>291.0</ele><time>2026-03-22T09:38:39Z</time></trkpt><trkpt lat="41.18464662820245" lon="15.007526339503507"><ele>291.40000000000003</ele><time>2026-03-22T09:38:40Z</time></trkpt><trkpt lat="41.18453456592423" lon="15.00749216990777"><ele>291.8</ele><time>2026-03-22T09:38:41Z</time></trkpt><trkpt lat="41.18447406249189" lon="15.00730518573488"><ele>292.20000000000005</ele><time>2026-03-22T09:38:43Z</time></trkpt><trkpt lat="41.18447514523304" lon="15.007166256458456"><ele>292.6</ele><time>2026-03-22T09:38:44Z</time></trkpt><trkpt lat="41.18450353274934" lon="15.007079774926426"><ele>293.0</ele><time>2026-03-22T09:38:45Z</time></trkpt><trkpt lat="41.184567137996616" lon="15.007029522355198"><ele>293.0</ele><time>2026-03-22T09:38:46Z</time></trkpt><trkpt lat="41.18466188539271" lon="15.006980941091484"><ele>293.0</ele><time>2026-03-22T09:38:47Z</time></trkpt><trkpt lat="41.18474079321393" lon="15.006928496558373"><ele>293.0</ele><time>2026-03-22T09:38:48Z</time></trkpt><trkpt lat="41.184764143004536" lon="15.006827170590366"><ele>293.0</ele><time>2026-03-22T09:38:49Z</time></trkpt><trkpt lat="41.184780480886815" lon="15.006668106367968"><ele>293.0</ele><time>2026-03-22T09:38:50Z</time></trkpt><trkpt lat="41.18482691599631" lon="15.006489624773923"><ele>301.25</ele><time>2026-03-22T09:38:51Z</time></trkpt><trkpt lat="41.18489243448287" lon="15.006317829897968"><ele>309.5</ele><time>2026-03-22T09:38:52Z</time></trkpt><trkpt lat="41.18496765686258" lon="15.006183340912287"><ele>317.75</ele><time>2026-03-22T09:38:53Z</time></trkpt><trkpt lat="41.1850288904127" lon="15.006071437187787"><ele>326.0</ele><time>2026-03-22T09:38:54Z</time></trkpt><trkpt lat="41.18506366779305" lon="15.00595192267202"><ele>325.0</ele><time>2026-03-22T09:38:55Z</time></trkpt><trkpt lat="41.185085085903246" lon="15.005800486942396"><ele>324.0</ele><time>2026-03-22T09:38:56Z</time></trkpt><trkpt lat="41.185100178044976" lon="15.005661980441145"><ele>323.0</ele><time>2026-03-22T09:38:57Z</time></trkpt><trkpt lat="41.18513238423047" lon="15.005548990126938"><ele>322.0</ele><time>2026-03-22T09:38:58Z</time></trkpt><trkpt lat="41.185188390692446" lon="15.005469859818115"><ele>321.0</ele><time>2026-03-22T09:39:00Z</time></trkpt><trkpt lat="41.18527507272032" lon="15.005572267367816"><ele>321.0</ele><time>2026-03-22T09:39:02Z</time></trkpt><trkpt lat="41.18527102851984" lon="15.005731553783383"><ele>321.0</ele><time>2026-03-22T09:39:04Z</time></trkpt><trkpt lat="41.18532191525075" lon="15.005793905690554"><ele>321.0</ele><time>2026-03-22T09:39:06Z</time></trkpt><trkpt lat="41.18537360619062" lon="15.00588196861956"><ele>321.0</ele><time>2026-03-22T09:39:08Z</time></trkpt><trkpt lat="41.185370892600744" lon="15.005971960430273"><ele>321.0</ele><time>2026-03-22T09:39:09Z</time></trkpt><trkpt lat="41.18540516107037" lon="15.00604788233845"><ele>321.0</ele><time>2026-03-22T09:39:10Z</time></trkpt><trkpt lat="41.18547196980097" lon="15.006067135810543"><ele>321.8333333333333</ele><time>2026-03-22T09:39:11Z</time></trkpt><trkpt lat="41.185532493858766" lon="15.00611869835703"><ele>322.6666666666667</ele><time>2026-03-22T09:39:12Z</time></trkpt><trkpt lat="41.18558085121969" lon="15.006174651023123"><ele>323.5</ele><time>2026-03-22T09:39:13Z</time></trkpt><trkpt lat="41.18562291929402" lon="15.006243768270423"><ele>324.33333333333337</ele><time>2026-03-22T09:39:14Z</time></trkpt><trkpt lat="41.18565999793307" lon="15.006362286029722"><ele>325.1666666666667</ele><time>2026-03-22T09:39:16Z</time></trkpt><trkpt lat="41.18569109027681" lon="15.00646493064633"><ele>326.0</ele><time>2026-03-22T09:40:05Z</time></trkpt><trkpt lat="41.18569976689545" lon="15.006565059707981"><ele>325.7142857142857</ele><time>2026-03-22T09:40:06Z</time></trkpt><trkpt lat="41.185713942645876" lon="15.006657953401403"><ele>325.4285714285714</ele><time>2026-03-22T09:40:07Z</time></trkpt><trkpt lat="41.185709203912346" lon="15.006766664052384"><ele>325.1428571428571</ele><time>2026-03-22T09:40:09Z</time></trkpt><trkpt lat="41.18567400602388" lon="15.006844395205846"><ele>324.8571428571429</ele><time>2026-03-22T09:40:11Z</time></trkpt><trkpt lat="41.18574612248754" lon="15.006889683541296"><ele>324.57142857142856</ele><time>2026-03-22T09:40:15Z</time></trkpt><trkpt lat="41.185822070777384" lon="15.006843064065484"><ele>324.2857142857143</ele><time>2026-03-22T09:40:17Z</time></trkpt><trkpt lat="41.18588583503958" lon="15.006842158015997"><ele>324.0</ele><time>2026-03-22T09:40:47Z</time></trkpt><trkpt lat="41.18595275554572" lon="15.006803939495505"><ele>328.3333333333333</ele><time>2026-03-22T09:40:51Z</time></trkpt><trkpt lat="41.18600724159592" lon="15.006756545087006"><ele>332.6666666666667</ele><time>2026-03-22T09:40:52Z</time></trkpt><trkpt lat="41.186036308658416" lon="15.006652363100981"><ele>337.0</ele><time>2026-03-22T09:40:54Z</time></trkpt><trkpt lat="41.18600346942674" lon="15.006522531397412"><ele>341.33333333333337</ele><time>2026-03-22T09:40:56Z</time></trkpt><trkpt lat="41.186002914167865" lon="15.006431513094421"><ele>345.6666666666667</ele><time>2026-03-22T09:40:57Z</time></trkpt><trkpt lat="41.185981204730126" lon="15.006336266967645"><ele>350.0</ele><time>2026-03-22T09:40:59Z</time></trkpt><trkpt lat="41.1859919732009" lon="15.006240988099409"><ele>350.0</ele><time>2026-03-22T09:41:02Z</time></trkpt><trkpt lat="41.186094677649855" lon="15.006210602841977"><ele>350.0</ele><time>2026-03-22T09:41:04Z</time></trkpt><trkpt lat="41.18621126264349" lon="15.006222646742188"><ele>350.0</ele><time>2026-03-22T09:41:06Z</time></trkpt><trkpt lat="41.18628639319767" lon="15.006259170992296"><ele>350.0</ele><time>2026-03-22T09:41:08Z</time></trkpt><trkpt lat="41.1862611152784" lon="15.006350388803659"><ele>350.0</ele><time>2026-03-22T09:41:10Z</time></trkpt><trkpt lat="41.18619412622497" lon="15.006403992454853"><ele>350.0</ele><time>2026-03-22T09:41:12Z</time></trkpt><trkpt lat="41.18619742635625" lon="15.006526561925853"><ele>350.0</ele><time>2026-03-22T09:41:14Z</time></trkpt><trkpt lat="41.1862776226314" lon="15.006569851031529"><ele>350.0</ele><time>2026-03-22T09:41:16Z</time></trkpt><trkpt lat="41.18638976087096" lon="15.00657799367422"><ele>350.0</ele><time>2026-03-22T09:41:18Z</time></trkpt><trkpt lat="41.18645904812409" lon="15.00656679462429"><ele>350.0</ele><time>2026-03-22T09:41:19Z</time></trkpt><trkpt lat="41.18655032863554" lon="15.006574038962546"><ele>352.83333333333337</ele><time>2026-03-22T09:41:20Z</time></trkpt><trkpt lat="41.18665086281679" lon="15.006599713450749"><ele>355.6666666666667</ele><time>2026-03-22T09:41:21Z</time></trkpt><trkpt lat="41.1867168628466" lon="15.00663069996995"><ele>358.5</ele><time>2026-03-22T09:41:22Z</time></trkpt><trkpt lat="41.18678017356527" lon="15.006698554285993"><ele>361.3333333333333</ele><time>2026-03-22T09:41:24Z</time></trkpt><trkpt lat="41.18683228366676" lon="15.006752725439565"><ele>364.16666666666663</ele><time>2026-03-22T09:43:04Z</time></trkpt><trkpt lat="41.186888189522755" lon="15.006810275862948"><ele>367.0</ele><time>2026-03-22T09:43:09Z</time></trkpt><trkpt lat="41.18696275822972" lon="15.006812506546032"><ele>371.0</ele><time>2026-03-22T09:43:13Z</time></trkpt><trkpt lat="41.18703035992175" lon="15.006875046456738"><ele>375.0</ele><time>2026-03-22T09:43:36Z</time></trkpt><trkpt lat="41.187119731104715" lon="15.00690990581668"><ele>379.0</ele><time>2026-03-22T09:43:41Z</time></trkpt><trkpt lat="41.18720307886107" lon="15.006993176284807"><ele>383.0</ele><time>2026-03-22T09:43:43Z</time></trkpt><trkpt lat="41.18727454862448" lon="15.007037610568108"><ele>387.0</ele><time>2026-03-22T09:43:44Z</time></trkpt><trkpt lat="41.18737453640488" lon="15.00705960472946"><ele>387.5</ele><time>2026-03-22T09:43:45Z</time></trkpt><trkpt lat="41.18745492555694" lon="15.007074546578462"><ele>388.0</ele><time>2026-03-22T09:43:46Z</time></trkpt><trkpt lat="41.18752494429191" lon="15.007095539819183"><ele>388.5</ele><time>2026-03-22T09:43:47Z</time></trkpt><trkpt lat="41.18760573473048" lon="15.007152617207566"><ele>389.0</ele><time>2026-03-22T09:43:48Z</time></trkpt><trkpt lat="41.18768799344566" lon="15.007216891940482"><ele>389.5</ele><time>2026-03-22T09:43:49Z</time></trkpt><trkpt lat="41.18778938840568" lon="15.00721018002694"><ele>390.0</ele><time>2026-03-22T09:43:50Z</time></trkpt><trkpt lat="41.18791396108266" lon="15.00725989339606"><ele>390.0</ele><time>2026-03-22T09:43:51Z</time></trkpt><trkpt lat="41.188020399091364" lon="15.00730906302374"><ele>390.0</ele><time>2026-03-22T09:43:52Z</time></trkpt><trkpt lat="41.18812169652159" lon="15.007373504179917"><ele>390.0</ele><time>2026-03-22T09:43:53Z</time></trkpt><trkpt lat="41.18825453928237" lon="15.0074286298741"><ele>390.0</ele><time>2026-03-22T09:43:54Z</time></trkpt><trkpt lat="41.18838030647883" lon="15.007457585966986"><ele>393.8</ele><time>2026-03-22T09:43:55Z</time></trkpt><trkpt lat="41.188482342423605" lon="15.00750022846182"><ele>397.6</ele><time>2026-03-22T09:43:56Z</time></trkpt><trkpt lat="41.18858107555937" lon="15.007535354677692"><ele>401.4</ele><time>2026-03-22T09:43:57Z</time></trkpt><trkpt lat="41.18868833122992" lon="15.007556087539765"><ele>405.2</ele><time>2026-03-22T09:43:58Z</time></trkpt><trkpt lat="41.18877900269318" lon="15.007560901554168"><ele>409.0</ele><time>2026-03-22T09:43:59Z</time></trkpt><trkpt lat="41.18884329785839" lon="15.007485093781924"><ele>409.0</ele><time>2026-03-22T09:44:01Z</time></trkpt><trkpt lat="41.18885390859015" lon="15.007271626830917"><ele>409.0</ele><time>2026-03-22T09:44:03Z</time></trkpt><trkpt lat="41.188837280785535" lon="15.007090947058172"><ele>409.0</ele><time>2026-03-22T09:44:04Z</time></trkpt><trkpt lat="41.18883268457025" lon="15.006923813723176"><ele>409.0</ele><time>2026-03-22T09:44:05Z</time></trkpt><trkpt lat="41.18882193065871" lon="15.00677369479924"><ele>408.83333333333337</ele><time>2026-03-22T09:44:06Z</time></trkpt><trkpt lat="41.188801583508564" lon="15.006635660753737"><ele>408.6666666666667</ele><time>2026-03-22T09:44:07Z</time></trkpt><trkpt lat="41.188784207048286" lon="15.006548664940416"><ele>408.5</ele><time>2026-03-22T09:44:08Z</time></trkpt><trkpt lat="41.188755399588764" lon="15.006439681070798"><ele>408.33333333333337</ele><time>2026-03-22T09:44:17Z</time></trkpt><trkpt lat="41.188748842334384" lon="15.006340457081617"><ele>408.1666666666667</ele><time>2026-03-22T09:44:48Z</time></trkpt><trkpt lat="41.18876946052005" lon="15.006425642487663"><ele>408.0</ele><time>2026-03-22T09:45:58Z</time></trkpt><trkpt lat="41.188743581018414" lon="15.006344358129148"><ele>408.0</ele><time>2026-03-22T09:56:54Z</time></trkpt><trkpt lat="41.18875577765243" lon="15.006252602011942"><ele>408.0</ele><time>2026-03-22T09:59:07Z</time></trkpt><trkpt lat="41.18874618197373" lon="15.006134712241133"><ele>408.0</ele><time>2026-03-22T09:59:09Z</time></trkpt><trkpt lat="41.188734072274606" lon="15.006023572724665"><ele>408.0</ele><time>2026-03-22T09:59:11Z</time></trkpt><trkpt lat="41.1887279673149" lon="15.005915333075933"><ele>408.0</ele><time>2026-03-22T09:59:13Z</time></trkpt><trkpt lat="41.1887252638292" lon="15.005815096581406"><ele>408.0</ele><time>2026-03-22T09:59:15Z</time></trkpt><trkpt lat="41.18869915550498" lon="15.005711563039815"><ele>407.5</ele><time>2026-03-22T09:59:17Z</time></trkpt><trkpt lat="41.18866265676393" lon="15.005623723525625"><ele>407.0</ele><time>2026-03-22T09:59:19Z</time></trkpt><trkpt lat="41.188642795585054" lon="15.005525859359274"><ele>406.5</ele><time>2026-03-22T09:59:21Z</time></trkpt><trkpt lat="41.188638852793716" lon="15.005424846599587"><ele>406.0</ele><time>2026-03-22T09:59:23Z</time></trkpt><trkpt lat="41.188646908071625" lon="15.00529620160451"><ele>405.5</ele><time>2026-03-22T09:59:25Z</time></trkpt><trkpt lat="41.18864176071802" lon="15.005207059188624"><ele>405.0</ele><time>2026-03-22T09:59:26Z</time></trkpt><trkpt lat="41.1886286047317" lon="15.005059685901044"><ele>404.8333333333333</ele><time>2026-03-22T09:59:28Z</time></trkpt><trkpt lat="41.188620618867326" lon="15.004911096004067"><ele>404.66666666666663</ele><time>2026-03-22T09:59:30Z</time></trkpt><trkpt lat="41.18863406266298" lon="15.00474807842024"><ele>404.5</ele><time>2026-03-22T09:59:32Z</time></trkpt><trkpt lat="41.18865036293946" lon="15.004666683177899"><ele>404.3333333333333</ele><time>2026-03-22T09:59:33Z</time></trkpt><trkpt lat="41.18866813352744" lon="15.004579932272291"><ele>404.16666666666663</ele><time>2026-03-22T09:59:34Z</time></trkpt><trkpt lat="41.18868382864361" lon="15.00447443372671"><ele>404.0</ele><time>2026-03-22T09:59:35Z</time></trkpt><trkpt lat="41.188689093248804" lon="15.004360438543346"><ele>404.0</ele><time>2026-03-22T09:59:36Z</time></trkpt><trkpt lat="41.18868530748425" lon="15.004269520565986"><ele>404.0</ele><time>2026-03-22T09:59:37Z</time></trkpt><trkpt lat="41.18868224685739" lon="15.004165561141651"><ele>404.0</ele><time>2026-03-22T09:59:38Z</time></trkpt><trkpt lat="41.18868027828463" lon="15.004080160107732"><ele>404.0</ele><time>2026-03-22T09:59:39Z</time></trkpt><trkpt lat="41.188666835592244" lon="15.003987860875858"><ele>404.0</ele><time>2026-03-22T09:59:40Z</time></trkpt><trkpt lat="41.18864246739869" lon="15.003891910304848"><ele>404.0</ele><time>2026-03-22T09:59:41Z</time></trkpt><trkpt lat="41.188616932641715" lon="15.003794592047415"><ele>404.0</ele><time>2026-03-22T09:59:42Z</time></trkpt><trkpt lat="41.18858561033207" lon="15.003707959039772"><ele>405.3333333333333</ele><time>2026-03-22T09:59:43Z</time></trkpt><trkpt lat="41.18855240629529" lon="15.003622537773975"><ele>406.66666666666663</ele><time>2026-03-22T09:59:44Z</time></trkpt><trkpt lat="41.18852686198319" lon="15.003544761519795"><ele>408.0</ele><time>2026-03-22T09:59:45Z</time></trkpt><trkpt lat="41.18851797253858" lon="15.003442856556553"><ele>409.33333333333337</ele><time>2026-03-22T09:59:47Z</time></trkpt><trkpt lat="41.18863273583231" lon="15.003315311281764"><ele>410.6666666666667</ele><time>2026-03-22T09:59:50Z</time></trkpt><trkpt lat="41.18870959035783" lon="15.003273144617596"><ele>412.0</ele><time>2026-03-22T09:59:51Z</time></trkpt><trkpt lat="41.18881288110634" lon="15.003217302364602"><ele>416.25</ele><time>2026-03-22T09:59:52Z</time></trkpt><trkpt lat="41.188937901258036" lon="15.003142916544377"><ele>420.5</ele><time>2026-03-22T09:59:53Z</time></trkpt><trkpt lat="41.189060102555764" lon="15.003070683986609"><ele>424.75</ele><time>2026-03-22T09:59:54Z</time></trkpt><trkpt lat="41.18918228258671" lon="15.002995086571664"><ele>429.0</ele><time>2026-03-22T09:59:55Z</time></trkpt><trkpt lat="41.18932952556847" lon="15.002888021843988"><ele>432.5</ele><time>2026-03-22T09:59:56Z</time></trkpt><trkpt lat="41.189480523740926" lon="15.002766799568496"><ele>436.0</ele><time>2026-03-22T09:59:57Z</time></trkpt><trkpt lat="41.1896138341832" lon="15.002670656109611"><ele>439.5</ele><time>2026-03-22T09:59:58Z</time></trkpt><trkpt lat="41.18971884518483" lon="15.002604204405744"><ele>443.0</ele><time>2026-03-22T09:59:59Z</time></trkpt><trkpt lat="41.1898169040769" lon="15.002575317687782"><ele>444.59999999999997</ele><time>2026-03-22T10:00:00Z</time></trkpt><trkpt lat="41.18991053869807" lon="15.002551580675998"><ele>446.19999999999993</ele><time>2026-03-22T10:00:01Z</time></trkpt><trkpt lat="41.19003164010166" lon="15.002564456062474"><ele>447.8</ele><time>2026-03-22T10:00:03Z</time></trkpt><trkpt lat="41.1901248881817" lon="15.002590025142245"><ele>449.4</ele><time>2026-03-22T10:00:04Z</time></trkpt><trkpt lat="41.19022060573486" lon="15.002604418671027"><ele>451.0</ele><time>2026-03-22T10:00:05Z</time></trkpt><trkpt lat="41.19031046546879" lon="15.002630429898119"><ele>451.0</ele><time>2026-03-22T10:00:06Z</time></trkpt><trkpt lat="41.190393760562436" lon="15.002656820123262"><ele>451.0</ele><time>2026-03-22T10:00:07Z</time></trkpt><trkpt lat="41.1904713527936" lon="15.002697933288806"><ele>451.0</ele><time>2026-03-22T10:00:08Z</time></trkpt><trkpt lat="41.190545417796834" lon="15.002756372292293"><ele>451.0</ele><time>2026-03-22T10:00:09Z</time></trkpt><trkpt lat="41.190635664342615" lon="15.002829445880788"><ele>451.0</ele><time>2026-03-22T10:00:10Z</time></trkpt><trkpt lat="41.19071441865742" lon="15.002942797943618"><ele>450.8</ele><time>2026-03-22T10:00:11Z</time></trkpt><trkpt lat="41.1907550238615" lon="15.003006920034956"><ele>450.6</ele><time>2026-03-22T10:00:12Z</time></trkpt><trkpt lat="41.190760174905954" lon="15.002916061212545"><ele>450.4</ele><time>2026-03-22T10:00:18Z</time></trkpt><trkpt lat="41.190714410265706" lon="15.002823608644048"><ele>450.2</ele><time>2026-03-22T10:00:20Z</time></trkpt><trkpt lat="41.19068255824537" lon="15.002706266509884"><ele>450.0</ele><time>2026-03-22T10:00:22Z</time></trkpt><trkpt lat="41.19065732757529" lon="15.002485989506619"><ele>450.0</ele><time>2026-03-22T10:00:24Z</time></trkpt><trkpt lat="41.19058326338081" lon="15.002320037340262"><ele>450.0</ele><time>2026-03-22T10:00:25Z</time></trkpt><trkpt lat="41.190539948339506" lon="15.002167808689512"><ele>450.0</ele><time>2026-03-22T10:00:26Z</time></trkpt><trkpt lat="41.190542479429126" lon="15.002016373335675"><ele>450.0</ele><time>2026-03-22T10:00:27Z</time></trkpt><trkpt lat="41.19052461609052" lon="15.001900814688216"><ele>450.0</ele><time>2026-03-22T10:00:28Z</time></trkpt><trkpt lat="41.19047935834304" lon="15.001798069173011"><ele>450.0</ele><time>2026-03-22T10:00:29Z</time></trkpt><trkpt lat="41.19039233927318" lon="15.001669316805204"><ele>450.0</ele><time>2026-03-22T10:00:30Z</time></trkpt><trkpt lat="41.19031887989507" lon="15.001514984244565"><ele>450.0</ele><time>2026-03-22T10:00:31Z</time></trkpt><trkpt lat="41.19022922846516" lon="15.001399207403496"><ele>446.6</ele><time>2026-03-22T10:00:32Z</time></trkpt><trkpt lat="41.19016551485077" lon="15.00127516194918"><ele>443.2</ele><time>2026-03-22T10:00:33Z</time></trkpt><trkpt lat="41.19011952213514" lon="15.00115848248727"><ele>439.79999999999995</ele><time>2026-03-22T10:00:34Z</time></trkpt><trkpt lat="41.1901073279078" lon="15.001058775263692"><ele>436.4</ele><time>2026-03-22T10:00:35Z</time></trkpt><trkpt lat="41.19019938424507" lon="15.000992438460054"><ele>433.0</ele><time>2026-03-22T10:00:36Z</time></trkpt><trkpt lat="41.19022233298925" lon="15.000869153442364"><ele>431.0</ele><time>2026-03-22T10:00:37Z</time></trkpt><trkpt lat="41.19032089841334" lon="15.000818884461234"><ele>429.0</ele><time>2026-03-22T10:00:38Z</time></trkpt><trkpt lat="41.19034710619433" lon="15.000694564159822"><ele>427.0</ele><time>2026-03-22T10:00:39Z</time></trkpt><trkpt lat="41.19038711563929" lon="15.000568477991077"><ele>425.0</ele><time>2026-03-22T10:00:40Z</time></trkpt><trkpt lat="41.19047177630782" lon="15.000382167556797"><ele>425.0</ele><time>2026-03-22T10:00:41Z</time></trkpt><trkpt lat="41.1904931657883" lon="15.00027391004894"><ele>425.0</ele><time>2026-03-22T10:00:42Z</time></trkpt><trkpt lat="41.19056940445695" lon="15.000151232469934"><ele>425.0</ele><time>2026-03-22T10:00:43Z</time></trkpt><trkpt lat="41.190648540621105" lon="15.00006763588804"><ele>425.0</ele><time>2026-03-22T10:00:44Z</time></trkpt><trkpt lat="41.19073319169121" lon="14.999977884380684"><ele>425.0</ele><time>2026-03-22T10:00:45Z</time></trkpt><trkpt lat="41.19080552274734" lon="14.99986786019617"><ele>420.6</ele><time>2026-03-22T10:00:46Z</time></trkpt><trkpt lat="41.19087321249309" lon="14.999744216093232"><ele>416.2</ele><time>2026-03-22T10:00:47Z</time></trkpt><trkpt lat="41.19092355240648" lon="14.999628390705194"><ele>411.79999999999995</ele><time>2026-03-22T10:00:48Z</time></trkpt><trkpt lat="41.19095680787381" lon="14.999507032125157"><ele>407.4</ele><time>2026-03-22T10:00:49Z</time></trkpt><trkpt lat="41.19095010642466" lon="14.999377349671315"><ele>403.0</ele><time>2026-03-22T10:00:50Z</time></trkpt><trkpt lat="41.190919935654456" lon="14.999216762601295"><ele>401.50000000000006</ele><time>2026-03-22T10:00:51Z</time></trkpt><trkpt lat="41.19090966015071" lon="14.999105120936193"><ele>400.0</ele><time>2026-03-22T10:00:52Z</time></trkpt><trkpt lat="41.190941019021544" lon="14.999022016262042"><ele>398.5</ele><time>2026-03-22T10:00:53Z</time></trkpt><trkpt lat="41.191015031708716" lon="14.998954283826059"><ele>397.0</ele><time>2026-03-22T10:00:54Z</time></trkpt><trkpt lat="41.19108865019937" lon="14.998915888658818"><ele>395.50000000000006</ele><time>2026-03-22T10:00:55Z</time></trkpt><trkpt lat="41.19115746210018" lon="14.99888035372424"><ele>394.0</ele><time>2026-03-22T10:00:56Z</time></trkpt><trkpt lat="41.191228757103104" lon="14.998857838308332"><ele>394.0</ele><time>2026-03-22T10:00:57Z</time></trkpt><trkpt lat="41.19135998711414" lon="14.998895698948717"><ele>394.0</ele><time>2026-03-22T10:00:59Z</time></trkpt><trkpt lat="41.19143976565449" lon="14.998921731622403"><ele>394.0</ele><time>2026-03-22T10:01:00Z</time></trkpt><trkpt lat="41.191524832028556" lon="14.998908854360574"><ele>394.0</ele><time>2026-03-22T10:01:02Z</time></trkpt><trkpt lat="41.19154739360757" lon="14.998820677769958"><ele>394.0</ele><time>2026-03-22T10:01:03Z</time></trkpt><trkpt lat="41.19150813580077" lon="14.998663547024588"><ele>394.0</ele><time>2026-03-22T10:01:04Z</time></trkpt><trkpt lat="41.19147132914961" lon="14.998525555973487"><ele>394.0</ele><time>2026-03-22T10:01:05Z</time></trkpt><trkpt lat="41.19144798856663" lon="14.99836889937941"><ele>394.0</ele><time>2026-03-22T10:01:06Z</time></trkpt><trkpt lat="41.191446679670996" lon="14.998210934134738"><ele>394.0</ele><time>2026-03-22T10:01:07Z</time></trkpt><trkpt lat="41.19145190361194" lon="14.998069473694914"><ele>392.33333333333337</ele><time>2026-03-22T10:01:08Z</time></trkpt><trkpt lat="41.191454838178906" lon="14.997937976327055"><ele>390.6666666666667</ele><time>2026-03-22T10:01:09Z</time></trkpt><trkpt lat="41.191462734546725" lon="14.997822633475828"><ele>389.0</ele><time>2026-03-22T10:01:10Z</time></trkpt><trkpt lat="41.19147331254988" lon="14.997726533639224"><ele>387.33333333333337</ele><time>2026-03-22T10:01:11Z</time></trkpt><trkpt lat="41.19150276388439" lon="14.997637858219743"><ele>385.6666666666667</ele><time>2026-03-22T10:01:12Z</time></trkpt><trkpt lat="41.191571770100296" lon="14.997549292664692"><ele>384.0</ele><time>2026-03-22T10:01:13Z</time></trkpt><trkpt lat="41.19167081422961" lon="14.997476952996974"><ele>376.4</ele><time>2026-03-22T10:01:14Z</time></trkpt><trkpt lat="41.19175615537232" lon="14.997420078613787"><ele>368.79999999999995</ele><time>2026-03-22T10:01:15Z</time></trkpt><trkpt lat="41.19182948454505" lon="14.997348059125315"><ele>361.20000000000005</ele><time>2026-03-22T10:01:16Z</time></trkpt><trkpt lat="41.19187856710426" lon="14.99725297218502"><ele>353.6</ele><time>2026-03-22T10:01:17Z</time></trkpt><trkpt lat="41.19189749078063" lon="14.997130877622297"><ele>346.0</ele><time>2026-03-22T10:01:18Z</time></trkpt><trkpt lat="41.19189099017327" lon="14.996983471707784"><ele>346.0</ele><time>2026-03-22T10:01:19Z</time></trkpt><trkpt lat="41.19186838411564" lon="14.996796289326578"><ele>346.0</ele><time>2026-03-22T10:01:20Z</time></trkpt><trkpt lat="41.19185158330701" lon="14.996656279645565"><ele>346.0</ele><time>2026-03-22T10:01:21Z</time></trkpt><trkpt lat="41.19186069284077" lon="14.996571754711173"><ele>346.0</ele><time>2026-03-22T10:01:22Z</time></trkpt><trkpt lat="41.19190682030823" lon="14.996464522650792"><ele>346.0</ele><time>2026-03-22T10:01:23Z</time></trkpt><trkpt lat="41.19195870603398" lon="14.996328556359876"><ele>343.6</ele><time>2026-03-22T10:01:24Z</time></trkpt><trkpt lat="41.19198806614743" lon="14.99617460103168"><ele>341.20000000000005</ele><time>2026-03-22T10:01:25Z</time></trkpt><trkpt lat="41.19201442432284" lon="14.996035216753606"><ele>338.79999999999995</ele><time>2026-03-22T10:01:26Z</time></trkpt><trkpt lat="41.1920326850837" lon="14.995905532251106"><ele>336.4</ele><time>2026-03-22T10:01:27Z</time></trkpt><trkpt lat="41.19205682265183" lon="14.995785168866652"><ele>334.0</ele><time>2026-03-22T10:01:28Z</time></trkpt><trkpt lat="41.19206761590077" lon="14.995694530306707"><ele>331.75</ele><time>2026-03-22T10:01:29Z</time></trkpt><trkpt lat="41.192070521934546" lon="14.995581941205227"><ele>329.5</ele><time>2026-03-22T10:01:30Z</time></trkpt><trkpt lat="41.19208967872781" lon="14.995424070210051"><ele>327.25</ele><time>2026-03-22T10:01:31Z</time></trkpt><trkpt lat="41.192109357903924" lon="14.995246268262738"><ele>325.0</ele><time>2026-03-22T10:01:32Z</time></trkpt><trkpt lat="41.19213610931698" lon="14.99508937924166"><ele>322.2</ele><time>2026-03-22T10:01:33Z</time></trkpt><trkpt lat="41.19216211772842" lon="14.994954160191678"><ele>319.4</ele><time>2026-03-22T10:01:34Z</time></trkpt><trkpt lat="41.19217626287988" lon="14.994836569729818"><ele>316.6</ele><time>2026-03-22T10:01:35Z</time></trkpt><trkpt lat="41.192195732414405" lon="14.994741464275334"><ele>313.8</ele><time>2026-03-22T10:01:36Z</time></trkpt><trkpt lat="41.19224425758884" lon="14.994641040433786"><ele>311.0</ele><time>2026-03-22T10:01:37Z</time></trkpt><trkpt lat="41.19231538943088" lon="14.99453285971335"><ele>309.2</ele><time>2026-03-22T10:01:38Z</time></trkpt><trkpt lat="41.19241731725029" lon="14.994412508615895"><ele>307.40000000000003</ele><time>2026-03-22T10:01:39Z</time></trkpt><trkpt lat="41.192506700579656" lon="14.994339208813749"><ele>305.6</ele><time>2026-03-22T10:01:40Z</time></trkpt><trkpt lat="41.192583496270636" lon="14.9942864697174"><ele>303.8</ele><time>2026-03-22T10:01:41Z</time></trkpt><trkpt lat="41.19264637411094" lon="14.994241247074696"><ele>302.0</ele><time>2026-03-22T10:01:42Z</time></trkpt><trkpt lat="41.19272863203715" lon="14.99414469016057"><ele>299.5</ele><time>2026-03-22T10:01:44Z</time></trkpt><trkpt lat="41.19278718304089" lon="14.994092534685759"><ele>297.0</ele><time>2026-03-22T10:01:45Z</time></trkpt><trkpt lat="41.19270639197731" lon="14.993799124754183"><ele>294.5</ele><time>2026-03-22T10:01:46Z</time></trkpt><trkpt lat="41.192695045617775" lon="14.993632873652416"><ele>292.0</ele><time>2026-03-22T10:01:47Z</time></trkpt><trkpt lat="41.19269553339108" lon="14.993467979224906"><ele>289.0</ele><time>2026-03-22T10:01:48Z</time></trkpt><trkpt lat="41.19269759045232" lon="14.9932868458053"><ele>286.0</ele><time>2026-03-22T10:01:49Z</time></trkpt><trkpt lat="41.19270370944049" lon="14.993102578369518"><ele>283.0</ele><time>2026-03-22T10:01:50Z</time></trkpt><trkpt lat="41.19271019534907" lon="14.99293936719087"><ele>280.0</ele><time>2026-03-22T10:01:51Z</time></trkpt><trkpt lat="41.19272071190441" lon="14.992760894478643"><ele>280.0</ele><time>2026-03-22T10:01:52Z</time></trkpt><trkpt lat="41.19272243446641" lon="14.992595083383769"><ele>280.0</ele><time>2026-03-22T10:01:53Z</time></trkpt><trkpt lat="41.192725157517444" lon="14.99244167511054"><ele>280.0</ele><time>2026-03-22T10:01:54Z</time></trkpt><trkpt lat="41.192730068566945" lon="14.992317705681124"><ele>280.0</ele><time>2026-03-22T10:01:55Z</time></trkpt><trkpt lat="41.19274467053888" lon="14.992216447896581"><ele>280.0</ele><time>2026-03-22T10:01:56Z</time></trkpt><trkpt lat="41.192783315707985" lon="14.992135633672357"><ele>278.0</ele><time>2026-03-22T10:01:57Z</time></trkpt><trkpt lat="41.19284756010817" lon="14.9920550083557"><ele>276.0</ele><time>2026-03-22T10:01:58Z</time></trkpt><trkpt lat="41.192917856171476" lon="14.991980747223472"><ele>274.0</ele><time>2026-03-22T10:01:59Z</time></trkpt><trkpt lat="41.19298362247618" lon="14.991910769431938"><ele>272.0</ele><time>2026-03-22T10:02:00Z</time></trkpt><trkpt lat="41.19304579620433" lon="14.991824739270294"><ele>270.0</ele><time>2026-03-22T10:02:01Z</time></trkpt><trkpt lat="41.19309210604834" lon="14.991735469794117"><ele>268.0</ele><time>2026-03-22T10:02:02Z</time></trkpt><trkpt lat="41.19313985987814" lon="14.991647185307047"><ele>262.0</ele><time>2026-03-22T10:02:03Z</time></trkpt><trkpt lat="41.19318823962757" lon="14.991565315403314"><ele>256.0</ele><time>2026-03-22T10:02:04Z</time></trkpt><trkpt lat="41.19325230839514" lon="14.991505376561497"><ele>250.0</ele><time>2026-03-22T10:02:05Z</time></trkpt><trkpt lat="41.193333359444026" lon="14.991429151333534"><ele>244.0</ele><time>2026-03-22T10:02:06Z</time></trkpt><trkpt lat="41.19341777168143" lon="14.991333437451681"><ele>238.0</ele><time>2026-03-22T10:02:07Z</time></trkpt><trkpt lat="41.19349220204387" lon="14.991231513276007"><ele>237.99999999999997</ele><time>2026-03-22T10:02:08Z</time></trkpt><trkpt lat="41.193550120409384" lon="14.991133855763529"><ele>238.0</ele><time>2026-03-22T10:02:09Z</time></trkpt><trkpt lat="41.19358946290545" lon="14.99106011977194"><ele>238.0</ele><time>2026-03-22T10:02:10Z</time></trkpt><trkpt lat="41.19356720017481" lon="14.99095325665096"><ele>238.0</ele><time>2026-03-22T10:02:13Z</time></trkpt><trkpt lat="41.19353251863255" lon="14.990871489491223"><ele>237.99999999999997</ele><time>2026-03-22T10:02:14Z</time></trkpt><trkpt lat="41.193488338074324" lon="14.990740984096954"><ele>238.0</ele><time>2026-03-22T10:02:16Z</time></trkpt><trkpt lat="41.19334052853426" lon="14.990683948924293"><ele>236.8</ele><time>2026-03-22T10:02:18Z</time></trkpt><trkpt lat="41.19323151419833" lon="14.990634208919305"><ele>235.60000000000002</ele><time>2026-03-22T10:02:19Z</time></trkpt><trkpt lat="41.193138861091484" lon="14.990572874937426"><ele>234.39999999999998</ele><time>2026-03-22T10:02:20Z</time></trkpt><trkpt lat="41.19309594072005" lon="14.990496959324801"><ele>233.2</ele><time>2026-03-22T10:02:21Z</time></trkpt><trkpt lat="41.193074511223024" lon="14.990378830148718"><ele>232.0</ele><time>2026-03-22T10:02:22Z</time></trkpt><trkpt lat="41.19306815700286" lon="14.990217264520247"><ele>233.2</ele><time>2026-03-22T10:02:23Z</time></trkpt><trkpt lat="41.19306764663611" lon="14.990091748423218"><ele>234.39999999999998</ele><time>2026-03-22T10:02:24Z</time></trkpt><trkpt lat="41.19307162712838" lon="14.989994072789688"><ele>235.60000000000002</ele><time>2026-03-22T10:02:25Z</time></trkpt><trkpt lat="41.193104745277054" lon="14.989835542370217"><ele>236.8</ele><time>2026-03-22T10:02:27Z</time></trkpt><trkpt lat="41.193131381617775" lon="14.989712920150302"><ele>238.0</ele><time>2026-03-22T10:02:28Z</time></trkpt><trkpt lat="41.19314717395723" lon="14.989583753454665"><ele>238.0</ele><time>2026-03-22T10:02:29Z</time></trkpt><trkpt lat="41.19312668338281" lon="14.989465315226909"><ele>238.0</ele><time>2026-03-22T10:02:30Z</time></trkpt><trkpt lat="41.1930847168404" lon="14.989346754405897"><ele>238.0</ele><time>2026-03-22T10:02:31Z</time></trkpt><trkpt lat="41.19303063491504" lon="14.989246773706183"><ele>238.0</ele><time>2026-03-22T10:02:32Z</time></trkpt><trkpt lat="41.1929385783574" lon="14.98916372815882"><ele>238.0</ele><time>2026-03-22T10:02:33Z</time></trkpt><trkpt lat="41.19279879624833" lon="14.989046801691607"><ele>235.5</ele><time>2026-03-22T10:02:34Z</time></trkpt><trkpt lat="41.19266001134827" lon="14.988928082067249"><ele>233.0</ele><time>2026-03-22T10:02:35Z</time></trkpt><trkpt lat="41.19256671765958" lon="14.988784011240611"><ele>230.5</ele><time>2026-03-22T10:02:36Z</time></trkpt><trkpt lat="41.19248980739624" lon="14.988631180673847"><ele>228.0</ele><time>2026-03-22T10:02:37Z</time></trkpt><trkpt lat="41.19245197403559" lon="14.988521629793661"><ele>228.0</ele><time>2026-03-22T10:02:38Z</time></trkpt><trkpt lat="41.19241605500625" lon="14.988431907454153"><ele>228.0</ele><time>2026-03-22T10:02:39Z</time></trkpt><trkpt lat="41.192434206571654" lon="14.988348097793265"><ele>228.0</ele><time>2026-03-22T10:02:41Z</time></trkpt><trkpt lat="41.19242764656502" lon="14.988223929237531"><ele>228.0</ele><time>2026-03-22T10:02:43Z</time></trkpt><trkpt lat="41.19238562856595" lon="14.98813986213023"><ele>228.0</ele><time>2026-03-22T10:02:45Z</time></trkpt><trkpt lat="41.19235495324178" lon="14.987917796979517"><ele>228.25</ele><time>2026-03-22T10:02:46Z</time></trkpt><trkpt lat="41.19230829110272" lon="14.987679802008536"><ele>228.5</ele><time>2026-03-22T10:02:47Z</time></trkpt><trkpt lat="41.1923230673946" lon="14.987516738495907"><ele>228.75</ele><time>2026-03-22T10:02:48Z</time></trkpt><trkpt lat="41.19230952934383" lon="14.987417413736"><ele>229.0</ele><time>2026-03-22T10:02:49Z</time></trkpt><trkpt lat="41.19228205259941" lon="14.98733529131318"><ele>227.83333333333331</ele><time>2026-03-22T10:02:51Z</time></trkpt><trkpt lat="41.19225796808911" lon="14.987247802205527"><ele>226.66666666666666</ele><time>2026-03-22T10:02:53Z</time></trkpt><trkpt lat="41.19223021327631" lon="14.987166007714766"><ele>225.5</ele><time>2026-03-22T10:02:56Z</time></trkpt><trkpt lat="41.1922001916871" lon="14.987084175903012"><ele>224.33333333333331</ele><time>2026-03-22T10:02:57Z</time></trkpt><trkpt lat="41.19215907366293" lon="14.9869829341045"><ele>223.16666666666666</ele><time>2026-03-22T10:02:58Z</time></trkpt><trkpt lat="41.19205674511711" lon="14.986851996440725"><ele>222.0</ele><time>2026-03-22T10:02:59Z</time></trkpt><trkpt lat="41.191964505844076" lon="14.986696708691548"><ele>221.66666666666669</ele><time>2026-03-22T10:03:00Z</time></trkpt><trkpt lat="41.19182495739015" lon="14.986552369065711"><ele>221.33333333333334</ele><time>2026-03-22T10:03:01Z</time></trkpt><trkpt lat="41.19169360659936" lon="14.986382020129454"><ele>221.0</ele><time>2026-03-22T10:03:02Z</time></trkpt><trkpt lat="41.191627093220085" lon="14.986277160800112"><ele>221.0</ele><time>2026-03-22T10:03:03Z</time></trkpt><trkpt lat="41.19157853362252" lon="14.98610140192836"><ele>221.0</ele><time>2026-03-22T10:03:05Z</time></trkpt><trkpt lat="41.19159702503912" lon="14.985925119622964"><ele>221.0</ele><time>2026-03-22T10:03:06Z</time></trkpt><trkpt lat="41.19158700875656" lon="14.985749148394754"><ele>221.0</ele><time>2026-03-22T10:03:07Z</time></trkpt><trkpt lat="41.19157908577514" lon="14.985634552707635"><ele>221.00000000000003</ele><time>2026-03-22T10:03:08Z</time></trkpt><trkpt lat="41.191525438248554" lon="14.985549940343473"><ele>221.0</ele><time>2026-03-22T10:03:09Z</time></trkpt><trkpt lat="41.191449735626186" lon="14.985461319378837"><ele>221.0</ele><time>2026-03-22T10:03:10Z</time></trkpt><trkpt lat="41.191404864480596" lon="14.985388162818921"><ele>221.0</ele><time>2026-03-22T10:03:11Z</time></trkpt><trkpt lat="41.191387569353736" lon="14.985297460061119"><ele>221.00000000000003</ele><time>2026-03-22T10:03:12Z</time></trkpt><trkpt lat="41.19138845680704" lon="14.985173662307565"><ele>221.0</ele><time>2026-03-22T10:03:13Z</time></trkpt><trkpt lat="41.19137985276291" lon="14.985013279425672"><ele>220.50000000000003</ele><time>2026-03-22T10:03:14Z</time></trkpt><trkpt lat="41.191374391770644" lon="14.984881292336931"><ele>220.0</ele><time>2026-03-22T10:03:15Z</time></trkpt><trkpt lat="41.19137992303706" lon="14.984784044522153"><ele>219.5</ele><time>2026-03-22T10:03:16Z</time></trkpt><trkpt lat="41.19138280016509" lon="14.984696045669102"><ele>219.0</ele><time>2026-03-22T10:03:17Z</time></trkpt><trkpt lat="41.191381886188566" lon="14.984603089798297"><ele>218.50000000000003</ele><time>2026-03-22T10:03:18Z</time></trkpt><trkpt lat="41.191392553485066" lon="14.98450402352803"><ele>218.0</ele><time>2026-03-22T10:03:21Z</time></trkpt><trkpt lat="41.1914474724479" lon="14.984440131835836"><ele>218.00000000000003</ele><time>2026-03-22T10:03:25Z</time></trkpt><trkpt lat="41.19144758014979" lon="14.984336142989868"><ele>218.0</ele><time>2026-03-22T10:03:44Z</time></trkpt><trkpt lat="41.191450125763375" lon="14.98422913741993"><ele>218.0</ele><time>2026-03-22T10:03:47Z</time></trkpt><trkpt lat="41.19146021099931" lon="14.984121473881027"><ele>218.0</ele><time>2026-03-22T10:03:50Z</time></trkpt><trkpt lat="41.19148365085829" lon="14.984034076334266"><ele>218.00000000000003</ele><time>2026-03-22T10:03:53Z</time></trkpt><trkpt lat="41.19153676245472" lon="14.983956469321809"><ele>218.0</ele><time>2026-03-22T10:03:56Z</time></trkpt><trkpt lat="41.1915760939918" lon="14.983888729737597"><ele>218.00000000000003</ele><time>2026-03-22T10:03:58Z</time></trkpt><trkpt lat="41.191596294583924" lon="14.983775931523063"><ele>218.0</ele><time>2026-03-22T10:04:02Z</time></trkpt><trkpt lat="41.19160501543304" lon="14.983671136721883"><ele>218.0</ele><time>2026-03-22T10:04:05Z</time></trkpt><trkpt lat="41.19164420935766" lon="14.983600336585393"><ele>218.0</ele><time>2026-03-22T10:04:07Z</time></trkpt><trkpt lat="41.19167042516061" lon="14.983492037283241"><ele>218.00000000000003</ele><time>2026-03-22T10:04:10Z</time></trkpt><trkpt lat="41.1916709860182" lon="14.983392321821242"><ele>218.0</ele><time>2026-03-22T10:04:12Z</time></trkpt><trkpt lat="41.19170520907565" lon="14.983297085650833"><ele>218.00000000000003</ele><time>2026-03-22T10:04:15Z</time></trkpt><trkpt lat="41.19167215893551" lon="14.983159150894917"><ele>218.0</ele><time>2026-03-22T10:04:18Z</time></trkpt><trkpt lat="41.191652405704865" lon="14.983078799519788"><ele>218.0</ele><time>2026-03-22T10:04:20Z</time></trkpt><trkpt lat="41.191606823854144" lon="14.982994880654216"><ele>218.0</ele><time>2026-03-22T10:04:23Z</time></trkpt><trkpt lat="41.191587226831544" lon="14.982904809953292"><ele>218.00000000000003</ele><time>2026-03-22T10:04:26Z</time></trkpt><trkpt lat="41.191578417591295" lon="14.982787640514738"><ele>218.0</ele><time>2026-03-22T10:06:31Z</time></trkpt><trkpt lat="41.19149129026457" lon="14.982732031732688"><ele>218.0</ele><time>2026-03-22T10:06:34Z</time></trkpt><trkpt lat="41.19143543942424" lon="14.982558131182364"><ele>218.0</ele><time>2026-03-22T10:06:36Z</time></trkpt><trkpt lat="41.19138479854677" lon="14.982477822581302"><ele>218.0</ele><time>2026-03-22T10:06:37Z</time></trkpt><trkpt lat="41.19132912579211" lon="14.982389801614076"><ele>218.0</ele><time>2026-03-22T10:06:38Z</time></trkpt><trkpt lat="41.191281635042806" lon="14.982261845807635"><ele>218.0</ele><time>2026-03-22T10:06:39Z</time></trkpt><trkpt lat="41.19124313025099" lon="14.982130075118258"><ele>217.8</ele><time>2026-03-22T10:06:40Z</time></trkpt><trkpt lat="41.191204945321175" lon="14.982033974198036"><ele>217.60000000000002</ele><time>2026-03-22T10:06:41Z</time></trkpt><trkpt lat="41.19111078803401" lon="14.98193257067311"><ele>217.39999999999998</ele><time>2026-03-22T10:06:43Z</time></trkpt><trkpt lat="41.19103095550567" lon="14.981863724373941"><ele>217.2</ele><time>2026-03-22T10:06:45Z</time></trkpt><trkpt lat="41.19097505145498" lon="14.981783016732074"><ele>217.0</ele><time>2026-03-22T10:06:48Z</time></trkpt><trkpt lat="41.19093949428634" lon="14.98166010548237"><ele>217.0</ele><time>2026-03-22T10:06:51Z</time></trkpt><trkpt lat="41.19089357082527" lon="14.981569355373344"><ele>217.0</ele><time>2026-03-22T10:06:53Z</time></trkpt><trkpt lat="41.19078190224681" lon="14.981520073782495"><ele>217.0</ele><time>2026-03-22T10:06:55Z</time></trkpt><trkpt lat="41.19068244037768" lon="14.981442676899542"><ele>217.0</ele><time>2026-03-22T10:06:57Z</time></trkpt><trkpt lat="41.19058571148267" lon="14.981322766608864"><ele>217.0</ele><time>2026-03-22T10:06:59Z</time></trkpt><trkpt lat="41.190526131650145" lon="14.981225284349117"><ele>217.0</ele><time>2026-03-22T10:07:00Z</time></trkpt><trkpt lat="41.1904643745391" lon="14.981123773454351"><ele>217.0</ele><time>2026-03-22T10:07:01Z</time></trkpt><trkpt lat="41.19039495350622" lon="14.981033901541965"><ele>217.0</ele><time>2026-03-22T10:07:02Z</time></trkpt><trkpt lat="41.19033003459396" lon="14.980955431137048"><ele>217.0</ele><time>2026-03-22T10:07:03Z</time></trkpt><trkpt lat="41.190281623305715" lon="14.980858528745093"><ele>217.0</ele><time>2026-03-22T10:07:04Z</time></trkpt><trkpt lat="41.19024104853379" lon="14.980746978177349"><ele>216.99999999999997</ele><time>2026-03-22T10:07:05Z</time></trkpt><trkpt lat="41.19020218454147" lon="14.980639687614877"><ele>217.0</ele><time>2026-03-22T10:07:06Z</time></trkpt><trkpt lat="41.190173017104904" lon="14.98054774684882"><ele>217.0</ele><time>2026-03-22T10:07:07Z</time></trkpt><trkpt lat="41.19014420528715" lon="14.980447122602179"><ele>217.0</ele><time>2026-03-22T10:07:08Z</time></trkpt><trkpt lat="41.19012595410136" lon="14.980341172839589"><ele>216.99999999999997</ele><time>2026-03-22T10:07:09Z</time></trkpt><trkpt lat="41.190105108679475" lon="14.98022675604097"><ele>217.0</ele><time>2026-03-22T10:07:10Z</time></trkpt><trkpt lat="41.190085026866406" lon="14.98011296195352"><ele>216.99999999999997</ele><time>2026-03-22T10:07:11Z</time></trkpt><trkpt lat="41.190070101705345" lon="14.980024104570028"><ele>217.0</ele><time>2026-03-22T10:07:12Z</time></trkpt><trkpt lat="41.19005108594987" lon="14.979919900224427"><ele>217.0</ele><time>2026-03-22T10:07:14Z</time></trkpt><trkpt lat="41.18999158061931" lon="14.979808940381515"><ele>217.0</ele><time>2026-03-22T10:07:17Z</time></trkpt><trkpt lat="41.18995130645634" lon="14.979710495098836"><ele>216.99999999999997</ele><time>2026-03-22T10:07:19Z</time></trkpt><trkpt lat="41.18991703755885" lon="14.979584437511157"><ele>217.0</ele><time>2026-03-22T10:07:21Z</time></trkpt><trkpt lat="41.18988290274201" lon="14.979423020755796"><ele>216.99999999999997</ele><time>2026-03-22T10:07:24Z</time></trkpt><trkpt lat="41.18986248490562" lon="14.97932575186928"><ele>217.0</ele><time>2026-03-22T10:07:25Z</time></trkpt><trkpt lat="41.189840998668465" lon="14.979176015874414"><ele>217.0</ele><time>2026-03-22T10:07:26Z</time></trkpt><trkpt lat="41.1898227680341" lon="14.979074259627183"><ele>217.0</ele><time>2026-03-22T10:07:27Z</time></trkpt><trkpt lat="41.18980085417753" lon="14.978969867139861"><ele>216.99999999999997</ele><time>2026-03-22T10:07:28Z</time></trkpt><trkpt lat="41.18977065163491" lon="14.97887001287713"><ele>217.0</ele><time>2026-03-22T10:07:29Z</time></trkpt><trkpt lat="41.18972021144522" lon="14.978791782764933"><ele>216.8</ele><time>2026-03-22T10:07:30Z</time></trkpt><trkpt lat="41.189660985273484" lon="14.978702249023053"><ele>216.6</ele><time>2026-03-22T10:07:31Z</time></trkpt><trkpt lat="41.189575769915315" lon="14.978595375732363"><ele>216.40000000000003</ele><time>2026-03-22T10:07:32Z</time></trkpt><trkpt lat="41.18949350669899" lon="14.978497414475836"><ele>216.20000000000002</ele><time>2026-03-22T10:07:33Z</time></trkpt><trkpt lat="41.18942379997495" lon="14.978445698858035"><ele>216.0</ele><time>2026-03-22T10:07:34Z</time></trkpt><trkpt lat="41.18936249018797" lon="14.978492362720793"><ele>216.0</ele><time>2026-03-22T10:07:36Z</time></trkpt><trkpt lat="41.189269840077216" lon="14.978621846830128"><ele>216.0</ele><time>2026-03-22T10:07:38Z</time></trkpt><trkpt lat="41.189205390324354" lon="14.97876188175075"><ele>216.0</ele><time>2026-03-22T10:07:39Z</time></trkpt><trkpt lat="41.18912336552258" lon="14.978815287087361"><ele>216.0</ele><time>2026-03-22T10:07:41Z</time></trkpt><trkpt lat="41.188988052356294" lon="14.978685658392033"><ele>215.75</ele><time>2026-03-22T10:07:43Z</time></trkpt><trkpt lat="41.18888479907591" lon="14.97862313790043"><ele>215.5</ele><time>2026-03-22T10:07:44Z</time></trkpt><trkpt lat="41.188729851086684" lon="14.978519049576953"><ele>215.25</ele><time>2026-03-22T10:07:45Z</time></trkpt><trkpt lat="41.188602196054745" lon="14.9784165551264"><ele>215.0</ele><time>2026-03-22T10:07:46Z</time></trkpt><trkpt lat="41.18849547263852" lon="14.978327075279276"><ele>215.0</ele><time>2026-03-22T10:07:47Z</time></trkpt><trkpt lat="41.18838881714353" lon="14.97823256589628"><ele>215.0</ele><time>2026-03-22T10:07:48Z</time></trkpt><trkpt lat="41.18829102587215" lon="14.978140820021244"><ele>215.0</ele><time>2026-03-22T10:07:49Z</time></trkpt><trkpt lat="41.188180184909314" lon="14.978037137155559"><ele>215.0</ele><time>2026-03-22T10:07:50Z</time></trkpt><trkpt lat="41.18807236133047" lon="14.977919624968967"><ele>214.75</ele><time>2026-03-22T10:07:51Z</time></trkpt><trkpt lat="41.187974257528985" lon="14.977815229542802"><ele>214.5</ele><time>2026-03-22T10:07:52Z</time></trkpt><trkpt lat="41.187873343545846" lon="14.977718555558914"><ele>214.25</ele><time>2026-03-22T10:07:53Z</time></trkpt><trkpt lat="41.187780969453485" lon="14.977635617171144"><ele>214.0</ele><time>2026-03-22T10:07:54Z</time></trkpt><trkpt lat="41.18768083202965" lon="14.977569962900251"><ele>214.0</ele><time>2026-03-22T10:07:55Z</time></trkpt><trkpt lat="41.187586043863995" lon="14.977526292077622"><ele>214.0</ele><time>2026-03-22T10:07:56Z</time></trkpt><trkpt lat="41.18747922672315" lon="14.977508573202103"><ele>214.0</ele><time>2026-03-22T10:07:57Z</time></trkpt><trkpt lat="41.187340274434014" lon="14.977487674823465"><ele>214.0</ele><time>2026-03-22T10:07:58Z</time></trkpt><trkpt lat="41.1871898548596" lon="14.97744822840154"><ele>213.66666666666666</ele><time>2026-03-22T10:07:59Z</time></trkpt><trkpt lat="41.18702329171677" lon="14.977395697697595"><ele>213.33333333333331</ele><time>2026-03-22T10:08:00Z</time></trkpt><trkpt lat="41.18687215006599" lon="14.977350334415942"><ele>213.0</ele><time>2026-03-22T10:08:01Z</time></trkpt><trkpt lat="41.18673796758339" lon="14.977320565814948"><ele>213.0</ele><time>2026-03-22T10:08:02Z</time></trkpt><trkpt lat="41.186605685998806" lon="14.977297346901992"><ele>213.0</ele><time>2026-03-22T10:08:03Z</time></trkpt><trkpt lat="41.18645593459109" lon="14.977285970560194"><ele>213.0</ele><time>2026-03-22T10:08:04Z</time></trkpt><trkpt lat="41.18629025215292" lon="14.977288025688999"><ele>213.0</ele><time>2026-03-22T10:08:05Z</time></trkpt><trkpt lat="41.1861167072246" lon="14.977298898577866"><ele>213.0</ele><time>2026-03-22T10:08:06Z</time></trkpt><trkpt lat="41.18594601718341" lon="14.977305784944525"><ele>213.0</ele><time>2026-03-22T10:08:07Z</time></trkpt><trkpt lat="41.18579311147364" lon="14.97729934032179"><ele>213.0</ele><time>2026-03-22T10:08:08Z</time></trkpt><trkpt lat="41.18564863114227" lon="14.97727243301192"><ele>212.0</ele><time>2026-03-22T10:08:09Z</time></trkpt><trkpt lat="41.18550580804362" lon="14.977237587655612"><ele>211.0</ele><time>2026-03-22T10:08:10Z</time></trkpt><trkpt lat="41.18537700387264" lon="14.977188605304349"><ele>210.0</ele><time>2026-03-22T10:08:11Z</time></trkpt><trkpt lat="41.18526761737821" lon="14.977115540804885"><ele>209.0</ele><time>2026-03-22T10:08:12Z</time></trkpt><trkpt lat="41.185155780133144" lon="14.977011653099204"><ele>209.0</ele><time>2026-03-22T10:08:13Z</time></trkpt><trkpt lat="41.185038742191914" lon="14.976878623900742"><ele>209.0</ele><time>2026-03-22T10:08:14Z</time></trkpt><trkpt lat="41.18491669012636" lon="14.97673194430104"><ele>209.0</ele><time>2026-03-22T10:08:15Z</time></trkpt><trkpt lat="41.18479944062461" lon="14.976586591080983"><ele>208.75</ele><time>2026-03-22T10:08:16Z</time></trkpt><trkpt lat="41.1846985977475" lon="14.976458950369574"><ele>208.5</ele><time>2026-03-22T10:08:17Z</time></trkpt><trkpt lat="41.184604644291" lon="14.976340629631839"><ele>208.25</ele><time>2026-03-22T10:08:18Z</time></trkpt><trkpt lat="41.18451396674338" lon="14.976225554886154"><ele>208.0</ele><time>2026-03-22T10:08:19Z</time></trkpt><trkpt lat="41.184425920633515" lon="14.976125110127017"><ele>208.0</ele><time>2026-03-22T10:08:20Z</time></trkpt><trkpt lat="41.18431985845094" lon="14.976029964777842"><ele>208.0</ele><time>2026-03-22T10:08:21Z</time></trkpt><trkpt lat="41.18418841399753" lon="14.97592633133738"><ele>208.0</ele><time>2026-03-22T10:08:22Z</time></trkpt><trkpt lat="41.18404773139135" lon="14.975819757502748"><ele>208.0</ele><time>2026-03-22T10:08:23Z</time></trkpt><trkpt lat="41.18388610389751" lon="14.97571292783318"><ele>208.0</ele><time>2026-03-22T10:08:24Z</time></trkpt><trkpt lat="41.18373122329107" lon="14.975612250282483"><ele>208.0</ele><time>2026-03-22T10:08:25Z</time></trkpt><trkpt lat="41.183587909305196" lon="14.975522339816207"><ele>208.0</ele><time>2026-03-22T10:08:26Z</time></trkpt><trkpt lat="41.183442498952914" lon="14.975435718274024"><ele>208.0</ele><time>2026-03-22T10:08:27Z</time></trkpt><trkpt lat="41.18329689121406" lon="14.975352920933325"><ele>208.0</ele><time>2026-03-22T10:08:28Z</time></trkpt><trkpt lat="41.18316104944821" lon="14.97526637825177"><ele>208.0</ele><time>2026-03-22T10:08:29Z</time></trkpt><trkpt lat="41.18303624569396" lon="14.975171891798418"><ele>208.0</ele><time>2026-03-22T10:08:30Z</time></trkpt><trkpt lat="41.18290517948464" lon="14.975063666505973"><ele>208.0</ele><time>2026-03-22T10:08:31Z</time></trkpt><trkpt lat="41.182779300435776" lon="14.974951270587463"><ele>208.0</ele><time>2026-03-22T10:08:32Z</time></trkpt><trkpt lat="41.18264657640853" lon="14.974837349685629"><ele>208.0</ele><time>2026-03-22T10:08:33Z</time></trkpt><trkpt lat="41.18250551045134" lon="14.974720488597741"><ele>208.0</ele><time>2026-03-22T10:08:34Z</time></trkpt><trkpt lat="41.18237194563352" lon="14.974591910820585"><ele>208.0</ele><time>2026-03-22T10:08:35Z</time></trkpt><trkpt lat="41.18224218645352" lon="14.974462529139421"><ele>207.66666666666666</ele><time>2026-03-22T10:08:36Z</time></trkpt><trkpt lat="41.18210860616688" lon="14.974324167325596"><ele>207.33333333333331</ele><time>2026-03-22T10:08:37Z</time></trkpt><trkpt lat="41.181971862933935" lon="14.974183933745664"><ele>207.0</ele><time>2026-03-22T10:08:38Z</time></trkpt><trkpt lat="41.18183326598951" lon="14.974048993060233"><ele>207.0</ele><time>2026-03-22T10:08:39Z</time></trkpt><trkpt lat="41.181705346486915" lon="14.973925097572833"><ele>207.0</ele><time>2026-03-22T10:08:40Z</time></trkpt><trkpt lat="41.181585159674924" lon="14.97381952330281"><ele>207.0</ele><time>2026-03-22T10:08:41Z</time></trkpt><trkpt lat="41.18147013006638" lon="14.973718187565577"><ele>207.0</ele><time>2026-03-22T10:08:42Z</time></trkpt><trkpt lat="41.1813676127588" lon="14.973612020999267"><ele>206.6</ele><time>2026-03-22T10:08:43Z</time></trkpt><trkpt lat="41.181264318489795" lon="14.973513405915268"><ele>206.2</ele><time>2026-03-22T10:08:44Z</time></trkpt><trkpt lat="41.1811757359112" lon="14.973420751988787"><ele>205.8</ele><time>2026-03-22T10:08:45Z</time></trkpt><trkpt lat="41.181110807497525" lon="14.973325843403677"><ele>205.4</ele><time>2026-03-22T10:08:46Z</time></trkpt><trkpt lat="41.18105661265634" lon="14.973203949939347"><ele>205.0</ele><time>2026-03-22T10:08:47Z</time></trkpt><trkpt lat="41.18101649036255" lon="14.973064663083354"><ele>205.0</ele><time>2026-03-22T10:08:48Z</time></trkpt><trkpt lat="41.18098881505601" lon="14.97288728935554"><ele>205.0</ele><time>2026-03-22T10:08:49Z</time></trkpt><trkpt lat="41.180960566685116" lon="14.972677432395496"><ele>205.0</ele><time>2026-03-22T10:08:50Z</time></trkpt><trkpt lat="41.18092425450933" lon="14.972464935622334"><ele>205.33333333333331</ele><time>2026-03-22T10:08:51Z</time></trkpt><trkpt lat="41.18088718318345" lon="14.97226657923802"><ele>205.66666666666669</ele><time>2026-03-22T10:08:52Z</time></trkpt><trkpt lat="41.18084390243725" lon="14.972074922898559"><ele>206.0</ele><time>2026-03-22T10:08:53Z</time></trkpt><trkpt lat="41.1807901705191" lon="14.971869445607997"><ele>206.0</ele><time>2026-03-22T10:08:54Z</time></trkpt><trkpt lat="41.18073128006331" lon="14.971679579212259"><ele>206.0</ele><time>2026-03-22T10:08:55Z</time></trkpt><trkpt lat="41.18065781063528" lon="14.971491635524533"><ele>206.0</ele><time>2026-03-22T10:08:56Z</time></trkpt><trkpt lat="41.18057611205055" lon="14.971311709102014"><ele>206.33333333333334</ele><time>2026-03-22T10:08:57Z</time></trkpt><trkpt lat="41.18050053888452" lon="14.97113454465871"><ele>206.66666666666669</ele><time>2026-03-22T10:08:58Z</time></trkpt><trkpt lat="41.180413164185595" lon="14.9709495353242"><ele>207.0</ele><time>2026-03-22T10:08:59Z</time></trkpt><trkpt lat="41.18030821604944" lon="14.970768496033005"><ele>207.0</ele><time>2026-03-22T10:09:00Z</time></trkpt><trkpt lat="41.180209929608615" lon="14.97059488992745"><ele>207.0</ele><time>2026-03-22T10:09:01Z</time></trkpt><trkpt lat="41.18012678344046" lon="14.970415277353377"><ele>207.0</ele><time>2026-03-22T10:09:02Z</time></trkpt><trkpt lat="41.18005624919183" lon="14.970230822080001"><ele>207.0</ele><time>2026-03-22T10:09:03Z</time></trkpt><trkpt lat="41.17998791190883" lon="14.970046125296356"><ele>207.0</ele><time>2026-03-22T10:09:04Z</time></trkpt><trkpt lat="41.179934921047185" lon="14.969866918659893"><ele>207.0</ele><time>2026-03-22T10:09:05Z</time></trkpt><trkpt lat="41.17988519024466" lon="14.969695772031931"><ele>207.0</ele><time>2026-03-22T10:09:06Z</time></trkpt><trkpt lat="41.17985753622145" lon="14.969503227500072"><ele>217.0</ele><time>2026-03-22T10:09:07Z</time></trkpt><trkpt lat="41.179839306143734" lon="14.96928936183036"><ele>227.0</ele><time>2026-03-22T10:09:08Z</time></trkpt><trkpt lat="41.17982961532676" lon="14.969057585572772"><ele>237.0</ele><time>2026-03-22T10:09:09Z</time></trkpt><trkpt lat="41.17982181051728" lon="14.968829061497184"><ele>237.25</ele><time>2026-03-22T10:09:10Z</time></trkpt><trkpt lat="41.17980818580221" lon="14.968635163732918"><ele>237.5</ele><time>2026-03-22T10:09:11Z</time></trkpt><trkpt lat="41.17980028746792" lon="14.968460185957634"><ele>237.75</ele><time>2026-03-22T10:09:12Z</time></trkpt><trkpt lat="41.179778487963326" lon="14.968291980149681"><ele>238.0</ele><time>2026-03-22T10:09:13Z</time></trkpt><trkpt lat="41.179745978129674" lon="14.96813719436918"><ele>235.25</ele><time>2026-03-22T10:09:14Z</time></trkpt><trkpt lat="41.17970576938172" lon="14.967955433622684"><ele>232.5</ele><time>2026-03-22T10:09:15Z</time></trkpt><trkpt lat="41.179661487155265" lon="14.967767735498487"><ele>229.75</ele><time>2026-03-22T10:09:16Z</time></trkpt><trkpt lat="41.179611784315966" lon="14.967568340496033"><ele>227.0</ele><time>2026-03-22T10:09:17Z</time></trkpt><trkpt lat="41.179569262137285" lon="14.967372339757945"><ele>223.5</ele><time>2026-03-22T10:09:18Z</time></trkpt><trkpt lat="41.179523376560425" lon="14.96719617939727"><ele>220.0</ele><time>2026-03-22T10:09:19Z</time></trkpt><trkpt lat="41.17947087487342" lon="14.967031631289414"><ele>216.5</ele><time>2026-03-22T10:09:20Z</time></trkpt><trkpt lat="41.179408259974245" lon="14.96686586729377"><ele>213.0</ele><time>2026-03-22T10:09:21Z</time></trkpt><trkpt lat="41.17933067115709" lon="14.966695476075461"><ele>210.66666666666669</ele><time>2026-03-22T10:09:22Z</time></trkpt><trkpt lat="41.179238478576565" lon="14.966514219927868"><ele>208.33333333333334</ele><time>2026-03-22T10:09:23Z</time></trkpt><trkpt lat="41.17914949976102" lon="14.96631194520106"><ele>206.0</ele><time>2026-03-22T10:09:24Z</time></trkpt><trkpt lat="41.17907601560207" lon="14.966139248762648"><ele>209.66666666666669</ele><time>2026-03-22T10:09:25Z</time></trkpt><trkpt lat="41.17899975174214" lon="14.965972075640726"><ele>213.33333333333331</ele><time>2026-03-22T10:09:26Z</time></trkpt><trkpt lat="41.17890378242757" lon="14.965805302271244"><ele>217.0</ele><time>2026-03-22T10:09:27Z</time></trkpt><trkpt lat="41.17880484941225" lon="14.96565735808903"><ele>217.0</ele><time>2026-03-22T10:09:28Z</time></trkpt><trkpt lat="41.17870555989904" lon="14.965530196227263"><ele>217.0</ele><time>2026-03-22T10:09:29Z</time></trkpt><trkpt lat="41.17858530780882" lon="14.965414900235434"><ele>217.0</ele><time>2026-03-22T10:09:30Z</time></trkpt><trkpt lat="41.17843024942221" lon="14.96527443656577"><ele>217.0</ele><time>2026-03-22T10:09:31Z</time></trkpt><trkpt lat="41.17826246272881" lon="14.965117362697415"><ele>217.0</ele><time>2026-03-22T10:09:32Z</time></trkpt><trkpt lat="41.178121708533894" lon="14.96498280164426"><ele>217.0</ele><time>2026-03-22T10:09:33Z</time></trkpt><trkpt lat="41.177991084689715" lon="14.964850602390387"><ele>216.33333333333331</ele><time>2026-03-22T10:09:34Z</time></trkpt><trkpt lat="41.17787046002555" lon="14.964713628992682"><ele>215.66666666666669</ele><time>2026-03-22T10:09:35Z</time></trkpt><trkpt lat="41.17776018269676" lon="14.964571499345341"><ele>215.0</ele><time>2026-03-22T10:09:36Z</time></trkpt><trkpt lat="41.177655998741706" lon="14.964429120919306"><ele>215.0</ele><time>2026-03-22T10:09:37Z</time></trkpt><trkpt lat="41.17754736427591" lon="14.964288346040677"><ele>215.0</ele><time>2026-03-22T10:09:38Z</time></trkpt><trkpt lat="41.1774276299184" lon="14.964145588299672"><ele>215.0</ele><time>2026-03-22T10:09:39Z</time></trkpt><trkpt lat="41.17730720803532" lon="14.964016513249389"><ele>213.25</ele><time>2026-03-22T10:09:40Z</time></trkpt><trkpt lat="41.17718711443061" lon="14.963915513693061"><ele>211.5</ele><time>2026-03-22T10:09:41Z</time></trkpt><trkpt lat="41.17705649016214" lon="14.963828504591365"><ele>209.75</ele><time>2026-03-22T10:09:42Z</time></trkpt><trkpt lat="41.176927739005066" lon="14.96376248924403"><ele>208.0</ele><time>2026-03-22T10:09:43Z</time></trkpt><trkpt lat="41.176789078220466" lon="14.963710954017241"><ele>208.0</ele><time>2026-03-22T10:09:44Z</time></trkpt><trkpt lat="41.17662969168098" lon="14.963667562872406"><ele>208.0</ele><time>2026-03-22T10:09:45Z</time></trkpt><trkpt lat="41.17646328653766" lon="14.963630379409523"><ele>208.0</ele><time>2026-03-22T10:09:46Z</time></trkpt><trkpt lat="41.17629161007855" lon="14.96358097564462"><ele>209.0</ele><time>2026-03-22T10:09:47Z</time></trkpt><trkpt lat="41.176130096832566" lon="14.96353518393269"><ele>210.0</ele><time>2026-03-22T10:09:48Z</time></trkpt><trkpt lat="41.17597942396019" lon="14.963492027189062"><ele>211.0</ele><time>2026-03-22T10:09:49Z</time></trkpt><trkpt lat="41.1758332384894" lon="14.963446628540451"><ele>211.0</ele><time>2026-03-22T10:09:50Z</time></trkpt><trkpt lat="41.17569795071702" lon="14.963409145645882"><ele>211.0</ele><time>2026-03-22T10:09:51Z</time></trkpt><trkpt lat="41.175580943642004" lon="14.963385361626372"><ele>211.0</ele><time>2026-03-22T10:09:52Z</time></trkpt><trkpt lat="41.17547266276621" lon="14.96338353571771"><ele>211.0</ele><time>2026-03-22T10:09:53Z</time></trkpt><trkpt lat="41.175355694459704" lon="14.963380308563186"><ele>210.0</ele><time>2026-03-22T10:09:54Z</time></trkpt><trkpt lat="41.17525072915732" lon="14.963389956944033"><ele>209.0</ele><time>2026-03-22T10:09:55Z</time></trkpt><trkpt lat="41.1751533637533" lon="14.96341954649633"><ele>208.0</ele><time>2026-03-22T10:09:56Z</time></trkpt><trkpt lat="41.17506601033549" lon="14.963436196382442"><ele>207.0</ele><time>2026-03-22T10:09:57Z</time></trkpt><trkpt lat="41.17495389325674" lon="14.963419733034952"><ele>206.0</ele><time>2026-03-22T10:09:58Z</time></trkpt><trkpt lat="41.17485672995056" lon="14.96337659902423"><ele>203.0</ele><time>2026-03-22T10:09:59Z</time></trkpt><trkpt lat="41.17475761871677" lon="14.963282210666442"><ele>200.0</ele><time>2026-03-22T10:10:00Z</time></trkpt><trkpt lat="41.17465620612765" lon="14.963160788426952"><ele>197.0</ele><time>2026-03-22T10:10:01Z</time></trkpt><trkpt lat="41.17456746192361" lon="14.963060077940805"><ele>194.0</ele><time>2026-03-22T10:10:02Z</time></trkpt><trkpt lat="41.174468459892594" lon="14.962981855422564"><ele>194.0</ele><time>2026-03-22T10:10:03Z</time></trkpt><trkpt lat="41.174367290765915" lon="14.962935038443229"><ele>194.0</ele><time>2026-03-22T10:10:04Z</time></trkpt><trkpt lat="41.174274042070294" lon="14.96293699622767"><ele>194.0</ele><time>2026-03-22T10:10:05Z</time></trkpt><trkpt lat="41.174175988656906" lon="14.962969080435494"><ele>194.0</ele><time>2026-03-22T10:10:06Z</time></trkpt><trkpt lat="41.17408452557752" lon="14.96303978926718"><ele>194.0</ele><time>2026-03-22T10:10:07Z</time></trkpt><trkpt lat="41.173986317302976" lon="14.963135193330576"><ele>194.0</ele><time>2026-03-22T10:10:08Z</time></trkpt><trkpt lat="41.17386440379252" lon="14.963201709228997"><ele>194.0</ele><time>2026-03-22T10:10:09Z</time></trkpt><trkpt lat="41.17371356779947" lon="14.96325143264605"><ele>194.0</ele><time>2026-03-22T10:10:10Z</time></trkpt><trkpt lat="41.173565346964125" lon="14.963296837831"><ele>194.0</ele><time>2026-03-22T10:10:11Z</time></trkpt><trkpt lat="41.17342597101388" lon="14.963335986114496"><ele>194.0</ele><time>2026-03-22T10:10:12Z</time></trkpt><trkpt lat="41.1733102378371" lon="14.963379918502893"><ele>194.0</ele><time>2026-03-22T10:10:13Z</time></trkpt><trkpt lat="41.17321530689537" lon="14.963407965128987"><ele>194.0</ele><time>2026-03-22T10:10:14Z</time></trkpt><trkpt lat="41.17313678706951" lon="14.963436281530242"><ele>194.0</ele><time>2026-03-22T10:10:15Z</time></trkpt><trkpt lat="41.173031368439915" lon="14.96348398380387"><ele>194.0</ele><time>2026-03-22T10:10:17Z</time></trkpt><trkpt lat="41.17296813072652" lon="14.963496428370284"><ele>194.0</ele><time>2026-03-22T10:10:20Z</time></trkpt><trkpt lat="41.17290490803795" lon="14.963510063236724"><ele>194.0</ele><time>2026-03-22T10:10:32Z</time></trkpt><trkpt lat="41.172830092651935" lon="14.963554392062681"><ele>194.0</ele><time>2026-03-22T10:10:34Z</time></trkpt><trkpt lat="41.172769081281466" lon="14.963649240266138"><ele>194.0</ele><time>2026-03-22T10:10:35Z</time></trkpt><trkpt lat="41.172689840662095" lon="14.963738251305683"><ele>194.0</ele><time>2026-03-22T10:10:36Z</time></trkpt><trkpt lat="41.17258840442923" lon="14.963842209117583"><ele>194.0</ele><time>2026-03-22T10:10:37Z</time></trkpt><trkpt lat="41.172476725359964" lon="14.963976110387271"><ele>194.0</ele><time>2026-03-22T10:10:38Z</time></trkpt><trkpt lat="41.17235526327747" lon="14.96411034897209"><ele>194.0</ele><time>2026-03-22T10:10:39Z</time></trkpt><trkpt lat="41.17225364899419" lon="14.964175212695045"><ele>194.0</ele><time>2026-03-22T10:10:40Z</time></trkpt><trkpt lat="41.1721478494165" lon="14.964202191581132"><ele>194.75</ele><time>2026-03-22T10:10:41Z</time></trkpt><trkpt lat="41.172010432039365" lon="14.964219871224072"><ele>195.5</ele><time>2026-03-22T10:10:42Z</time></trkpt><trkpt lat="41.171867718525085" lon="14.964226685132324"><ele>196.25</ele><time>2026-03-22T10:10:43Z</time></trkpt><trkpt lat="41.17171443042315" lon="14.964216533960718"><ele>197.0</ele><time>2026-03-22T10:10:44Z</time></trkpt><trkpt lat="41.171555988297236" lon="14.964210877511109"><ele>195.66666666666669</ele><time>2026-03-22T10:10:45Z</time></trkpt><trkpt lat="41.17141490215252" lon="14.96420157528107"><ele>194.33333333333331</ele><time>2026-03-22T10:10:46Z</time></trkpt><trkpt lat="41.171261041071396" lon="14.964185329346199"><ele>193.0</ele><time>2026-03-22T10:10:47Z</time></trkpt><trkpt lat="41.17110536632244" lon="14.96416894100628"><ele>192.33333333333331</ele><time>2026-03-22T10:10:48Z</time></trkpt><trkpt lat="41.170957300511795" lon="14.964143076586119"><ele>191.66666666666666</ele><time>2026-03-22T10:10:49Z</time></trkpt><trkpt lat="41.1707964990471" lon="14.964118803085396"><ele>191.0</ele><time>2026-03-22T10:10:50Z</time></trkpt><trkpt lat="41.17063191146479" lon="14.964100163127906"><ele>190.66666666666666</ele><time>2026-03-22T10:10:51Z</time></trkpt><trkpt lat="41.17047386954482" lon="14.964066026625451"><ele>190.33333333333334</ele><time>2026-03-22T10:10:52Z</time></trkpt><trkpt lat="41.170300844048775" lon="14.964030888309631"><ele>190.0</ele><time>2026-03-22T10:10:53Z</time></trkpt><trkpt lat="41.17012954216316" lon="14.964007680807446"><ele>190.0</ele><time>2026-03-22T10:10:54Z</time></trkpt><trkpt lat="41.16994235889146" lon="14.963996439571474"><ele>190.0</ele><time>2026-03-22T10:10:55Z</time></trkpt><trkpt lat="41.16973891558635" lon="14.963992234625454"><ele>190.0</ele><time>2026-03-22T10:10:56Z</time></trkpt><trkpt lat="41.16953391587755" lon="14.963991164841925"><ele>190.0</ele><time>2026-03-22T10:10:57Z</time></trkpt><trkpt lat="41.169354232976936" lon="14.963995959485665"><ele>190.0</ele><time>2026-03-22T10:10:58Z</time></trkpt><trkpt lat="41.16918023728701" lon="14.964013638865753"><ele>190.0</ele><time>2026-03-22T10:10:59Z</time></trkpt><trkpt lat="41.16903116339252" lon="14.964022964046265"><ele>189.66666666666669</ele><time>2026-03-22T10:11:00Z</time></trkpt><trkpt lat="41.16887868354086" lon="14.964044132465341"><ele>189.33333333333334</ele><time>2026-03-22T10:11:01Z</time></trkpt><trkpt lat="41.1687233835733" lon="14.964090285869107"><ele>189.0</ele><time>2026-03-22T10:11:02Z</time></trkpt><trkpt lat="41.168558573203704" lon="14.964148408728127"><ele>189.33333333333334</ele><time>2026-03-22T10:11:03Z</time></trkpt><trkpt lat="41.16839196678474" lon="14.964212868467172"><ele>189.66666666666669</ele><time>2026-03-22T10:11:04Z</time></trkpt><trkpt lat="41.16822144234816" lon="14.964269169500058"><ele>190.0</ele><time>2026-03-22T10:11:05Z</time></trkpt><trkpt lat="41.168063225663545" lon="14.964317171234013"><ele>190.0</ele><time>2026-03-22T10:11:06Z</time></trkpt><trkpt lat="41.16792186081943" lon="14.964324184513906"><ele>190.0</ele><time>2026-03-22T10:11:07Z</time></trkpt><trkpt lat="41.167811922270104" lon="14.964291902665238"><ele>190.0</ele><time>2026-03-22T10:11:08Z</time></trkpt><trkpt lat="41.16771324906698" lon="14.96423768863545"><ele>190.0</ele><time>2026-03-22T10:11:09Z</time></trkpt><trkpt lat="41.167617038485034" lon="14.964180005871517"><ele>189.66666666666669</ele><time>2026-03-22T10:11:10Z</time></trkpt><trkpt lat="41.167524228854056" lon="14.964132500225807"><ele>189.33333333333334</ele><time>2026-03-22T10:11:11Z</time></trkpt><trkpt lat="41.167455243091034" lon="14.964105586076885"><ele>189.0</ele><time>2026-03-22T10:11:12Z</time></trkpt><trkpt lat="41.167363772944356" lon="14.964093323019565"><ele>188.66666666666666</ele><time>2026-03-22T10:11:15Z</time></trkpt><trkpt lat="41.167252765931764" lon="14.964057765908768"><ele>188.33333333333331</ele><time>2026-03-22T10:11:17Z</time></trkpt><trkpt lat="41.16718573198891" lon="14.964032248483992"><ele>188.0</ele><time>2026-03-22T10:11:18Z</time></trkpt><trkpt lat="41.1671021680166" lon="14.963980974690635"><ele>188.0</ele><time>2026-03-22T10:11:19Z</time></trkpt><trkpt lat="41.16701684657324" lon="14.963917932430576"><ele>188.0</ele><time>2026-03-22T10:11:20Z</time></trkpt><trkpt lat="41.16691250776744" lon="14.963861847609081"><ele>188.0</ele><time>2026-03-22T10:11:21Z</time></trkpt><trkpt lat="41.16682275992079" lon="14.963812513219912"><ele>188.0</ele><time>2026-03-22T10:11:22Z</time></trkpt><trkpt lat="41.16671293846651" lon="14.963751960914182"><ele>188.0</ele><time>2026-03-22T10:11:23Z</time></trkpt><trkpt lat="41.16658170458611" lon="14.963683341373772"><ele>188.0</ele><time>2026-03-22T10:11:24Z</time></trkpt><trkpt lat="41.166458728946616" lon="14.963617015336995"><ele>188.0</ele><time>2026-03-22T10:11:25Z</time></trkpt><trkpt lat="41.16636213958582" lon="14.96356916356749"><ele>188.0</ele><time>2026-03-22T10:11:26Z</time></trkpt><trkpt lat="41.16627497242626" lon="14.963530972694508"><ele>188.0</ele><time>2026-03-22T10:11:27Z</time></trkpt><trkpt lat="41.16618176114071" lon="14.963509485959625"><ele>188.0</ele><time>2026-03-22T10:11:28Z</time></trkpt><trkpt lat="41.166074454124214" lon="14.963504015254728"><ele>188.0</ele><time>2026-03-22T10:11:29Z</time></trkpt><trkpt lat="41.16593847007198" lon="14.963514221862638"><ele>188.0</ele><time>2026-03-22T10:11:30Z</time></trkpt><trkpt lat="41.1657953735792" lon="14.963529075001041"><ele>188.0</ele><time>2026-03-22T10:11:31Z</time></trkpt><trkpt lat="41.165647419464364" lon="14.963557686895259"><ele>188.0</ele><time>2026-03-22T10:11:32Z</time></trkpt><trkpt lat="41.165498249670804" lon="14.963579893721619"><ele>188.66666666666666</ele><time>2026-03-22T10:11:33Z</time></trkpt><trkpt lat="41.16535619878707" lon="14.963587287084158"><ele>189.33333333333334</ele><time>2026-03-22T10:11:34Z</time></trkpt><trkpt lat="41.16520558625427" lon="14.963585203979584"><ele>190.0</ele><time>2026-03-22T10:11:35Z</time></trkpt><trkpt lat="41.165047546206935" lon="14.963567323908729"><ele>190.0</ele><time>2026-03-22T10:11:36Z</time></trkpt><trkpt lat="41.16489686682876" lon="14.963546399754868"><ele>190.0</ele><time>2026-03-22T10:11:37Z</time></trkpt><trkpt lat="41.16475957991526" lon="14.96350802857922"><ele>190.0</ele><time>2026-03-22T10:11:38Z</time></trkpt><trkpt lat="41.16462075865411" lon="14.96348033325074"><ele>190.0</ele><time>2026-03-22T10:11:39Z</time></trkpt><trkpt lat="41.16448431080155" lon="14.963428676207327"><ele>189.0</ele><time>2026-03-22T10:11:40Z</time></trkpt><trkpt lat="41.16434072936801" lon="14.963345681289661"><ele>188.0</ele><time>2026-03-22T10:11:41Z</time></trkpt><trkpt lat="41.16417163113236" lon="14.963251741846975"><ele>187.0</ele><time>2026-03-22T10:11:42Z</time></trkpt><trkpt lat="41.16402248793112" lon="14.963176052505881"><ele>187.0</ele><time>2026-03-22T10:11:43Z</time></trkpt><trkpt lat="41.16387259202171" lon="14.963105537210744"><ele>187.0</ele><time>2026-03-22T10:11:44Z</time></trkpt><trkpt lat="41.16373081510903" lon="14.963026886454015"><ele>187.0</ele><time>2026-03-22T10:11:45Z</time></trkpt><trkpt lat="41.163596873862296" lon="14.962936978316641"><ele>187.0</ele><time>2026-03-22T10:11:46Z</time></trkpt><trkpt lat="41.163461745756656" lon="14.96282673595187"><ele>187.0</ele><time>2026-03-22T10:11:47Z</time></trkpt><trkpt lat="41.16332694150514" lon="14.96270159225446"><ele>187.0</ele><time>2026-03-22T10:11:48Z</time></trkpt><trkpt lat="41.163199414953375" lon="14.962567989110763"><ele>185.66666666666669</ele><time>2026-03-22T10:11:49Z</time></trkpt><trkpt lat="41.1630691400354" lon="14.96243010973942"><ele>184.33333333333334</ele><time>2026-03-22T10:11:50Z</time></trkpt><trkpt lat="41.16294100959277" lon="14.962305559440281"><ele>183.0</ele><time>2026-03-22T10:11:51Z</time></trkpt><trkpt lat="41.16280431294465" lon="14.962193975332161"><ele>183.0</ele><time>2026-03-22T10:11:52Z</time></trkpt><trkpt lat="41.1626498875048" lon="14.962082009304563"><ele>183.0</ele><time>2026-03-22T10:11:53Z</time></trkpt><trkpt lat="41.16249532135633" lon="14.961969944316161"><ele>183.0</ele><time>2026-03-22T10:11:54Z</time></trkpt><trkpt lat="41.16238380501499" lon="14.961889225230626"><ele>183.0</ele><time>2026-03-22T10:11:55Z</time></trkpt><trkpt lat="41.16228771749527" lon="14.961831997670842"><ele>183.0</ele><time>2026-03-22T10:11:56Z</time></trkpt><trkpt lat="41.16218976723314" lon="14.96176878269499"><ele>183.0</ele><time>2026-03-22T10:11:57Z</time></trkpt><trkpt lat="41.162081086057746" lon="14.96170967630627"><ele>183.0</ele><time>2026-03-22T10:11:58Z</time></trkpt><trkpt lat="41.161944626743505" lon="14.961669008085213"><ele>183.0</ele><time>2026-03-22T10:11:59Z</time></trkpt><trkpt lat="41.16178375231695" lon="14.96165736468055"><ele>183.0</ele><time>2026-03-22T10:12:00Z</time></trkpt><trkpt lat="41.16160081363489" lon="14.961651252782064"><ele>183.0</ele><time>2026-03-22T10:12:01Z</time></trkpt><trkpt lat="41.16142010178586" lon="14.961601286653956"><ele>183.0</ele><time>2026-03-22T10:12:02Z</time></trkpt><trkpt lat="41.16125518271771" lon="14.961584509135104"><ele>183.0</ele><time>2026-03-22T10:12:03Z</time></trkpt><trkpt lat="41.161108205360854" lon="14.961568988887139"><ele>183.0</ele><time>2026-03-22T10:12:04Z</time></trkpt><trkpt lat="41.16096024854901" lon="14.96155720851122"><ele>183.0</ele><time>2026-03-22T10:12:05Z</time></trkpt><trkpt lat="41.16080949170514" lon="14.961497227601686"><ele>183.0</ele><time>2026-03-22T10:12:06Z</time></trkpt><trkpt lat="41.16067326408502" lon="14.961421129689874"><ele>183.0</ele><time>2026-03-22T10:12:07Z</time></trkpt><trkpt lat="41.16053999721627" lon="14.961335090679077"><ele>182.66666666666666</ele><time>2026-03-22T10:12:08Z</time></trkpt><trkpt lat="41.16041548910248" lon="14.9612394695784"><ele>182.33333333333331</ele><time>2026-03-22T10:12:09Z</time></trkpt><trkpt lat="41.16027804540307" lon="14.96110758977577"><ele>182.0</ele><time>2026-03-22T10:12:10Z</time></trkpt><trkpt lat="41.160152479298624" lon="14.96100694608893"><ele>182.0</ele><time>2026-03-22T10:12:11Z</time></trkpt><trkpt lat="41.16003598585333" lon="14.96091357417255"><ele>182.0</ele><time>2026-03-22T10:12:12Z</time></trkpt><trkpt lat="41.15992083937849" lon="14.960850088080354"><ele>182.0</ele><time>2026-03-22T10:12:13Z</time></trkpt><trkpt lat="41.15980968303363" lon="14.960776793995878"><ele>182.0</ele><time>2026-03-22T10:12:14Z</time></trkpt><trkpt lat="41.1596868036669" lon="14.960720735613897"><ele>181.5</ele><time>2026-03-22T10:12:15Z</time></trkpt><trkpt lat="41.159568616229784" lon="14.960672323616334"><ele>181.0</ele><time>2026-03-22T10:12:16Z</time></trkpt><trkpt lat="41.15946876913675" lon="14.960604760163768"><ele>180.5</ele><time>2026-03-22T10:12:17Z</time></trkpt><trkpt lat="41.15939131009712" lon="14.960515946182145"><ele>180.0</ele><time>2026-03-22T10:12:18Z</time></trkpt><trkpt lat="41.15931378978481" lon="14.960400045194179"><ele>180.0</ele><time>2026-03-22T10:12:19Z</time></trkpt><trkpt lat="41.15921337418833" lon="14.960269985357112"><ele>180.0</ele><time>2026-03-22T10:12:20Z</time></trkpt><trkpt lat="41.15910466115388" lon="14.960132480892023"><ele>180.0</ele><time>2026-03-22T10:12:21Z</time></trkpt><trkpt lat="41.15900836963136" lon="14.95999904127126"><ele>180.0</ele><time>2026-03-22T10:12:22Z</time></trkpt><trkpt lat="41.15891885234969" lon="14.959881927341554"><ele>179.75</ele><time>2026-03-22T10:12:23Z</time></trkpt><trkpt lat="41.1588250963307" lon="14.959766974028268"><ele>179.5</ele><time>2026-03-22T10:12:24Z</time></trkpt><trkpt lat="41.158718203227664" lon="14.959665772934747"><ele>179.25</ele><time>2026-03-22T10:12:25Z</time></trkpt><trkpt lat="41.158593862908376" lon="14.959583654889107"><ele>179.0</ele><time>2026-03-22T10:12:26Z</time></trkpt><trkpt lat="41.15845019782608" lon="14.959510442314757"><ele>179.0</ele><time>2026-03-22T10:12:27Z</time></trkpt><trkpt lat="41.15829018756491" lon="14.95941876133009"><ele>179.0</ele><time>2026-03-22T10:12:28Z</time></trkpt><trkpt lat="41.158125081294294" lon="14.959337902564464"><ele>179.0</ele><time>2026-03-22T10:12:29Z</time></trkpt><trkpt lat="41.15798049576919" lon="14.959257151046048"><ele>178.75</ele><time>2026-03-22T10:12:30Z</time></trkpt><trkpt lat="41.157849719026444" lon="14.959178426075594"><ele>178.5</ele><time>2026-03-22T10:12:31Z</time></trkpt><trkpt lat="41.157722365200364" lon="14.959097524078457"><ele>178.25</ele><time>2026-03-22T10:12:32Z</time></trkpt><trkpt lat="41.157578294557204" lon="14.959027572248575"><ele>178.0</ele><time>2026-03-22T10:12:33Z</time></trkpt><trkpt lat="41.1574347825528" lon="14.95890871283131"><ele>178.25</ele><time>2026-03-22T10:12:34Z</time></trkpt><trkpt lat="41.157309602946015" lon="14.958839904648597"><ele>178.5</ele><time>2026-03-22T10:12:35Z</time></trkpt><trkpt lat="41.157167398787315" lon="14.958762234068168"><ele>178.75</ele><time>2026-03-22T10:12:36Z</time></trkpt><trkpt lat="41.15701985950653" lon="14.958702226164185"><ele>179.0</ele><time>2026-03-22T10:12:37Z</time></trkpt><trkpt lat="41.156888777452586" lon="14.958626958127393"><ele>179.0</ele><time>2026-03-22T10:12:38Z</time></trkpt><trkpt lat="41.15675294305395" lon="14.958556523764369"><ele>179.0</ele><time>2026-03-22T10:12:39Z</time></trkpt><trkpt lat="41.156613859644295" lon="14.95846811840358"><ele>179.0</ele><time>2026-03-22T10:12:40Z</time></trkpt><trkpt lat="41.1564911180328" lon="14.958376895231163"><ele>179.0</ele><time>2026-03-22T10:12:41Z</time></trkpt><trkpt lat="41.156387183457895" lon="14.958308301403564"><ele>178.25</ele><time>2026-03-22T10:12:42Z</time></trkpt><trkpt lat="41.15627916980346" lon="14.958259127151555"><ele>177.5</ele><time>2026-03-22T10:12:43Z</time></trkpt><trkpt lat="41.15615196088989" lon="14.958220598164631"><ele>176.75</ele><time>2026-03-22T10:12:44Z</time></trkpt><trkpt lat="41.15602193378485" lon="14.958204285837784"><ele>176.0</ele><time>2026-03-22T10:12:45Z</time></trkpt><trkpt lat="41.155897795470786" lon="14.958227872783755"><ele>176.0</ele><time>2026-03-22T10:12:46Z</time></trkpt><trkpt lat="41.15576552787696" lon="14.958252976529225"><ele>176.0</ele><time>2026-03-22T10:12:47Z</time></trkpt><trkpt lat="41.15563525815436" lon="14.958300793421024"><ele>176.0</ele><time>2026-03-22T10:12:48Z</time></trkpt><trkpt lat="41.15551792080669" lon="14.958305963450288"><ele>176.0</ele><time>2026-03-22T10:12:49Z</time></trkpt><trkpt lat="41.15541060871119" lon="14.958314847837665"><ele>176.0</ele><time>2026-03-22T10:12:50Z</time></trkpt><trkpt lat="41.15530305297924" lon="14.958325559364232"><ele>176.0</ele><time>2026-03-22T10:12:51Z</time></trkpt><trkpt lat="41.155198242621566" lon="14.958351239850662"><ele>176.0</ele><time>2026-03-22T10:12:52Z</time></trkpt><trkpt lat="41.15508739186366" lon="14.958390368420726"><ele>176.0</ele><time>2026-03-22T10:12:53Z</time></trkpt><trkpt lat="41.154976464584294" lon="14.958432364858124"><ele>176.0</ele><time>2026-03-22T10:12:54Z</time></trkpt><trkpt lat="41.15485080792667" lon="14.95848405157243"><ele>176.0</ele><time>2026-03-22T10:12:55Z</time></trkpt><trkpt lat="41.15471789720356" lon="14.958539305507557"><ele>176.0</ele><time>2026-03-22T10:12:56Z</time></trkpt><trkpt lat="41.1545817092316" lon="14.958593864163435"><ele>176.0</ele><time>2026-03-22T10:12:57Z</time></trkpt><trkpt lat="41.15444680507159" lon="14.958640465869511"><ele>176.0</ele><time>2026-03-22T10:12:58Z</time></trkpt><trkpt lat="41.15432256972149" lon="14.95869738338453"><ele>176.0</ele><time>2026-03-22T10:12:59Z</time></trkpt><trkpt lat="41.154188784074584" lon="14.958714674093631"><ele>176.0</ele><time>2026-03-22T10:13:00Z</time></trkpt><trkpt lat="41.15404459663371" lon="14.958721199035889"><ele>176.0</ele><time>2026-03-22T10:13:01Z</time></trkpt><trkpt lat="41.15389538907795" lon="14.95872221837732"><ele>176.0</ele><time>2026-03-22T10:13:02Z</time></trkpt><trkpt lat="41.15374953663964" lon="14.958723629123172"><ele>175.0</ele><time>2026-03-22T10:13:03Z</time></trkpt><trkpt lat="41.1536027344141" lon="14.958701048175547"><ele>174.0</ele><time>2026-03-22T10:13:04Z</time></trkpt><trkpt lat="41.15346687581354" lon="14.958719769254484"><ele>173.0</ele><time>2026-03-22T10:13:05Z</time></trkpt><trkpt lat="41.153343517899586" lon="14.958780768329282"><ele>172.0</ele><time>2026-03-22T10:13:06Z</time></trkpt><trkpt lat="41.15321489974229" lon="14.958792718806732"><ele>172.0</ele><time>2026-03-22T10:13:07Z</time></trkpt><trkpt lat="41.153090313833964" lon="14.95877974327207"><ele>172.0</ele><time>2026-03-22T10:13:08Z</time></trkpt><trkpt lat="41.15295857031838" lon="14.958777188925175"><ele>172.0</ele><time>2026-03-22T10:13:09Z</time></trkpt><trkpt lat="41.15282039162366" lon="14.958782827328617"><ele>172.0</ele><time>2026-03-22T10:13:10Z</time></trkpt><trkpt lat="41.152678511534845" lon="14.958811139015435"><ele>172.0</ele><time>2026-03-22T10:13:11Z</time></trkpt><trkpt lat="41.15253725116842" lon="14.958858043221898"><ele>172.0</ele><time>2026-03-22T10:13:12Z</time></trkpt><trkpt lat="41.15239340073658" lon="14.958921071430698"><ele>172.0</ele><time>2026-03-22T10:13:13Z</time></trkpt><trkpt lat="41.15225133547311" lon="14.959006564774187"><ele>172.0</ele><time>2026-03-22T10:13:14Z</time></trkpt><trkpt lat="41.15213349615332" lon="14.959126051861253"><ele>172.0</ele><time>2026-03-22T10:13:15Z</time></trkpt><trkpt lat="41.152005989717004" lon="14.959242106878166"><ele>172.0</ele><time>2026-03-22T10:13:16Z</time></trkpt><trkpt lat="41.151873212099424" lon="14.959292564105336"><ele>172.0</ele><time>2026-03-22T10:13:17Z</time></trkpt><trkpt lat="41.15175488700833" lon="14.95935159718506"><ele>172.0</ele><time>2026-03-22T10:13:18Z</time></trkpt><trkpt lat="41.15163806665608" lon="14.959412467305432"><ele>172.0</ele><time>2026-03-22T10:13:19Z</time></trkpt><trkpt lat="41.151518270716245" lon="14.959476639649488"><ele>172.0</ele><time>2026-03-22T10:13:20Z</time></trkpt><trkpt lat="41.15141031840497" lon="14.959534467610268"><ele>172.0</ele><time>2026-03-22T10:13:21Z</time></trkpt><trkpt lat="41.15134066656797" lon="14.95957177874715"><ele>172.0</ele><time>2026-03-22T10:13:22Z</time></trkpt><trkpt lat="41.15125425434092" lon="14.959618067973324"><ele>172.0</ele><time>2026-03-22T10:13:24Z</time></trkpt><trkpt lat="41.15119648475455" lon="14.959708630544041"><ele>172.0</ele><time>2026-03-22T10:13:26Z</time></trkpt><trkpt lat="41.1511428146284" lon="14.959779693965404"><ele>172.0</ele><time>2026-03-22T10:13:48Z</time></trkpt><trkpt lat="41.151142059802964" lon="14.959892570907865"><ele>172.0</ele><time>2026-03-22T10:13:52Z</time></trkpt><trkpt lat="41.15115459184831" lon="14.960023643936118"><ele>172.0</ele><time>2026-03-22T10:13:59Z</time></trkpt><trkpt lat="41.15116035750063" lon="14.96015972691531"><ele>172.6</ele><time>2026-03-22T10:14:01Z</time></trkpt><trkpt lat="41.15116807147567" lon="14.960263879282177"><ele>173.2</ele><time>2026-03-22T10:14:02Z</time></trkpt><trkpt lat="41.15112429168138" lon="14.960397474009529"><ele>173.8</ele><time>2026-03-22T10:14:03Z</time></trkpt><trkpt lat="41.15113865372363" lon="14.960539742154396"><ele>174.4</ele><time>2026-03-22T10:14:04Z</time></trkpt><trkpt lat="41.15115483576543" lon="14.960700038928653"><ele>175.0</ele><time>2026-03-22T10:14:05Z</time></trkpt><trkpt lat="41.15117211150623" lon="14.96087116975044"><ele>175.0</ele><time>2026-03-22T10:14:06Z</time></trkpt><trkpt lat="41.15119044536378" lon="14.96106235866752"><ele>175.0</ele><time>2026-03-22T10:14:07Z</time></trkpt><trkpt lat="41.15120913523049" lon="14.9612662008258"><ele>175.0</ele><time>2026-03-22T10:14:08Z</time></trkpt><trkpt lat="41.151229086397734" lon="14.96148379956566"><ele>175.0</ele><time>2026-03-22T10:14:09Z</time></trkpt><trkpt lat="41.15124815020802" lon="14.961691720152219"><ele>175.0</ele><time>2026-03-22T10:14:10Z</time></trkpt><trkpt lat="41.1512655246059" lon="14.961881215093214"><ele>175.0</ele><time>2026-03-22T10:14:11Z</time></trkpt><trkpt lat="41.15128203207145" lon="14.96205358592153"><ele>175.0</ele><time>2026-03-22T10:14:12Z</time></trkpt><trkpt lat="41.15129814387696" lon="14.962218337569107"><ele>175.0</ele><time>2026-03-22T10:14:13Z</time></trkpt><trkpt lat="41.1513131495502" lon="14.962371778387414"><ele>175.0</ele><time>2026-03-22T10:14:14Z</time></trkpt><trkpt lat="41.15132698386579" lon="14.962513241509695"><ele>175.0</ele><time>2026-03-22T10:14:15Z</time></trkpt><trkpt lat="41.15134001856247" lon="14.962646528108932"><ele>175.0</ele><time>2026-03-22T10:14:16Z</time></trkpt><trkpt lat="41.15135285746692" lon="14.96277781256523"><ele>175.0</ele><time>2026-03-22T10:14:17Z</time></trkpt><trkpt lat="41.15136654416366" lon="14.96291776581814"><ele>175.0</ele><time>2026-03-22T10:14:18Z</time></trkpt><trkpt lat="41.15138072218434" lon="14.963062114267926"><ele>175.0</ele><time>2026-03-22T10:14:19Z</time></trkpt><trkpt lat="41.15139458269511" lon="14.963203387025334"><ele>175.0</ele><time>2026-03-22T10:14:20Z</time></trkpt><trkpt lat="41.1514084539654" lon="14.963344769387515"><ele>175.0</ele><time>2026-03-22T10:14:21Z</time></trkpt><trkpt lat="41.15142239259249" lon="14.963489263292475"><ele>175.0</ele><time>2026-03-22T10:14:22Z</time></trkpt><trkpt lat="41.15143458160678" lon="14.963616365007194"><ele>175.2</ele><time>2026-03-22T10:14:23Z</time></trkpt><trkpt lat="41.151447407419845" lon="14.963750106960036"><ele>175.4</ele><time>2026-03-22T10:14:24Z</time></trkpt><trkpt lat="41.15146002108997" lon="14.963881636780624"><ele>175.60000000000002</ele><time>2026-03-22T10:14:25Z</time></trkpt><trkpt lat="41.15147339084645" lon="14.964019278168147"><ele>175.8</ele><time>2026-03-22T10:14:26Z</time></trkpt><trkpt lat="41.15148983238693" lon="14.964184537235509"><ele>176.0</ele><time>2026-03-22T10:14:27Z</time></trkpt><trkpt lat="41.15150654918619" lon="14.964352563008717"><ele>176.33333333333331</ele><time>2026-03-22T10:14:28Z</time></trkpt><trkpt lat="41.15152423294167" lon="14.96453030797091"><ele>176.66666666666666</ele><time>2026-03-22T10:14:29Z</time></trkpt><trkpt lat="41.15154379620533" lon="14.964726944468726"><ele>177.0</ele><time>2026-03-22T10:14:30Z</time></trkpt><trkpt lat="41.15156466831209" lon="14.964948977095334"><ele>178.33333333333334</ele><time>2026-03-22T10:14:31Z</time></trkpt><trkpt lat="41.151588511890466" lon="14.965212566569626"><ele>179.66666666666669</ele><time>2026-03-22T10:14:32Z</time></trkpt><trkpt lat="41.151609288725275" lon="14.965447518408693"><ele>181.0</ele><time>2026-03-22T10:14:33Z</time></trkpt><trkpt lat="41.15162805963825" lon="14.965663750308556"><ele>181.0</ele><time>2026-03-22T10:14:34Z</time></trkpt><trkpt lat="41.15164238017169" lon="14.965845627473946"><ele>181.0</ele><time>2026-03-22T10:14:35Z</time></trkpt><trkpt lat="41.1516528997219" lon="14.966007392867162"><ele>181.0</ele><time>2026-03-22T10:14:36Z</time></trkpt><trkpt lat="41.151667196134184" lon="14.96614548341247"><ele>181.0</ele><time>2026-03-22T10:14:37Z</time></trkpt><trkpt lat="41.151693825393515" lon="14.966269767590218"><ele>180.75</ele><time>2026-03-22T10:14:38Z</time></trkpt><trkpt lat="41.15173802946876" lon="14.966392196683254"><ele>180.5</ele><time>2026-03-22T10:14:39Z</time></trkpt><trkpt lat="41.151814919312336" lon="14.966496292767868"><ele>180.25</ele><time>2026-03-22T10:14:40Z</time></trkpt><trkpt lat="41.151909043002185" lon="14.966608959615428"><ele>180.0</ele><time>2026-03-22T10:14:41Z</time></trkpt><trkpt lat="41.15201978534917" lon="14.966725958474052"><ele>180.0</ele><time>2026-03-22T10:14:42Z</time></trkpt><trkpt lat="41.152084624398704" lon="14.966889544765564"><ele>180.0</ele><time>2026-03-22T10:14:43Z</time></trkpt><trkpt lat="41.15213031591486" lon="14.966955974336638"><ele>180.0</ele><time>2026-03-22T10:14:44Z</time></trkpt><trkpt lat="41.15217345725731" lon="14.967084500147504"><ele>180.0</ele><time>2026-03-22T10:14:46Z</time></trkpt><trkpt lat="41.152129254602336" lon="14.967239904306236"><ele>180.0</ele><time>2026-03-22T10:14:48Z</time></trkpt><trkpt lat="41.15210865771074" lon="14.967360212406453"><ele>180.0</ele><time>2026-03-22T10:14:49Z</time></trkpt><trkpt lat="41.15204533636037" lon="14.967487736939674"><ele>180.0</ele><time>2026-03-22T10:14:50Z</time></trkpt><trkpt lat="41.152016653389026" lon="14.967645024655038"><ele>180.0</ele><time>2026-03-22T10:14:51Z</time></trkpt><trkpt lat="41.151986629145775" lon="14.967817112654558"><ele>180.0</ele><time>2026-03-22T10:14:52Z</time></trkpt><trkpt lat="41.151958316037884" lon="14.96797079251819"><ele>180.4</ele><time>2026-03-22T10:14:53Z</time></trkpt><trkpt lat="41.15192295777693" lon="14.968094596234744"><ele>180.8</ele><time>2026-03-22T10:14:54Z</time></trkpt><trkpt lat="41.15188068419609" lon="14.968223662639733"><ele>181.2</ele><time>2026-03-22T10:14:55Z</time></trkpt><trkpt lat="41.1518409639337" lon="14.968346384885118"><ele>181.6</ele><time>2026-03-22T10:14:56Z</time></trkpt><trkpt lat="41.15180996494117" lon="14.968450955057898"><ele>182.0</ele><time>2026-03-22T10:14:57Z</time></trkpt><trkpt lat="41.15178074462637" lon="14.968558462018628"><ele>181.39999999999998</ele><time>2026-03-22T10:14:58Z</time></trkpt><trkpt lat="41.15175242024641" lon="14.968665520669736"><ele>180.79999999999998</ele><time>2026-03-22T10:14:59Z</time></trkpt><trkpt lat="41.15171514820243" lon="14.968787006412766"><ele>180.2</ele><time>2026-03-22T10:15:00Z</time></trkpt><trkpt lat="41.15166702985969" lon="14.968895328672435"><ele>179.6</ele><time>2026-03-22T10:15:01Z</time></trkpt><trkpt lat="41.15160930191324" lon="14.968987081858376"><ele>179.0</ele><time>2026-03-22T10:15:02Z</time></trkpt><trkpt lat="41.15153076364794" lon="14.969070162468201"><ele>179.0</ele><time>2026-03-22T10:15:03Z</time></trkpt><trkpt lat="41.151438180408704" lon="14.969164275424125"><ele>179.0</ele><time>2026-03-22T10:15:04Z</time></trkpt><trkpt lat="41.15133528777129" lon="14.969271191853599"><ele>179.0</ele><time>2026-03-22T10:15:05Z</time></trkpt><trkpt lat="41.151231042522376" lon="14.969388798838105"><ele>179.0</ele><time>2026-03-22T10:15:06Z</time></trkpt><trkpt lat="41.15113777785204" lon="14.969501090203899"><ele>179.75</ele><time>2026-03-22T10:15:07Z</time></trkpt><trkpt lat="41.151042747956595" lon="14.969625832991104"><ele>180.5</ele><time>2026-03-22T10:15:08Z</time></trkpt><trkpt lat="41.15095077603453" lon="14.969756039847455"><ele>181.25</ele><time>2026-03-22T10:15:09Z</time></trkpt><trkpt lat="41.15085829502988" lon="14.969888423972982"><ele>182.0</ele><time>2026-03-22T10:15:10Z</time></trkpt><trkpt lat="41.150772056287195" lon="14.970011872478656"><ele>181.5</ele><time>2026-03-22T10:15:11Z</time></trkpt><trkpt lat="41.15068992595693" lon="14.970128245415346"><ele>181.0</ele><time>2026-03-22T10:15:12Z</time></trkpt><trkpt lat="41.15060713877145" lon="14.970238427289539"><ele>180.5</ele><time>2026-03-22T10:15:13Z</time></trkpt><trkpt lat="41.15052007737816" lon="14.970338908647898"><ele>180.0</ele><time>2026-03-22T10:15:14Z</time></trkpt><trkpt lat="41.1504305270876" lon="14.970427978853113"><ele>180.0</ele><time>2026-03-22T10:15:15Z</time></trkpt><trkpt lat="41.15034072228722" lon="14.970522370695877"><ele>180.0</ele><time>2026-03-22T10:15:16Z</time></trkpt><trkpt lat="41.15025402254025" lon="14.970626095864972"><ele>180.0</ele><time>2026-03-22T10:15:17Z</time></trkpt><trkpt lat="41.15018058541687" lon="14.970741450197876"><ele>180.0</ele><time>2026-03-22T10:15:18Z</time></trkpt><trkpt lat="41.150103577896374" lon="14.970850954115853"><ele>180.0</ele><time>2026-03-22T10:15:19Z</time></trkpt><trkpt lat="41.15005615937984" lon="14.970932972991157"><ele>180.0</ele><time>2026-03-22T10:15:20Z</time></trkpt><trkpt lat="41.150010624950525" lon="14.971040484048237"><ele>180.0</ele><time>2026-03-22T10:15:21Z</time></trkpt><trkpt lat="41.14998835387547" lon="14.971131435283294"><ele>180.0</ele><time>2026-03-22T10:15:22Z</time></trkpt><trkpt lat="41.14997161752628" lon="14.971257712296484"><ele>180.0</ele><time>2026-03-22T10:15:24Z</time></trkpt><trkpt lat="41.149948932646666" lon="14.971336717747713"><ele>180.0</ele><time>2026-03-22T10:15:29Z</time></trkpt><trkpt lat="41.15008176621616" lon="14.971515524448204"><ele>180.0</ele><time>2026-03-22T10:15:31Z</time></trkpt><trkpt lat="41.150150145651644" lon="14.971575664698697"><ele>180.0</ele><time>2026-03-22T10:15:32Z</time></trkpt><trkpt lat="41.15023912269659" lon="14.97165392075082"><ele>180.0</ele><time>2026-03-22T10:15:33Z</time></trkpt><trkpt lat="41.150345500787026" lon="14.971747481130201"><ele>180.0</ele><time>2026-03-22T10:15:34Z</time></trkpt><trkpt lat="41.15047937974627" lon="14.97186522878992"><ele>180.0</ele><time>2026-03-22T10:15:35Z</time></trkpt><trkpt lat="41.150627282179" lon="14.971997859438012"><ele>180.0</ele><time>2026-03-22T10:15:36Z</time></trkpt><trkpt lat="41.150772784282196" lon="14.972134417469995"><ele>180.0</ele><time>2026-03-22T10:15:37Z</time></trkpt><trkpt lat="41.15088534325096" lon="14.972248961106168"><ele>180.0</ele><time>2026-03-22T10:15:38Z</time></trkpt><trkpt lat="41.150989934934074" lon="14.972367025091327"><ele>180.0</ele><time>2026-03-22T10:15:39Z</time></trkpt><trkpt lat="41.151084400168855" lon="14.972489414602354"><ele>180.0</ele><time>2026-03-22T10:15:40Z</time></trkpt><trkpt lat="41.151170271223826" lon="14.972613479263996"><ele>180.0</ele><time>2026-03-22T10:15:41Z</time></trkpt><trkpt lat="41.15124956539072" lon="14.972738179358398"><ele>179.75</ele><time>2026-03-22T10:15:42Z</time></trkpt><trkpt lat="41.15132669288719" lon="14.972867106473668"><ele>179.5</ele><time>2026-03-22T10:15:43Z</time></trkpt><trkpt lat="41.1514002094411" lon="14.973000426789797"><ele>179.25</ele><time>2026-03-22T10:15:44Z</time></trkpt><trkpt lat="41.151473503209296" lon="14.973144207851119"><ele>179.0</ele><time>2026-03-22T10:15:45Z</time></trkpt><trkpt lat="41.15154339948537" lon="14.973292376735346"><ele>180.5</ele><time>2026-03-22T10:15:46Z</time></trkpt><trkpt lat="41.151609081244786" lon="14.973445403402831"><ele>182.0</ele><time>2026-03-22T10:15:47Z</time></trkpt><trkpt lat="41.15167097974315" lon="14.973602083667538"><ele>183.5</ele><time>2026-03-22T10:15:48Z</time></trkpt><trkpt lat="41.151728733480645" lon="14.973774268578358"><ele>185.0</ele><time>2026-03-22T10:15:49Z</time></trkpt><trkpt lat="41.15177797351712" lon="14.973973455314383"><ele>185.0</ele><time>2026-03-22T10:15:50Z</time></trkpt><trkpt lat="41.15182216400386" lon="14.974175692385291"><ele>185.0</ele><time>2026-03-22T10:15:51Z</time></trkpt><trkpt lat="41.15186262600541" lon="14.974364456167024"><ele>185.0</ele><time>2026-03-22T10:15:52Z</time></trkpt><trkpt lat="41.151903232678094" lon="14.974560158332253"><ele>184.5</ele><time>2026-03-22T10:15:53Z</time></trkpt><trkpt lat="41.15194405612093" lon="14.974754262768561"><ele>184.0</ele><time>2026-03-22T10:15:54Z</time></trkpt><trkpt lat="41.15198398851562" lon="14.974940521741457"><ele>183.5</ele><time>2026-03-22T10:15:55Z</time></trkpt><trkpt lat="41.15202349917164" lon="14.975121141938155"><ele>183.0</ele><time>2026-03-22T10:15:56Z</time></trkpt><trkpt lat="41.15206257104208" lon="14.975300450863475"><ele>182.75</ele><time>2026-03-22T10:15:57Z</time></trkpt><trkpt lat="41.15209792611553" lon="14.97546890220391"><ele>182.5</ele><time>2026-03-22T10:15:58Z</time></trkpt><trkpt lat="41.15213264722913" lon="14.975634333005235"><ele>182.25</ele><time>2026-03-22T10:15:59Z</time></trkpt><trkpt lat="41.152166285518945" lon="14.97579460462962"><ele>182.0</ele><time>2026-03-22T10:16:00Z</time></trkpt><trkpt lat="41.15220137737429" lon="14.975962518551901"><ele>181.25</ele><time>2026-03-22T10:16:01Z</time></trkpt><trkpt lat="41.152233866758266" lon="14.97611836347249"><ele>180.5</ele><time>2026-03-22T10:16:02Z</time></trkpt><trkpt lat="41.15226722849916" lon="14.976278392870817"><ele>179.75</ele><time>2026-03-22T10:16:03Z</time></trkpt><trkpt lat="41.15230552694217" lon="14.976462102760154"><ele>179.0</ele><time>2026-03-22T10:16:04Z</time></trkpt><trkpt lat="41.15234104000324" lon="14.976637769699634"><ele>179.75</ele><time>2026-03-22T10:16:05Z</time></trkpt><trkpt lat="41.15237352814809" lon="14.976817709789113"><ele>180.5</ele><time>2026-03-22T10:16:06Z</time></trkpt><trkpt lat="41.15240281269613" lon="14.97700501857118"><ele>181.25</ele><time>2026-03-22T10:16:07Z</time></trkpt><trkpt lat="41.15242674300882" lon="14.97721076206557"><ele>182.0</ele><time>2026-03-22T10:16:08Z</time></trkpt><trkpt lat="41.15244381465193" lon="14.9774285634912"><ele>181.33333333333331</ele><time>2026-03-22T10:16:09Z</time></trkpt><trkpt lat="41.15245411222122" lon="14.977658201024747"><ele>180.66666666666666</ele><time>2026-03-22T10:16:10Z</time></trkpt><trkpt lat="41.15246370925538" lon="14.977893942133356"><ele>180.0</ele><time>2026-03-22T10:16:11Z</time></trkpt><trkpt lat="41.15247108297082" lon="14.978125176913482"><ele>180.0</ele><time>2026-03-22T10:16:12Z</time></trkpt><trkpt lat="41.15247844189209" lon="14.97834865108978"><ele>180.0</ele><time>2026-03-22T10:16:13Z</time></trkpt><trkpt lat="41.1524862164484" lon="14.978565929452541"><ele>180.0</ele><time>2026-03-22T10:16:14Z</time></trkpt><trkpt lat="41.1524940727799" lon="14.978785493213334"><ele>180.0</ele><time>2026-03-22T10:16:15Z</time></trkpt><trkpt lat="41.152501896271936" lon="14.97900413925541"><ele>180.0</ele><time>2026-03-22T10:16:16Z</time></trkpt><trkpt lat="41.15250932137441" lon="14.979213860629992"><ele>180.0</ele><time>2026-03-22T10:16:17Z</time></trkpt><trkpt lat="41.1525164430195" lon="14.979422969599804"><ele>179.33333333333334</ele><time>2026-03-22T10:16:18Z</time></trkpt><trkpt lat="41.15252378488521" lon="14.979638544703265"><ele>178.66666666666669</ele><time>2026-03-22T10:16:19Z</time></trkpt><trkpt lat="41.15253099743278" lon="14.97985032274893"><ele>178.0</ele><time>2026-03-22T10:16:20Z</time></trkpt><trkpt lat="41.15253808467126" lon="14.980058421394691"><ele>178.0</ele><time>2026-03-22T10:16:21Z</time></trkpt><trkpt lat="41.15254515657931" lon="14.98026606990478"><ele>178.0</ele><time>2026-03-22T10:16:22Z</time></trkpt><trkpt lat="41.15255257270596" lon="14.980483825386008"><ele>178.0</ele><time>2026-03-22T10:16:23Z</time></trkpt><trkpt lat="41.15255956861249" lon="14.980689242403193"><ele>178.33333333333334</ele><time>2026-03-22T10:16:24Z</time></trkpt><trkpt lat="41.15256682525771" lon="14.98090231523764"><ele>178.66666666666666</ele><time>2026-03-22T10:16:25Z</time></trkpt><trkpt lat="41.152573856904056" lon="14.981108781590695"><ele>179.0</ele><time>2026-03-22T10:16:26Z</time></trkpt><trkpt lat="41.15258159546669" lon="14.981324364974167"><ele>179.0</ele><time>2026-03-22T10:16:27Z</time></trkpt><trkpt lat="41.15258969493854" lon="14.98154382532728"><ele>179.0</ele><time>2026-03-22T10:16:28Z</time></trkpt><trkpt lat="41.15259767475736" lon="14.981760043639925"><ele>179.0</ele><time>2026-03-22T10:16:29Z</time></trkpt><trkpt lat="41.152605674525276" lon="14.981976802448202"><ele>179.0</ele><time>2026-03-22T10:16:30Z</time></trkpt><trkpt lat="41.15261337307579" lon="14.982185399579103"><ele>179.0</ele><time>2026-03-22T10:16:31Z</time></trkpt><trkpt lat="41.15262062579235" lon="14.982381916554097"><ele>179.0</ele><time>2026-03-22T10:16:32Z</time></trkpt><trkpt lat="41.15262815888639" lon="14.982586030491925"><ele>179.66666666666666</ele><time>2026-03-22T10:16:33Z</time></trkpt><trkpt lat="41.152635821963585" lon="14.982793666437182"><ele>180.33333333333334</ele><time>2026-03-22T10:16:34Z</time></trkpt><trkpt lat="41.15264357198465" lon="14.983003417637931"><ele>181.0</ele><time>2026-03-22T10:16:35Z</time></trkpt><trkpt lat="41.15265144763409" lon="14.983216561099397"><ele>181.33333333333334</ele><time>2026-03-22T10:16:36Z</time></trkpt><trkpt lat="41.15265948076632" lon="14.983433966630145"><ele>181.66666666666666</ele><time>2026-03-22T10:16:37Z</time></trkpt><trkpt lat="41.15266726141315" lon="14.983645638260427"><ele>182.0</ele><time>2026-03-22T10:16:38Z</time></trkpt><trkpt lat="41.15267488700167" lon="14.983854905425186"><ele>182.0</ele><time>2026-03-22T10:16:39Z</time></trkpt><trkpt lat="41.152678943343126" lon="14.984041390445835"><ele>182.0</ele><time>2026-03-22T10:16:40Z</time></trkpt><trkpt lat="41.15267775514639" lon="14.984209978025058"><ele>182.0</ele><time>2026-03-22T10:16:41Z</time></trkpt><trkpt lat="41.152673392714405" lon="14.984352236743261"><ele>182.0</ele><time>2026-03-22T10:16:42Z</time></trkpt><trkpt lat="41.15266872863506" lon="14.984488641528884"><ele>182.2</ele><time>2026-03-22T10:16:43Z</time></trkpt><trkpt lat="41.15275514780291" lon="14.984588999110072"><ele>182.39999999999998</ele><time>2026-03-22T10:16:44Z</time></trkpt><trkpt lat="41.152743946529924" lon="14.984688507143845"><ele>182.60000000000002</ele><time>2026-03-22T10:16:45Z</time></trkpt><trkpt lat="41.152744512917714" lon="14.984837587869476"><ele>182.8</ele><time>2026-03-22T10:16:47Z</time></trkpt><trkpt lat="41.15281334013857" lon="14.984880165720819"><ele>183.0</ele><time>2026-03-22T10:17:03Z</time></trkpt><trkpt lat="41.152828399096684" lon="14.984787735413777"><ele>183.0</ele><time>2026-03-22T10:17:25Z</time></trkpt><trkpt lat="41.152856836228295" lon="14.984706065940383"><ele>183.0</ele><time>2026-03-22T10:17:28Z</time></trkpt><trkpt lat="41.152798132555475" lon="14.984797171171632"><ele>183.0</ele><time>2026-03-22T10:17:39Z</time></trkpt><trkpt lat="41.152771687301595" lon="14.984889603489236"><ele>183.0</ele><time>2026-03-22T10:17:42Z</time></trkpt><trkpt lat="41.152757110565744" lon="14.984988399786726"><ele>183.0</ele><time>2026-03-22T10:17:45Z</time></trkpt><trkpt lat="41.15270173575549" lon="14.985141654531539"><ele>183.0</ele><time>2026-03-22T10:17:51Z</time></trkpt><trkpt lat="41.15268641451046" lon="14.985229264573102"><ele>183.4</ele><time>2026-03-22T10:17:52Z</time></trkpt><trkpt lat="41.15267716740988" lon="14.98533461221556"><ele>183.8</ele><time>2026-03-22T10:17:53Z</time></trkpt><trkpt lat="41.15258898865554" lon="14.985445898635161"><ele>184.2</ele><time>2026-03-22T10:17:54Z</time></trkpt><trkpt lat="41.15256241920856" lon="14.985574816022957"><ele>184.6</ele><time>2026-03-22T10:17:55Z</time></trkpt><trkpt lat="41.152518590944354" lon="14.98574842675365"><ele>185.0</ele><time>2026-03-22T10:17:56Z</time></trkpt><trkpt lat="41.15247591123737" lon="14.985905753904941"><ele>185.0</ele><time>2026-03-22T10:17:57Z</time></trkpt><trkpt lat="41.15242714743962" lon="14.986074675448357"><ele>185.0</ele><time>2026-03-22T10:17:58Z</time></trkpt><trkpt lat="41.15238014830526" lon="14.986237169172679"><ele>185.0</ele><time>2026-03-22T10:17:59Z</time></trkpt><trkpt lat="41.15232826753351" lon="14.986414710554525"><ele>185.0</ele><time>2026-03-22T10:18:00Z</time></trkpt><trkpt lat="41.15227797749081" lon="14.98658680815168"><ele>185.16666666666666</ele><time>2026-03-22T10:18:01Z</time></trkpt><trkpt lat="41.15223209053215" lon="14.986743838021463"><ele>185.33333333333331</ele><time>2026-03-22T10:18:02Z</time></trkpt><trkpt lat="41.152195886793336" lon="14.986867730918512"><ele>185.5</ele><time>2026-03-22T10:18:03Z</time></trkpt><trkpt lat="41.15216668846712" lon="14.986967650560368"><ele>185.66666666666666</ele><time>2026-03-22T10:18:04Z</time></trkpt><trkpt lat="41.15214045346968" lon="14.987057429396977"><ele>185.83333333333334</ele><time>2026-03-22T10:18:05Z</time></trkpt><trkpt lat="41.15211569756031" lon="14.987142146636808"><ele>186.0</ele><time>2026-03-22T10:18:06Z</time></trkpt><trkpt lat="41.15207208229766" lon="14.987296223059795"><ele>186.0</ele><time>2026-03-22T10:18:08Z</time></trkpt><trkpt lat="41.15204956120636" lon="14.9873788279275"><ele>186.0</ele><time>2026-03-22T10:18:09Z</time></trkpt><trkpt lat="41.15202459421135" lon="14.98747546085173"><ele>186.0</ele><time>2026-03-22T10:18:10Z</time></trkpt><trkpt lat="41.151995606443904" lon="14.987598361746912"><ele>186.0</ele><time>2026-03-22T10:18:11Z</time></trkpt><trkpt lat="41.15197080358766" lon="14.987748467288052"><ele>186.0</ele><time>2026-03-22T10:18:12Z</time></trkpt><trkpt lat="41.15195669470861" lon="14.987893786608495"><ele>186.0</ele><time>2026-03-22T10:18:13Z</time></trkpt><trkpt lat="41.151958722406036" lon="14.988037825857928"><ele>186.0</ele><time>2026-03-22T10:18:14Z</time></trkpt><trkpt lat="41.1519670730096" lon="14.988160940829012"><ele>186.0</ele><time>2026-03-22T10:18:15Z</time></trkpt><trkpt lat="41.151976415251404" lon="14.988259687481447"><ele>186.0</ele><time>2026-03-22T10:18:16Z</time></trkpt><trkpt lat="41.15182732777412" lon="14.988369948862061"><ele>186.0</ele><time>2026-03-22T10:18:18Z</time></trkpt><trkpt lat="41.15174440088224" lon="14.988452928991716"><ele>185.5</ele><time>2026-03-22T10:18:19Z</time></trkpt><trkpt lat="41.15165368362077" lon="14.98854452370676"><ele>185.0</ele><time>2026-03-22T10:18:20Z</time></trkpt><trkpt lat="41.15155966281903" lon="14.988642212798272"><ele>184.5</ele><time>2026-03-22T10:18:21Z</time></trkpt><trkpt lat="41.15145835845657" lon="14.98874746955222"><ele>184.0</ele><time>2026-03-22T10:18:22Z</time></trkpt><trkpt lat="41.151360277277725" lon="14.988849377449158"><ele>184.0</ele><time>2026-03-22T10:18:23Z</time></trkpt><trkpt lat="41.15126632773508" lon="14.988946992482"><ele>184.0</ele><time>2026-03-22T10:18:24Z</time></trkpt><trkpt lat="41.15117806390621" lon="14.989038699977518"><ele>184.0</ele><time>2026-03-22T10:18:25Z</time></trkpt><trkpt lat="41.151091579300825" lon="14.98912855880252"><ele>184.0</ele><time>2026-03-22T10:18:26Z</time></trkpt><trkpt lat="41.15100332594418" lon="14.989220255417925"><ele>184.39999999999998</ele><time>2026-03-22T10:18:27Z</time></trkpt><trkpt lat="41.15091668152411" lon="14.989308041851947"><ele>184.8</ele><time>2026-03-22T10:18:28Z</time></trkpt><trkpt lat="41.1508278216432" lon="14.989384210669707"><ele>185.2</ele><time>2026-03-22T10:18:29Z</time></trkpt><trkpt lat="41.15073592552874" lon="14.989435662720075"><ele>185.60000000000002</ele><time>2026-03-22T10:18:30Z</time></trkpt><trkpt lat="41.15064250541235" lon="14.989472930159035"><ele>186.0</ele><time>2026-03-22T10:18:31Z</time></trkpt><trkpt lat="41.150538074455596" lon="14.989407004088923"><ele>186.0</ele><time>2026-03-22T10:18:32Z</time></trkpt><trkpt lat="41.150420771305164" lon="14.989307157239061"><ele>186.0</ele><time>2026-03-22T10:18:33Z</time></trkpt><trkpt lat="41.15031066306602" lon="14.989215421123795"><ele>186.0</ele><time>2026-03-22T10:18:34Z</time></trkpt><trkpt lat="41.15018634061483" lon="14.989128195921195"><ele>186.0</ele><time>2026-03-22T10:18:35Z</time></trkpt><trkpt lat="41.15006049879775" lon="14.989050133248282"><ele>185.5</ele><time>2026-03-22T10:18:36Z</time></trkpt><trkpt lat="41.14992934139453" lon="14.98897943427658"><ele>185.0</ele><time>2026-03-22T10:18:37Z</time></trkpt><trkpt lat="41.149793616043866" lon="14.98892961618869"><ele>184.5</ele><time>2026-03-22T10:18:38Z</time></trkpt><trkpt lat="41.14965368931817" lon="14.98890675535572"><ele>184.0</ele><time>2026-03-22T10:18:39Z</time></trkpt><trkpt lat="41.149505866265436" lon="14.98891465585831"><ele>184.0</ele><time>2026-03-22T10:18:40Z</time></trkpt><trkpt lat="41.14934396068321" lon="14.988946618408361"><ele>184.0</ele><time>2026-03-22T10:18:41Z</time></trkpt><trkpt lat="41.1491911074817" lon="14.9890103924227"><ele>184.0</ele><time>2026-03-22T10:18:42Z</time></trkpt><trkpt lat="41.1490515936978" lon="14.98909482296801"><ele>184.66666666666669</ele><time>2026-03-22T10:18:43Z</time></trkpt><trkpt lat="41.14890764778051" lon="14.989168711810082"><ele>185.33333333333334</ele><time>2026-03-22T10:18:44Z</time></trkpt><trkpt lat="41.14877068142785" lon="14.98925650991894"><ele>186.0</ele><time>2026-03-22T10:18:45Z</time></trkpt><trkpt lat="41.14864025707899" lon="14.98934249338321"><ele>186.0</ele><time>2026-03-22T10:18:46Z</time></trkpt><trkpt lat="41.14850421304958" lon="14.989432212673002"><ele>186.0</ele><time>2026-03-22T10:18:47Z</time></trkpt><trkpt lat="41.148371589594106" lon="14.989520619753211"><ele>186.0</ele><time>2026-03-22T10:18:48Z</time></trkpt><trkpt lat="41.14824605945317" lon="14.989604298446096"><ele>186.0</ele><time>2026-03-22T10:18:49Z</time></trkpt><trkpt lat="41.148123647986054" lon="14.989685898196248"><ele>186.25</ele><time>2026-03-22T10:18:50Z</time></trkpt><trkpt lat="41.147999031737754" lon="14.9897689676697"><ele>186.5</ele><time>2026-03-22T10:18:51Z</time></trkpt><trkpt lat="41.14788085510675" lon="14.989848713713691"><ele>186.75</ele><time>2026-03-22T10:18:52Z</time></trkpt><trkpt lat="41.14776015820051" lon="14.989930228584926"><ele>187.0</ele><time>2026-03-22T10:18:53Z</time></trkpt><trkpt lat="41.14763452930972" lon="14.990015074354977"><ele>187.0</ele><time>2026-03-22T10:18:54Z</time></trkpt><trkpt lat="41.14751766173152" lon="14.990094003011082"><ele>187.0</ele><time>2026-03-22T10:18:55Z</time></trkpt><trkpt lat="41.14740580971942" lon="14.990173010786323"><ele>187.0</ele><time>2026-03-22T10:18:56Z</time></trkpt><trkpt lat="41.14729706282456" lon="14.990268034075443"><ele>187.0</ele><time>2026-03-22T10:18:57Z</time></trkpt><trkpt lat="41.14719141711696" lon="14.99041121389836"><ele>187.0</ele><time>2026-03-22T10:18:58Z</time></trkpt><trkpt lat="41.14708648575709" lon="14.990548491933565"><ele>187.0</ele><time>2026-03-22T10:18:59Z</time></trkpt><trkpt lat="41.146979142439406" lon="14.990688925436181"><ele>187.0</ele><time>2026-03-22T10:19:00Z</time></trkpt><trkpt lat="41.146875132304274" lon="14.990825455003817"><ele>187.0</ele><time>2026-03-22T10:19:01Z</time></trkpt><trkpt lat="41.14677276895338" lon="14.990959841185607"><ele>187.0</ele><time>2026-03-22T10:19:02Z</time></trkpt><trkpt lat="41.1466672834446" lon="14.991098326258783"><ele>187.0</ele><time>2026-03-22T10:19:03Z</time></trkpt><trkpt lat="41.14656290076586" lon="14.991234744535898"><ele>187.0</ele><time>2026-03-22T10:19:04Z</time></trkpt><trkpt lat="41.146455907178385" lon="14.99137406152846"><ele>187.0</ele><time>2026-03-22T10:19:05Z</time></trkpt><trkpt lat="41.146346314923946" lon="14.991516762260348"><ele>187.33333333333334</ele><time>2026-03-22T10:19:06Z</time></trkpt><trkpt lat="41.14623763967261" lon="14.991658268962743"><ele>187.66666666666666</ele><time>2026-03-22T10:19:07Z</time></trkpt><trkpt lat="41.14612547336146" lon="14.991806424886617"><ele>188.0</ele><time>2026-03-22T10:19:08Z</time></trkpt><trkpt lat="41.14601577291428" lon="14.991953980591097"><ele>188.0</ele><time>2026-03-22T10:19:09Z</time></trkpt><trkpt lat="41.14590593408533" lon="14.992106274800486"><ele>188.0</ele><time>2026-03-22T10:19:10Z</time></trkpt><trkpt lat="41.14580249484118" lon="14.992263275504476"><ele>188.0</ele><time>2026-03-22T10:19:11Z</time></trkpt><trkpt lat="41.145714948100725" lon="14.992417571524918"><ele>188.0</ele><time>2026-03-22T10:19:12Z</time></trkpt><trkpt lat="41.14564640043752" lon="14.99258443227948"><ele>188.0</ele><time>2026-03-22T10:19:13Z</time></trkpt><trkpt lat="41.14559003591251" lon="14.992761074562575"><ele>188.0</ele><time>2026-03-22T10:19:14Z</time></trkpt><trkpt lat="41.14554578220184" lon="14.992952420114438"><ele>188.0</ele><time>2026-03-22T10:19:15Z</time></trkpt><trkpt lat="41.14550182009109" lon="14.993141630178533"><ele>188.0</ele><time>2026-03-22T10:19:16Z</time></trkpt><trkpt lat="41.14545908486138" lon="14.993331772291953"><ele>188.0</ele><time>2026-03-22T10:19:17Z</time></trkpt><trkpt lat="41.14542271753792" lon="14.993502339269943"><ele>188.0</ele><time>2026-03-22T10:19:18Z</time></trkpt><trkpt lat="41.14537961797498" lon="14.99368854484101"><ele>188.0</ele><time>2026-03-22T10:19:19Z</time></trkpt><trkpt lat="41.145337065083226" lon="14.993873067915104"><ele>188.0</ele><time>2026-03-22T10:19:20Z</time></trkpt><trkpt lat="41.14531322246857" lon="14.994043818957785"><ele>188.0</ele><time>2026-03-22T10:19:21Z</time></trkpt><trkpt lat="41.14531327130633" lon="14.994212358390685"><ele>188.0</ele><time>2026-03-22T10:19:22Z</time></trkpt><trkpt lat="41.145326304611906" lon="14.994367820490815"><ele>188.0</ele><time>2026-03-22T10:19:23Z</time></trkpt><trkpt lat="41.14534917038285" lon="14.994548922413616"><ele>187.75</ele><time>2026-03-22T10:19:24Z</time></trkpt><trkpt lat="41.14537193963659" lon="14.994716812154847"><ele>187.5</ele><time>2026-03-22T10:19:25Z</time></trkpt><trkpt lat="41.14539732623402" lon="14.994893585615815"><ele>187.25</ele><time>2026-03-22T10:19:26Z</time></trkpt><trkpt lat="41.14542172981351" lon="14.99506351409987"><ele>187.0</ele><time>2026-03-22T10:19:27Z</time></trkpt><trkpt lat="41.14544550076387" lon="14.995233890753005"><ele>187.0</ele><time>2026-03-22T10:19:28Z</time></trkpt><trkpt lat="41.14546700792227" lon="14.99538774841484"><ele>187.0</ele><time>2026-03-22T10:19:29Z</time></trkpt><trkpt lat="41.14548701300925" lon="14.995530860586337"><ele>187.0</ele><time>2026-03-22T10:19:30Z</time></trkpt><trkpt lat="41.145506642987044" lon="14.995671289282587"><ele>187.0</ele><time>2026-03-22T10:19:31Z</time></trkpt><trkpt lat="41.14552626740824" lon="14.99581167824357"><ele>187.0</ele><time>2026-03-22T10:19:32Z</time></trkpt><trkpt lat="41.14554654236937" lon="14.995956721018649"><ele>187.0</ele><time>2026-03-22T10:19:33Z</time></trkpt><trkpt lat="41.14556665661544" lon="14.996101775563174"><ele>187.0</ele><time>2026-03-22T10:19:34Z</time></trkpt><trkpt lat="41.145586965571034" lon="14.996248829896238"><ele>187.0</ele><time>2026-03-22T10:19:35Z</time></trkpt><trkpt lat="41.14560803663411" lon="14.996398432958943"><ele>187.0</ele><time>2026-03-22T10:19:36Z</time></trkpt><trkpt lat="41.1456296662323" lon="14.99654893525451"><ele>187.25</ele><time>2026-03-22T10:19:37Z</time></trkpt><trkpt lat="41.14564990683171" lon="14.996701774102995"><ele>187.5</ele><time>2026-03-22T10:19:38Z</time></trkpt><trkpt lat="41.14568615804006" lon="14.996848996804282"><ele>187.75</ele><time>2026-03-22T10:19:39Z</time></trkpt><trkpt lat="41.145702416283775" lon="14.997002225748426"><ele>188.0</ele><time>2026-03-22T10:19:40Z</time></trkpt><trkpt lat="41.14570910640583" lon="14.997150761503972"><ele>188.0</ele><time>2026-03-22T10:19:41Z</time></trkpt><trkpt lat="41.14570453764846" lon="14.99728255153587"><ele>188.0</ele><time>2026-03-22T10:19:42Z</time></trkpt><trkpt lat="41.14569379409832" lon="14.997420097032014"><ele>188.0</ele><time>2026-03-22T10:19:43Z</time></trkpt><trkpt lat="41.1456687922186" lon="14.997569655726297"><ele>188.0</ele><time>2026-03-22T10:19:44Z</time></trkpt><trkpt lat="41.145633564401926" lon="14.997722049766752"><ele>188.0</ele><time>2026-03-22T10:19:45Z</time></trkpt><trkpt lat="41.1455935092624" lon="14.997881424489977"><ele>188.75</ele><time>2026-03-22T10:19:46Z</time></trkpt><trkpt lat="41.14555192164631" lon="14.998040370699876"><ele>189.5</ele><time>2026-03-22T10:19:47Z</time></trkpt><trkpt lat="41.14551237728733" lon="14.998187542882057"><ele>190.25</ele><time>2026-03-22T10:19:48Z</time></trkpt><trkpt lat="41.14547202151332" lon="14.998337734907594"><ele>191.0</ele><time>2026-03-22T10:19:49Z</time></trkpt><trkpt lat="41.14543255356874" lon="14.998484622662984"><ele>192.0</ele><time>2026-03-22T10:19:50Z</time></trkpt><trkpt lat="41.1453907258308" lon="14.998630226076026"><ele>193.0</ele><time>2026-03-22T10:19:51Z</time></trkpt><trkpt lat="41.14534523872873" lon="14.998770267670901"><ele>194.0</ele><time>2026-03-22T10:19:52Z</time></trkpt><trkpt lat="41.14529502180122" lon="14.998898882820104"><ele>195.0</ele><time>2026-03-22T10:19:53Z</time></trkpt><trkpt lat="41.14523403567835" lon="14.99902838770924"><ele>195.0</ele><time>2026-03-22T10:19:54Z</time></trkpt><trkpt lat="41.14516441003401" lon="14.999151870014906"><ele>195.0</ele><time>2026-03-22T10:19:55Z</time></trkpt><trkpt lat="41.14508053723634" lon="14.99926725017204"><ele>195.0</ele><time>2026-03-22T10:19:56Z</time></trkpt><trkpt lat="41.14499145560141" lon="14.999365389033182"><ele>195.0</ele><time>2026-03-22T10:19:57Z</time></trkpt><trkpt lat="41.144898902132624" lon="14.99945987727148"><ele>195.0</ele><time>2026-03-22T10:19:58Z</time></trkpt><trkpt lat="41.14479913935681" lon="14.999555096518057"><ele>195.0</ele><time>2026-03-22T10:19:59Z</time></trkpt><trkpt lat="41.14469697146903" lon="14.999651229894562"><ele>195.0</ele><time>2026-03-22T10:20:00Z</time></trkpt><trkpt lat="41.14459726336057" lon="14.999747256482143"><ele>195.0</ele><time>2026-03-22T10:20:01Z</time></trkpt><trkpt lat="41.14449614277429" lon="14.999844538205764"><ele>195.0</ele><time>2026-03-22T10:20:02Z</time></trkpt><trkpt lat="41.14439964957743" lon="14.999935560818157"><ele>195.0</ele><time>2026-03-22T10:20:03Z</time></trkpt><trkpt lat="41.14430289723655" lon="15.00001886840832"><ele>195.0</ele><time>2026-03-22T10:20:04Z</time></trkpt><trkpt lat="41.1441971903586" lon="15.00007935259636"><ele>195.0</ele><time>2026-03-22T10:20:05Z</time></trkpt><trkpt lat="41.14408850342366" lon="15.000108796841827"><ele>195.4</ele><time>2026-03-22T10:20:06Z</time></trkpt><trkpt lat="41.143992233187994" lon="15.000131484040223"><ele>195.8</ele><time>2026-03-22T10:20:07Z</time></trkpt><trkpt lat="41.14391312983654" lon="15.000141349473543"><ele>196.2</ele><time>2026-03-22T10:20:08Z</time></trkpt><trkpt lat="41.14381151854373" lon="15.000148595307174"><ele>196.6</ele><time>2026-03-22T10:20:10Z</time></trkpt><trkpt lat="41.14374681620154" lon="15.000130381658924"><ele>197.0</ele><time>2026-03-22T10:20:13Z</time></trkpt><trkpt lat="41.1437058652886" lon="15.000353559980185"><ele>197.0</ele><time>2026-03-22T10:20:31Z</time></trkpt><trkpt lat="41.143745066068796" lon="15.000426124117745"><ele>197.0</ele><time>2026-03-22T10:20:35Z</time></trkpt><trkpt lat="41.143758059287016" lon="15.000340489226508"><ele>197.0</ele><time>2026-03-22T10:20:41Z</time></trkpt><trkpt lat="41.14383727450928" lon="15.000507070105948"><ele>197.0</ele><time>2026-03-22T10:23:15Z</time></trkpt><trkpt lat="41.14392115631893" lon="15.00054742414776"><ele>197.0</ele><time>2026-03-22T10:23:17Z</time></trkpt><trkpt lat="41.14399539812743" lon="15.000629150302593"><ele>196.5</ele><time>2026-03-22T10:23:19Z</time></trkpt><trkpt lat="41.144075017833075" lon="15.000717124499277"><ele>196.0</ele><time>2026-03-22T10:23:20Z</time></trkpt><trkpt lat="41.14419008507244" lon="15.000833009170396"><ele>195.5</ele><time>2026-03-22T10:23:21Z</time></trkpt><trkpt lat="41.144293889204754" lon="15.000929447062124"><ele>195.0</ele><time>2026-03-22T10:23:22Z</time></trkpt><trkpt lat="41.14437975623715" lon="15.001024072150736"><ele>196.5</ele><time>2026-03-22T10:23:23Z</time></trkpt><trkpt lat="41.1444920990128" lon="15.001118820051378"><ele>198.0</ele><time>2026-03-22T10:23:24Z</time></trkpt><trkpt lat="41.14463291780617" lon="15.001204782016645"><ele>199.5</ele><time>2026-03-22T10:23:25Z</time></trkpt><trkpt lat="41.144772848184914" lon="15.001304931113651"><ele>201.0</ele><time>2026-03-22T10:23:26Z</time></trkpt><trkpt lat="41.14489912807056" lon="15.00141100151839"><ele>202.0</ele><time>2026-03-22T10:23:27Z</time></trkpt><trkpt lat="41.144996666548685" lon="15.001497007326853"><ele>203.0</ele><time>2026-03-22T10:23:28Z</time></trkpt><trkpt lat="41.14508443407973" lon="15.001569427187535"><ele>204.0</ele><time>2026-03-22T10:23:29Z</time></trkpt><trkpt lat="41.145170063953806" lon="15.00165202887321"><ele>205.0</ele><time>2026-03-22T10:23:30Z</time></trkpt><trkpt lat="41.14524767022809" lon="15.001730061830328"><ele>206.0</ele><time>2026-03-22T10:23:31Z</time></trkpt><trkpt lat="41.14532072834497" lon="15.00179845819121"><ele>208.8</ele><time>2026-03-22T10:23:32Z</time></trkpt><trkpt lat="41.1454301431004" lon="15.00186690375107"><ele>211.60000000000002</ele><time>2026-03-22T10:23:33Z</time></trkpt><trkpt lat="41.145534083434924" lon="15.001928623403833"><ele>214.4</ele><time>2026-03-22T10:23:34Z</time></trkpt><trkpt lat="41.14560038618714" lon="15.001983369929961"><ele>217.2</ele><time>2026-03-22T10:23:35Z</time></trkpt><trkpt lat="41.145675931644874" lon="15.002029018210647"><ele>220.0</ele><time>2026-03-22T10:23:36Z</time></trkpt><trkpt lat="41.14576843364722" lon="15.002034643699963"><ele>223.83333333333331</ele><time>2026-03-22T10:23:37Z</time></trkpt><trkpt lat="41.145851686599556" lon="15.002017227308492"><ele>227.66666666666666</ele><time>2026-03-22T10:23:38Z</time></trkpt><trkpt lat="41.145930436191804" lon="15.001965692875338"><ele>231.5</ele><time>2026-03-22T10:23:39Z</time></trkpt><trkpt lat="41.14601512124979" lon="15.001892107557573"><ele>235.33333333333331</ele><time>2026-03-22T10:23:40Z</time></trkpt><trkpt lat="41.14609714097036" lon="15.001895356037384"><ele>239.16666666666666</ele><time>2026-03-22T10:23:42Z</time></trkpt><trkpt lat="41.146099037776864" lon="15.001983431833018"><ele>243.0</ele><time>2026-03-22T10:23:43Z</time></trkpt><trkpt lat="41.146049934646776" lon="15.002082861293337"><ele>243.0</ele><time>2026-03-22T10:23:44Z</time></trkpt><trkpt lat="41.14609454969958" lon="15.002195247641774"><ele>243.0</ele><time>2026-03-22T10:23:46Z</time></trkpt><trkpt lat="41.146159948792956" lon="15.002252287971006"><ele>243.0</ele><time>2026-03-22T10:23:47Z</time></trkpt><trkpt lat="41.14625005428475" lon="15.002296754510471"><ele>243.0</ele><time>2026-03-22T10:23:48Z</time></trkpt><trkpt lat="41.14633035637863" lon="15.002307908889208"><ele>243.0</ele><time>2026-03-22T10:23:49Z</time></trkpt><trkpt lat="41.14639534465919" lon="15.002275893492982"><ele>243.0</ele><time>2026-03-22T10:23:50Z</time></trkpt><trkpt lat="41.146458771704644" lon="15.002218149223497"><ele>243.0</ele><time>2026-03-22T10:23:51Z</time></trkpt><trkpt lat="41.14652562897173" lon="15.002112976786961"><ele>243.0</ele><time>2026-03-22T10:23:52Z</time></trkpt><trkpt lat="41.14661111853861" lon="15.002012483372415"><ele>243.0</ele><time>2026-03-22T10:23:53Z</time></trkpt><trkpt lat="41.14672522315971" lon="15.001907464911927"><ele>243.0</ele><time>2026-03-22T10:23:54Z</time></trkpt><trkpt lat="41.14685288884317" lon="15.001835989480577"><ele>248.5</ele><time>2026-03-22T10:23:55Z</time></trkpt><trkpt lat="41.146982887379835" lon="15.001793832818198"><ele>254.0</ele><time>2026-03-22T10:23:56Z</time></trkpt><trkpt lat="41.14710095079454" lon="15.001769008176586"><ele>259.5</ele><time>2026-03-22T10:23:57Z</time></trkpt><trkpt lat="41.147198991583" lon="15.001775590483962"><ele>265.0</ele><time>2026-03-22T10:23:58Z</time></trkpt><trkpt lat="41.14731978329193" lon="15.001827307202626"><ele>267.0</ele><time>2026-03-22T10:23:59Z</time></trkpt><trkpt lat="41.147466091470996" lon="15.00189194979393"><ele>269.0</ele><time>2026-03-22T10:24:00Z</time></trkpt><trkpt lat="41.14761157022691" lon="15.001983747685795"><ele>271.0</ele><time>2026-03-22T10:24:01Z</time></trkpt><trkpt lat="41.147762140929615" lon="15.002108799697558"><ele>271.0</ele><time>2026-03-22T10:24:02Z</time></trkpt><trkpt lat="41.14789715230812" lon="15.002212164767286"><ele>271.0</ele><time>2026-03-22T10:24:03Z</time></trkpt><trkpt lat="41.14800835710133" lon="15.002285244718866"><ele>271.0</ele><time>2026-03-22T10:24:04Z</time></trkpt><trkpt lat="41.14810565599298" lon="15.002361382388015"><ele>271.0</ele><time>2026-03-22T10:24:05Z</time></trkpt><trkpt lat="41.1481826261049" lon="15.00246435895992"><ele>276.0</ele><time>2026-03-22T10:24:06Z</time></trkpt><trkpt lat="41.14828199596207" lon="15.002564357634768"><ele>281.0</ele><time>2026-03-22T10:24:07Z</time></trkpt><trkpt lat="41.14837803677476" lon="15.0027294006639"><ele>286.0</ele><time>2026-03-22T10:24:08Z</time></trkpt><trkpt lat="41.14845352062878" lon="15.002865623714891"><ele>291.0</ele><time>2026-03-22T10:24:09Z</time></trkpt><trkpt lat="41.148498712161135" lon="15.002984799294957"><ele>291.0</ele><time>2026-03-22T10:24:10Z</time></trkpt><trkpt lat="41.148539305962515" lon="15.003117507341202"><ele>291.0</ele><time>2026-03-22T10:24:11Z</time></trkpt><trkpt lat="41.148572748263376" lon="15.003274370432887"><ele>291.0</ele><time>2026-03-22T10:24:12Z</time></trkpt><trkpt lat="41.14861520606778" lon="15.003446367591398"><ele>291.0</ele><time>2026-03-22T10:24:13Z</time></trkpt><trkpt lat="41.14867841780268" lon="15.003586946722153"><ele>292.75</ele><time>2026-03-22T10:24:14Z</time></trkpt><trkpt lat="41.14873437450119" lon="15.003689019405126"><ele>294.5</ele><time>2026-03-22T10:24:15Z</time></trkpt><trkpt lat="41.14882475939735" lon="15.003778303773434"><ele>296.25</ele><time>2026-03-22T10:24:16Z</time></trkpt><trkpt lat="41.148931248745065" lon="15.003881779635345"><ele>298.0</ele><time>2026-03-22T10:24:17Z</time></trkpt><trkpt lat="41.14903729313618" lon="15.00394725256738"><ele>301.5</ele><time>2026-03-22T10:24:18Z</time></trkpt><trkpt lat="41.14914007765052" lon="15.003976824113817"><ele>305.0</ele><time>2026-03-22T10:24:19Z</time></trkpt><trkpt lat="41.14926505062014" lon="15.0039966581298"><ele>308.5</ele><time>2026-03-22T10:24:20Z</time></trkpt><trkpt lat="41.1493897879792" lon="15.004050298591938"><ele>312.0</ele><time>2026-03-22T10:24:21Z</time></trkpt><trkpt lat="41.149506652975546" lon="15.004109969765505"><ele>313.0</ele><time>2026-03-22T10:24:22Z</time></trkpt><trkpt lat="41.14962139800274" lon="15.00419429010833"><ele>314.0</ele><time>2026-03-22T10:24:23Z</time></trkpt><trkpt lat="41.14973834870282" lon="15.004280580798667"><ele>315.0</ele><time>2026-03-22T10:24:24Z</time></trkpt><trkpt lat="41.14981382364868" lon="15.00433557758154"><ele>316.0</ele><time>2026-03-22T10:24:25Z</time></trkpt><trkpt lat="41.14989222199052" lon="15.004355513834511"><ele>317.0</ele><time>2026-03-22T10:24:26Z</time></trkpt><trkpt lat="41.149981398270285" lon="15.00433182940227"><ele>320.0</ele><time>2026-03-22T10:24:27Z</time></trkpt><trkpt lat="41.15010077183335" lon="15.00426825273625"><ele>323.0</ele><time>2026-03-22T10:24:28Z</time></trkpt><trkpt lat="41.15023453145669" lon="15.004251778676089"><ele>326.0</ele><time>2026-03-22T10:24:29Z</time></trkpt><trkpt lat="41.15037109049169" lon="15.004271454429746"><ele>329.0</ele><time>2026-03-22T10:24:30Z</time></trkpt><trkpt lat="41.150490824038194" lon="15.004304712540833"><ele>329.0</ele><time>2026-03-22T10:24:31Z</time></trkpt><trkpt lat="41.15063900672873" lon="15.004311640886154"><ele>329.0</ele><time>2026-03-22T10:24:32Z</time></trkpt><trkpt lat="41.15078685161242" lon="15.004315564406806"><ele>329.0</ele><time>2026-03-22T10:24:33Z</time></trkpt><trkpt lat="41.15090263477363" lon="15.004304036596592"><ele>329.0</ele><time>2026-03-22T10:24:34Z</time></trkpt><trkpt lat="41.15101978095378" lon="15.004290169105843"><ele>332.25</ele><time>2026-03-22T10:24:35Z</time></trkpt><trkpt lat="41.15115990486236" lon="15.004310903308971"><ele>335.5</ele><time>2026-03-22T10:24:36Z</time></trkpt><trkpt lat="41.15127959349238" lon="15.0043625348316"><ele>338.75</ele><time>2026-03-22T10:24:37Z</time></trkpt><trkpt lat="41.15141313978988" lon="15.004419219551862"><ele>342.0</ele><time>2026-03-22T10:24:38Z</time></trkpt><trkpt lat="41.15157068032315" lon="15.00444755287098"><ele>347.0</ele><time>2026-03-22T10:24:39Z</time></trkpt><trkpt lat="41.151747998971636" lon="15.004469308431569"><ele>352.0</ele><time>2026-03-22T10:24:40Z</time></trkpt><trkpt lat="41.15193201457557" lon="15.004490392153075"><ele>357.0</ele><time>2026-03-22T10:24:41Z</time></trkpt><trkpt lat="41.15209289816861" lon="15.0044724628865"><ele>357.0</ele><time>2026-03-22T10:24:42Z</time></trkpt><trkpt lat="41.15220192417959" lon="15.004507414608355"><ele>357.0</ele><time>2026-03-22T10:24:43Z</time></trkpt><trkpt lat="41.15227253227338" lon="15.00454095190096"><ele>357.0</ele><time>2026-03-22T10:24:44Z</time></trkpt><trkpt lat="41.15233818428251" lon="15.004603137942143"><ele>357.0</ele><time>2026-03-22T10:24:45Z</time></trkpt><trkpt lat="41.15239059672398" lon="15.004723515116822"><ele>357.0</ele><time>2026-03-22T10:24:46Z</time></trkpt><trkpt lat="41.152460566910264" lon="15.004877154072645"><ele>358.40000000000003</ele><time>2026-03-22T10:24:47Z</time></trkpt><trkpt lat="41.15254114865199" lon="15.005031404768092"><ele>359.8</ele><time>2026-03-22T10:24:48Z</time></trkpt><trkpt lat="41.15260492704813" lon="15.005130353938306"><ele>361.2</ele><time>2026-03-22T10:24:49Z</time></trkpt><trkpt lat="41.15266320489182" lon="15.00521531626248"><ele>362.6</ele><time>2026-03-22T10:24:50Z</time></trkpt><trkpt lat="41.15274422598946" lon="15.00531439075824"><ele>364.0</ele><time>2026-03-22T10:24:51Z</time></trkpt><trkpt lat="41.152843676136925" lon="15.005420842269082"><ele>364.0</ele><time>2026-03-22T10:24:52Z</time></trkpt><trkpt lat="41.152960195529424" lon="15.005531757920627"><ele>364.0</ele><time>2026-03-22T10:24:53Z</time></trkpt><trkpt lat="41.15308173184928" lon="15.005640445576768"><ele>364.0</ele><time>2026-03-22T10:24:54Z</time></trkpt><trkpt lat="41.153202191611435" lon="15.005742845422695"><ele>364.0</ele><time>2026-03-22T10:24:55Z</time></trkpt><trkpt lat="41.15331459678742" lon="15.005841911733985"><ele>366.0</ele><time>2026-03-22T10:24:56Z</time></trkpt><trkpt lat="41.15341612069508" lon="15.005941182554817"><ele>368.0</ele><time>2026-03-22T10:24:57Z</time></trkpt><trkpt lat="41.153512221259234" lon="15.006037910912104"><ele>370.0</ele><time>2026-03-22T10:24:58Z</time></trkpt><trkpt lat="41.15359171655184" lon="15.006135177770185"><ele>372.0</ele><time>2026-03-22T10:24:59Z</time></trkpt><trkpt lat="41.15367548089397" lon="15.006229597654416"><ele>372.0</ele><time>2026-03-22T10:25:00Z</time></trkpt><trkpt lat="41.153756835653034" lon="15.006324748118042"><ele>372.0</ele><time>2026-03-22T10:25:01Z</time></trkpt><trkpt lat="41.15383946495815" lon="15.006417007995857"><ele>372.0</ele><time>2026-03-22T10:25:02Z</time></trkpt><trkpt lat="41.15392644550441" lon="15.006504692174852"><ele>372.0</ele><time>2026-03-22T10:25:03Z</time></trkpt><trkpt lat="41.154004382371554" lon="15.006592067827238"><ele>372.0</ele><time>2026-03-22T10:25:04Z</time></trkpt><trkpt lat="41.15408313821733" lon="15.006668025879682"><ele>373.8</ele><time>2026-03-22T10:25:05Z</time></trkpt><trkpt lat="41.15415697783934" lon="15.006740454171643"><ele>375.6</ele><time>2026-03-22T10:25:06Z</time></trkpt><trkpt lat="41.15422958766374" lon="15.006809519771947"><ele>377.40000000000003</ele><time>2026-03-22T10:25:07Z</time></trkpt><trkpt lat="41.15430193422879" lon="15.006874152816264"><ele>379.20000000000005</ele><time>2026-03-22T10:25:08Z</time></trkpt><trkpt lat="41.15437724323905" lon="15.006949708906367"><ele>381.0</ele><time>2026-03-22T10:25:09Z</time></trkpt><trkpt lat="41.1544454014922" lon="15.007025643532595"><ele>381.0</ele><time>2026-03-22T10:25:10Z</time></trkpt><trkpt lat="41.15451011666575" lon="15.00709885961424"><ele>381.0</ele><time>2026-03-22T10:25:11Z</time></trkpt><trkpt lat="41.15457427443758" lon="15.007165524540842"><ele>381.0</ele><time>2026-03-22T10:25:12Z</time></trkpt><trkpt lat="41.15462955941876" lon="15.007246487917437"><ele>381.0</ele><time>2026-03-22T10:25:13Z</time></trkpt><trkpt lat="41.15470509612388" lon="15.007325012314507"><ele>381.0</ele><time>2026-03-22T10:25:14Z</time></trkpt><trkpt lat="41.15477473207348" lon="15.007396896428316"><ele>381.0</ele><time>2026-03-22T10:25:15Z</time></trkpt><trkpt lat="41.15484587030644" lon="15.007460633090664"><ele>381.1666666666667</ele><time>2026-03-22T10:25:16Z</time></trkpt><trkpt lat="41.15492364259697" lon="15.007519912930437"><ele>381.3333333333333</ele><time>2026-03-22T10:25:17Z</time></trkpt><trkpt lat="41.15500030828486" lon="15.00757692338085"><ele>381.5</ele><time>2026-03-22T10:25:18Z</time></trkpt><trkpt lat="41.15507919351341" lon="15.007634954091925"><ele>381.66666666666663</ele><time>2026-03-22T10:25:19Z</time></trkpt><trkpt lat="41.15515327518471" lon="15.007695810130446"><ele>381.8333333333333</ele><time>2026-03-22T10:25:20Z</time></trkpt><trkpt lat="41.155229118783666" lon="15.00775631169538"><ele>382.0</ele><time>2026-03-22T10:25:21Z</time></trkpt><trkpt lat="41.15530208955774" lon="15.007813044744083"><ele>382.0</ele><time>2026-03-22T10:25:22Z</time></trkpt><trkpt lat="41.155381134294004" lon="15.007866785934496"><ele>382.0</ele><time>2026-03-22T10:25:23Z</time></trkpt><trkpt lat="41.155452527548356" lon="15.007941482248178"><ele>382.0</ele><time>2026-03-22T10:25:24Z</time></trkpt><trkpt lat="41.155538825742596" lon="15.007989448393852"><ele>382.0</ele><time>2026-03-22T10:25:25Z</time></trkpt><trkpt lat="41.1556131018378" lon="15.008054759433898"><ele>382.0</ele><time>2026-03-22T10:25:26Z</time></trkpt><trkpt lat="41.155698568969484" lon="15.008114612992065"><ele>381.0</ele><time>2026-03-22T10:25:27Z</time></trkpt><trkpt lat="41.1557836772499" lon="15.00816844656647"><ele>380.0</ele><time>2026-03-22T10:25:28Z</time></trkpt><trkpt lat="41.15587112184888" lon="15.008214229844304"><ele>379.0</ele><time>2026-03-22T10:25:29Z</time></trkpt><trkpt lat="41.155949920754246" lon="15.008265579190805"><ele>378.0</ele><time>2026-03-22T10:25:30Z</time></trkpt><trkpt lat="41.156030562162215" lon="15.0083170945414"><ele>377.0</ele><time>2026-03-22T10:25:31Z</time></trkpt><trkpt lat="41.15611421899914" lon="15.008360700613885"><ele>380.20000000000005</ele><time>2026-03-22T10:25:32Z</time></trkpt><trkpt lat="41.15619295682663" lon="15.008401058403996"><ele>383.4</ele><time>2026-03-22T10:25:33Z</time></trkpt><trkpt lat="41.156276808576216" lon="15.008445616139442"><ele>386.6</ele><time>2026-03-22T10:25:34Z</time></trkpt><trkpt lat="41.15635983495347" lon="15.008499527311223"><ele>389.79999999999995</ele><time>2026-03-22T10:25:35Z</time></trkpt><trkpt lat="41.156384219455695" lon="15.008634131172787"><ele>393.0</ele><time>2026-03-22T10:25:36Z</time></trkpt><trkpt lat="41.15643968508296" lon="15.008767624040932"><ele>393.0</ele><time>2026-03-22T10:25:37Z</time></trkpt><trkpt lat="41.156507552123664" lon="15.00891587083228"><ele>393.0</ele><time>2026-03-22T10:25:38Z</time></trkpt><trkpt lat="41.15655680487068" lon="15.009078284897626"><ele>393.0</ele><time>2026-03-22T10:25:39Z</time></trkpt><trkpt lat="41.156575458111426" lon="15.009260146348186"><ele>393.0</ele><time>2026-03-22T10:25:40Z</time></trkpt><trkpt lat="41.15659040945925" lon="15.009473881856547"><ele>395.33333333333337</ele><time>2026-03-22T10:25:41Z</time></trkpt><trkpt lat="41.156606852879264" lon="15.009693543612327"><ele>397.6666666666667</ele><time>2026-03-22T10:25:42Z</time></trkpt><trkpt lat="41.15662647843788" lon="15.009952789674497"><ele>400.0</ele><time>2026-03-22T10:25:43Z</time></trkpt><trkpt lat="41.156652625515" lon="15.0101913359038"><ele>401.0</ele><time>2026-03-22T10:25:44Z</time></trkpt><trkpt lat="41.156702522223306" lon="15.010365593286593"><ele>402.0</ele><time>2026-03-22T10:25:45Z</time></trkpt><trkpt lat="41.15671960254178" lon="15.010495694921026"><ele>403.0</ele><time>2026-03-22T10:25:46Z</time></trkpt><trkpt lat="41.1567401544336" lon="15.010579562590353"><ele>404.0</ele><time>2026-03-22T10:25:47Z</time></trkpt><trkpt lat="41.15666399195407" lon="15.010592537959342"><ele>405.0</ele><time>2026-03-22T10:25:50Z</time></trkpt><trkpt lat="41.15662733070183" lon="15.010690047086921"><ele>405.0</ele><time>2026-03-22T10:25:51Z</time></trkpt><trkpt lat="41.156599816844675" lon="15.010785217024564"><ele>405.0</ele><time>2026-03-22T10:25:52Z</time></trkpt><trkpt lat="41.15658304424648" lon="15.010912169557248"><ele>405.0</ele><time>2026-03-22T10:25:53Z</time></trkpt><trkpt lat="41.15657758033624" lon="15.011043009551212"><ele>405.0</ele><time>2026-03-22T10:25:54Z</time></trkpt><trkpt lat="41.156630357752924" lon="15.011234198029268"><ele>405.0</ele><time>2026-03-22T10:25:55Z</time></trkpt><trkpt lat="41.15666192294626" lon="15.01144739496894"><ele>404.66666666666663</ele><time>2026-03-22T10:25:56Z</time></trkpt><trkpt lat="41.15668810058786" lon="15.011704155668996"><ele>404.3333333333333</ele><time>2026-03-22T10:25:57Z</time></trkpt><trkpt lat="41.15671408466087" lon="15.01192366542401"><ele>404.0</ele><time>2026-03-22T10:25:58Z</time></trkpt><trkpt lat="41.156714942929426" lon="15.012069562079006"><ele>404.0</ele><time>2026-03-22T10:25:59Z</time></trkpt><trkpt lat="41.156705234929966" lon="15.012171183013484"><ele>404.0</ele><time>2026-03-22T10:26:00Z</time></trkpt><trkpt lat="41.15667064734342" lon="15.012251989016313"><ele>404.0</ele><time>2026-03-22T10:26:05Z</time></trkpt><trkpt lat="41.15662428402355" lon="15.012364451759916"><ele>404.0</ele><time>2026-03-22T10:26:07Z</time></trkpt><trkpt lat="41.15659092366588" lon="15.012494920263403"><ele>404.0</ele><time>2026-03-22T10:26:09Z</time></trkpt><trkpt lat="41.156591553580526" lon="15.01263131386792"><ele>402.6</ele><time>2026-03-22T10:26:11Z</time></trkpt><trkpt lat="41.1565935618736" lon="15.012749645760572"><ele>401.2</ele><time>2026-03-22T10:26:12Z</time></trkpt><trkpt lat="41.15659584289984" lon="15.012914560566879"><ele>399.8</ele><time>2026-03-22T10:26:13Z</time></trkpt><trkpt lat="41.156605089550375" lon="15.013081469286675"><ele>398.40000000000003</ele><time>2026-03-22T10:26:14Z</time></trkpt><trkpt lat="41.156624033716106" lon="15.013214948010576"><ele>397.0</ele><time>2026-03-22T10:26:15Z</time></trkpt><trkpt lat="41.15664714937747" lon="15.013342779575206"><ele>395.5</ele><time>2026-03-22T10:26:16Z</time></trkpt><trkpt lat="41.15663952392769" lon="15.013478089872065"><ele>394.0</ele><time>2026-03-22T10:26:17Z</time></trkpt><trkpt lat="41.15662970293698" lon="15.013663032817131"><ele>392.5</ele><time>2026-03-22T10:26:18Z</time></trkpt><trkpt lat="41.15664920760809" lon="15.013861651526268"><ele>391.0</ele><time>2026-03-22T10:26:19Z</time></trkpt><trkpt lat="41.1566684054527" lon="15.014067070176427"><ele>390.0</ele><time>2026-03-22T10:26:20Z</time></trkpt><trkpt lat="41.156680829355544" lon="15.014231225951491"><ele>389.0</ele><time>2026-03-22T10:26:21Z</time></trkpt><trkpt lat="41.156698229114944" lon="15.014407380079719"><ele>388.0</ele><time>2026-03-22T10:26:22Z</time></trkpt><trkpt lat="41.15672867453497" lon="15.014573994583627"><ele>387.0</ele><time>2026-03-22T10:26:23Z</time></trkpt><trkpt lat="41.156742408131365" lon="15.014726895363497"><ele>387.0</ele><time>2026-03-22T10:26:24Z</time></trkpt><trkpt lat="41.15675417707329" lon="15.014866119324266"><ele>387.0</ele><time>2026-03-22T10:26:25Z</time></trkpt><trkpt lat="41.15677842690302" lon="15.014977115115952"><ele>387.0</ele><time>2026-03-22T10:26:26Z</time></trkpt><trkpt lat="41.15678755507394" lon="15.015084164670972"><ele>387.0</ele><time>2026-03-22T10:26:27Z</time></trkpt><trkpt lat="41.15677545460422" lon="15.015220390767254"><ele>387.0</ele><time>2026-03-22T10:26:28Z</time></trkpt><trkpt lat="41.15674153321786" lon="15.01537982833247"><ele>384.75</ele><time>2026-03-22T10:26:29Z</time></trkpt><trkpt lat="41.15668887350571" lon="15.015552411925757"><ele>382.5</ele><time>2026-03-22T10:26:30Z</time></trkpt><trkpt lat="41.15666264169862" lon="15.015682031802882"><ele>380.25</ele><time>2026-03-22T10:26:31Z</time></trkpt><trkpt lat="41.1566157784404" lon="15.015796158691668"><ele>378.0</ele><time>2026-03-22T10:26:32Z</time></trkpt><trkpt lat="41.15652741550824" lon="15.015906713096971"><ele>374.0</ele><time>2026-03-22T10:26:33Z</time></trkpt><trkpt lat="41.15644813351082" lon="15.015989997323395"><ele>370.0</ele><time>2026-03-22T10:26:34Z</time></trkpt><trkpt lat="41.15638474127495" lon="15.016038784171952"><ele>366.0</ele><time>2026-03-22T10:26:35Z</time></trkpt><trkpt lat="41.15633631259728" lon="15.01620618727197"><ele>362.0</ele><time>2026-03-22T10:26:37Z</time></trkpt><trkpt lat="41.156292151446856" lon="15.016377591485643"><ele>358.0</ele><time>2026-03-22T10:26:38Z</time></trkpt><trkpt lat="41.15626093517133" lon="15.016491700731306"><ele>358.0</ele><time>2026-03-22T10:26:39Z</time></trkpt><trkpt lat="41.156245299700586" lon="15.01658663649161"><ele>358.0</ele><time>2026-03-22T10:26:40Z</time></trkpt><trkpt lat="41.1562699739759" lon="15.016799190282953"><ele>358.0</ele><time>2026-03-22T10:26:42Z</time></trkpt><trkpt lat="41.15628558836355" lon="15.016927814569375"><ele>358.0</ele><time>2026-03-22T10:26:43Z</time></trkpt><trkpt lat="41.156247274785976" lon="15.01702953386094"><ele>358.0</ele><time>2026-03-22T10:26:44Z</time></trkpt><trkpt lat="41.156198568509765" lon="15.017160558554323"><ele>359.79999999999995</ele><time>2026-03-22T10:26:45Z</time></trkpt><trkpt lat="41.15614470000609" lon="15.017314987002498"><ele>361.6</ele><time>2026-03-22T10:26:46Z</time></trkpt><trkpt lat="41.15610028371313" lon="15.01744277998773"><ele>363.4</ele><time>2026-03-22T10:26:47Z</time></trkpt><trkpt lat="41.15605635859772" lon="15.017536074647133"><ele>365.20000000000005</ele><time>2026-03-22T10:26:48Z</time></trkpt><trkpt lat="41.156002036268774" lon="15.017645644702755"><ele>367.0</ele><time>2026-03-22T10:26:49Z</time></trkpt><trkpt lat="41.155942520178684" lon="15.017735968215666"><ele>371.25</ele><time>2026-03-22T10:26:50Z</time></trkpt><trkpt lat="41.155862827378485" lon="15.017820412400653"><ele>375.5</ele><time>2026-03-22T10:26:51Z</time></trkpt><trkpt lat="41.15578828834374" lon="15.017946627331119"><ele>379.75</ele><time>2026-03-22T10:26:52Z</time></trkpt><trkpt lat="41.155700418498796" lon="15.01808281930912"><ele>384.0</ele><time>2026-03-22T10:26:53Z</time></trkpt><trkpt lat="41.15560651576138" lon="15.0182279074877"><ele>387.25</ele><time>2026-03-22T10:26:54Z</time></trkpt><trkpt lat="41.155512052501294" lon="15.018365990149704"><ele>390.5</ele><time>2026-03-22T10:26:55Z</time></trkpt><trkpt lat="41.15542489618809" lon="15.018480600174087"><ele>393.75</ele><time>2026-03-22T10:26:56Z</time></trkpt><trkpt lat="41.15533557223128" lon="15.01860974853865"><ele>397.0</ele><time>2026-03-22T10:26:57Z</time></trkpt><trkpt lat="41.15525501853551" lon="15.018725286230318"><ele>397.0</ele><time>2026-03-22T10:26:58Z</time></trkpt><trkpt lat="41.155175910854865" lon="15.01884557295909"><ele>397.0</ele><time>2026-03-22T10:26:59Z</time></trkpt><trkpt lat="41.15510620964674" lon="15.018993960394008"><ele>397.0</ele><time>2026-03-22T10:27:00Z</time></trkpt><trkpt lat="41.15503075480695" lon="15.019150600146393"><ele>397.0</ele><time>2026-03-22T10:27:01Z</time></trkpt><trkpt lat="41.15495285614475" lon="15.019288670987423"><ele>398.5</ele><time>2026-03-22T10:27:02Z</time></trkpt><trkpt lat="41.154870312935024" lon="15.019414049412282"><ele>400.0</ele><time>2026-03-22T10:27:03Z</time></trkpt><trkpt lat="41.15478423943572" lon="15.019538396395843"><ele>401.5</ele><time>2026-03-22T10:27:04Z</time></trkpt><trkpt lat="41.15470560278953" lon="15.019651678817775"><ele>403.0</ele><time>2026-03-22T10:27:05Z</time></trkpt><trkpt lat="41.15463871653584" lon="15.019759028806913"><ele>403.0</ele><time>2026-03-22T10:27:06Z</time></trkpt><trkpt lat="41.154568439760745" lon="15.019871837204787"><ele>403.0</ele><time>2026-03-22T10:27:07Z</time></trkpt><trkpt lat="41.154491436895114" lon="15.019985663804931"><ele>403.0</ele><time>2026-03-22T10:27:08Z</time></trkpt><trkpt lat="41.154401421416715" lon="15.020101628824744"><ele>403.0</ele><time>2026-03-22T10:27:09Z</time></trkpt><trkpt lat="41.154312207557574" lon="15.020224412496534"><ele>406.5</ele><time>2026-03-22T10:27:10Z</time></trkpt><trkpt lat="41.15421899092191" lon="15.020361675025338"><ele>410.0</ele><time>2026-03-22T10:27:11Z</time></trkpt><trkpt lat="41.15413160683057" lon="15.020496279758182"><ele>413.5</ele><time>2026-03-22T10:27:12Z</time></trkpt><trkpt lat="41.15405277850541" lon="15.020623222987105"><ele>417.0</ele><time>2026-03-22T10:27:13Z</time></trkpt><trkpt lat="41.15397532578106" lon="15.020747733354064"><ele>420.40000000000003</ele><time>2026-03-22T10:27:14Z</time></trkpt><trkpt lat="41.15389509152232" lon="15.020836495149712"><ele>423.8</ele><time>2026-03-22T10:27:15Z</time></trkpt><trkpt lat="41.1538524758683" lon="15.020922818472426"><ele>427.2</ele><time>2026-03-22T10:27:16Z</time></trkpt><trkpt lat="41.153811705174306" lon="15.021021310656524"><ele>430.6</ele><time>2026-03-22T10:27:18Z</time></trkpt><trkpt lat="41.15372422952329" lon="15.0210697715812"><ele>434.0</ele><time>2026-03-22T10:27:22Z</time></trkpt><trkpt lat="41.153682830045746" lon="15.021222071207706"><ele>434.0</ele><time>2026-03-22T10:27:24Z</time></trkpt><trkpt lat="41.153660149228266" lon="15.021329499824844"><ele>434.0</ele><time>2026-03-22T10:27:25Z</time></trkpt><trkpt lat="41.153626872904695" lon="15.021446753634686"><ele>434.0</ele><time>2026-03-22T10:27:26Z</time></trkpt><trkpt lat="41.15360434834836" lon="15.02156612985129"><ele>434.0</ele><time>2026-03-22T10:27:27Z</time></trkpt><trkpt lat="41.15359450349144" lon="15.021701828680186"><ele>434.0</ele><time>2026-03-22T10:27:28Z</time></trkpt><trkpt lat="41.15358336670571" lon="15.021838404806564"><ele>432.5</ele><time>2026-03-22T10:27:29Z</time></trkpt><trkpt lat="41.15355636314504" lon="15.021995516204452"><ele>431.0</ele><time>2026-03-22T10:27:30Z</time></trkpt><trkpt lat="41.15354440730259" lon="15.022149163181608"><ele>429.5</ele><time>2026-03-22T10:27:31Z</time></trkpt><trkpt lat="41.153529754563614" lon="15.022314634476954"><ele>428.0</ele><time>2026-03-22T10:27:32Z</time></trkpt><trkpt lat="41.15350051659935" lon="15.022490593826832"><ele>424.25</ele><time>2026-03-22T10:27:33Z</time></trkpt><trkpt lat="41.1534650627468" lon="15.02267292687743"><ele>420.5</ele><time>2026-03-22T10:27:34Z</time></trkpt><trkpt lat="41.15344209296817" lon="15.02285780513584"><ele>416.75</ele><time>2026-03-22T10:27:35Z</time></trkpt><trkpt lat="41.15342271656866" lon="15.023044102653142"><ele>413.0</ele><time>2026-03-22T10:27:36Z</time></trkpt><trkpt lat="41.1534072329481" lon="15.02322911057179"><ele>410.75</ele><time>2026-03-22T10:27:37Z</time></trkpt><trkpt lat="41.153316581592826" lon="15.023408870467108"><ele>408.5</ele><time>2026-03-22T10:27:38Z</time></trkpt><trkpt lat="41.15330731027272" lon="15.023606125643045"><ele>406.25</ele><time>2026-03-22T10:27:39Z</time></trkpt><trkpt lat="41.15331210170187" lon="15.023781103771622"><ele>404.0</ele><time>2026-03-22T10:27:40Z</time></trkpt><trkpt lat="41.15332276961279" lon="15.02394967428421"><ele>401.25</ele><time>2026-03-22T10:27:41Z</time></trkpt><trkpt lat="41.15335813659361" lon="15.024152125687717"><ele>398.5</ele><time>2026-03-22T10:27:42Z</time></trkpt><trkpt lat="41.15340190583004" lon="15.024347555196588"><ele>395.75</ele><time>2026-03-22T10:27:43Z</time></trkpt><trkpt lat="41.15342967190104" lon="15.024515899176915"><ele>393.0</ele><time>2026-03-22T10:27:44Z</time></trkpt><trkpt lat="41.15343645305622" lon="15.024673610396482"><ele>393.0</ele><time>2026-03-22T10:27:45Z</time></trkpt><trkpt lat="41.153418141824886" lon="15.024828766884863"><ele>393.0</ele><time>2026-03-22T10:27:46Z</time></trkpt><trkpt lat="41.153431880255226" lon="15.024958573267112"><ele>393.0</ele><time>2026-03-22T10:27:47Z</time></trkpt><trkpt lat="41.15346683371704" lon="15.025070544017032"><ele>393.0</ele><time>2026-03-22T10:27:48Z</time></trkpt><trkpt lat="41.15351252645782" lon="15.025159814470337"><ele>393.0</ele><time>2026-03-22T10:27:49Z</time></trkpt><trkpt lat="41.15366118121589" lon="15.025135833114973"><ele>390.79999999999995</ele><time>2026-03-22T10:27:50Z</time></trkpt><trkpt lat="41.15371238260372" lon="15.02519108122787"><ele>388.6</ele><time>2026-03-22T10:27:51Z</time></trkpt><trkpt lat="41.15378932787699" lon="15.02518744955516"><ele>386.4</ele><time>2026-03-22T10:27:52Z</time></trkpt><trkpt lat="41.153825062611105" lon="15.025306500387897"><ele>384.20000000000005</ele><time>2026-03-22T10:27:53Z</time></trkpt><trkpt lat="41.15385896053622" lon="15.025437064127363"><ele>382.0</ele><time>2026-03-22T10:27:54Z</time></trkpt><trkpt lat="41.15391506809422" lon="15.025607630956289"><ele>382.0</ele><time>2026-03-22T10:27:55Z</time></trkpt><trkpt lat="41.153997951827634" lon="15.025789304922291"><ele>382.0</ele><time>2026-03-22T10:27:56Z</time></trkpt><trkpt lat="41.154079618971565" lon="15.025980783901732"><ele>382.0</ele><time>2026-03-22T10:27:57Z</time></trkpt><trkpt lat="41.154144437986474" lon="15.026166631228334"><ele>381.5</ele><time>2026-03-22T10:27:58Z</time></trkpt><trkpt lat="41.154156512542116" lon="15.026328372137947"><ele>381.0</ele><time>2026-03-22T10:27:59Z</time></trkpt><trkpt lat="41.154143389691924" lon="15.02650624349117"><ele>380.5</ele><time>2026-03-22T10:28:00Z</time></trkpt><trkpt lat="41.15415967565247" lon="15.026700711855316"><ele>380.0</ele><time>2026-03-22T10:28:01Z</time></trkpt><trkpt lat="41.154199190285944" lon="15.02687942205439"><ele>378.25</ele><time>2026-03-22T10:28:02Z</time></trkpt><trkpt lat="41.15425462003129" lon="15.027073882059126"><ele>376.5</ele><time>2026-03-22T10:28:03Z</time></trkpt><trkpt lat="41.154332446010315" lon="15.027248494464665"><ele>374.75</ele><time>2026-03-22T10:28:04Z</time></trkpt><trkpt lat="41.154371745085776" lon="15.027404757399427"><ele>373.0</ele><time>2026-03-22T10:28:05Z</time></trkpt><trkpt lat="41.154369016787555" lon="15.027555703963314"><ele>372.0</ele><time>2026-03-22T10:28:06Z</time></trkpt><trkpt lat="41.15437532015478" lon="15.027744804779156"><ele>371.0</ele><time>2026-03-22T10:28:07Z</time></trkpt><trkpt lat="41.154382551843305" lon="15.027940663174288"><ele>370.0</ele><time>2026-03-22T10:28:08Z</time></trkpt><trkpt lat="41.15439032679391" lon="15.028125516605684"><ele>369.0</ele><time>2026-03-22T10:28:09Z</time></trkpt><trkpt lat="41.15439770628795" lon="15.02830096790226"><ele>369.25</ele><time>2026-03-22T10:28:10Z</time></trkpt><trkpt lat="41.15440477642229" lon="15.028469064046508"><ele>369.5</ele><time>2026-03-22T10:28:11Z</time></trkpt><trkpt lat="41.15441182746617" lon="15.028636706256743"><ele>369.75</ele><time>2026-03-22T10:28:12Z</time></trkpt><trkpt lat="41.154417563002504" lon="15.028790196920733"><ele>370.0</ele><time>2026-03-22T10:28:13Z</time></trkpt><trkpt lat="41.154422972614626" lon="15.028941418371963"><ele>370.0</ele><time>2026-03-22T10:28:14Z</time></trkpt><trkpt lat="41.15443038035903" lon="15.029092295086373"><ele>370.0</ele><time>2026-03-22T10:28:15Z</time></trkpt><trkpt lat="41.1544460673955" lon="15.029241125674814"><ele>370.0</ele><time>2026-03-22T10:28:16Z</time></trkpt><trkpt lat="41.15445344139339" lon="15.029354194252827"><ele>370.0</ele><time>2026-03-22T10:28:17Z</time></trkpt><trkpt lat="41.15450987137155" lon="15.029532060790388"><ele>368.75</ele><time>2026-03-22T10:28:18Z</time></trkpt><trkpt lat="41.15454605589593" lon="15.029698666587645"><ele>367.5</ele><time>2026-03-22T10:28:19Z</time></trkpt><trkpt lat="41.15457440913064" lon="15.029880792087496"><ele>366.25</ele><time>2026-03-22T10:28:20Z</time></trkpt><trkpt lat="41.154614726390854" lon="15.030074081369248"><ele>365.0</ele><time>2026-03-22T10:28:21Z</time></trkpt><trkpt lat="41.154663108187535" lon="15.030236766395044"><ele>363.75</ele><time>2026-03-22T10:28:22Z</time></trkpt><trkpt lat="41.15475010934262" lon="15.030339329673001"><ele>362.5</ele><time>2026-03-22T10:28:23Z</time></trkpt><trkpt lat="41.15470825688775" lon="15.030513274102015"><ele>361.25</ele><time>2026-03-22T10:28:24Z</time></trkpt><trkpt lat="41.154710161959436" lon="15.03063987428424"><ele>360.0</ele><time>2026-03-22T10:28:25Z</time></trkpt><trkpt lat="41.154736594975525" lon="15.030789982377327"><ele>357.6</ele><time>2026-03-22T10:28:26Z</time></trkpt><trkpt lat="41.154750622769896" lon="15.030944553430537"><ele>355.2</ele><time>2026-03-22T10:28:27Z</time></trkpt><trkpt lat="41.15475828360799" lon="15.031060100787716"><ele>352.79999999999995</ele><time>2026-03-22T10:28:28Z</time></trkpt><trkpt lat="41.15477223202521" lon="15.031150922970324"><ele>350.4</ele><time>2026-03-22T10:28:29Z</time></trkpt><trkpt lat="41.15480199669335" lon="15.031306246232349"><ele>348.0</ele><time>2026-03-22T10:28:31Z</time></trkpt><trkpt lat="41.154839541674974" lon="15.031416370225845"><ele>347.59999999999997</ele><time>2026-03-22T10:28:32Z</time></trkpt><trkpt lat="41.154896379315275" lon="15.031563747281412"><ele>347.2</ele><time>2026-03-22T10:28:33Z</time></trkpt><trkpt lat="41.15493349480086" lon="15.031714918643635"><ele>346.8</ele><time>2026-03-22T10:28:34Z</time></trkpt><trkpt lat="41.15496733787871" lon="15.031833508526544"><ele>346.4</ele><time>2026-03-22T10:28:35Z</time></trkpt><trkpt lat="41.15499847764289" lon="15.031966763887127"><ele>346.0</ele><time>2026-03-22T10:28:36Z</time></trkpt><trkpt lat="41.15502764854082" lon="15.032088382870729"><ele>346.0</ele><time>2026-03-22T10:28:37Z</time></trkpt><trkpt lat="41.15503113890354" lon="15.032212362186995"><ele>346.0</ele><time>2026-03-22T10:28:38Z</time></trkpt><trkpt lat="41.15503079210703" lon="15.032337968809491"><ele>346.0</ele><time>2026-03-22T10:28:39Z</time></trkpt><trkpt lat="41.155052175278804" lon="15.0324498171819"><ele>346.0</ele><time>2026-03-22T10:28:40Z</time></trkpt><trkpt lat="41.15509603059371" lon="15.032529459550604"><ele>346.0</ele><time>2026-03-22T10:28:41Z</time></trkpt><trkpt lat="41.15513379436489" lon="15.032599561078348"><ele>346.0</ele><time>2026-03-22T10:28:45Z</time></trkpt><trkpt lat="41.15520105703501" lon="15.032604487360244"><ele>343.20000000000005</ele><time>2026-03-22T10:28:49Z</time></trkpt><trkpt lat="41.15529976931441" lon="15.03271381916016"><ele>340.40000000000003</ele><time>2026-03-22T10:28:51Z</time></trkpt><trkpt lat="41.15536582271347" lon="15.032804073489082"><ele>337.6</ele><time>2026-03-22T10:28:52Z</time></trkpt><trkpt lat="41.155439240766704" lon="15.032866792436646"><ele>334.8</ele><time>2026-03-22T10:28:53Z</time></trkpt><trkpt lat="41.15552743093254" lon="15.032899316309779"><ele>332.0</ele><time>2026-03-22T10:28:54Z</time></trkpt><trkpt lat="41.155623725828015" lon="15.032933678946025"><ele>332.83333333333337</ele><time>2026-03-22T10:28:55Z</time></trkpt><trkpt lat="41.155711512915985" lon="15.032964744249012"><ele>333.6666666666667</ele><time>2026-03-22T10:28:56Z</time></trkpt><trkpt lat="41.15580503448637" lon="15.032967655122048"><ele>334.5</ele><time>2026-03-22T10:28:57Z</time></trkpt><trkpt lat="41.15590868402504" lon="15.032953979145846"><ele>335.3333333333333</ele><time>2026-03-22T10:28:58Z</time></trkpt><trkpt lat="41.15599213008742" lon="15.032929229204585"><ele>336.16666666666663</ele><time>2026-03-22T10:28:59Z</time></trkpt><trkpt lat="41.156057574107216" lon="15.032894023756233"><ele>337.0</ele><time>2026-03-22T10:29:00Z</time></trkpt><trkpt lat="41.15612583867625" lon="15.032861332436656"><ele>337.0</ele><time>2026-03-22T10:29:01Z</time></trkpt><trkpt lat="41.156203390704476" lon="15.032824080572546"><ele>337.0</ele><time>2026-03-22T10:29:02Z</time></trkpt><trkpt lat="41.15629757356028" lon="15.032783534196813"><ele>337.0</ele><time>2026-03-22T10:29:03Z</time></trkpt><trkpt lat="41.1563826220638" lon="15.032743241414167"><ele>337.0</ele><time>2026-03-22T10:29:04Z</time></trkpt><trkpt lat="41.15644921573789" lon="15.032714918242869"><ele>337.0</ele><time>2026-03-22T10:29:05Z</time></trkpt><trkpt lat="41.15651931063212" lon="15.032680265451459"><ele>337.0</ele><time>2026-03-22T10:29:06Z</time></trkpt><trkpt lat="41.156588664590025" lon="15.032641253194774"><ele>336.66666666666663</ele><time>2026-03-22T10:29:07Z</time></trkpt><trkpt lat="41.15667931422761" lon="15.032578122863578"><ele>336.3333333333333</ele><time>2026-03-22T10:29:09Z</time></trkpt><trkpt lat="41.156732953485694" lon="15.032521786217934"><ele>336.0</ele><time>2026-03-22T10:29:10Z</time></trkpt><trkpt lat="41.15678065175101" lon="15.032455936998126"><ele>335.6666666666667</ele><time>2026-03-22T10:29:11Z</time></trkpt><trkpt lat="41.15683717662271" lon="15.03234419401729"><ele>335.33333333333337</ele><time>2026-03-22T10:29:12Z</time></trkpt><trkpt lat="41.15690351303186" lon="15.032231392241602"><ele>335.0</ele><time>2026-03-22T10:29:13Z</time></trkpt><trkpt lat="41.156990838711124" lon="15.032220896189711"><ele>337.33333333333337</ele><time>2026-03-22T10:29:15Z</time></trkpt><trkpt lat="41.15704998516659" lon="15.032249551979174"><ele>339.6666666666667</ele><time>2026-03-22T10:29:17Z</time></trkpt><trkpt lat="41.1571401229436" lon="15.032200392895787"><ele>342.0</ele><time>2026-03-22T10:29:20Z</time></trkpt><trkpt lat="41.15722354691902" lon="15.032174163363733"><ele>344.3333333333333</ele><time>2026-03-22T10:29:21Z</time></trkpt><trkpt lat="41.15728724052405" lon="15.032148055691632"><ele>346.66666666666663</ele><time>2026-03-22T10:29:22Z</time></trkpt><trkpt lat="41.15734530333395" lon="15.032207167322172"><ele>349.0</ele><time>2026-03-22T10:29:25Z</time></trkpt><trkpt lat="41.157465087263006" lon="15.032188008166303"><ele>349.25</ele><time>2026-03-22T10:29:27Z</time></trkpt><trkpt lat="41.157603217725956" lon="15.03218600502734"><ele>349.5</ele><time>2026-03-22T10:29:28Z</time></trkpt><trkpt lat="41.15770295163632" lon="15.032168160799849"><ele>349.75</ele><time>2026-03-22T10:29:29Z</time></trkpt><trkpt lat="41.157839785181665" lon="15.032120861647954"><ele>350.0</ele><time>2026-03-22T10:29:30Z</time></trkpt><trkpt lat="41.157967131583426" lon="15.032085729587482"><ele>350.0</ele><time>2026-03-22T10:29:31Z</time></trkpt><trkpt lat="41.158132123600126" lon="15.032052678900097"><ele>350.0</ele><time>2026-03-22T10:29:32Z</time></trkpt><trkpt lat="41.158338732483784" lon="15.032017388080941"><ele>350.0</ele><time>2026-03-22T10:29:33Z</time></trkpt><trkpt lat="41.158448051859864" lon="15.031936155285505"><ele>353.8</ele><time>2026-03-22T10:29:34Z</time></trkpt><trkpt lat="41.158527802951006" lon="15.031940615385048"><ele>357.6</ele><time>2026-03-22T10:29:35Z</time></trkpt><trkpt lat="41.1586856688635" lon="15.031950491893463"><ele>361.4</ele><time>2026-03-22T10:29:37Z</time></trkpt><trkpt lat="41.15881141767749" lon="15.031923370978056"><ele>365.2</ele><time>2026-03-22T10:29:39Z</time></trkpt><trkpt lat="41.15888696063346" lon="15.031961181105483"><ele>369.0</ele><time>2026-03-22T10:29:40Z</time></trkpt><trkpt lat="41.158939600505185" lon="15.032010155881803"><ele>369.0</ele><time>2026-03-22T10:29:41Z</time></trkpt><trkpt lat="41.158942248972856" lon="15.03215670912707"><ele>369.0</ele><time>2026-03-22T10:29:42Z</time></trkpt><trkpt lat="41.15894441085613" lon="15.03229109215918"><ele>369.0</ele><time>2026-03-22T10:29:43Z</time></trkpt><trkpt lat="41.15898538610397" lon="15.032372251930356"><ele>369.0</ele><time>2026-03-22T10:29:44Z</time></trkpt><trkpt lat="41.15888398698103" lon="15.032486027901234"><ele>369.0</ele><time>2026-03-22T10:29:46Z</time></trkpt><trkpt lat="41.158790227562235" lon="15.032539472926484"><ele>368.75</ele><time>2026-03-22T10:29:47Z</time></trkpt><trkpt lat="41.158793075330834" lon="15.032639120339603"><ele>368.5</ele><time>2026-03-22T10:29:49Z</time></trkpt><trkpt lat="41.15893596175121" lon="15.032549764249218"><ele>368.25</ele><time>2026-03-22T10:29:51Z</time></trkpt><trkpt lat="41.15906886720891" lon="15.032483583369206"><ele>368.0</ele><time>2026-03-22T10:29:52Z</time></trkpt><trkpt lat="41.159195862808254" lon="15.03236948836144"><ele>372.5</ele><time>2026-03-22T10:29:53Z</time></trkpt><trkpt lat="41.159340953531284" lon="15.032218470136382"><ele>377.0</ele><time>2026-03-22T10:29:54Z</time></trkpt><trkpt lat="41.159459702256314" lon="15.032084786881772"><ele>381.5</ele><time>2026-03-22T10:29:55Z</time></trkpt><trkpt lat="41.15953144923415" lon="15.032005583032364"><ele>386.0</ele><time>2026-03-22T10:29:56Z</time></trkpt><trkpt lat="41.1595609300935" lon="15.03190428195186"><ele>385.99999999999994</ele><time>2026-03-22T10:29:59Z</time></trkpt><trkpt lat="41.159576307524695" lon="15.03181010964061"><ele>386.0</ele><time>2026-03-22T10:30:00Z</time></trkpt><trkpt lat="41.1596087188644" lon="15.031715902908086"><ele>386.0</ele><time>2026-03-22T10:30:01Z</time></trkpt><trkpt lat="41.159676198668976" lon="15.031650721644"><ele>386.0</ele><time>2026-03-22T10:30:02Z</time></trkpt><trkpt lat="41.15977091758604" lon="15.03159235256902"><ele>385.99999999999994</ele><time>2026-03-22T10:30:03Z</time></trkpt><trkpt lat="41.15986290457892" lon="15.031558629392189"><ele>386.0</ele><time>2026-03-22T10:30:04Z</time></trkpt><trkpt lat="41.15994545506508" lon="15.031555912564098"><ele>387.8</ele><time>2026-03-22T10:30:05Z</time></trkpt><trkpt lat="41.16003705360229" lon="15.031596905038072"><ele>389.6</ele><time>2026-03-22T10:30:06Z</time></trkpt><trkpt lat="41.160103299556155" lon="15.03165989440449"><ele>391.4</ele><time>2026-03-22T10:30:07Z</time></trkpt><trkpt lat="41.16013710406421" lon="15.031756484530236"><ele>393.2</ele><time>2026-03-22T10:30:08Z</time></trkpt><trkpt lat="41.16015691521252" lon="15.031927815269666"><ele>395.0</ele><time>2026-03-22T10:30:09Z</time></trkpt><trkpt lat="41.160194295121094" lon="15.032147763778282"><ele>395.0</ele><time>2026-03-22T10:30:10Z</time></trkpt><trkpt lat="41.16025123948991" lon="15.032408517509998"><ele>395.0</ele><time>2026-03-22T10:30:11Z</time></trkpt><trkpt lat="41.16030205367762" lon="15.032662322598554"><ele>395.0</ele><time>2026-03-22T10:30:12Z</time></trkpt><trkpt lat="41.16032347005367" lon="15.032812895608359"><ele>395.25</ele><time>2026-03-22T10:30:13Z</time></trkpt><trkpt lat="41.16038014946373" lon="15.03295518237248"><ele>395.5</ele><time>2026-03-22T10:30:15Z</time></trkpt><trkpt lat="41.16047769656297" lon="15.033001488324713"><ele>395.75</ele><time>2026-03-22T10:30:16Z</time></trkpt><trkpt lat="41.160603579279986" lon="15.033081782267828"><ele>396.0</ele><time>2026-03-22T10:30:17Z</time></trkpt><trkpt lat="41.16073539344969" lon="15.033206046931891"><ele>399.6</ele><time>2026-03-22T10:30:18Z</time></trkpt><trkpt lat="41.160822106118545" lon="15.033309310605114"><ele>403.20000000000005</ele><time>2026-03-22T10:30:19Z</time></trkpt><trkpt lat="41.16089845491906" lon="15.033344649897925"><ele>406.79999999999995</ele><time>2026-03-22T10:30:21Z</time></trkpt><trkpt lat="41.16086696986593" lon="15.033471602514082"><ele>410.4</ele><time>2026-03-22T10:30:24Z</time></trkpt><trkpt lat="41.1607995982902" lon="15.033634534081642"><ele>414.0</ele><time>2026-03-22T10:30:27Z</time></trkpt><trkpt lat="41.160735006212946" lon="15.033770986974885"><ele>412.1666666666667</ele><time>2026-03-22T10:30:29Z</time></trkpt><trkpt lat="41.160673444996945" lon="15.033918992182565"><ele>410.33333333333337</ele><time>2026-03-22T10:30:31Z</time></trkpt><trkpt lat="41.16063958971549" lon="15.03399674938698"><ele>408.5</ele><time>2026-03-22T10:30:32Z</time></trkpt><trkpt lat="41.160603228210036" lon="15.034078099886043"><ele>406.6666666666667</ele><time>2026-03-22T10:30:33Z</time></trkpt><trkpt lat="41.16056534396711" lon="15.034157553408576"><ele>404.83333333333337</ele><time>2026-03-22T10:30:34Z</time></trkpt><trkpt lat="41.16051434517098" lon="15.034233500902733"><ele>403.0</ele><time>2026-03-22T10:30:35Z</time></trkpt><trkpt lat="41.16046093006226" lon="15.034311962284196"><ele>402.8571428571429</ele><time>2026-03-22T10:30:36Z</time></trkpt><trkpt lat="41.16041613936862" lon="15.03439200004123"><ele>402.71428571428567</ele><time>2026-03-22T10:30:37Z</time></trkpt><trkpt lat="41.160376210434144" lon="15.034478940617836"><ele>402.57142857142856</ele><time>2026-03-22T10:30:38Z</time></trkpt><trkpt lat="41.16033135683913" lon="15.034559025858774"><ele>402.42857142857144</ele><time>2026-03-22T10:30:39Z</time></trkpt><trkpt lat="41.160284382773035" lon="15.034631011140762"><ele>402.28571428571433</ele><time>2026-03-22T10:30:40Z</time></trkpt><trkpt lat="41.160233043901904" lon="15.034693939474634"><ele>402.1428571428571</ele><time>2026-03-22T10:30:41Z</time></trkpt><trkpt lat="41.160186402024266" lon="15.034769929240145"><ele>402.0</ele><time>2026-03-22T10:30:42Z</time></trkpt><trkpt lat="41.16013338973606" lon="15.034849907432251"><ele>402.0</ele><time>2026-03-22T10:30:43Z</time></trkpt><trkpt lat="41.16007592433485" lon="15.034933932919063"><ele>402.0</ele><time>2026-03-22T10:30:44Z</time></trkpt><trkpt lat="41.16001563207582" lon="15.035002475133915"><ele>402.0</ele><time>2026-03-22T10:30:45Z</time></trkpt><trkpt lat="41.15997622013305" lon="15.035068621101608"><ele>402.0</ele><time>2026-03-22T10:30:46Z</time></trkpt><trkpt lat="41.15991303645921" lon="15.035133258493609"><ele>402.0</ele><time>2026-03-22T10:30:47Z</time></trkpt><trkpt lat="41.15984670181485" lon="15.035202773313495"><ele>402.0</ele><time>2026-03-22T10:30:48Z</time></trkpt><trkpt lat="41.159785939443694" lon="15.035268336372408"><ele>399.1666666666667</ele><time>2026-03-22T10:30:49Z</time></trkpt><trkpt lat="41.15973125221984" lon="15.035336067133487"><ele>396.33333333333337</ele><time>2026-03-22T10:30:50Z</time></trkpt><trkpt lat="41.159673260512996" lon="15.035422293519195"><ele>393.5</ele><time>2026-03-22T10:30:51Z</time></trkpt><trkpt lat="41.15962578022583" lon="15.035520619228178"><ele>390.6666666666667</ele><time>2026-03-22T10:30:52Z</time></trkpt><trkpt lat="41.159581592195025" lon="15.035622764643541"><ele>387.83333333333337</ele><time>2026-03-22T10:30:53Z</time></trkpt><trkpt lat="41.15953234200905" lon="15.035721730507106"><ele>385.0</ele><time>2026-03-22T10:30:54Z</time></trkpt><trkpt lat="41.15947796572402" lon="15.035808053923063"><ele>383.50000000000006</ele><time>2026-03-22T10:30:55Z</time></trkpt><trkpt lat="41.159428201429215" lon="15.03589547489208"><ele>382.0</ele><time>2026-03-22T10:30:56Z</time></trkpt><trkpt lat="41.1593743412499" lon="15.035968670412473"><ele>380.5</ele><time>2026-03-22T10:30:57Z</time></trkpt><trkpt lat="41.15931581892968" lon="15.03603811862553"><ele>379.0</ele><time>2026-03-22T10:30:58Z</time></trkpt><trkpt lat="41.15925906196244" lon="15.036096755835244"><ele>377.5</ele><time>2026-03-22T10:30:59Z</time></trkpt><trkpt lat="41.15921003962004" lon="15.036165632639097"><ele>376.0</ele><time>2026-03-22T10:31:00Z</time></trkpt><trkpt lat="41.15916668060875" lon="15.036244223240047"><ele>376.0</ele><time>2026-03-22T10:31:01Z</time></trkpt><trkpt lat="41.15911924366465" lon="15.036309898299479"><ele>376.0</ele><time>2026-03-22T10:31:02Z</time></trkpt><trkpt lat="41.159061484756094" lon="15.036377519270925"><ele>376.0</ele><time>2026-03-22T10:31:03Z</time></trkpt><trkpt lat="41.159007788624244" lon="15.036440672672596"><ele>376.0</ele><time>2026-03-22T10:31:04Z</time></trkpt><trkpt lat="41.1589620100116" lon="15.036519234952301"><ele>376.0</ele><time>2026-03-22T10:31:05Z</time></trkpt><trkpt lat="41.15891524734048" lon="15.036619016550931"><ele>376.0</ele><time>2026-03-22T10:31:06Z</time></trkpt><trkpt lat="41.15888093437648" lon="15.036734178151276"><ele>371.66666666666663</ele><time>2026-03-22T10:31:07Z</time></trkpt><trkpt lat="41.15885862247571" lon="15.036841254510778"><ele>367.3333333333333</ele><time>2026-03-22T10:31:08Z</time></trkpt><trkpt lat="41.158834133391444" lon="15.036934510553417"><ele>363.0</ele><time>2026-03-22T10:31:09Z</time></trkpt><trkpt lat="41.15881162681069" lon="15.037018228747954"><ele>358.6666666666667</ele><time>2026-03-22T10:31:10Z</time></trkpt><trkpt lat="41.15883112519892" lon="15.037189534432342"><ele>354.33333333333337</ele><time>2026-03-22T10:31:12Z</time></trkpt><trkpt lat="41.15887644998427" lon="15.037279081034551"><ele>350.0</ele><time>2026-03-22T10:31:13Z</time></trkpt><trkpt lat="41.1589504551249" lon="15.037350086260789"><ele>350.0</ele><time>2026-03-22T10:31:14Z</time></trkpt><trkpt lat="41.159033365271505" lon="15.03742253427675"><ele>350.0</ele><time>2026-03-22T10:31:15Z</time></trkpt><trkpt lat="41.159109299563795" lon="15.037498098953682"><ele>350.0</ele><time>2026-03-22T10:31:16Z</time></trkpt><trkpt lat="41.15918880741133" lon="15.037582668945689"><ele>350.0</ele><time>2026-03-22T10:31:17Z</time></trkpt><trkpt lat="41.15925880516366" lon="15.037674365981632"><ele>350.0</ele><time>2026-03-22T10:31:18Z</time></trkpt><trkpt lat="41.15932087657009" lon="15.037759247350293"><ele>350.0</ele><time>2026-03-22T10:31:19Z</time></trkpt><trkpt lat="41.159369738384285" lon="15.037847818960396"><ele>350.0</ele><time>2026-03-22T10:31:20Z</time></trkpt><trkpt lat="41.159405483822304" lon="15.03794418691679"><ele>350.0</ele><time>2026-03-22T10:31:21Z</time></trkpt><trkpt lat="41.1594049567267" lon="15.038043426733934"><ele>350.0</ele><time>2026-03-22T10:31:22Z</time></trkpt><trkpt lat="41.159363939265106" lon="15.0381490508988"><ele>350.0</ele><time>2026-03-22T10:31:23Z</time></trkpt><trkpt lat="41.15931737679401" lon="15.038265256484328"><ele>350.0</ele><time>2026-03-22T10:31:24Z</time></trkpt><trkpt lat="41.15926857460018" lon="15.03840042432209"><ele>347.25</ele><time>2026-03-22T10:31:25Z</time></trkpt><trkpt lat="41.159159966925344" lon="15.038485114734247"><ele>344.5</ele><time>2026-03-22T10:31:26Z</time></trkpt><trkpt lat="41.15911097386482" lon="15.038613074929852"><ele>341.75</ele><time>2026-03-22T10:31:27Z</time></trkpt><trkpt lat="41.15906031448338" lon="15.038745387284111"><ele>339.0</ele><time>2026-03-22T10:31:28Z</time></trkpt><trkpt lat="41.1590086440947" lon="15.038879312591103"><ele>336.0</ele><time>2026-03-22T10:31:29Z</time></trkpt><trkpt lat="41.158951629361816" lon="15.03902359080073"><ele>333.0</ele><time>2026-03-22T10:31:30Z</time></trkpt><trkpt lat="41.15889593451064" lon="15.039164528899924"><ele>330.0</ele><time>2026-03-22T10:31:31Z</time></trkpt><trkpt lat="41.15884674909819" lon="15.039288994621826"><ele>327.0</ele><time>2026-03-22T10:31:32Z</time></trkpt><trkpt lat="41.158794670863045" lon="15.039420554234908"><ele>325.3333333333333</ele><time>2026-03-22T10:31:33Z</time></trkpt><trkpt lat="41.15874685948534" lon="15.0395410854191"><ele>323.6666666666667</ele><time>2026-03-22T10:31:34Z</time></trkpt><trkpt lat="41.15870207043537" lon="15.039653997362558"><ele>322.0</ele><time>2026-03-22T10:31:35Z</time></trkpt><trkpt lat="41.158658026982486" lon="15.039754946204287"><ele>320.33333333333337</ele><time>2026-03-22T10:31:36Z</time></trkpt><trkpt lat="41.15861388679161" lon="15.03983260310513"><ele>318.6666666666667</ele><time>2026-03-22T10:31:37Z</time></trkpt><trkpt lat="41.158567896785975" lon="15.039905330167866"><ele>317.0</ele><time>2026-03-22T10:31:38Z</time></trkpt><trkpt lat="41.15852816899692" lon="15.039970344988804"><ele>316.0</ele><time>2026-03-22T10:31:39Z</time></trkpt><trkpt lat="41.15848827490731" lon="15.040040610147647"><ele>315.0</ele><time>2026-03-22T10:31:41Z</time></trkpt><trkpt lat="41.158579860018186" lon="15.040167167350358"><ele>314.0</ele><time>2026-03-22T10:31:43Z</time></trkpt><trkpt lat="41.15867012621625" lon="15.040201440565523"><ele>313.0</ele><time>2026-03-22T10:32:37Z</time></trkpt><trkpt lat="41.15871231600567" lon="15.040271886331148"><ele>312.0</ele><time>2026-03-22T10:32:38Z</time></trkpt><trkpt lat="41.15875058972021" lon="15.040347342836503"><ele>311.0</ele><time>2026-03-22T10:32:39Z</time></trkpt><trkpt lat="41.15881024453029" lon="15.04042242191395"><ele>311.0</ele><time>2026-03-22T10:32:40Z</time></trkpt><trkpt lat="41.15889402164533" lon="15.040474372345871"><ele>311.0</ele><time>2026-03-22T10:32:41Z</time></trkpt><trkpt lat="41.158992512635585" lon="15.040521936721973"><ele>311.0</ele><time>2026-03-22T10:32:42Z</time></trkpt><trkpt lat="41.15907322294502" lon="15.040616556793184"><ele>311.0</ele><time>2026-03-22T10:32:43Z</time></trkpt><trkpt lat="41.159158048403036" lon="15.040696707687792"><ele>311.0</ele><time>2026-03-22T10:32:44Z</time></trkpt><trkpt lat="41.15923750195034" lon="15.040771784665647"><ele>312.8</ele><time>2026-03-22T10:32:45Z</time></trkpt><trkpt lat="41.15931660025569" lon="15.040848116033755"><ele>314.6</ele><time>2026-03-22T10:32:46Z</time></trkpt><trkpt lat="41.15939251537212" lon="15.040933467284844"><ele>316.4</ele><time>2026-03-22T10:32:47Z</time></trkpt><trkpt lat="41.159450284859886" lon="15.041015551028785"><ele>318.2</ele><time>2026-03-22T10:32:48Z</time></trkpt><trkpt lat="41.15954104849017" lon="15.041138905993307"><ele>320.0</ele><time>2026-03-22T10:32:50Z</time></trkpt><trkpt lat="41.15959859107391" lon="15.041206775152432"><ele>320.0</ele><time>2026-03-22T10:32:51Z</time></trkpt><trkpt lat="41.159648691203735" lon="15.04126883496318"><ele>320.0</ele><time>2026-03-22T10:32:52Z</time></trkpt><trkpt lat="41.1597130444849" lon="15.041348549162858"><ele>320.0</ele><time>2026-03-22T10:32:54Z</time></trkpt><trkpt lat="41.1597935436366" lon="15.041448258309295"><ele>320.0</ele><time>2026-03-22T10:32:56Z</time></trkpt><trkpt lat="41.15974105160016" lon="15.041744581413239"><ele>319.8</ele><time>2026-03-22T10:32:58Z</time></trkpt><trkpt lat="41.159742690784675" lon="15.041842508272717"><ele>319.6</ele><time>2026-03-22T10:32:59Z</time></trkpt><trkpt lat="41.15975396282854" lon="15.041953136844265"><ele>319.4</ele><time>2026-03-22T10:33:01Z</time></trkpt><trkpt lat="41.15978066990155" lon="15.042108732598201"><ele>319.2</ele><time>2026-03-22T10:33:03Z</time></trkpt><trkpt lat="41.15983983638592" lon="15.04227335059131"><ele>319.0</ele><time>2026-03-22T10:33:05Z</time></trkpt><trkpt lat="41.15990581904133" lon="15.042376127315755"><ele>319.79999999999995</ele><time>2026-03-22T10:33:06Z</time></trkpt><trkpt lat="41.159970281610626" lon="15.042462676868604"><ele>320.59999999999997</ele><time>2026-03-22T10:33:07Z</time></trkpt><trkpt lat="41.16003289887136" lon="15.042559341949685"><ele>321.4</ele><time>2026-03-22T10:33:08Z</time></trkpt><trkpt lat="41.160117546090014" lon="15.042677302162478"><ele>322.2</ele><time>2026-03-22T10:33:09Z</time></trkpt><trkpt lat="41.16020594595929" lon="15.042792629197065"><ele>323.0</ele><time>2026-03-22T10:33:10Z</time></trkpt><trkpt lat="41.160249038735635" lon="15.042908063577288"><ele>323.0</ele><time>2026-03-22T10:33:12Z</time></trkpt><trkpt lat="41.16020891878261" lon="15.043044250062751"><ele>323.0</ele><time>2026-03-22T10:33:14Z</time></trkpt><trkpt lat="41.160254477451204" lon="15.043179050042005"><ele>323.0</ele><time>2026-03-22T10:33:16Z</time></trkpt><trkpt lat="41.16032324737617" lon="15.0431988460715"><ele>323.0</ele><time>2026-03-22T10:33:17Z</time></trkpt><trkpt lat="41.160389636571" lon="15.043250641696897"><ele>323.0</ele><time>2026-03-22T10:33:18Z</time></trkpt><trkpt lat="41.16045705254269" lon="15.043337789895594"><ele>322.79999999999995</ele><time>2026-03-22T10:33:19Z</time></trkpt><trkpt lat="41.16054285026999" lon="15.043391889157723"><ele>322.6</ele><time>2026-03-22T10:33:20Z</time></trkpt><trkpt lat="41.16063516905853" lon="15.043429031101892"><ele>322.4</ele><time>2026-03-22T10:33:21Z</time></trkpt><trkpt lat="41.160715235315884" lon="15.04353360595801"><ele>322.20000000000005</ele><time>2026-03-22T10:33:23Z</time></trkpt><trkpt lat="41.160809102435486" lon="15.043590539088271"><ele>322.0</ele><time>2026-03-22T10:33:25Z</time></trkpt><trkpt lat="41.16090248968806" lon="15.043633482107522"><ele>323.66666666666663</ele><time>2026-03-22T10:33:26Z</time></trkpt><trkpt lat="41.16096634621021" lon="15.043691063725102"><ele>325.3333333333333</ele><time>2026-03-22T10:33:27Z</time></trkpt><trkpt lat="41.16103955802376" lon="15.04371522839112"><ele>327.0</ele><time>2026-03-22T10:33:28Z</time></trkpt><trkpt lat="41.1611355552705" lon="15.043743338093051"><ele>328.6666666666667</ele><time>2026-03-22T10:33:29Z</time></trkpt><trkpt lat="41.16122605015711" lon="15.043778208525119"><ele>330.33333333333337</ele><time>2026-03-22T10:33:30Z</time></trkpt><trkpt lat="41.16131334746824" lon="15.043813818004935"><ele>332.0</ele><time>2026-03-22T10:33:31Z</time></trkpt><trkpt lat="41.16141929250389" lon="15.043884692018585"><ele>332.0</ele><time>2026-03-22T10:33:32Z</time></trkpt><trkpt lat="41.16153129477123" lon="15.043968559459698"><ele>332.0</ele><time>2026-03-22T10:33:33Z</time></trkpt><trkpt lat="41.16164443382446" lon="15.04400594183982"><ele>332.0</ele><time>2026-03-22T10:33:34Z</time></trkpt><trkpt lat="41.161753670092686" lon="15.044026421210777"><ele>332.0</ele><time>2026-03-22T10:33:36Z</time></trkpt><trkpt lat="41.16184241683993" lon="15.04400271966698"><ele>332.0</ele><time>2026-03-22T10:33:37Z</time></trkpt><trkpt lat="41.161968321582734" lon="15.044009084985989"><ele>334.5</ele><time>2026-03-22T10:33:38Z</time></trkpt><trkpt lat="41.16211464864545" lon="15.043986465377326"><ele>337.0</ele><time>2026-03-22T10:33:39Z</time></trkpt><trkpt lat="41.16219177166413" lon="15.043987104862358"><ele>339.5</ele><time>2026-03-22T10:33:40Z</time></trkpt><trkpt lat="41.16228640229687" lon="15.044072551498354"><ele>342.0</ele><time>2026-03-22T10:33:42Z</time></trkpt><trkpt lat="41.16237492280679" lon="15.043962431408243"><ele>344.20000000000005</ele><time>2026-03-22T10:33:44Z</time></trkpt><trkpt lat="41.16247827025006" lon="15.043993852654278"><ele>346.4</ele><time>2026-03-22T10:33:46Z</time></trkpt><trkpt lat="41.16254656357996" lon="15.044048609007593"><ele>348.6</ele><time>2026-03-22T10:33:47Z</time></trkpt><trkpt lat="41.16262953927324" lon="15.04406529231757"><ele>350.79999999999995</ele><time>2026-03-22T10:33:48Z</time></trkpt><trkpt lat="41.16272915726232" lon="15.044119553592745"><ele>353.0</ele><time>2026-03-22T10:33:49Z</time></trkpt><trkpt lat="41.1628063133849" lon="15.044211450981805"><ele>353.33333333333337</ele><time>2026-03-22T10:33:50Z</time></trkpt><trkpt lat="41.162846820118396" lon="15.044298377698215"><ele>353.6666666666667</ele><time>2026-03-22T10:33:51Z</time></trkpt><trkpt lat="41.16286438495746" lon="15.04441235735847"><ele>354.0</ele><time>2026-03-22T10:33:52Z</time></trkpt><trkpt lat="41.16291177781055" lon="15.044497644779202"><ele>354.3333333333333</ele><time>2026-03-22T10:33:53Z</time></trkpt><trkpt lat="41.162987070931386" lon="15.044565838619167"><ele>354.66666666666663</ele><time>2026-03-22T10:33:54Z</time></trkpt><trkpt lat="41.1630836216171" lon="15.044616585935039"><ele>355.0</ele><time>2026-03-22T10:33:55Z</time></trkpt><trkpt lat="41.16314477593255" lon="15.044647835308835"><ele>355.0</ele><time>2026-03-22T10:33:56Z</time></trkpt><trkpt lat="41.16318084144554" lon="15.04477566222053"><ele>355.0</ele><time>2026-03-22T10:33:58Z</time></trkpt><trkpt lat="41.16318875894758" lon="15.044860643745622"><ele>355.0</ele><time>2026-03-22T10:33:59Z</time></trkpt><trkpt lat="41.16321420365621" lon="15.045016389962427"><ele>355.0</ele><time>2026-03-22T10:34:01Z</time></trkpt><trkpt lat="41.163241958567355" lon="15.045163752745529"><ele>355.0</ele><time>2026-03-22T10:34:03Z</time></trkpt><trkpt lat="41.16329630276408" lon="15.045249717768954"><ele>357.3333333333333</ele><time>2026-03-22T10:34:05Z</time></trkpt><trkpt lat="41.16336255394181" lon="15.04536082274558"><ele>359.66666666666663</ele><time>2026-03-22T10:34:07Z</time></trkpt><trkpt lat="41.16340311038783" lon="15.045428133853463"><ele>362.0</ele><time>2026-03-22T10:34:08Z</time></trkpt><trkpt lat="41.1634578403086" lon="15.04548846678167"><ele>364.3333333333333</ele><time>2026-03-22T10:34:09Z</time></trkpt><trkpt lat="41.16353059892707" lon="15.045541412825019"><ele>366.6666666666667</ele><time>2026-03-22T10:34:10Z</time></trkpt><trkpt lat="41.16359403698225" lon="15.04559850116568"><ele>369.0</ele><time>2026-03-22T10:34:11Z</time></trkpt><trkpt lat="41.16365780206836" lon="15.045672436545736"><ele>369.0</ele><time>2026-03-22T10:34:12Z</time></trkpt><trkpt lat="41.16371026791194" lon="15.045754300872817"><ele>369.0</ele><time>2026-03-22T10:34:13Z</time></trkpt><trkpt lat="41.1637920397414" lon="15.0458828722005"><ele>369.0</ele><time>2026-03-22T10:34:15Z</time></trkpt><trkpt lat="41.16385836377446" lon="15.045965011990486"><ele>369.0</ele><time>2026-03-22T10:34:16Z</time></trkpt><trkpt lat="41.16392096890675" lon="15.046054453644729"><ele>369.0</ele><time>2026-03-22T10:34:17Z</time></trkpt><trkpt lat="41.16396456567622" lon="15.046152355686932"><ele>367.6666666666667</ele><time>2026-03-22T10:34:18Z</time></trkpt><trkpt lat="41.163980564984286" lon="15.046279595236213"><ele>366.3333333333333</ele><time>2026-03-22T10:34:19Z</time></trkpt><trkpt lat="41.1639838915155" lon="15.046391855666217"><ele>365.0</ele><time>2026-03-22T10:34:20Z</time></trkpt><trkpt lat="41.163988716004084" lon="15.046486360955473"><ele>363.66666666666663</ele><time>2026-03-22T10:34:21Z</time></trkpt><trkpt lat="41.16400736149505" lon="15.046584705241257"><ele>362.3333333333333</ele><time>2026-03-22T10:34:22Z</time></trkpt><trkpt lat="41.1640524713252" lon="15.046656418401547"><ele>361.0</ele><time>2026-03-22T10:34:23Z</time></trkpt><trkpt lat="41.1641799550704" lon="15.0467302471051"><ele>361.0</ele><time>2026-03-22T10:34:25Z</time></trkpt><trkpt lat="41.16423812240168" lon="15.046762332250927"><ele>361.0</ele><time>2026-03-22T10:34:26Z</time></trkpt><trkpt lat="41.16423049354447" lon="15.046911306929957"><ele>361.0</ele><time>2026-03-22T10:34:28Z</time></trkpt><trkpt lat="41.164182516986585" lon="15.047039252752793"><ele>361.0</ele><time>2026-03-22T10:34:29Z</time></trkpt><trkpt lat="41.16413619191258" lon="15.047182718216378"><ele>361.0</ele><time>2026-03-22T10:34:30Z</time></trkpt><trkpt lat="41.164109141743324" lon="15.04730968461396"><ele>361.0</ele><time>2026-03-22T10:34:31Z</time></trkpt><trkpt lat="41.164109215085226" lon="15.047428199541978"><ele>361.0</ele><time>2026-03-22T10:34:32Z</time></trkpt><trkpt lat="41.164128501143196" lon="15.047538948698014"><ele>361.0</ele><time>2026-03-22T10:34:33Z</time></trkpt><trkpt lat="41.164161436925546" lon="15.047630871779159"><ele>361.0</ele><time>2026-03-22T10:34:34Z</time></trkpt><trkpt lat="41.16419843512705" lon="15.047703083304567"><ele>361.0</ele><time>2026-03-22T10:34:35Z</time></trkpt><trkpt lat="41.16429260933629" lon="15.047795773245632"><ele>361.0</ele><time>2026-03-22T10:34:37Z</time></trkpt><trkpt lat="41.164359351941215" lon="15.047826971761062"><ele>359.6</ele><time>2026-03-22T10:34:38Z</time></trkpt><trkpt lat="41.164473460724025" lon="15.047853534866341"><ele>358.20000000000005</ele><time>2026-03-22T10:34:39Z</time></trkpt><trkpt lat="41.16459523554371" lon="15.047913472025224"><ele>356.79999999999995</ele><time>2026-03-22T10:34:40Z</time></trkpt><trkpt lat="41.16470042481245" lon="15.04795098046693"><ele>355.4</ele><time>2026-03-22T10:34:41Z</time></trkpt><trkpt lat="41.16477652804562" lon="15.047931203731777"><ele>354.0</ele><time>2026-03-22T10:34:42Z</time></trkpt><trkpt lat="41.164848851721786" lon="15.047927487581912"><ele>356.6</ele><time>2026-03-22T10:34:43Z</time></trkpt><trkpt lat="41.16496881879049" lon="15.047966208516504"><ele>359.2</ele><time>2026-03-22T10:34:44Z</time></trkpt><trkpt lat="41.16508687794912" lon="15.04799605815638"><ele>361.8</ele><time>2026-03-22T10:34:45Z</time></trkpt><trkpt lat="41.16518074122784" lon="15.048011981191877"><ele>364.40000000000003</ele><time>2026-03-22T10:34:46Z</time></trkpt><trkpt lat="41.16523945227771" lon="15.04804312472437"><ele>367.0</ele><time>2026-03-22T10:34:47Z</time></trkpt><trkpt lat="41.165244310287676" lon="15.048132201839373"><ele>367.0</ele><time>2026-03-22T10:34:49Z</time></trkpt><trkpt lat="41.16519650282425" lon="15.048195495574298"><ele>367.0</ele><time>2026-03-22T10:34:50Z</time></trkpt><trkpt lat="41.16512120683799" lon="15.048257547455881"><ele>367.0</ele><time>2026-03-22T10:34:51Z</time></trkpt><trkpt lat="41.165068337791645" lon="15.04840766487802"><ele>367.0</ele><time>2026-03-22T10:34:53Z</time></trkpt><trkpt lat="41.16510723887917" lon="15.048505686571309"><ele>367.0</ele><time>2026-03-22T10:34:54Z</time></trkpt><trkpt lat="41.165191832948615" lon="15.048638577816465"><ele>364.3333333333333</ele><time>2026-03-22T10:34:55Z</time></trkpt><trkpt lat="41.16524246434703" lon="15.048754296983878"><ele>361.66666666666663</ele><time>2026-03-22T10:34:56Z</time></trkpt><trkpt lat="41.165262780010885" lon="15.048847828474104"><ele>359.0</ele><time>2026-03-22T10:34:57Z</time></trkpt><trkpt lat="41.16528378350048" lon="15.048927598328468"><ele>356.3333333333333</ele><time>2026-03-22T10:34:58Z</time></trkpt><trkpt lat="41.165357476803145" lon="15.04901581103687"><ele>353.6666666666667</ele><time>2026-03-22T10:35:00Z</time></trkpt><trkpt lat="41.1654575370321" lon="15.04895175145028"><ele>351.0</ele><time>2026-03-22T10:35:02Z</time></trkpt><trkpt lat="41.165506009733036" lon="15.048894125082834"><ele>351.0</ele><time>2026-03-22T10:35:03Z</time></trkpt><trkpt lat="41.165552800482665" lon="15.048755794487162"><ele>351.0</ele><time>2026-03-22T10:35:05Z</time></trkpt><trkpt lat="41.165527197381216" lon="15.048620049185917"><ele>351.0</ele><time>2026-03-22T10:35:07Z</time></trkpt><trkpt lat="41.165587529648874" lon="15.04857397994263"><ele>351.0</ele><time>2026-03-22T10:35:10Z</time></trkpt><trkpt lat="41.16571350842872" lon="15.048613143980493"><ele>351.0</ele><time>2026-03-22T10:35:12Z</time></trkpt><trkpt lat="41.16577391085442" lon="15.048663621269064"><ele>351.5</ele><time>2026-03-22T10:35:13Z</time></trkpt><trkpt lat="41.16584684122115" lon="15.048726626492627"><ele>352.0</ele><time>2026-03-22T10:35:14Z</time></trkpt><trkpt lat="41.16594648644819" lon="15.048792830832433"><ele>352.5</ele><time>2026-03-22T10:35:15Z</time></trkpt><trkpt lat="41.1660656184578" lon="15.048920556515357"><ele>353.0</ele><time>2026-03-22T10:35:16Z</time></trkpt><trkpt lat="41.16614654570913" lon="15.04900119050485"><ele>353.0</ele><time>2026-03-22T10:35:17Z</time></trkpt><trkpt lat="41.1662276949619" lon="15.04900466977688"><ele>353.0</ele><time>2026-03-22T10:35:18Z</time></trkpt><trkpt lat="41.16621329149285" lon="15.049094387591698"><ele>353.0</ele><time>2026-03-22T10:35:19Z</time></trkpt><trkpt lat="41.166201904803124" lon="15.04922797404188"><ele>353.0</ele><time>2026-03-22T10:35:20Z</time></trkpt><trkpt lat="41.1662807069124" lon="15.049367855599364"><ele>353.0</ele><time>2026-03-22T10:35:21Z</time></trkpt><trkpt lat="41.16636773841245" lon="15.049505721139152"><ele>353.33333333333337</ele><time>2026-03-22T10:35:22Z</time></trkpt><trkpt lat="41.16643955530337" lon="15.049592572261945"><ele>353.6666666666667</ele><time>2026-03-22T10:35:23Z</time></trkpt><trkpt lat="41.16653442910268" lon="15.049684594813726"><ele>354.0</ele><time>2026-03-22T10:35:24Z</time></trkpt><trkpt lat="41.16660255920151" lon="15.049737743428963"><ele>354.3333333333333</ele><time>2026-03-22T10:35:25Z</time></trkpt><trkpt lat="41.166668886779476" lon="15.049760754967089"><ele>354.66666666666663</ele><time>2026-03-22T10:35:26Z</time></trkpt><trkpt lat="41.16672748543628" lon="15.049712266510479"><ele>355.0</ele><time>2026-03-22T10:35:27Z</time></trkpt><trkpt lat="41.166721238166545" lon="15.04979876300876"><ele>356.5</ele><time>2026-03-22T10:35:28Z</time></trkpt><trkpt lat="41.166703332221594" lon="15.04989898809078"><ele>358.0</ele><time>2026-03-22T10:35:33Z</time></trkpt><trkpt lat="41.16662789333936" lon="15.0500637331402"><ele>359.5</ele><time>2026-03-22T10:35:36Z</time></trkpt><trkpt lat="41.166640725256855" lon="15.050146509802017"><ele>361.0</ele><time>2026-03-22T10:35:38Z</time></trkpt><trkpt lat="41.16670683830013" lon="15.05012599077111"><ele>362.5</ele><time>2026-03-22T10:35:40Z</time></trkpt><trkpt lat="41.166754960524315" lon="15.050059242362744"><ele>364.0</ele><time>2026-03-22T10:35:42Z</time></trkpt><trkpt lat="41.166807833991726" lon="15.050105737171519"><ele>364.0</ele><time>2026-03-22T10:35:44Z</time></trkpt><trkpt lat="41.16683366547987" lon="15.050189304844304"><ele>364.0</ele><time>2026-03-22T10:35:46Z</time></trkpt><trkpt lat="41.16696349833674" lon="15.050225038200944"><ele>364.0</ele><time>2026-03-22T10:35:48Z</time></trkpt><trkpt lat="41.16704069711931" lon="15.050222710508947"><ele>364.0</ele><time>2026-03-22T10:35:49Z</time></trkpt><trkpt lat="41.16711532554033" lon="15.050178984157801"><ele>364.0</ele><time>2026-03-22T10:35:50Z</time></trkpt><trkpt lat="41.167168713828545" lon="15.050102428305205"><ele>364.0</ele><time>2026-03-22T10:35:51Z</time></trkpt><trkpt lat="41.167208265294136" lon="15.04997863733061"><ele>365.25</ele><time>2026-03-22T10:35:52Z</time></trkpt><trkpt lat="41.16717125674802" lon="15.049733693863711"><ele>366.5</ele><time>2026-03-22T10:35:53Z</time></trkpt><trkpt lat="41.16724477469493" lon="15.049609551300136"><ele>367.75</ele><time>2026-03-22T10:35:54Z</time></trkpt><trkpt lat="41.16722295126507" lon="15.049479139165008"><ele>369.0</ele><time>2026-03-22T10:35:55Z</time></trkpt><trkpt lat="41.16718157270881" lon="15.049386146516769"><ele>369.0</ele><time>2026-03-22T10:35:56Z</time></trkpt><trkpt lat="41.167129860578804" lon="15.049259991742835"><ele>369.0</ele><time>2026-03-22T10:35:57Z</time></trkpt><trkpt lat="41.16710964628411" lon="15.049154350835721"><ele>369.0</ele><time>2026-03-22T10:35:58Z</time></trkpt><trkpt lat="41.16710146715451" lon="15.049029319507621"><ele>369.0</ele><time>2026-03-22T10:35:59Z</time></trkpt><trkpt lat="41.16714823055138" lon="15.048916944873813"><ele>369.0</ele><time>2026-03-22T10:36:00Z</time></trkpt><trkpt lat="41.167190028296396" lon="15.048822178044233"><ele>369.2</ele><time>2026-03-22T10:36:01Z</time></trkpt><trkpt lat="41.1673091600304" lon="15.048861022928655"><ele>369.4</ele><time>2026-03-22T10:36:04Z</time></trkpt><trkpt lat="41.16738898683649" lon="15.048907047252028"><ele>369.6</ele><time>2026-03-22T10:36:05Z</time></trkpt><trkpt lat="41.167485544983" lon="15.048945429791246"><ele>369.8</ele><time>2026-03-22T10:36:06Z</time></trkpt><trkpt lat="41.16761066460636" lon="15.048988926415163"><ele>370.0</ele><time>2026-03-22T10:36:07Z</time></trkpt><trkpt lat="41.1677156506251" lon="15.049003915038426"><ele>376.75</ele><time>2026-03-22T10:36:08Z</time></trkpt><trkpt lat="41.16784589573233" lon="15.049023466016042"><ele>383.5</ele><time>2026-03-22T10:36:09Z</time></trkpt><trkpt lat="41.16796065551455" lon="15.049065993810226"><ele>390.25</ele><time>2026-03-22T10:36:10Z</time></trkpt><trkpt lat="41.1680918206852" lon="15.049122080785533"><ele>397.0</ele><time>2026-03-22T10:36:11Z</time></trkpt><trkpt lat="41.16819946262579" lon="15.049153348608426"><ele>402.0</ele><time>2026-03-22T10:36:12Z</time></trkpt><trkpt lat="41.1683066368691" lon="15.049142480447596"><ele>407.0</ele><time>2026-03-22T10:36:13Z</time></trkpt><trkpt lat="41.168408268224944" lon="15.049094895182812"><ele>412.0</ele><time>2026-03-22T10:36:14Z</time></trkpt><trkpt lat="41.16853152777738" lon="15.04903851878521"><ele>417.0</ele><time>2026-03-22T10:36:15Z</time></trkpt><trkpt lat="41.168690661099006" lon="15.049015623499114"><ele>417.0</ele><time>2026-03-22T10:36:16Z</time></trkpt><trkpt lat="41.16887218004356" lon="15.048996506747919"><ele>417.0</ele><time>2026-03-22T10:36:17Z</time></trkpt><trkpt lat="41.16904358548681" lon="15.04898070850799"><ele>417.0</ele><time>2026-03-22T10:36:18Z</time></trkpt><trkpt lat="41.169166594755886" lon="15.048980047031293"><ele>420.8</ele><time>2026-03-22T10:36:19Z</time></trkpt><trkpt lat="41.16926540884205" lon="15.048987944127504"><ele>424.6</ele><time>2026-03-22T10:36:20Z</time></trkpt><trkpt lat="41.169328695093995" lon="15.04901669907792"><ele>428.40000000000003</ele><time>2026-03-22T10:36:21Z</time></trkpt><trkpt lat="41.16936836496529" lon="15.049104916167904"><ele>432.20000000000005</ele><time>2026-03-22T10:36:22Z</time></trkpt><trkpt lat="41.169410449337875" lon="15.049239063050665"><ele>436.0</ele><time>2026-03-22T10:36:23Z</time></trkpt><trkpt lat="41.16947753118301" lon="15.049370776981458"><ele>437.0</ele><time>2026-03-22T10:36:24Z</time></trkpt><trkpt lat="41.16955420867936" lon="15.049512106364968"><ele>438.0</ele><time>2026-03-22T10:36:25Z</time></trkpt><trkpt lat="41.16962499039163" lon="15.049686401596004"><ele>439.0</ele><time>2026-03-22T10:36:26Z</time></trkpt><trkpt lat="41.169680736852285" lon="15.049832519609424"><ele>440.0</ele><time>2026-03-22T10:36:27Z</time></trkpt><trkpt lat="41.16973507079279" lon="15.049946014942915"><ele>439.25</ele><time>2026-03-22T10:36:28Z</time></trkpt><trkpt lat="41.16980018199521" lon="15.050046693099535"><ele>438.5</ele><time>2026-03-22T10:36:29Z</time></trkpt><trkpt lat="41.16989500470677" lon="15.050177028723716"><ele>437.75</ele><time>2026-03-22T10:36:30Z</time></trkpt><trkpt lat="41.170002527428686" lon="15.050297975754864"><ele>437.0</ele><time>2026-03-22T10:36:31Z</time></trkpt><trkpt lat="41.17008212460896" lon="15.050407346592173"><ele>439.20000000000005</ele><time>2026-03-22T10:36:32Z</time></trkpt><trkpt lat="41.17014084872626" lon="15.050520745600847"><ele>441.40000000000003</ele><time>2026-03-22T10:36:33Z</time></trkpt><trkpt lat="41.17019555769661" lon="15.050645685288433"><ele>443.59999999999997</ele><time>2026-03-22T10:36:34Z</time></trkpt><trkpt lat="41.17024269645509" lon="15.050753644001638"><ele>445.79999999999995</ele><time>2026-03-22T10:36:35Z</time></trkpt><trkpt lat="41.17033654367767" lon="15.050858758932252"><ele>448.0</ele><time>2026-03-22T10:36:37Z</time></trkpt><trkpt lat="41.170427947494126" lon="15.050900336736493"><ele>448.0</ele><time>2026-03-22T10:36:38Z</time></trkpt><trkpt lat="41.170539493371734" lon="15.050980846457692"><ele>448.0</ele><time>2026-03-22T10:36:39Z</time></trkpt><trkpt lat="41.17065081755006" lon="15.051062483931384"><ele>448.0</ele><time>2026-03-22T10:36:40Z</time></trkpt><trkpt lat="41.17075936179498" lon="15.051133915976562"><ele>448.0</ele><time>2026-03-22T10:36:41Z</time></trkpt><trkpt lat="41.17084991048563" lon="15.051164307292982"><ele>451.79999999999995</ele><time>2026-03-22T10:36:42Z</time></trkpt><trkpt lat="41.17094600299706" lon="15.0511525246557"><ele>455.59999999999997</ele><time>2026-03-22T10:36:43Z</time></trkpt><trkpt lat="41.17104193963847" lon="15.051124804261363"><ele>459.40000000000003</ele><time>2026-03-22T10:36:44Z</time></trkpt><trkpt lat="41.17113594156736" lon="15.051065930400373"><ele>463.20000000000005</ele><time>2026-03-22T10:36:45Z</time></trkpt><trkpt lat="41.171220347806425" lon="15.050995958881556"><ele>467.0</ele><time>2026-03-22T10:36:46Z</time></trkpt><trkpt lat="41.17130652185402" lon="15.050902462927594"><ele>467.0</ele><time>2026-03-22T10:36:47Z</time></trkpt><trkpt lat="41.171377917909766" lon="15.050798497388687"><ele>467.0</ele><time>2026-03-22T10:36:48Z</time></trkpt><trkpt lat="41.17144750786709" lon="15.050672589219573"><ele>467.0</ele><time>2026-03-22T10:36:49Z</time></trkpt><trkpt lat="41.17151209268737" lon="15.050512461983953"><ele>467.0</ele><time>2026-03-22T10:36:50Z</time></trkpt><trkpt lat="41.171583330970435" lon="15.050331811939635"><ele>470.25</ele><time>2026-03-22T10:36:51Z</time></trkpt><trkpt lat="41.1716628392456" lon="15.050151681701953"><ele>473.5</ele><time>2026-03-22T10:36:52Z</time></trkpt><trkpt lat="41.1717421756998" lon="15.049995212494597"><ele>476.75</ele><time>2026-03-22T10:36:53Z</time></trkpt><trkpt lat="41.171803496800976" lon="15.049870212704041"><ele>480.0</ele><time>2026-03-22T10:36:54Z</time></trkpt><trkpt lat="41.17184465651786" lon="15.049766603565109"><ele>482.2</ele><time>2026-03-22T10:36:55Z</time></trkpt><trkpt lat="41.17190602861504" lon="15.04966625304215"><ele>484.4</ele><time>2026-03-22T10:36:56Z</time></trkpt><trkpt lat="41.17198076898223" lon="15.04956592161269"><ele>486.6</ele><time>2026-03-22T10:36:57Z</time></trkpt><trkpt lat="41.17206495329817" lon="15.049471518811023"><ele>488.8</ele><time>2026-03-22T10:36:58Z</time></trkpt><trkpt lat="41.17214922720857" lon="15.049365443112876"><ele>491.0</ele><time>2026-03-22T10:36:59Z</time></trkpt><trkpt lat="41.17220919521949" lon="15.049298307321891"><ele>491.0</ele><time>2026-03-22T10:37:00Z</time></trkpt><trkpt lat="41.17226650835284" lon="15.049191490274286"><ele>491.0</ele><time>2026-03-22T10:37:02Z</time></trkpt><trkpt lat="41.172300964447594" lon="15.049118196316819"><ele>491.0</ele><time>2026-03-22T10:37:04Z</time></trkpt><trkpt lat="41.172364412544376" lon="15.049107855332284"><ele>491.0</ele><time>2026-03-22T10:37:08Z</time></trkpt><trkpt lat="41.1724830937064" lon="15.048931530516732"><ele>491.0</ele><time>2026-03-22T10:37:10Z</time></trkpt><trkpt lat="41.17256271903743" lon="15.048893523880079"><ele>490.75</ele><time>2026-03-22T10:37:12Z</time></trkpt><trkpt lat="41.17264696248824" lon="15.048948583928848"><ele>490.5</ele><time>2026-03-22T10:37:16Z</time></trkpt><trkpt lat="41.17260560207633" lon="15.049155588231118"><ele>490.25</ele><time>2026-03-22T10:37:18Z</time></trkpt><trkpt lat="41.172600877916224" lon="15.04934492566464"><ele>490.0</ele><time>2026-03-22T10:37:19Z</time></trkpt><trkpt lat="41.17260687959812" lon="15.049497674786842"><ele>490.0</ele><time>2026-03-22T10:37:20Z</time></trkpt><trkpt lat="41.17260645622491" lon="15.049640756468737"><ele>490.0</ele><time>2026-03-22T10:37:21Z</time></trkpt><trkpt lat="41.17261651117872" lon="15.049754096788655"><ele>490.0</ele><time>2026-03-22T10:37:22Z</time></trkpt><trkpt lat="41.172639944305864" lon="15.049876985582799"><ele>490.0</ele><time>2026-03-22T10:37:23Z</time></trkpt><trkpt lat="41.17265818015736" lon="15.049983248398918"><ele>490.0</ele><time>2026-03-22T10:37:24Z</time></trkpt><trkpt lat="41.17271525510608" lon="15.050116091806434"><ele>492.8</ele><time>2026-03-22T10:37:26Z</time></trkpt><trkpt lat="41.17284569533064" lon="15.050173233882877"><ele>495.6</ele><time>2026-03-22T10:37:28Z</time></trkpt><trkpt lat="41.17295969049313" lon="15.050143398399896"><ele>498.4</ele><time>2026-03-22T10:37:30Z</time></trkpt><trkpt lat="41.17302211953133" lon="15.050085921112494"><ele>501.2</ele><time>2026-03-22T10:37:32Z</time></trkpt><trkpt lat="41.173096407161026" lon="15.050071109670109"><ele>504.0</ele><time>2026-03-22T10:37:35Z</time></trkpt><trkpt lat="41.17320063938553" lon="15.050065320029189"><ele>504.0</ele><time>2026-03-22T10:37:37Z</time></trkpt><trkpt lat="41.173269762996235" lon="15.05006136979924"><ele>504.0</ele><time>2026-03-22T10:37:38Z</time></trkpt><trkpt lat="41.17333758259997" lon="15.050079124487356"><ele>504.0</ele><time>2026-03-22T10:37:39Z</time></trkpt><trkpt lat="41.17338310657613" lon="15.050143820519867"><ele>504.0</ele><time>2026-03-22T10:37:40Z</time></trkpt><trkpt lat="41.17337254064817" lon="15.050243736321534"><ele>504.0</ele><time>2026-03-22T10:37:41Z</time></trkpt><trkpt lat="41.17337992350282" lon="15.050354551927073"><ele>504.0</ele><time>2026-03-22T10:37:42Z</time></trkpt><trkpt lat="41.17341941638401" lon="15.05046496698555"><ele>504.0</ele><time>2026-03-22T10:37:43Z</time></trkpt><trkpt lat="41.17345451773024" lon="15.050576194074853"><ele>504.0</ele><time>2026-03-22T10:37:44Z</time></trkpt><trkpt lat="41.173461509276926" lon="15.050662961264237"><ele>504.0</ele><time>2026-03-22T10:37:45Z</time></trkpt><trkpt lat="41.17352377707017" lon="15.050747559965703"><ele>504.0</ele><time>2026-03-22T10:37:48Z</time></trkpt><trkpt lat="41.17354065270008" lon="15.051052465389262"><ele>502.5</ele><time>2026-03-22T10:37:51Z</time></trkpt><trkpt lat="41.173528493613254" lon="15.05120904823111"><ele>501.0</ele><time>2026-03-22T10:37:52Z</time></trkpt><trkpt lat="41.17352732254407" lon="15.05141356724598"><ele>499.5</ele><time>2026-03-22T10:37:53Z</time></trkpt><trkpt lat="41.17350603630001" lon="15.051580821197266"><ele>498.0</ele><time>2026-03-22T10:37:54Z</time></trkpt><trkpt lat="41.17349975148547" lon="15.051735386479873"><ele>496.75</ele><time>2026-03-22T10:37:55Z</time></trkpt><trkpt lat="41.17351505889332" lon="15.051896822936934"><ele>495.5</ele><time>2026-03-22T10:37:56Z</time></trkpt><trkpt lat="41.17356137528514" lon="15.052046232162013"><ele>494.25</ele><time>2026-03-22T10:37:57Z</time></trkpt><trkpt lat="41.17361003942635" lon="15.05218064103078"><ele>493.0</ele><time>2026-03-22T10:37:58Z</time></trkpt><trkpt lat="41.1736508703405" lon="15.052311882234932"><ele>493.0</ele><time>2026-03-22T10:37:59Z</time></trkpt><trkpt lat="41.17376818357134" lon="15.052360838929735"><ele>492.99999999999994</ele><time>2026-03-22T10:38:01Z</time></trkpt><trkpt lat="41.17385055972809" lon="15.052398803543495"><ele>492.99999999999994</ele><time>2026-03-22T10:38:02Z</time></trkpt><trkpt lat="41.17391140537104" lon="15.052440892912731"><ele>493.0</ele><time>2026-03-22T10:38:03Z</time></trkpt><trkpt lat="41.173894490490305" lon="15.052534762124557"><ele>493.0</ele><time>2026-03-22T10:38:04Z</time></trkpt><trkpt lat="41.17391341924467" lon="15.052705607652051"><ele>492.2</ele><time>2026-03-22T10:38:06Z</time></trkpt><trkpt lat="41.17392675792331" lon="15.052819658849772"><ele>491.4</ele><time>2026-03-22T10:38:07Z</time></trkpt><trkpt lat="41.173902366347185" lon="15.052959648845283"><ele>490.59999999999997</ele><time>2026-03-22T10:38:09Z</time></trkpt><trkpt lat="41.17387321779766" lon="15.053109915214106"><ele>489.79999999999995</ele><time>2026-03-22T10:38:10Z</time></trkpt><trkpt lat="41.173868260264115" lon="15.053211309889226"><ele>489.0</ele><time>2026-03-22T10:38:11Z</time></trkpt><trkpt lat="41.173831877841856" lon="15.053313839656772"><ele>488.0</ele><time>2026-03-22T10:38:12Z</time></trkpt><trkpt lat="41.17377152725986" lon="15.053401528471984"><ele>487.0</ele><time>2026-03-22T10:38:13Z</time></trkpt><trkpt lat="41.173721744125494" lon="15.053508749008728"><ele>486.0</ele><time>2026-03-22T10:38:14Z</time></trkpt><trkpt lat="41.17367140119295" lon="15.053618026020173"><ele>485.0</ele><time>2026-03-22T10:38:15Z</time></trkpt><trkpt lat="41.1736206071906" lon="15.053721470350284"><ele>484.0</ele><time>2026-03-22T10:38:16Z</time></trkpt><trkpt lat="41.17357291011473" lon="15.053824920063011"><ele>484.00000000000006</ele><time>2026-03-22T10:38:17Z</time></trkpt><trkpt lat="41.17352175425547" lon="15.053919698394544"><ele>484.0</ele><time>2026-03-22T10:38:18Z</time></trkpt><trkpt lat="41.173483420225416" lon="15.054004584910484"><ele>484.0</ele><time>2026-03-22T10:38:19Z</time></trkpt><trkpt lat="41.17342654472313" lon="15.054126794528903"><ele>484.0</ele><time>2026-03-22T10:38:21Z</time></trkpt><trkpt lat="41.17334728498025" lon="15.05413764201394"><ele>484.00000000000006</ele><time>2026-03-22T10:38:23Z</time></trkpt><trkpt lat="41.17327771481209" lon="15.054092420979032"><ele>484.0</ele><time>2026-03-22T10:38:24Z</time></trkpt><trkpt lat="41.173182064379795" lon="15.0540966834828"><ele>479.33333333333337</ele><time>2026-03-22T10:38:25Z</time></trkpt><trkpt lat="41.1731087659775" lon="15.054117148020136"><ele>474.6666666666667</ele><time>2026-03-22T10:38:26Z</time></trkpt><trkpt lat="41.17304962901841" lon="15.05416693524425"><ele>470.0</ele><time>2026-03-22T10:38:27Z</time></trkpt><trkpt lat="41.17300828376744" lon="15.054262683807012"><ele>465.33333333333337</ele><time>2026-03-22T10:38:28Z</time></trkpt><trkpt lat="41.17297995235415" lon="15.054403986286589"><ele>460.6666666666667</ele><time>2026-03-22T10:38:29Z</time></trkpt><trkpt lat="41.17295333673273" lon="15.05452338189828"><ele>456.0</ele><time>2026-03-22T10:38:30Z</time></trkpt><trkpt lat="41.17292036856023" lon="15.054625287362684"><ele>456.0</ele><time>2026-03-22T10:38:31Z</time></trkpt><trkpt lat="41.172902100037334" lon="15.05471258229455"><ele>456.0</ele><time>2026-03-22T10:38:32Z</time></trkpt><trkpt lat="41.1728834013515" lon="15.054813548046491"><ele>456.0</ele><time>2026-03-22T10:38:33Z</time></trkpt><trkpt lat="41.1728571282143" lon="15.054900215550822"><ele>456.0</ele><time>2026-03-22T10:38:34Z</time></trkpt><trkpt lat="41.17282642356284" lon="15.054976974024092"><ele>456.0</ele><time>2026-03-22T10:38:35Z</time></trkpt><trkpt lat="41.17282924801814" lon="15.055092479507296"><ele>456.0</ele><time>2026-03-22T10:38:37Z</time></trkpt><trkpt lat="41.17289764316166" lon="15.055155139255483"><ele>454.8333333333333</ele><time>2026-03-22T10:38:40Z</time></trkpt><trkpt lat="41.17296014521607" lon="15.055192809506146"><ele>453.66666666666663</ele><time>2026-03-22T10:38:42Z</time></trkpt><trkpt lat="41.17295566534922" lon="15.05531374075805"><ele>452.5</ele><time>2026-03-22T10:38:44Z</time></trkpt><trkpt lat="41.17298074280748" lon="15.055403461911961"><ele>451.3333333333333</ele><time>2026-03-22T10:38:45Z</time></trkpt><trkpt lat="41.17291929089889" lon="15.055527566762386"><ele>450.16666666666663</ele><time>2026-03-22T10:38:47Z</time></trkpt><trkpt lat="41.17284981727373" lon="15.05556159823274"><ele>449.0</ele><time>2026-03-22T10:38:48Z</time></trkpt><trkpt lat="41.17276704060375" lon="15.055559799130469"><ele>449.0</ele><time>2026-03-22T10:38:49Z</time></trkpt><trkpt lat="41.172698551706524" lon="15.055581258761844"><ele>449.0</ele><time>2026-03-22T10:38:51Z</time></trkpt><trkpt lat="41.17274215935441" lon="15.055766559519435"><ele>449.0</ele><time>2026-03-22T10:38:53Z</time></trkpt><trkpt lat="41.17276354858693" lon="15.055854189458111"><ele>449.0</ele><time>2026-03-22T10:38:54Z</time></trkpt><trkpt lat="41.17277303501507" lon="15.05596635506075"><ele>449.0</ele><time>2026-03-22T10:38:55Z</time></trkpt><trkpt lat="41.17276776681798" lon="15.056072774059032"><ele>445.49999999999994</ele><time>2026-03-22T10:38:56Z</time></trkpt><trkpt lat="41.1727540980336" lon="15.056175249842164"><ele>442.0</ele><time>2026-03-22T10:38:57Z</time></trkpt><trkpt lat="41.17274756643117" lon="15.056260696312746"><ele>438.5</ele><time>2026-03-22T10:38:58Z</time></trkpt><trkpt lat="41.17268475761158" lon="15.056278781583933"><ele>435.0</ele><time>2026-03-22T10:38:59Z</time></trkpt><trkpt lat="41.172618651314856" lon="15.056227409071939"><ele>431.49999999999994</ele><time>2026-03-22T10:39:00Z</time></trkpt><trkpt lat="41.17257308601208" lon="15.056159697223912"><ele>428.0</ele><time>2026-03-22T10:39:01Z</time></trkpt><trkpt lat="41.17250032058207" lon="15.05627455013022"><ele>428.0</ele><time>2026-03-22T10:39:03Z</time></trkpt><trkpt lat="41.17252511839114" lon="15.056422288027544"><ele>427.99999999999994</ele><time>2026-03-22T10:39:04Z</time></trkpt><trkpt lat="41.17254320630843" lon="15.056548018186158"><ele>427.99999999999994</ele><time>2026-03-22T10:39:05Z</time></trkpt><trkpt lat="41.172549197634254" lon="15.056698533501477"><ele>428.0</ele><time>2026-03-22T10:39:07Z</time></trkpt><trkpt lat="41.17253135843366" lon="15.056813107563501"><ele>428.0</ele><time>2026-03-22T10:39:08Z</time></trkpt><trkpt lat="41.172564836527826" lon="15.056909419977048"><ele>425.2</ele><time>2026-03-22T10:39:09Z</time></trkpt><trkpt lat="41.172603829425135" lon="15.056991708712916"><ele>422.4</ele><time>2026-03-22T10:39:10Z</time></trkpt><trkpt lat="41.17263905624577" lon="15.057106770893167"><ele>419.59999999999997</ele><time>2026-03-22T10:39:12Z</time></trkpt><trkpt lat="41.17270471870118" lon="15.057181260668713"><ele>416.79999999999995</ele><time>2026-03-22T10:39:13Z</time></trkpt><trkpt lat="41.1727224891799" lon="15.057277287115419"><ele>414.0</ele><time>2026-03-22T10:39:14Z</time></trkpt><trkpt lat="41.1728394801227" lon="15.057212058991665"><ele>414.0</ele><time>2026-03-22T10:39:17Z</time></trkpt><trkpt lat="41.17288953483079" lon="15.057058316111595"><ele>414.0</ele><time>2026-03-22T10:39:19Z</time></trkpt><trkpt lat="41.172927829074446" lon="15.05695604311036"><ele>414.0</ele><time>2026-03-22T10:39:20Z</time></trkpt><trkpt lat="41.17297174837883" lon="15.056850967945676"><ele>414.0</ele><time>2026-03-22T10:39:21Z</time></trkpt><trkpt lat="41.17308368471826" lon="15.05677830372155"><ele>414.0</ele><time>2026-03-22T10:39:23Z</time></trkpt><trkpt lat="41.17314894490178" lon="15.056886265576004"><ele>414.0</ele><time>2026-03-22T10:39:24Z</time></trkpt><trkpt lat="41.173170057552426" lon="15.056775953308584"><ele>414.0</ele><time>2026-03-22T10:39:25Z</time></trkpt><trkpt lat="41.17311307581227" lon="15.056698486942869"><ele>414.0</ele><time>2026-03-22T10:39:26Z</time></trkpt><trkpt lat="41.17308949621837" lon="15.056618609517495"><ele>414.0</ele><time>2026-03-22T10:39:27Z</time></trkpt><trkpt lat="41.17316909543736" lon="15.056560246418998"><ele>414.0</ele><time>2026-03-22T10:39:29Z</time></trkpt><trkpt lat="41.17323455003479" lon="15.056601889333724"><ele>414.0</ele><time>2026-03-22T10:39:30Z</time></trkpt><trkpt lat="41.17330750629009" lon="15.05661380329057"><ele>419.6</ele><time>2026-03-22T10:39:31Z</time></trkpt><trkpt lat="41.17342247960853" lon="15.05661766564007"><ele>425.2</ele><time>2026-03-22T10:39:32Z</time></trkpt><trkpt lat="41.17351192870221" lon="15.056619490813299"><ele>430.80000000000007</ele><time>2026-03-22T10:39:33Z</time></trkpt><trkpt lat="41.173601531251144" lon="15.056622927395571"><ele>436.40000000000003</ele><time>2026-03-22T10:39:34Z</time></trkpt><trkpt lat="41.173690331570235" lon="15.05666398126841"><ele>442.0</ele><time>2026-03-22T10:39:35Z</time></trkpt><trkpt lat="41.17371059077653" lon="15.056569416026369"><ele>444.40000000000003</ele><time>2026-03-22T10:39:37Z</time></trkpt><trkpt lat="41.17375687713742" lon="15.056483128603455"><ele>446.80000000000007</ele><time>2026-03-22T10:39:39Z</time></trkpt><trkpt lat="41.173688342265095" lon="15.056354975015063"><ele>449.2</ele><time>2026-03-22T10:39:40Z</time></trkpt><trkpt lat="41.17360407185667" lon="15.056232722521093"><ele>451.6</ele><time>2026-03-22T10:39:41Z</time></trkpt><trkpt lat="41.173555515599986" lon="15.056135566044155"><ele>454.0</ele><time>2026-03-22T10:39:42Z</time></trkpt><trkpt lat="41.1735412167998" lon="15.05603152331831"><ele>454.00000000000006</ele><time>2026-03-22T10:39:43Z</time></trkpt><trkpt lat="41.17355278636139" lon="15.055947475467846"><ele>454.0</ele><time>2026-03-22T10:39:44Z</time></trkpt><trkpt lat="41.17360642762944" lon="15.055901024053943"><ele>454.0</ele><time>2026-03-22T10:39:46Z</time></trkpt><trkpt lat="41.17368661340172" lon="15.0559875546443"><ele>454.0</ele><time>2026-03-22T10:39:47Z</time></trkpt><trkpt lat="41.17372385407864" lon="15.056099075234684"><ele>454.00000000000006</ele><time>2026-03-22T10:39:48Z</time></trkpt><trkpt lat="41.173757497269975" lon="15.05618086544668"><ele>454.0</ele><time>2026-03-22T10:39:49Z</time></trkpt><trkpt lat="41.17382200557477" lon="15.056203258989571"><ele>454.00000000000006</ele><time>2026-03-22T10:39:50Z</time></trkpt><trkpt lat="41.173893294528476" lon="15.05619828496352"><ele>454.0</ele><time>2026-03-22T10:39:51Z</time></trkpt><trkpt lat="41.17397971250964" lon="15.05620687232321"><ele>454.0</ele><time>2026-03-22T10:39:52Z</time></trkpt><trkpt lat="41.17404172025082" lon="15.056252042031645"><ele>454.0</ele><time>2026-03-22T10:39:53Z</time></trkpt><trkpt lat="41.17408573550076" lon="15.056318464056636"><ele>454.00000000000006</ele><time>2026-03-22T10:39:54Z</time></trkpt><trkpt lat="41.17413435244079" lon="15.056394428620749"><ele>454.0</ele><time>2026-03-22T10:39:55Z</time></trkpt><trkpt lat="41.1741296779686" lon="15.056552410577858"><ele>457.4</ele><time>2026-03-22T10:39:56Z</time></trkpt><trkpt lat="41.17412659775319" lon="15.056678180190394"><ele>460.79999999999995</ele><time>2026-03-22T10:39:57Z</time></trkpt><trkpt lat="41.174134597160176" lon="15.056807814136738"><ele>464.20000000000005</ele><time>2026-03-22T10:39:58Z</time></trkpt><trkpt lat="41.17418197557259" lon="15.056945150010533"><ele>467.6</ele><time>2026-03-22T10:39:59Z</time></trkpt><trkpt lat="41.17424747330125" lon="15.057036122123133"><ele>471.0</ele><time>2026-03-22T10:40:00Z</time></trkpt><trkpt lat="41.1742916116613" lon="15.057117377896686"><ele>471.0</ele><time>2026-03-22T10:40:01Z</time></trkpt><trkpt lat="41.17434374172248" lon="15.057225717132035"><ele>471.0</ele><time>2026-03-22T10:40:02Z</time></trkpt><trkpt lat="41.17440247222866" lon="15.05730134789303"><ele>471.0</ele><time>2026-03-22T10:40:03Z</time></trkpt><trkpt lat="41.174479465579765" lon="15.057356752220853"><ele>471.0</ele><time>2026-03-22T10:40:04Z</time></trkpt><trkpt lat="41.174557551789185" lon="15.057366337928753"><ele>471.0</ele><time>2026-03-22T10:40:05Z</time></trkpt><trkpt lat="41.174628139453404" lon="15.057405523203943"><ele>471.0</ele><time>2026-03-22T10:40:06Z</time></trkpt><trkpt lat="41.17468838067661" lon="15.057472493238647"><ele>469.6</ele><time>2026-03-22T10:40:07Z</time></trkpt><trkpt lat="41.17479005239656" lon="15.057534520934377"><ele>468.20000000000005</ele><time>2026-03-22T10:40:08Z</time></trkpt><trkpt lat="41.17490505169962" lon="15.057602855729154"><ele>466.79999999999995</ele><time>2026-03-22T10:40:09Z</time></trkpt><trkpt lat="41.17501023568411" lon="15.057607745602166"><ele>465.4</ele><time>2026-03-22T10:40:10Z</time></trkpt><trkpt lat="41.17510911593206" lon="15.057604764297562"><ele>464.0</ele><time>2026-03-22T10:40:11Z</time></trkpt><trkpt lat="41.17518308110464" lon="15.057677353765834"><ele>463.99999999999994</ele><time>2026-03-22T10:40:13Z</time></trkpt><trkpt lat="41.17523136914606" lon="15.057767287085168"><ele>464.0</ele><time>2026-03-22T10:40:14Z</time></trkpt><trkpt lat="41.175300952566225" lon="15.057834071160295"><ele>464.0</ele><time>2026-03-22T10:40:15Z</time></trkpt><trkpt lat="41.175383102587716" lon="15.057855915342438"><ele>464.0</ele><time>2026-03-22T10:40:17Z</time></trkpt><trkpt lat="41.1754757956084" lon="15.057832800428503"><ele>463.99999999999994</ele><time>2026-03-22T10:40:18Z</time></trkpt><trkpt lat="41.175557916741006" lon="15.057781781782653"><ele>464.0</ele><time>2026-03-22T10:40:19Z</time></trkpt><trkpt lat="41.17563447982572" lon="15.05775281969325"><ele>461.2</ele><time>2026-03-22T10:40:20Z</time></trkpt><trkpt lat="41.175698687541356" lon="15.05774091148813"><ele>458.4</ele><time>2026-03-22T10:40:21Z</time></trkpt><trkpt lat="41.175811836660976" lon="15.057752054304695"><ele>455.6</ele><time>2026-03-22T10:40:23Z</time></trkpt><trkpt lat="41.175773273989726" lon="15.057921591908567"><ele>452.8</ele><time>2026-03-22T10:40:25Z</time></trkpt><trkpt lat="41.1757442783643" lon="15.05800793924716"><ele>450.0</ele><time>2026-03-22T10:40:26Z</time></trkpt><trkpt lat="41.1758380954117" lon="15.058114176569548"><ele>450.0</ele><time>2026-03-22T10:40:28Z</time></trkpt><trkpt lat="41.17576631246032" lon="15.058231092248363"><ele>450.0</ele><time>2026-03-22T10:40:32Z</time></trkpt><trkpt lat="41.175826309298756" lon="15.058275051707648"><ele>450.0</ele><time>2026-03-22T10:40:35Z</time></trkpt><trkpt lat="41.17590128371214" lon="15.058287427534387"><ele>450.0</ele><time>2026-03-22T10:40:37Z</time></trkpt><trkpt lat="41.17597378702472" lon="15.0582890802263"><ele>450.0</ele><time>2026-03-22T10:40:38Z</time></trkpt><trkpt lat="41.1760432449008" lon="15.058238830351673"><ele>450.0</ele><time>2026-03-22T10:40:39Z</time></trkpt><trkpt lat="41.17611595390593" lon="15.058275939150548"><ele>447.0</ele><time>2026-03-22T10:40:42Z</time></trkpt><trkpt lat="41.17619144199952" lon="15.058313870961934"><ele>444.0</ele><time>2026-03-22T10:40:44Z</time></trkpt><trkpt lat="41.17626540139787" lon="15.058444597998944"><ele>441.0</ele><time>2026-03-22T10:40:46Z</time></trkpt><trkpt lat="41.17631541511295" lon="15.058516850818881"><ele>438.0</ele><time>2026-03-22T10:40:47Z</time></trkpt><trkpt lat="41.17639169377397" lon="15.058459880540234"><ele>435.0</ele><time>2026-03-22T10:40:50Z</time></trkpt><trkpt lat="41.1764046971904" lon="15.0583659743591"><ele>432.0</ele><time>2026-03-22T10:40:51Z</time></trkpt><trkpt lat="41.17645479159943" lon="15.058296165414305"><ele>433.1666666666667</ele><time>2026-03-22T10:40:52Z</time></trkpt><trkpt lat="41.176551345642906" lon="15.058250177059097"><ele>434.33333333333337</ele><time>2026-03-22T10:40:53Z</time></trkpt><trkpt lat="41.17665075962013" lon="15.05820563041239"><ele>435.5</ele><time>2026-03-22T10:40:54Z</time></trkpt><trkpt lat="41.17670779815511" lon="15.058158928045385"><ele>436.6666666666667</ele><time>2026-03-22T10:40:55Z</time></trkpt><trkpt lat="41.176758623910224" lon="15.058063863383477"><ele>437.83333333333337</ele><time>2026-03-22T10:40:57Z</time></trkpt><trkpt lat="41.17681377048706" lon="15.057978077570588"><ele>439.0</ele><time>2026-03-22T10:41:03Z</time></trkpt><trkpt lat="41.17679107455369" lon="15.057858743325086"><ele>439.00000000000006</ele><time>2026-03-22T10:41:05Z</time></trkpt><trkpt lat="41.17677757380845" lon="15.057730876199118"><ele>439.0</ele><time>2026-03-22T10:41:07Z</time></trkpt><trkpt lat="41.17673412960243" lon="15.057656206342465"><ele>439.0</ele><time>2026-03-22T10:41:10Z</time></trkpt><trkpt lat="41.176691200220205" lon="15.057550143134879"><ele>439.0</ele><time>2026-03-22T10:41:13Z</time></trkpt><trkpt lat="41.17671479083499" lon="15.057461900611216"><ele>439.00000000000006</ele><time>2026-03-22T10:41:15Z</time></trkpt><trkpt lat="41.176755621483885" lon="15.057343502948056"><ele>439.0</ele><time>2026-03-22T10:41:17Z</time></trkpt><trkpt lat="41.176790609444616" lon="15.057263453884108"><ele>442.0</ele><time>2026-03-22T10:41:18Z</time></trkpt><trkpt lat="41.176844019762555" lon="15.05717790326045"><ele>445.0</ele><time>2026-03-22T10:41:20Z</time></trkpt><trkpt lat="41.176853234602675" lon="15.057002975423652"><ele>448.0</ele><time>2026-03-22T10:41:24Z</time></trkpt><trkpt lat="41.17689299987124" lon="15.056902092306437"><ele>451.0</ele><time>2026-03-22T10:41:25Z</time></trkpt><trkpt lat="41.17694415302113" lon="15.056815104706432"><ele>454.0</ele><time>2026-03-22T10:41:26Z</time></trkpt><trkpt lat="41.1769755935166" lon="15.05673098621219"><ele>454.00000000000006</ele><time>2026-03-22T10:41:28Z</time></trkpt><trkpt lat="41.17702325272579" lon="15.056664367859081"><ele>454.0</ele><time>2026-03-22T10:41:51Z</time></trkpt><trkpt lat="41.17707513504771" lon="15.056575131823275"><ele>454.0</ele><time>2026-03-22T10:41:54Z</time></trkpt><trkpt lat="41.17713953651528" lon="15.056519100992318"><ele>454.0</ele><time>2026-03-22T10:41:58Z</time></trkpt><trkpt lat="41.177233984927376" lon="15.056469784248664"><ele>454.00000000000006</ele><time>2026-03-22T10:42:01Z</time></trkpt><trkpt lat="41.1773323246241" lon="15.056405984239902"><ele>454.0</ele><time>2026-03-22T10:42:03Z</time></trkpt><trkpt lat="41.17738951060923" lon="15.056350134101068"><ele>454.50000000000006</ele><time>2026-03-22T10:42:04Z</time></trkpt><trkpt lat="41.17744181721662" lon="15.056294796307172"><ele>455.0</ele><time>2026-03-22T10:42:05Z</time></trkpt><trkpt lat="41.17749399978382" lon="15.056210823027246"><ele>455.5</ele><time>2026-03-22T10:42:07Z</time></trkpt><trkpt lat="41.17755019673575" lon="15.056152347227512"><ele>456.0</ele><time>2026-03-22T10:42:09Z</time></trkpt><trkpt lat="41.17758414943681" lon="15.056054342204506"><ele>456.50000000000006</ele><time>2026-03-22T10:42:11Z</time></trkpt><trkpt lat="41.17759052173622" lon="15.055965516407213"><ele>457.0</ele><time>2026-03-22T10:42:14Z</time></trkpt><trkpt lat="41.17762900285279" lon="15.055853229557771"><ele>459.40000000000003</ele><time>2026-03-22T10:42:17Z</time></trkpt><trkpt lat="41.177666706345704" lon="15.055695435947344"><ele>461.80000000000007</ele><time>2026-03-22T10:42:19Z</time></trkpt><trkpt lat="41.17769005884307" lon="15.055614278332"><ele>464.2</ele><time>2026-03-22T10:42:20Z</time></trkpt><trkpt lat="41.1777045608902" lon="15.055528444741697"><ele>466.6</ele><time>2026-03-22T10:42:21Z</time></trkpt><trkpt lat="41.17773679334932" lon="15.05539442577612"><ele>469.0</ele><time>2026-03-22T10:42:23Z</time></trkpt><trkpt lat="41.17776632402975" lon="15.055270460693725"><ele>469.00000000000006</ele><time>2026-03-22T10:42:25Z</time></trkpt><trkpt lat="41.17780021651591" lon="15.055166416947026"><ele>469.0</ele><time>2026-03-22T10:42:28Z</time></trkpt><trkpt lat="41.17781261272595" lon="15.055077516843788"><ele>469.0</ele><time>2026-03-22T10:42:31Z</time></trkpt><trkpt lat="41.177805424861134" lon="15.054970886929658"><ele>469.0</ele><time>2026-03-22T10:42:34Z</time></trkpt><trkpt lat="41.17781341363858" lon="15.054886652465301"><ele>469.00000000000006</ele><time>2026-03-22T10:42:36Z</time></trkpt><trkpt lat="41.17781968524177" lon="15.054771000794672"><ele>469.0</ele><time>2026-03-22T10:42:39Z</time></trkpt><trkpt lat="41.1777958040819" lon="15.054648874771798"><ele>470.57142857142856</ele><time>2026-03-22T10:42:42Z</time></trkpt><trkpt lat="41.177805050463775" lon="15.054564719304109"><ele>472.1428571428571</ele><time>2026-03-22T10:42:45Z</time></trkpt><trkpt lat="41.17782862983533" lon="15.054487035336626"><ele>473.7142857142857</ele><time>2026-03-22T10:42:50Z</time></trkpt><trkpt lat="41.17786561671322" lon="15.054418163321872"><ele>475.2857142857143</ele><time>2026-03-22T10:42:55Z</time></trkpt><trkpt lat="41.17789058417629" lon="15.054337989647529"><ele>476.85714285714283</ele><time>2026-03-22T10:43:04Z</time></trkpt><trkpt lat="41.17789330838283" lon="15.054241549055357"><ele>478.42857142857144</ele><time>2026-03-22T10:43:08Z</time></trkpt><trkpt lat="41.177886033221256" lon="15.05415509738098"><ele>480.0</ele><time>2026-03-22T10:43:39Z</time></trkpt><trkpt lat="41.17787539668127" lon="15.054060452253497"><ele>481.5</ele><time>2026-03-22T10:43:41Z</time></trkpt><trkpt lat="41.17791154886529" lon="15.053940675934594"><ele>483.0</ele><time>2026-03-22T10:43:43Z</time></trkpt><trkpt lat="41.17796831128875" lon="15.053887942028084"><ele>484.5</ele><time>2026-03-22T10:43:44Z</time></trkpt><trkpt lat="41.17804403031584" lon="15.053819691346181"><ele>486.0</ele><time>2026-03-22T10:43:45Z</time></trkpt><trkpt lat="41.17807245187236" lon="15.053682172762361"><ele>487.5</ele><time>2026-03-22T10:43:47Z</time></trkpt><trkpt lat="41.17804685364706" lon="15.053601762152356"><ele>489.0</ele><time>2026-03-22T10:43:48Z</time></trkpt><trkpt lat="41.178055861349364" lon="15.05351747851781"><ele>489.0</ele><time>2026-03-22T10:44:25Z</time></trkpt><trkpt lat="41.17803478899116" lon="15.053429787757851"><ele>489.00000000000006</ele><time>2026-03-22T10:44:40Z</time></trkpt><trkpt lat="41.178024664021564" lon="15.053330901935794"><ele>489.0</ele><time>2026-03-22T10:44:42Z</time></trkpt><trkpt lat="41.17796879489996" lon="15.053282042920166"><ele>489.0</ele><time>2026-03-22T10:48:45Z</time></trkpt><trkpt lat="41.1780053641723" lon="15.05320869158305"><ele>489.00000000000006</ele><time>2026-03-22T10:49:04Z</time></trkpt><trkpt lat="41.178037510263344" lon="15.053135536636693"><ele>489.0</ele><time>2026-03-22T10:50:31Z</time></trkpt><trkpt lat="41.17803330843472" lon="15.053050804926611"><ele>489.0</ele><time>2026-03-22T10:52:28Z</time></trkpt><trkpt lat="41.17795331302278" lon="15.053048064362242"><ele>491.1666666666667</ele><time>2026-03-22T10:56:20.999Z</time></trkpt><trkpt lat="41.17801613129348" lon="15.053062181495575"><ele>493.33333333333337</ele><time>2026-03-22T10:57:04Z</time></trkpt><trkpt lat="41.17797038449722" lon="15.053000231677562"><ele>495.5</ele><time>2026-03-22T11:03:42.001Z</time></trkpt><trkpt lat="41.1780063661381" lon="15.0529281936739"><ele>497.6666666666667</ele><time>2026-03-22T11:06:18.001Z</time></trkpt><trkpt lat="41.17795189018755" lon="15.052853422377142"><ele>499.83333333333337</ele><time>2026-03-22T11:10:51Z</time></trkpt><trkpt lat="41.178026317681365" lon="15.05276910412775"><ele>502.0</ele><time>2026-03-22T11:14:33Z</time></trkpt><trkpt lat="41.17803421074001" lon="15.052616072772372"><ele>501.99999999999994</ele><time>2026-03-22T11:17:46Z</time></trkpt><trkpt lat="41.17802441532612" lon="15.05253076084059"><ele>502.0</ele><time>2026-03-22T11:20:53Z</time></trkpt><trkpt lat="41.17803693087784" lon="15.052446504102775"><ele>501.99999999999994</ele><time>2026-03-22T11:21:06Z</time></trkpt><trkpt lat="41.17796365955767" lon="15.052495994261891"><ele>501.99999999999994</ele><time>2026-03-22T11:21:28Z</time></trkpt><trkpt lat="41.17797221503995" lon="15.052369019689127"><ele>502.0</ele><time>2026-03-22T11:21:44Z</time></trkpt><trkpt lat="41.17800626210617" lon="15.05229324410286"><ele>501.99999999999994</ele><time>2026-03-22T11:24:52Z</time></trkpt><trkpt lat="41.177959011868204" lon="15.05223619719782"><ele>501.99999999999994</ele><time>2026-03-22T11:26:03Z</time></trkpt><trkpt lat="41.177958725126445" lon="15.052126514741062"><ele>504.1666666666667</ele><time>2026-03-22T11:29:26Z</time></trkpt><trkpt lat="41.177988398478185" lon="15.052037528708013"><ele>506.33333333333337</ele><time>2026-03-22T11:29:30Z</time></trkpt><trkpt lat="41.17808533474871" lon="15.052097793514932"><ele>508.5</ele><time>2026-03-22T11:33:50.998Z</time></trkpt><trkpt lat="41.17801949382787" lon="15.052023426655026"><ele>510.66666666666663</ele><time>2026-03-22T11:34:06.999Z</time></trkpt><trkpt lat="41.17796606154516" lon="15.051978601941638"><ele>512.8333333333333</ele><time>2026-03-22T11:34:57Z</time></trkpt><trkpt lat="41.178040847571694" lon="15.052041679480599"><ele>515.0</ele><time>2026-03-22T11:35:59.999Z</time></trkpt><trkpt lat="41.17797726478328" lon="15.05200855711854"><ele>515.0</ele><time>2026-03-22T11:36:40Z</time></trkpt><trkpt lat="41.17802287999623" lon="15.051903562635058"><ele>515.0</ele><time>2026-03-22T11:37:37.001Z</time></trkpt><trkpt lat="41.17800418303558" lon="15.05182182810077"><ele>515.0</ele><time>2026-03-22T11:37:39.001Z</time></trkpt><trkpt lat="41.17797258757648" lon="15.051692892565997"><ele>515.0</ele><time>2026-03-22T11:37:41.001Z</time></trkpt><trkpt lat="41.17794916583429" lon="15.051607126176934"><ele>515.0</ele><time>2026-03-22T11:37:43.001Z</time></trkpt><trkpt lat="41.177886091089654" lon="15.051726996083953"><ele>515.0</ele><time>2026-03-22T11:37:46.001Z</time></trkpt><trkpt lat="41.17785279396154" lon="15.051802649044058"><ele>515.0</ele><time>2026-03-22T11:37:47.001Z</time></trkpt><trkpt lat="41.177787751108546" lon="15.051916253465675"><ele>515.0</ele><time>2026-03-22T11:37:48.001Z</time></trkpt><trkpt lat="41.17774571560833" lon="15.051988099212917"><ele>515.0</ele><time>2026-03-22T11:37:49.001Z</time></trkpt><trkpt lat="41.17767973859422" lon="15.052039568443005"><ele>515.0</ele><time>2026-03-22T11:37:51.001Z</time></trkpt><trkpt lat="41.17761012081183" lon="15.05211008196241"><ele>515.0</ele><time>2026-03-22T11:37:54Z</time></trkpt><trkpt lat="41.17755528672825" lon="15.052235464241157"><ele>515.0</ele><time>2026-03-22T11:37:56Z</time></trkpt><trkpt lat="41.17745638051216" lon="15.052332496182572"><ele>515.0</ele><time>2026-03-22T11:37:57Z</time></trkpt><trkpt lat="41.17736356661239" lon="15.052384538504896"><ele>515.0</ele><time>2026-03-22T11:37:58Z</time></trkpt><trkpt lat="41.17728257844496" lon="15.052363724758893"><ele>515.0</ele><time>2026-03-22T11:38:00Z</time></trkpt><trkpt lat="41.17725694276258" lon="15.0522264989279"><ele>515.0</ele><time>2026-03-22T11:38:02Z</time></trkpt><trkpt lat="41.177300704766374" lon="15.052156102629967"><ele>515.0</ele><time>2026-03-22T11:38:04Z</time></trkpt><trkpt lat="41.17731534989053" lon="15.052037585087486"><ele>515.0</ele><time>2026-03-22T11:38:06Z</time></trkpt><trkpt lat="41.17724375014327" lon="15.05187765559136"><ele>517.6</ele><time>2026-03-22T11:38:08Z</time></trkpt><trkpt lat="41.177205214926516" lon="15.05177363417183"><ele>520.2</ele><time>2026-03-22T11:38:09Z</time></trkpt><trkpt lat="41.17716026199228" lon="15.051672243432213"><ele>522.8</ele><time>2026-03-22T11:38:10Z</time></trkpt><trkpt lat="41.177116432159565" lon="15.051579563584301"><ele>525.4</ele><time>2026-03-22T11:38:11Z</time></trkpt><trkpt lat="41.17704808705816" lon="15.05147985963422"><ele>528.0</ele><time>2026-03-22T11:38:12Z</time></trkpt><trkpt lat="41.17697782670078" lon="15.051380201209069"><ele>530.0</ele><time>2026-03-22T11:38:13Z</time></trkpt><trkpt lat="41.1769148566165" lon="15.0512977059646"><ele>532.0</ele><time>2026-03-22T11:38:14Z</time></trkpt><trkpt lat="41.17686477896565" lon="15.051228044397854"><ele>534.0</ele><time>2026-03-22T11:38:15Z</time></trkpt><trkpt lat="41.17681141985497" lon="15.051160270206331"><ele>536.0</ele><time>2026-03-22T11:38:16Z</time></trkpt><trkpt lat="41.17674937056743" lon="15.051115632276627"><ele>538.0</ele><time>2026-03-22T11:38:17Z</time></trkpt><trkpt lat="41.176673205881166" lon="15.051088034663339"><ele>540.0</ele><time>2026-03-22T11:38:18Z</time></trkpt><trkpt lat="41.17657167156768" lon="15.051063070547986"><ele>543.75</ele><time>2026-03-22T11:38:19Z</time></trkpt><trkpt lat="41.176460555748655" lon="15.051038818998803"><ele>547.5</ele><time>2026-03-22T11:38:20Z</time></trkpt><trkpt lat="41.17635416632419" lon="15.051011784508157"><ele>551.25</ele><time>2026-03-22T11:38:21Z</time></trkpt><trkpt lat="41.176239417662096" lon="15.050980374859675"><ele>555.0</ele><time>2026-03-22T11:38:22Z</time></trkpt><trkpt lat="41.1761065778558" lon="15.050966789591111"><ele>555.0</ele><time>2026-03-22T11:38:23Z</time></trkpt><trkpt lat="41.17597817834995" lon="15.050952430074089"><ele>555.0</ele><time>2026-03-22T11:38:24Z</time></trkpt><trkpt lat="41.17585736326802" lon="15.050932134280231"><ele>555.0</ele><time>2026-03-22T11:38:25Z</time></trkpt><trkpt lat="41.17577453471181" lon="15.050913333986484"><ele>555.0</ele><time>2026-03-22T11:38:26Z</time></trkpt><trkpt lat="41.175671062201694" lon="15.050881475654297"><ele>555.0</ele><time>2026-03-22T11:38:28Z</time></trkpt><trkpt lat="41.17559626605465" lon="15.050946623997538"><ele>555.3333333333334</ele><time>2026-03-22T11:38:30Z</time></trkpt><trkpt lat="41.17556523241335" lon="15.051030706752863"><ele>555.6666666666666</ele><time>2026-03-22T11:38:31Z</time></trkpt><trkpt lat="41.17552014779311" lon="15.05116268499222"><ele>556.0</ele><time>2026-03-22T11:38:33Z</time></trkpt><trkpt lat="41.1755185885566" lon="15.051267712967604"><ele>556.3333333333333</ele><time>2026-03-22T11:38:35Z</time></trkpt><trkpt lat="41.175498746951305" lon="15.051381801330146"><ele>556.6666666666666</ele><time>2026-03-22T11:38:36Z</time></trkpt><trkpt lat="41.175474978434245" lon="15.051465472229404"><ele>557.0</ele><time>2026-03-22T11:38:38Z</time></trkpt><trkpt lat="41.17545989238168" lon="15.051556227259686"><ele>557.0</ele><time>2026-03-22T11:38:55.001Z</time></trkpt><trkpt lat="41.1754983691675" lon="15.051624852911676"><ele>557.0</ele><time>2026-03-22T11:39:00.001Z</time></trkpt><trkpt lat="41.175561414027676" lon="15.051625810691966"><ele>557.0</ele><time>2026-03-22T11:40:19.001Z</time></trkpt><trkpt lat="41.17550462712856" lon="15.051663634755649"><ele>557.0</ele><time>2026-03-22T11:43:14.001Z</time></trkpt><trkpt lat="41.17554766948408" lon="15.051601898378848"><ele>557.0</ele><time>2026-03-22T11:56:34Z</time></trkpt><trkpt lat="41.17547875823552" lon="15.051603410691516"><ele>557.0</ele><time>2026-03-22T12:00:00Z</time></trkpt><trkpt lat="41.17540986628223" lon="15.051576171610678"><ele>557.0</ele><time>2026-03-22T12:00:02Z</time></trkpt><trkpt lat="41.1753722740597" lon="15.05150829070319"><ele>557.0</ele><time>2026-03-22T12:00:04Z</time></trkpt><trkpt lat="41.17538103568641" lon="15.051405508367028"><ele>557.0</ele><time>2026-03-22T12:00:06Z</time></trkpt><trkpt lat="41.175423849325085" lon="15.05126542504339"><ele>557.0</ele><time>2026-03-22T12:00:08Z</time></trkpt><trkpt lat="41.17546044082683" lon="15.051125329362437"><ele>557.0</ele><time>2026-03-22T12:00:10Z</time></trkpt><trkpt lat="41.17543651196406" lon="15.051038684802704"><ele>557.0</ele><time>2026-03-22T12:00:11Z</time></trkpt><trkpt lat="41.17547687882583" lon="15.050912674697518"><ele>559.2</ele><time>2026-03-22T12:00:13Z</time></trkpt><trkpt lat="41.17552813587676" lon="15.050769670547075"><ele>561.4000000000001</ele><time>2026-03-22T12:00:15Z</time></trkpt><trkpt lat="41.175594990449945" lon="15.050606404177387"><ele>563.5999999999999</ele><time>2026-03-22T12:00:17Z</time></trkpt><trkpt lat="41.17563994617855" lon="15.050511654603174"><ele>565.8</ele><time>2026-03-22T12:00:18Z</time></trkpt><trkpt lat="41.175684424096254" lon="15.050424716592934"><ele>568.0</ele><time>2026-03-22T12:00:19Z</time></trkpt><trkpt lat="41.1757309632545" lon="15.050340062607987"><ele>568.0</ele><time>2026-03-22T12:00:20Z</time></trkpt><trkpt lat="41.17577355345282" lon="15.050265172670343"><ele>568.0</ele><time>2026-03-22T12:00:21Z</time></trkpt><trkpt lat="41.17582148155606" lon="15.05018935254963"><ele>568.0</ele><time>2026-03-22T12:00:22Z</time></trkpt><trkpt lat="41.17587360591271" lon="15.050117896161199"><ele>568.0</ele><time>2026-03-22T12:00:23Z</time></trkpt><trkpt lat="41.175927288912774" lon="15.050053596296976"><ele>568.0</ele><time>2026-03-22T12:00:24Z</time></trkpt><trkpt lat="41.17599252382018" lon="15.049973490916019"><ele>568.0</ele><time>2026-03-22T12:00:25Z</time></trkpt><trkpt lat="41.1760571016313" lon="15.049881838158912"><ele>570.1428571428571</ele><time>2026-03-22T12:00:26Z</time></trkpt><trkpt lat="41.176114027975714" lon="15.049803684225397"><ele>572.2857142857142</ele><time>2026-03-22T12:00:27Z</time></trkpt><trkpt lat="41.17615869037292" lon="15.049742367366113"><ele>574.4285714285714</ele><time>2026-03-22T12:00:28Z</time></trkpt><trkpt lat="41.17621049227767" lon="15.049672015755029"><ele>576.5714285714286</ele><time>2026-03-22T12:00:29Z</time></trkpt><trkpt lat="41.17625695247186" lon="15.049610302164313"><ele>578.7142857142858</ele><time>2026-03-22T12:00:30Z</time></trkpt><trkpt lat="41.17630290236243" lon="15.04955120874245"><ele>580.8571428571429</ele><time>2026-03-22T12:00:31Z</time></trkpt><trkpt lat="41.176357127126806" lon="15.049485227893324"><ele>583.0</ele><time>2026-03-22T12:00:32Z</time></trkpt><trkpt lat="41.17641350518968" lon="15.04943386711477"><ele>583.0000000000001</ele><time>2026-03-22T12:00:33Z</time></trkpt><trkpt lat="41.17648016029244" lon="15.049402425788719"><ele>583.0</ele><time>2026-03-22T12:00:34Z</time></trkpt><trkpt lat="41.17654609920087" lon="15.049374557991836"><ele>583.0</ele><time>2026-03-22T12:00:35Z</time></trkpt><trkpt lat="41.176598887566534" lon="15.049325000153862"><ele>583.0</ele><time>2026-03-22T12:00:36Z</time></trkpt><trkpt lat="41.176660065077165" lon="15.049286850963655"><ele>583.0</ele><time>2026-03-22T12:00:37Z</time></trkpt><trkpt lat="41.17672462533094" lon="15.049242655139361"><ele>583.0000000000001</ele><time>2026-03-22T12:00:38Z</time></trkpt><trkpt lat="41.17679212830998" lon="15.049187846134018"><ele>583.0</ele><time>2026-03-22T12:00:39Z</time></trkpt><trkpt lat="41.17685466798173" lon="15.049124838473256"><ele>583.5</ele><time>2026-03-22T12:00:40Z</time></trkpt><trkpt lat="41.17692435465306" lon="15.04907711899743"><ele>584.0</ele><time>2026-03-22T12:00:41Z</time></trkpt><trkpt lat="41.176991148717" lon="15.049026566100117"><ele>584.5</ele><time>2026-03-22T12:00:42Z</time></trkpt><trkpt lat="41.17706491769894" lon="15.048994424713703"><ele>585.0</ele><time>2026-03-22T12:00:43Z</time></trkpt><trkpt lat="41.17714241265169" lon="15.048947665989028"><ele>585.5</ele><time>2026-03-22T12:00:44Z</time></trkpt><trkpt lat="41.17721615777893" lon="15.048921424846158"><ele>586.0</ele><time>2026-03-22T12:00:45Z</time></trkpt><trkpt lat="41.17729880429882" lon="15.0488869877511"><ele>584.8333333333334</ele><time>2026-03-22T12:00:46Z</time></trkpt><trkpt lat="41.17737346269989" lon="15.048856116930317"><ele>583.6666666666667</ele><time>2026-03-22T12:00:47Z</time></trkpt><trkpt lat="41.17744974459443" lon="15.048807279094033"><ele>582.5</ele><time>2026-03-22T12:00:48Z</time></trkpt><trkpt lat="41.177509293778385" lon="15.048756115902957"><ele>581.3333333333334</ele><time>2026-03-22T12:00:49Z</time></trkpt><trkpt lat="41.177563092137746" lon="15.048702884063154"><ele>580.1666666666666</ele><time>2026-03-22T12:00:50Z</time></trkpt><trkpt lat="41.1776246879968" lon="15.048637618848762"><ele>579.0</ele><time>2026-03-22T12:00:51Z</time></trkpt><trkpt lat="41.17768526088482" lon="15.048573574305388"><ele>579.0</ele><time>2026-03-22T12:00:52Z</time></trkpt><trkpt lat="41.17774688446151" lon="15.048507430396903"><ele>579.0</ele><time>2026-03-22T12:00:53Z</time></trkpt><trkpt lat="41.17780866273625" lon="15.048438673956985"><ele>579.0</ele><time>2026-03-22T12:00:54Z</time></trkpt><trkpt lat="41.17786883519959" lon="15.048371704732947"><ele>579.0</ele><time>2026-03-22T12:00:55Z</time></trkpt><trkpt lat="41.17792835325225" lon="15.048305699066052"><ele>579.0</ele><time>2026-03-22T12:00:56Z</time></trkpt><trkpt lat="41.17798879586997" lon="15.048239592639483"><ele>579.0</ele><time>2026-03-22T12:00:57Z</time></trkpt><trkpt lat="41.178048699353255" lon="15.048174075875599"><ele>580.2857142857142</ele><time>2026-03-22T12:00:58Z</time></trkpt><trkpt lat="41.17810678255306" lon="15.048110549962955"><ele>581.5714285714286</ele><time>2026-03-22T12:00:59Z</time></trkpt><trkpt lat="41.178165352781875" lon="15.048046491394333"><ele>582.8571428571429</ele><time>2026-03-22T12:01:00Z</time></trkpt><trkpt lat="41.17821830951827" lon="15.047987168761518"><ele>584.1428571428571</ele><time>2026-03-22T12:01:01Z</time></trkpt><trkpt lat="41.17827110737568" lon="15.047938354950695"><ele>585.4285714285714</ele><time>2026-03-22T12:01:02Z</time></trkpt><trkpt lat="41.17832088624713" lon="15.047864622562372"><ele>586.7142857142857</ele><time>2026-03-22T12:01:03Z</time></trkpt><trkpt lat="41.17837547963307" lon="15.047805956138758"><ele>588.0</ele><time>2026-03-22T12:01:04Z</time></trkpt><trkpt lat="41.178445370750964" lon="15.047770787876766"><ele>588.0</ele><time>2026-03-22T12:01:05Z</time></trkpt><trkpt lat="41.178515802963545" lon="15.0477530451214"><ele>588.0</ele><time>2026-03-22T12:01:06Z</time></trkpt><trkpt lat="41.17858083362639" lon="15.047705326294144"><ele>588.0</ele><time>2026-03-22T12:01:07Z</time></trkpt><trkpt lat="41.178656042241535" lon="15.047694025691422"><ele>588.0</ele><time>2026-03-22T12:01:08Z</time></trkpt><trkpt lat="41.17872274932999" lon="15.047667987254247"><ele>588.0</ele><time>2026-03-22T12:01:09Z</time></trkpt><trkpt lat="41.1788011200453" lon="15.047654932787976"><ele>588.0</ele><time>2026-03-22T12:01:10Z</time></trkpt><trkpt lat="41.17887946068603" lon="15.047625287437896"><ele>588.0</ele><time>2026-03-22T12:01:11Z</time></trkpt><trkpt lat="41.17895972699716" lon="15.047595582788098"><ele>588.0</ele><time>2026-03-22T12:01:12Z</time></trkpt><trkpt lat="41.17904106715289" lon="15.047559036012228"><ele>588.0</ele><time>2026-03-22T12:01:13Z</time></trkpt><trkpt lat="41.17911881358657" lon="15.047523768412836"><ele>588.0</ele><time>2026-03-22T12:01:14Z</time></trkpt><trkpt lat="41.17919170107212" lon="15.047492025347736"><ele>588.0</ele><time>2026-03-22T12:01:15Z</time></trkpt><trkpt lat="41.179267596938615" lon="15.047479830980956"><ele>588.0</ele><time>2026-03-22T12:01:16Z</time></trkpt><trkpt lat="41.17933471942432" lon="15.047446385694691"><ele>587.8333333333334</ele><time>2026-03-22T12:01:17Z</time></trkpt><trkpt lat="41.17941187056265" lon="15.047437280113778"><ele>587.6666666666666</ele><time>2026-03-22T12:01:18Z</time></trkpt><trkpt lat="41.17948941954271" lon="15.04745989952713"><ele>587.5</ele><time>2026-03-22T12:01:19Z</time></trkpt><trkpt lat="41.179572627074386" lon="15.047507457840995"><ele>587.3333333333333</ele><time>2026-03-22T12:01:20Z</time></trkpt><trkpt lat="41.17964672292075" lon="15.04757106814007"><ele>587.1666666666666</ele><time>2026-03-22T12:01:21Z</time></trkpt><trkpt lat="41.179733070071755" lon="15.047631493981209"><ele>587.0</ele><time>2026-03-22T12:01:22Z</time></trkpt><trkpt lat="41.1798282229388" lon="15.047681560044436"><ele>589.2</ele><time>2026-03-22T12:01:23Z</time></trkpt><trkpt lat="41.17988449746365" lon="15.04776541841122"><ele>591.4000000000001</ele><time>2026-03-22T12:01:24Z</time></trkpt><trkpt lat="41.1799527442966" lon="15.047845082249676"><ele>593.5999999999999</ele><time>2026-03-22T12:01:25Z</time></trkpt><trkpt lat="41.18001844431314" lon="15.047923221625002"><ele>595.8</ele><time>2026-03-22T12:01:26Z</time></trkpt><trkpt lat="41.18009893064318" lon="15.047988719957456"><ele>598.0</ele><time>2026-03-22T12:01:27Z</time></trkpt><trkpt lat="41.18017366652098" lon="15.04806494457076"><ele>598.0</ele><time>2026-03-22T12:01:28Z</time></trkpt><trkpt lat="41.18026231411103" lon="15.04812038128628"><ele>598.0</ele><time>2026-03-22T12:01:29Z</time></trkpt><trkpt lat="41.180343380346514" lon="15.048172103567104"><ele>598.0</ele><time>2026-03-22T12:01:30Z</time></trkpt><trkpt lat="41.18042519066507" lon="15.048220188709102"><ele>598.0</ele><time>2026-03-22T12:01:31Z</time></trkpt><trkpt lat="41.18050152352424" lon="15.048269602771018"><ele>598.0</ele><time>2026-03-22T12:01:32Z</time></trkpt><trkpt lat="41.1805692629108" lon="15.048309462097464"><ele>598.0</ele><time>2026-03-22T12:01:33Z</time></trkpt><trkpt lat="41.180647982478845" lon="15.048320688302963"><ele>598.0</ele><time>2026-03-22T12:01:34Z</time></trkpt><trkpt lat="41.18077366924437" lon="15.048320914399612"><ele>598.0</ele><time>2026-03-22T12:01:36Z</time></trkpt><trkpt lat="41.18089369164705" lon="15.048331718829417"><ele>598.0</ele><time>2026-03-22T12:01:38Z</time></trkpt><trkpt lat="41.18089256070921" lon="15.048194298467171"><ele>598.0</ele><time>2026-03-22T12:01:43Z</time></trkpt><trkpt lat="41.18082816347432" lon="15.04813310909811"><ele>598.0</ele><time>2026-03-22T12:01:44Z</time></trkpt><trkpt lat="41.18067772056967" lon="15.047985406211659"><ele>598.0</ele><time>2026-03-22T12:01:46Z</time></trkpt><trkpt lat="41.18059715338071" lon="15.047874037168572"><ele>598.0</ele><time>2026-03-22T12:01:47Z</time></trkpt><trkpt lat="41.18051650767699" lon="15.047751899223774"><ele>598.0</ele><time>2026-03-22T12:01:48Z</time></trkpt><trkpt lat="41.18043943909102" lon="15.047643048999063"><ele>598.0</ele><time>2026-03-22T12:01:49Z</time></trkpt><trkpt lat="41.180361492311114" lon="15.047529079530962"><ele>600.25</ele><time>2026-03-22T12:01:50Z</time></trkpt><trkpt lat="41.18028079369545" lon="15.04740289545913"><ele>602.5</ele><time>2026-03-22T12:01:51Z</time></trkpt><trkpt lat="41.180198813660844" lon="15.047282302455521"><ele>604.75</ele><time>2026-03-22T12:01:52Z</time></trkpt><trkpt lat="41.18011343400424" lon="15.047169297333975"><ele>607.0</ele><time>2026-03-22T12:01:53Z</time></trkpt><trkpt lat="41.18002674845199" lon="15.047060836982126"><ele>607.0</ele><time>2026-03-22T12:01:54Z</time></trkpt><trkpt lat="41.17993871268798" lon="15.046951728101662"><ele>607.0</ele><time>2026-03-22T12:01:55Z</time></trkpt><trkpt lat="41.17984755561745" lon="15.046855812461844"><ele>607.0</ele><time>2026-03-22T12:01:56Z</time></trkpt><trkpt lat="41.179746790768085" lon="15.046763307170641"><ele>607.0</ele><time>2026-03-22T12:01:57Z</time></trkpt><trkpt lat="41.179646522356464" lon="15.046685520686879"><ele>605.5</ele><time>2026-03-22T12:01:58Z</time></trkpt><trkpt lat="41.17953233197251" lon="15.046628942773198"><ele>604.0</ele><time>2026-03-22T12:01:59Z</time></trkpt><trkpt lat="41.17941140388554" lon="15.046577130005907"><ele>602.5</ele><time>2026-03-22T12:02:00Z</time></trkpt><trkpt lat="41.179294065752316" lon="15.046528414916148"><ele>601.0</ele><time>2026-03-22T12:02:01Z</time></trkpt><trkpt lat="41.17917206363104" lon="15.046474579389862"><ele>604.0</ele><time>2026-03-22T12:02:02Z</time></trkpt><trkpt lat="41.179053703363714" lon="15.04641880523607"><ele>607.0</ele><time>2026-03-22T12:02:03Z</time></trkpt><trkpt lat="41.1789332228268" lon="15.046363759362466"><ele>610.0</ele><time>2026-03-22T12:02:04Z</time></trkpt><trkpt lat="41.17881263438306" lon="15.046309168445855"><ele>613.0</ele><time>2026-03-22T12:02:05Z</time></trkpt><trkpt lat="41.17869863163492" lon="15.046253322036973"><ele>613.5</ele><time>2026-03-22T12:02:06Z</time></trkpt><trkpt lat="41.17858433739636" lon="15.04620131034422"><ele>614.0</ele><time>2026-03-22T12:02:07Z</time></trkpt><trkpt lat="41.178476114142555" lon="15.04612739851072"><ele>614.5</ele><time>2026-03-22T12:02:08Z</time></trkpt><trkpt lat="41.17835099651984" lon="15.046091628097242"><ele>615.0</ele><time>2026-03-22T12:02:09Z</time></trkpt><trkpt lat="41.178221386398185" lon="15.046091091607432"><ele>615.8</ele><time>2026-03-22T12:02:10Z</time></trkpt><trkpt lat="41.17810700088074" lon="15.046101401507164"><ele>616.6</ele><time>2026-03-22T12:02:11Z</time></trkpt><trkpt lat="41.17800441202563" lon="15.046116880193344"><ele>617.4</ele><time>2026-03-22T12:02:12Z</time></trkpt><trkpt lat="41.177902409296244" lon="15.046143454203674"><ele>618.2</ele><time>2026-03-22T12:02:13Z</time></trkpt><trkpt lat="41.17781210316392" lon="15.046180104430936"><ele>619.0</ele><time>2026-03-22T12:02:14Z</time></trkpt><trkpt lat="41.177732862268506" lon="15.04622287931574"><ele>619.0</ele><time>2026-03-22T12:02:15Z</time></trkpt><trkpt lat="41.17765854894688" lon="15.04626575835484"><ele>619.0</ele><time>2026-03-22T12:02:16Z</time></trkpt><trkpt lat="41.17757792173966" lon="15.046291104936364"><ele>619.0</ele><time>2026-03-22T12:02:17Z</time></trkpt><trkpt lat="41.17750655190323" lon="15.046313036917612"><ele>619.0</ele><time>2026-03-22T12:02:18Z</time></trkpt><trkpt lat="41.177399978556416" lon="15.046195745605656"><ele>619.0</ele><time>2026-03-22T12:02:20Z</time></trkpt><trkpt lat="41.17739801482249" lon="15.046479752874728"><ele>619.0</ele><time>2026-03-22T12:02:24Z</time></trkpt><trkpt lat="41.17733217500348" lon="15.046372883879922"><ele>619.0</ele><time>2026-03-22T12:02:48Z</time></trkpt><trkpt lat="41.177385215176315" lon="15.046317437706374"><ele>619.0</ele><time>2026-03-22T12:08:18Z</time></trkpt><trkpt lat="41.1776108426693" lon="15.046278169372133"><ele>619.0</ele><time>2026-03-22T12:08:27Z</time></trkpt><trkpt lat="41.177696011845384" lon="15.04624940080008"><ele>619.0</ele><time>2026-03-22T12:08:29Z</time></trkpt><trkpt lat="41.17777117370859" lon="15.046234692272446"><ele>619.0</ele><time>2026-03-22T12:08:31Z</time></trkpt><trkpt lat="41.1778555859832" lon="15.046276113353343"><ele>619.0</ele><time>2026-03-22T12:08:34Z</time></trkpt><trkpt lat="41.17798047215801" lon="15.04627578803915"><ele>619.0</ele><time>2026-03-22T12:08:36Z</time></trkpt><trkpt lat="41.178049486349124" lon="15.046246510119003"><ele>619.0</ele><time>2026-03-22T12:08:37Z</time></trkpt><trkpt lat="41.1781241415181" lon="15.046232537319707"><ele>619.0</ele><time>2026-03-22T12:08:38Z</time></trkpt><trkpt lat="41.17819816429649" lon="15.046192076604912"><ele>618.3333333333334</ele><time>2026-03-22T12:08:39Z</time></trkpt><trkpt lat="41.17827526814181" lon="15.046186648090147"><ele>617.6666666666667</ele><time>2026-03-22T12:08:40Z</time></trkpt><trkpt lat="41.178355868011856" lon="15.04619143321139"><ele>617.0</ele><time>2026-03-22T12:08:41Z</time></trkpt><trkpt lat="41.178429648273195" lon="15.046224185551816"><ele>616.3333333333334</ele><time>2026-03-22T12:08:42Z</time></trkpt><trkpt lat="41.17850045516184" lon="15.046245226626771"><ele>615.6666666666666</ele><time>2026-03-22T12:08:43Z</time></trkpt><trkpt lat="41.17857197093389" lon="15.046273401464031"><ele>615.0</ele><time>2026-03-22T12:08:44Z</time></trkpt><trkpt lat="41.178634913725936" lon="15.046303309537532"><ele>615.0</ele><time>2026-03-22T12:08:45Z</time></trkpt><trkpt lat="41.17869643779134" lon="15.046344037182804"><ele>615.0</ele><time>2026-03-22T12:08:46Z</time></trkpt><trkpt lat="41.1787611923861" lon="15.046381152556442"><ele>615.0</ele><time>2026-03-22T12:08:47Z</time></trkpt><trkpt lat="41.178828861875004" lon="15.046412087253945"><ele>615.0</ele><time>2026-03-22T12:08:48Z</time></trkpt><trkpt lat="41.17890035659991" lon="15.046440615331564"><ele>615.0</ele><time>2026-03-22T12:08:49Z</time></trkpt><trkpt lat="41.17896849641562" lon="15.046474894262747"><ele>615.0</ele><time>2026-03-22T12:08:50Z</time></trkpt><trkpt lat="41.17904523907732" lon="15.046506364155665"><ele>615.0</ele><time>2026-03-22T12:08:51Z</time></trkpt><trkpt lat="41.17912107855636" lon="15.046537797582344"><ele>614.7142857142857</ele><time>2026-03-22T12:08:52Z</time></trkpt><trkpt lat="41.17919326841939" lon="15.046568451215418"><ele>614.4285714285714</ele><time>2026-03-22T12:08:53Z</time></trkpt><trkpt lat="41.1792724559523" lon="15.046612513915118"><ele>614.1428571428571</ele><time>2026-03-22T12:08:54Z</time></trkpt><trkpt lat="41.17933779451245" lon="15.046627939331634"><ele>613.8571428571429</ele><time>2026-03-22T12:08:55Z</time></trkpt><trkpt lat="41.179409051220006" lon="15.04665113235038"><ele>613.5714285714286</ele><time>2026-03-22T12:08:56Z</time></trkpt><trkpt lat="41.179476492346105" lon="15.046675886179258"><ele>613.2857142857143</ele><time>2026-03-22T12:08:57Z</time></trkpt><trkpt lat="41.17954442025316" lon="15.046703804572282"><ele>613.0</ele><time>2026-03-22T12:08:58Z</time></trkpt><trkpt lat="41.179613718703806" lon="15.046731613343447"><ele>612.1428571428571</ele><time>2026-03-22T12:08:59Z</time></trkpt><trkpt lat="41.179682919880534" lon="15.046763618852452"><ele>611.2857142857142</ele><time>2026-03-22T12:09:00Z</time></trkpt><trkpt lat="41.17975124696505" lon="15.046809109023949"><ele>610.4285714285713</ele><time>2026-03-22T12:09:01Z</time></trkpt><trkpt lat="41.17980653350923" lon="15.046883258718387"><ele>609.5714285714286</ele><time>2026-03-22T12:09:02Z</time></trkpt><trkpt lat="41.179872387040405" lon="15.046926293891485"><ele>608.7142857142857</ele><time>2026-03-22T12:09:03Z</time></trkpt><trkpt lat="41.17992652379856" lon="15.046993113053247"><ele>607.8571428571428</ele><time>2026-03-22T12:09:04Z</time></trkpt><trkpt lat="41.17997682873562" lon="15.047059892906725"><ele>607.0</ele><time>2026-03-22T12:09:05Z</time></trkpt><trkpt lat="41.18002724373657" lon="15.047126343474076"><ele>607.0</ele><time>2026-03-22T12:09:06Z</time></trkpt><trkpt lat="41.180081392299996" lon="15.047198284909948"><ele>607.0</ele><time>2026-03-22T12:09:07Z</time></trkpt><trkpt lat="41.18012133817729" lon="15.04727044221665"><ele>607.0</ele><time>2026-03-22T12:09:08Z</time></trkpt><trkpt lat="41.18017969022674" lon="15.047342008644948"><ele>607.0</ele><time>2026-03-22T12:09:09Z</time></trkpt><trkpt lat="41.180237787197065" lon="15.047414633820303"><ele>607.0</ele><time>2026-03-22T12:09:10Z</time></trkpt><trkpt lat="41.1802853743881" lon="15.047493434603204"><ele>607.0</ele><time>2026-03-22T12:09:11Z</time></trkpt><trkpt lat="41.18033928469376" lon="15.047593617520674"><ele>607.6666666666667</ele><time>2026-03-22T12:09:12Z</time></trkpt><trkpt lat="41.18039889907378" lon="15.047681185917341"><ele>608.3333333333334</ele><time>2026-03-22T12:09:13Z</time></trkpt><trkpt lat="41.18045367680913" lon="15.047761651790795"><ele>609.0</ele><time>2026-03-22T12:09:14Z</time></trkpt><trkpt lat="41.18050719682379" lon="15.047838328599397"><ele>609.6666666666666</ele><time>2026-03-22T12:09:15Z</time></trkpt><trkpt lat="41.18057329823988" lon="15.047897811135545"><ele>610.3333333333333</ele><time>2026-03-22T12:09:16Z</time></trkpt><trkpt lat="41.18062692899263" lon="15.04797197574262"><ele>611.0</ele><time>2026-03-22T12:09:17Z</time></trkpt><trkpt lat="41.1806856274175" lon="15.048045041790832"><ele>611.0</ele><time>2026-03-22T12:09:18Z</time></trkpt><trkpt lat="41.18074648891504" lon="15.048114816172893"><ele>611.0</ele><time>2026-03-22T12:09:19Z</time></trkpt><trkpt lat="41.1808094179285" lon="15.048175875437122"><ele>611.0</ele><time>2026-03-22T12:09:20Z</time></trkpt><trkpt lat="41.18086675928873" lon="15.048221553025988"><ele>611.0</ele><time>2026-03-22T12:09:21Z</time></trkpt><trkpt lat="41.180941961566894" lon="15.04827911138465"><ele>611.0</ele><time>2026-03-22T12:09:23Z</time></trkpt><trkpt lat="41.1808279121774" lon="15.048260637323748"><ele>611.0</ele><time>2026-03-22T12:09:29Z</time></trkpt><trkpt lat="41.180760650651784" lon="15.048252762038029"><ele>611.0</ele><time>2026-03-22T12:09:31Z</time></trkpt><trkpt lat="41.18068627600978" lon="15.048243547415836"><ele>611.0</ele><time>2026-03-22T12:09:33Z</time></trkpt><trkpt lat="41.180638649023564" lon="15.048346568050098"><ele>611.0</ele><time>2026-03-22T12:09:36Z</time></trkpt><trkpt lat="41.18079129580511" lon="15.048368709607514"><ele>611.0</ele><time>2026-03-22T12:17:56Z</time></trkpt><trkpt lat="41.18067901671794" lon="15.048348147448804"><ele>611.0</ele><time>2026-03-22T12:18:08Z</time></trkpt><trkpt lat="41.18072562527733" lon="15.048420936292255"><ele>609.8333333333333</ele><time>2026-03-22T12:18:20Z</time></trkpt><trkpt lat="41.1807964950652" lon="15.048492554848222"><ele>608.6666666666666</ele><time>2026-03-22T12:18:30Z</time></trkpt><trkpt lat="41.18083252058334" lon="15.048577438493474"><ele>607.5</ele><time>2026-03-22T12:18:31Z</time></trkpt><trkpt lat="41.18083808694162" lon="15.048668336759079"><ele>606.3333333333334</ele><time>2026-03-22T12:18:32Z</time></trkpt><trkpt lat="41.18080197472436" lon="15.048752621590586"><ele>605.1666666666667</ele><time>2026-03-22T12:18:33Z</time></trkpt><trkpt lat="41.180754338507704" lon="15.048833708918286"><ele>604.0</ele><time>2026-03-22T12:18:34Z</time></trkpt><trkpt lat="41.18071606694619" lon="15.048932407687465"><ele>601.3333333333334</ele><time>2026-03-22T12:18:35Z</time></trkpt><trkpt lat="41.18066506516397" lon="15.049024898070682"><ele>598.6666666666667</ele><time>2026-03-22T12:18:36Z</time></trkpt><trkpt lat="41.18062026107228" lon="15.049111309030321"><ele>596.0</ele><time>2026-03-22T12:18:37Z</time></trkpt><trkpt lat="41.180603846419274" lon="15.049220132963598"><ele>593.3333333333334</ele><time>2026-03-22T12:18:38Z</time></trkpt><trkpt lat="41.18057362630805" lon="15.049311645734198"><ele>590.6666666666666</ele><time>2026-03-22T12:18:39Z</time></trkpt><trkpt lat="41.1805480688719" lon="15.049397850659266"><ele>588.0</ele><time>2026-03-22T12:18:40Z</time></trkpt><trkpt lat="41.180514588285114" lon="15.049507554668425"><ele>585.6</ele><time>2026-03-22T12:18:41Z</time></trkpt><trkpt lat="41.18048995892791" lon="15.049614105867468"><ele>583.1999999999999</ele><time>2026-03-22T12:18:42Z</time></trkpt><trkpt lat="41.18044524252154" lon="15.049709077812617"><ele>580.8</ele><time>2026-03-22T12:18:43Z</time></trkpt><trkpt lat="41.18037815805762" lon="15.049786089966931"><ele>578.4</ele><time>2026-03-22T12:18:44Z</time></trkpt><trkpt lat="41.18033056302488" lon="15.04986892014958"><ele>576.0</ele><time>2026-03-22T12:18:45Z</time></trkpt><trkpt lat="41.180316072634135" lon="15.050064136486784"><ele>574.0</ele><time>2026-03-22T12:18:47Z</time></trkpt><trkpt lat="41.18032666808488" lon="15.050180174323156"><ele>572.0</ele><time>2026-03-22T12:18:48Z</time></trkpt><trkpt lat="41.18034426532749" lon="15.050270645656052"><ele>570.0</ele><time>2026-03-22T12:18:49Z</time></trkpt><trkpt lat="41.18040775173898" lon="15.050400308136403"><ele>568.0</ele><time>2026-03-22T12:18:51Z</time></trkpt><trkpt lat="41.18046988800049" lon="15.050417415633554"><ele>566.0</ele><time>2026-03-22T12:18:52Z</time></trkpt><trkpt lat="41.18054524743803" lon="15.050435177173226"><ele>564.0</ele><time>2026-03-22T12:18:53Z</time></trkpt><trkpt lat="41.180607790262016" lon="15.050405959177564"><ele>564.0</ele><time>2026-03-22T12:18:54Z</time></trkpt><trkpt lat="41.1806621562522" lon="15.050337675696637"><ele>564.0</ele><time>2026-03-22T12:18:55Z</time></trkpt><trkpt lat="41.180728967698066" lon="15.050318714659218"><ele>564.0</ele><time>2026-03-22T12:18:56Z</time></trkpt><trkpt lat="41.18078503337723" lon="15.050362264940905"><ele>564.0</ele><time>2026-03-22T12:18:57Z</time></trkpt><trkpt lat="41.180832236956554" lon="15.050428837237314"><ele>564.0</ele><time>2026-03-22T12:18:58Z</time></trkpt><trkpt lat="41.18088208187165" lon="15.05055427866262"><ele>564.0</ele><time>2026-03-22T12:19:00Z</time></trkpt><trkpt lat="41.180883155110806" lon="15.050689249302506"><ele>564.0</ele><time>2026-03-22T12:19:02Z</time></trkpt><trkpt lat="41.18073856418567" lon="15.050788139843586"><ele>564.0</ele><time>2026-03-22T12:19:04Z</time></trkpt><trkpt lat="41.18065345456591" lon="15.050790876507897"><ele>564.0</ele><time>2026-03-22T12:19:05Z</time></trkpt><trkpt lat="41.18055441885757" lon="15.050823357849977"><ele>564.0</ele><time>2026-03-22T12:19:06Z</time></trkpt><trkpt lat="41.18048179396597" lon="15.050854692436458"><ele>564.0</ele><time>2026-03-22T12:19:07Z</time></trkpt><trkpt lat="41.180411301454136" lon="15.050866471321303"><ele>562.0</ele><time>2026-03-22T12:19:08Z</time></trkpt><trkpt lat="41.180318077619646" lon="15.050880945621007"><ele>560.0</ele><time>2026-03-22T12:19:10Z</time></trkpt><trkpt lat="41.18027310531744" lon="15.050948856650162"><ele>558.0</ele><time>2026-03-22T12:19:11Z</time></trkpt><trkpt lat="41.18016690655886" lon="15.050971279984628"><ele>556.0</ele><time>2026-03-22T12:19:13Z</time></trkpt><trkpt lat="41.180063727507516" lon="15.050975059471112"><ele>554.0</ele><time>2026-03-22T12:19:14Z</time></trkpt><trkpt lat="41.17995824763788" lon="15.0509333571235"><ele>554.0</ele><time>2026-03-22T12:19:15Z</time></trkpt><trkpt lat="41.17985207383215" lon="15.050872905769884"><ele>554.0</ele><time>2026-03-22T12:19:16Z</time></trkpt><trkpt lat="41.17975144404816" lon="15.050853607173861"><ele>554.0</ele><time>2026-03-22T12:19:17Z</time></trkpt><trkpt lat="41.17967725991337" lon="15.050849706780864"><ele>554.0</ele><time>2026-03-22T12:19:18Z</time></trkpt><trkpt lat="41.179589368022974" lon="15.050868747026492"><ele>554.0</ele><time>2026-03-22T12:19:19Z</time></trkpt><trkpt lat="41.17951498389415" lon="15.05089746951692"><ele>550.2</ele><time>2026-03-22T12:19:20Z</time></trkpt><trkpt lat="41.17937421471051" lon="15.050974011239195"><ele>546.4</ele><time>2026-03-22T12:19:22Z</time></trkpt><trkpt lat="41.17928756874919" lon="15.050989380431016"><ele>542.6</ele><time>2026-03-22T12:19:23Z</time></trkpt><trkpt lat="41.179187739124224" lon="15.050991731300561"><ele>538.8</ele><time>2026-03-22T12:19:24Z</time></trkpt><trkpt lat="41.17910643610763" lon="15.050980681015826"><ele>535.0</ele><time>2026-03-22T12:19:25Z</time></trkpt><trkpt lat="41.17904451441191" lon="15.050962843090804"><ele>533.0</ele><time>2026-03-22T12:19:26Z</time></trkpt><trkpt lat="41.17894361509346" lon="15.051024231738845"><ele>531.0</ele><time>2026-03-22T12:19:28Z</time></trkpt><trkpt lat="41.17888169609" lon="15.05111222904844"><ele>529.0</ele><time>2026-03-22T12:19:29Z</time></trkpt><trkpt lat="41.17882326400148" lon="15.051234429002353"><ele>527.0</ele><time>2026-03-22T12:19:30Z</time></trkpt><trkpt lat="41.178751701254555" lon="15.051332104170385"><ele>525.0</ele><time>2026-03-22T12:19:31Z</time></trkpt><trkpt lat="41.17870749794639" lon="15.051398694849167"><ele>525.0</ele><time>2026-03-22T12:19:32Z</time></trkpt><trkpt lat="41.17866630366614" lon="15.051478897786646"><ele>525.0</ele><time>2026-03-22T12:19:33Z</time></trkpt><trkpt lat="41.178617030942526" lon="15.051641367239574"><ele>525.0</ele><time>2026-03-22T12:19:35Z</time></trkpt><trkpt lat="41.178573599787505" lon="15.051737176192205"><ele>525.0</ele><time>2026-03-22T12:19:36Z</time></trkpt><trkpt lat="41.17854249111307" lon="15.051812473402101"><ele>525.0</ele><time>2026-03-22T12:19:37Z</time></trkpt><trkpt lat="41.178519490151366" lon="15.051915089619476"><ele>525.0</ele><time>2026-03-22T12:19:39Z</time></trkpt><trkpt lat="41.178672463967246" lon="15.051970727903802"><ele>522.3333333333334</ele><time>2026-03-22T12:19:41Z</time></trkpt><trkpt lat="41.17874794934483" lon="15.052021070865866"><ele>519.6666666666666</ele><time>2026-03-22T12:19:43Z</time></trkpt><trkpt lat="41.17872058106193" lon="15.052172692248709"><ele>517.0</ele><time>2026-03-22T12:19:45Z</time></trkpt><trkpt lat="41.17870536420461" lon="15.052270463561973"><ele>514.3333333333333</ele><time>2026-03-22T12:19:46Z</time></trkpt><trkpt lat="41.17865947768027" lon="15.05234363173734"><ele>511.66666666666663</ele><time>2026-03-22T12:19:47Z</time></trkpt><trkpt lat="41.17861646237352" lon="15.052450832961844"><ele>509.0</ele><time>2026-03-22T12:19:49Z</time></trkpt><trkpt lat="41.17853275727657" lon="15.052620998441684"><ele>506.6</ele><time>2026-03-22T12:19:51Z</time></trkpt><trkpt lat="41.17850505923152" lon="15.052727184414428"><ele>504.2</ele><time>2026-03-22T12:19:52Z</time></trkpt><trkpt lat="41.17847152087655" lon="15.052807904587512"><ele>501.80000000000007</ele><time>2026-03-22T12:19:53Z</time></trkpt><trkpt lat="41.178458491078565" lon="15.052951064697899"><ele>499.40000000000003</ele><time>2026-03-22T12:19:55Z</time></trkpt><trkpt lat="41.17847386576434" lon="15.053077397206167"><ele>497.0</ele><time>2026-03-22T12:19:57Z</time></trkpt><trkpt lat="41.17854378850487" lon="15.053253937077141"><ele>495.8333333333333</ele><time>2026-03-22T12:19:59Z</time></trkpt><trkpt lat="41.17859508801786" lon="15.05338232823209"><ele>494.66666666666663</ele><time>2026-03-22T12:20:00Z</time></trkpt><trkpt lat="41.178642666161316" lon="15.05348584516371"><ele>493.5</ele><time>2026-03-22T12:20:01Z</time></trkpt><trkpt lat="41.17871722858125" lon="15.05355277777105"><ele>492.33333333333337</ele><time>2026-03-22T12:20:02Z</time></trkpt><trkpt lat="41.17876357396694" lon="15.053660392504513"><ele>491.1666666666667</ele><time>2026-03-22T12:20:04Z</time></trkpt><trkpt lat="41.17878083626565" lon="15.053743819533528"><ele>490.0</ele><time>2026-03-22T12:20:05Z</time></trkpt><trkpt lat="41.17880426772493" lon="15.053888660712019"><ele>490.0</ele><time>2026-03-22T12:20:06Z</time></trkpt><trkpt lat="41.178839681332406" lon="15.054030510092765"><ele>490.0</ele><time>2026-03-22T12:20:07Z</time></trkpt><trkpt lat="41.17888784107343" lon="15.054158836562612"><ele>490.0</ele><time>2026-03-22T12:20:08Z</time></trkpt><trkpt lat="41.17890147467778" lon="15.054262769341488"><ele>490.0</ele><time>2026-03-22T12:20:09Z</time></trkpt><trkpt lat="41.17896336179427" lon="15.054354992312076"><ele>490.0</ele><time>2026-03-22T12:20:10Z</time></trkpt><trkpt lat="41.17903058297849" lon="15.054452916572611"><ele>495.4</ele><time>2026-03-22T12:20:11Z</time></trkpt><trkpt lat="41.179110832728895" lon="15.054554046440247"><ele>500.8</ele><time>2026-03-22T12:20:12Z</time></trkpt><trkpt lat="41.17917980618356" lon="15.054630319954668"><ele>506.20000000000005</ele><time>2026-03-22T12:20:13Z</time></trkpt><trkpt lat="41.17927854531216" lon="15.054691453334472"><ele>511.6</ele><time>2026-03-22T12:20:14Z</time></trkpt><trkpt lat="41.17934861908459" lon="15.054763739162174"><ele>517.0</ele><time>2026-03-22T12:20:15Z</time></trkpt><trkpt lat="41.17940818218987" lon="15.054834453382126"><ele>517.0</ele><time>2026-03-22T12:20:16Z</time></trkpt><trkpt lat="41.179467509777666" lon="15.054883726849573"><ele>517.0</ele><time>2026-03-22T12:20:17Z</time></trkpt><trkpt lat="41.179487290142944" lon="15.054965162882102"><ele>517.0</ele><time>2026-03-22T12:20:18Z</time></trkpt><trkpt lat="41.17951336745582" lon="15.05507319057538"><ele>517.0</ele><time>2026-03-22T12:20:19Z</time></trkpt><trkpt lat="41.179550244409405" lon="15.05518099104781"><ele>517.0</ele><time>2026-03-22T12:20:20Z</time></trkpt><trkpt lat="41.1795906055938" lon="15.055292600556411"><ele>517.0</ele><time>2026-03-22T12:20:21Z</time></trkpt><trkpt lat="41.179630920752054" lon="15.05540410862957"><ele>515.3333333333334</ele><time>2026-03-22T12:20:22Z</time></trkpt><trkpt lat="41.17967249999738" lon="15.055487715194214"><ele>513.6666666666667</ele><time>2026-03-22T12:20:23Z</time></trkpt><trkpt lat="41.17972241754799" lon="15.05555578001934"><ele>512.0</ele><time>2026-03-22T12:20:25Z</time></trkpt><trkpt lat="41.1796588337404" lon="15.055607655320157"><ele>510.33333333333337</ele><time>2026-03-22T12:20:27Z</time></trkpt><trkpt lat="41.17959508335222" lon="15.05564315605125"><ele>508.6666666666667</ele><time>2026-03-22T12:20:28Z</time></trkpt><trkpt lat="41.179522467568574" lon="15.055679281421899"><ele>507.0</ele><time>2026-03-22T12:20:30Z</time></trkpt><trkpt lat="41.17937132340534" lon="15.055758527466653"><ele>504.8</ele><time>2026-03-22T12:21:36Z</time></trkpt><trkpt lat="41.179296919361946" lon="15.055796831535082"><ele>502.6</ele><time>2026-03-22T12:21:37Z</time></trkpt><trkpt lat="41.1792301211912" lon="15.055821014263033"><ele>500.40000000000003</ele><time>2026-03-22T12:21:38Z</time></trkpt><trkpt lat="41.17913737525151" lon="15.055903253547399"><ele>498.20000000000005</ele><time>2026-03-22T12:21:39Z</time></trkpt><trkpt lat="41.17904951086487" lon="15.055932604612787"><ele>496.0</ele><time>2026-03-22T12:21:40Z</time></trkpt><trkpt lat="41.17895870823355" lon="15.055988298867662"><ele>491.4</ele><time>2026-03-22T12:21:41Z</time></trkpt><trkpt lat="41.178866141738006" lon="15.056059857468272"><ele>486.8</ele><time>2026-03-22T12:21:42Z</time></trkpt><trkpt lat="41.17878306718125" lon="15.056157882580607"><ele>482.19999999999993</ele><time>2026-03-22T12:21:43Z</time></trkpt><trkpt lat="41.17871102946179" lon="15.05627069819171"><ele>477.59999999999997</ele><time>2026-03-22T12:21:44Z</time></trkpt><trkpt lat="41.17864409367139" lon="15.05637947126932"><ele>473.0</ele><time>2026-03-22T12:21:45Z</time></trkpt><trkpt lat="41.17858112056863" lon="15.056452520896121"><ele>473.0</ele><time>2026-03-22T12:21:46Z</time></trkpt><trkpt lat="41.178498882711224" lon="15.056508983634535"><ele>472.99999999999994</ele><time>2026-03-22T12:21:47Z</time></trkpt><trkpt lat="41.17840860246752" lon="15.056571308060668"><ele>472.99999999999994</ele><time>2026-03-22T12:21:48Z</time></trkpt><trkpt lat="41.178318953592935" lon="15.05665126650756"><ele>473.0</ele><time>2026-03-22T12:21:49Z</time></trkpt><trkpt lat="41.17822994924751" lon="15.056757685210071"><ele>473.0</ele><time>2026-03-22T12:21:50Z</time></trkpt><trkpt lat="41.17816138961998" lon="15.056832217115295"><ele>469.79999999999995</ele><time>2026-03-22T12:21:51Z</time></trkpt><trkpt lat="41.178120329474126" lon="15.056902700399409"><ele>466.59999999999997</ele><time>2026-03-22T12:21:52Z</time></trkpt><trkpt lat="41.17808391397331" lon="15.057011172585435"><ele>463.40000000000003</ele><time>2026-03-22T12:21:54Z</time></trkpt><trkpt lat="41.178084657194525" lon="15.057126373939752"><ele>460.20000000000005</ele><time>2026-03-22T12:21:55Z</time></trkpt><trkpt lat="41.17812091449193" lon="15.057263589273076"><ele>457.0</ele><time>2026-03-22T12:21:56Z</time></trkpt><trkpt lat="41.17813002350601" lon="15.057395729859461"><ele>455.75</ele><time>2026-03-22T12:21:57Z</time></trkpt><trkpt lat="41.178120040450615" lon="15.05754143621323"><ele>454.5</ele><time>2026-03-22T12:21:58Z</time></trkpt><trkpt lat="41.17812341429544" lon="15.057700736266279"><ele>453.25</ele><time>2026-03-22T12:21:59Z</time></trkpt><trkpt lat="41.17812369358624" lon="15.057859507704135"><ele>452.0</ele><time>2026-03-22T12:22:00Z</time></trkpt><trkpt lat="41.178122408808356" lon="15.058021347009124"><ele>452.0</ele><time>2026-03-22T12:22:01Z</time></trkpt><trkpt lat="41.1781218305134" lon="15.058183927041634"><ele>452.00000000000006</ele><time>2026-03-22T12:22:02Z</time></trkpt><trkpt lat="41.17812201905184" lon="15.058349758152007"><ele>452.00000000000006</ele><time>2026-03-22T12:22:03Z</time></trkpt><trkpt lat="41.17811977829303" lon="15.05848616640455"><ele>452.0</ele><time>2026-03-22T12:22:04Z</time></trkpt><trkpt lat="41.17811981091864" lon="15.058608833141468"><ele>452.0</ele><time>2026-03-22T12:22:05Z</time></trkpt><trkpt lat="41.17810474165233" lon="15.058706354155504"><ele>449.49999999999994</ele><time>2026-03-22T12:22:06Z</time></trkpt><trkpt lat="41.178100430574055" lon="15.058801941227605"><ele>447.0</ele><time>2026-03-22T12:22:07Z</time></trkpt><trkpt lat="41.17808460638291" lon="15.058925612269912"><ele>444.5</ele><time>2026-03-22T12:22:09Z</time></trkpt><trkpt lat="41.178046220260775" lon="15.058998412629524"><ele>442.0</ele><time>2026-03-22T12:22:35Z</time></trkpt><trkpt lat="41.177987915672524" lon="15.059043017422887"><ele>439.49999999999994</ele><time>2026-03-22T12:22:51Z</time></trkpt><trkpt lat="41.17792995162083" lon="15.059187902907427"><ele>437.0</ele><time>2026-03-22T12:24:39Z</time></trkpt><trkpt lat="41.17788417861201" lon="15.059266942072476"><ele>435.0</ele><time>2026-03-22T12:24:41Z</time></trkpt><trkpt lat="41.177839868761914" lon="15.059336045496146"><ele>433.00000000000006</ele><time>2026-03-22T12:25:41Z</time></trkpt><trkpt lat="41.177776985818454" lon="15.05938194317338"><ele>431.00000000000006</ele><time>2026-03-22T12:25:44Z</time></trkpt><trkpt lat="41.17760537233071" lon="15.059464125953264"><ele>429.0</ele><time>2026-03-22T12:26:06Z</time></trkpt><trkpt lat="41.17753475025908" lon="15.059501472656274"><ele>427.0</ele><time>2026-03-22T12:26:07Z</time></trkpt><trkpt lat="41.17746090359456" lon="15.05950967405281"><ele>427.00000000000006</ele><time>2026-03-22T12:26:08Z</time></trkpt><trkpt lat="41.1773723980548" lon="15.059541036440304"><ele>427.0</ele><time>2026-03-22T12:26:10Z</time></trkpt><trkpt lat="41.17738011787987" lon="15.05966254134674"><ele>427.0</ele><time>2026-03-22T12:26:12Z</time></trkpt><trkpt lat="41.177349611089646" lon="15.059749397602415"><ele>427.0</ele><time>2026-03-22T12:26:14Z</time></trkpt><trkpt lat="41.17727985571613" lon="15.059749548007362"><ele>427.00000000000006</ele><time>2026-03-22T12:26:15Z</time></trkpt><trkpt lat="41.17721788201936" lon="15.059720328674235"><ele>427.0</ele><time>2026-03-22T12:26:16Z</time></trkpt><trkpt lat="41.177136721816304" lon="15.059700287723198"><ele>427.00000000000006</ele><time>2026-03-22T12:26:18Z</time></trkpt><trkpt lat="41.177097400101054" lon="15.05980303794221"><ele>427.0</ele><time>2026-03-22T12:26:20Z</time></trkpt><trkpt lat="41.17707376168787" lon="15.0599282818154"><ele>427.0</ele><time>2026-03-22T12:26:21Z</time></trkpt><trkpt lat="41.1770660105664" lon="15.060026886849773"><ele>427.0</ele><time>2026-03-22T12:26:22Z</time></trkpt><trkpt lat="41.177078663835566" lon="15.060120925425629"><ele>427.00000000000006</ele><time>2026-03-22T12:26:24Z</time></trkpt><trkpt lat="41.17701360238013" lon="15.060118449746263"><ele>427.0</ele><time>2026-03-22T12:26:27Z</time></trkpt><trkpt lat="41.17693297049196" lon="15.060000930947629"><ele>427.0</ele><time>2026-03-22T12:26:31Z</time></trkpt><trkpt lat="41.17685005198063" lon="15.059943379073232"><ele>427.00000000000006</ele><time>2026-03-22T12:26:32Z</time></trkpt><trkpt lat="41.17678517152664" lon="15.059891220694096"><ele>427.00000000000006</ele><time>2026-03-22T12:26:33Z</time></trkpt><trkpt lat="41.176701688327206" lon="15.05984956592774"><ele>427.0</ele><time>2026-03-22T12:26:35Z</time></trkpt><trkpt lat="41.176584854640325" lon="15.059911407139563"><ele>427.0</ele><time>2026-03-22T12:26:37Z</time></trkpt><trkpt lat="41.176520856280504" lon="15.059961500860393"><ele>426.6</ele><time>2026-03-22T12:26:38Z</time></trkpt><trkpt lat="41.17642653448827" lon="15.059959255272819"><ele>426.20000000000005</ele><time>2026-03-22T12:26:40Z</time></trkpt><trkpt lat="41.17638984876379" lon="15.05986768245591"><ele>425.8</ele><time>2026-03-22T12:26:42Z</time></trkpt><trkpt lat="41.17624998359245" lon="15.059854714844574"><ele>425.4</ele><time>2026-03-22T12:26:44Z</time></trkpt><trkpt lat="41.17612745877645" lon="15.059901641746308"><ele>425.0</ele><time>2026-03-22T12:26:45Z</time></trkpt><trkpt lat="41.1759940751561" lon="15.05990381941898"><ele>425.0</ele><time>2026-03-22T12:26:46Z</time></trkpt><trkpt lat="41.17589447015858" lon="15.059903135250616"><ele>425.0</ele><time>2026-03-22T12:26:47Z</time></trkpt><trkpt lat="41.175814117993305" lon="15.059893482667876"><ele>425.0</ele><time>2026-03-22T12:26:48Z</time></trkpt><trkpt lat="41.175744745812715" lon="15.059953106749226"><ele>425.0</ele><time>2026-03-22T12:26:51Z</time></trkpt><trkpt lat="41.17572610333092" lon="15.060128667701845"><ele>425.0</ele><time>2026-03-22T12:26:53Z</time></trkpt><trkpt lat="41.17570757131952" lon="15.06024175916446"><ele>427.0</ele><time>2026-03-22T12:26:54Z</time></trkpt><trkpt lat="41.17568415496061" lon="15.060345193028382"><ele>429.0</ele><time>2026-03-22T12:26:55Z</time></trkpt><trkpt lat="41.175667554784376" lon="15.060438134327807"><ele>431.0</ele><time>2026-03-22T12:26:56Z</time></trkpt><trkpt lat="41.175643357282816" lon="15.06055308609947"><ele>433.0</ele><time>2026-03-22T12:26:57Z</time></trkpt><trkpt lat="41.17561178718899" lon="15.06069219407248"><ele>435.0</ele><time>2026-03-22T12:26:58Z</time></trkpt><trkpt lat="41.17557155806052" lon="15.06084583958294"><ele>439.0</ele><time>2026-03-22T12:26:59Z</time></trkpt><trkpt lat="41.175564612746996" lon="15.060982283582419"><ele>443.0</ele><time>2026-03-22T12:27:00Z</time></trkpt><trkpt lat="41.17556008125965" lon="15.06113468705822"><ele>447.0</ele><time>2026-03-22T12:27:01Z</time></trkpt><trkpt lat="41.17554713927462" lon="15.061274405318503"><ele>451.0</ele><time>2026-03-22T12:27:02Z</time></trkpt><trkpt lat="41.175551174734935" lon="15.061394040475976"><ele>455.0</ele><time>2026-03-22T12:27:03Z</time></trkpt><trkpt lat="41.17560271443316" lon="15.061542309142519"><ele>459.0</ele><time>2026-03-22T12:27:04Z</time></trkpt><trkpt lat="41.17566304947534" lon="15.061700076390148"><ele>463.0</ele><time>2026-03-22T12:27:05Z</time></trkpt><trkpt lat="41.17570877125763" lon="15.06182391390171"><ele>467.0</ele><time>2026-03-22T12:27:06Z</time></trkpt><trkpt lat="41.17571994368229" lon="15.061947260332312"><ele>471.0</ele><time>2026-03-22T12:27:07Z</time></trkpt><trkpt lat="41.17571687033976" lon="15.062043663535766"><ele>475.0</ele><time>2026-03-22T12:27:08Z</time></trkpt><trkpt lat="41.17572029916178" lon="15.062157954398298"><ele>475.0</ele><time>2026-03-22T12:27:09Z</time></trkpt><trkpt lat="41.1757165314688" lon="15.062304179354474"><ele>475.0</ele><time>2026-03-22T12:27:10Z</time></trkpt><trkpt lat="41.175680047192934" lon="15.062445381917025"><ele>475.0</ele><time>2026-03-22T12:27:11Z</time></trkpt><trkpt lat="41.175630847481784" lon="15.062589358588031"><ele>475.0</ele><time>2026-03-22T12:27:12Z</time></trkpt><trkpt lat="41.17557740568299" lon="15.062767646572137"><ele>479.5</ele><time>2026-03-22T12:27:13Z</time></trkpt><trkpt lat="41.175518925503646" lon="15.06294952015656"><ele>484.0</ele><time>2026-03-22T12:27:14Z</time></trkpt><trkpt lat="41.17544875111693" lon="15.063094048356753"><ele>488.5</ele><time>2026-03-22T12:27:15Z</time></trkpt><trkpt lat="41.17535761827075" lon="15.063214263534299"><ele>493.0</ele><time>2026-03-22T12:27:16Z</time></trkpt><trkpt lat="41.17526615733694" lon="15.063313117331823"><ele>496.33333333333337</ele><time>2026-03-22T12:27:17Z</time></trkpt><trkpt lat="41.17521674499915" lon="15.063385025995114"><ele>499.6666666666667</ele><time>2026-03-22T12:27:18Z</time></trkpt><trkpt lat="41.175206733305714" lon="15.06347547797332"><ele>503.0</ele><time>2026-03-22T12:27:20Z</time></trkpt><trkpt lat="41.175228798806636" lon="15.063592057001987"><ele>506.33333333333337</ele><time>2026-03-22T12:27:22Z</time></trkpt><trkpt lat="41.17519216649361" lon="15.06367851189328"><ele>509.6666666666667</ele><time>2026-03-22T12:27:23Z</time></trkpt><trkpt lat="41.17513191935421" lon="15.06380026651994"><ele>513.0</ele><time>2026-03-22T12:27:24Z</time></trkpt><trkpt lat="41.17507821351335" lon="15.063932899451636"><ele>513.0</ele><time>2026-03-22T12:27:25Z</time></trkpt><trkpt lat="41.175043874248274" lon="15.064051340269323"><ele>513.0</ele><time>2026-03-22T12:27:26Z</time></trkpt><trkpt lat="41.17500904683968" lon="15.064139217839065"><ele>513.0</ele><time>2026-03-22T12:27:27Z</time></trkpt><trkpt lat="41.174953321533295" lon="15.064215539419573"><ele>513.0</ele><time>2026-03-22T12:27:29Z</time></trkpt><trkpt lat="41.17498610322669" lon="15.064318282361727"><ele>513.0</ele><time>2026-03-22T12:27:31Z</time></trkpt><trkpt lat="41.17503889394138" lon="15.064420716537834"><ele>513.0</ele><time>2026-03-22T12:27:32Z</time></trkpt><trkpt lat="41.175080166287735" lon="15.064578392453031"><ele>516.25</ele><time>2026-03-22T12:27:33Z</time></trkpt><trkpt lat="41.175115016958614" lon="15.064737690702493"><ele>519.5</ele><time>2026-03-22T12:27:34Z</time></trkpt><trkpt lat="41.17515513982864" lon="15.06488680497859"><ele>522.75</ele><time>2026-03-22T12:27:35Z</time></trkpt><trkpt lat="41.17519286584876" lon="15.065066220913458"><ele>526.0</ele><time>2026-03-22T12:27:36Z</time></trkpt><trkpt lat="41.17521777241003" lon="15.065240551814309"><ele>529.25</ele><time>2026-03-22T12:27:37Z</time></trkpt><trkpt lat="41.17524745557008" lon="15.065376110951942"><ele>532.5</ele><time>2026-03-22T12:27:38Z</time></trkpt><trkpt lat="41.175330766541094" lon="15.065499923041767"><ele>535.75</ele><time>2026-03-22T12:27:39Z</time></trkpt><trkpt lat="41.175414855749175" lon="15.065625454072208"><ele>539.0</ele><time>2026-03-22T12:27:40Z</time></trkpt><trkpt lat="41.1754686353789" lon="15.06577057763313"><ele>540.75</ele><time>2026-03-22T12:27:41Z</time></trkpt><trkpt lat="41.17548529572005" lon="15.06593638819453"><ele>542.5</ele><time>2026-03-22T12:27:42Z</time></trkpt><trkpt lat="41.17549546534678" lon="15.06611517792115"><ele>544.25</ele><time>2026-03-22T12:27:43Z</time></trkpt><trkpt lat="41.17549288361286" lon="15.066298385692527"><ele>546.0</ele><time>2026-03-22T12:27:44Z</time></trkpt><trkpt lat="41.17546962980798" lon="15.066462401699479"><ele>546.0</ele><time>2026-03-22T12:27:45Z</time></trkpt><trkpt lat="41.17544413273708" lon="15.066590824559402"><ele>546.0</ele><time>2026-03-22T12:27:46Z</time></trkpt><trkpt lat="41.17540746983231" lon="15.0667080679403"><ele>546.0</ele><time>2026-03-22T12:27:47Z</time></trkpt><trkpt lat="41.175339688066565" lon="15.066839059783938"><ele>546.0</ele><time>2026-03-22T12:27:48Z</time></trkpt><trkpt lat="41.17527745916943" lon="15.066976162123742"><ele>546.0</ele><time>2026-03-22T12:27:49Z</time></trkpt><trkpt lat="41.175225977243585" lon="15.067102590106485"><ele>546.3333333333334</ele><time>2026-03-22T12:27:50Z</time></trkpt><trkpt lat="41.17517999493064" lon="15.067259333837587"><ele>546.6666666666667</ele><time>2026-03-22T12:27:51Z</time></trkpt><trkpt lat="41.175147504633905" lon="15.067508652379173"><ele>547.0</ele><time>2026-03-22T12:27:52Z</time></trkpt><trkpt lat="41.1750920023413" lon="15.067708827520457"><ele>547.0</ele><time>2026-03-22T12:27:53Z</time></trkpt><trkpt lat="41.17504734076624" lon="15.067861937621366"><ele>547.0</ele><time>2026-03-22T12:27:54Z</time></trkpt><trkpt lat="41.174996918030935" lon="15.067990520049575"><ele>547.0</ele><time>2026-03-22T12:27:55Z</time></trkpt><trkpt lat="41.174947013414865" lon="15.068111636844614"><ele>547.0</ele><time>2026-03-22T12:27:56Z</time></trkpt><trkpt lat="41.1749147197956" lon="15.068232665935161"><ele>547.0</ele><time>2026-03-22T12:27:57Z</time></trkpt><trkpt lat="41.17484366713474" lon="15.068360908516942"><ele>551.25</ele><time>2026-03-22T12:27:58Z</time></trkpt><trkpt lat="41.174739256159185" lon="15.068492332567676"><ele>555.5</ele><time>2026-03-22T12:27:59Z</time></trkpt><trkpt lat="41.17466706935072" lon="15.06863152880255"><ele>559.75</ele><time>2026-03-22T12:28:00Z</time></trkpt><trkpt lat="41.17459776845872" lon="15.06875680881798"><ele>564.0</ele><time>2026-03-22T12:28:01Z</time></trkpt><trkpt lat="41.1745420397025" lon="15.068867938821741"><ele>564.0</ele><time>2026-03-22T12:28:02Z</time></trkpt><trkpt lat="41.174451280390095" lon="15.068968512957255"><ele>564.0</ele><time>2026-03-22T12:28:03Z</time></trkpt><trkpt lat="41.174354436261346" lon="15.069070894055134"><ele>564.0</ele><time>2026-03-22T12:28:04Z</time></trkpt><trkpt lat="41.17422755587908" lon="15.0691928864618"><ele>564.0</ele><time>2026-03-22T12:28:05Z</time></trkpt><trkpt lat="41.1741070274668" lon="15.0693009783233"><ele>566.0</ele><time>2026-03-22T12:28:06Z</time></trkpt><trkpt lat="41.17399365886198" lon="15.069402964284093"><ele>568.0</ele><time>2026-03-22T12:28:07Z</time></trkpt><trkpt lat="41.17381804955876" lon="15.069385131133826"><ele>570.0</ele><time>2026-03-22T12:28:08Z</time></trkpt><trkpt lat="41.17367276729292" lon="15.069518396613518"><ele>570.0</ele><time>2026-03-22T12:28:09Z</time></trkpt><trkpt lat="41.173541001613884" lon="15.069653337106457"><ele>570.0</ele><time>2026-03-22T12:28:10Z</time></trkpt><trkpt lat="41.17343484962015" lon="15.069764018376263"><ele>570.0</ele><time>2026-03-22T12:28:11Z</time></trkpt><trkpt lat="41.17333628996207" lon="15.069870765361427"><ele>570.0</ele><time>2026-03-22T12:28:12Z</time></trkpt><trkpt lat="41.17324049470744" lon="15.06997750837964"><ele>573.0</ele><time>2026-03-22T12:28:13Z</time></trkpt><trkpt lat="41.17313767095959" lon="15.070097382623015"><ele>576.0</ele><time>2026-03-22T12:28:14Z</time></trkpt><trkpt lat="41.17304440875744" lon="15.070219327350376"><ele>579.0</ele><time>2026-03-22T12:28:15Z</time></trkpt><trkpt lat="41.172957454734934" lon="15.070369722619644"><ele>582.0</ele><time>2026-03-22T12:28:16Z</time></trkpt><trkpt lat="41.17290223673731" lon="15.070486215211822"><ele>582.0</ele><time>2026-03-22T12:28:17Z</time></trkpt><trkpt lat="41.17283323126844" lon="15.070620744367746"><ele>582.0</ele><time>2026-03-22T12:28:19Z</time></trkpt><trkpt lat="41.172964888111956" lon="15.07066026159231"><ele>582.0</ele><time>2026-03-22T12:28:28Z</time></trkpt><trkpt lat="41.173016864909954" lon="15.07060231705134"><ele>582.0</ele><time>2026-03-22T12:28:31Z</time></trkpt><trkpt lat="41.17303478130003" lon="15.070757126349475"><ele>582.0</ele><time>2026-03-22T12:28:35Z</time></trkpt><trkpt lat="41.17305190741098" lon="15.070843863324649"><ele>577.2</ele><time>2026-03-22T12:28:36Z</time></trkpt><trkpt lat="41.172989889868596" lon="15.070805671207527"><ele>572.4000000000001</ele><time>2026-03-22T12:28:37Z</time></trkpt><trkpt lat="41.173067121549806" lon="15.070931356321319"><ele>567.5999999999999</ele><time>2026-03-22T12:28:38Z</time></trkpt><trkpt lat="41.173154433040175" lon="15.07097192190624"><ele>562.8</ele><time>2026-03-22T12:28:39Z</time></trkpt><trkpt lat="41.173217289409806" lon="15.071094254065345"><ele>558.0</ele><time>2026-03-22T12:28:40Z</time></trkpt><trkpt lat="41.17326216590501" lon="15.071193443365138"><ele>555.4</ele><time>2026-03-22T12:28:41Z</time></trkpt><trkpt lat="41.17333056389759" lon="15.071261671693293"><ele>552.8</ele><time>2026-03-22T12:28:42Z</time></trkpt><trkpt lat="41.17338563888503" lon="15.071341728653639"><ele>550.2</ele><time>2026-03-22T12:28:43Z</time></trkpt><trkpt lat="41.17342467204448" lon="15.071456151424924"><ele>547.6</ele><time>2026-03-22T12:28:44Z</time></trkpt><trkpt lat="41.173491684679426" lon="15.07155651420515"><ele>545.0</ele><time>2026-03-22T12:28:45Z</time></trkpt><trkpt lat="41.17356436944143" lon="15.071640895498158"><ele>542.5</ele><time>2026-03-22T12:28:46Z</time></trkpt><trkpt lat="41.17365488947621" lon="15.071734599510796"><ele>540.0</ele><time>2026-03-22T12:28:47Z</time></trkpt><trkpt lat="41.1737280097482" lon="15.071797880987"><ele>537.5</ele><time>2026-03-22T12:28:48Z</time></trkpt><trkpt lat="41.17377948268133" lon="15.071890825586703"><ele>535.0</ele><time>2026-03-22T12:28:51Z</time></trkpt><trkpt lat="41.173804447528745" lon="15.071970798439317"><ele>532.5</ele><time>2026-03-22T12:28:54Z</time></trkpt><trkpt lat="41.17385750692957" lon="15.07203718698228"><ele>530.0</ele><time>2026-03-22T12:28:56Z</time></trkpt><trkpt lat="41.17397245229235" lon="15.072083085167776"><ele>527.2</ele><time>2026-03-22T12:28:57Z</time></trkpt><trkpt lat="41.17409556504282" lon="15.07218168129873"><ele>524.4</ele><time>2026-03-22T12:29:01Z</time></trkpt><trkpt lat="41.1741685098361" lon="15.07224660506492"><ele>521.6</ele><time>2026-03-22T12:29:02Z</time></trkpt><trkpt lat="41.17420895013246" lon="15.07234622139151"><ele>518.8</ele><time>2026-03-22T12:29:03Z</time></trkpt><trkpt lat="41.174236529587674" lon="15.072426372562848"><ele>516.0</ele><time>2026-03-22T12:29:04Z</time></trkpt><trkpt lat="41.174188012476804" lon="15.072515724477336"><ele>516.0</ele><time>2026-03-22T12:29:06Z</time></trkpt><trkpt lat="41.17417771670406" lon="15.072623989646809"><ele>516.0</ele><time>2026-03-22T12:29:08Z</time></trkpt><trkpt lat="41.174243557412744" lon="15.072518323430575"><ele>516.0</ele><time>2026-03-22T12:29:11Z</time></trkpt><trkpt lat="41.17430186836768" lon="15.072444524949306"><ele>516.0</ele><time>2026-03-22T12:29:12Z</time></trkpt><trkpt lat="41.174396494175824" lon="15.072426950271444"><ele>516.0</ele><time>2026-03-22T12:29:13Z</time></trkpt><trkpt lat="41.17452426294583" lon="15.072409694143134"><ele>516.0</ele><time>2026-03-22T12:29:14Z</time></trkpt><trkpt lat="41.174666151540116" lon="15.072373266175063"><ele>516.0</ele><time>2026-03-22T12:29:15Z</time></trkpt><trkpt lat="41.17477509458339" lon="15.072342480234946"><ele>516.0</ele><time>2026-03-22T12:29:16Z</time></trkpt><trkpt lat="41.17484341789275" lon="15.072227313140687"><ele>516.0</ele><time>2026-03-22T12:29:17Z</time></trkpt><trkpt lat="41.17492344354412" lon="15.072077870612512"><ele>512.4</ele><time>2026-03-22T12:29:18Z</time></trkpt><trkpt lat="41.175006137689294" lon="15.071995931771118"><ele>508.8</ele><time>2026-03-22T12:29:19Z</time></trkpt><trkpt lat="41.175092857156045" lon="15.0719529949197"><ele>505.19999999999993</ele><time>2026-03-22T12:29:20Z</time></trkpt><trkpt lat="41.17518196569297" lon="15.071934965729614"><ele>501.59999999999997</ele><time>2026-03-22T12:29:21Z</time></trkpt><trkpt lat="41.17526761788267" lon="15.07189708124854"><ele>498.0</ele><time>2026-03-22T12:29:22Z</time></trkpt><trkpt lat="41.17536694720863" lon="15.071813712997434"><ele>498.0</ele><time>2026-03-22T12:29:23Z</time></trkpt><trkpt lat="41.175457936303296" lon="15.071740197478292"><ele>498.0</ele><time>2026-03-22T12:29:24Z</time></trkpt><trkpt lat="41.1755257302792" lon="15.07169863916696"><ele>498.0</ele><time>2026-03-22T12:29:25Z</time></trkpt><trkpt lat="41.17559475503108" lon="15.071678028137029"><ele>498.0</ele><time>2026-03-22T12:29:26Z</time></trkpt><trkpt lat="41.17568753097913" lon="15.071691931897147"><ele>498.0</ele><time>2026-03-22T12:29:28Z</time></trkpt><trkpt lat="41.175772676408975" lon="15.0716841087913"><ele>498.0</ele><time>2026-03-22T12:29:30Z</time></trkpt><trkpt lat="41.175876064862535" lon="15.071679107039843"><ele>495.3333333333333</ele><time>2026-03-22T12:29:32Z</time></trkpt><trkpt lat="41.175931817479245" lon="15.071744777771533"><ele>492.66666666666663</ele><time>2026-03-22T12:29:33Z</time></trkpt><trkpt lat="41.17598583764367" lon="15.071847673544225"><ele>490.0</ele><time>2026-03-22T12:29:34Z</time></trkpt><trkpt lat="41.17602753584177" lon="15.071958573469114"><ele>487.3333333333333</ele><time>2026-03-22T12:29:35Z</time></trkpt><trkpt lat="41.176073569766075" lon="15.072040130993868"><ele>484.66666666666663</ele><time>2026-03-22T12:29:36Z</time></trkpt><trkpt lat="41.176131879460264" lon="15.072097353673696"><ele>482.0</ele><time>2026-03-22T12:29:37Z</time></trkpt><trkpt lat="41.17619095551578" lon="15.072142658624477"><ele>482.0</ele><time>2026-03-22T12:29:38Z</time></trkpt><trkpt lat="41.17628783505571" lon="15.072216120763947"><ele>482.00000000000006</ele><time>2026-03-22T12:29:40Z</time></trkpt><trkpt lat="41.176358827654" lon="15.072259196231727"><ele>482.00000000000006</ele><time>2026-03-22T12:29:42Z</time></trkpt><trkpt lat="41.17645929764052" lon="15.072178891382608"><ele>482.0</ele><time>2026-03-22T12:29:44Z</time></trkpt><trkpt lat="41.17651201867779" lon="15.072076483099304"><ele>482.0</ele><time>2026-03-22T12:29:45Z</time></trkpt><trkpt lat="41.1765697018745" lon="15.071981686849883"><ele>480.3333333333333</ele><time>2026-03-22T12:29:46Z</time></trkpt><trkpt lat="41.176621154319406" lon="15.071900523378126"><ele>478.66666666666663</ele><time>2026-03-22T12:29:47Z</time></trkpt><trkpt lat="41.176669912913646" lon="15.071803973039831"><ele>477.0</ele><time>2026-03-22T12:29:48Z</time></trkpt><trkpt lat="41.176710133328825" lon="15.071704954331436"><ele>475.33333333333337</ele><time>2026-03-22T12:29:49Z</time></trkpt><trkpt lat="41.17674305040546" lon="15.071597988405873"><ele>473.6666666666667</ele><time>2026-03-22T12:29:50Z</time></trkpt><trkpt lat="41.176777753634184" lon="15.071512964015794"><ele>472.0</ele><time>2026-03-22T12:29:51Z</time></trkpt><trkpt lat="41.17680303781546" lon="15.071376103736132"><ele>472.0</ele><time>2026-03-22T12:29:52Z</time></trkpt><trkpt lat="41.176829109098826" lon="15.071285578280477"><ele>472.00000000000006</ele><time>2026-03-22T12:29:53Z</time></trkpt><trkpt lat="41.17685762883951" lon="15.071172738577754"><ele>472.00000000000006</ele><time>2026-03-22T12:29:54Z</time></trkpt><trkpt lat="41.17688630271699" lon="15.071054625128893"><ele>472.0</ele><time>2026-03-22T12:29:55Z</time></trkpt><trkpt lat="41.17689920012479" lon="15.070900349118906"><ele>472.0</ele><time>2026-03-22T12:29:56Z</time></trkpt><trkpt lat="41.176904618860405" lon="15.07077131884935"><ele>472.83333333333337</ele><time>2026-03-22T12:29:57Z</time></trkpt><trkpt lat="41.176946855166236" lon="15.070699417013762"><ele>473.6666666666667</ele><time>2026-03-22T12:29:58Z</time></trkpt><trkpt lat="41.177006763593404" lon="15.070622516314591"><ele>474.5</ele><time>2026-03-22T12:29:59Z</time></trkpt><trkpt lat="41.17705656750848" lon="15.070535610930781"><ele>475.33333333333337</ele><time>2026-03-22T12:30:00Z</time></trkpt><trkpt lat="41.17710851209537" lon="15.070436294765301"><ele>476.1666666666667</ele><time>2026-03-22T12:30:01Z</time></trkpt><trkpt lat="41.17717856014534" lon="15.070348965467582"><ele>477.0</ele><time>2026-03-22T12:30:02Z</time></trkpt><trkpt lat="41.17725372913115" lon="15.070269487748154"><ele>477.0</ele><time>2026-03-22T12:30:03Z</time></trkpt><trkpt lat="41.17728361020474" lon="15.070181575800449"><ele>477.00000000000006</ele><time>2026-03-22T12:30:04Z</time></trkpt><trkpt lat="41.177360805308815" lon="15.070038554207072"><ele>477.00000000000006</ele><time>2026-03-22T12:30:06Z</time></trkpt><trkpt lat="41.17740738969373" lon="15.069936391074378"><ele>477.0</ele><time>2026-03-22T12:30:07Z</time></trkpt><trkpt lat="41.17743543533921" lon="15.069841259885576"><ele>477.0</ele><time>2026-03-22T12:30:08Z</time></trkpt><trkpt lat="41.177490024055906" lon="15.069746533361197"><ele>474.5</ele><time>2026-03-22T12:30:10Z</time></trkpt><trkpt lat="41.17756789875231" lon="15.069707670585226"><ele>472.0</ele><time>2026-03-22T12:30:12Z</time></trkpt><trkpt lat="41.17763204650377" lon="15.069740682809577"><ele>469.5</ele><time>2026-03-22T12:30:13Z</time></trkpt><trkpt lat="41.177668508897035" lon="15.069811483541656"><ele>467.0</ele><time>2026-03-22T12:30:14Z</time></trkpt><trkpt lat="41.177659955373535" lon="15.06992909479518"><ele>464.5</ele><time>2026-03-22T12:30:15Z</time></trkpt><trkpt lat="41.177650748337776" lon="15.07003837796412"><ele>462.0</ele><time>2026-03-22T12:30:16Z</time></trkpt><trkpt lat="41.17772764465076" lon="15.070118690130176"><ele>462.0</ele><time>2026-03-22T12:30:18Z</time></trkpt><trkpt lat="41.17782826839588" lon="15.0700530656651"><ele>462.0</ele><time>2026-03-22T12:30:20Z</time></trkpt><trkpt lat="41.17798554589681" lon="15.070027498043082"><ele>462.0</ele><time>2026-03-22T12:30:21Z</time></trkpt><trkpt lat="41.17796199825109" lon="15.069816853706717"><ele>462.0</ele><time>2026-03-22T12:30:22Z</time></trkpt><trkpt lat="41.17796575221669" lon="15.069700929575069"><ele>461.75</ele><time>2026-03-22T12:30:23Z</time></trkpt><trkpt lat="41.1780582817075" lon="15.069568700892004"><ele>461.5</ele><time>2026-03-22T12:30:24Z</time></trkpt><trkpt lat="41.1781332198599" lon="15.069432696511992"><ele>461.25</ele><time>2026-03-22T12:30:25Z</time></trkpt><trkpt lat="41.17820410164132" lon="15.069394065103241"><ele>461.0</ele><time>2026-03-22T12:30:26Z</time></trkpt><trkpt lat="41.17830020513124" lon="15.069272018034082"><ele>463.20000000000005</ele><time>2026-03-22T12:30:27Z</time></trkpt><trkpt lat="41.178403396564505" lon="15.069236061612305"><ele>465.40000000000003</ele><time>2026-03-22T12:30:28Z</time></trkpt><trkpt lat="41.17851445924821" lon="15.069213472917875"><ele>467.6</ele><time>2026-03-22T12:30:29Z</time></trkpt><trkpt lat="41.17860869318435" lon="15.06914520870134"><ele>469.8</ele><time>2026-03-22T12:30:30Z</time></trkpt><trkpt lat="41.1787209540604" lon="15.069095373861739"><ele>472.0</ele><time>2026-03-22T12:30:31Z</time></trkpt><trkpt lat="41.17882311824923" lon="15.069077412685143"><ele>472.0</ele><time>2026-03-22T12:30:32Z</time></trkpt><trkpt lat="41.178919126164736" lon="15.069016076329563"><ele>472.00000000000006</ele><time>2026-03-22T12:30:33Z</time></trkpt><trkpt lat="41.17896935083407" lon="15.0689625979403"><ele>472.00000000000006</ele><time>2026-03-22T12:30:34Z</time></trkpt><trkpt lat="41.17903192578655" lon="15.069066810526643"><ele>472.0</ele><time>2026-03-22T12:30:36Z</time></trkpt><trkpt lat="41.17907111152592" lon="15.06922359090106"><ele>472.0</ele><time>2026-03-22T12:30:38Z</time></trkpt><trkpt lat="41.179161573836325" lon="15.069448026503562"><ele>481.0</ele><time>2026-03-22T12:30:39Z</time></trkpt><trkpt lat="41.179241509320924" lon="15.06959056913361"><ele>490.0</ele><time>2026-03-22T12:30:40Z</time></trkpt><trkpt lat="41.179350395803034" lon="15.069772042795798"><ele>499.0</ele><time>2026-03-22T12:30:41Z</time></trkpt><trkpt lat="41.17941017496103" lon="15.069949350970173"><ele>499.0</ele><time>2026-03-22T12:30:42Z</time></trkpt><trkpt lat="41.17946130320359" lon="15.070106663674142"><ele>499.0</ele><time>2026-03-22T12:30:43Z</time></trkpt><trkpt lat="41.179526738762014" lon="15.070260352407928"><ele>499.0</ele><time>2026-03-22T12:30:44Z</time></trkpt><trkpt lat="41.17960006900876" lon="15.070414896258342"><ele>499.0</ele><time>2026-03-22T12:30:45Z</time></trkpt><trkpt lat="41.179644774267004" lon="15.070539242668708"><ele>499.0</ele><time>2026-03-22T12:30:46Z</time></trkpt><trkpt lat="41.179715329003265" lon="15.070641600809397"><ele>499.0</ele><time>2026-03-22T12:30:47Z</time></trkpt><trkpt lat="41.17979760302631" lon="15.070743787457552"><ele>499.0</ele><time>2026-03-22T12:30:48Z</time></trkpt><trkpt lat="41.179860767990554" lon="15.070788147079591"><ele>499.0</ele><time>2026-03-22T12:30:49Z</time></trkpt><trkpt lat="41.1799287653107" lon="15.07076683994653"><ele>499.0</ele><time>2026-03-22T12:30:50Z</time></trkpt><trkpt lat="41.18002029992298" lon="15.07076850610484"><ele>501.25</ele><time>2026-03-22T12:30:51Z</time></trkpt><trkpt lat="41.18012869484859" lon="15.070801416846432"><ele>503.5</ele><time>2026-03-22T12:30:52Z</time></trkpt><trkpt lat="41.18021467103132" lon="15.070902543792975"><ele>505.75</ele><time>2026-03-22T12:30:53Z</time></trkpt><trkpt lat="41.18030613382642" lon="15.071039930199325"><ele>508.0</ele><time>2026-03-22T12:30:54Z</time></trkpt><trkpt lat="41.18037009857223" lon="15.071125213485127"><ele>508.0</ele><time>2026-03-22T12:30:55Z</time></trkpt><trkpt lat="41.1804594883699" lon="15.07118707896384"><ele>507.99999999999994</ele><time>2026-03-22T12:30:56Z</time></trkpt><trkpt lat="41.18056431522807" lon="15.071231732389721"><ele>507.99999999999994</ele><time>2026-03-22T12:30:57Z</time></trkpt><trkpt lat="41.18064464595755" lon="15.071326792321955"><ele>508.0</ele><time>2026-03-22T12:30:58Z</time></trkpt><trkpt lat="41.18071934206546" lon="15.07143904300185"><ele>508.0</ele><time>2026-03-22T12:30:59Z</time></trkpt><trkpt lat="41.18083017644835" lon="15.071485805179504"><ele>512.3333333333334</ele><time>2026-03-22T12:31:00Z</time></trkpt><trkpt lat="41.18090689230302" lon="15.071500707522267"><ele>516.6666666666667</ele><time>2026-03-22T12:31:01Z</time></trkpt><trkpt lat="41.180996540811364" lon="15.071514099061618"><ele>521.0</ele><time>2026-03-22T12:31:02Z</time></trkpt><trkpt lat="41.18107754337117" lon="15.071494010940789"><ele>525.3333333333334</ele><time>2026-03-22T12:31:03Z</time></trkpt><trkpt lat="41.181156713742865" lon="15.071469838680478"><ele>529.6666666666666</ele><time>2026-03-22T12:31:04Z</time></trkpt><trkpt lat="41.18125442967604" lon="15.071458235988338"><ele>534.0</ele><time>2026-03-22T12:31:05Z</time></trkpt><trkpt lat="41.181381699814715" lon="15.071429149739766"><ele>534.0</ele><time>2026-03-22T12:31:06Z</time></trkpt><trkpt lat="41.18146708232323" lon="15.071438554315524"><ele>534.0</ele><time>2026-03-22T12:31:07Z</time></trkpt><trkpt lat="41.181525840575425" lon="15.071507208466771"><ele>534.0</ele><time>2026-03-22T12:31:08Z</time></trkpt><trkpt lat="41.181578181012064" lon="15.071589759963294"><ele>534.0</ele><time>2026-03-22T12:31:09Z</time></trkpt><trkpt lat="41.18163353166981" lon="15.07168905029315"><ele>534.0</ele><time>2026-03-22T12:31:10Z</time></trkpt><trkpt lat="41.181732912023016" lon="15.071803683818734"><ele>535.8</ele><time>2026-03-22T12:31:11Z</time></trkpt><trkpt lat="41.18182907936669" lon="15.071912832517325"><ele>537.5999999999999</ele><time>2026-03-22T12:31:12Z</time></trkpt><trkpt lat="41.181896027588316" lon="15.071974705034496"><ele>539.4</ele><time>2026-03-22T12:31:13Z</time></trkpt><trkpt lat="41.18193929322099" lon="15.072051808882108"><ele>541.1999999999999</ele><time>2026-03-22T12:31:14Z</time></trkpt><trkpt lat="41.18197785470526" lon="15.072149745715254"><ele>543.0</ele><time>2026-03-22T12:31:15Z</time></trkpt><trkpt lat="41.182062870555725" lon="15.072228446668513"><ele>543.0</ele><time>2026-03-22T12:31:16Z</time></trkpt><trkpt lat="41.182182485216856" lon="15.072319053546462"><ele>543.0</ele><time>2026-03-22T12:31:17Z</time></trkpt><trkpt lat="41.182313189713014" lon="15.072364414842225"><ele>543.0</ele><time>2026-03-22T12:31:18Z</time></trkpt><trkpt lat="41.18241421090674" lon="15.07243457326125"><ele>543.0</ele><time>2026-03-22T12:31:19Z</time></trkpt><trkpt lat="41.182537872096596" lon="15.072522751043754"><ele>542.75</ele><time>2026-03-22T12:31:20Z</time></trkpt><trkpt lat="41.182658131253696" lon="15.072640638885288"><ele>542.5</ele><time>2026-03-22T12:31:21Z</time></trkpt><trkpt lat="41.18274088848348" lon="15.072711073375189"><ele>542.25</ele><time>2026-03-22T12:31:22Z</time></trkpt><trkpt lat="41.1828275432122" lon="15.07274787068806"><ele>542.0</ele><time>2026-03-22T12:31:23Z</time></trkpt><trkpt lat="41.18293703797012" lon="15.072786511837599"><ele>542.0</ele><time>2026-03-22T12:31:24Z</time></trkpt><trkpt lat="41.183026693277306" lon="15.072816978959487"><ele>542.0</ele><time>2026-03-22T12:31:25Z</time></trkpt><trkpt lat="41.18311145644833" lon="15.072792618547131"><ele>542.0</ele><time>2026-03-22T12:31:26Z</time></trkpt><trkpt lat="41.183206836002206" lon="15.072748923199867"><ele>542.0</ele><time>2026-03-22T12:31:27Z</time></trkpt><trkpt lat="41.18329265726635" lon="15.072731062376638"><ele>542.0</ele><time>2026-03-22T12:31:28Z</time></trkpt><trkpt lat="41.183372473996556" lon="15.072784949144552"><ele>541.8333333333333</ele><time>2026-03-22T12:31:29Z</time></trkpt><trkpt lat="41.18344526900049" lon="15.072862083929708"><ele>541.6666666666666</ele><time>2026-03-22T12:31:30Z</time></trkpt><trkpt lat="41.1834735433307" lon="15.072947113146368"><ele>541.5</ele><time>2026-03-22T12:31:31Z</time></trkpt><trkpt lat="41.18349921022089" lon="15.07305263762826"><ele>541.3333333333334</ele><time>2026-03-22T12:31:32Z</time></trkpt><trkpt lat="41.18351098619816" lon="15.07316953266773"><ele>541.1666666666667</ele><time>2026-03-22T12:31:33Z</time></trkpt><trkpt lat="41.18352056869736" lon="15.073271535901416"><ele>541.0</ele><time>2026-03-22T12:31:34Z</time></trkpt><trkpt lat="41.183552287510636" lon="15.073352996058935"><ele>541.0</ele><time>2026-03-22T12:31:35Z</time></trkpt><trkpt lat="41.18363155206285" lon="15.073464358055329"><ele>541.0</ele><time>2026-03-22T12:31:36Z</time></trkpt><trkpt lat="41.18370050263146" lon="15.073545310143874"><ele>541.0</ele><time>2026-03-22T12:31:37Z</time></trkpt><trkpt lat="41.18378844488811" lon="15.073600085417576"><ele>541.0</ele><time>2026-03-22T12:31:38Z</time></trkpt><trkpt lat="41.18389178991741" lon="15.07363054868995"><ele>541.0</ele><time>2026-03-22T12:31:39Z</time></trkpt><trkpt lat="41.18397870798786" lon="15.07363640843824"><ele>542.8</ele><time>2026-03-22T12:31:40Z</time></trkpt><trkpt lat="41.18404998040166" lon="15.073694175642629"><ele>544.6</ele><time>2026-03-22T12:31:41Z</time></trkpt><trkpt lat="41.184153488952376" lon="15.073800132600736"><ele>546.4</ele><time>2026-03-22T12:31:42Z</time></trkpt><trkpt lat="41.184237003646885" lon="15.073913234762268"><ele>548.2</ele><time>2026-03-22T12:31:43Z</time></trkpt><trkpt lat="41.184275723917985" lon="15.074032003970183"><ele>550.0</ele><time>2026-03-22T12:31:44Z</time></trkpt><trkpt lat="41.18431437342488" lon="15.074191964423104"><ele>550.0</ele><time>2026-03-22T12:31:45Z</time></trkpt><trkpt lat="41.18436555734502" lon="15.07438572516376"><ele>550.0</ele><time>2026-03-22T12:31:46Z</time></trkpt><trkpt lat="41.184450665037616" lon="15.07456025996138"><ele>550.0</ele><time>2026-03-22T12:31:47Z</time></trkpt><trkpt lat="41.184509621995176" lon="15.074684461145093"><ele>550.0</ele><time>2026-03-22T12:31:48Z</time></trkpt><trkpt lat="41.18453596728515" lon="15.074803905618117"><ele>550.25</ele><time>2026-03-22T12:31:49Z</time></trkpt><trkpt lat="41.18455588207211" lon="15.074962125525746"><ele>550.5</ele><time>2026-03-22T12:31:50Z</time></trkpt><trkpt lat="41.18458427172883" lon="15.075155286572512"><ele>550.75</ele><time>2026-03-22T12:31:51Z</time></trkpt><trkpt lat="41.18461852032349" lon="15.075342750625696"><ele>551.0</ele><time>2026-03-22T12:31:52Z</time></trkpt><trkpt lat="41.18465004950087" lon="15.075543424593546"><ele>551.0</ele><time>2026-03-22T12:31:53Z</time></trkpt><trkpt lat="41.18466633867323" lon="15.075725616210198"><ele>551.0</ele><time>2026-03-22T12:31:54Z</time></trkpt><trkpt lat="41.18467877516175" lon="15.07590862880581"><ele>551.0</ele><time>2026-03-22T12:31:55Z</time></trkpt><trkpt lat="41.1846908478942" lon="15.076099252182013"><ele>551.0</ele><time>2026-03-22T12:31:56Z</time></trkpt><trkpt lat="41.18469735240904" lon="15.076291261799163"><ele>552.25</ele><time>2026-03-22T12:31:57Z</time></trkpt><trkpt lat="41.18471860291774" lon="15.076445950730406"><ele>553.5</ele><time>2026-03-22T12:31:58Z</time></trkpt><trkpt lat="41.18473652716529" lon="15.076636631200628"><ele>554.75</ele><time>2026-03-22T12:31:59Z</time></trkpt><trkpt lat="41.18477387882297" lon="15.076814780892569"><ele>556.0</ele><time>2026-03-22T12:32:00Z</time></trkpt><trkpt lat="41.18480884256326" lon="15.076954628152217"><ele>558.25</ele><time>2026-03-22T12:32:01Z</time></trkpt><trkpt lat="41.184858911981735" lon="15.077091154065878"><ele>560.5</ele><time>2026-03-22T12:32:02Z</time></trkpt><trkpt lat="41.1849171195986" lon="15.077233354423058"><ele>562.75</ele><time>2026-03-22T12:32:03Z</time></trkpt><trkpt lat="41.184977672449" lon="15.077381914053497"><ele>565.0</ele><time>2026-03-22T12:32:04Z</time></trkpt><trkpt lat="41.18505612185631" lon="15.077525339236987"><ele>566.0</ele><time>2026-03-22T12:32:05Z</time></trkpt><trkpt lat="41.18512289869972" lon="15.0776821110804"><ele>567.0</ele><time>2026-03-22T12:32:06Z</time></trkpt><trkpt lat="41.1851692526773" lon="15.077801065013452"><ele>568.0</ele><time>2026-03-22T12:32:07Z</time></trkpt><trkpt lat="41.1852017821902" lon="15.077892665356742"><ele>569.0</ele><time>2026-03-22T12:32:08Z</time></trkpt><trkpt lat="41.18528628315378" lon="15.078069304645663"><ele>569.0</ele><time>2026-03-22T12:32:10Z</time></trkpt><trkpt lat="41.185367949014925" lon="15.078189358460827"><ele>569.0</ele><time>2026-03-22T12:32:11Z</time></trkpt><trkpt lat="41.18545022454306" lon="15.078316259471473"><ele>569.0</ele><time>2026-03-22T12:32:12Z</time></trkpt><trkpt lat="41.185535043209214" lon="15.0784552622525"><ele>569.0</ele><time>2026-03-22T12:32:13Z</time></trkpt><trkpt lat="41.185612207099815" lon="15.078609760677354"><ele>570.25</ele><time>2026-03-22T12:32:14Z</time></trkpt><trkpt lat="41.18566759352049" lon="15.078758665719528"><ele>571.5</ele><time>2026-03-22T12:32:15Z</time></trkpt><trkpt lat="41.185698909623866" lon="15.078912173679575"><ele>572.75</ele><time>2026-03-22T12:32:16Z</time></trkpt><trkpt lat="41.18570294282734" lon="15.079084951568293"><ele>574.0</ele><time>2026-03-22T12:32:17Z</time></trkpt><trkpt lat="41.1857010559382" lon="15.07927165168482"><ele>576.6666666666667</ele><time>2026-03-22T12:32:18Z</time></trkpt><trkpt lat="41.18568656751001" lon="15.079471434110372"><ele>579.3333333333334</ele><time>2026-03-22T12:32:19Z</time></trkpt><trkpt lat="41.185670503512846" lon="15.07968624391158"><ele>582.0</ele><time>2026-03-22T12:32:20Z</time></trkpt><trkpt lat="41.18564652800807" lon="15.07990104031696"><ele>583.4</ele><time>2026-03-22T12:32:21Z</time></trkpt><trkpt lat="41.18563829573318" lon="15.080082644693444"><ele>584.8000000000001</ele><time>2026-03-22T12:32:22Z</time></trkpt><trkpt lat="41.18565409880138" lon="15.080239860121436"><ele>586.2</ele><time>2026-03-22T12:32:23Z</time></trkpt><trkpt lat="41.185686297377586" lon="15.080352707409999"><ele>587.6</ele><time>2026-03-22T12:32:24Z</time></trkpt><trkpt lat="41.185728395392445" lon="15.080423700945866"><ele>589.0</ele><time>2026-03-22T12:32:25Z</time></trkpt><trkpt lat="41.18585547284609" lon="15.080543449126651"><ele>589.0</ele><time>2026-03-22T12:32:27Z</time></trkpt><trkpt lat="41.18594430528179" lon="15.08063375784728"><ele>589.0</ele><time>2026-03-22T12:32:28Z</time></trkpt><trkpt lat="41.18604566858449" lon="15.080737207783233"><ele>589.0</ele><time>2026-03-22T12:32:29Z</time></trkpt><trkpt lat="41.18612259495286" lon="15.080870522703737"><ele>589.0</ele><time>2026-03-22T12:32:30Z</time></trkpt><trkpt lat="41.18622957558821" lon="15.08096872249901"><ele>589.3333333333334</ele><time>2026-03-22T12:32:31Z</time></trkpt><trkpt lat="41.186352347381444" lon="15.081085284831449"><ele>589.6666666666666</ele><time>2026-03-22T12:32:32Z</time></trkpt><trkpt lat="41.18647600980961" lon="15.081216788848518"><ele>590.0</ele><time>2026-03-22T12:32:33Z</time></trkpt><trkpt lat="41.186584112081356" lon="15.081364507016135"><ele>591.75</ele><time>2026-03-22T12:32:34Z</time></trkpt><trkpt lat="41.18664870346401" lon="15.081510824060707"><ele>593.5</ele><time>2026-03-22T12:32:35Z</time></trkpt><trkpt lat="41.18669817585386" lon="15.081669015356507"><ele>595.25</ele><time>2026-03-22T12:32:36Z</time></trkpt><trkpt lat="41.18673123893405" lon="15.08183042514434"><ele>597.0</ele><time>2026-03-22T12:32:37Z</time></trkpt><trkpt lat="41.18675581183127" lon="15.082021625053047"><ele>597.0</ele><time>2026-03-22T12:32:38Z</time></trkpt><trkpt lat="41.18676620001719" lon="15.082213842060828"><ele>597.0</ele><time>2026-03-22T12:32:39Z</time></trkpt><trkpt lat="41.18676644354125" lon="15.082418957526931"><ele>597.0</ele><time>2026-03-22T12:32:40Z</time></trkpt><trkpt lat="41.18675602889481" lon="15.082632475664496"><ele>598.0</ele><time>2026-03-22T12:32:41Z</time></trkpt><trkpt lat="41.186752654060435" lon="15.082844423751096"><ele>599.0</ele><time>2026-03-22T12:32:42Z</time></trkpt><trkpt lat="41.18678224870088" lon="15.083039602731349"><ele>600.0</ele><time>2026-03-22T12:32:43Z</time></trkpt><trkpt lat="41.18685132924359" lon="15.08321049661748"><ele>600.25</ele><time>2026-03-22T12:32:44Z</time></trkpt><trkpt lat="41.18693819262459" lon="15.083343327273314"><ele>600.5</ele><time>2026-03-22T12:32:45Z</time></trkpt><trkpt lat="41.18702223320042" lon="15.083479407622299"><ele>600.75</ele><time>2026-03-22T12:32:46Z</time></trkpt><trkpt lat="41.18715022308198" lon="15.083614564222328"><ele>601.0</ele><time>2026-03-22T12:32:47Z</time></trkpt><trkpt lat="41.18727539120391" lon="15.083764897640112"><ele>605.6666666666667</ele><time>2026-03-22T12:32:48Z</time></trkpt><trkpt lat="41.18742083230129" lon="15.083900608083333"><ele>610.3333333333334</ele><time>2026-03-22T12:32:49Z</time></trkpt><trkpt lat="41.1875626911444" lon="15.0840450951847"><ele>615.0</ele><time>2026-03-22T12:32:50Z</time></trkpt><trkpt lat="41.1876863536886" lon="15.084216198167491"><ele>615.0</ele><time>2026-03-22T12:32:51Z</time></trkpt><trkpt lat="41.187808914398" lon="15.084373989897328"><ele>615.0</ele><time>2026-03-22T12:32:52Z</time></trkpt><trkpt lat="41.187919856588096" lon="15.084540851378716"><ele>615.0</ele><time>2026-03-22T12:32:53Z</time></trkpt><trkpt lat="41.18801203824397" lon="15.08472219896963"><ele>615.0</ele><time>2026-03-22T12:32:54Z</time></trkpt><trkpt lat="41.188090044390975" lon="15.084886476610965"><ele>615.0</ele><time>2026-03-22T12:32:55Z</time></trkpt><trkpt lat="41.18814310453147" lon="15.084972039573238"><ele>615.0</ele><time>2026-03-22T12:32:56Z</time></trkpt><trkpt lat="41.18823620821266" lon="15.08507255435585"><ele>615.0</ele><time>2026-03-22T12:32:58Z</time></trkpt><trkpt lat="41.188300760324346" lon="15.085089414607392"><ele>615.0</ele><time>2026-03-22T12:32:59Z</time></trkpt><trkpt lat="41.18841694075414" lon="15.084944680149325"><ele>617.5</ele><time>2026-03-22T12:33:00Z</time></trkpt><trkpt lat="41.18851902617151" lon="15.084955070512226"><ele>620.0</ele><time>2026-03-22T12:33:01Z</time></trkpt><trkpt lat="41.18860888020475" lon="15.084964826175138"><ele>622.5</ele><time>2026-03-22T12:33:02Z</time></trkpt><trkpt lat="41.18869182129631" lon="15.0849981074652"><ele>625.0</ele><time>2026-03-22T12:33:03Z</time></trkpt><trkpt lat="41.18877777537306" lon="15.085021405516406"><ele>627.5</ele><time>2026-03-22T12:33:05Z</time></trkpt><trkpt lat="41.18885440526154" lon="15.085039987714401"><ele>630.0</ele><time>2026-03-22T12:33:08Z</time></trkpt><trkpt lat="41.188894422459825" lon="15.08511357320994"><ele>630.0</ele><time>2026-03-22T12:33:09Z</time></trkpt><trkpt lat="41.18895475629498" lon="15.0851590225384"><ele>630.0</ele><time>2026-03-22T12:33:10Z</time></trkpt><trkpt lat="41.18904041778742" lon="15.085205899746626"><ele>630.0</ele><time>2026-03-22T12:33:11Z</time></trkpt><trkpt lat="41.18913965073578" lon="15.085300526822211"><ele>630.0</ele><time>2026-03-22T12:33:12Z</time></trkpt><trkpt lat="41.1892265448957" lon="15.085420110804067"><ele>630.0</ele><time>2026-03-22T12:33:13Z</time></trkpt><trkpt lat="41.189322027559776" lon="15.08555374894124"><ele>631.75</ele><time>2026-03-22T12:33:14Z</time></trkpt><trkpt lat="41.189415123667715" lon="15.085687845682157"><ele>633.5</ele><time>2026-03-22T12:33:15Z</time></trkpt><trkpt lat="41.189499756877034" lon="15.085811122711696"><ele>635.25</ele><time>2026-03-22T12:33:16Z</time></trkpt><trkpt lat="41.18958569170122" lon="15.085923454407869"><ele>637.0</ele><time>2026-03-22T12:33:17Z</time></trkpt><trkpt lat="41.18966288425462" lon="15.086055229791805"><ele>637.0</ele><time>2026-03-22T12:33:18Z</time></trkpt><trkpt lat="41.18974410694124" lon="15.086206415766549"><ele>637.0</ele><time>2026-03-22T12:33:19Z</time></trkpt><trkpt lat="41.189820612196606" lon="15.08635458705904"><ele>637.0</ele><time>2026-03-22T12:33:20Z</time></trkpt><trkpt lat="41.18991769385996" lon="15.08649352587544"><ele>637.0</ele><time>2026-03-22T12:33:21Z</time></trkpt><trkpt lat="41.19004564527618" lon="15.086612848993145"><ele>635.0</ele><time>2026-03-22T12:33:22Z</time></trkpt><trkpt lat="41.190168611477446" lon="15.086714408022113"><ele>633.0</ele><time>2026-03-22T12:33:23Z</time></trkpt><trkpt lat="41.190250134514656" lon="15.08684206272246"><ele>631.0</ele><time>2026-03-22T12:33:24Z</time></trkpt><trkpt lat="41.190330314907946" lon="15.086958222814088"><ele>629.0</ele><time>2026-03-22T12:33:25Z</time></trkpt><trkpt lat="41.190415875964604" lon="15.08709231214353"><ele>629.0</ele><time>2026-03-22T12:33:26Z</time></trkpt><trkpt lat="41.190501927890594" lon="15.087237636003914"><ele>629.0</ele><time>2026-03-22T12:33:27Z</time></trkpt><trkpt lat="41.1905971318703" lon="15.087404223632333"><ele>629.0</ele><time>2026-03-22T12:33:28Z</time></trkpt><trkpt lat="41.19068632440543" lon="15.08756168594246"><ele>629.0</ele><time>2026-03-22T12:33:29Z</time></trkpt><trkpt lat="41.1907673471674" lon="15.087705684845938"><ele>627.1666666666666</ele><time>2026-03-22T12:33:30Z</time></trkpt><trkpt lat="41.190819962122426" lon="15.087816977809501"><ele>625.3333333333333</ele><time>2026-03-22T12:33:31Z</time></trkpt><trkpt lat="41.1908668559799" lon="15.087922715039369"><ele>623.5</ele><time>2026-03-22T12:33:32Z</time></trkpt><trkpt lat="41.190905451633654" lon="15.088009741079778"><ele>621.6666666666666</ele><time>2026-03-22T12:33:33Z</time></trkpt><trkpt lat="41.190965555622306" lon="15.088043566965402"><ele>619.8333333333334</ele><time>2026-03-22T12:33:34Z</time></trkpt><trkpt lat="41.19100858304419" lon="15.088107330411244"><ele>618.0</ele><time>2026-03-22T12:33:36Z</time></trkpt><trkpt lat="41.19116286777296" lon="15.087936966934448"><ele>618.0</ele><time>2026-03-22T12:33:38Z</time></trkpt><trkpt lat="41.19123652238449" lon="15.087848363385945"><ele>618.0</ele><time>2026-03-22T12:33:39Z</time></trkpt><trkpt lat="41.19129721743733" lon="15.087768764535456"><ele>618.0</ele><time>2026-03-22T12:33:40Z</time></trkpt><trkpt lat="41.191344900307485" lon="15.087708110869873"><ele>618.0</ele><time>2026-03-22T12:33:41Z</time></trkpt><trkpt lat="41.19146670699194" lon="15.087665947197326"><ele>618.0</ele><time>2026-03-22T12:33:43Z</time></trkpt><trkpt lat="41.19153178421446" lon="15.087677002958072"><ele>618.0</ele><time>2026-03-22T12:33:44Z</time></trkpt><trkpt lat="41.191605036571936" lon="15.087592705948552"><ele>611.8</ele><time>2026-03-22T12:33:46Z</time></trkpt><trkpt lat="41.19162735950897" lon="15.087468524338027"><ele>605.5999999999999</ele><time>2026-03-22T12:33:47Z</time></trkpt><trkpt lat="41.1916366724312" lon="15.087351156420363"><ele>599.4000000000001</ele><time>2026-03-22T12:33:48Z</time></trkpt><trkpt lat="41.19164412244336" lon="15.08725162827239"><ele>593.2</ele><time>2026-03-22T12:33:49Z</time></trkpt><trkpt lat="41.19169742860021" lon="15.087101367250494"><ele>587.0</ele><time>2026-03-22T12:33:51Z</time></trkpt><trkpt lat="41.191763592787986" lon="15.087035666384152"><ele>587.0</ele><time>2026-03-22T12:33:52Z</time></trkpt><trkpt lat="41.19183830644208" lon="15.086998468011483"><ele>587.0</ele><time>2026-03-22T12:33:53Z</time></trkpt><trkpt lat="41.19195507216434" lon="15.08709949494014"><ele>587.0</ele><time>2026-03-22T12:33:57Z</time></trkpt><trkpt lat="41.19198060042163" lon="15.087246405214945"><ele>587.0</ele><time>2026-03-22T12:33:58Z</time></trkpt><trkpt lat="41.192027938875015" lon="15.087361494940474"><ele>587.0</ele><time>2026-03-22T12:33:59Z</time></trkpt><trkpt lat="41.19211377598731" lon="15.087456613063766"><ele>587.0</ele><time>2026-03-22T12:34:01Z</time></trkpt><trkpt lat="41.192080639773984" lon="15.087563066760993"><ele>587.0</ele><time>2026-03-22T12:34:04Z</time></trkpt><trkpt lat="41.19198783660749" lon="15.087644683518961"><ele>587.0</ele><time>2026-03-22T12:34:06Z</time></trkpt><trkpt lat="41.19188543085334" lon="15.087763766626734"><ele>587.0</ele><time>2026-03-22T12:34:08Z</time></trkpt><trkpt lat="41.191860478008316" lon="15.087843572262031"><ele>587.0</ele><time>2026-03-22T12:34:09Z</time></trkpt><trkpt lat="41.191843527822414" lon="15.08797166764998"><ele>587.0</ele><time>2026-03-22T12:34:11Z</time></trkpt><trkpt lat="41.19193115953293" lon="15.088060865065168"><ele>587.0</ele><time>2026-03-22T12:34:14Z</time></trkpt><trkpt lat="41.19198801954968" lon="15.088138547580659"><ele>587.0</ele><time>2026-03-22T12:34:16Z</time></trkpt><trkpt lat="41.192080966521544" lon="15.088203493600474"><ele>587.0</ele><time>2026-03-22T12:34:18Z</time></trkpt><trkpt lat="41.19214809542272" lon="15.08829848524157"><ele>587.0</ele><time>2026-03-22T12:34:20Z</time></trkpt><trkpt lat="41.192213219762124" lon="15.08831440835319"><ele>588.8000000000001</ele><time>2026-03-22T12:34:25Z</time></trkpt><trkpt lat="41.19229349506713" lon="15.088334436278371"><ele>590.6</ele><time>2026-03-22T12:34:28Z</time></trkpt><trkpt lat="41.19234358774073" lon="15.088437575800889"><ele>592.4000000000001</ele><time>2026-03-22T12:34:30Z</time></trkpt><trkpt lat="41.19237547711683" lon="15.088518367626637"><ele>594.2</ele><time>2026-03-22T12:34:31Z</time></trkpt><trkpt lat="41.192419175017925" lon="15.088647780975341"><ele>596.0</ele><time>2026-03-22T12:34:33Z</time></trkpt><trkpt lat="41.19252405249844" lon="15.088748849280217"><ele>589.5</ele><time>2026-03-22T12:34:34Z</time></trkpt><trkpt lat="41.19258375164716" lon="15.088823450306302"><ele>583.0</ele><time>2026-03-22T12:34:36Z</time></trkpt><trkpt lat="41.19258329890615" lon="15.088936338210665"><ele>576.5</ele><time>2026-03-22T12:34:39Z</time></trkpt><trkpt lat="41.19243890246732" lon="15.089155878682499"><ele>570.0</ele><time>2026-03-22T12:34:41Z</time></trkpt><trkpt lat="41.19243606153738" lon="15.089329393223469"><ele>570.0</ele><time>2026-03-22T12:34:43Z</time></trkpt><trkpt lat="41.192410560488305" lon="15.08943194577643"><ele>570.0</ele><time>2026-03-22T12:34:44Z</time></trkpt><trkpt lat="41.19242603516207" lon="15.089536566473853"><ele>570.0</ele><time>2026-03-22T12:34:46Z</time></trkpt><trkpt lat="41.192480516367" lon="15.089582002420276"><ele>570.0</ele><time>2026-03-22T12:34:47Z</time></trkpt><trkpt lat="41.19253150232237" lon="15.089643314370834"><ele>570.0</ele><time>2026-03-22T12:34:48Z</time></trkpt><trkpt lat="41.19262045686811" lon="15.089732138775389"><ele>570.0</ele><time>2026-03-22T12:34:49Z</time></trkpt><trkpt lat="41.19271579455595" lon="15.089821980195099"><ele>570.0</ele><time>2026-03-22T12:34:50Z</time></trkpt><trkpt lat="41.19280084326317" lon="15.08987075728053"><ele>570.0</ele><time>2026-03-22T12:34:51Z</time></trkpt><trkpt lat="41.192859702253166" lon="15.089936546417546"><ele>570.0</ele><time>2026-03-22T12:34:52Z</time></trkpt><trkpt lat="41.19292752439929" lon="15.090012919874901"><ele>570.0</ele><time>2026-03-22T12:34:53Z</time></trkpt><trkpt lat="41.19300844628751" lon="15.09008374416442"><ele>570.0</ele><time>2026-03-22T12:34:54Z</time></trkpt><trkpt lat="41.193112211626946" lon="15.090142948838563"><ele>563.5</ele><time>2026-03-22T12:34:55Z</time></trkpt><trkpt lat="41.193219568899885" lon="15.0901810777718"><ele>557.0</ele><time>2026-03-22T12:34:56Z</time></trkpt><trkpt lat="41.19332285853378" lon="15.090235330217661"><ele>550.5</ele><time>2026-03-22T12:34:57Z</time></trkpt><trkpt lat="41.19347090130694" lon="15.090249779302802"><ele>544.0</ele><time>2026-03-22T12:34:58Z</time></trkpt><trkpt lat="41.19361556334224" lon="15.090291816390458"><ele>544.0</ele><time>2026-03-22T12:34:59Z</time></trkpt><trkpt lat="41.193745730017" lon="15.090316890730193"><ele>544.0</ele><time>2026-03-22T12:35:00Z</time></trkpt><trkpt lat="41.19392882612738" lon="15.090390337342475"><ele>544.0</ele><time>2026-03-22T12:35:01Z</time></trkpt><trkpt lat="41.19403872462999" lon="15.09041097352511"><ele>544.0</ele><time>2026-03-22T12:35:02Z</time></trkpt><trkpt lat="41.19413042518163" lon="15.090397332083834"><ele>539.25</ele><time>2026-03-22T12:35:03Z</time></trkpt><trkpt lat="41.19425878822237" lon="15.090396145217671"><ele>534.5</ele><time>2026-03-22T12:35:04Z</time></trkpt><trkpt lat="41.19441989795721" lon="15.090388557603506"><ele>529.75</ele><time>2026-03-22T12:35:05Z</time></trkpt><trkpt lat="41.194560185388724" lon="15.090375153917922"><ele>525.0</ele><time>2026-03-22T12:35:06Z</time></trkpt><trkpt lat="41.19468119236919" lon="15.090356713782757"><ele>525.0</ele><time>2026-03-22T12:35:07Z</time></trkpt><trkpt lat="41.194804819217545" lon="15.090354974106507"><ele>525.0</ele><time>2026-03-22T12:35:08Z</time></trkpt><trkpt lat="41.194926731504104" lon="15.090390894616354"><ele>525.0</ele><time>2026-03-22T12:35:09Z</time></trkpt><trkpt lat="41.195044182712365" lon="15.090474668333439"><ele>525.0</ele><time>2026-03-22T12:35:10Z</time></trkpt><trkpt lat="41.19516910834983" lon="15.090605937267382"><ele>519.3333333333334</ele><time>2026-03-22T12:35:11Z</time></trkpt><trkpt lat="41.19530032943177" lon="15.090748214813052"><ele>513.6666666666667</ele><time>2026-03-22T12:35:12Z</time></trkpt><trkpt lat="41.19542408091243" lon="15.090877279067938"><ele>508.0</ele><time>2026-03-22T12:35:13Z</time></trkpt><trkpt lat="41.19552668501233" lon="15.090978930829895"><ele>507.4</ele><time>2026-03-22T12:35:14Z</time></trkpt><trkpt lat="41.19562339719591" lon="15.09106270555313"><ele>506.79999999999995</ele><time>2026-03-22T12:35:15Z</time></trkpt><trkpt lat="41.19572066334604" lon="15.09112367429957"><ele>506.2</ele><time>2026-03-22T12:35:16Z</time></trkpt><trkpt lat="41.19580400605102" lon="15.091148875411479"><ele>505.6</ele><time>2026-03-22T12:35:17Z</time></trkpt><trkpt lat="41.19588866691515" lon="15.091135727640191"><ele>505.0</ele><time>2026-03-22T12:35:18Z</time></trkpt><trkpt lat="41.19596716068801" lon="15.091089729107917"><ele>503.1666666666667</ele><time>2026-03-22T12:35:19Z</time></trkpt><trkpt lat="41.196027689272235" lon="15.091055668040685"><ele>501.33333333333337</ele><time>2026-03-22T12:35:20Z</time></trkpt><trkpt lat="41.19610813321448" lon="15.091011215946123"><ele>499.5</ele><time>2026-03-22T12:35:22Z</time></trkpt><trkpt lat="41.19608859661547" lon="15.090879700143427"><ele>497.66666666666663</ele><time>2026-03-22T12:35:24Z</time></trkpt><trkpt lat="41.196076636568634" lon="15.09078358303297"><ele>495.8333333333333</ele><time>2026-03-22T12:35:25Z</time></trkpt><trkpt lat="41.19616659138492" lon="15.090716418388995"><ele>494.0</ele><time>2026-03-22T12:35:27Z</time></trkpt><trkpt lat="41.196263784637594" lon="15.09069872445945"><ele>494.0</ele><time>2026-03-22T12:35:28Z</time></trkpt><trkpt lat="41.19637424444195" lon="15.090680057585404"><ele>494.0</ele><time>2026-03-22T12:35:29Z</time></trkpt><trkpt lat="41.19644137567242" lon="15.09069833264559"><ele>494.0</ele><time>2026-03-22T12:35:30Z</time></trkpt><trkpt lat="41.19649565853024" lon="15.090793137791339"><ele>494.0</ele><time>2026-03-22T12:35:32Z</time></trkpt><trkpt lat="41.19653006302986" lon="15.090900510197967"><ele>494.0</ele><time>2026-03-22T12:35:33Z</time></trkpt><trkpt lat="41.19661416088474" lon="15.091065761701156"><ele>489.25</ele><time>2026-03-22T12:35:34Z</time></trkpt><trkpt lat="41.196689448737764" lon="15.091175014862362"><ele>484.5</ele><time>2026-03-22T12:35:35Z</time></trkpt><trkpt lat="41.1967509226935" lon="15.091221745175714"><ele>479.75</ele><time>2026-03-22T12:35:36Z</time></trkpt><trkpt lat="41.196887082278494" lon="15.09119264136719"><ele>475.0</ele><time>2026-03-22T12:35:38Z</time></trkpt><trkpt lat="41.19699858260429" lon="15.091092401748003"><ele>475.0</ele><time>2026-03-22T12:35:39Z</time></trkpt><trkpt lat="41.19714491619945" lon="15.090961005566541"><ele>475.0</ele><time>2026-03-22T12:35:40Z</time></trkpt><trkpt lat="41.19728839425713" lon="15.09083753184829"><ele>475.0</ele><time>2026-03-22T12:35:41Z</time></trkpt><trkpt lat="41.19742583997542" lon="15.090706400097362"><ele>469.0</ele><time>2026-03-22T12:35:42Z</time></trkpt><trkpt lat="41.19754975311553" lon="15.090588646561196"><ele>463.0</ele><time>2026-03-22T12:35:43Z</time></trkpt><trkpt lat="41.197668911507435" lon="15.090472464243176"><ele>457.0</ele><time>2026-03-22T12:35:44Z</time></trkpt><trkpt lat="41.197779406426804" lon="15.090359369585581"><ele>451.0</ele><time>2026-03-22T12:35:45Z</time></trkpt><trkpt lat="41.19788032148267" lon="15.090235951147703"><ele>451.0</ele><time>2026-03-22T12:35:46Z</time></trkpt><trkpt lat="41.19799326156138" lon="15.09010603015645"><ele>451.0</ele><time>2026-03-22T12:35:47Z</time></trkpt><trkpt lat="41.19812068672725" lon="15.089968957716808"><ele>451.0</ele><time>2026-03-22T12:35:48Z</time></trkpt><trkpt lat="41.198232054286905" lon="15.089841473752886"><ele>446.8</ele><time>2026-03-22T12:35:49Z</time></trkpt><trkpt lat="41.19832829117512" lon="15.089734716712051"><ele>442.6</ele><time>2026-03-22T12:35:50Z</time></trkpt><trkpt lat="41.19840979626477" lon="15.089640199731361"><ele>438.4</ele><time>2026-03-22T12:35:51Z</time></trkpt><trkpt lat="41.19847978123208" lon="15.089543635210434"><ele>434.2</ele><time>2026-03-22T12:35:52Z</time></trkpt><trkpt lat="41.19855527697434" lon="15.08947206099226"><ele>430.0</ele><time>2026-03-22T12:35:53Z</time></trkpt><trkpt lat="41.19861865540766" lon="15.089410790380466"><ele>430.00000000000006</ele><time>2026-03-22T12:35:54Z</time></trkpt><trkpt lat="41.19867937483291" lon="15.089348304954134"><ele>430.0</ele><time>2026-03-22T12:35:55Z</time></trkpt><trkpt lat="41.19874360221233" lon="15.089285423860051"><ele>430.0</ele><time>2026-03-22T12:35:56Z</time></trkpt><trkpt lat="41.19880509581879" lon="15.089223005825968"><ele>430.0</ele><time>2026-03-22T12:35:57Z</time></trkpt><trkpt lat="41.19888078679704" lon="15.089142015789292"><ele>430.00000000000006</ele><time>2026-03-22T12:35:58Z</time></trkpt><trkpt lat="41.19895896830086" lon="15.089042412766009"><ele>430.0</ele><time>2026-03-22T12:35:59Z</time></trkpt><trkpt lat="41.1990441917422" lon="15.088924595168534"><ele>428.25</ele><time>2026-03-22T12:36:00Z</time></trkpt><trkpt lat="41.199138497100996" lon="15.08881406918633"><ele>426.5</ele><time>2026-03-22T12:36:01Z</time></trkpt><trkpt lat="41.19923396132155" lon="15.088692596842904"><ele>424.75</ele><time>2026-03-22T12:36:02Z</time></trkpt><trkpt lat="41.19932479753755" lon="15.0886161584965"><ele>423.0</ele><time>2026-03-22T12:36:03Z</time></trkpt><trkpt lat="41.1993936933405" lon="15.088550038095828"><ele>423.0</ele><time>2026-03-22T12:36:04Z</time></trkpt><trkpt lat="41.199452322964746" lon="15.088506213252867"><ele>423.0</ele><time>2026-03-22T12:36:05Z</time></trkpt><trkpt lat="41.1995190129764" lon="15.088494541056416"><ele>423.0</ele><time>2026-03-22T12:36:06Z</time></trkpt><trkpt lat="41.199631383686594" lon="15.088529631695751"><ele>423.0</ele><time>2026-03-22T12:36:07Z</time></trkpt><trkpt lat="41.199771257351436" lon="15.088574101089876"><ele>423.0</ele><time>2026-03-22T12:36:08Z</time></trkpt><trkpt lat="41.19995024386381" lon="15.08862720388915"><ele>420.25</ele><time>2026-03-22T12:36:09Z</time></trkpt><trkpt lat="41.20011284126465" lon="15.088671530470656"><ele>417.5</ele><time>2026-03-22T12:36:10Z</time></trkpt><trkpt lat="41.20024702735245" lon="15.08870276973845"><ele>414.75</ele><time>2026-03-22T12:36:11Z</time></trkpt><trkpt lat="41.20036022264181" lon="15.088738122857471"><ele>412.0</ele><time>2026-03-22T12:36:12Z</time></trkpt><trkpt lat="41.200462792162874" lon="15.088756874979932"><ele>412.0</ele><time>2026-03-22T12:36:13Z</time></trkpt><trkpt lat="41.200567899516976" lon="15.088773141355786"><ele>412.0</ele><time>2026-03-22T12:36:14Z</time></trkpt><trkpt lat="41.200663724376135" lon="15.088733765771817"><ele>412.0</ele><time>2026-03-22T12:36:15Z</time></trkpt><trkpt lat="41.20077335876065" lon="15.088679517621749"><ele>412.0</ele><time>2026-03-22T12:36:16Z</time></trkpt><trkpt lat="41.20087418195221" lon="15.08857747166673"><ele>413.0</ele><time>2026-03-22T12:36:17Z</time></trkpt><trkpt lat="41.20096606194246" lon="15.088452517297432"><ele>414.0</ele><time>2026-03-22T12:36:18Z</time></trkpt><trkpt lat="41.20105494046711" lon="15.08836971111644"><ele>415.0</ele><time>2026-03-22T12:36:19Z</time></trkpt><trkpt lat="41.20113367004875" lon="15.088331443672452"><ele>416.0</ele><time>2026-03-22T12:36:20Z</time></trkpt><trkpt lat="41.201213782221956" lon="15.088311669916848"><ele>417.0</ele><time>2026-03-22T12:36:21Z</time></trkpt><trkpt lat="41.201288264637995" lon="15.088308327322773"><ele>417.0</ele><time>2026-03-22T12:36:22Z</time></trkpt><trkpt lat="41.201374732993045" lon="15.08828035312706"><ele>417.0</ele><time>2026-03-22T12:36:23Z</time></trkpt><trkpt lat="41.20147017816874" lon="15.08822125548527"><ele>417.0</ele><time>2026-03-22T12:36:24Z</time></trkpt><trkpt lat="41.201555879462084" lon="15.088144655635903"><ele>417.0</ele><time>2026-03-22T12:36:25Z</time></trkpt><trkpt lat="41.20164234023127" lon="15.088035091486693"><ele>417.0</ele><time>2026-03-22T12:36:26Z</time></trkpt><trkpt lat="41.2017290434734" lon="15.08794962678783"><ele>417.8</ele><time>2026-03-22T12:36:27Z</time></trkpt><trkpt lat="41.20182462335841" lon="15.087913862155434"><ele>418.6</ele><time>2026-03-22T12:36:28Z</time></trkpt><trkpt lat="41.20190311752459" lon="15.087903137471894"><ele>419.40000000000003</ele><time>2026-03-22T12:36:29Z</time></trkpt><trkpt lat="41.201977632167505" lon="15.087783279980735"><ele>420.20000000000005</ele><time>2026-03-22T12:36:31Z</time></trkpt><trkpt lat="41.2019992809104" lon="15.087610438091232"><ele>421.0</ele><time>2026-03-22T12:36:32Z</time></trkpt><trkpt lat="41.2020120069325" lon="15.087402957814813"><ele>419.0</ele><time>2026-03-22T12:36:33Z</time></trkpt><trkpt lat="41.20201804010849" lon="15.087219201133331"><ele>417.0</ele><time>2026-03-22T12:36:34Z</time></trkpt><trkpt lat="41.202025605879314" lon="15.087057932929975"><ele>415.0</ele><time>2026-03-22T12:36:35Z</time></trkpt><trkpt lat="41.20202427299536" lon="15.08688604109662"><ele>413.0</ele><time>2026-03-22T12:36:36Z</time></trkpt><trkpt lat="41.202011369918125" lon="15.086728224525473"><ele>411.25</ele><time>2026-03-22T12:36:37Z</time></trkpt><trkpt lat="41.201980148464905" lon="15.086569331648509"><ele>409.5</ele><time>2026-03-22T12:36:38Z</time></trkpt><trkpt lat="41.20194758011447" lon="15.086398949212716"><ele>407.75</ele><time>2026-03-22T12:36:39Z</time></trkpt><trkpt lat="41.20192239062254" lon="15.086223545118397"><ele>406.0</ele><time>2026-03-22T12:36:40Z</time></trkpt><trkpt lat="41.20188808610182" lon="15.086052407128085"><ele>406.0</ele><time>2026-03-22T12:36:41Z</time></trkpt><trkpt lat="41.20185441627426" lon="15.085893117053411"><ele>406.0</ele><time>2026-03-22T12:36:42Z</time></trkpt><trkpt lat="41.201856339269966" lon="15.085762557332615"><ele>406.0</ele><time>2026-03-22T12:36:43Z</time></trkpt><trkpt lat="41.201879689034875" lon="15.08564953444479"><ele>406.0</ele><time>2026-03-22T12:36:44Z</time></trkpt><trkpt lat="41.201930556667534" lon="15.08555707770777"><ele>406.0</ele><time>2026-03-22T12:36:45Z</time></trkpt><trkpt lat="41.20198566235995" lon="15.085501145060263"><ele>405.83333333333337</ele><time>2026-03-22T12:36:46Z</time></trkpt><trkpt lat="41.201998080055574" lon="15.085399231043297"><ele>405.6666666666667</ele><time>2026-03-22T12:36:48Z</time></trkpt><trkpt lat="41.20193723129554" lon="15.08532433077582"><ele>405.5</ele><time>2026-03-22T12:36:49Z</time></trkpt><trkpt lat="41.20186758232648" lon="15.085253941875083"><ele>405.33333333333337</ele><time>2026-03-22T12:36:50Z</time></trkpt><trkpt lat="41.20180669824042" lon="15.085122768956095"><ele>405.1666666666667</ele><time>2026-03-22T12:36:52Z</time></trkpt><trkpt lat="41.20178316034095" lon="15.085033934201265"><ele>405.0</ele><time>2026-03-22T12:36:53Z</time></trkpt><trkpt lat="41.20178607723869" lon="15.084922781233397"><ele>405.0</ele><time>2026-03-22T12:36:54Z</time></trkpt><trkpt lat="41.20182062444313" lon="15.084793734225647"><ele>405.0</ele><time>2026-03-22T12:36:55Z</time></trkpt><trkpt lat="41.201851287647926" lon="15.084618094133004"><ele>405.0</ele><time>2026-03-22T12:36:56Z</time></trkpt><trkpt lat="41.20186275886991" lon="15.084421749813986"><ele>405.0</ele><time>2026-03-22T12:36:57Z</time></trkpt><trkpt lat="41.201852799352814" lon="15.08419207356898"><ele>406.75</ele><time>2026-03-22T12:36:58Z</time></trkpt><trkpt lat="41.20182792617661" lon="15.08398731004274"><ele>408.5</ele><time>2026-03-22T12:36:59Z</time></trkpt><trkpt lat="41.20182100414555" lon="15.083824740317594"><ele>410.25</ele><time>2026-03-22T12:37:00Z</time></trkpt><trkpt lat="41.201841523633036" lon="15.083669873614221"><ele>412.0</ele><time>2026-03-22T12:37:01Z</time></trkpt><trkpt lat="41.20187515482959" lon="15.083541848135022"><ele>412.0</ele><time>2026-03-22T12:37:02Z</time></trkpt><trkpt lat="41.20177128144744" lon="15.083387971524195"><ele>412.0</ele><time>2026-03-22T12:37:05Z</time></trkpt><trkpt lat="41.20168876069631" lon="15.083296951867167"><ele>412.0</ele><time>2026-03-22T12:37:06Z</time></trkpt><trkpt lat="41.201633196661234" lon="15.08320275916229"><ele>412.0</ele><time>2026-03-22T12:37:07Z</time></trkpt><trkpt lat="41.20160670890408" lon="15.083086137054082"><ele>412.0</ele><time>2026-03-22T12:37:08Z</time></trkpt><trkpt lat="41.201616475605995" lon="15.082963248322502"><ele>413.75</ele><time>2026-03-22T12:37:09Z</time></trkpt><trkpt lat="41.201661065647876" lon="15.082814004360827"><ele>415.5</ele><time>2026-03-22T12:37:10Z</time></trkpt><trkpt lat="41.201701757064555" lon="15.082658432296665"><ele>417.25</ele><time>2026-03-22T12:37:11Z</time></trkpt><trkpt lat="41.20172924363952" lon="15.08247193085313"><ele>419.0</ele><time>2026-03-22T12:37:12Z</time></trkpt><trkpt lat="41.201754293714075" lon="15.082278434791679"><ele>421.3333333333333</ele><time>2026-03-22T12:37:13Z</time></trkpt><trkpt lat="41.201794265786496" lon="15.082084455234945"><ele>423.66666666666663</ele><time>2026-03-22T12:37:14Z</time></trkpt><trkpt lat="41.201833594641194" lon="15.081879429277004"><ele>426.0</ele><time>2026-03-22T12:37:15Z</time></trkpt><trkpt lat="41.201862157367046" lon="15.081692892087739"><ele>428.0</ele><time>2026-03-22T12:37:16Z</time></trkpt><trkpt lat="41.2018815399285" lon="15.081562171085798"><ele>430.0</ele><time>2026-03-22T12:37:17Z</time></trkpt><trkpt lat="41.20189036144644" lon="15.081406217930692"><ele>432.0</ele><time>2026-03-22T12:37:18Z</time></trkpt><trkpt lat="41.20189773635819" lon="15.081276029375372"><ele>434.0</ele><time>2026-03-22T12:37:19Z</time></trkpt><trkpt lat="41.20189554295879" lon="15.081178974332099"><ele>436.0</ele><time>2026-03-22T12:37:20Z</time></trkpt><trkpt lat="41.20187540294477" lon="15.081049188069784"><ele>436.0</ele><time>2026-03-22T12:37:21Z</time></trkpt><trkpt lat="41.20182616600982" lon="15.080872285622204"><ele>436.0</ele><time>2026-03-22T12:37:22Z</time></trkpt><trkpt lat="41.20177633399493" lon="15.080676671497713"><ele>436.0</ele><time>2026-03-22T12:37:23Z</time></trkpt><trkpt lat="41.20174006774291" lon="15.080468896376928"><ele>437.25</ele><time>2026-03-22T12:37:24Z</time></trkpt><trkpt lat="41.2017162762336" lon="15.080255112341142"><ele>438.5</ele><time>2026-03-22T12:37:25Z</time></trkpt><trkpt lat="41.20169084532341" lon="15.08008717350284"><ele>439.75</ele><time>2026-03-22T12:37:26Z</time></trkpt><trkpt lat="41.20165841509551" lon="15.07989922551344"><ele>441.0</ele><time>2026-03-22T12:37:27Z</time></trkpt><trkpt lat="41.20163042903857" lon="15.079716525846633"><ele>442.0</ele><time>2026-03-22T12:37:28Z</time></trkpt><trkpt lat="41.20161583482565" lon="15.079539301482933"><ele>443.0</ele><time>2026-03-22T12:37:29Z</time></trkpt><trkpt lat="41.20160979250556" lon="15.079378117622147"><ele>444.0</ele><time>2026-03-22T12:37:30Z</time></trkpt><trkpt lat="41.20161592709736" lon="15.079218977402233"><ele>445.0</ele><time>2026-03-22T12:37:31Z</time></trkpt><trkpt lat="41.20161391901303" lon="15.079041465230274"><ele>447.0</ele><time>2026-03-22T12:37:32Z</time></trkpt><trkpt lat="41.201602590601674" lon="15.078846467156081"><ele>449.0</ele><time>2026-03-22T12:37:33Z</time></trkpt><trkpt lat="41.201579056433005" lon="15.078649466126935"><ele>451.0</ele><time>2026-03-22T12:37:34Z</time></trkpt><trkpt lat="41.20154562973373" lon="15.07847247471946"><ele>453.0</ele><time>2026-03-22T12:37:35Z</time></trkpt><trkpt lat="41.20152205711638" lon="15.078294741619185"><ele>454.5</ele><time>2026-03-22T12:37:36Z</time></trkpt><trkpt lat="41.201508911998936" lon="15.078114173604042"><ele>456.0</ele><time>2026-03-22T12:37:37Z</time></trkpt><trkpt lat="41.20150322482828" lon="15.077929825872177"><ele>457.5</ele><time>2026-03-22T12:37:38Z</time></trkpt><trkpt lat="41.20148107414174" lon="15.0777174602402"><ele>459.0</ele><time>2026-03-22T12:37:39Z</time></trkpt><trkpt lat="41.201444436548776" lon="15.077536323992556"><ele>461.0</ele><time>2026-03-22T12:37:40Z</time></trkpt><trkpt lat="41.20140546185205" lon="15.07740153722914"><ele>463.0</ele><time>2026-03-22T12:37:41Z</time></trkpt><trkpt lat="41.20139505300766" lon="15.077309464767628"><ele>465.0</ele><time>2026-03-22T12:37:42Z</time></trkpt><trkpt lat="41.20141115596467" lon="15.077207157131662"><ele>467.0</ele><time>2026-03-22T12:37:43Z</time></trkpt><trkpt lat="41.2014293583869" lon="15.07707188999288"><ele>469.0</ele><time>2026-03-22T12:37:44Z</time></trkpt><trkpt lat="41.20143913855902" lon="15.076917711492914"><ele>469.0</ele><time>2026-03-22T12:37:45Z</time></trkpt><trkpt lat="41.20144284847892" lon="15.07675114419463"><ele>469.0</ele><time>2026-03-22T12:37:46Z</time></trkpt><trkpt lat="41.201436305758605" lon="15.076589301091126"><ele>469.0</ele><time>2026-03-22T12:37:47Z</time></trkpt><trkpt lat="41.20144193455373" lon="15.076402047265827"><ele>469.0</ele><time>2026-03-22T12:37:48Z</time></trkpt><trkpt lat="41.20145563149914" lon="15.076182371520567"><ele>469.6</ele><time>2026-03-22T12:37:49Z</time></trkpt><trkpt lat="41.20147709527761" lon="15.075992279180802"><ele>470.2</ele><time>2026-03-22T12:37:50Z</time></trkpt><trkpt lat="41.201515559563276" lon="15.075838566729317"><ele>470.80000000000007</ele><time>2026-03-22T12:37:51Z</time></trkpt><trkpt lat="41.20155135709084" lon="15.07574822173585"><ele>471.40000000000003</ele><time>2026-03-22T12:37:52Z</time></trkpt><trkpt lat="41.201622163535895" lon="15.075723159533048"><ele>472.0</ele><time>2026-03-22T12:37:54Z</time></trkpt><trkpt lat="41.20176189381681" lon="15.075740458706628"><ele>470.0</ele><time>2026-03-22T12:37:56Z</time></trkpt><trkpt lat="41.20188094189815" lon="15.075778342371967"><ele>468.0</ele><time>2026-03-22T12:37:57Z</time></trkpt><trkpt lat="41.20202553400791" lon="15.075837916396779"><ele>466.0</ele><time>2026-03-22T12:37:58Z</time></trkpt><trkpt lat="41.20216783289692" lon="15.075890565270917"><ele>464.0</ele><time>2026-03-22T12:37:59Z</time></trkpt><trkpt lat="41.20230920491189" lon="15.07593907181581"><ele>461.5</ele><time>2026-03-22T12:38:00Z</time></trkpt><trkpt lat="41.20245820407729" lon="15.075981945377123"><ele>459.0</ele><time>2026-03-22T12:38:01Z</time></trkpt><trkpt lat="41.20259948217332" lon="15.076024564444761"><ele>456.5</ele><time>2026-03-22T12:38:02Z</time></trkpt><trkpt lat="41.2027246614003" lon="15.076082309661288"><ele>454.0</ele><time>2026-03-22T12:38:03Z</time></trkpt><trkpt lat="41.20285625885258" lon="15.076144150816589"><ele>454.0</ele><time>2026-03-22T12:38:04Z</time></trkpt><trkpt lat="41.20302111664663" lon="15.076187245620615"><ele>454.0</ele><time>2026-03-22T12:38:05Z</time></trkpt><trkpt lat="41.20322227468136" lon="15.076227529262484"><ele>454.0</ele><time>2026-03-22T12:38:06Z</time></trkpt><trkpt lat="41.20342954617047" lon="15.076264760381415"><ele>452.0</ele><time>2026-03-22T12:38:07Z</time></trkpt><trkpt lat="41.2036131543564" lon="15.07631004761894"><ele>450.0</ele><time>2026-03-22T12:38:08Z</time></trkpt><trkpt lat="41.20380042931411" lon="15.076361078724464"><ele>448.0</ele><time>2026-03-22T12:38:09Z</time></trkpt><trkpt lat="41.20398181917021" lon="15.076406967072021"><ele>446.6666666666667</ele><time>2026-03-22T12:38:10Z</time></trkpt><trkpt lat="41.204180676968754" lon="15.076455161993296"><ele>445.33333333333337</ele><time>2026-03-22T12:38:11Z</time></trkpt><trkpt lat="41.204376588007406" lon="15.076505696003574"><ele>444.0</ele><time>2026-03-22T12:38:12Z</time></trkpt><trkpt lat="41.20457861094692" lon="15.076562960460222"><ele>444.0</ele><time>2026-03-22T12:38:13Z</time></trkpt><trkpt lat="41.20479972557256" lon="15.076444310000163"><ele>444.0</ele><time>2026-03-22T12:38:14Z</time></trkpt><trkpt lat="41.204986221860366" lon="15.076487503467064"><ele>444.0</ele><time>2026-03-22T12:38:15Z</time></trkpt><trkpt lat="41.20517053926572" lon="15.076520386173748"><ele>443.0</ele><time>2026-03-22T12:38:16Z</time></trkpt><trkpt lat="41.20532262940145" lon="15.076540975805354"><ele>442.0</ele><time>2026-03-22T12:38:17Z</time></trkpt><trkpt lat="41.205444044585256" lon="15.07653383996474"><ele>441.0</ele><time>2026-03-22T12:38:18Z</time></trkpt><trkpt lat="41.20555730503702" lon="15.076503012735541"><ele>440.0</ele><time>2026-03-22T12:38:19Z</time></trkpt><trkpt lat="41.205647187364725" lon="15.076455759664237"><ele>439.0</ele><time>2026-03-22T12:38:20Z</time></trkpt><trkpt lat="41.20579291440841" lon="15.076381890678926"><ele>438.0</ele><time>2026-03-22T12:38:21Z</time></trkpt><trkpt lat="41.20597873121867" lon="15.076283109317428"><ele>437.0</ele><time>2026-03-22T12:38:22Z</time></trkpt><trkpt lat="41.206126373225054" lon="15.076226329745051"><ele>437.0</ele><time>2026-03-22T12:38:23Z</time></trkpt><trkpt lat="41.20626195218761" lon="15.076162812946624"><ele>437.0</ele><time>2026-03-22T12:38:24Z</time></trkpt><trkpt lat="41.20639285985772" lon="15.076100244071508"><ele>437.0</ele><time>2026-03-22T12:38:25Z</time></trkpt><trkpt lat="41.2065364875559" lon="15.076031595508455"><ele>437.0</ele><time>2026-03-22T12:38:26Z</time></trkpt><trkpt lat="41.20669202081611" lon="15.075951553472395"><ele>436.0</ele><time>2026-03-22T12:38:27Z</time></trkpt><trkpt lat="41.20687568735739" lon="15.075860531812614"><ele>435.0</ele><time>2026-03-22T12:38:28Z</time></trkpt><trkpt lat="41.20707444803064" lon="15.075770444132758"><ele>434.0</ele><time>2026-03-22T12:38:29Z</time></trkpt><trkpt lat="41.2072740876611" lon="15.07568320843477"><ele>433.0</ele><time>2026-03-22T12:38:30Z</time></trkpt><trkpt lat="41.207436166855494" lon="15.075611286269925"><ele>432.0</ele><time>2026-03-22T12:38:31Z</time></trkpt><trkpt lat="41.20753951293364" lon="15.075561997153343"><ele>431.0</ele><time>2026-03-22T12:38:32Z</time></trkpt><trkpt lat="41.20764287179699" lon="15.075525010099405"><ele>430.0</ele><time>2026-03-22T12:38:33Z</time></trkpt><trkpt lat="41.20770793163867" lon="15.075502058990159"><ele>430.0</ele><time>2026-03-22T12:38:34Z</time></trkpt><trkpt lat="41.20777284473922" lon="15.07547915966376"><ele>430.0</ele><time>2026-03-22T12:38:35Z</time></trkpt><trkpt lat="41.207834517776746" lon="15.075416723605251"><ele>430.0</ele><time>2026-03-22T12:38:36Z</time></trkpt><trkpt lat="41.207934969932666" lon="15.075373230994336"><ele>430.0</ele><time>2026-03-22T12:38:37Z</time></trkpt><trkpt lat="41.20806016790702" lon="15.075318161555009"><ele>430.0</ele><time>2026-03-22T12:38:38Z</time></trkpt><trkpt lat="41.208195842203224" lon="15.075256565599542"><ele>428.33333333333337</ele><time>2026-03-22T12:38:39Z</time></trkpt><trkpt lat="41.20833402372265" lon="15.075193008948396"><ele>426.66666666666663</ele><time>2026-03-22T12:38:40Z</time></trkpt><trkpt lat="41.20846405501524" lon="15.075136147458585"><ele>425.0</ele><time>2026-03-22T12:38:41Z</time></trkpt><trkpt lat="41.20862870503116" lon="15.074974809713064"><ele>423.66666666666663</ele><time>2026-03-22T12:38:43Z</time></trkpt><trkpt lat="41.20877032056229" lon="15.074869813355972"><ele>422.33333333333337</ele><time>2026-03-22T12:38:44Z</time></trkpt><trkpt lat="41.208920120276055" lon="15.074793086865727"><ele>421.0</ele><time>2026-03-22T12:38:45Z</time></trkpt><trkpt lat="41.20907078972578" lon="15.074744297962674"><ele>419.5</ele><time>2026-03-22T12:38:46Z</time></trkpt><trkpt lat="41.2092020452714" lon="15.074707369316734"><ele>418.0</ele><time>2026-03-22T12:38:47Z</time></trkpt><trkpt lat="41.20934495037224" lon="15.074688570159912"><ele>416.5</ele><time>2026-03-22T12:38:48Z</time></trkpt><trkpt lat="41.209499582040486" lon="15.074645865206938"><ele>415.0</ele><time>2026-03-22T12:38:49Z</time></trkpt><trkpt lat="41.20967469022642" lon="15.074599184530902"><ele>414.0</ele><time>2026-03-22T12:38:50Z</time></trkpt><trkpt lat="41.20985934965665" lon="15.074554937196531"><ele>413.0</ele><time>2026-03-22T12:38:51Z</time></trkpt><trkpt lat="41.210026633210454" lon="15.074517876646228"><ele>412.0</ele><time>2026-03-22T12:38:52Z</time></trkpt><trkpt lat="41.21017377789634" lon="15.074485277723618"><ele>412.0</ele><time>2026-03-22T12:38:53Z</time></trkpt><trkpt lat="41.2103358433581" lon="15.074461292248186"><ele>412.0</ele><time>2026-03-22T12:38:54Z</time></trkpt><trkpt lat="41.21049253279994" lon="15.074444111755517"><ele>412.0</ele><time>2026-03-22T12:38:55Z</time></trkpt><trkpt lat="41.21066079215199" lon="15.07442566265716"><ele>410.33333333333337</ele><time>2026-03-22T12:38:56Z</time></trkpt><trkpt lat="41.21082019850848" lon="15.074401659466284"><ele>408.66666666666663</ele><time>2026-03-22T12:38:57Z</time></trkpt><trkpt lat="41.21097492824351" lon="15.074376300541878"><ele>407.0</ele><time>2026-03-22T12:38:58Z</time></trkpt><trkpt lat="41.21113834369098" lon="15.074349518095433"><ele>407.0</ele><time>2026-03-22T12:38:59Z</time></trkpt><trkpt lat="41.21131030803156" lon="15.074314315421253"><ele>407.0</ele><time>2026-03-22T12:39:00Z</time></trkpt><trkpt lat="41.21150112169049" lon="15.074266421511599"><ele>407.0</ele><time>2026-03-22T12:39:01Z</time></trkpt><trkpt lat="41.21167391870477" lon="15.074211613276226"><ele>406.5</ele><time>2026-03-22T12:39:02Z</time></trkpt><trkpt lat="41.21181144753711" lon="15.074147774011506"><ele>406.0</ele><time>2026-03-22T12:39:03Z</time></trkpt><trkpt lat="41.211928924193785" lon="15.074075326634395"><ele>405.5</ele><time>2026-03-22T12:39:04Z</time></trkpt><trkpt lat="41.21205702066785" lon="15.07399344040048"><ele>405.0</ele><time>2026-03-22T12:39:05Z</time></trkpt><trkpt lat="41.212158737610594" lon="15.07394382594873"><ele>405.0</ele><time>2026-03-22T12:39:06Z</time></trkpt><trkpt lat="41.21225165496227" lon="15.07390057051253"><ele>405.0</ele><time>2026-03-22T12:39:07Z</time></trkpt><trkpt lat="41.21233826622991" lon="15.073854727690298"><ele>405.0</ele><time>2026-03-22T12:39:08Z</time></trkpt><trkpt lat="41.21243016328427" lon="15.073797747564289"><ele>405.0</ele><time>2026-03-22T12:39:09Z</time></trkpt><trkpt lat="41.21253654623682" lon="15.073747908902034"><ele>405.0</ele><time>2026-03-22T12:39:10Z</time></trkpt><trkpt lat="41.21265031462346" lon="15.073731522251624"><ele>404.0</ele><time>2026-03-22T12:39:11Z</time></trkpt><trkpt lat="41.2127878893723" lon="15.073731484542826"><ele>403.0</ele><time>2026-03-22T12:39:12Z</time></trkpt><trkpt lat="41.212943424716585" lon="15.073727310062859"><ele>402.0</ele><time>2026-03-22T12:39:13Z</time></trkpt><trkpt lat="41.21312991494916" lon="15.073714257960404"><ele>400.66666666666663</ele><time>2026-03-22T12:39:14Z</time></trkpt><trkpt lat="41.21330995912055" lon="15.073695526307715"><ele>399.3333333333333</ele><time>2026-03-22T12:39:15Z</time></trkpt><trkpt lat="41.2134758705863" lon="15.073677948297385"><ele>398.0</ele><time>2026-03-22T12:39:16Z</time></trkpt><trkpt lat="41.21361591459542" lon="15.073661859067824"><ele>398.0</ele><time>2026-03-22T12:39:17Z</time></trkpt><trkpt lat="41.21375611618905" lon="15.073678795152839"><ele>398.0</ele><time>2026-03-22T12:39:18Z</time></trkpt><trkpt lat="41.213906468938866" lon="15.07370415235654"><ele>398.0</ele><time>2026-03-22T12:39:19Z</time></trkpt><trkpt lat="41.214082345021595" lon="15.07371858056667"><ele>397.5</ele><time>2026-03-22T12:39:20Z</time></trkpt><trkpt lat="41.214264375982246" lon="15.073720258686533"><ele>397.0</ele><time>2026-03-22T12:39:21Z</time></trkpt><trkpt lat="41.2143952037552" lon="15.073715870334981"><ele>396.5</ele><time>2026-03-22T12:39:22Z</time></trkpt><trkpt lat="41.21453011578771" lon="15.073713317829638"><ele>396.0</ele><time>2026-03-22T12:39:23Z</time></trkpt><trkpt lat="41.21470230379645" lon="15.07371317198132"><ele>395.33333333333337</ele><time>2026-03-22T12:39:24Z</time></trkpt><trkpt lat="41.214887377665775" lon="15.073717376659479"><ele>394.6666666666667</ele><time>2026-03-22T12:39:25Z</time></trkpt><trkpt lat="41.21505595609218" lon="15.07372541126106"><ele>394.0</ele><time>2026-03-22T12:39:26Z</time></trkpt><trkpt lat="41.215200254117306" lon="15.073734014805312"><ele>394.0</ele><time>2026-03-22T12:39:27Z</time></trkpt><trkpt lat="41.21536683886064" lon="15.073743947163877"><ele>394.0</ele><time>2026-03-22T12:39:28Z</time></trkpt><trkpt lat="41.21554266599521" lon="15.073752016572163"><ele>394.0</ele><time>2026-03-22T12:39:29Z</time></trkpt><trkpt lat="41.21569876848842" lon="15.073755945924836"><ele>393.0</ele><time>2026-03-22T12:39:30Z</time></trkpt><trkpt lat="41.215828559127864" lon="15.07375322808737"><ele>392.0</ele><time>2026-03-22T12:39:31Z</time></trkpt><trkpt lat="41.215942633238775" lon="15.073741702538559"><ele>391.0</ele><time>2026-03-22T12:39:32Z</time></trkpt><trkpt lat="41.216056144824186" lon="15.073729618642787"><ele>390.0</ele><time>2026-03-22T12:39:33Z</time></trkpt><trkpt lat="41.216195099339565" lon="15.07371479269413"><ele>390.0</ele><time>2026-03-22T12:39:34Z</time></trkpt><trkpt lat="41.2163322340927" lon="15.073699604096491"><ele>390.0</ele><time>2026-03-22T12:39:35Z</time></trkpt><trkpt lat="41.216455022965334" lon="15.073679290516159"><ele>390.0</ele><time>2026-03-22T12:39:36Z</time></trkpt><trkpt lat="41.216536985181065" lon="15.073660070469511"><ele>390.0</ele><time>2026-03-22T12:39:37Z</time></trkpt><trkpt lat="41.216601556569735" lon="15.073631708818619"><ele>390.0</ele><time>2026-03-22T12:39:38Z</time></trkpt><trkpt lat="41.21667134161394" lon="15.073579090513086"><ele>389.75</ele><time>2026-03-22T12:39:40Z</time></trkpt><trkpt lat="41.216626605694984" lon="15.073436980980212"><ele>389.5</ele><time>2026-03-22T12:39:43Z</time></trkpt><trkpt lat="41.21658322536206" lon="15.073322450504458"><ele>389.25</ele><time>2026-03-22T12:39:44Z</time></trkpt><trkpt lat="41.21650250302321" lon="15.07320186210302"><ele>389.0</ele><time>2026-03-22T12:39:45Z</time></trkpt><trkpt lat="41.2164159252453" lon="15.073066742422128"><ele>389.0</ele><time>2026-03-22T12:39:46Z</time></trkpt><trkpt lat="41.216332846776645" lon="15.072919464039964"><ele>389.0</ele><time>2026-03-22T12:39:47Z</time></trkpt><trkpt lat="41.21623884771589" lon="15.07279206139537"><ele>389.0</ele><time>2026-03-22T12:39:48Z</time></trkpt><trkpt lat="41.216141155876244" lon="15.072651260459244"><ele>389.0</ele><time>2026-03-22T12:39:49Z</time></trkpt><trkpt lat="41.21604393179185" lon="15.072544519316244"><ele>389.0</ele><time>2026-03-22T12:39:50Z</time></trkpt><trkpt lat="41.21595539330632" lon="15.072449042395856"><ele>389.0</ele><time>2026-03-22T12:39:51Z</time></trkpt><trkpt lat="41.21586296928065" lon="15.072351131721504"><ele>389.0</ele><time>2026-03-22T12:39:52Z</time></trkpt><trkpt lat="41.21577838971946" lon="15.07226707612808"><ele>389.0</ele><time>2026-03-22T12:39:53Z</time></trkpt><trkpt lat="41.215715860381835" lon="15.072215275312862"><ele>389.0</ele><time>2026-03-22T12:39:54Z</time></trkpt><trkpt lat="41.21564717580481" lon="15.072162996965751"><ele>388.99999999999994</ele><time>2026-03-22T12:39:55Z</time></trkpt><trkpt lat="41.21557945957709" lon="15.072112541776967"><ele>389.0</ele><time>2026-03-22T12:39:56Z</time></trkpt><trkpt lat="41.21551406555225" lon="15.072060171291234"><ele>389.0</ele><time>2026-03-22T12:39:57Z</time></trkpt><trkpt lat="41.215435778064546" lon="15.071995136385908"><ele>389.0</ele><time>2026-03-22T12:39:58Z</time></trkpt><trkpt lat="41.215364745423045" lon="15.071929927384906"><ele>388.99999999999994</ele><time>2026-03-22T12:39:59Z</time></trkpt><trkpt lat="41.21528692318798" lon="15.07183391983765"><ele>389.0</ele><time>2026-03-22T12:40:00Z</time></trkpt><trkpt lat="41.21516855213096" lon="15.071726767614981"><ele>387.66666666666663</ele><time>2026-03-22T12:40:01Z</time></trkpt><trkpt lat="41.21502817460237" lon="15.071601625773853"><ele>386.33333333333337</ele><time>2026-03-22T12:40:02Z</time></trkpt><trkpt lat="41.21487232853816" lon="15.071482488955736"><ele>385.0</ele><time>2026-03-22T12:40:03Z</time></trkpt><trkpt lat="41.21468815383332" lon="15.071423373165786"><ele>385.0</ele><time>2026-03-22T12:40:04Z</time></trkpt><trkpt lat="41.21453816036331" lon="15.071328219049095"><ele>385.0</ele><time>2026-03-22T12:40:05Z</time></trkpt><trkpt lat="41.21441736531375" lon="15.071250664517038"><ele>385.0</ele><time>2026-03-22T12:40:06Z</time></trkpt><trkpt lat="41.21433510970594" lon="15.071191557632604"><ele>385.0</ele><time>2026-03-22T12:40:07Z</time></trkpt><trkpt lat="41.214278294490505" lon="15.071153429959457"><ele>385.0</ele><time>2026-03-22T12:40:08Z</time></trkpt><trkpt lat="41.21414885935413" lon="15.071071116739063"><ele>385.0</ele><time>2026-03-22T12:40:10Z</time></trkpt><trkpt lat="41.21404849898315" lon="15.071005388258499"><ele>385.0</ele><time>2026-03-22T12:40:11Z</time></trkpt><trkpt lat="41.21394122733586" lon="15.07091468770489"><ele>385.0</ele><time>2026-03-22T12:40:12Z</time></trkpt><trkpt lat="41.21385271507255" lon="15.070827585305342"><ele>385.75</ele><time>2026-03-22T12:40:13Z</time></trkpt><trkpt lat="41.21378584660202" lon="15.07075729541242"><ele>386.5</ele><time>2026-03-22T12:40:14Z</time></trkpt><trkpt lat="41.21370779123701" lon="15.07067734392785"><ele>387.25</ele><time>2026-03-22T12:40:15Z</time></trkpt><trkpt lat="41.213601443485615" lon="15.07057576828661"><ele>388.0</ele><time>2026-03-22T12:40:16Z</time></trkpt><trkpt lat="41.21348021785393" lon="15.070440217276856"><ele>388.0</ele><time>2026-03-22T12:40:17Z</time></trkpt><trkpt lat="41.21335187720893" lon="15.070268387163644"><ele>388.0</ele><time>2026-03-22T12:40:18Z</time></trkpt><trkpt lat="41.21322625799425" lon="15.070076893912697"><ele>388.0</ele><time>2026-03-22T12:40:19Z</time></trkpt><trkpt lat="41.213114028307125" lon="15.069904452383371"><ele>387.5</ele><time>2026-03-22T12:40:20Z</time></trkpt><trkpt lat="41.21301795656265" lon="15.069740199947455"><ele>387.0</ele><time>2026-03-22T12:40:21Z</time></trkpt><trkpt lat="41.21293345067165" lon="15.069597270136272"><ele>386.5</ele><time>2026-03-22T12:40:22Z</time></trkpt><trkpt lat="41.21284454080531" lon="15.06947383360235"><ele>386.0</ele><time>2026-03-22T12:40:23Z</time></trkpt><trkpt lat="41.21275766616069" lon="15.069368424913275"><ele>386.0</ele><time>2026-03-22T12:40:24Z</time></trkpt><trkpt lat="41.21267117487755" lon="15.069282355932458"><ele>386.0</ele><time>2026-03-22T12:40:25Z</time></trkpt><trkpt lat="41.21258197501641" lon="15.069169263501905"><ele>386.0</ele><time>2026-03-22T12:40:26Z</time></trkpt><trkpt lat="41.21246856146135" lon="15.069043602218922"><ele>386.0</ele><time>2026-03-22T12:40:27Z</time></trkpt><trkpt lat="41.212340701674364" lon="15.068924883449915"><ele>385.20000000000005</ele><time>2026-03-22T12:40:28Z</time></trkpt><trkpt lat="41.212229526124695" lon="15.068830180937866"><ele>384.40000000000003</ele><time>2026-03-22T12:40:29Z</time></trkpt><trkpt lat="41.212152018053594" lon="15.068785891883975"><ele>383.6</ele><time>2026-03-22T12:40:30Z</time></trkpt><trkpt lat="41.212073964052024" lon="15.068740936298951"><ele>382.8</ele><time>2026-03-22T12:40:31Z</time></trkpt><trkpt lat="41.21198425917484" lon="15.068666360306624"><ele>382.0</ele><time>2026-03-22T12:40:32Z</time></trkpt><trkpt lat="41.21187829393849" lon="15.068561060115043"><ele>382.0</ele><time>2026-03-22T12:40:33Z</time></trkpt><trkpt lat="41.21175135966813" lon="15.068454469050836"><ele>382.0</ele><time>2026-03-22T12:40:34Z</time></trkpt><trkpt lat="41.2116380746708" lon="15.068358855923472"><ele>382.0</ele><time>2026-03-22T12:40:35Z</time></trkpt><trkpt lat="41.21155816497604" lon="15.068308913287186"><ele>382.0</ele><time>2026-03-22T12:40:36Z</time></trkpt><trkpt lat="41.21146336434229" lon="15.068274042971534"><ele>381.0</ele><time>2026-03-22T12:40:37Z</time></trkpt><trkpt lat="41.21134282867838" lon="15.06820507683815"><ele>380.0</ele><time>2026-03-22T12:40:38Z</time></trkpt><trkpt lat="41.211213332292466" lon="15.068119911745425"><ele>379.0</ele><time>2026-03-22T12:40:39Z</time></trkpt><trkpt lat="41.21111185272472" lon="15.068063298472817"><ele>378.0</ele><time>2026-03-22T12:40:40Z</time></trkpt><trkpt lat="41.21102508320885" lon="15.068002003723082"><ele>378.0</ele><time>2026-03-22T12:40:41Z</time></trkpt><trkpt lat="41.21094810584849" lon="15.067942936586912"><ele>378.0</ele><time>2026-03-22T12:40:42Z</time></trkpt><trkpt lat="41.2108681985915" lon="15.067880410698763"><ele>378.0</ele><time>2026-03-22T12:40:43Z</time></trkpt><trkpt lat="41.2107856884839" lon="15.06784979165347"><ele>378.0</ele><time>2026-03-22T12:40:44Z</time></trkpt><trkpt lat="41.21070554289156" lon="15.067868558380402"><ele>378.0</ele><time>2026-03-22T12:40:45Z</time></trkpt><trkpt lat="41.21062261871945" lon="15.067905841471072"><ele>378.0</ele><time>2026-03-22T12:40:46Z</time></trkpt><trkpt lat="41.21054201340659" lon="15.067947358146103"><ele>379.2</ele><time>2026-03-22T12:40:47Z</time></trkpt><trkpt lat="41.21046333994167" lon="15.067971205484238"><ele>380.4</ele><time>2026-03-22T12:40:48Z</time></trkpt><trkpt lat="41.21037150828241" lon="15.0679915018121"><ele>381.59999999999997</ele><time>2026-03-22T12:40:49Z</time></trkpt><trkpt lat="41.21028034808024" lon="15.068003992971448"><ele>382.79999999999995</ele><time>2026-03-22T12:40:50Z</time></trkpt><trkpt lat="41.210183253271104" lon="15.068017278523692"><ele>384.0</ele><time>2026-03-22T12:40:51Z</time></trkpt><trkpt lat="41.210064288058334" lon="15.068019113494199"><ele>384.0</ele><time>2026-03-22T12:40:52Z</time></trkpt><trkpt lat="41.2099426730182" lon="15.067996935786468"><ele>384.0</ele><time>2026-03-22T12:40:53Z</time></trkpt><trkpt lat="41.209845667551754" lon="15.067962234604467"><ele>384.0</ele><time>2026-03-22T12:40:54Z</time></trkpt><trkpt lat="41.20974144179449" lon="15.067938263234531"><ele>384.0</ele><time>2026-03-22T12:40:55Z</time></trkpt><trkpt lat="41.209619829951706" lon="15.067908826528663"><ele>384.75</ele><time>2026-03-22T12:40:56Z</time></trkpt><trkpt lat="41.20950038695162" lon="15.067885808382261"><ele>385.5</ele><time>2026-03-22T12:40:57Z</time></trkpt><trkpt lat="41.20940913844278" lon="15.067827639667325"><ele>386.25</ele><time>2026-03-22T12:40:58Z</time></trkpt><trkpt lat="41.209304148025986" lon="15.067723172544644"><ele>387.0</ele><time>2026-03-22T12:40:59Z</time></trkpt><trkpt lat="41.20919927398689" lon="15.06762381579078"><ele>387.0</ele><time>2026-03-22T12:41:00Z</time></trkpt><trkpt lat="41.209142366518996" lon="15.067564845445096"><ele>387.0</ele><time>2026-03-22T12:41:01Z</time></trkpt><trkpt lat="41.20906971450418" lon="15.067502297778264"><ele>387.0</ele><time>2026-03-22T12:41:02Z</time></trkpt><trkpt lat="41.2089910087228" lon="15.067390012857777"><ele>387.0</ele><time>2026-03-22T12:41:03Z</time></trkpt><trkpt lat="41.20894290058772" lon="15.067233079237907"><ele>387.0</ele><time>2026-03-22T12:41:04Z</time></trkpt><trkpt lat="41.20891702559221" lon="15.067039386445806"><ele>388.33333333333337</ele><time>2026-03-22T12:41:05Z</time></trkpt><trkpt lat="41.208903604787" lon="15.066815679776234"><ele>389.6666666666667</ele><time>2026-03-22T12:41:06Z</time></trkpt><trkpt lat="41.20886872532108" lon="15.066585674581614"><ele>391.0</ele><time>2026-03-22T12:41:07Z</time></trkpt><trkpt lat="41.20885116034571" lon="15.066368332590118"><ele>393.25</ele><time>2026-03-22T12:41:08Z</time></trkpt><trkpt lat="41.20883981245798" lon="15.066211287525803"><ele>395.5</ele><time>2026-03-22T12:41:09Z</time></trkpt><trkpt lat="41.208805900924915" lon="15.066076763241275"><ele>397.75</ele><time>2026-03-22T12:41:10Z</time></trkpt><trkpt lat="41.20871908771271" lon="15.065952718138112"><ele>400.0</ele><time>2026-03-22T12:41:11Z</time></trkpt><trkpt lat="41.208622907158905" lon="15.065835600246974"><ele>404.0</ele><time>2026-03-22T12:41:12Z</time></trkpt><trkpt lat="41.20853033352293" lon="15.065682865854157"><ele>408.0</ele><time>2026-03-22T12:41:13Z</time></trkpt><trkpt lat="41.20843550589492" lon="15.065505159552501"><ele>412.0</ele><time>2026-03-22T12:41:14Z</time></trkpt><trkpt lat="41.20832616001799" lon="15.065321580942804"><ele>412.0</ele><time>2026-03-22T12:41:15Z</time></trkpt><trkpt lat="41.20820689764339" lon="15.065143870341172"><ele>412.0</ele><time>2026-03-22T12:41:16Z</time></trkpt><trkpt lat="41.2080833387726" lon="15.064947053414777"><ele>412.0</ele><time>2026-03-22T12:41:17Z</time></trkpt><trkpt lat="41.20798903542335" lon="15.064769980284417"><ele>413.40000000000003</ele><time>2026-03-22T12:41:18Z</time></trkpt><trkpt lat="41.20791834560813" lon="15.064621954681897"><ele>414.8</ele><time>2026-03-22T12:41:19Z</time></trkpt><trkpt lat="41.20787567049093" lon="15.064513192246874"><ele>416.2</ele><time>2026-03-22T12:41:20Z</time></trkpt><trkpt lat="41.20783155558302" lon="15.064424904426092"><ele>417.6</ele><time>2026-03-22T12:41:21Z</time></trkpt><trkpt lat="41.20778200736964" lon="15.064365998930365"><ele>419.0</ele><time>2026-03-22T12:41:23Z</time></trkpt><trkpt lat="41.20776688365771" lon="15.06422507236048"><ele>420.5</ele><time>2026-03-22T12:41:39Z</time></trkpt><trkpt lat="41.207724914271445" lon="15.064051544222309"><ele>422.0</ele><time>2026-03-22T12:41:41Z</time></trkpt><trkpt lat="41.20769519665676" lon="15.063932336312925"><ele>423.5</ele><time>2026-03-22T12:41:42Z</time></trkpt><trkpt lat="41.20762789293596" lon="15.063805129873394"><ele>425.0</ele><time>2026-03-22T12:41:43Z</time></trkpt><trkpt lat="41.2075886547353" lon="15.063646435770497"><ele>425.0</ele><time>2026-03-22T12:41:44Z</time></trkpt><trkpt lat="41.207553665826815" lon="15.063486214050025"><ele>425.0</ele><time>2026-03-22T12:41:45Z</time></trkpt><trkpt lat="41.207519782315835" lon="15.063309735113897"><ele>425.0</ele><time>2026-03-22T12:41:46Z</time></trkpt><trkpt lat="41.20748574904715" lon="15.063120205038473"><ele>425.0</ele><time>2026-03-22T12:41:47Z</time></trkpt><trkpt lat="41.207450865289786" lon="15.062930348273301"><ele>426.5</ele><time>2026-03-22T12:41:48Z</time></trkpt><trkpt lat="41.207415122987314" lon="15.062742099460946"><ele>428.0</ele><time>2026-03-22T12:41:49Z</time></trkpt><trkpt lat="41.207382201281156" lon="15.062569698561314"><ele>429.5</ele><time>2026-03-22T12:41:50Z</time></trkpt><trkpt lat="41.20734858783709" lon="15.062400134108115"><ele>431.0</ele><time>2026-03-22T12:41:51Z</time></trkpt><trkpt lat="41.20731144396094" lon="15.06222389011505"><ele>432.5</ele><time>2026-03-22T12:41:52Z</time></trkpt><trkpt lat="41.207270109407844" lon="15.062046882631765"><ele>434.0</ele><time>2026-03-22T12:41:53Z</time></trkpt><trkpt lat="41.207222322270944" lon="15.061866880381073"><ele>435.5</ele><time>2026-03-22T12:41:54Z</time></trkpt><trkpt lat="41.207178637155785" lon="15.061678065465369"><ele>437.0</ele><time>2026-03-22T12:41:55Z</time></trkpt><trkpt lat="41.20711159246085" lon="15.061490957498652"><ele>437.0</ele><time>2026-03-22T12:41:56Z</time></trkpt><trkpt lat="41.2070499130924" lon="15.061324784754902"><ele>437.0</ele><time>2026-03-22T12:41:57Z</time></trkpt><trkpt lat="41.20697929658429" lon="15.061165768745962"><ele>437.0</ele><time>2026-03-22T12:41:58Z</time></trkpt><trkpt lat="41.206918731364375" lon="15.061000836114747"><ele>437.0</ele><time>2026-03-22T12:41:59Z</time></trkpt><trkpt lat="41.20684675556697" lon="15.060842851341738"><ele>437.25</ele><time>2026-03-22T12:42:00Z</time></trkpt><trkpt lat="41.20678564436993" lon="15.06069349565512"><ele>437.5</ele><time>2026-03-22T12:42:01Z</time></trkpt><trkpt lat="41.206731372058755" lon="15.060548939651351"><ele>437.75</ele><time>2026-03-22T12:42:02Z</time></trkpt><trkpt lat="41.20668311914183" lon="15.060397266820052"><ele>438.0</ele><time>2026-03-22T12:42:03Z</time></trkpt><trkpt lat="41.206634131749865" lon="15.060239264268578"><ele>438.0</ele><time>2026-03-22T12:42:04Z</time></trkpt><trkpt lat="41.20659201833409" lon="15.060098829645073"><ele>437.99999999999994</ele><time>2026-03-22T12:42:05Z</time></trkpt><trkpt lat="41.20655363019599" lon="15.059982279631802"><ele>437.99999999999994</ele><time>2026-03-22T12:42:06Z</time></trkpt><trkpt lat="41.20652294010646" lon="15.059880108262412"><ele>438.0</ele><time>2026-03-22T12:42:07Z</time></trkpt><trkpt lat="41.20647979673071" lon="15.059758734168685"><ele>438.0</ele><time>2026-03-22T12:42:09Z</time></trkpt><trkpt lat="41.2065884317174" lon="15.059597297778902"><ele>437.5</ele><time>2026-03-22T12:42:11Z</time></trkpt><trkpt lat="41.20668278375614" lon="15.059583294436456"><ele>437.0</ele><time>2026-03-22T12:42:12Z</time></trkpt><trkpt lat="41.20681127351" lon="15.059558133130388"><ele>436.5</ele><time>2026-03-22T12:42:13Z</time></trkpt><trkpt lat="41.206973026472326" lon="15.059514791379211"><ele>436.0</ele><time>2026-03-22T12:42:14Z</time></trkpt><trkpt lat="41.207135554346195" lon="15.059477220675346"><ele>436.0</ele><time>2026-03-22T12:42:15Z</time></trkpt><trkpt lat="41.20726129434327" lon="15.059457838674584"><ele>436.0</ele><time>2026-03-22T12:42:16Z</time></trkpt><trkpt lat="41.207385127906214" lon="15.059461494403676"><ele>436.0</ele><time>2026-03-22T12:42:17Z</time></trkpt><trkpt lat="41.207517983336295" lon="15.059472418430671"><ele>436.0</ele><time>2026-03-22T12:42:18Z</time></trkpt><trkpt lat="41.20764336377656" lon="15.05947376191292"><ele>435.5</ele><time>2026-03-22T12:42:19Z</time></trkpt><trkpt lat="41.207771729299" lon="15.05945701715033"><ele>435.0</ele><time>2026-03-22T12:42:20Z</time></trkpt><trkpt lat="41.20790750299816" lon="15.059432279816159"><ele>434.5</ele><time>2026-03-22T12:42:21Z</time></trkpt><trkpt lat="41.20804763842885" lon="15.059405452895886"><ele>434.0</ele><time>2026-03-22T12:42:22Z</time></trkpt><trkpt lat="41.20818035508052" lon="15.059386618024133"><ele>432.75</ele><time>2026-03-22T12:42:23Z</time></trkpt><trkpt lat="41.208323599719215" lon="15.059408457395973"><ele>431.5</ele><time>2026-03-22T12:42:24Z</time></trkpt><trkpt lat="41.208451139187225" lon="15.05943207961521"><ele>430.25</ele><time>2026-03-22T12:42:25Z</time></trkpt><trkpt lat="41.208551502578906" lon="15.059450064343565"><ele>429.0</ele><time>2026-03-22T12:42:26Z</time></trkpt><trkpt lat="41.20862657674925" lon="15.059462496245272"><ele>429.0</ele><time>2026-03-22T12:42:27Z</time></trkpt><trkpt lat="41.208692653441915" lon="15.059473438204046"><ele>429.0</ele><time>2026-03-22T12:42:28Z</time></trkpt><trkpt lat="41.20878776139723" lon="15.059485333767524"><ele>429.0</ele><time>2026-03-22T12:42:30Z</time></trkpt><trkpt lat="41.2087271608029" lon="15.059220272451498"><ele>429.0</ele><time>2026-03-22T12:42:33Z</time></trkpt><trkpt lat="41.20869297733015" lon="15.05906035297194"><ele>427.79999999999995</ele><time>2026-03-22T12:42:34Z</time></trkpt><trkpt lat="41.208667620946095" lon="15.058924027108636"><ele>426.59999999999997</ele><time>2026-03-22T12:42:35Z</time></trkpt><trkpt lat="41.20864604802555" lon="15.058800598417198"><ele>425.4</ele><time>2026-03-22T12:42:36Z</time></trkpt><trkpt lat="41.20862073894136" lon="15.058681091850382"><ele>424.2</ele><time>2026-03-22T12:42:37Z</time></trkpt><trkpt lat="41.208597936361556" lon="15.058571148536052"><ele>423.0</ele><time>2026-03-22T12:42:38Z</time></trkpt><trkpt lat="41.208575527016336" lon="15.058460559816933"><ele>423.0</ele><time>2026-03-22T12:42:39Z</time></trkpt><trkpt lat="41.20855481037849" lon="15.058340338846063"><ele>423.0</ele><time>2026-03-22T12:42:40Z</time></trkpt><trkpt lat="41.20854113561533" lon="15.058202901031041"><ele>423.0</ele><time>2026-03-22T12:42:41Z</time></trkpt><trkpt lat="41.20853667145458" lon="15.058079192792848"><ele>423.0</ele><time>2026-03-22T12:42:42Z</time></trkpt><trkpt lat="41.20851639343641" lon="15.057935400709011"><ele>423.0</ele><time>2026-03-22T12:42:43Z</time></trkpt><trkpt lat="41.20849792867508" lon="15.057754093616015"><ele>425.0</ele><time>2026-03-22T12:42:44Z</time></trkpt><trkpt lat="41.20848672318244" lon="15.057540868881429"><ele>427.0</ele><time>2026-03-22T12:42:45Z</time></trkpt><trkpt lat="41.20846767538985" lon="15.057287644265452"><ele>429.0</ele><time>2026-03-22T12:42:46Z</time></trkpt><trkpt lat="41.208442601240975" lon="15.057023070043716"><ele>431.0</ele><time>2026-03-22T12:42:47Z</time></trkpt><trkpt lat="41.20842532071772" lon="15.056822407992579"><ele>433.0</ele><time>2026-03-22T12:42:48Z</time></trkpt><trkpt lat="41.20840657910022" lon="15.056670779084804"><ele>435.0</ele><time>2026-03-22T12:42:49Z</time></trkpt><trkpt lat="41.208400271312996" lon="15.056572225538618"><ele>437.0</ele><time>2026-03-22T12:42:50Z</time></trkpt><trkpt lat="41.2083593997712" lon="15.056469071222958"><ele>439.0</ele><time>2026-03-22T12:42:52Z</time></trkpt><trkpt lat="41.208240799220476" lon="15.0563712500068"><ele>441.25</ele><time>2026-03-22T12:42:54Z</time></trkpt><trkpt lat="41.208124294945534" lon="15.056354228226843"><ele>443.5</ele><time>2026-03-22T12:42:55Z</time></trkpt><trkpt lat="41.20799135588519" lon="15.056339993999174"><ele>445.75</ele><time>2026-03-22T12:42:56Z</time></trkpt><trkpt lat="41.20786334970699" lon="15.056329008627122"><ele>448.0</ele><time>2026-03-22T12:42:57Z</time></trkpt><trkpt lat="41.20777219871281" lon="15.056319217632979"><ele>448.0</ele><time>2026-03-22T12:42:58Z</time></trkpt><trkpt lat="41.207687145142785" lon="15.056322199661162"><ele>447.99999999999994</ele><time>2026-03-22T12:42:59Z</time></trkpt><trkpt lat="41.207572385002116" lon="15.056390619683071"><ele>447.99999999999994</ele><time>2026-03-22T12:43:00Z</time></trkpt><trkpt lat="41.20748783055222" lon="15.056439833012979"><ele>448.0</ele><time>2026-03-22T12:43:01Z</time></trkpt><trkpt lat="41.207368544229446" lon="15.056453072403144"><ele>448.0</ele><time>2026-03-22T12:43:03Z</time></trkpt><trkpt lat="41.207219013203826" lon="15.056360527139443"><ele>449.0</ele><time>2026-03-22T12:43:05Z</time></trkpt><trkpt lat="41.20710159021351" lon="15.056319519850138"><ele>449.99999999999994</ele><time>2026-03-22T12:43:06Z</time></trkpt><trkpt lat="41.206997059190115" lon="15.056309618590857"><ele>450.99999999999994</ele><time>2026-03-22T12:43:07Z</time></trkpt><trkpt lat="41.20692406728837" lon="15.056257423839616"><ele>452.0</ele><time>2026-03-22T12:43:08Z</time></trkpt><trkpt lat="41.206843802540526" lon="15.056230596025404"><ele>453.0</ele><time>2026-03-22T12:43:09Z</time></trkpt><trkpt lat="41.206727310809846" lon="15.056279963573594"><ele>453.0</ele><time>2026-03-22T12:43:10Z</time></trkpt><trkpt lat="41.20662784796312" lon="15.056304082165507"><ele>452.99999999999994</ele><time>2026-03-22T12:43:11Z</time></trkpt><trkpt lat="41.2065414759442" lon="15.056292593018698"><ele>452.99999999999994</ele><time>2026-03-22T12:43:12Z</time></trkpt><trkpt lat="41.206439761759206" lon="15.056259113543804"><ele>453.0</ele><time>2026-03-22T12:43:13Z</time></trkpt><trkpt lat="41.2063281362423" lon="15.056227273586689"><ele>453.0</ele><time>2026-03-22T12:43:14Z</time></trkpt><trkpt lat="41.206214149490805" lon="15.056213532479047"><ele>455.25</ele><time>2026-03-22T12:43:15Z</time></trkpt><trkpt lat="41.206101009607465" lon="15.056238460748663"><ele>457.5</ele><time>2026-03-22T12:43:16Z</time></trkpt><trkpt lat="41.20598908475292" lon="15.05630443653771"><ele>459.75</ele><time>2026-03-22T12:43:17Z</time></trkpt><trkpt lat="41.20587646191216" lon="15.056349891868079"><ele>462.0</ele><time>2026-03-22T12:43:18Z</time></trkpt><trkpt lat="41.20574140317133" lon="15.056364640490361"><ele>464.20000000000005</ele><time>2026-03-22T12:43:19Z</time></trkpt><trkpt lat="41.20560788450734" lon="15.056370031131216"><ele>466.40000000000003</ele><time>2026-03-22T12:43:20Z</time></trkpt><trkpt lat="41.20550827495021" lon="15.05637405274377"><ele>468.59999999999997</ele><time>2026-03-22T12:43:21Z</time></trkpt><trkpt lat="41.20541941989256" lon="15.056364225961993"><ele>470.79999999999995</ele><time>2026-03-22T12:43:23Z</time></trkpt><trkpt lat="41.20539823601926" lon="15.0562279797419"><ele>473.0</ele><time>2026-03-22T12:43:25Z</time></trkpt><trkpt lat="41.20542289751002" lon="15.056109725274267"><ele>473.0</ele><time>2026-03-22T12:43:26Z</time></trkpt><trkpt lat="41.20544629767528" lon="15.055990400468579"><ele>473.0</ele><time>2026-03-22T12:43:27Z</time></trkpt><trkpt lat="41.20547448259743" lon="15.055845582111775"><ele>473.0</ele><time>2026-03-22T12:43:28Z</time></trkpt><trkpt lat="41.20550465193713" lon="15.055690324083308"><ele>473.0</ele><time>2026-03-22T12:43:29Z</time></trkpt><trkpt lat="41.20553677845902" lon="15.055521524155198"><ele>474.25</ele><time>2026-03-22T12:43:30Z</time></trkpt><trkpt lat="41.2055649065009" lon="15.055349392722364"><ele>475.5</ele><time>2026-03-22T12:43:31Z</time></trkpt><trkpt lat="41.205588682306455" lon="15.055169712834946"><ele>476.75</ele><time>2026-03-22T12:43:32Z</time></trkpt><trkpt lat="41.20562186652223" lon="15.054987944308495"><ele>478.0</ele><time>2026-03-22T12:43:33Z</time></trkpt><trkpt lat="41.20565367739466" lon="15.054823093451162"><ele>476.0</ele><time>2026-03-22T12:43:34Z</time></trkpt><trkpt lat="41.20568126034733" lon="15.054668517031814"><ele>473.99999999999994</ele><time>2026-03-22T12:43:35Z</time></trkpt><trkpt lat="41.20570419712433" lon="15.054522528017579"><ele>471.99999999999994</ele><time>2026-03-22T12:43:36Z</time></trkpt><trkpt lat="41.2057278195433" lon="15.0543845489252"><ele>470.0</ele><time>2026-03-22T12:43:37Z</time></trkpt><trkpt lat="41.20575590797718" lon="15.054260252878601"><ele>468.0</ele><time>2026-03-22T12:43:38Z</time></trkpt><trkpt lat="41.20578414305291" lon="15.054134028586072"><ele>468.79999999999995</ele><time>2026-03-22T12:43:39Z</time></trkpt><trkpt lat="41.20580944501624" lon="15.054020917264156"><ele>469.59999999999997</ele><time>2026-03-22T12:43:40Z</time></trkpt><trkpt lat="41.20583760275929" lon="15.053892097940349"><ele>470.40000000000003</ele><time>2026-03-22T12:43:41Z</time></trkpt><trkpt lat="41.2058674600296" lon="15.053750844607835"><ele>471.20000000000005</ele><time>2026-03-22T12:43:42Z</time></trkpt><trkpt lat="41.205892196008726" lon="15.053600149671983"><ele>472.0</ele><time>2026-03-22T12:43:43Z</time></trkpt><trkpt lat="41.205920052210125" lon="15.053437643507877"><ele>472.0</ele><time>2026-03-22T12:43:44Z</time></trkpt><trkpt lat="41.20596157058397" lon="15.053289113675337"><ele>472.00000000000006</ele><time>2026-03-22T12:43:45Z</time></trkpt><trkpt lat="41.20601867223738" lon="15.05316990514765"><ele>472.00000000000006</ele><time>2026-03-22T12:43:46Z</time></trkpt><trkpt lat="41.206075793615895" lon="15.053048670912153"><ele>472.0</ele><time>2026-03-22T12:43:47Z</time></trkpt><trkpt lat="41.20613401653584" lon="15.052925101370569"><ele>472.0</ele><time>2026-03-22T12:43:48Z</time></trkpt><trkpt lat="41.20615922407723" lon="15.052796375141037"><ele>472.5</ele><time>2026-03-22T12:43:49Z</time></trkpt><trkpt lat="41.20616898878869" lon="15.052651233595801"><ele>473.0</ele><time>2026-03-22T12:43:50Z</time></trkpt><trkpt lat="41.206150287038874" lon="15.052489558138292"><ele>473.5</ele><time>2026-03-22T12:43:51Z</time></trkpt><trkpt lat="41.20615645777165" lon="15.052282880899307"><ele>474.0</ele><time>2026-03-22T12:43:52Z</time></trkpt><trkpt lat="41.20619908569906" lon="15.052077081964313"><ele>476.0</ele><time>2026-03-22T12:43:53Z</time></trkpt><trkpt lat="41.20624488735017" lon="15.051906529776147"><ele>478.0</ele><time>2026-03-22T12:43:54Z</time></trkpt><trkpt lat="41.20628171243368" lon="15.051748702964407"><ele>480.0</ele><time>2026-03-22T12:43:55Z</time></trkpt><trkpt lat="41.20631566023469" lon="15.051588184653696"><ele>482.0</ele><time>2026-03-22T12:43:56Z</time></trkpt><trkpt lat="41.20634861349996" lon="15.051429525033624"><ele>484.5</ele><time>2026-03-22T12:43:57Z</time></trkpt><trkpt lat="41.20638006011787" lon="15.05127789874348"><ele>487.0</ele><time>2026-03-22T12:43:58Z</time></trkpt><trkpt lat="41.206410323927976" lon="15.051118766770793"><ele>489.5</ele><time>2026-03-22T12:43:59Z</time></trkpt><trkpt lat="41.20643732068924" lon="15.05096443747673"><ele>492.0</ele><time>2026-03-22T12:44:00Z</time></trkpt><trkpt lat="41.20647299637459" lon="15.050805383571404"><ele>492.8</ele><time>2026-03-22T12:44:01Z</time></trkpt><trkpt lat="41.206492604823886" lon="15.050645952508628"><ele>493.6</ele><time>2026-03-22T12:44:02Z</time></trkpt><trkpt lat="41.20651743239213" lon="15.050488947143162"><ele>494.40000000000003</ele><time>2026-03-22T12:44:03Z</time></trkpt><trkpt lat="41.20652600056639" lon="15.05034660477703"><ele>495.20000000000005</ele><time>2026-03-22T12:44:04Z</time></trkpt><trkpt lat="41.20652881896331" lon="15.050243825310435"><ele>496.0</ele><time>2026-03-22T12:44:05Z</time></trkpt><trkpt lat="41.206521090351586" lon="15.050142289892051"><ele>495.33333333333337</ele><time>2026-03-22T12:44:07Z</time></trkpt><trkpt lat="41.20650987427041" lon="15.050046955848954"><ele>494.6666666666667</ele><time>2026-03-22T12:44:10Z</time></trkpt><trkpt lat="41.20644276039514" lon="15.049917155461674"><ele>494.0</ele><time>2026-03-22T12:44:12Z</time></trkpt><trkpt lat="41.2063827858015" lon="15.049876737698847"><ele>493.33333333333337</ele><time>2026-03-22T12:44:13Z</time></trkpt><trkpt lat="41.2063229465202" lon="15.049773940071518"><ele>492.6666666666667</ele><time>2026-03-22T12:44:14Z</time></trkpt><trkpt lat="41.20627277522234" lon="15.049687751076307"><ele>492.0</ele><time>2026-03-22T12:44:15Z</time></trkpt><trkpt lat="41.20623304412927" lon="15.049619497272799"><ele>492.0</ele><time>2026-03-22T12:44:16Z</time></trkpt><trkpt lat="41.2064471274805" lon="15.049279460761216"><ele>492.0</ele><time>2026-03-22T12:44:17Z</time></trkpt><trkpt lat="41.20641385074543" lon="15.049164513880218"><ele>492.0</ele><time>2026-03-22T12:44:18Z</time></trkpt><trkpt lat="41.206376593217826" lon="15.04901394645682"><ele>490.75</ele><time>2026-03-22T12:44:19Z</time></trkpt><trkpt lat="41.20635610484865" lon="15.048843270382205"><ele>489.5</ele><time>2026-03-22T12:44:20Z</time></trkpt><trkpt lat="41.20633795538091" lon="15.048689409037054"><ele>488.25</ele><time>2026-03-22T12:44:21Z</time></trkpt><trkpt lat="41.206295728858656" lon="15.048522390510627"><ele>487.0</ele><time>2026-03-22T12:44:22Z</time></trkpt><trkpt lat="41.20626470194479" lon="15.048364004921002"><ele>483.6</ele><time>2026-03-22T12:44:23Z</time></trkpt><trkpt lat="41.20621780774079" lon="15.048255664537924"><ele>480.20000000000005</ele><time>2026-03-22T12:44:24Z</time></trkpt><trkpt lat="41.206161027536965" lon="15.048189841739203"><ele>476.8</ele><time>2026-03-22T12:44:25Z</time></trkpt><trkpt lat="41.206077619802095" lon="15.048174723640372"><ele>473.4</ele><time>2026-03-22T12:44:26Z</time></trkpt><trkpt lat="41.20596649919487" lon="15.048158907436743"><ele>470.0</ele><time>2026-03-22T12:44:27Z</time></trkpt><trkpt lat="41.205839568442286" lon="15.048099349703795"><ele>470.0</ele><time>2026-03-22T12:44:28Z</time></trkpt><trkpt lat="41.20573953113106" lon="15.048031090721228"><ele>470.0</ele><time>2026-03-22T12:44:29Z</time></trkpt><trkpt lat="41.20566100675026" lon="15.0479515222994"><ele>470.0</ele><time>2026-03-22T12:44:30Z</time></trkpt><trkpt lat="41.20560115273116" lon="15.04784109244762"><ele>470.0</ele><time>2026-03-22T12:44:31Z</time></trkpt><trkpt lat="41.205556662698726" lon="15.047705168132808"><ele>470.0</ele><time>2026-03-22T12:44:32Z</time></trkpt><trkpt lat="41.20552792725572" lon="15.047574562830514"><ele>468.0</ele><time>2026-03-22T12:44:33Z</time></trkpt><trkpt lat="41.2055125950657" lon="15.047452115663269"><ele>466.0</ele><time>2026-03-22T12:44:34Z</time></trkpt><trkpt lat="41.20548271299558" lon="15.04737354346446"><ele>464.0</ele><time>2026-03-22T12:44:35Z</time></trkpt><trkpt lat="41.20540548929078" lon="15.04726905021277"><ele>462.0</ele><time>2026-03-22T12:44:36Z</time></trkpt><trkpt lat="41.205323747222955" lon="15.047179705544774"><ele>460.0</ele><time>2026-03-22T12:44:37Z</time></trkpt><trkpt lat="41.205242684445864" lon="15.047122342888093"><ele>460.0</ele><time>2026-03-22T12:44:38Z</time></trkpt><trkpt lat="41.2051622918987" lon="15.047084338623522"><ele>460.0</ele><time>2026-03-22T12:44:39Z</time></trkpt><trkpt lat="41.205064478135654" lon="15.047098060698907"><ele>460.0</ele><time>2026-03-22T12:44:40Z</time></trkpt><trkpt lat="41.20494112084074" lon="15.047116686789801"><ele>460.0</ele><time>2026-03-22T12:44:41Z</time></trkpt><trkpt lat="41.20479677210886" lon="15.047126015886542"><ele>460.0</ele><time>2026-03-22T12:44:42Z</time></trkpt><trkpt lat="41.20466648907152" lon="15.04712134257101"><ele>460.0</ele><time>2026-03-22T12:44:43Z</time></trkpt><trkpt lat="41.204562477804096" lon="15.047118305293905"><ele>460.0</ele><time>2026-03-22T12:44:44Z</time></trkpt><trkpt lat="41.20447126293842" lon="15.047095636796833"><ele>460.0</ele><time>2026-03-22T12:44:45Z</time></trkpt><trkpt lat="41.204357547904436" lon="15.047105171449351"><ele>460.0</ele><time>2026-03-22T12:44:46Z</time></trkpt><trkpt lat="41.204242439561" lon="15.047107151031295"><ele>460.00000000000006</ele><time>2026-03-22T12:44:47Z</time></trkpt><trkpt lat="41.20415357557691" lon="15.047084369017313"><ele>460.0</ele><time>2026-03-22T12:44:48Z</time></trkpt><trkpt lat="41.20407103462873" lon="15.0470384468082"><ele>460.0</ele><time>2026-03-22T12:44:49Z</time></trkpt><trkpt lat="41.20399200144068" lon="15.046986179090148"><ele>460.0</ele><time>2026-03-22T12:44:50Z</time></trkpt><trkpt lat="41.20391941612469" lon="15.04694234797087"><ele>460.00000000000006</ele><time>2026-03-22T12:44:51Z</time></trkpt><trkpt lat="41.20385306504722" lon="15.046896693147145"><ele>460.0</ele><time>2026-03-22T12:44:52Z</time></trkpt><trkpt lat="41.203769687601664" lon="15.04685331386406"><ele>460.0</ele><time>2026-03-22T12:44:53Z</time></trkpt><trkpt lat="41.20366726682133" lon="15.046822835593378"><ele>460.0</ele><time>2026-03-22T12:44:54Z</time></trkpt><trkpt lat="41.20355986008694" lon="15.04678010403419"><ele>460.0</ele><time>2026-03-22T12:44:55Z</time></trkpt><trkpt lat="41.20346646154868" lon="15.046716108256366"><ele>460.0</ele><time>2026-03-22T12:44:56Z</time></trkpt><trkpt lat="41.20336359257776" lon="15.046642653778306"><ele>460.0</ele><time>2026-03-22T12:44:57Z</time></trkpt><trkpt lat="41.20327290398172" lon="15.046577930246455"><ele>460.0</ele><time>2026-03-22T12:44:58Z</time></trkpt><trkpt lat="41.203178351578934" lon="15.046523508995275"><ele>460.0</ele><time>2026-03-22T12:44:59Z</time></trkpt><trkpt lat="41.20309531687614" lon="15.046482367396381"><ele>460.0</ele><time>2026-03-22T12:45:00Z</time></trkpt><trkpt lat="41.20300965282749" lon="15.046445563367577"><ele>460.0</ele><time>2026-03-22T12:45:01Z</time></trkpt><trkpt lat="41.20292458464381" lon="15.046402275564153"><ele>460.0</ele><time>2026-03-22T12:45:02Z</time></trkpt><trkpt lat="41.2028152631855" lon="15.046376508863462"><ele>462.2</ele><time>2026-03-22T12:45:03Z</time></trkpt><trkpt lat="41.20274427628789" lon="15.046277927466566"><ele>464.4</ele><time>2026-03-22T12:45:04Z</time></trkpt><trkpt lat="41.2026824259687" lon="15.046194143354388"><ele>466.6</ele><time>2026-03-22T12:45:05Z</time></trkpt><trkpt lat="41.202626524115914" lon="15.04608900395777"><ele>468.8</ele><time>2026-03-22T12:45:06Z</time></trkpt><trkpt lat="41.20257443114368" lon="15.045950461826921"><ele>471.0</ele><time>2026-03-22T12:45:07Z</time></trkpt><trkpt lat="41.20255385699947" lon="15.045812560549075"><ele>473.5</ele><time>2026-03-22T12:45:08Z</time></trkpt><trkpt lat="41.20256946828859" lon="15.045690140180357"><ele>476.0</ele><time>2026-03-22T12:45:09Z</time></trkpt><trkpt lat="41.20257311313524" lon="15.045570719743028"><ele>478.5</ele><time>2026-03-22T12:45:10Z</time></trkpt><trkpt lat="41.20254956133569" lon="15.045454715139384"><ele>481.0</ele><time>2026-03-22T12:45:11Z</time></trkpt><trkpt lat="41.2026001524585" lon="15.045357368149642"><ele>483.5</ele><time>2026-03-22T12:45:13Z</time></trkpt><trkpt lat="41.20268433916168" lon="15.045356531705258"><ele>486.0</ele><time>2026-03-22T12:45:14Z</time></trkpt><trkpt lat="41.20277310627598" lon="15.045336972487922"><ele>486.0</ele><time>2026-03-22T12:45:15Z</time></trkpt><trkpt lat="41.20285916208632" lon="15.045274600006282"><ele>486.0</ele><time>2026-03-22T12:45:16Z</time></trkpt><trkpt lat="41.20291972791592" lon="15.045203199548405"><ele>486.0</ele><time>2026-03-22T12:45:17Z</time></trkpt><trkpt lat="41.20293659821947" lon="15.045065443405806"><ele>486.0</ele><time>2026-03-22T12:45:19Z</time></trkpt><trkpt lat="41.20290854925795" lon="15.044983961401396"><ele>486.0</ele><time>2026-03-22T12:45:20Z</time></trkpt><trkpt lat="41.20291221763721" lon="15.044879771314339"><ele>486.0</ele><time>2026-03-22T12:45:21Z</time></trkpt><trkpt lat="41.20291943266594" lon="15.044751311514986"><ele>490.20000000000005</ele><time>2026-03-22T12:45:22Z</time></trkpt><trkpt lat="41.20294054861216" lon="15.044611613354812"><ele>494.40000000000003</ele><time>2026-03-22T12:45:23Z</time></trkpt><trkpt lat="41.20297434367088" lon="15.044467001432322"><ele>498.6</ele><time>2026-03-22T12:45:24Z</time></trkpt><trkpt lat="41.20302240017269" lon="15.04431087596434"><ele>502.8</ele><time>2026-03-22T12:45:25Z</time></trkpt><trkpt lat="41.20304725417012" lon="15.04423078661451"><ele>507.0</ele><time>2026-03-22T12:45:26Z</time></trkpt><trkpt lat="41.2029820560247" lon="15.044092790829069"><ele>510.8</ele><time>2026-03-22T12:45:28Z</time></trkpt><trkpt lat="41.20295197494526" lon="15.043995533944829"><ele>514.6</ele><time>2026-03-22T12:45:29Z</time></trkpt><trkpt lat="41.20293769669543" lon="15.043876941896347"><ele>518.4000000000001</ele><time>2026-03-22T12:45:30Z</time></trkpt><trkpt lat="41.20290888781419" lon="15.043725492076275"><ele>522.2</ele><time>2026-03-22T12:45:31Z</time></trkpt><trkpt lat="41.20287421563459" lon="15.043576379733578"><ele>526.0</ele><time>2026-03-22T12:45:32Z</time></trkpt><trkpt lat="41.20281612591155" lon="15.043444467354627"><ele>526.0</ele><time>2026-03-22T12:45:33Z</time></trkpt><trkpt lat="41.20273980933153" lon="15.043300523853699"><ele>526.0</ele><time>2026-03-22T12:45:34Z</time></trkpt><trkpt lat="41.20268865209229" lon="15.043179088560112"><ele>526.0</ele><time>2026-03-22T12:45:35Z</time></trkpt><trkpt lat="41.202676998679124" lon="15.043085071654497"><ele>526.0</ele><time>2026-03-22T12:45:37Z</time></trkpt><trkpt lat="41.202773047678924" lon="15.043173503583219"><ele>526.0</ele><time>2026-03-22T12:45:39Z</time></trkpt><trkpt lat="41.202820491170485" lon="15.043229897317564"><ele>529.0</ele><time>2026-03-22T12:45:40Z</time></trkpt><trkpt lat="41.202884331648825" lon="15.043291723483108"><ele>532.0</ele><time>2026-03-22T12:45:43Z</time></trkpt><trkpt lat="41.20301955702246" lon="15.04322450593936"><ele>535.0</ele><time>2026-03-22T12:45:45Z</time></trkpt><trkpt lat="41.20308116259911" lon="15.043138135096063"><ele>538.0</ele><time>2026-03-22T12:45:46Z</time></trkpt><trkpt lat="41.20312170822656" lon="15.042908840497365"><ele>537.1999999999999</ele><time>2026-03-22T12:45:47Z</time></trkpt><trkpt lat="41.203171556933455" lon="15.042756127358146"><ele>536.4</ele><time>2026-03-22T12:45:48Z</time></trkpt><trkpt lat="41.203219851544986" lon="15.042628442502647"><ele>535.5999999999999</ele><time>2026-03-22T12:45:49Z</time></trkpt><trkpt lat="41.203246223106085" lon="15.042522623945906"><ele>534.8</ele><time>2026-03-22T12:45:50Z</time></trkpt><trkpt lat="41.20327774407084" lon="15.042407613165869"><ele>534.0</ele><time>2026-03-22T12:45:51Z</time></trkpt><trkpt lat="41.20332700022864" lon="15.042311105859874"><ele>534.0</ele><time>2026-03-22T12:45:52Z</time></trkpt><trkpt lat="41.203393951294075" lon="15.042218857140268"><ele>534.0</ele><time>2026-03-22T12:45:53Z</time></trkpt><trkpt lat="41.20345903902794" lon="15.042130466806391"><ele>534.0</ele><time>2026-03-22T12:45:54Z</time></trkpt><trkpt lat="41.20354400782232" lon="15.04212321363385"><ele>534.0</ele><time>2026-03-22T12:45:55Z</time></trkpt><trkpt lat="41.20361611948807" lon="15.042119565413946"><ele>534.0</ele><time>2026-03-22T12:45:56Z</time></trkpt><trkpt lat="41.20372012335078" lon="15.042076290642079"><ele>534.0</ele><time>2026-03-22T12:45:58Z</time></trkpt><trkpt lat="41.20379079472507" lon="15.04208797574768"><ele>534.0</ele><time>2026-03-22T12:45:59Z</time></trkpt><trkpt lat="41.20387299513905" lon="15.042079958139619"><ele>534.0</ele><time>2026-03-22T12:46:00Z</time></trkpt><trkpt lat="41.20394022331914" lon="15.042124420826143"><ele>534.0</ele><time>2026-03-22T12:46:01Z</time></trkpt><trkpt lat="41.20414696783063" lon="15.042083844251366"><ele>534.0</ele><time>2026-03-22T12:46:03Z</time></trkpt><trkpt lat="41.20421003775707" lon="15.042057764773404"><ele>533.6</ele><time>2026-03-22T12:46:04Z</time></trkpt><trkpt lat="41.20431094507425" lon="15.041998829604486"><ele>533.2</ele><time>2026-03-22T12:46:06Z</time></trkpt><trkpt lat="41.20440645783712" lon="15.042017716197117"><ele>532.8000000000001</ele><time>2026-03-22T12:46:08Z</time></trkpt><trkpt lat="41.204386748452634" lon="15.041926808249451"><ele>532.4</ele><time>2026-03-22T12:46:10Z</time></trkpt><trkpt lat="41.20433631682844" lon="15.041850227267014"><ele>532.0</ele><time>2026-03-22T12:46:11Z</time></trkpt><trkpt lat="41.20448889403992" lon="15.041861139717792"><ele>532.0</ele><time>2026-03-22T12:46:14Z</time></trkpt><trkpt lat="41.204567232679196" lon="15.041879973268625"><ele>532.0</ele><time>2026-03-22T12:46:15Z</time></trkpt><trkpt lat="41.2046603230353" lon="15.04190593226514"><ele>532.0</ele><time>2026-03-22T12:46:16Z</time></trkpt><trkpt lat="41.20473160689368" lon="15.0419187050693"><ele>532.0</ele><time>2026-03-22T12:46:17Z</time></trkpt><trkpt lat="41.20479882233705" lon="15.041987968524493"><ele>532.0</ele><time>2026-03-22T12:46:18Z</time></trkpt><trkpt lat="41.2048985603771" lon="15.04205771966325"><ele>532.0</ele><time>2026-03-22T12:46:19Z</time></trkpt><trkpt lat="41.20500622160719" lon="15.04211028768603"><ele>532.0</ele><time>2026-03-22T12:46:20Z</time></trkpt><trkpt lat="41.20512932100705" lon="15.042186936830996"><ele>532.0</ele><time>2026-03-22T12:46:21Z</time></trkpt><trkpt lat="41.20523351137649" lon="15.04225035219859"><ele>532.0</ele><time>2026-03-22T12:46:22Z</time></trkpt><trkpt lat="41.20533358005393" lon="15.042307723795101"><ele>532.0</ele><time>2026-03-22T12:46:23Z</time></trkpt><trkpt lat="41.20546200191692" lon="15.042418361175233"><ele>529.4</ele><time>2026-03-22T12:46:24Z</time></trkpt><trkpt lat="41.20559485554317" lon="15.042537308299485"><ele>526.8000000000001</ele><time>2026-03-22T12:46:25Z</time></trkpt><trkpt lat="41.205679682310766" lon="15.042625452401106"><ele>524.2</ele><time>2026-03-22T12:46:26Z</time></trkpt><trkpt lat="41.20573078426094" lon="15.04268443585084"><ele>521.6</ele><time>2026-03-22T12:46:27Z</time></trkpt><trkpt lat="41.20578805265366" lon="15.042774675860171"><ele>519.0</ele><time>2026-03-22T12:46:28Z</time></trkpt><trkpt lat="41.2058399303938" lon="15.042893802495257"><ele>519.0</ele><time>2026-03-22T12:46:29Z</time></trkpt><trkpt lat="41.20590668354761" lon="15.043017275609502"><ele>519.0</ele><time>2026-03-22T12:46:30Z</time></trkpt><trkpt lat="41.205986399002846" lon="15.04312354592269"><ele>519.0</ele><time>2026-03-22T12:46:31Z</time></trkpt><trkpt lat="41.206060141737076" lon="15.043238909895944"><ele>519.0</ele><time>2026-03-22T12:46:32Z</time></trkpt><trkpt lat="41.20612682329182" lon="15.043352367510998"><ele>519.0</ele><time>2026-03-22T12:46:33Z</time></trkpt><trkpt lat="41.20618372968831" lon="15.043447967910755"><ele>515.8333333333334</ele><time>2026-03-22T12:46:34Z</time></trkpt><trkpt lat="41.20624127409977" lon="15.043535338016456"><ele>512.6666666666666</ele><time>2026-03-22T12:46:35Z</time></trkpt><trkpt lat="41.20630295903464" lon="15.043591731210473"><ele>509.5</ele><time>2026-03-22T12:46:36Z</time></trkpt><trkpt lat="41.206386977302806" lon="15.043634515944381"><ele>506.3333333333333</ele><time>2026-03-22T12:46:37Z</time></trkpt><trkpt lat="41.206476819318056" lon="15.04366808167562"><ele>503.16666666666663</ele><time>2026-03-22T12:46:38Z</time></trkpt><trkpt lat="41.206562730532255" lon="15.043721537833392"><ele>500.0</ele><time>2026-03-22T12:46:39Z</time></trkpt><trkpt lat="41.20662748127773" lon="15.043800114796632"><ele>500.0</ele><time>2026-03-22T12:46:40Z</time></trkpt><trkpt lat="41.206684743653476" lon="15.043886684168545"><ele>500.0</ele><time>2026-03-22T12:46:41Z</time></trkpt><trkpt lat="41.206744576857574" lon="15.043981078647668"><ele>500.0</ele><time>2026-03-22T12:46:42Z</time></trkpt><trkpt lat="41.206805236150906" lon="15.044053194292273"><ele>500.0</ele><time>2026-03-22T12:46:43Z</time></trkpt><trkpt lat="41.20689024107171" lon="15.044076062808045"><ele>500.0</ele><time>2026-03-22T12:46:44Z</time></trkpt><trkpt lat="41.20701886337065" lon="15.04412165681393"><ele>492.0</ele><time>2026-03-22T12:46:45Z</time></trkpt><trkpt lat="41.20720989606375" lon="15.044163850290246"><ele>484.0</ele><time>2026-03-22T12:46:46Z</time></trkpt><trkpt lat="41.20734298483226" lon="15.04420929393898"><ele>476.0</ele><time>2026-03-22T12:46:47Z</time></trkpt><trkpt lat="41.207461670465136" lon="15.044227570770877"><ele>476.0</ele><time>2026-03-22T12:46:48Z</time></trkpt><trkpt lat="41.20757880335284" lon="15.04423354779149"><ele>476.0</ele><time>2026-03-22T12:46:49Z</time></trkpt><trkpt lat="41.20769342756341" lon="15.044241298889224"><ele>476.0</ele><time>2026-03-22T12:46:50Z</time></trkpt><trkpt lat="41.207775964002124" lon="15.04427987802524"><ele>476.0</ele><time>2026-03-22T12:46:51Z</time></trkpt><trkpt lat="41.207856264840004" lon="15.04434747085671"><ele>476.0</ele><time>2026-03-22T12:46:52Z</time></trkpt><trkpt lat="41.20795195515519" lon="15.04444608772143"><ele>476.0</ele><time>2026-03-22T12:46:53Z</time></trkpt><trkpt lat="41.20804635840897" lon="15.044526356001185"><ele>476.0</ele><time>2026-03-22T12:46:54Z</time></trkpt><trkpt lat="41.208152190927024" lon="15.044567492281347"><ele>476.0</ele><time>2026-03-22T12:46:55Z</time></trkpt><trkpt lat="41.20826548376058" lon="15.044617399441352"><ele>476.0</ele><time>2026-03-22T12:46:56Z</time></trkpt><trkpt lat="41.20838071071451" lon="15.044678847348132"><ele>474.3333333333333</ele><time>2026-03-22T12:46:57Z</time></trkpt><trkpt lat="41.20851541190809" lon="15.0447450589289"><ele>472.66666666666663</ele><time>2026-03-22T12:46:58Z</time></trkpt><trkpt lat="41.208664177699276" lon="15.044829469102508"><ele>471.0</ele><time>2026-03-22T12:46:59Z</time></trkpt><trkpt lat="41.208793763915004" lon="15.044913804032845"><ele>465.5</ele><time>2026-03-22T12:47:00Z</time></trkpt><trkpt lat="41.20888915055207" lon="15.044974067190074"><ele>460.0</ele><time>2026-03-22T12:47:01Z</time></trkpt><trkpt lat="41.208972956785715" lon="15.045046484944613"><ele>454.5</ele><time>2026-03-22T12:47:02Z</time></trkpt><trkpt lat="41.209083575235155" lon="15.045121746208665"><ele>449.0</ele><time>2026-03-22T12:47:03Z</time></trkpt><trkpt lat="41.2092106422718" lon="15.045183726048704"><ele>448.5</ele><time>2026-03-22T12:47:04Z</time></trkpt><trkpt lat="41.20933210999363" lon="15.045227460560971"><ele>448.0</ele><time>2026-03-22T12:47:05Z</time></trkpt><trkpt lat="41.209449116819286" lon="15.045260575316647"><ele>447.5</ele><time>2026-03-22T12:47:06Z</time></trkpt><trkpt lat="41.20955906852443" lon="15.04529977494915"><ele>447.0</ele><time>2026-03-22T12:47:07Z</time></trkpt><trkpt lat="41.20965833132434" lon="15.045339942447445"><ele>447.0</ele><time>2026-03-22T12:47:08Z</time></trkpt><trkpt lat="41.20974179024464" lon="15.045373225443235"><ele>447.0</ele><time>2026-03-22T12:47:09Z</time></trkpt><trkpt lat="41.20983167901513" lon="15.045388549503885"><ele>447.0</ele><time>2026-03-22T12:47:10Z</time></trkpt><trkpt lat="41.20990494082765" lon="15.045394940027794"><ele>447.0</ele><time>2026-03-22T12:47:11Z</time></trkpt><trkpt lat="41.20997621500159" lon="15.045464753159743"><ele>447.0</ele><time>2026-03-22T12:47:14Z</time></trkpt><trkpt lat="41.20990475357289" lon="15.045383401393911"><ele>447.0</ele><time>2026-03-22T12:47:22Z</time></trkpt><trkpt lat="41.209837623501194" lon="15.045318137264665"><ele>447.0</ele><time>2026-03-22T12:47:25Z</time></trkpt><trkpt lat="41.20980263899346" lon="15.045194221263323"><ele>447.0</ele><time>2026-03-22T12:47:27Z</time></trkpt><trkpt lat="41.209684531675784" lon="15.045022389893544"><ele>447.0</ele><time>2026-03-22T12:47:28Z</time></trkpt><trkpt lat="41.20966424396672" lon="15.044914348130833"><ele>447.0</ele><time>2026-03-22T12:47:29Z</time></trkpt><trkpt lat="41.209629708168" lon="15.044786130584663"><ele>450.40000000000003</ele><time>2026-03-22T12:47:30Z</time></trkpt><trkpt lat="41.20959004601197" lon="15.044672740892805"><ele>453.80000000000007</ele><time>2026-03-22T12:47:31Z</time></trkpt><trkpt lat="41.20955809813053" lon="15.044536046713716"><ele>457.2</ele><time>2026-03-22T12:47:32Z</time></trkpt><trkpt lat="41.20952694988044" lon="15.044384936415716"><ele>460.6</ele><time>2026-03-22T12:47:33Z</time></trkpt><trkpt lat="41.20950274678347" lon="15.044246358245804"><ele>464.0</ele><time>2026-03-22T12:47:34Z</time></trkpt><trkpt lat="41.20946216223531" lon="15.044097116259241"><ele>468.0</ele><time>2026-03-22T12:47:35Z</time></trkpt><trkpt lat="41.20942189480893" lon="15.043940848783311"><ele>472.0</ele><time>2026-03-22T12:47:36Z</time></trkpt><trkpt lat="41.20937506007943" lon="15.043786450687504"><ele>476.0</ele><time>2026-03-22T12:47:37Z</time></trkpt><trkpt lat="41.209336738742046" lon="15.043639373298046"><ele>480.0</ele><time>2026-03-22T12:47:38Z</time></trkpt><trkpt lat="41.209324824034226" lon="15.0434767343655"><ele>480.0</ele><time>2026-03-22T12:47:39Z</time></trkpt><trkpt lat="41.209334381587794" lon="15.043350746091045"><ele>480.0</ele><time>2026-03-22T12:47:40Z</time></trkpt><trkpt lat="41.209379013368704" lon="15.043262469008022"><ele>480.0</ele><time>2026-03-22T12:47:41Z</time></trkpt><trkpt lat="41.20945062662043" lon="15.04314651895273"><ele>480.0</ele><time>2026-03-22T12:47:42Z</time></trkpt><trkpt lat="41.2094772679238" lon="15.043022497456223"><ele>480.0</ele><time>2026-03-22T12:47:43Z</time></trkpt><trkpt lat="41.20946163757351" lon="15.042920344550332"><ele>484.5</ele><time>2026-03-22T12:47:44Z</time></trkpt><trkpt lat="41.20936955423552" lon="15.042771848659907"><ele>489.0</ele><time>2026-03-22T12:47:46Z</time></trkpt><trkpt lat="41.20928391215548" lon="15.04270668825065"><ele>493.5</ele><time>2026-03-22T12:47:47Z</time></trkpt><trkpt lat="41.20910943939982" lon="15.042689960206129"><ele>498.0</ele><time>2026-03-22T12:47:49Z</time></trkpt><trkpt lat="41.209013804795376" lon="15.042654214769842"><ele>500.59999999999997</ele><time>2026-03-22T12:47:50Z</time></trkpt><trkpt lat="41.20893466837529" lon="15.042551505992451"><ele>503.19999999999993</ele><time>2026-03-22T12:47:52Z</time></trkpt><trkpt lat="41.20890643318111" lon="15.042428063217976"><ele>505.8</ele><time>2026-03-22T12:47:53Z</time></trkpt><trkpt lat="41.208896370649335" lon="15.042290128782302"><ele>508.4</ele><time>2026-03-22T12:47:54Z</time></trkpt><trkpt lat="41.208894213253494" lon="15.042134437054067"><ele>511.0</ele><time>2026-03-22T12:47:55Z</time></trkpt><trkpt lat="41.208899619867005" lon="15.041960407903815"><ele>519.6666666666667</ele><time>2026-03-22T12:47:56Z</time></trkpt><trkpt lat="41.20890828673567" lon="15.04177403115949"><ele>528.3333333333334</ele><time>2026-03-22T12:47:57Z</time></trkpt><trkpt lat="41.20891398036333" lon="15.041566098298567"><ele>537.0</ele><time>2026-03-22T12:47:58Z</time></trkpt><trkpt lat="41.20891670694828" lon="15.041341789945776"><ele>538.5</ele><time>2026-03-22T12:47:59Z</time></trkpt><trkpt lat="41.208919255175246" lon="15.041132155297428"><ele>540.0</ele><time>2026-03-22T12:48:00Z</time></trkpt><trkpt lat="41.20892452893587" lon="15.040925001585766"><ele>541.5</ele><time>2026-03-22T12:48:01Z</time></trkpt><trkpt lat="41.2089240621601" lon="15.040756029452815"><ele>543.0</ele><time>2026-03-22T12:48:02Z</time></trkpt><trkpt lat="41.208908357642365" lon="15.040622966758804"><ele>543.0</ele><time>2026-03-22T12:48:03Z</time></trkpt><trkpt lat="41.20887789405102" lon="15.040485676761609"><ele>543.0</ele><time>2026-03-22T12:48:04Z</time></trkpt><trkpt lat="41.20885547526896" lon="15.040349857415146"><ele>543.0</ele><time>2026-03-22T12:48:05Z</time></trkpt><trkpt lat="41.208807126892985" lon="15.040270860175742"><ele>543.0</ele><time>2026-03-22T12:48:06Z</time></trkpt><trkpt lat="41.20877461790895" lon="15.040144978238803"><ele>543.0</ele><time>2026-03-22T12:48:08Z</time></trkpt><trkpt lat="41.20890380251942" lon="15.039985502642223"><ele>543.0</ele><time>2026-03-22T12:48:11Z</time></trkpt><trkpt lat="41.2089728474982" lon="15.040007348902261"><ele>543.0</ele><time>2026-03-22T12:48:12Z</time></trkpt><trkpt lat="41.209080193121856" lon="15.040027434804271"><ele>543.0</ele><time>2026-03-22T12:48:13Z</time></trkpt><trkpt lat="41.209196532545064" lon="15.040026281477395"><ele>543.0</ele><time>2026-03-22T12:48:14Z</time></trkpt><trkpt lat="41.209296974781246" lon="15.040019660022196"><ele>543.0</ele><time>2026-03-22T12:48:15Z</time></trkpt><trkpt lat="41.2093757890743" lon="15.040033819714411"><ele>539.5</ele><time>2026-03-22T12:48:16Z</time></trkpt><trkpt lat="41.20944869811762" lon="15.040054850997693"><ele>536.0</ele><time>2026-03-22T12:48:17Z</time></trkpt><trkpt lat="41.20952050716058" lon="15.040081994066831"><ele>532.5</ele><time>2026-03-22T12:48:18Z</time></trkpt><trkpt lat="41.20958743862608" lon="15.040093153128774"><ele>529.0</ele><time>2026-03-22T12:48:19Z</time></trkpt><trkpt lat="41.20968918570609" lon="15.040094061121115"><ele>525.5</ele><time>2026-03-22T12:48:21Z</time></trkpt><trkpt lat="41.20976228145192" lon="15.04004689680602"><ele>522.0</ele><time>2026-03-22T12:48:22Z</time></trkpt><trkpt lat="41.20986290885732" lon="15.039992736943075"><ele>516.2</ele><time>2026-03-22T12:48:23Z</time></trkpt><trkpt lat="41.20995545068235" lon="15.039907815825794"><ele>510.40000000000003</ele><time>2026-03-22T12:48:24Z</time></trkpt><trkpt lat="41.2100401082798" lon="15.039814745667034"><ele>504.59999999999997</ele><time>2026-03-22T12:48:25Z</time></trkpt><trkpt lat="41.210123573827765" lon="15.039727404377505"><ele>498.79999999999995</ele><time>2026-03-22T12:48:26Z</time></trkpt><trkpt lat="41.21020371338371" lon="15.039629418524036"><ele>493.0</ele><time>2026-03-22T12:48:27Z</time></trkpt><trkpt lat="41.210299235293824" lon="15.039565391303492"><ele>493.0</ele><time>2026-03-22T12:48:28Z</time></trkpt><trkpt lat="41.210375566357165" lon="15.03953145604876"><ele>492.99999999999994</ele><time>2026-03-22T12:48:29Z</time></trkpt><trkpt lat="41.21045428632644" lon="15.03955565282385"><ele>492.99999999999994</ele><time>2026-03-22T12:48:30Z</time></trkpt><trkpt lat="41.2105629538995" lon="15.039596782909287"><ele>493.0</ele><time>2026-03-22T12:48:31Z</time></trkpt><trkpt lat="41.21068365758414" lon="15.039622861942885"><ele>493.0</ele><time>2026-03-22T12:48:32Z</time></trkpt><trkpt lat="41.2108030771694" lon="15.039651933031358"><ele>487.5</ele><time>2026-03-22T12:48:33Z</time></trkpt><trkpt lat="41.210925045854516" lon="15.039718594871767"><ele>482.0</ele><time>2026-03-22T12:48:34Z</time></trkpt><trkpt lat="41.21104082742344" lon="15.03979363164571"><ele>476.5</ele><time>2026-03-22T12:48:35Z</time></trkpt><trkpt lat="41.21114356489021" lon="15.039856158704827"><ele>471.0</ele><time>2026-03-22T12:48:36Z</time></trkpt><trkpt lat="41.211252140124316" lon="15.039908719111395"><ele>471.0</ele><time>2026-03-22T12:48:37Z</time></trkpt><trkpt lat="41.21135679210653" lon="15.039964518728247"><ele>471.0</ele><time>2026-03-22T12:48:38Z</time></trkpt><trkpt lat="41.21146815252577" lon="15.040014855971064"><ele>471.0</ele><time>2026-03-22T12:48:39Z</time></trkpt><trkpt lat="41.21155555364287" lon="15.04006451795591"><ele>471.0</ele><time>2026-03-22T12:48:40Z</time></trkpt><trkpt lat="41.211624858899164" lon="15.040092182186836"><ele>471.0</ele><time>2026-03-22T12:48:41Z</time></trkpt><trkpt lat="41.21175496269878" lon="15.040030052553226"><ele>467.4</ele><time>2026-03-22T12:48:43Z</time></trkpt><trkpt lat="41.21182602273847" lon="15.03998771791734"><ele>463.8</ele><time>2026-03-22T12:48:44Z</time></trkpt><trkpt lat="41.21190914327458" lon="15.039937648844012"><ele>460.19999999999993</ele><time>2026-03-22T12:48:45Z</time></trkpt><trkpt lat="41.21198983139478" lon="15.03987546519465"><ele>456.59999999999997</ele><time>2026-03-22T12:48:46Z</time></trkpt><trkpt lat="41.212079420129875" lon="15.03981163584063"><ele>453.0</ele><time>2026-03-22T12:48:47Z</time></trkpt><trkpt lat="41.212169698594096" lon="15.039742325271018"><ele>453.0</ele><time>2026-03-22T12:48:48Z</time></trkpt><trkpt lat="41.212254445478365" lon="15.039668456510958"><ele>453.0</ele><time>2026-03-22T12:48:49Z</time></trkpt><trkpt lat="41.21232123292085" lon="15.03957458427454"><ele>453.0</ele><time>2026-03-22T12:48:50Z</time></trkpt><trkpt lat="41.21236776789985" lon="15.039487289693916"><ele>453.0</ele><time>2026-03-22T12:48:51Z</time></trkpt><trkpt lat="41.21239934706608" lon="15.039391596762684"><ele>453.0</ele><time>2026-03-22T12:48:52Z</time></trkpt><trkpt lat="41.21245683401686" lon="15.039327808871219"><ele>453.0</ele><time>2026-03-22T12:48:53Z</time></trkpt><trkpt lat="41.21254748478833" lon="15.039283017600367"><ele>448.8333333333333</ele><time>2026-03-22T12:48:54Z</time></trkpt><trkpt lat="41.21263704472641" lon="15.039240941881372"><ele>444.66666666666663</ele><time>2026-03-22T12:48:55Z</time></trkpt><trkpt lat="41.21269362071871" lon="15.039192746318296"><ele>440.5</ele><time>2026-03-22T12:48:56Z</time></trkpt><trkpt lat="41.212678929282816" lon="15.039051430448389"><ele>436.3333333333333</ele><time>2026-03-22T12:48:58Z</time></trkpt><trkpt lat="41.21266508046955" lon="15.038967203153353"><ele>432.16666666666663</ele><time>2026-03-22T12:48:59Z</time></trkpt><trkpt lat="41.212657581892095" lon="15.03884680307579"><ele>428.0</ele><time>2026-03-22T12:49:01Z</time></trkpt><trkpt lat="41.212773758272455" lon="15.03891356045717"><ele>428.0</ele><time>2026-03-22T12:49:03Z</time></trkpt><trkpt lat="41.212888040166504" lon="15.038966867424827"><ele>427.99999999999994</ele><time>2026-03-22T12:49:05Z</time></trkpt><trkpt lat="41.21295608794323" lon="15.039038621392356"><ele>427.99999999999994</ele><time>2026-03-22T12:49:06Z</time></trkpt><trkpt lat="41.2129991309571" lon="15.039163672995878"><ele>428.0</ele><time>2026-03-22T12:49:07Z</time></trkpt><trkpt lat="41.213033156243775" lon="15.039317657154262"><ele>428.0</ele><time>2026-03-22T12:49:08Z</time></trkpt><trkpt lat="41.21305569364621" lon="15.039435617854776"><ele>428.0</ele><time>2026-03-22T12:49:09Z</time></trkpt><trkpt lat="41.21307819760534" lon="15.039515708859973"><ele>427.99999999999994</ele><time>2026-03-22T12:49:10Z</time></trkpt><trkpt lat="41.21313489319405" lon="15.039563287920728"><ele>427.99999999999994</ele><time>2026-03-22T12:49:11Z</time></trkpt><trkpt lat="41.2132315211325" lon="15.039583732623232"><ele>428.0</ele><time>2026-03-22T12:49:12Z</time></trkpt><trkpt lat="41.21337181856381" lon="15.039611082885962"><ele>428.0</ele><time>2026-03-22T12:49:13Z</time></trkpt><trkpt lat="41.21351724323292" lon="15.03967175526134"><ele>421.25</ele><time>2026-03-22T12:49:14Z</time></trkpt><trkpt lat="41.21365179511687" lon="15.039744736423197"><ele>414.5</ele><time>2026-03-22T12:49:15Z</time></trkpt><trkpt lat="41.213740142210675" lon="15.039807897447494"><ele>407.75</ele><time>2026-03-22T12:49:16Z</time></trkpt><trkpt lat="41.21382977432492" lon="15.039827712370434"><ele>401.0</ele><time>2026-03-22T12:49:17Z</time></trkpt><trkpt lat="41.21394549942748" lon="15.039819349042858"><ele>398.8</ele><time>2026-03-22T12:49:18Z</time></trkpt><trkpt lat="41.2140601391502" lon="15.039797713743527"><ele>396.6</ele><time>2026-03-22T12:49:19Z</time></trkpt><trkpt lat="41.21415064296086" lon="15.039783821348188"><ele>394.4</ele><time>2026-03-22T12:49:20Z</time></trkpt><trkpt lat="41.214218547775616" lon="15.039746925694127"><ele>392.2</ele><time>2026-03-22T12:49:21Z</time></trkpt><trkpt lat="41.214297978875784" lon="15.039683657570151"><ele>390.0</ele><time>2026-03-22T12:49:22Z</time></trkpt><trkpt lat="41.21437855585728" lon="15.039586810126002"><ele>390.0</ele><time>2026-03-22T12:49:23Z</time></trkpt><trkpt lat="41.21445648468963" lon="15.039467358874273"><ele>390.0</ele><time>2026-03-22T12:49:24Z</time></trkpt><trkpt lat="41.214531883471395" lon="15.039349270463202"><ele>390.0</ele><time>2026-03-22T12:49:25Z</time></trkpt><trkpt lat="41.21461681594295" lon="15.039219665085993"><ele>390.0</ele><time>2026-03-22T12:49:26Z</time></trkpt><trkpt lat="41.214707038849525" lon="15.039091076161219"><ele>388.0</ele><time>2026-03-22T12:49:27Z</time></trkpt><trkpt lat="41.21479339266854" lon="15.038955239558936"><ele>386.0</ele><time>2026-03-22T12:49:28Z</time></trkpt><trkpt lat="41.2148732188119" lon="15.03881505636631"><ele>384.0</ele><time>2026-03-22T12:49:29Z</time></trkpt><trkpt lat="41.21494366926611" lon="15.038674906318889"><ele>382.0</ele><time>2026-03-22T12:49:30Z</time></trkpt><trkpt lat="41.21502001613386" lon="15.038554281222245"><ele>378.75</ele><time>2026-03-22T12:49:31Z</time></trkpt><trkpt lat="41.21511855449149" lon="15.038451380192107"><ele>375.5</ele><time>2026-03-22T12:49:32Z</time></trkpt><trkpt lat="41.215235485194604" lon="15.038343860966158"><ele>372.25</ele><time>2026-03-22T12:49:33Z</time></trkpt><trkpt lat="41.215353014563284" lon="15.038234341659495"><ele>369.0</ele><time>2026-03-22T12:49:34Z</time></trkpt><trkpt lat="41.21546883344494" lon="15.038137644078086"><ele>366.75</ele><time>2026-03-22T12:49:35Z</time></trkpt><trkpt lat="41.21559857754272" lon="15.038056765875078"><ele>364.5</ele><time>2026-03-22T12:49:36Z</time></trkpt><trkpt lat="41.215732799073926" lon="15.037992177188732"><ele>362.25</ele><time>2026-03-22T12:49:37Z</time></trkpt><trkpt lat="41.21585931123816" lon="15.03793747917976"><ele>360.0</ele><time>2026-03-22T12:49:38Z</time></trkpt><trkpt lat="41.21595979248148" lon="15.037900913786439"><ele>359.0</ele><time>2026-03-22T12:49:39Z</time></trkpt><trkpt lat="41.21604810547745" lon="15.037885701164079"><ele>358.0</ele><time>2026-03-22T12:49:40Z</time></trkpt><trkpt lat="41.216131186127605" lon="15.037882840062885"><ele>357.0</ele><time>2026-03-22T12:49:41Z</time></trkpt><trkpt lat="41.216208646552204" lon="15.037887721691428"><ele>356.0</ele><time>2026-03-22T12:49:42Z</time></trkpt><trkpt lat="41.21628880940492" lon="15.037894716643214"><ele>355.0</ele><time>2026-03-22T12:49:43Z</time></trkpt><trkpt lat="41.21637489910303" lon="15.037902616514327"><ele>354.0</ele><time>2026-03-22T12:49:44Z</time></trkpt><trkpt lat="41.216454067604595" lon="15.037919225925647"><ele>350.6666666666667</ele><time>2026-03-22T12:49:45Z</time></trkpt><trkpt lat="41.216535092322154" lon="15.037931543040488"><ele>347.3333333333333</ele><time>2026-03-22T12:49:46Z</time></trkpt><trkpt lat="41.21661115045626" lon="15.037933456943104"><ele>344.0</ele><time>2026-03-22T12:49:47Z</time></trkpt><trkpt lat="41.21668657024801" lon="15.03792969111864"><ele>340.66666666666663</ele><time>2026-03-22T12:49:48Z</time></trkpt><trkpt lat="41.21676482897013" lon="15.037929941546178"><ele>337.3333333333333</ele><time>2026-03-22T12:49:49Z</time></trkpt><trkpt lat="41.216839522468156" lon="15.037930446918772"><ele>334.0</ele><time>2026-03-22T12:49:50Z</time></trkpt><trkpt lat="41.21690330453956" lon="15.037942338385667"><ele>334.0</ele><time>2026-03-22T12:49:51Z</time></trkpt><trkpt lat="41.216962838093686" lon="15.037971357822324"><ele>334.0</ele><time>2026-03-22T12:49:52Z</time></trkpt><trkpt lat="41.217032069387514" lon="15.038004956786942"><ele>334.0</ele><time>2026-03-22T12:49:53Z</time></trkpt><trkpt lat="41.21711132913285" lon="15.03803046466396"><ele>334.0</ele><time>2026-03-22T12:49:54Z</time></trkpt><trkpt lat="41.217190726204855" lon="15.038053777846606"><ele>334.0</ele><time>2026-03-22T12:49:55Z</time></trkpt><trkpt lat="41.21726756218822" lon="15.038079921424968"><ele>334.0</ele><time>2026-03-22T12:49:56Z</time></trkpt><trkpt lat="41.21733719483527" lon="15.038103684330048"><ele>329.0</ele><time>2026-03-22T12:49:57Z</time></trkpt><trkpt lat="41.217456434695656" lon="15.038142392799676"><ele>324.0</ele><time>2026-03-22T12:49:59Z</time></trkpt><trkpt lat="41.21754760685641" lon="15.038179678583838"><ele>319.0</ele><time>2026-03-22T12:50:00Z</time></trkpt><trkpt lat="41.21766137430978" lon="15.038213645371354"><ele>314.0</ele><time>2026-03-22T12:50:01Z</time></trkpt><trkpt lat="41.217754841402225" lon="15.038233592339536"><ele>309.0</ele><time>2026-03-22T12:50:02Z</time></trkpt><trkpt lat="41.21782853890024" lon="15.038247603030657"><ele>309.0</ele><time>2026-03-22T12:50:03Z</time></trkpt><trkpt lat="41.21789779397904" lon="15.038198574262136"><ele>309.0</ele><time>2026-03-22T12:50:04Z</time></trkpt><trkpt lat="41.21797989460457" lon="15.038107101559387"><ele>309.0</ele><time>2026-03-22T12:50:05Z</time></trkpt><trkpt lat="41.21805817272785" lon="15.038031971459398"><ele>309.0</ele><time>2026-03-22T12:50:06Z</time></trkpt><trkpt lat="41.21813936664941" lon="15.038022301841185"><ele>309.0</ele><time>2026-03-22T12:50:07Z</time></trkpt><trkpt lat="41.21825879363364" lon="15.03801919631393"><ele>306.25</ele><time>2026-03-22T12:50:08Z</time></trkpt><trkpt lat="41.21837342254101" lon="15.037943036093175"><ele>303.5</ele><time>2026-03-22T12:50:09Z</time></trkpt><trkpt lat="41.21848876693098" lon="15.0378208298868"><ele>300.75</ele><time>2026-03-22T12:50:10Z</time></trkpt><trkpt lat="41.218632986403165" lon="15.037720761266833"><ele>298.0</ele><time>2026-03-22T12:50:11Z</time></trkpt><trkpt lat="41.218807866127094" lon="15.037650921182289"><ele>298.0</ele><time>2026-03-22T12:50:12Z</time></trkpt><trkpt lat="41.21895042971055" lon="15.037553981485775"><ele>298.0</ele><time>2026-03-22T12:50:13Z</time></trkpt><trkpt lat="41.21905663180018" lon="15.037465449494716"><ele>298.0</ele><time>2026-03-22T12:50:14Z</time></trkpt><trkpt lat="41.21916081542375" lon="15.037379723968224"><ele>298.0</ele><time>2026-03-22T12:50:15Z</time></trkpt><trkpt lat="41.21926003833472" lon="15.037328160128991"><ele>296.25</ele><time>2026-03-22T12:50:16Z</time></trkpt><trkpt lat="41.219363355436855" lon="15.037305886258071"><ele>294.5</ele><time>2026-03-22T12:50:17Z</time></trkpt><trkpt lat="41.21947159905547" lon="15.037267481853956"><ele>292.75</ele><time>2026-03-22T12:50:18Z</time></trkpt><trkpt lat="41.219581018332775" lon="15.037248477145038"><ele>291.0</ele><time>2026-03-22T12:50:19Z</time></trkpt><trkpt lat="41.21970213666473" lon="15.0372761003067"><ele>291.0</ele><time>2026-03-22T12:50:20Z</time></trkpt><trkpt lat="41.21980818236477" lon="15.037307656889665"><ele>291.0</ele><time>2026-03-22T12:50:21Z</time></trkpt><trkpt lat="41.21990960054962" lon="15.037322972878293"><ele>291.0</ele><time>2026-03-22T12:50:22Z</time></trkpt><trkpt lat="41.22003886309792" lon="15.037302491707706"><ele>291.0</ele><time>2026-03-22T12:50:23Z</time></trkpt><trkpt lat="41.22017394297914" lon="15.037266120152113"><ele>290.25</ele><time>2026-03-22T12:50:24Z</time></trkpt><trkpt lat="41.220283523709135" lon="15.037264463246048"><ele>289.5</ele><time>2026-03-22T12:50:25Z</time></trkpt><trkpt lat="41.22041331460957" lon="15.037318707431853"><ele>288.75</ele><time>2026-03-22T12:50:26Z</time></trkpt><trkpt lat="41.22053637595804" lon="15.037368380834426"><ele>288.0</ele><time>2026-03-22T12:50:27Z</time></trkpt><trkpt lat="41.22063094536889" lon="15.03736244777666"><ele>287.3333333333333</ele><time>2026-03-22T12:50:28Z</time></trkpt><trkpt lat="41.2207207472039" lon="15.037318802137916"><ele>286.6666666666667</ele><time>2026-03-22T12:50:29Z</time></trkpt><trkpt lat="41.22079527738306" lon="15.03728567377833"><ele>286.0</ele><time>2026-03-22T12:50:30Z</time></trkpt><trkpt lat="41.22087210315525" lon="15.037272256743014"><ele>285.33333333333337</ele><time>2026-03-22T12:50:31Z</time></trkpt><trkpt lat="41.22093657856612" lon="15.037245970931245"><ele>284.6666666666667</ele><time>2026-03-22T12:50:32Z</time></trkpt><trkpt lat="41.22097696342958" lon="15.037176437915498"><ele>284.0</ele><time>2026-03-22T12:50:34Z</time></trkpt><trkpt lat="41.2210697966545" lon="15.03710100308544"><ele>284.0</ele><time>2026-03-22T12:50:36Z</time></trkpt><trkpt lat="41.22113606308964" lon="15.03700087280491"><ele>284.0</ele><time>2026-03-22T12:50:38Z</time></trkpt><trkpt lat="41.22116074948589" lon="15.036805409811004"><ele>284.0</ele><time>2026-03-22T12:50:40Z</time></trkpt><trkpt lat="41.22116333090174" lon="15.036638766578703"><ele>284.0</ele><time>2026-03-22T12:50:41Z</time></trkpt><trkpt lat="41.22115342107679" lon="15.036440848686327"><ele>283.4</ele><time>2026-03-22T12:50:42Z</time></trkpt><trkpt lat="41.221140031445536" lon="15.036280334802333"><ele>282.79999999999995</ele><time>2026-03-22T12:50:43Z</time></trkpt><trkpt lat="41.22111727096884" lon="15.036181529949234"><ele>282.20000000000005</ele><time>2026-03-22T12:50:44Z</time></trkpt><trkpt lat="41.22106421472229" lon="15.036069136786777"><ele>281.6</ele><time>2026-03-22T12:50:45Z</time></trkpt><trkpt lat="41.22098307142231" lon="15.035927190738327"><ele>281.0</ele><time>2026-03-22T12:50:46Z</time></trkpt><trkpt lat="41.220866248875076" lon="15.035771154004378"><ele>281.0</ele><time>2026-03-22T12:50:47Z</time></trkpt><trkpt lat="41.2207364711805" lon="15.035590204354891"><ele>281.0</ele><time>2026-03-22T12:50:48Z</time></trkpt><trkpt lat="41.22062041009336" lon="15.035407254576626"><ele>281.0</ele><time>2026-03-22T12:50:49Z</time></trkpt><trkpt lat="41.22052102217173" lon="15.035215197817388"><ele>281.0</ele><time>2026-03-22T12:50:50Z</time></trkpt><trkpt lat="41.220448072103316" lon="15.035013718386352"><ele>281.0</ele><time>2026-03-22T12:50:51Z</time></trkpt><trkpt lat="41.22039703044123" lon="15.034808504286103"><ele>281.0</ele><time>2026-03-22T12:50:52Z</time></trkpt><trkpt lat="41.22035522805023" lon="15.03459406699963"><ele>280.25</ele><time>2026-03-22T12:50:53Z</time></trkpt><trkpt lat="41.22032229908484" lon="15.034404135128417"><ele>279.5</ele><time>2026-03-22T12:50:54Z</time></trkpt><trkpt lat="41.22027433116643" lon="15.034234875004627"><ele>278.75</ele><time>2026-03-22T12:50:55Z</time></trkpt><trkpt lat="41.22020229241577" lon="15.034083646398198"><ele>278.0</ele><time>2026-03-22T12:50:56Z</time></trkpt><trkpt lat="41.22009895441828" lon="15.03393313434597"><ele>278.25</ele><time>2026-03-22T12:50:57Z</time></trkpt><trkpt lat="41.21999674359675" lon="15.033817929440586"><ele>278.5</ele><time>2026-03-22T12:50:58Z</time></trkpt><trkpt lat="41.219896225155324" lon="15.033746113940522"><ele>278.75</ele><time>2026-03-22T12:50:59Z</time></trkpt><trkpt lat="41.21976602272187" lon="15.033671442817289"><ele>279.0</ele><time>2026-03-22T12:51:00Z</time></trkpt><trkpt lat="41.21966352448081" lon="15.033551074664414"><ele>279.0</ele><time>2026-03-22T12:51:01Z</time></trkpt><trkpt lat="41.219568183737" lon="15.033367224993865"><ele>279.0</ele><time>2026-03-22T12:51:02Z</time></trkpt><trkpt lat="41.21946846819612" lon="15.033147443671378"><ele>279.0</ele><time>2026-03-22T12:51:03Z</time></trkpt><trkpt lat="41.219376070658925" lon="15.032915754696054"><ele>278.0</ele><time>2026-03-22T12:51:04Z</time></trkpt><trkpt lat="41.21930055323064" lon="15.032708159491861"><ele>277.0</ele><time>2026-03-22T12:51:05Z</time></trkpt><trkpt lat="41.21920163746907" lon="15.032491350152938"><ele>276.0</ele><time>2026-03-22T12:51:06Z</time></trkpt><trkpt lat="41.219083007484" lon="15.03225510177833"><ele>276.25</ele><time>2026-03-22T12:51:07Z</time></trkpt><trkpt lat="41.21898513405398" lon="15.032066542808998"><ele>276.5</ele><time>2026-03-22T12:51:08Z</time></trkpt><trkpt lat="41.21890175766085" lon="15.03193289092254"><ele>276.75</ele><time>2026-03-22T12:51:09Z</time></trkpt><trkpt lat="41.218810283262215" lon="15.031838160186004"><ele>277.0</ele><time>2026-03-22T12:51:10Z</time></trkpt><trkpt lat="41.21868874406378" lon="15.031737274152178"><ele>276.0</ele><time>2026-03-22T12:51:11Z</time></trkpt><trkpt lat="41.21855567334572" lon="15.0316200782526"><ele>275.0</ele><time>2026-03-22T12:51:12Z</time></trkpt><trkpt lat="41.218435605551626" lon="15.03145798617566"><ele>274.0</ele><time>2026-03-22T12:51:13Z</time></trkpt><trkpt lat="41.218311975445744" lon="15.031259435757617"><ele>274.0</ele><time>2026-03-22T12:51:14Z</time></trkpt><trkpt lat="41.218189885295104" lon="15.031030064448647"><ele>274.0</ele><time>2026-03-22T12:51:15Z</time></trkpt><trkpt lat="41.218056577796794" lon="15.030772906447362"><ele>274.0</ele><time>2026-03-22T12:51:16Z</time></trkpt><trkpt lat="41.21793502772546" lon="15.030544997391889"><ele>273.66666666666663</ele><time>2026-03-22T12:51:17Z</time></trkpt><trkpt lat="41.21783061070633" lon="15.030335159920803"><ele>273.3333333333333</ele><time>2026-03-22T12:51:18Z</time></trkpt><trkpt lat="41.21773493825837" lon="15.030131220689205"><ele>273.0</ele><time>2026-03-22T12:51:19Z</time></trkpt><trkpt lat="41.21763487377364" lon="15.02993516128654"><ele>273.25</ele><time>2026-03-22T12:51:20Z</time></trkpt><trkpt lat="41.217536693218555" lon="15.029758525062023"><ele>273.5</ele><time>2026-03-22T12:51:21Z</time></trkpt><trkpt lat="41.217429726471636" lon="15.029613861811038"><ele>273.75</ele><time>2026-03-22T12:51:22Z</time></trkpt><trkpt lat="41.21734155921493" lon="15.029528209412291"><ele>274.0</ele><time>2026-03-22T12:51:23Z</time></trkpt><trkpt lat="41.217263662148575" lon="15.029583529828601"><ele>274.0</ele><time>2026-03-22T12:51:29Z</time></trkpt><trkpt lat="41.217207965062876" lon="15.02944676097201"><ele>274.0</ele><time>2026-03-22T12:51:33Z</time></trkpt><trkpt lat="41.217101126211915" lon="15.02938368480605"><ele>274.0</ele><time>2026-03-22T12:51:35Z</time></trkpt><trkpt lat="41.2170467355743" lon="15.029327734481514"><ele>274.0</ele><time>2026-03-22T12:51:36Z</time></trkpt><trkpt lat="41.217002365261585" lon="15.029248485797604"><ele>274.0</ele><time>2026-03-22T12:51:37Z</time></trkpt><trkpt lat="41.21698213703882" lon="15.029154991335"><ele>273.59999999999997</ele><time>2026-03-22T12:51:38Z</time></trkpt><trkpt lat="41.21695615447056" lon="15.029015540915598"><ele>273.2</ele><time>2026-03-22T12:51:39Z</time></trkpt><trkpt lat="41.21693636846774" lon="15.028895387247228"><ele>272.79999999999995</ele><time>2026-03-22T12:51:40Z</time></trkpt><trkpt lat="41.216887984631676" lon="15.028805676608862"><ele>272.4</ele><time>2026-03-22T12:51:41Z</time></trkpt><trkpt lat="41.21682333851075" lon="15.028695794466364"><ele>272.0</ele><time>2026-03-22T12:51:42Z</time></trkpt><trkpt lat="41.21674432250488" lon="15.028560472457206"><ele>272.0</ele><time>2026-03-22T12:51:43Z</time></trkpt><trkpt lat="41.21669886551694" lon="15.028470175136894"><ele>272.0</ele><time>2026-03-22T12:51:44Z</time></trkpt><trkpt lat="41.216672781775024" lon="15.028390474974522"><ele>272.0</ele><time>2026-03-22T12:51:45Z</time></trkpt><trkpt lat="41.21665997460556" lon="15.028253786549195"><ele>272.0</ele><time>2026-03-22T12:51:46Z</time></trkpt><trkpt lat="41.21663572951803" lon="15.028094421289186"><ele>272.0</ele><time>2026-03-22T12:51:47Z</time></trkpt><trkpt lat="41.21660552044529" lon="15.027989823757283"><ele>271.8</ele><time>2026-03-22T12:51:48Z</time></trkpt><trkpt lat="41.216605488004525" lon="15.027813299363222"><ele>271.6</ele><time>2026-03-22T12:51:50Z</time></trkpt><trkpt lat="41.216584355338945" lon="15.02769112872572"><ele>271.40000000000003</ele><time>2026-03-22T12:51:51Z</time></trkpt><trkpt lat="41.2165332433042" lon="15.027551477615855"><ele>271.2</ele><time>2026-03-22T12:51:52Z</time></trkpt><trkpt lat="41.21650212519356" lon="15.02743914978254"><ele>271.0</ele><time>2026-03-22T12:51:53Z</time></trkpt><trkpt lat="41.21646883142035" lon="15.027324435180935"><ele>271.0</ele><time>2026-03-22T12:51:55Z</time></trkpt><trkpt lat="41.21636913903755" lon="15.027263738053618"><ele>271.0</ele><time>2026-03-22T12:51:57Z</time></trkpt><trkpt lat="41.21626577415971" lon="15.027239470420877"><ele>271.0</ele><time>2026-03-22T12:51:58Z</time></trkpt><trkpt lat="41.21620017728108" lon="15.027203906661006"><ele>271.0</ele><time>2026-03-22T12:51:59Z</time></trkpt><trkpt lat="41.216150724676496" lon="15.0271197510709"><ele>271.0</ele><time>2026-03-22T12:52:00Z</time></trkpt><trkpt lat="41.21610578774071" lon="15.026994817974392"><ele>271.0</ele><time>2026-03-22T12:52:01Z</time></trkpt><trkpt lat="41.216033930016685" lon="15.026824361440577"><ele>271.0</ele><time>2026-03-22T12:52:02Z</time></trkpt><trkpt lat="41.215939813099055" lon="15.026634448628151"><ele>271.0</ele><time>2026-03-22T12:52:03Z</time></trkpt><trkpt lat="41.21582314417122" lon="15.02642289869257"><ele>270.3333333333333</ele><time>2026-03-22T12:52:04Z</time></trkpt><trkpt lat="41.215723051775356" lon="15.026236153495377"><ele>269.6666666666667</ele><time>2026-03-22T12:52:05Z</time></trkpt><trkpt lat="41.21562601764944" lon="15.026053666928227"><ele>269.0</ele><time>2026-03-22T12:52:06Z</time></trkpt><trkpt lat="41.21551862305451" lon="15.025869682024942"><ele>268.33333333333337</ele><time>2026-03-22T12:52:07Z</time></trkpt><trkpt lat="41.21541791978347" lon="15.025685635652968"><ele>267.6666666666667</ele><time>2026-03-22T12:52:08Z</time></trkpt><trkpt lat="41.21531495213127" lon="15.02551619146385"><ele>267.0</ele><time>2026-03-22T12:52:09Z</time></trkpt><trkpt lat="41.215223082697825" lon="15.02536070078271"><ele>267.0</ele><time>2026-03-22T12:52:10Z</time></trkpt><trkpt lat="41.215149785598506" lon="15.025219369649006"><ele>267.0</ele><time>2026-03-22T12:52:11Z</time></trkpt><trkpt lat="41.21509013157911" lon="15.025089041209315"><ele>267.0</ele><time>2026-03-22T12:52:12Z</time></trkpt><trkpt lat="41.215043962610196" lon="15.024924872552722"><ele>267.0</ele><time>2026-03-22T12:52:13Z</time></trkpt><trkpt lat="41.21498548601451" lon="15.024756057276939"><ele>266.75</ele><time>2026-03-22T12:52:14Z</time></trkpt><trkpt lat="41.214905601410095" lon="15.024603434560772"><ele>266.5</ele><time>2026-03-22T12:52:15Z</time></trkpt><trkpt lat="41.214820432179394" lon="15.024470409123662"><ele>266.25</ele><time>2026-03-22T12:52:16Z</time></trkpt><trkpt lat="41.21475180753043" lon="15.024366012617584"><ele>266.0</ele><time>2026-03-22T12:52:17Z</time></trkpt><trkpt lat="41.21469835730171" lon="15.024294622518175"><ele>266.40000000000003</ele><time>2026-03-22T12:52:18Z</time></trkpt><trkpt lat="41.214641078107" lon="15.024232902637813"><ele>266.8</ele><time>2026-03-22T12:52:19Z</time></trkpt><trkpt lat="41.21458202422721" lon="15.024184147963009"><ele>267.20000000000005</ele><time>2026-03-22T12:52:20Z</time></trkpt><trkpt lat="41.214513706657684" lon="15.024136761916447"><ele>267.6</ele><time>2026-03-22T12:52:21Z</time></trkpt><trkpt lat="41.21442081672529" lon="15.024066678028827"><ele>268.0</ele><time>2026-03-22T12:52:22Z</time></trkpt><trkpt lat="41.21431529633743" lon="15.023983624388336"><ele>268.0</ele><time>2026-03-22T12:52:23Z</time></trkpt><trkpt lat="41.21423731549199" lon="15.023929225238708"><ele>268.0</ele><time>2026-03-22T12:52:24Z</time></trkpt><trkpt lat="41.21415453107206" lon="15.023888592435332"><ele>268.0</ele><time>2026-03-22T12:52:26Z</time></trkpt><trkpt lat="41.21406509765754" lon="15.023920061516614"><ele>268.0</ele><time>2026-03-22T12:52:28Z</time></trkpt><trkpt lat="41.2140394206743" lon="15.02405128730773"><ele>268.0</ele><time>2026-03-22T12:52:30Z</time></trkpt><trkpt lat="41.21395282102727" lon="15.024044492112155"><ele>267.5</ele><time>2026-03-22T12:52:32Z</time></trkpt><trkpt lat="41.21388957365539" lon="15.023981200916715"><ele>267.0</ele><time>2026-03-22T12:52:33Z</time></trkpt><trkpt lat="41.213820568989654" lon="15.02390113536171"><ele>266.5</ele><time>2026-03-22T12:52:34Z</time></trkpt><trkpt lat="41.213730988268715" lon="15.023833360777637"><ele>266.0</ele><time>2026-03-22T12:52:36Z</time></trkpt><trkpt lat="41.21363183539881" lon="15.023853275551309"><ele>265.5</ele><time>2026-03-22T12:53:05Z</time></trkpt><trkpt lat="41.21358788237086" lon="15.023916753793733"><ele>265.0</ele><time>2026-03-22T12:53:06Z</time></trkpt><trkpt lat="41.21354621693548" lon="15.024035507138036"><ele>265.66666666666663</ele><time>2026-03-22T12:53:07Z</time></trkpt><trkpt lat="41.21349446625475" lon="15.024184092261656"><ele>266.3333333333333</ele><time>2026-03-22T12:53:08Z</time></trkpt><trkpt lat="41.213418193656906" lon="15.024378458446602"><ele>267.0</ele><time>2026-03-22T12:53:09Z</time></trkpt><trkpt lat="41.213302058712536" lon="15.024560320800356"><ele>267.0</ele><time>2026-03-22T12:53:10Z</time></trkpt><trkpt lat="41.213220701986494" lon="15.024772196937143"><ele>267.0</ele><time>2026-03-22T12:53:11Z</time></trkpt><trkpt lat="41.21314165858561" lon="15.024978048542453"><ele>267.0</ele><time>2026-03-22T12:53:12Z</time></trkpt><trkpt lat="41.213056201226095" lon="15.02520060392068"><ele>272.0</ele><time>2026-03-22T12:53:13Z</time></trkpt><trkpt lat="41.2129667483278" lon="15.025433564859883"><ele>277.0</ele><time>2026-03-22T12:53:14Z</time></trkpt><trkpt lat="41.21287974557324" lon="15.025660144794573"><ele>282.0</ele><time>2026-03-22T12:53:15Z</time></trkpt><trkpt lat="41.2128037488442" lon="15.025858062950793"><ele>284.2</ele><time>2026-03-22T12:53:16Z</time></trkpt><trkpt lat="41.212738046408354" lon="15.026029174518655"><ele>286.4</ele><time>2026-03-22T12:53:17Z</time></trkpt><trkpt lat="41.212685474406676" lon="15.026166089957902"><ele>288.6</ele><time>2026-03-22T12:53:18Z</time></trkpt><trkpt lat="41.212679359808824" lon="15.026278949733156"><ele>290.8</ele><time>2026-03-22T12:53:19Z</time></trkpt><trkpt lat="41.21264740265956" lon="15.026368335957823"><ele>293.0</ele><time>2026-03-22T12:53:20Z</time></trkpt><trkpt lat="41.21260430042402" lon="15.026465538892309"><ele>293.0</ele><time>2026-03-22T12:53:22Z</time></trkpt><trkpt lat="41.21250219550611" lon="15.026386435768883"><ele>293.0</ele><time>2026-03-22T12:53:24Z</time></trkpt><trkpt lat="41.21242039045779" lon="15.02632008360073"><ele>293.0</ele><time>2026-03-22T12:53:26Z</time></trkpt><trkpt lat="41.21238815479504" lon="15.026206584793842"><ele>293.0</ele><time>2026-03-22T12:53:28Z</time></trkpt><trkpt lat="41.21235038025766" lon="15.026081144998264"><ele>293.0</ele><time>2026-03-22T12:53:30Z</time></trkpt><trkpt lat="41.212283008555566" lon="15.026042746855989"><ele>295.0</ele><time>2026-03-22T12:53:33Z</time></trkpt><trkpt lat="41.212220634439916" lon="15.026076706246737"><ele>297.0</ele><time>2026-03-22T12:53:35Z</time></trkpt><trkpt lat="41.21221728159486" lon="15.026267855148086"><ele>299.0</ele><time>2026-03-22T12:53:37Z</time></trkpt><trkpt lat="41.21221034550118" lon="15.026411534439298"><ele>301.0</ele><time>2026-03-22T12:53:38Z</time></trkpt><trkpt lat="41.21218307136552" lon="15.02653087869191"><ele>303.0</ele><time>2026-03-22T12:53:39Z</time></trkpt><trkpt lat="41.212129596453345" lon="15.026658287226818"><ele>305.25</ele><time>2026-03-22T12:53:40Z</time></trkpt><trkpt lat="41.21204840541421" lon="15.026811904214272"><ele>307.5</ele><time>2026-03-22T12:53:41Z</time></trkpt><trkpt lat="41.211990457333336" lon="15.026956108788134"><ele>309.75</ele><time>2026-03-22T12:53:42Z</time></trkpt><trkpt lat="41.211943350842105" lon="15.02708134049788"><ele>312.0</ele><time>2026-03-22T12:53:43Z</time></trkpt><trkpt lat="41.21189792718655" lon="15.02720331303472"><ele>312.0</ele><time>2026-03-22T12:53:44Z</time></trkpt><trkpt lat="41.211819032821644" lon="15.027334040977"><ele>312.0</ele><time>2026-03-22T12:53:46Z</time></trkpt><trkpt lat="41.211704204783196" lon="15.027363590456764"><ele>312.0</ele><time>2026-03-22T12:53:48Z</time></trkpt><trkpt lat="41.21162574972017" lon="15.027393746820279"><ele>312.0</ele><time>2026-03-22T12:53:49Z</time></trkpt><trkpt lat="41.211533389774104" lon="15.027400976005895"><ele>312.0</ele><time>2026-03-22T12:53:50Z</time></trkpt><trkpt lat="41.211459511947346" lon="15.027423740778517"><ele>315.1666666666667</ele><time>2026-03-22T12:53:51Z</time></trkpt><trkpt lat="41.21136885614079" lon="15.02743255366245"><ele>318.3333333333333</ele><time>2026-03-22T12:53:52Z</time></trkpt><trkpt lat="41.21128774067288" lon="15.02744258017817"><ele>321.5</ele><time>2026-03-22T12:53:53Z</time></trkpt><trkpt lat="41.211213180820174" lon="15.027459963524526"><ele>324.66666666666663</ele><time>2026-03-22T12:53:55Z</time></trkpt><trkpt lat="41.211141294928446" lon="15.027439258198052"><ele>327.8333333333333</ele><time>2026-03-22T12:53:56Z</time></trkpt><trkpt lat="41.2110298899413" lon="15.02737810949454"><ele>331.0</ele><time>2026-03-22T12:53:57Z</time></trkpt><trkpt lat="41.210893627298816" lon="15.027300278063098"><ele>331.0</ele><time>2026-03-22T12:53:58Z</time></trkpt><trkpt lat="41.21078875087895" lon="15.027230716813156"><ele>331.0</ele><time>2026-03-22T12:53:59Z</time></trkpt><trkpt lat="41.2107231525915" lon="15.027181773988168"><ele>331.0</ele><time>2026-03-22T12:54:00Z</time></trkpt><trkpt lat="41.21066774343676" lon="15.02712945038157"><ele>331.0</ele><time>2026-03-22T12:54:12Z</time></trkpt><trkpt lat="41.21059789430936" lon="15.02716854842303"><ele>331.0</ele><time>2026-03-22T12:54:14Z</time></trkpt><trkpt lat="41.210536849629115" lon="15.027194057296594"><ele>331.0</ele><time>2026-03-22T12:54:15Z</time></trkpt><trkpt lat="41.210477920774196" lon="15.027239173288777"><ele>335.20000000000005</ele><time>2026-03-22T12:54:16Z</time></trkpt><trkpt lat="41.21040872232646" lon="15.027246199447013"><ele>339.40000000000003</ele><time>2026-03-22T12:54:19Z</time></trkpt><trkpt lat="41.21034281027404" lon="15.027136980633875"><ele>343.6</ele><time>2026-03-22T12:54:21Z</time></trkpt><trkpt lat="41.21027754066404" lon="15.027027720865537"><ele>347.8</ele><time>2026-03-22T12:54:23Z</time></trkpt><trkpt lat="41.210255341766555" lon="15.026927659379718"><ele>352.0</ele><time>2026-03-22T12:54:25Z</time></trkpt><trkpt lat="41.21027667799251" lon="15.026807675748222"><ele>352.0</ele><time>2026-03-22T12:54:27Z</time></trkpt><trkpt lat="41.210264952602856" lon="15.026674672362283"><ele>352.0</ele><time>2026-03-22T12:54:29Z</time></trkpt><trkpt lat="41.21021695263795" lon="15.02658825496809"><ele>352.0</ele><time>2026-03-22T12:54:32Z</time></trkpt><trkpt lat="41.21024298229168" lon="15.026498425784117"><ele>352.0</ele><time>2026-03-22T12:54:41Z</time></trkpt><trkpt lat="41.21018151078672" lon="15.026407111580335"><ele>352.0</ele><time>2026-03-22T12:54:44Z</time></trkpt><trkpt lat="41.21018795444952" lon="15.026321544193022"><ele>352.0</ele><time>2026-03-22T12:54:46Z</time></trkpt><trkpt lat="41.210213336609506" lon="15.026229805332335"><ele>348.40000000000003</ele><time>2026-03-22T12:54:48Z</time></trkpt><trkpt lat="41.210232002219975" lon="15.026078375781735"><ele>344.8</ele><time>2026-03-22T12:54:50Z</time></trkpt><trkpt lat="41.21015076553276" lon="15.02598052560608"><ele>341.2</ele><time>2026-03-22T12:54:52Z</time></trkpt><trkpt lat="41.21006393853581" lon="15.025949196714597"><ele>337.6</ele><time>2026-03-22T12:54:53Z</time></trkpt><trkpt lat="41.209973550644875" lon="15.025936783187216"><ele>334.0</ele><time>2026-03-22T12:54:54Z</time></trkpt><trkpt lat="41.209884304500896" lon="15.025918074093738"><ele>335.79999999999995</ele><time>2026-03-22T12:54:55Z</time></trkpt><trkpt lat="41.209809016508615" lon="15.025889866435659"><ele>337.59999999999997</ele><time>2026-03-22T12:54:56Z</time></trkpt><trkpt lat="41.20969243930251" lon="15.025839348217302"><ele>339.4</ele><time>2026-03-22T12:54:58Z</time></trkpt><trkpt lat="41.209594688750116" lon="15.025785458149711"><ele>341.2</ele><time>2026-03-22T12:55:00Z</time></trkpt><trkpt lat="41.209512858371" lon="15.025825018811602"><ele>343.0</ele><time>2026-03-22T12:55:16Z</time></trkpt><trkpt lat="41.20943093535242" lon="15.025973458186174"><ele>343.0</ele><time>2026-03-22T12:55:18Z</time></trkpt><trkpt lat="41.20938288631866" lon="15.026075669572919"><ele>343.0</ele><time>2026-03-22T12:55:19Z</time></trkpt><trkpt lat="41.20933185949448" lon="15.026195878096997"><ele>343.0</ele><time>2026-03-22T12:55:21Z</time></trkpt><trkpt lat="41.20931535831517" lon="15.0262843657595"><ele>343.0</ele><time>2026-03-22T12:55:22Z</time></trkpt><trkpt lat="41.209264117321894" lon="15.026382066747322"><ele>343.0</ele><time>2026-03-22T12:55:24Z</time></trkpt><trkpt lat="41.20922303504018" lon="15.026464797940728"><ele>343.0</ele><time>2026-03-22T12:55:47Z</time></trkpt><trkpt lat="41.20913426017529" lon="15.026450919539146"><ele>343.0</ele><time>2026-03-22T12:55:50Z</time></trkpt><trkpt lat="41.209183698833385" lon="15.026383689946488"><ele>343.0</ele><time>2026-03-22T12:59:52Z</time></trkpt><trkpt lat="41.209144232105714" lon="15.026259303747995"><ele>343.0</ele><time>2026-03-22T12:59:57Z</time></trkpt><trkpt lat="41.20911249774035" lon="15.02616571327566"><ele>343.0</ele><time>2026-03-22T12:59:58Z</time></trkpt><trkpt lat="41.20906483268405" lon="15.02606209245773"><ele>343.0</ele><time>2026-03-22T12:59:59Z</time></trkpt><trkpt lat="41.209011077443826" lon="15.025965706379049"><ele>343.0</ele><time>2026-03-22T13:00:00Z</time></trkpt><trkpt lat="41.208963441721345" lon="15.025903055003065"><ele>345.4</ele><time>2026-03-22T13:00:01Z</time></trkpt><trkpt lat="41.208955215010086" lon="15.025819147731866"><ele>347.79999999999995</ele><time>2026-03-22T13:00:04Z</time></trkpt><trkpt lat="41.209044185740694" lon="15.025741113663031"><ele>350.2</ele><time>2026-03-22T13:00:05Z</time></trkpt><trkpt lat="41.209114826832476" lon="15.02575397989818"><ele>352.6</ele><time>2026-03-22T13:00:06Z</time></trkpt><trkpt lat="41.20923636982681" lon="15.025744417084216"><ele>355.0</ele><time>2026-03-22T13:00:08Z</time></trkpt><trkpt lat="41.20935632657544" lon="15.025722995528962"><ele>349.0</ele><time>2026-03-22T13:00:10Z</time></trkpt><trkpt lat="41.20944777190705" lon="15.025693920382164"><ele>343.0</ele><time>2026-03-22T13:00:12Z</time></trkpt><trkpt lat="41.20955911948832" lon="15.025647258336656"><ele>337.0</ele><time>2026-03-22T13:00:14Z</time></trkpt><trkpt lat="41.20961255510749" lon="15.025583415699508"><ele>331.0</ele><time>2026-03-22T13:00:15Z</time></trkpt><trkpt lat="41.20966224363633" lon="15.025513550357857"><ele>325.0</ele><time>2026-03-22T13:00:16Z</time></trkpt><trkpt lat="41.209738131370806" lon="15.025426655680176"><ele>325.0</ele><time>2026-03-22T13:00:18Z</time></trkpt><trkpt lat="41.20980068361477" lon="15.02533161430871"><ele>325.0</ele><time>2026-03-22T13:00:20Z</time></trkpt><trkpt lat="41.2098790361828" lon="15.025203714104611"><ele>325.0</ele><time>2026-03-22T13:00:22Z</time></trkpt><trkpt lat="41.209963743228435" lon="15.025101684712874"><ele>325.0</ele><time>2026-03-22T13:00:24Z</time></trkpt><trkpt lat="41.210007766521755" lon="15.02503123832845"><ele>325.0</ele><time>2026-03-22T13:00:25Z</time></trkpt><trkpt lat="41.21006227021927" lon="15.02497531446214"><ele>324.2857142857143</ele><time>2026-03-22T13:00:26Z</time></trkpt><trkpt lat="41.210120900776054" lon="15.024915156530366"><ele>323.5714285714286</ele><time>2026-03-22T13:00:27Z</time></trkpt><trkpt lat="41.210180337847845" lon="15.024858375232933"><ele>322.8571428571429</ele><time>2026-03-22T13:00:28Z</time></trkpt><trkpt lat="41.2102421266199" lon="15.024814091400218"><ele>322.1428571428571</ele><time>2026-03-22T13:00:29Z</time></trkpt><trkpt lat="41.21031835596344" lon="15.024783107907027"><ele>321.42857142857144</ele><time>2026-03-22T13:00:30Z</time></trkpt><trkpt lat="41.21038368964481" lon="15.024791932444202"><ele>320.7142857142857</ele><time>2026-03-22T13:00:31Z</time></trkpt><trkpt lat="41.21044715110757" lon="15.024793492479201"><ele>320.0</ele><time>2026-03-22T13:00:32Z</time></trkpt><trkpt lat="41.2105084846836" lon="15.0248265801517"><ele>320.0</ele><time>2026-03-22T13:00:33Z</time></trkpt><trkpt lat="41.21058358631329" lon="15.024879411065982"><ele>320.0</ele><time>2026-03-22T13:00:34Z</time></trkpt><trkpt lat="41.210653607471535" lon="15.024970502045496"><ele>320.0</ele><time>2026-03-22T13:00:35Z</time></trkpt><trkpt lat="41.210712803611045" lon="15.025067794229418"><ele>320.0</ele><time>2026-03-22T13:00:36Z</time></trkpt><trkpt lat="41.21078374085692" lon="15.025156662702537"><ele>320.0</ele><time>2026-03-22T13:00:37Z</time></trkpt><trkpt lat="41.21086640876263" lon="15.025239710989828"><ele>318.0</ele><time>2026-03-22T13:00:38Z</time></trkpt><trkpt lat="41.210953187985496" lon="15.025306972500086"><ele>316.0</ele><time>2026-03-22T13:00:39Z</time></trkpt><trkpt lat="41.21103300742502" lon="15.025336240614916"><ele>314.0</ele><time>2026-03-22T13:00:40Z</time></trkpt><trkpt lat="41.21111593005163" lon="15.025347944206493"><ele>312.0</ele><time>2026-03-22T13:00:41Z</time></trkpt><trkpt lat="41.211209618181904" lon="15.025328375468098"><ele>310.0</ele><time>2026-03-22T13:00:42Z</time></trkpt><trkpt lat="41.211308008099216" lon="15.02530516969815"><ele>310.0</ele><time>2026-03-22T13:00:43Z</time></trkpt><trkpt lat="41.211407648676634" lon="15.025243405038513"><ele>310.0</ele><time>2026-03-22T13:00:44Z</time></trkpt><trkpt lat="41.21151850745691" lon="15.025217194649924"><ele>310.0</ele><time>2026-03-22T13:00:45Z</time></trkpt><trkpt lat="41.21160803451223" lon="15.02522536261232"><ele>310.0</ele><time>2026-03-22T13:00:46Z</time></trkpt><trkpt lat="41.21167459831417" lon="15.025354577495957"><ele>310.0</ele><time>2026-03-22T13:00:48Z</time></trkpt><trkpt lat="41.21173949986999" lon="15.025437698011853"><ele>306.8</ele><time>2026-03-22T13:00:49Z</time></trkpt><trkpt lat="41.211791040485835" lon="15.025557068231748"><ele>303.6</ele><time>2026-03-22T13:00:50Z</time></trkpt><trkpt lat="41.211850676346536" lon="15.025643986620404"><ele>300.4</ele><time>2026-03-22T13:00:51Z</time></trkpt><trkpt lat="41.21197318815989" lon="15.025592858132816"><ele>297.2</ele><time>2026-03-22T13:00:54Z</time></trkpt><trkpt lat="41.212013831546116" lon="15.02551074486543"><ele>294.0</ele><time>2026-03-22T13:00:55Z</time></trkpt><trkpt lat="41.21205924445398" lon="15.025428383840401"><ele>294.0</ele><time>2026-03-22T13:00:56Z</time></trkpt><trkpt lat="41.21210590044746" lon="15.0253306251234"><ele>294.0</ele><time>2026-03-22T13:00:57Z</time></trkpt><trkpt lat="41.2121448563733" lon="15.025208772854151"><ele>294.0</ele><time>2026-03-22T13:00:58Z</time></trkpt><trkpt lat="41.21217459246974" lon="15.025061957520856"><ele>294.0</ele><time>2026-03-22T13:00:59Z</time></trkpt><trkpt lat="41.21220965135653" lon="15.024907867139836"><ele>294.0</ele><time>2026-03-22T13:01:00Z</time></trkpt><trkpt lat="41.21224441260346" lon="15.024753610247531"><ele>291.8</ele><time>2026-03-22T13:01:01Z</time></trkpt><trkpt lat="41.21227501521959" lon="15.024618781696999"><ele>289.59999999999997</ele><time>2026-03-22T13:01:02Z</time></trkpt><trkpt lat="41.212300363717034" lon="15.024494191100018"><ele>287.4</ele><time>2026-03-22T13:01:03Z</time></trkpt><trkpt lat="41.21233237993796" lon="15.024369337655566"><ele>285.2</ele><time>2026-03-22T13:01:04Z</time></trkpt><trkpt lat="41.21239341296809" lon="15.024256799452083"><ele>283.0</ele><time>2026-03-22T13:01:05Z</time></trkpt><trkpt lat="41.21246824216056" lon="15.024164713567117"><ele>280.0</ele><time>2026-03-22T13:01:06Z</time></trkpt><trkpt lat="41.21254206742936" lon="15.024093896378428"><ele>277.0</ele><time>2026-03-22T13:01:07Z</time></trkpt><trkpt lat="41.21259884370964" lon="15.024038900574002"><ele>274.0</ele><time>2026-03-22T13:01:08Z</time></trkpt><trkpt lat="41.21264899605813" lon="15.023930419491066"><ele>271.0</ele><time>2026-03-22T13:01:10Z</time></trkpt><trkpt lat="41.212652558922194" lon="15.023823660297317"><ele>268.0</ele><time>2026-03-22T13:01:11Z</time></trkpt><trkpt lat="41.21264932909943" lon="15.023674936771629"><ele>265.0</ele><time>2026-03-22T13:01:12Z</time></trkpt><trkpt lat="41.21265507457639" lon="15.023523283331501"><ele>265.0</ele><time>2026-03-22T13:01:13Z</time></trkpt><trkpt lat="41.212663130683964" lon="15.023390071158532"><ele>265.0</ele><time>2026-03-22T13:01:14Z</time></trkpt><trkpt lat="41.21266170310585" lon="15.023278616907776"><ele>265.0</ele><time>2026-03-22T13:01:15Z</time></trkpt><trkpt lat="41.212641774579566" lon="15.023190771700644"><ele>265.0</ele><time>2026-03-22T13:01:16Z</time></trkpt><trkpt lat="41.21252866393911" lon="15.023041134855324"><ele>265.0</ele><time>2026-03-22T13:01:18Z</time></trkpt><trkpt lat="41.212409525484716" lon="15.023003290457162"><ele>264.3333333333333</ele><time>2026-03-22T13:01:19Z</time></trkpt><trkpt lat="41.21229150365475" lon="15.022947381359856"><ele>263.66666666666663</ele><time>2026-03-22T13:01:20Z</time></trkpt><trkpt lat="41.212195496348706" lon="15.02290107701154"><ele>263.0</ele><time>2026-03-22T13:01:21Z</time></trkpt><trkpt lat="41.212120037544196" lon="15.022864683221037"><ele>262.3333333333333</ele><time>2026-03-22T13:01:22Z</time></trkpt><trkpt lat="41.212056903650435" lon="15.02283423372558"><ele>261.6666666666667</ele><time>2026-03-22T13:01:23Z</time></trkpt><trkpt lat="41.21199510005582" lon="15.022804115726334"><ele>261.0</ele><time>2026-03-22T13:01:24Z</time></trkpt><trkpt lat="41.21188977305287" lon="15.022749596764367"><ele>261.0</ele><time>2026-03-22T13:01:26Z</time></trkpt><trkpt lat="41.21178973142184" lon="15.02267606278549"><ele>261.0</ele><time>2026-03-22T13:01:28Z</time></trkpt><trkpt lat="41.21172151616912" lon="15.022616299284605"><ele>261.0</ele><time>2026-03-22T13:01:29Z</time></trkpt><trkpt lat="41.21165080964272" lon="15.022563407632816"><ele>261.0</ele><time>2026-03-22T13:01:30Z</time></trkpt><trkpt lat="41.21158892177493" lon="15.02253059641337"><ele>261.0</ele><time>2026-03-22T13:01:31Z</time></trkpt><trkpt lat="41.21153695159881" lon="15.022477653363108"><ele>261.0</ele><time>2026-03-22T13:01:32Z</time></trkpt><trkpt lat="41.21149913795355" lon="15.022406754978093"><ele>261.14285714285717</ele><time>2026-03-22T13:01:33Z</time></trkpt><trkpt lat="41.21145811402448" lon="15.022329211212414"><ele>261.2857142857143</ele><time>2026-03-22T13:01:34Z</time></trkpt><trkpt lat="41.211420081495824" lon="15.022258864261193"><ele>261.42857142857144</ele><time>2026-03-22T13:01:35Z</time></trkpt><trkpt lat="41.21136583167084" lon="15.02219651320516"><ele>261.57142857142856</ele><time>2026-03-22T13:01:36Z</time></trkpt><trkpt lat="41.21131886625754" lon="15.022132244459483"><ele>261.7142857142857</ele><time>2026-03-22T13:01:37Z</time></trkpt><trkpt lat="41.21127951629486" lon="15.02206271987812"><ele>261.8571428571429</ele><time>2026-03-22T13:01:38Z</time></trkpt><trkpt lat="41.2112382801811" lon="15.021997667463161"><ele>262.0</ele><time>2026-03-22T13:01:39Z</time></trkpt><trkpt lat="41.211234815412126" lon="15.021908628443851"><ele>262.0</ele><time>2026-03-22T13:01:40Z</time></trkpt><trkpt lat="41.21124687420177" lon="15.021816859642469"><ele>262.0</ele><time>2026-03-22T13:01:41Z</time></trkpt><trkpt lat="41.21124059652796" lon="15.021655480080572"><ele>262.0</ele><time>2026-03-22T13:01:43Z</time></trkpt><trkpt lat="41.21120085782535" lon="15.021564559622542"><ele>262.0</ele><time>2026-03-22T13:01:44Z</time></trkpt><trkpt lat="41.21116079315091" lon="15.021462841831426"><ele>262.0</ele><time>2026-03-22T13:01:45Z</time></trkpt><trkpt lat="41.21113544406402" lon="15.0213470217605"><ele>262.0</ele><time>2026-03-22T13:01:46Z</time></trkpt><trkpt lat="41.2111105087226" lon="15.021235675787416"><ele>261.4</ele><time>2026-03-22T13:01:47Z</time></trkpt><trkpt lat="41.21107078380188" lon="15.021154522169429"><ele>260.79999999999995</ele><time>2026-03-22T13:01:48Z</time></trkpt><trkpt lat="41.2110238426397" lon="15.021028920957772"><ele>260.2</ele><time>2026-03-22T13:01:49Z</time></trkpt><trkpt lat="41.21094355371839" lon="15.020908526150542"><ele>259.59999999999997</ele><time>2026-03-22T13:01:50Z</time></trkpt><trkpt lat="41.21086289477338" lon="15.020798025506476"><ele>259.0</ele><time>2026-03-22T13:01:51Z</time></trkpt><trkpt lat="41.210790498089715" lon="15.02068386273722"><ele>259.0</ele><time>2026-03-22T13:01:52Z</time></trkpt><trkpt lat="41.21073677325983" lon="15.020560573489966"><ele>259.0</ele><time>2026-03-22T13:01:53Z</time></trkpt><trkpt lat="41.21068490588455" lon="15.020442865624142"><ele>259.0</ele><time>2026-03-22T13:01:54Z</time></trkpt><trkpt lat="41.21063995142418" lon="15.020334345884308"><ele>259.0</ele><time>2026-03-22T13:01:55Z</time></trkpt><trkpt lat="41.21060013680281" lon="15.020230679095842"><ele>259.0</ele><time>2026-03-22T13:01:56Z</time></trkpt><trkpt lat="41.2105739284305" lon="15.02015001398381"><ele>260.16666666666663</ele><time>2026-03-22T13:01:57Z</time></trkpt><trkpt lat="41.21047858357518" lon="15.020153245178145"><ele>261.3333333333333</ele><time>2026-03-22T13:01:59Z</time></trkpt><trkpt lat="41.21054564556895" lon="15.020075704514408"><ele>262.5</ele><time>2026-03-22T13:02:00Z</time></trkpt><trkpt lat="41.210531349244604" lon="15.019985984852786"><ele>263.6666666666667</ele><time>2026-03-22T13:02:02Z</time></trkpt><trkpt lat="41.21051254323274" lon="15.019887179571477"><ele>264.83333333333337</ele><time>2026-03-22T13:02:04Z</time></trkpt><trkpt lat="41.21048905514547" lon="15.01976938412131"><ele>266.0</ele><time>2026-03-22T13:02:06Z</time></trkpt><trkpt lat="41.21022422653238" lon="15.019758930902166"><ele>266.0</ele><time>2026-03-22T13:02:11Z</time></trkpt><trkpt lat="41.21031428797043" lon="15.01971175155115"><ele>266.0</ele><time>2026-03-22T13:02:13Z</time></trkpt><trkpt lat="41.21036536848062" lon="15.019661519761863"><ele>266.0</ele><time>2026-03-22T13:02:15Z</time></trkpt><trkpt lat="41.21039539176661" lon="15.019531063989415"><ele>266.0</ele><time>2026-03-22T13:02:18Z</time></trkpt><trkpt lat="41.210441992758305" lon="15.019181087468324"><ele>265.6666666666667</ele><time>2026-03-22T13:02:19Z</time></trkpt><trkpt lat="41.210411526388505" lon="15.01901155776332"><ele>265.3333333333333</ele><time>2026-03-22T13:02:20Z</time></trkpt><trkpt lat="41.21036492913555" lon="15.018774149909556"><ele>265.0</ele><time>2026-03-22T13:02:21Z</time></trkpt><trkpt lat="41.21032449531898" lon="15.018497827994738"><ele>263.8</ele><time>2026-03-22T13:02:22Z</time></trkpt><trkpt lat="41.210308874131826" lon="15.018305176848672"><ele>262.6</ele><time>2026-03-22T13:02:23Z</time></trkpt><trkpt lat="41.21029664447307" lon="15.018170030404752"><ele>261.4</ele><time>2026-03-22T13:02:24Z</time></trkpt><trkpt lat="41.21028584168954" lon="15.018067805824648"><ele>260.2</ele><time>2026-03-22T13:02:25Z</time></trkpt><trkpt lat="41.21024136078019" lon="15.017983127287293"><ele>259.0</ele><time>2026-03-22T13:02:26Z</time></trkpt><trkpt lat="41.210196053589556" lon="15.017879629636791"><ele>259.0</ele><time>2026-03-22T13:02:27Z</time></trkpt><trkpt lat="41.210074131547536" lon="15.017847172171296"><ele>259.0</ele><time>2026-03-22T13:02:28Z</time></trkpt><trkpt lat="41.210029751705235" lon="15.017761921064476"><ele>259.0</ele><time>2026-03-22T13:02:29Z</time></trkpt><trkpt lat="41.21006074617486" lon="15.01766108333267"><ele>259.0</ele><time>2026-03-22T13:02:30Z</time></trkpt><trkpt lat="41.21003364458848" lon="15.017524448974177"><ele>259.0</ele><time>2026-03-22T13:02:32Z</time></trkpt><trkpt lat="41.21001944142321" lon="15.017434471939689"><ele>258.66666666666663</ele><time>2026-03-22T13:02:33Z</time></trkpt><trkpt lat="41.21002180700852" lon="15.017346123499234"><ele>258.3333333333333</ele><time>2026-03-22T13:02:34Z</time></trkpt><trkpt lat="41.21001133044205" lon="15.017188728090881"><ele>258.0</ele><time>2026-03-22T13:02:36Z</time></trkpt><trkpt lat="41.21002068573909" lon="15.01709125237709"><ele>257.6666666666667</ele><time>2026-03-22T13:02:37Z</time></trkpt><trkpt lat="41.21003764395176" lon="15.017007447818544"><ele>257.33333333333337</ele><time>2026-03-22T13:02:38Z</time></trkpt><trkpt lat="41.21008944769592" lon="15.016874628771777"><ele>257.0</ele><time>2026-03-22T13:02:40Z</time></trkpt><trkpt lat="41.21010255606275" lon="15.016778046057825"><ele>257.0</ele><time>2026-03-22T13:02:41Z</time></trkpt><trkpt lat="41.21007760892675" lon="15.016692678910292"><ele>257.0</ele><time>2026-03-22T13:02:42Z</time></trkpt><trkpt lat="41.210035767432615" lon="15.016585303131036"><ele>257.0</ele><time>2026-03-22T13:02:43Z</time></trkpt><trkpt lat="41.2099841912508" lon="15.016450531413206"><ele>257.0</ele><time>2026-03-22T13:02:44Z</time></trkpt><trkpt lat="41.20994641790644" lon="15.016327313079458"><ele>257.0</ele><time>2026-03-22T13:02:45Z</time></trkpt><trkpt lat="41.20993928675475" lon="15.016203465940764"><ele>256.6</ele><time>2026-03-22T13:02:46Z</time></trkpt><trkpt lat="41.209925888176066" lon="15.016082394122723"><ele>256.2</ele><time>2026-03-22T13:02:47Z</time></trkpt><trkpt lat="41.20992580075798" lon="15.015980111243055"><ele>255.8</ele><time>2026-03-22T13:02:48Z</time></trkpt><trkpt lat="41.20988210915773" lon="15.015864554987326"><ele>255.4</ele><time>2026-03-22T13:02:50Z</time></trkpt><trkpt lat="41.20973232853769" lon="15.015855055319678"><ele>255.0</ele><time>2026-03-22T13:02:52Z</time></trkpt><trkpt lat="41.20964111350321" lon="15.015868121559619"><ele>256.0</ele><time>2026-03-22T13:02:53Z</time></trkpt><trkpt lat="41.209573292631845" lon="15.015843715070751"><ele>257.0</ele><time>2026-03-22T13:02:54Z</time></trkpt><trkpt lat="41.20951056286568" lon="15.015789421915331"><ele>258.0</ele><time>2026-03-22T13:02:55Z</time></trkpt><trkpt lat="41.20950145703873" lon="15.015649895858317"><ele>259.0</ele><time>2026-03-22T13:02:57Z</time></trkpt><trkpt lat="41.20951503685027" lon="15.015529591525762"><ele>260.0</ele><time>2026-03-22T13:02:59Z</time></trkpt><trkpt lat="41.20951081875569" lon="15.015440144673683"><ele>261.0</ele><time>2026-03-22T13:03:00Z</time></trkpt><trkpt lat="41.20950195602393" lon="15.015336288933447"><ele>261.0</ele><time>2026-03-22T13:03:02Z</time></trkpt><trkpt lat="41.20944500258864" lon="15.015192269797796"><ele>261.0</ele><time>2026-03-22T13:03:05Z</time></trkpt><trkpt lat="41.20943765895104" lon="15.0150943072275"><ele>261.0</ele><time>2026-03-22T13:03:06Z</time></trkpt><trkpt lat="41.20939562493768" lon="15.015018638222493"><ele>261.0</ele><time>2026-03-22T13:03:07Z</time></trkpt><trkpt lat="41.209357788037025" lon="15.014951674170275"><ele>261.0</ele><time>2026-03-22T13:03:08Z</time></trkpt><trkpt lat="41.20932101287073" lon="15.014878419760326"><ele>261.0</ele><time>2026-03-22T13:03:09Z</time></trkpt><trkpt lat="41.20927709997526" lon="15.014772116214793"><ele>260.0</ele><time>2026-03-22T13:03:10Z</time></trkpt><trkpt lat="41.20920612202862" lon="15.014574832132894"><ele>259.0</ele><time>2026-03-22T13:03:11Z</time></trkpt><trkpt lat="41.20913085197502" lon="15.014321581284749"><ele>258.0</ele><time>2026-03-22T13:03:12Z</time></trkpt><trkpt lat="41.20907045636272" lon="15.014117149274348"><ele>256.75</ele><time>2026-03-22T13:03:13Z</time></trkpt><trkpt lat="41.20900887469423" lon="15.013930645255035"><ele>255.5</ele><time>2026-03-22T13:03:14Z</time></trkpt><trkpt lat="41.208971149681254" lon="15.013760039374999"><ele>254.25</ele><time>2026-03-22T13:03:15Z</time></trkpt><trkpt lat="41.208943386655065" lon="15.013645077075527"><ele>253.0</ele><time>2026-03-22T13:03:16Z</time></trkpt><trkpt lat="41.20891469911618" lon="15.013545109144154"><ele>255.33333333333331</ele><time>2026-03-22T13:03:17Z</time></trkpt><trkpt lat="41.208884518166016" lon="15.013438465732905"><ele>257.66666666666663</ele><time>2026-03-22T13:03:18Z</time></trkpt><trkpt lat="41.208811236369975" lon="15.013424837421887"><ele>260.0</ele><time>2026-03-22T13:03:20Z</time></trkpt><trkpt lat="41.20874481209732" lon="15.013488671672325"><ele>262.3333333333333</ele><time>2026-03-22T13:03:21Z</time></trkpt><trkpt lat="41.208694379054656" lon="15.013546991221014"><ele>264.6666666666667</ele><time>2026-03-22T13:03:22Z</time></trkpt><trkpt lat="41.20866732121342" lon="15.013649387656452"><ele>267.0</ele><time>2026-03-22T13:03:23Z</time></trkpt><trkpt lat="41.2086476826042" lon="15.013761701234168"><ele>267.0</ele><time>2026-03-22T13:03:24Z</time></trkpt><trkpt lat="41.20863773169898" lon="15.013909433219457"><ele>267.0</ele><time>2026-03-22T13:03:25Z</time></trkpt><trkpt lat="41.20860480713867" lon="15.014019291293005"><ele>267.0</ele><time>2026-03-22T13:03:26Z</time></trkpt><trkpt lat="41.208519355777504" lon="15.014064405126641"><ele>267.0</ele><time>2026-03-22T13:03:28Z</time></trkpt><trkpt lat="41.20845488135679" lon="15.014000582561373"><ele>267.0</ele><time>2026-03-22T13:03:29Z</time></trkpt><trkpt lat="41.20838121743291" lon="15.013895483910666"><ele>267.0</ele><time>2026-03-22T13:03:30Z</time></trkpt><trkpt lat="41.208290349378416" lon="15.01382965918785"><ele>267.0</ele><time>2026-03-22T13:03:31Z</time></trkpt><trkpt lat="41.20822704333858" lon="15.013756580683555"><ele>267.0</ele><time>2026-03-22T13:03:32Z</time></trkpt><trkpt lat="41.20819812736605" lon="15.013653508647357"><ele>267.0</ele><time>2026-03-22T13:03:33Z</time></trkpt><trkpt lat="41.208156338268296" lon="15.01348026202086"><ele>267.0</ele><time>2026-03-22T13:03:34Z</time></trkpt><trkpt lat="41.20809614003505" lon="15.013340521027214"><ele>271.2</ele><time>2026-03-22T13:03:35Z</time></trkpt><trkpt lat="41.20803379007917" lon="15.013285728758122"><ele>275.4</ele><time>2026-03-22T13:03:36Z</time></trkpt><trkpt lat="41.207953371625685" lon="15.013349485359495"><ele>279.6</ele><time>2026-03-22T13:03:38Z</time></trkpt><trkpt lat="41.20796250203554" lon="15.01345361491665"><ele>283.8</ele><time>2026-03-22T13:03:39Z</time></trkpt><trkpt lat="41.20796807162747" lon="15.013583152676185"><ele>288.0</ele><time>2026-03-22T13:03:40Z</time></trkpt><trkpt lat="41.207932317548305" lon="15.013726958829439"><ele>291.2</ele><time>2026-03-22T13:03:41Z</time></trkpt><trkpt lat="41.207899512627506" lon="15.013868132769481"><ele>294.4</ele><time>2026-03-22T13:03:42Z</time></trkpt><trkpt lat="41.20788391010072" lon="15.014021234327293"><ele>297.59999999999997</ele><time>2026-03-22T13:03:43Z</time></trkpt><trkpt lat="41.20787678580601" lon="15.014109028126233"><ele>300.8</ele><time>2026-03-22T13:03:44Z</time></trkpt><trkpt lat="41.2077788737854" lon="15.014116822802768"><ele>304.0</ele><time>2026-03-22T13:03:46Z</time></trkpt><trkpt lat="41.20770592471512" lon="15.014077773148118"><ele>304.0</ele><time>2026-03-22T13:03:48Z</time></trkpt><trkpt lat="41.207574451358575" lon="15.014147818143677"><ele>304.0</ele><time>2026-03-22T13:03:49Z</time></trkpt><trkpt lat="41.20750766801121" lon="15.014100679539624"><ele>304.0</ele><time>2026-03-22T13:03:50Z</time></trkpt><trkpt lat="41.20745440711309" lon="15.014007826757242"><ele>304.0</ele><time>2026-03-22T13:03:51Z</time></trkpt><trkpt lat="41.207410046336854" lon="15.013908587622556"><ele>304.0</ele><time>2026-03-22T13:03:52Z</time></trkpt><trkpt lat="41.20736997858469" lon="15.01377668367503"><ele>308.4</ele><time>2026-03-22T13:03:53Z</time></trkpt><trkpt lat="41.207308652570646" lon="15.013887737919989"><ele>312.79999999999995</ele><time>2026-03-22T13:03:54Z</time></trkpt><trkpt lat="41.20727356011708" lon="15.013998618658192"><ele>317.20000000000005</ele><time>2026-03-22T13:03:55Z</time></trkpt><trkpt lat="41.20721522149602" lon="15.014153207635335"><ele>321.6</ele><time>2026-03-22T13:03:56Z</time></trkpt><trkpt lat="41.20716266157848" lon="15.014262446787741"><ele>326.0</ele><time>2026-03-22T13:03:57Z</time></trkpt><trkpt lat="41.20712184942371" lon="15.0143488981067"><ele>326.0</ele><time>2026-03-22T13:03:58Z</time></trkpt><trkpt lat="41.20706718630573" lon="15.014290018104038"><ele>326.0</ele><time>2026-03-22T13:04:00Z</time></trkpt><trkpt lat="41.20703108843933" lon="15.014180250339633"><ele>326.0</ele><time>2026-03-22T13:04:02Z</time></trkpt><trkpt lat="41.207066979850175" lon="15.014035542657298"><ele>326.0</ele><time>2026-03-22T13:04:04Z</time></trkpt><trkpt lat="41.20713055745964" lon="15.01391596718601"><ele>326.0</ele><time>2026-03-22T13:04:06Z</time></trkpt><trkpt lat="41.207219083109536" lon="15.013819203965006"><ele>326.0</ele><time>2026-03-22T13:04:08Z</time></trkpt><trkpt lat="41.20727923482068" lon="15.013686612336159"><ele>326.0</ele><time>2026-03-22T13:04:09Z</time></trkpt><trkpt lat="41.207277709474255" lon="15.013529803318516"><ele>326.0</ele><time>2026-03-22T13:04:12Z</time></trkpt><trkpt lat="41.20731304287838" lon="15.013418791825988"><ele>326.0</ele><time>2026-03-22T13:04:14Z</time></trkpt><trkpt lat="41.20735592984293" lon="15.013256021921865"><ele>318.40000000000003</ele><time>2026-03-22T13:04:16Z</time></trkpt><trkpt lat="41.20739799674539" lon="15.013114415883747"><ele>310.8</ele><time>2026-03-22T13:04:18Z</time></trkpt><trkpt lat="41.20741486771037" lon="15.013019266519139"><ele>303.20000000000005</ele><time>2026-03-22T13:04:19Z</time></trkpt><trkpt lat="41.20745599847722" lon="15.012915978228968"><ele>295.6</ele><time>2026-03-22T13:04:20Z</time></trkpt><trkpt lat="41.207445077503586" lon="15.012802855977315"><ele>288.0</ele><time>2026-03-22T13:04:21Z</time></trkpt><trkpt lat="41.2074021022989" lon="15.012670797321558"><ele>288.0</ele><time>2026-03-22T13:04:22Z</time></trkpt><trkpt lat="41.20736114265266" lon="15.01259722718474"><ele>288.0</ele><time>2026-03-22T13:04:23Z</time></trkpt><trkpt lat="41.20729613381448" lon="15.01250309024837"><ele>288.0</ele><time>2026-03-22T13:04:24Z</time></trkpt><trkpt lat="41.20722395213199" lon="15.012402259931246"><ele>288.0</ele><time>2026-03-22T13:04:25Z</time></trkpt><trkpt lat="41.20717540856785" lon="15.01229817605061"><ele>288.0</ele><time>2026-03-22T13:04:26Z</time></trkpt><trkpt lat="41.20714048808887" lon="15.012209799956999"><ele>288.0</ele><time>2026-03-22T13:04:27Z</time></trkpt><trkpt lat="41.2070961519766" lon="15.01206819819699"><ele>288.4</ele><time>2026-03-22T13:04:29Z</time></trkpt><trkpt lat="41.20697775753508" lon="15.012033187865711"><ele>288.8</ele><time>2026-03-22T13:04:31Z</time></trkpt><trkpt lat="41.20690936968303" lon="15.012092026142577"><ele>289.2</ele><time>2026-03-22T13:04:32Z</time></trkpt><trkpt lat="41.20685034743051" lon="15.012187330211326"><ele>289.6</ele><time>2026-03-22T13:04:33Z</time></trkpt><trkpt lat="41.20678100731269" lon="15.012317114482217"><ele>290.0</ele><time>2026-03-22T13:04:34Z</time></trkpt><trkpt lat="41.20670626663465" lon="15.012365165263283"><ele>290.0</ele><time>2026-03-22T13:04:35Z</time></trkpt><trkpt lat="41.20662027369231" lon="15.01245312711298"><ele>290.0</ele><time>2026-03-22T13:04:36Z</time></trkpt><trkpt lat="41.206544278319306" lon="15.012541381653405"><ele>290.0</ele><time>2026-03-22T13:04:37Z</time></trkpt><trkpt lat="41.20645742849541" lon="15.012583034514549"><ele>290.0</ele><time>2026-03-22T13:04:38Z</time></trkpt><trkpt lat="41.206370312373146" lon="15.01259366359991"><ele>290.0</ele><time>2026-03-22T13:04:39Z</time></trkpt><trkpt lat="41.20626645459994" lon="15.012558793071019"><ele>292.8</ele><time>2026-03-22T13:04:40Z</time></trkpt><trkpt lat="41.20616696858092" lon="15.012518510730665"><ele>295.6</ele><time>2026-03-22T13:04:41Z</time></trkpt><trkpt lat="41.20611570201897" lon="15.012411533560584"><ele>298.4</ele><time>2026-03-22T13:04:42Z</time></trkpt><trkpt lat="41.206065788489454" lon="15.012332731214062"><ele>301.2</ele><time>2026-03-22T13:04:43Z</time></trkpt><trkpt lat="41.20600447294164" lon="15.012239157640305"><ele>304.0</ele><time>2026-03-22T13:04:44Z</time></trkpt><trkpt lat="41.20596245868727" lon="15.012145288637061"><ele>304.0</ele><time>2026-03-22T13:04:45Z</time></trkpt><trkpt lat="41.20589851733784" lon="15.012072020585531"><ele>304.0</ele><time>2026-03-22T13:04:46Z</time></trkpt><trkpt lat="41.20582832867361" lon="15.011979128620078"><ele>304.0</ele><time>2026-03-22T13:04:48Z</time></trkpt><trkpt lat="41.205835755123836" lon="15.011820135437214"><ele>304.0</ele><time>2026-03-22T13:04:50Z</time></trkpt><trkpt lat="41.20585006737688" lon="15.011676065353678"><ele>304.0</ele><time>2026-03-22T13:04:51Z</time></trkpt><trkpt lat="41.20585703965032" lon="15.011567761003034"><ele>305.66666666666663</ele><time>2026-03-22T13:04:52Z</time></trkpt><trkpt lat="41.20580718083808" lon="15.011484547964018"><ele>307.3333333333333</ele><time>2026-03-22T13:04:54Z</time></trkpt><trkpt lat="41.205754099298446" lon="15.011352231230184"><ele>309.0</ele><time>2026-03-22T13:04:56Z</time></trkpt><trkpt lat="41.20573202133829" lon="15.011268512609693"><ele>310.6666666666667</ele><time>2026-03-22T13:04:57Z</time></trkpt><trkpt lat="41.20569774585575" lon="15.011173271392227"><ele>312.33333333333337</ele><time>2026-03-22T13:04:58Z</time></trkpt><trkpt lat="41.20565451385938" lon="15.011058840081768"><ele>314.0</ele><time>2026-03-22T13:04:59Z</time></trkpt><trkpt lat="41.20560971494597" lon="15.010947659701548"><ele>319.33333333333337</ele><time>2026-03-22T13:05:00Z</time></trkpt><trkpt lat="41.2055618502348" lon="15.010850083026924"><ele>324.6666666666667</ele><time>2026-03-22T13:05:01Z</time></trkpt><trkpt lat="41.20551478008345" lon="15.010772959155194"><ele>330.0</ele><time>2026-03-22T13:05:02Z</time></trkpt><trkpt lat="41.205474804866036" lon="15.01068132173601"><ele>335.3333333333333</ele><time>2026-03-22T13:05:03Z</time></trkpt><trkpt lat="41.205450454319525" lon="15.01055903835263"><ele>340.66666666666663</ele><time>2026-03-22T13:05:04Z</time></trkpt><trkpt lat="41.20541641573518" lon="15.010422326908705"><ele>346.0</ele><time>2026-03-22T13:05:05Z</time></trkpt><trkpt lat="41.205386944152394" lon="15.010294644284075"><ele>346.0</ele><time>2026-03-22T13:05:06Z</time></trkpt><trkpt lat="41.20532730484065" lon="15.010192699353862"><ele>346.0</ele><time>2026-03-22T13:05:08Z</time></trkpt><trkpt lat="41.20526188290558" lon="15.010199004497466"><ele>346.0</ele><time>2026-03-22T13:05:09Z</time></trkpt><trkpt lat="41.20517586562941" lon="15.010140172954834"><ele>346.0</ele><time>2026-03-22T13:05:11Z</time></trkpt><trkpt lat="41.20512141944098" lon="15.010069706974553"><ele>346.0</ele><time>2026-03-22T13:05:12Z</time></trkpt><trkpt lat="41.20505764856428" lon="15.010016107139593"><ele>346.0</ele><time>2026-03-22T13:05:13Z</time></trkpt><trkpt lat="41.20498404904289" lon="15.009946783157087"><ele>344.0</ele><time>2026-03-22T13:05:14Z</time></trkpt><trkpt lat="41.2049094076131" lon="15.00986808257061"><ele>342.0</ele><time>2026-03-22T13:05:15Z</time></trkpt><trkpt lat="41.204863400166204" lon="15.009808424843373"><ele>340.0</ele><time>2026-03-22T13:05:16Z</time></trkpt><trkpt lat="41.20484788602414" lon="15.009685046036385"><ele>338.0</ele><time>2026-03-22T13:05:18Z</time></trkpt><trkpt lat="41.2048368237983" lon="15.009542327261968"><ele>336.0</ele><time>2026-03-22T13:05:19Z</time></trkpt><trkpt lat="41.20480394459706" lon="15.009410462285395"><ele>340.6666666666667</ele><time>2026-03-22T13:05:20Z</time></trkpt><trkpt lat="41.20475493916144" lon="15.009293885399574"><ele>345.3333333333333</ele><time>2026-03-22T13:05:21Z</time></trkpt><trkpt lat="41.204731937128585" lon="15.00920306561039"><ele>350.0</ele><time>2026-03-22T13:05:22Z</time></trkpt><trkpt lat="41.20469507168566" lon="15.009130655907567"><ele>354.66666666666663</ele><time>2026-03-22T13:05:23Z</time></trkpt><trkpt lat="41.204634575112365" lon="15.00905160695279"><ele>359.3333333333333</ele><time>2026-03-22T13:05:24Z</time></trkpt><trkpt lat="41.204564675754554" lon="15.008948609891778"><ele>364.0</ele><time>2026-03-22T13:05:25Z</time></trkpt><trkpt lat="41.2044907561264" lon="15.008852174613223"><ele>364.0</ele><time>2026-03-22T13:05:26Z</time></trkpt><trkpt lat="41.20441797182622" lon="15.008791668222212"><ele>364.0</ele><time>2026-03-22T13:05:27Z</time></trkpt><trkpt lat="41.204338162866854" lon="15.00875801507573"><ele>364.0</ele><time>2026-03-22T13:05:28Z</time></trkpt><trkpt lat="41.20424779147408" lon="15.008729506144373"><ele>364.0</ele><time>2026-03-22T13:05:29Z</time></trkpt><trkpt lat="41.204145003742134" lon="15.008678714480181"><ele>364.0</ele><time>2026-03-22T13:05:30Z</time></trkpt><trkpt lat="41.20405755436838" lon="15.008624318584486"><ele>364.0</ele><time>2026-03-22T13:05:31Z</time></trkpt><trkpt lat="41.20400178618029" lon="15.008542899488388"><ele>364.0</ele><time>2026-03-22T13:05:32Z</time></trkpt><trkpt lat="41.20397279093004" lon="15.008416217476311"><ele>364.0</ele><time>2026-03-22T13:05:33Z</time></trkpt><trkpt lat="41.20394126196672" lon="15.008261125424482"><ele>364.0</ele><time>2026-03-22T13:05:34Z</time></trkpt><trkpt lat="41.2038922434604" lon="15.008111929361139"><ele>364.0</ele><time>2026-03-22T13:05:35Z</time></trkpt><trkpt lat="41.20384754346476" lon="15.007982777139917"><ele>366.25</ele><time>2026-03-22T13:05:36Z</time></trkpt><trkpt lat="41.20379482452093" lon="15.007857756598586"><ele>368.5</ele><time>2026-03-22T13:05:37Z</time></trkpt><trkpt lat="41.20372759565121" lon="15.007731215375168"><ele>370.75</ele><time>2026-03-22T13:05:38Z</time></trkpt><trkpt lat="41.203669752075115" lon="15.007599389914617"><ele>373.0</ele><time>2026-03-22T13:05:39Z</time></trkpt><trkpt lat="41.20362113698228" lon="15.007458462486667"><ele>373.0</ele><time>2026-03-22T13:05:40Z</time></trkpt><trkpt lat="41.203575079077986" lon="15.00731621046763"><ele>373.0</ele><time>2026-03-22T13:05:41Z</time></trkpt><trkpt lat="41.20352503896969" lon="15.007184175289563"><ele>373.0</ele><time>2026-03-22T13:05:42Z</time></trkpt><trkpt lat="41.20347053598655" lon="15.00704008576683"><ele>373.0</ele><time>2026-03-22T13:05:43Z</time></trkpt><trkpt lat="41.20342352502014" lon="15.006917620686743"><ele>373.0</ele><time>2026-03-22T13:05:44Z</time></trkpt><trkpt lat="41.20337998430197" lon="15.006822667674875"><ele>373.0</ele><time>2026-03-22T13:05:45Z</time></trkpt><trkpt lat="41.20326936001229" lon="15.006737795408247"><ele>373.0</ele><time>2026-03-22T13:05:47Z</time></trkpt><trkpt lat="41.203182970927884" lon="15.006712254647724"><ele>373.0</ele><time>2026-03-22T13:05:48Z</time></trkpt><trkpt lat="41.203109781674776" lon="15.006716659613101"><ele>373.0</ele><time>2026-03-22T13:05:49Z</time></trkpt><trkpt lat="41.203152288051335" lon="15.006646819056867"><ele>373.0</ele><time>2026-03-22T13:06:08Z</time></trkpt><trkpt lat="41.20323635651899" lon="15.00665068122842"><ele>368.0</ele><time>2026-03-22T13:06:10Z</time></trkpt><trkpt lat="41.20336269031354" lon="15.006617615280764"><ele>363.0</ele><time>2026-03-22T13:06:12Z</time></trkpt><trkpt lat="41.203425409094756" lon="15.006578277183433"><ele>358.0</ele><time>2026-03-22T13:06:13Z</time></trkpt><trkpt lat="41.20348297441203" lon="15.006486146424054"><ele>353.0</ele><time>2026-03-22T13:06:14Z</time></trkpt><trkpt lat="41.203539096931934" lon="15.00637460107576"><ele>348.0</ele><time>2026-03-22T13:06:15Z</time></trkpt><trkpt lat="41.20359749211242" lon="15.006255151560348"><ele>348.0</ele><time>2026-03-22T13:06:16Z</time></trkpt><trkpt lat="41.20365413807154" lon="15.006139948213445"><ele>348.0</ele><time>2026-03-22T13:06:17Z</time></trkpt><trkpt lat="41.203722081115686" lon="15.006056557516967"><ele>348.0</ele><time>2026-03-22T13:06:18Z</time></trkpt><trkpt lat="41.20378061805827" lon="15.005970698743635"><ele>348.0</ele><time>2026-03-22T13:06:19Z</time></trkpt><trkpt lat="41.20382740332797" lon="15.005897108362607"><ele>348.0</ele><time>2026-03-22T13:06:20Z</time></trkpt><trkpt lat="41.20385507423464" lon="15.00580831750617"><ele>348.0</ele><time>2026-03-22T13:06:21Z</time></trkpt><trkpt lat="41.20389348981703" lon="15.005721917200118"><ele>346.5</ele><time>2026-03-22T13:06:22Z</time></trkpt><trkpt lat="41.20392947856372" lon="15.005632857851477"><ele>345.0</ele><time>2026-03-22T13:06:23Z</time></trkpt><trkpt lat="41.20398734733585" lon="15.00555273450517"><ele>343.5</ele><time>2026-03-22T13:06:24Z</time></trkpt><trkpt lat="41.20405209462064" lon="15.005479001089267"><ele>342.0</ele><time>2026-03-22T13:06:25Z</time></trkpt><trkpt lat="41.204118910803246" lon="15.005421972256528"><ele>340.5</ele><time>2026-03-22T13:06:26Z</time></trkpt><trkpt lat="41.204169801065696" lon="15.005324041361161"><ele>339.0</ele><time>2026-03-22T13:06:28Z</time></trkpt><trkpt lat="41.20407755463717" lon="15.005196562927456"><ele>339.0</ele><time>2026-03-22T13:06:30Z</time></trkpt><trkpt lat="41.20400199683813" lon="15.005184266659263"><ele>339.0</ele><time>2026-03-22T13:06:31Z</time></trkpt><trkpt lat="41.20391065118447" lon="15.005206974510093"><ele>339.0</ele><time>2026-03-22T13:06:32Z</time></trkpt><trkpt lat="41.20378828246565" lon="15.005241744373723"><ele>339.0</ele><time>2026-03-22T13:06:33Z</time></trkpt><trkpt lat="41.203661270773885" lon="15.00527911615985"><ele>339.0</ele><time>2026-03-22T13:06:34Z</time></trkpt><trkpt lat="41.203572125925085" lon="15.005281615855449"><ele>335.0</ele><time>2026-03-22T13:06:35Z</time></trkpt><trkpt lat="41.20346988903126" lon="15.005268904928787"><ele>331.0</ele><time>2026-03-22T13:06:36Z</time></trkpt><trkpt lat="41.20335854417408" lon="15.005235377781672"><ele>327.0</ele><time>2026-03-22T13:06:37Z</time></trkpt><trkpt lat="41.203247917022665" lon="15.005177631253563"><ele>323.0</ele><time>2026-03-22T13:06:38Z</time></trkpt><trkpt lat="41.20313671980127" lon="15.005115851642069"><ele>320.75</ele><time>2026-03-22T13:06:39Z</time></trkpt><trkpt lat="41.20303720227186" lon="15.005047906768239"><ele>318.5</ele><time>2026-03-22T13:06:40Z</time></trkpt><trkpt lat="41.2029405239097" lon="15.004976424712554"><ele>316.25</ele><time>2026-03-22T13:06:41Z</time></trkpt><trkpt lat="41.20281387302913" lon="15.004923490158834"><ele>314.0</ele><time>2026-03-22T13:06:42Z</time></trkpt><trkpt lat="41.20268610202313" lon="15.004901115021656"><ele>314.0</ele><time>2026-03-22T13:06:43Z</time></trkpt><trkpt lat="41.20259819030305" lon="15.004902026721572"><ele>314.0</ele><time>2026-03-22T13:06:44Z</time></trkpt><trkpt lat="41.20253395161579" lon="15.00495327190997"><ele>314.0</ele><time>2026-03-22T13:06:46Z</time></trkpt><trkpt lat="41.20250659071506" lon="15.005034079798609"><ele>314.0</ele><time>2026-03-22T13:06:47Z</time></trkpt><trkpt lat="41.202448441000634" lon="15.005143840976352"><ele>314.0</ele><time>2026-03-22T13:06:48Z</time></trkpt><trkpt lat="41.20237411905506" lon="15.005269285433284"><ele>311.59999999999997</ele><time>2026-03-22T13:06:49Z</time></trkpt><trkpt lat="41.20231643110662" lon="15.005393039464549"><ele>309.2</ele><time>2026-03-22T13:06:50Z</time></trkpt><trkpt lat="41.20226616046938" lon="15.005479789038539"><ele>306.79999999999995</ele><time>2026-03-22T13:06:51Z</time></trkpt><trkpt lat="41.20213418249988" lon="15.005544435487135"><ele>304.4</ele><time>2026-03-22T13:06:53Z</time></trkpt><trkpt lat="41.202038657365726" lon="15.005560517090757"><ele>302.0</ele><time>2026-03-22T13:06:54Z</time></trkpt><trkpt lat="41.201940390635315" lon="15.00554628368698"><ele>302.0</ele><time>2026-03-22T13:06:55Z</time></trkpt><trkpt lat="41.20185159863852" lon="15.005515292751957"><ele>302.0</ele><time>2026-03-22T13:06:56Z</time></trkpt><trkpt lat="41.20177441242477" lon="15.005435278054946"><ele>302.0</ele><time>2026-03-22T13:06:57Z</time></trkpt><trkpt lat="41.20169559255568" lon="15.005377335568754"><ele>302.0</ele><time>2026-03-22T13:06:58Z</time></trkpt><trkpt lat="41.20160086242659" lon="15.005330992789053"><ele>302.0</ele><time>2026-03-22T13:06:59Z</time></trkpt><trkpt lat="41.20150413390075" lon="15.005308329860995"><ele>303.2</ele><time>2026-03-22T13:07:00Z</time></trkpt><trkpt lat="41.20140698478563" lon="15.005298379044175"><ele>304.4</ele><time>2026-03-22T13:07:01Z</time></trkpt><trkpt lat="41.201306046198134" lon="15.005297896209102"><ele>305.6</ele><time>2026-03-22T13:07:02Z</time></trkpt><trkpt lat="41.201194264846286" lon="15.005283655677493"><ele>306.8</ele><time>2026-03-22T13:07:03Z</time></trkpt><trkpt lat="41.20108739115758" lon="15.00525033199838"><ele>308.0</ele><time>2026-03-22T13:07:04Z</time></trkpt><trkpt lat="41.200984504109776" lon="15.005203496124025"><ele>308.0</ele><time>2026-03-22T13:07:05Z</time></trkpt><trkpt lat="41.20088704134561" lon="15.00516999492739"><ele>308.0</ele><time>2026-03-22T13:07:06Z</time></trkpt><trkpt lat="41.20081585812053" lon="15.005149064663067"><ele>308.0</ele><time>2026-03-22T13:07:07Z</time></trkpt><trkpt lat="41.20072928403692" lon="15.00510829224713"><ele>308.0</ele><time>2026-03-22T13:07:09Z</time></trkpt><trkpt lat="41.20068154976688" lon="15.005049018104122"><ele>308.0</ele><time>2026-03-22T13:07:19Z</time></trkpt><trkpt lat="41.20064046867013" lon="15.004981280507055"><ele>308.0</ele><time>2026-03-22T13:07:21Z</time></trkpt><trkpt lat="41.200606898158654" lon="15.004906594926483"><ele>311.4</ele><time>2026-03-22T13:07:24Z</time></trkpt><trkpt lat="41.20055382038048" lon="15.004839446173488"><ele>314.8</ele><time>2026-03-22T13:07:26Z</time></trkpt><trkpt lat="41.200488463302015" lon="15.004760198839504"><ele>318.2</ele><time>2026-03-22T13:07:28Z</time></trkpt><trkpt lat="41.20040399696489" lon="15.004701177870434"><ele>321.6</ele><time>2026-03-22T13:07:30Z</time></trkpt><trkpt lat="41.20032720798357" lon="15.004554551819444"><ele>325.0</ele><time>2026-03-22T13:07:32Z</time></trkpt><trkpt lat="41.200271368306005" lon="15.004445746506894"><ele>325.0</ele><time>2026-03-22T13:07:33Z</time></trkpt><trkpt lat="41.20020892411574" lon="15.004323675496464"><ele>325.0</ele><time>2026-03-22T13:07:34Z</time></trkpt><trkpt lat="41.20015427851099" lon="15.004241648367337"><ele>325.0</ele><time>2026-03-22T13:07:35Z</time></trkpt><trkpt lat="41.20008979233551" lon="15.004161152138463"><ele>325.0</ele><time>2026-03-22T13:07:36Z</time></trkpt><trkpt lat="41.20001284055438" lon="15.004078780483315"><ele>325.0</ele><time>2026-03-22T13:07:37Z</time></trkpt><trkpt lat="41.199950905573864" lon="15.003984831174133"><ele>325.3333333333333</ele><time>2026-03-22T13:07:38Z</time></trkpt><trkpt lat="41.19990704953129" lon="15.003889621853961"><ele>325.66666666666663</ele><time>2026-03-22T13:07:39Z</time></trkpt><trkpt lat="41.19988860672977" lon="15.00379338631918"><ele>326.0</ele><time>2026-03-22T13:07:40Z</time></trkpt><trkpt lat="41.19988739373481" lon="15.003707014700623"><ele>326.3333333333333</ele><time>2026-03-22T13:07:41Z</time></trkpt><trkpt lat="41.19988326051998" lon="15.003569954977152"><ele>326.6666666666667</ele><time>2026-03-22T13:07:43Z</time></trkpt><trkpt lat="41.199853116994426" lon="15.003490252103818"><ele>327.0</ele><time>2026-03-22T13:07:45Z</time></trkpt><trkpt lat="41.19977635013108" lon="15.003470654940728"><ele>328.5</ele><time>2026-03-22T13:07:49Z</time></trkpt><trkpt lat="41.199661200289945" lon="15.003473157600943"><ele>330.0</ele><time>2026-03-22T13:07:51Z</time></trkpt><trkpt lat="41.19958676261306" lon="15.003471090894845"><ele>331.5</ele><time>2026-03-22T13:07:52Z</time></trkpt><trkpt lat="41.199518281880145" lon="15.003479841119903"><ele>333.0</ele><time>2026-03-22T13:07:53Z</time></trkpt><trkpt lat="41.19943300980572" lon="15.003481698934111"><ele>334.5</ele><time>2026-03-22T13:07:54Z</time></trkpt><trkpt lat="41.199349528251204" lon="15.003474823340662"><ele>336.0</ele><time>2026-03-22T13:07:55Z</time></trkpt><trkpt lat="41.19923950623507" lon="15.003506661917147"><ele>336.0</ele><time>2026-03-22T13:07:57Z</time></trkpt><trkpt lat="41.19913346822703" lon="15.003576346514068"><ele>336.0</ele><time>2026-03-22T13:07:59Z</time></trkpt><trkpt lat="41.199068556630834" lon="15.003629762071318"><ele>336.0</ele><time>2026-03-22T13:08:00Z</time></trkpt><trkpt lat="41.19894495028354" lon="15.003686863384866"><ele>336.0</ele><time>2026-03-22T13:08:01Z</time></trkpt><trkpt lat="41.19884492980973" lon="15.003726201176333"><ele>336.0</ele><time>2026-03-22T13:08:02Z</time></trkpt><trkpt lat="41.19875726934565" lon="15.003742457670683"><ele>338.8333333333333</ele><time>2026-03-22T13:08:03Z</time></trkpt><trkpt lat="41.19866829971429" lon="15.00375330871656"><ele>341.6666666666667</ele><time>2026-03-22T13:08:04Z</time></trkpt><trkpt lat="41.19856368640036" lon="15.003771911963236"><ele>344.5</ele><time>2026-03-22T13:08:05Z</time></trkpt><trkpt lat="41.19849519199612" lon="15.003810322730375"><ele>347.33333333333337</ele><time>2026-03-22T13:08:06Z</time></trkpt><trkpt lat="41.19845087150896" lon="15.003882504851346"><ele>350.1666666666667</ele><time>2026-03-22T13:08:07Z</time></trkpt><trkpt lat="41.19842502206016" lon="15.003988819249477"><ele>353.0</ele><time>2026-03-22T13:08:08Z</time></trkpt><trkpt lat="41.19840378371149" lon="15.004124503890814"><ele>353.1666666666667</ele><time>2026-03-22T13:08:09Z</time></trkpt><trkpt lat="41.19839024905317" lon="15.004281410038164"><ele>353.33333333333337</ele><time>2026-03-22T13:08:10Z</time></trkpt><trkpt lat="41.19837267943636" lon="15.004394749798184"><ele>353.5</ele><time>2026-03-22T13:08:11Z</time></trkpt><trkpt lat="41.19834943591679" lon="15.004488293191297"><ele>353.6666666666667</ele><time>2026-03-22T13:08:12Z</time></trkpt><trkpt lat="41.19831628443162" lon="15.004566554007793"><ele>353.8333333333333</ele><time>2026-03-22T13:08:13Z</time></trkpt><trkpt lat="41.19826019150792" lon="15.004626134320096"><ele>354.0</ele><time>2026-03-22T13:08:14Z</time></trkpt><trkpt lat="41.19819037744155" lon="15.004684807100984"><ele>358.2</ele><time>2026-03-22T13:08:15Z</time></trkpt><trkpt lat="41.19812139288603" lon="15.004734793106461"><ele>362.4</ele><time>2026-03-22T13:08:16Z</time></trkpt><trkpt lat="41.19804296023576" lon="15.00476188861305"><ele>366.6</ele><time>2026-03-22T13:08:17Z</time></trkpt><trkpt lat="41.19796219541379" lon="15.004832489108471"><ele>370.8</ele><time>2026-03-22T13:08:18Z</time></trkpt><trkpt lat="41.197857708498944" lon="15.004915411263465"><ele>375.0</ele><time>2026-03-22T13:08:19Z</time></trkpt><trkpt lat="41.19776678842561" lon="15.004968492204776"><ele>373.2</ele><time>2026-03-22T13:08:20Z</time></trkpt><trkpt lat="41.19769106692713" lon="15.0050082849324"><ele>371.4</ele><time>2026-03-22T13:08:21Z</time></trkpt><trkpt lat="41.1976047970682" lon="15.00504741883842"><ele>369.6</ele><time>2026-03-22T13:08:22Z</time></trkpt><trkpt lat="41.19752016425075" lon="15.005059867637696"><ele>367.8</ele><time>2026-03-22T13:08:24Z</time></trkpt><trkpt lat="41.197463899159786" lon="15.005187796956376"><ele>366.0</ele><time>2026-03-22T13:08:26Z</time></trkpt><trkpt lat="41.19749498182473" lon="15.005323515035355"><ele>366.0</ele><time>2026-03-22T13:08:28Z</time></trkpt><trkpt lat="41.19751680916458" lon="15.005498576792007"><ele>366.0</ele><time>2026-03-22T13:08:30Z</time></trkpt><trkpt lat="41.197516869303534" lon="15.005586660133863"><ele>366.0</ele><time>2026-03-22T13:08:32Z</time></trkpt><trkpt lat="41.1974860232436" lon="15.005690404255404"><ele>366.0</ele><time>2026-03-22T13:08:35Z</time></trkpt><trkpt lat="41.19742202749287" lon="15.005749303199973"><ele>366.0</ele><time>2026-03-22T13:08:38Z</time></trkpt><trkpt lat="41.19739559452096" lon="15.005906863310365"><ele>366.20000000000005</ele><time>2026-03-22T13:08:41Z</time></trkpt><trkpt lat="41.19738297751952" lon="15.006087520506844"><ele>366.40000000000003</ele><time>2026-03-22T13:08:42Z</time></trkpt><trkpt lat="41.19745053623694" lon="15.006209699019431"><ele>366.6</ele><time>2026-03-22T13:08:43Z</time></trkpt><trkpt lat="41.19744642298825" lon="15.006304485750565"><ele>366.8</ele><time>2026-03-22T13:08:45Z</time></trkpt><trkpt lat="41.197414945937425" lon="15.006177578839537"><ele>367.0</ele><time>2026-03-22T13:09:21Z</time></trkpt><trkpt lat="41.197445082258724" lon="15.00627499941832"><ele>367.0</ele><time>2026-03-22T13:09:23Z</time></trkpt><trkpt lat="41.19741808292684" lon="15.006365861380335"><ele>367.0</ele><time>2026-03-22T13:09:25Z</time></trkpt><trkpt lat="41.19741855397631" lon="15.006476132413242"><ele>367.0</ele><time>2026-03-22T13:09:27Z</time></trkpt><trkpt lat="41.19744727511518" lon="15.006598941865345"><ele>367.0</ele><time>2026-03-22T13:09:29Z</time></trkpt><trkpt lat="41.19744701555213" lon="15.006749629059426"><ele>367.0</ele><time>2026-03-22T13:09:31Z</time></trkpt><trkpt lat="41.197425874749214" lon="15.00688371316315"><ele>367.85714285714283</ele><time>2026-03-22T13:09:33Z</time></trkpt><trkpt lat="41.197488871408424" lon="15.006895400746739"><ele>368.7142857142857</ele><time>2026-03-22T13:09:36Z</time></trkpt><trkpt lat="41.197535061990855" lon="15.006829104462158"><ele>369.57142857142856</ele><time>2026-03-22T13:09:39Z</time></trkpt><trkpt lat="41.19760634492731" lon="15.00680761410713"><ele>370.42857142857144</ele><time>2026-03-22T13:09:42Z</time></trkpt><trkpt lat="41.19768954899524" lon="15.006803042738087"><ele>371.28571428571433</ele><time>2026-03-22T13:11:13Z</time></trkpt><trkpt lat="41.19773407719965" lon="15.006869779977217"><ele>372.14285714285717</ele><time>2026-03-22T13:11:14Z</time></trkpt><trkpt lat="41.19779913248125" lon="15.006953008633786"><ele>373.0</ele><time>2026-03-22T13:11:16Z</time></trkpt><trkpt lat="41.19783618146351" lon="15.006871310893045"><ele>373.0</ele><time>2026-03-22T13:11:28Z</time></trkpt><trkpt lat="41.19795387517371" lon="15.006749957687134"><ele>373.0</ele><time>2026-03-22T13:17:18Z</time></trkpt><trkpt lat="41.198007396042975" lon="15.006816159737854"><ele>373.0</ele><time>2026-03-22T13:17:19Z</time></trkpt><trkpt lat="41.19804010329188" lon="15.006895137211398"><ele>373.0</ele><time>2026-03-22T13:17:21Z</time></trkpt><trkpt lat="41.19808538931171" lon="15.006957518479703"><ele>373.0</ele><time>2026-03-22T13:17:25Z</time></trkpt><trkpt lat="41.19815980270313" lon="15.006977839214855"><ele>373.0</ele><time>2026-03-22T13:17:28Z</time></trkpt><trkpt lat="41.19822796991962" lon="15.006938017909045"><ele>373.0</ele><time>2026-03-22T13:17:33Z</time></trkpt><trkpt lat="41.19829791156558" lon="15.006947374689377"><ele>373.0</ele><time>2026-03-22T13:17:59Z</time></trkpt><trkpt lat="41.19822683322989" lon="15.00694636408345"><ele>373.0</ele><time>2026-03-22T13:18:33Z</time></trkpt><trkpt lat="41.19816597688634" lon="15.006977822890839"><ele>373.0</ele><time>2026-03-22T13:18:40Z</time></trkpt><trkpt lat="41.198091003863915" lon="15.007011774200489"><ele>373.0</ele><time>2026-03-22T13:18:59Z</time></trkpt><trkpt lat="41.198157501249206" lon="15.006990513974706"><ele>373.0</ele><time>2026-03-22T13:25:14.999Z</time></trkpt><trkpt lat="41.19823657298278" lon="15.006953007888152"><ele>373.0</ele><time>2026-03-22T13:25:45Z</time></trkpt><trkpt lat="41.19830660781261" lon="15.006950217392069"><ele>372.5</ele><time>2026-03-22T13:25:52Z</time></trkpt><trkpt lat="41.19837426289716" lon="15.006959759082484"><ele>372.0</ele><time>2026-03-22T13:26:28Z</time></trkpt><trkpt lat="41.1984277495763" lon="15.00701601264409"><ele>371.5</ele><time>2026-03-22T13:26:30Z</time></trkpt><trkpt lat="41.198479297912655" lon="15.007100729208915"><ele>371.0</ele><time>2026-03-22T13:26:32Z</time></trkpt><trkpt lat="41.198531706961894" lon="15.007000323133898"><ele>370.5</ele><time>2026-03-22T13:26:34Z</time></trkpt><trkpt lat="41.19859128435247" lon="15.006877441739586"><ele>370.0</ele><time>2026-03-22T13:26:36Z</time></trkpt><trkpt lat="41.19864774598949" lon="15.006752472002185"><ele>370.0</ele><time>2026-03-22T13:26:38Z</time></trkpt><trkpt lat="41.19871575490614" lon="15.00666236784644"><ele>370.0</ele><time>2026-03-22T13:26:40Z</time></trkpt><trkpt lat="41.19868400540559" lon="15.00652031523905"><ele>370.0</ele><time>2026-03-22T13:26:42Z</time></trkpt><trkpt lat="41.198685708179696" lon="15.00642254425419"><ele>370.0</ele><time>2026-03-22T13:26:43Z</time></trkpt><trkpt lat="41.198669890659005" lon="15.006336494839308"><ele>370.0</ele><time>2026-03-22T13:26:44Z</time></trkpt><trkpt lat="41.19865805934143" lon="15.00624667534351"><ele>370.0</ele><time>2026-03-22T13:26:46Z</time></trkpt><trkpt lat="41.19874012248748" lon="15.006205188375487"><ele>366.66666666666663</ele><time>2026-03-22T13:26:48Z</time></trkpt><trkpt lat="41.19882241646373" lon="15.006187574471488"><ele>363.3333333333333</ele><time>2026-03-22T13:26:49Z</time></trkpt><trkpt lat="41.19889338397128" lon="15.006140732872595"><ele>360.0</ele><time>2026-03-22T13:26:50Z</time></trkpt><trkpt lat="41.19898330288693" lon="15.006116173800882"><ele>356.6666666666667</ele><time>2026-03-22T13:26:52Z</time></trkpt><trkpt lat="41.1990239316363" lon="15.006187939497599"><ele>353.33333333333337</ele><time>2026-03-22T13:26:53Z</time></trkpt><trkpt lat="41.19903069972604" lon="15.006294555129626"><ele>350.0</ele><time>2026-03-22T13:26:54Z</time></trkpt><trkpt lat="41.19906255095211" lon="15.00638948048611"><ele>349.5</ele><time>2026-03-22T13:26:55Z</time></trkpt><trkpt lat="41.199100466820624" lon="15.006496789402277"><ele>349.0</ele><time>2026-03-22T13:26:56Z</time></trkpt><trkpt lat="41.19913465199619" lon="15.006619030961806"><ele>348.5</ele><time>2026-03-22T13:26:57Z</time></trkpt><trkpt lat="41.19916100106394" lon="15.006705689761176"><ele>348.0</ele><time>2026-03-22T13:26:58Z</time></trkpt><trkpt lat="41.199106977698214" lon="15.006759076589113"><ele>347.5</ele><time>2026-03-22T13:27:06.999Z</time></trkpt><trkpt lat="41.19903955005277" lon="15.006809372790284"><ele>347.0</ele><time>2026-03-22T13:27:08.999Z</time></trkpt><trkpt lat="41.198966026701534" lon="15.006869293649691"><ele>350.83333333333337</ele><time>2026-03-22T13:27:10.999Z</time></trkpt><trkpt lat="41.198904476900886" lon="15.006905686734079"><ele>354.6666666666667</ele><time>2026-03-22T13:27:11.999Z</time></trkpt><trkpt lat="41.198819553512585" lon="15.006971002327745"><ele>358.5</ele><time>2026-03-22T13:27:12.999Z</time></trkpt><trkpt lat="41.198736567743985" lon="15.007046588708528"><ele>362.3333333333333</ele><time>2026-03-22T13:27:13.999Z</time></trkpt><trkpt lat="41.198668560021545" lon="15.007106455004166"><ele>366.16666666666663</ele><time>2026-03-22T13:27:14.999Z</time></trkpt><trkpt lat="41.19860438103672" lon="15.00715750578034"><ele>370.0</ele><time>2026-03-22T13:27:15.999Z</time></trkpt><trkpt lat="41.19853594328666" lon="15.007219105411085"><ele>370.0</ele><time>2026-03-22T13:27:16.999Z</time></trkpt><trkpt lat="41.19848336432422" lon="15.007333084283019"><ele>370.0</ele><time>2026-03-22T13:27:19Z</time></trkpt><trkpt lat="41.198553868896994" lon="15.007484216309468"><ele>370.0</ele><time>2026-03-22T13:27:21Z</time></trkpt><trkpt lat="41.19861944749601" lon="15.00752924132349"><ele>370.0</ele><time>2026-03-22T13:27:22Z</time></trkpt><trkpt lat="41.19870777017305" lon="15.007539175077682"><ele>370.0</ele><time>2026-03-22T13:27:23Z</time></trkpt><trkpt lat="41.19881204052712" lon="15.007541678240313"><ele>376.75</ele><time>2026-03-22T13:27:24Z</time></trkpt><trkpt lat="41.198908940404074" lon="15.007577755205322"><ele>383.5</ele><time>2026-03-22T13:27:25Z</time></trkpt><trkpt lat="41.198999415468485" lon="15.007671611333025"><ele>390.25</ele><time>2026-03-22T13:27:26Z</time></trkpt><trkpt lat="41.199100160084484" lon="15.00777036381039"><ele>397.0</ele><time>2026-03-22T13:27:27Z</time></trkpt><trkpt lat="41.19920553067355" lon="15.007851141556579"><ele>398.75</ele><time>2026-03-22T13:27:28Z</time></trkpt><trkpt lat="41.19931535795787" lon="15.00789053375288"><ele>400.5</ele><time>2026-03-22T13:27:29Z</time></trkpt><trkpt lat="41.19944330673615" lon="15.007935489626176"><ele>402.25</ele><time>2026-03-22T13:27:30Z</time></trkpt><trkpt lat="41.19954227040179" lon="15.008001079178186"><ele>404.0</ele><time>2026-03-22T13:27:31Z</time></trkpt><trkpt lat="41.19965098372434" lon="15.008093958351848"><ele>404.0</ele><time>2026-03-22T13:27:32Z</time></trkpt><trkpt lat="41.19975303807575" lon="15.00815917150434"><ele>404.0</ele><time>2026-03-22T13:27:33Z</time></trkpt><trkpt lat="41.199866667824836" lon="15.008219613555786"><ele>404.0</ele><time>2026-03-22T13:27:34Z</time></trkpt><trkpt lat="41.19999915785108" lon="15.008314375048904"><ele>404.0</ele><time>2026-03-22T13:27:35Z</time></trkpt><trkpt lat="41.200114820300385" lon="15.008449039273108"><ele>408.4</ele><time>2026-03-22T13:27:36Z</time></trkpt><trkpt lat="41.20020842701783" lon="15.008556773831897"><ele>412.79999999999995</ele><time>2026-03-22T13:27:37Z</time></trkpt><trkpt lat="41.200275063106986" lon="15.008600288819038"><ele>417.20000000000005</ele><time>2026-03-22T13:27:38Z</time></trkpt><trkpt lat="41.200244744403996" lon="15.008689853786517"><ele>421.6</ele><time>2026-03-22T13:27:43Z</time></trkpt><trkpt lat="41.2001829085707" lon="15.008707079780232"><ele>426.0</ele><time>2026-03-22T13:27:44Z</time></trkpt><trkpt lat="41.199987089010854" lon="15.008753400889596"><ele>426.0</ele><time>2026-03-22T13:27:47Z</time></trkpt><trkpt lat="41.199902892824404" lon="15.008744573959177"><ele>426.0</ele><time>2026-03-22T13:27:48Z</time></trkpt><trkpt lat="41.19981172192273" lon="15.00872907332721"><ele>426.0</ele><time>2026-03-22T13:27:49Z</time></trkpt><trkpt lat="41.19972753482373" lon="15.008707277582111"><ele>426.0</ele><time>2026-03-22T13:27:50Z</time></trkpt><trkpt lat="41.199635781909144" lon="15.008648106969858"><ele>426.0</ele><time>2026-03-22T13:27:51Z</time></trkpt><trkpt lat="41.19954298052717" lon="15.008633500061975"><ele>426.8333333333333</ele><time>2026-03-22T13:27:52Z</time></trkpt><trkpt lat="41.199470783422655" lon="15.008659419260471"><ele>427.66666666666663</ele><time>2026-03-22T13:27:53Z</time></trkpt><trkpt lat="41.19941690101413" lon="15.00872560276939"><ele>428.5</ele><time>2026-03-22T13:27:54Z</time></trkpt><trkpt lat="41.19935832786221" lon="15.008785571735558"><ele>429.3333333333333</ele><time>2026-03-22T13:27:55Z</time></trkpt><trkpt lat="41.199310813063875" lon="15.008860419016521"><ele>430.16666666666663</ele><time>2026-03-22T13:27:56Z</time></trkpt><trkpt lat="41.19927207079381" lon="15.00897073881992"><ele>431.0</ele><time>2026-03-22T13:27:57Z</time></trkpt><trkpt lat="41.1992415075173" lon="15.009077882843124"><ele>432.3333333333333</ele><time>2026-03-22T13:27:58Z</time></trkpt><trkpt lat="41.199208070819026" lon="15.009165073960263"><ele>433.66666666666663</ele><time>2026-03-22T13:27:59Z</time></trkpt><trkpt lat="41.199160025109705" lon="15.009265695825802"><ele>435.0</ele><time>2026-03-22T13:28:00Z</time></trkpt><trkpt lat="41.199114349343056" lon="15.009347077956933"><ele>436.33333333333337</ele><time>2026-03-22T13:28:01Z</time></trkpt><trkpt lat="41.19905510147854" lon="15.009391392935573"><ele>437.6666666666667</ele><time>2026-03-22T13:28:02Z</time></trkpt><trkpt lat="41.198995020440414" lon="15.009471438373806"><ele>439.0</ele><time>2026-03-22T13:28:03Z</time></trkpt><trkpt lat="41.198931503133025" lon="15.009548962169148"><ele>439.0</ele><time>2026-03-22T13:28:04Z</time></trkpt><trkpt lat="41.19887204979524" lon="15.009632142231387"><ele>439.0</ele><time>2026-03-22T13:28:05Z</time></trkpt><trkpt lat="41.19879882342785" lon="15.009724961356511"><ele>439.0</ele><time>2026-03-22T13:28:06Z</time></trkpt><trkpt lat="41.19873774908626" lon="15.009825675598275"><ele>439.0</ele><time>2026-03-22T13:28:07Z</time></trkpt><trkpt lat="41.19866620118644" lon="15.009935159194136"><ele>439.0</ele><time>2026-03-22T13:28:08Z</time></trkpt><trkpt lat="41.198597192382806" lon="15.010095007806466"><ele>441.0</ele><time>2026-03-22T13:28:09Z</time></trkpt><trkpt lat="41.19852356625092" lon="15.01027641729316"><ele>443.0</ele><time>2026-03-22T13:28:10Z</time></trkpt><trkpt lat="41.19846555903318" lon="15.010458763646932"><ele>445.0</ele><time>2026-03-22T13:28:11Z</time></trkpt><trkpt lat="41.19840178741638" lon="15.010640705033936"><ele>445.0</ele><time>2026-03-22T13:28:12Z</time></trkpt><trkpt lat="41.198321403929356" lon="15.010811061664777"><ele>445.0</ele><time>2026-03-22T13:28:13Z</time></trkpt><trkpt lat="41.198197225750626" lon="15.01095791343118"><ele>445.0</ele><time>2026-03-22T13:28:14Z</time></trkpt><trkpt lat="41.198121201278596" lon="15.011120584088307"><ele>445.5</ele><time>2026-03-22T13:28:15Z</time></trkpt><trkpt lat="41.19805484414037" lon="15.011277373839686"><ele>446.0</ele><time>2026-03-22T13:28:16Z</time></trkpt><trkpt lat="41.19799839249494" lon="15.011417570582358"><ele>446.5</ele><time>2026-03-22T13:28:17Z</time></trkpt><trkpt lat="41.19794634112653" lon="15.01154485592685"><ele>447.0</ele><time>2026-03-22T13:28:18Z</time></trkpt><trkpt lat="41.197898304807275" lon="15.01166971305757"><ele>450.25</ele><time>2026-03-22T13:28:19Z</time></trkpt><trkpt lat="41.19784722257017" lon="15.011767470937142"><ele>453.5</ele><time>2026-03-22T13:28:20Z</time></trkpt><trkpt lat="41.19777117071878" lon="15.011876054589635"><ele>456.75</ele><time>2026-03-22T13:28:21Z</time></trkpt><trkpt lat="41.19767798103396" lon="15.011994542901256"><ele>460.0</ele><time>2026-03-22T13:28:22Z</time></trkpt><trkpt lat="41.1975821139594" lon="15.012119640984324"><ele>460.0</ele><time>2026-03-22T13:28:23Z</time></trkpt><trkpt lat="41.197492648353276" lon="15.012236864197703"><ele>460.0</ele><time>2026-03-22T13:28:24Z</time></trkpt><trkpt lat="41.19741186632252" lon="15.012342709670852"><ele>460.0</ele><time>2026-03-22T13:28:25Z</time></trkpt><trkpt lat="41.19734354611866" lon="15.012428793754882"><ele>460.0</ele><time>2026-03-22T13:28:26Z</time></trkpt><trkpt lat="41.197282299442904" lon="15.012504063613541"><ele>460.0</ele><time>2026-03-22T13:28:27Z</time></trkpt><trkpt lat="41.19722740153127" lon="15.012591533713007"><ele>460.25</ele><time>2026-03-22T13:28:28Z</time></trkpt><trkpt lat="41.19717822395018" lon="15.012712250524492"><ele>460.5</ele><time>2026-03-22T13:28:29Z</time></trkpt><trkpt lat="41.19716787237522" lon="15.012880590577208"><ele>460.75</ele><time>2026-03-22T13:28:30Z</time></trkpt><trkpt lat="41.1971213558087" lon="15.013023009718035"><ele>461.0</ele><time>2026-03-22T13:28:31.001Z</time></trkpt><trkpt lat="41.19707255323995" lon="15.013160872255455"><ele>461.0</ele><time>2026-03-22T13:28:32.001Z</time></trkpt><trkpt lat="41.1970174787799" lon="15.013292433598627"><ele>461.0</ele><time>2026-03-22T13:28:33.001Z</time></trkpt><trkpt lat="41.196932399001504" lon="15.013416257752107"><ele>461.0</ele><time>2026-03-22T13:28:34.001Z</time></trkpt><trkpt lat="41.19690755027504" lon="15.01356963406455"><ele>461.0</ele><time>2026-03-22T13:28:35.001Z</time></trkpt><trkpt lat="41.19688658695181" lon="15.013727037010916"><ele>462.6</ele><time>2026-03-22T13:28:36.001Z</time></trkpt><trkpt lat="41.196863617151514" lon="15.013900324365954"><ele>464.20000000000005</ele><time>2026-03-22T13:28:37.001Z</time></trkpt><trkpt lat="41.19684507355103" lon="15.014047345258724"><ele>465.79999999999995</ele><time>2026-03-22T13:28:38.001Z</time></trkpt><trkpt lat="41.19682126778745" lon="15.014175768742565"><ele>467.4</ele><time>2026-03-22T13:28:39.001Z</time></trkpt><trkpt lat="41.19678382446154" lon="15.014280491660804"><ele>469.0</ele><time>2026-03-22T13:28:40.001Z</time></trkpt><trkpt lat="41.196735821724886" lon="15.014383919797831"><ele>469.83333333333337</ele><time>2026-03-22T13:28:41.001Z</time></trkpt><trkpt lat="41.19669146672558" lon="15.014505004781155"><ele>470.6666666666667</ele><time>2026-03-22T13:28:42.001Z</time></trkpt><trkpt lat="41.196648617213185" lon="15.014625347411863"><ele>471.5</ele><time>2026-03-22T13:28:43.001Z</time></trkpt><trkpt lat="41.19661025221933" lon="15.014733095303226"><ele>472.33333333333337</ele><time>2026-03-22T13:28:44.001Z</time></trkpt><trkpt lat="41.19657727439675" lon="15.014825604364084"><ele>473.1666666666667</ele><time>2026-03-22T13:28:45.001Z</time></trkpt><trkpt lat="41.19654811519971" lon="15.014905224690366"><ele>474.0</ele><time>2026-03-22T13:28:47.001Z</time></trkpt><trkpt lat="41.1965122412254" lon="15.01500317997815"><ele>475.1666666666667</ele><time>2026-03-22T13:28:50.001Z</time></trkpt><trkpt lat="41.19647561473825" lon="15.015103190028036"><ele>476.33333333333337</ele><time>2026-03-22T13:28:52.001Z</time></trkpt><trkpt lat="41.19643419511761" lon="15.015216287916608"><ele>477.5</ele><time>2026-03-22T13:28:54.001Z</time></trkpt><trkpt lat="41.19640527711053" lon="15.01529524966833"><ele>478.6666666666667</ele><time>2026-03-22T13:28:56.001Z</time></trkpt><trkpt lat="41.19637389360449" lon="15.015388024446409"><ele>479.83333333333337</ele><time>2026-03-22T13:28:58.001Z</time></trkpt><trkpt lat="41.19634676106412" lon="15.01547127784093"><ele>481.0</ele><time>2026-03-22T13:29:00.001Z</time></trkpt><trkpt lat="41.19629146754385" lon="15.015372791893313"><ele>481.00000000000006</ele><time>2026-03-22T13:29:03.001Z</time></trkpt><trkpt lat="41.19623123164235" lon="15.015306437167945"><ele>481.0</ele><time>2026-03-22T13:29:04.001Z</time></trkpt><trkpt lat="41.19616003765613" lon="15.015247356647851"><ele>481.0</ele><time>2026-03-22T13:29:05.001Z</time></trkpt><trkpt lat="41.19605597324495" lon="15.015203562784778"><ele>481.0</ele><time>2026-03-22T13:29:06.001Z</time></trkpt><trkpt lat="41.19597475831075" lon="15.01515666323449"><ele>481.00000000000006</ele><time>2026-03-22T13:29:07.001Z</time></trkpt><trkpt lat="41.19591750686484" lon="15.015096769792772"><ele>481.0</ele><time>2026-03-22T13:29:08.001Z</time></trkpt><trkpt lat="41.19586677757007" lon="15.015010406251449"><ele>479.83333333333337</ele><time>2026-03-22T13:29:09.001Z</time></trkpt><trkpt lat="41.195842481116394" lon="15.014913468236854"><ele>478.6666666666667</ele><time>2026-03-22T13:29:10.001Z</time></trkpt><trkpt lat="41.195823503564874" lon="15.01479761525443"><ele>477.5</ele><time>2026-03-22T13:29:11.001Z</time></trkpt><trkpt lat="41.19580564021339" lon="15.014693161646639"><ele>476.33333333333337</ele><time>2026-03-22T13:29:12.001Z</time></trkpt><trkpt lat="41.19578251025079" lon="15.014604110611268"><ele>475.1666666666667</ele><time>2026-03-22T13:29:13.001Z</time></trkpt><trkpt lat="41.19574514690728" lon="15.014509830564883"><ele>474.0</ele><time>2026-03-22T13:29:14.001Z</time></trkpt><trkpt lat="41.19569610601879" lon="15.014432094176067"><ele>474.0</ele><time>2026-03-22T13:29:15.001Z</time></trkpt><trkpt lat="41.1956369023391" lon="15.014368066219816"><ele>474.0</ele><time>2026-03-22T13:29:16.001Z</time></trkpt><trkpt lat="41.195573771878756" lon="15.014322711625393"><ele>474.0</ele><time>2026-03-22T13:29:17.001Z</time></trkpt><trkpt lat="41.195507863832205" lon="15.014270180943514"><ele>474.0</ele><time>2026-03-22T13:29:18.001Z</time></trkpt><trkpt lat="41.195454000789454" lon="15.014217516141048"><ele>474.0</ele><time>2026-03-22T13:29:19.001Z</time></trkpt><trkpt lat="41.19539553831435" lon="15.01416380188573"><ele>474.0</ele><time>2026-03-22T13:29:20.001Z</time></trkpt><trkpt lat="41.195296748694055" lon="15.014021751815918"><ele>474.0</ele><time>2026-03-22T13:29:21.001Z</time></trkpt><trkpt lat="41.19521811324336" lon="15.014008189006569"><ele>474.0</ele><time>2026-03-22T13:29:22.001Z</time></trkpt><trkpt lat="41.195119762015324" lon="15.013991225676266"><ele>474.0</ele><time>2026-03-22T13:29:24.001Z</time></trkpt><trkpt lat="41.195013407366964" lon="15.013973666961176"><ele>474.0</ele><time>2026-03-22T13:29:26.001Z</time></trkpt><trkpt lat="41.19495274331802" lon="15.013945006460336"><ele>474.0</ele><time>2026-03-22T13:29:28.001Z</time></trkpt><trkpt lat="41.194847280376585" lon="15.01394764711307"><ele>476.79999999999995</ele><time>2026-03-22T13:29:30.001Z</time></trkpt><trkpt lat="41.194799731425434" lon="15.014024766376219"><ele>479.59999999999997</ele><time>2026-03-22T13:29:31.001Z</time></trkpt><trkpt lat="41.1947803613933" lon="15.014152817684002"><ele>482.4</ele><time>2026-03-22T13:29:32.001Z</time></trkpt><trkpt lat="41.19475866494185" lon="15.01431469639376"><ele>485.2</ele><time>2026-03-22T13:29:33.001Z</time></trkpt><trkpt lat="41.19472169658907" lon="15.014475254012925"><ele>488.0</ele><time>2026-03-22T13:29:34.001Z</time></trkpt><trkpt lat="41.19469908893766" lon="15.014608578341237"><ele>490.0</ele><time>2026-03-22T13:29:35.001Z</time></trkpt><trkpt lat="41.19469594550037" lon="15.014741113708372"><ele>491.99999999999994</ele><time>2026-03-22T13:29:37.001Z</time></trkpt><trkpt lat="41.19467438011131" lon="15.014858320809036"><ele>493.99999999999994</ele><time>2026-03-22T13:29:38.001Z</time></trkpt><trkpt lat="41.19463105694757" lon="15.014996357668444"><ele>496.0</ele><time>2026-03-22T13:29:39.001Z</time></trkpt><trkpt lat="41.19457819866627" lon="15.015149781597547"><ele>498.0</ele><time>2026-03-22T13:29:40.001Z</time></trkpt><trkpt lat="41.194521897147766" lon="15.015297836765692"><ele>499.1666666666667</ele><time>2026-03-22T13:29:41.001Z</time></trkpt><trkpt lat="41.19446101293486" lon="15.015432640621613"><ele>500.33333333333337</ele><time>2026-03-22T13:29:42.001Z</time></trkpt><trkpt lat="41.194423332992045" lon="15.015509092483168"><ele>501.5</ele><time>2026-03-22T13:29:43.001Z</time></trkpt><trkpt lat="41.194375547574396" lon="15.015589359662751"><ele>502.6666666666667</ele><time>2026-03-22T13:29:44.001Z</time></trkpt><trkpt lat="41.19433751191143" lon="15.015662556671476"><ele>503.83333333333337</ele><time>2026-03-22T13:29:45.001Z</time></trkpt><trkpt lat="41.19434127652689" lon="15.015757062532257"><ele>505.0</ele><time>2026-03-22T13:29:46.001Z</time></trkpt><trkpt lat="41.19439068671942" lon="15.015822072728376"><ele>505.4</ele><time>2026-03-22T13:29:47.001Z</time></trkpt><trkpt lat="41.19445440836579" lon="15.0159004215683"><ele>505.8</ele><time>2026-03-22T13:29:48.001Z</time></trkpt><trkpt lat="41.194510586340876" lon="15.01602021547734"><ele>506.20000000000005</ele><time>2026-03-22T13:29:49.001Z</time></trkpt><trkpt lat="41.194540305989705" lon="15.016146103433487"><ele>506.6</ele><time>2026-03-22T13:29:50.001Z</time></trkpt><trkpt lat="41.194546773397335" lon="15.0162715759118"><ele>507.0</ele><time>2026-03-22T13:29:51.001Z</time></trkpt><trkpt lat="41.19454089019325" lon="15.016401894415258"><ele>507.0</ele><time>2026-03-22T13:29:52.001Z</time></trkpt><trkpt lat="41.194526184579914" lon="15.016522590905968"><ele>507.00000000000006</ele><time>2026-03-22T13:29:53.001Z</time></trkpt><trkpt lat="41.19451791632082" lon="15.016660088802066"><ele>507.00000000000006</ele><time>2026-03-22T13:29:54.001Z</time></trkpt><trkpt lat="41.19450995742714" lon="15.016791300718344"><ele>507.0</ele><time>2026-03-22T13:29:55.001Z</time></trkpt><trkpt lat="41.19447514794969" lon="15.016917580380088"><ele>507.0</ele><time>2026-03-22T13:29:56.001Z</time></trkpt><trkpt lat="41.19443908606109" lon="15.017040732664503"><ele>508.0</ele><time>2026-03-22T13:29:57.001Z</time></trkpt><trkpt lat="41.19439975542791" lon="15.017186663446719"><ele>509.00000000000006</ele><time>2026-03-22T13:29:59.001Z</time></trkpt><trkpt lat="41.19435972757913" lon="15.017305087437885"><ele>510.00000000000006</ele><time>2026-03-22T13:30:01.001Z</time></trkpt><trkpt lat="41.19432169226285" lon="15.01745220047125"><ele>511.0</ele><time>2026-03-22T13:30:03.001Z</time></trkpt><trkpt lat="41.194282344859865" lon="15.017539345299104"><ele>512.0</ele><time>2026-03-22T13:30:04.001Z</time></trkpt><trkpt lat="41.19423218614171" lon="15.0176431872143"><ele>513.2</ele><time>2026-03-22T13:30:05.001Z</time></trkpt><trkpt lat="41.194184126757115" lon="15.017740284645544"><ele>514.4000000000001</ele><time>2026-03-22T13:30:06.001Z</time></trkpt><trkpt lat="41.19413843229691" lon="15.017830183554603"><ele>515.5999999999999</ele><time>2026-03-22T13:30:07.001Z</time></trkpt><trkpt lat="41.19408295930781" lon="15.017941195099104"><ele>516.8</ele><time>2026-03-22T13:30:08.001Z</time></trkpt><trkpt lat="41.194027447520696" lon="15.018064939976272"><ele>518.0</ele><time>2026-03-22T13:30:09.001Z</time></trkpt><trkpt lat="41.19395696413799" lon="15.018190590258603"><ele>520.6</ele><time>2026-03-22T13:30:10.001Z</time></trkpt><trkpt lat="41.1938848519708" lon="15.01831809802663"><ele>523.1999999999999</ele><time>2026-03-22T13:30:11.001Z</time></trkpt><trkpt lat="41.19382985286043" lon="15.018424263572385"><ele>525.8</ele><time>2026-03-22T13:30:12.001Z</time></trkpt><trkpt lat="41.19378172494195" lon="15.018534302526355"><ele>528.4</ele><time>2026-03-22T13:30:13.001Z</time></trkpt><trkpt lat="41.19374741212709" lon="15.018644664177915"><ele>531.0</ele><time>2026-03-22T13:30:14.001Z</time></trkpt><trkpt lat="41.19374037189548" lon="15.018744944557398"><ele>532.4</ele><time>2026-03-22T13:30:15.001Z</time></trkpt><trkpt lat="41.19374644004654" lon="15.0188338540496"><ele>533.8</ele><time>2026-03-22T13:30:16.001Z</time></trkpt><trkpt lat="41.193720041752464" lon="15.018924674981161"><ele>535.1999999999999</ele><time>2026-03-22T13:30:18.001Z</time></trkpt><trkpt lat="41.19368053078239" lon="15.018991506031574"><ele>536.6</ele><time>2026-03-22T13:30:20.001Z</time></trkpt><trkpt lat="41.19354199896202" lon="15.01911439211151"><ele>538.0</ele><time>2026-03-22T13:30:23.001Z</time></trkpt><trkpt lat="41.193449370849564" lon="15.019164362784672"><ele>538.5</ele><time>2026-03-22T13:30:24.001Z</time></trkpt><trkpt lat="41.19337041488448" lon="15.019217915048246"><ele>539.0</ele><time>2026-03-22T13:30:25.001Z</time></trkpt><trkpt lat="41.19329599647909" lon="15.019287427291287"><ele>539.5</ele><time>2026-03-22T13:30:26.001Z</time></trkpt><trkpt lat="41.19320929163899" lon="15.019440825909612"><ele>540.0</ele><time>2026-03-22T13:30:27.001Z</time></trkpt><trkpt lat="41.19312005828254" lon="15.019587602595161"><ele>543.0</ele><time>2026-03-22T13:30:28.001Z</time></trkpt><trkpt lat="41.19302238239574" lon="15.019705559460624"><ele>546.0</ele><time>2026-03-22T13:30:29.001Z</time></trkpt><trkpt lat="41.192934707628716" lon="15.01983556270737"><ele>549.0</ele><time>2026-03-22T13:30:30.001Z</time></trkpt><trkpt lat="41.19283646252604" lon="15.019956152366127"><ele>552.0</ele><time>2026-03-22T13:30:31.001Z</time></trkpt><trkpt lat="41.19274238729013" lon="15.020072092934194"><ele>552.0</ele><time>2026-03-22T13:30:32.001Z</time></trkpt><trkpt lat="41.192658307236705" lon="15.020204322299548"><ele>552.0</ele><time>2026-03-22T13:30:33.001Z</time></trkpt><trkpt lat="41.192579867605794" lon="15.0203268647395"><ele>552.0</ele><time>2026-03-22T13:30:34.001Z</time></trkpt><trkpt lat="41.19248435610359" lon="15.020440864282609"><ele>552.0</ele><time>2026-03-22T13:30:35.001Z</time></trkpt><trkpt lat="41.19242910919352" lon="15.020555217922228"><ele>552.0</ele><time>2026-03-22T13:30:36.001Z</time></trkpt><trkpt lat="41.19238187616982" lon="15.020695405488791"><ele>552.0</ele><time>2026-03-22T13:30:37.001Z</time></trkpt><trkpt lat="41.19235219322596" lon="15.02079874631408"><ele>552.0</ele><time>2026-03-22T13:30:38.001Z</time></trkpt><trkpt lat="41.1924003415626" lon="15.02095013152399"><ele>552.0</ele><time>2026-03-22T13:30:39.001Z</time></trkpt><trkpt lat="41.19240663791219" lon="15.021058256126151"><ele>552.0</ele><time>2026-03-22T13:30:40.001Z</time></trkpt><trkpt lat="41.19242068943536" lon="15.021181459415589"><ele>551.1666666666666</ele><time>2026-03-22T13:30:41.001Z</time></trkpt><trkpt lat="41.19242455099209" lon="15.02132429553005"><ele>550.3333333333334</ele><time>2026-03-22T13:30:43.001Z</time></trkpt><trkpt lat="41.192409202842676" lon="15.021407290686875"><ele>549.5</ele><time>2026-03-22T13:30:45.001Z</time></trkpt><trkpt lat="41.19241927418806" lon="15.021490939416843"><ele>548.6666666666667</ele><time>2026-03-22T13:30:46.001Z</time></trkpt><trkpt lat="41.192429962995206" lon="15.021598380835"><ele>547.8333333333334</ele><time>2026-03-22T13:30:47.001Z</time></trkpt><trkpt lat="41.192439622073586" lon="15.021732465266302"><ele>547.0</ele><time>2026-03-22T13:30:48.001Z</time></trkpt><trkpt lat="41.19244450611857" lon="15.021875201909422"><ele>547.0</ele><time>2026-03-22T13:30:49.001Z</time></trkpt><trkpt lat="41.192446646668344" lon="15.022027394836234"><ele>547.0</ele><time>2026-03-22T13:30:50.001Z</time></trkpt><trkpt lat="41.19244610370139" lon="15.02218133364626"><ele>547.0</ele><time>2026-03-22T13:30:51.001Z</time></trkpt><trkpt lat="41.192444854563014" lon="15.022348874581311"><ele>547.0</ele><time>2026-03-22T13:30:52.001Z</time></trkpt><trkpt lat="41.192443549450985" lon="15.022523922819136"><ele>548.75</ele><time>2026-03-22T13:30:53.001Z</time></trkpt><trkpt lat="41.19244109076524" lon="15.022701225287594"><ele>550.5</ele><time>2026-03-22T13:30:54.001Z</time></trkpt><trkpt lat="41.192438088169034" lon="15.022869732541421"><ele>552.25</ele><time>2026-03-22T13:30:55.001Z</time></trkpt><trkpt lat="41.1924350655928" lon="15.023039361261025"><ele>554.0</ele><time>2026-03-22T13:30:56.001Z</time></trkpt><trkpt lat="41.19243201713909" lon="15.02321044211942"><ele>553.5</ele><time>2026-03-22T13:30:57.001Z</time></trkpt><trkpt lat="41.19242894100254" lon="15.023383540913866"><ele>553.0</ele><time>2026-03-22T13:30:58.001Z</time></trkpt><trkpt lat="41.19242790973118" lon="15.023554401842047"><ele>552.5</ele><time>2026-03-22T13:30:59.001Z</time></trkpt><trkpt lat="41.19242957202644" lon="15.023719384708286"><ele>552.0</ele><time>2026-03-22T13:31:00.001Z</time></trkpt><trkpt lat="41.19243345739712" lon="15.023880906459985"><ele>552.0</ele><time>2026-03-22T13:31:01.001Z</time></trkpt><trkpt lat="41.19244244658008" lon="15.02403982636444"><ele>552.0</ele><time>2026-03-22T13:31:02.001Z</time></trkpt><trkpt lat="41.19247035463825" lon="15.024190723793765"><ele>552.0</ele><time>2026-03-22T13:31:03.001Z</time></trkpt><trkpt lat="41.19247445971423" lon="15.02434398069047"><ele>552.0</ele><time>2026-03-22T13:31:04.001Z</time></trkpt><trkpt lat="41.19250409171193" lon="15.024486251720484"><ele>552.0</ele><time>2026-03-22T13:31:05.001Z</time></trkpt><trkpt lat="41.19250550768196" lon="15.024630123557683"><ele>552.0</ele><time>2026-03-22T13:31:06.001Z</time></trkpt><trkpt lat="41.192516047054745" lon="15.024759487707486"><ele>552.0</ele><time>2026-03-22T13:31:07.001Z</time></trkpt><trkpt lat="41.19252190456573" lon="15.024864290508122"><ele>552.0</ele><time>2026-03-22T13:31:08.001Z</time></trkpt><trkpt lat="41.1925207970194" lon="15.02498926692227"><ele>552.0</ele><time>2026-03-22T13:31:10.001Z</time></trkpt><trkpt lat="41.19236568894701" lon="15.024994908111552"><ele>548.75</ele><time>2026-03-22T13:31:12.001Z</time></trkpt><trkpt lat="41.19224965546183" lon="15.025032903072864"><ele>545.5</ele><time>2026-03-22T13:31:13.001Z</time></trkpt><trkpt lat="41.192115562706825" lon="15.025052542706604"><ele>542.25</ele><time>2026-03-22T13:31:14.001Z</time></trkpt><trkpt lat="41.19197180433257" lon="15.02507519314287"><ele>539.0</ele><time>2026-03-22T13:31:15.001Z</time></trkpt><trkpt lat="41.191827143196875" lon="15.025081159721397"><ele>539.0</ele><time>2026-03-22T13:31:16.001Z</time></trkpt><trkpt lat="41.19168028903799" lon="15.025067541159954"><ele>539.0</ele><time>2026-03-22T13:31:17.001Z</time></trkpt><trkpt lat="41.191536050287624" lon="15.025066359487097"><ele>539.0</ele><time>2026-03-22T13:31:18.001Z</time></trkpt><trkpt lat="41.1914006030103" lon="15.025065260714815"><ele>539.0</ele><time>2026-03-22T13:31:19.001Z</time></trkpt><trkpt lat="41.19126867621069" lon="15.025064000259539"><ele>533.8</ele><time>2026-03-22T13:31:20.001Z</time></trkpt><trkpt lat="41.19114834057605" lon="15.025065144729727"><ele>528.5999999999999</ele><time>2026-03-22T13:31:21.001Z</time></trkpt><trkpt lat="41.19104843039495" lon="15.02506972250477"><ele>523.4</ele><time>2026-03-22T13:31:22.001Z</time></trkpt><trkpt lat="41.19093502765299" lon="15.025071249118193"><ele>518.1999999999999</ele><time>2026-03-22T13:31:23.001Z</time></trkpt><trkpt lat="41.190831360508014" lon="15.025059525168661"><ele>513.0</ele><time>2026-03-22T13:31:24.001Z</time></trkpt><trkpt lat="41.19075804534489" lon="15.025022164217184"><ele>513.0</ele><time>2026-03-22T13:31:25.001Z</time></trkpt><trkpt lat="41.190680716744424" lon="15.02498107207529"><ele>513.0</ele><time>2026-03-22T13:31:26.001Z</time></trkpt><trkpt lat="41.19061172999134" lon="15.024945892676943"><ele>513.0</ele><time>2026-03-22T13:31:27.001Z</time></trkpt><trkpt lat="41.190541004821284" lon="15.02492806644774"><ele>513.0</ele><time>2026-03-22T13:31:28.001Z</time></trkpt><trkpt lat="41.19045231953987" lon="15.024947544097804"><ele>513.0</ele><time>2026-03-22T13:31:29.001Z</time></trkpt><trkpt lat="41.1903671614741" lon="15.025063360691059"><ele>513.0</ele><time>2026-03-22T13:31:30.001Z</time></trkpt><trkpt lat="41.190311807361404" lon="15.025146637819045"><ele>508.6666666666667</ele><time>2026-03-22T13:31:31.001Z</time></trkpt><trkpt lat="41.190284249420166" lon="15.025254337285526"><ele>504.33333333333337</ele><time>2026-03-22T13:31:32.001Z</time></trkpt><trkpt lat="41.19027054922456" lon="15.02534606126835"><ele>500.0</ele><time>2026-03-22T13:31:33.001Z</time></trkpt><trkpt lat="41.19027539826427" lon="15.025440433920904"><ele>495.6666666666667</ele><time>2026-03-22T13:31:34.001Z</time></trkpt><trkpt lat="41.19034384226513" lon="15.025539770513172"><ele>491.33333333333337</ele><time>2026-03-22T13:31:35.001Z</time></trkpt><trkpt lat="41.19039239692286" lon="15.025648734529657"><ele>487.0</ele><time>2026-03-22T13:31:36.001Z</time></trkpt><trkpt lat="41.19046351829815" lon="15.025762640475225"><ele>486.25</ele><time>2026-03-22T13:31:37.001Z</time></trkpt><trkpt lat="41.190509998459085" lon="15.025901879271421"><ele>485.5</ele><time>2026-03-22T13:31:38.001Z</time></trkpt><trkpt lat="41.19054884360668" lon="15.026049141109906"><ele>484.75</ele><time>2026-03-22T13:31:39.001Z</time></trkpt><trkpt lat="41.190577861805224" lon="15.026203188138478"><ele>484.0</ele><time>2026-03-22T13:31:40.001Z</time></trkpt><trkpt lat="41.1905984600881" lon="15.026373199414936"><ele>484.0</ele><time>2026-03-22T13:31:41.001Z</time></trkpt><trkpt lat="41.19061795614428" lon="15.02653891589823"><ele>484.0</ele><time>2026-03-22T13:31:42.001Z</time></trkpt><trkpt lat="41.1906395325987" lon="15.026709271587666"><ele>484.0</ele><time>2026-03-22T13:31:43.001Z</time></trkpt><trkpt lat="41.19065984509005" lon="15.026880159149826"><ele>484.0</ele><time>2026-03-22T13:31:44.001Z</time></trkpt><trkpt lat="41.19066827012707" lon="15.027051725374886"><ele>485.5</ele><time>2026-03-22T13:31:45.001Z</time></trkpt><trkpt lat="41.190657134885804" lon="15.027222812016515"><ele>487.0</ele><time>2026-03-22T13:31:46.001Z</time></trkpt><trkpt lat="41.19065000848276" lon="15.027391837953637"><ele>488.5</ele><time>2026-03-22T13:31:47.001Z</time></trkpt><trkpt lat="41.19065443569268" lon="15.027539187337164"><ele>490.0</ele><time>2026-03-22T13:31:48.001Z</time></trkpt><trkpt lat="41.19067665046735" lon="15.027647151812502"><ele>498.4</ele><time>2026-03-22T13:31:49.001Z</time></trkpt><trkpt lat="41.19070392961926" lon="15.027753159919344"><ele>506.8</ele><time>2026-03-22T13:31:50.001Z</time></trkpt><trkpt lat="41.19076711841344" lon="15.027856665292573"><ele>515.2</ele><time>2026-03-22T13:31:51.001Z</time></trkpt><trkpt lat="41.19083360503103" lon="15.02797756672511"><ele>523.6</ele><time>2026-03-22T13:31:52.001Z</time></trkpt><trkpt lat="41.19088957715798" lon="15.028111851217135"><ele>532.0</ele><time>2026-03-22T13:31:53.001Z</time></trkpt><trkpt lat="41.190923314208476" lon="15.02822474142511"><ele>530.3333333333334</ele><time>2026-03-22T13:31:54.001Z</time></trkpt><trkpt lat="41.19095239517955" lon="15.028317036213105"><ele>528.6666666666667</ele><time>2026-03-22T13:31:55.001Z</time></trkpt><trkpt lat="41.1909985011363" lon="15.028405173970988"><ele>527.0</ele><time>2026-03-22T13:31:56.001Z</time></trkpt><trkpt lat="41.19104467296922" lon="15.028478444263898"><ele>525.3333333333334</ele><time>2026-03-22T13:31:57.001Z</time></trkpt><trkpt lat="41.19109732784528" lon="15.028553371408586"><ele>523.6666666666666</ele><time>2026-03-22T13:31:59.001Z</time></trkpt><trkpt lat="41.19102943347894" lon="15.028582193061618"><ele>522.0</ele><time>2026-03-22T13:32:01.001Z</time></trkpt><trkpt lat="41.19096042495045" lon="15.028481312128127"><ele>522.0</ele><time>2026-03-22T13:32:03.001Z</time></trkpt><trkpt lat="41.1908758999218" lon="15.028395401036338"><ele>522.0</ele><time>2026-03-22T13:32:04.001Z</time></trkpt><trkpt lat="41.19077996979934" lon="15.02827288806729"><ele>522.0</ele><time>2026-03-22T13:32:05.001Z</time></trkpt><trkpt lat="41.19069925830092" lon="15.028133845947496"><ele>522.0</ele><time>2026-03-22T13:32:06.001Z</time></trkpt><trkpt lat="41.19063467217694" lon="15.028020388737389"><ele>514.75</ele><time>2026-03-22T13:32:07.001Z</time></trkpt><trkpt lat="41.19055879642487" lon="15.02791200155182"><ele>507.5</ele><time>2026-03-22T13:32:08.001Z</time></trkpt><trkpt lat="41.19046216404485" lon="15.027800487896704"><ele>500.25</ele><time>2026-03-22T13:32:09.001Z</time></trkpt><trkpt lat="41.19034886210993" lon="15.027698114313843"><ele>493.0</ele><time>2026-03-22T13:32:10.001Z</time></trkpt><trkpt lat="41.190217191328095" lon="15.027602285280983"><ele>493.0</ele><time>2026-03-22T13:32:11.001Z</time></trkpt><trkpt lat="41.19008530000737" lon="15.027508194747382"><ele>493.0</ele><time>2026-03-22T13:32:12.001Z</time></trkpt><trkpt lat="41.189949270745615" lon="15.027416449608506"><ele>493.0</ele><time>2026-03-22T13:32:13.001Z</time></trkpt><trkpt lat="41.18981636163543" lon="15.027340396752969"><ele>493.0</ele><time>2026-03-22T13:32:14.001Z</time></trkpt><trkpt lat="41.18967562776536" lon="15.027269061050946"><ele>486.6666666666667</ele><time>2026-03-22T13:32:15.001Z</time></trkpt><trkpt lat="41.18953410076898" lon="15.027188636887926"><ele>480.33333333333337</ele><time>2026-03-22T13:32:16.001Z</time></trkpt><trkpt lat="41.18939230452253" lon="15.027113491439529"><ele>474.0</ele><time>2026-03-22T13:32:17.001Z</time></trkpt><trkpt lat="41.189246277076975" lon="15.027052394155813"><ele>474.0</ele><time>2026-03-22T13:32:18.001Z</time></trkpt><trkpt lat="41.18910538819181" lon="15.026994526601808"><ele>474.0</ele><time>2026-03-22T13:32:19.001Z</time></trkpt><trkpt lat="41.188966186646844" lon="15.026923916039664"><ele>474.0</ele><time>2026-03-22T13:32:20.001Z</time></trkpt><trkpt lat="41.188832674217004" lon="15.0268431447999"><ele>474.0</ele><time>2026-03-22T13:32:21.001Z</time></trkpt><trkpt lat="41.18868481183873" lon="15.0267647055886"><ele>473.2</ele><time>2026-03-22T13:32:22.001Z</time></trkpt><trkpt lat="41.18856238747183" lon="15.026716148290527"><ele>472.4</ele><time>2026-03-22T13:32:23.001Z</time></trkpt><trkpt lat="41.188453384341386" lon="15.026671567684641"><ele>471.6</ele><time>2026-03-22T13:32:24.001Z</time></trkpt><trkpt lat="41.18835695142264" lon="15.026625609795994"><ele>470.8</ele><time>2026-03-22T13:32:25.001Z</time></trkpt><trkpt lat="41.188263554374856" lon="15.026572808210135"><ele>470.0</ele><time>2026-03-22T13:32:26.001Z</time></trkpt><trkpt lat="41.18817712192552" lon="15.026512182677433"><ele>464.8</ele><time>2026-03-22T13:32:27.001Z</time></trkpt><trkpt lat="41.188099391976536" lon="15.026436464702298"><ele>459.6</ele><time>2026-03-22T13:32:28.001Z</time></trkpt><trkpt lat="41.18801408731187" lon="15.026342167474473"><ele>454.4</ele><time>2026-03-22T13:32:29.001Z</time></trkpt><trkpt lat="41.18794096807238" lon="15.02625351086441"><ele>449.2</ele><time>2026-03-22T13:32:30.001Z</time></trkpt><trkpt lat="41.1878675576394" lon="15.026170729812602"><ele>444.0</ele><time>2026-03-22T13:32:31.001Z</time></trkpt><trkpt lat="41.18777559845842" lon="15.02609254382174"><ele>444.0</ele><time>2026-03-22T13:32:32.001Z</time></trkpt><trkpt lat="41.1876702086944" lon="15.026031224186433"><ele>444.0</ele><time>2026-03-22T13:32:33.001Z</time></trkpt><trkpt lat="41.18756475364099" lon="15.025975116494926"><ele>444.0</ele><time>2026-03-22T13:32:34.001Z</time></trkpt><trkpt lat="41.187451605246636" lon="15.0259199824"><ele>444.0</ele><time>2026-03-22T13:32:35.001Z</time></trkpt><trkpt lat="41.187351544368084" lon="15.025883343653918"><ele>440.6666666666667</ele><time>2026-03-22T13:32:36.001Z</time></trkpt><trkpt lat="41.18725653083854" lon="15.025851672481682"><ele>437.33333333333337</ele><time>2026-03-22T13:32:37.001Z</time></trkpt><trkpt lat="41.187177058632514" lon="15.025825181731982"><ele>434.0</ele><time>2026-03-22T13:32:38.001Z</time></trkpt><trkpt lat="41.1871046098335" lon="15.025798170392294"><ele>430.6666666666667</ele><time>2026-03-22T13:32:39.001Z</time></trkpt><trkpt lat="41.187030445909635" lon="15.025759207419927"><ele>427.33333333333337</ele><time>2026-03-22T13:32:40.001Z</time></trkpt><trkpt lat="41.18695461401625" lon="15.025705001838764"><ele>424.0</ele><time>2026-03-22T13:32:41.001Z</time></trkpt><trkpt lat="41.18687057306225" lon="15.025640277524262"><ele>421.4</ele><time>2026-03-22T13:32:42.001Z</time></trkpt><trkpt lat="41.18678064090714" lon="15.02557012327827"><ele>418.79999999999995</ele><time>2026-03-22T13:32:43.001Z</time></trkpt><trkpt lat="41.186698278172145" lon="15.025505873768616"><ele>416.20000000000005</ele><time>2026-03-22T13:32:44.001Z</time></trkpt><trkpt lat="41.1866097774756" lon="15.025436836166783"><ele>413.6</ele><time>2026-03-22T13:32:45.001Z</time></trkpt><trkpt lat="41.18651109924081" lon="15.025364793686977"><ele>411.0</ele><time>2026-03-22T13:32:46.001Z</time></trkpt><trkpt lat="41.18641805634478" lon="15.025309763892219"><ele>407.4</ele><time>2026-03-22T13:32:47.001Z</time></trkpt><trkpt lat="41.18633362852898" lon="15.025264422768002"><ele>403.8</ele><time>2026-03-22T13:32:48.001Z</time></trkpt><trkpt lat="41.18623944945053" lon="15.025215490316933"><ele>400.2</ele><time>2026-03-22T13:32:49.001Z</time></trkpt><trkpt lat="41.186137823215674" lon="15.025165254638043"><ele>396.59999999999997</ele><time>2026-03-22T13:32:50.001Z</time></trkpt><trkpt lat="41.18603056601171" lon="15.025119563055126"><ele>393.0</ele><time>2026-03-22T13:32:51.001Z</time></trkpt><trkpt lat="41.18593549114303" lon="15.025082948142849"><ele>393.0</ele><time>2026-03-22T13:32:52.001Z</time></trkpt><trkpt lat="41.18584738136178" lon="15.025050024728195"><ele>393.0</ele><time>2026-03-22T13:32:53.001Z</time></trkpt><trkpt lat="41.185753834873246" lon="15.025015069811689"><ele>393.0</ele><time>2026-03-22T13:32:54.001Z</time></trkpt><trkpt lat="41.18559036996297" lon="15.024950862710426"><ele>393.0</ele><time>2026-03-22T13:32:56.001Z</time></trkpt><trkpt lat="41.18551798336111" lon="15.024918970283883"><ele>393.0</ele><time>2026-03-22T13:32:57.001Z</time></trkpt><trkpt lat="41.18542419030405" lon="15.024892506168388"><ele>387.4</ele><time>2026-03-22T13:32:58.001Z</time></trkpt><trkpt lat="41.18533179108073" lon="15.024820845011181"><ele>381.79999999999995</ele><time>2026-03-22T13:32:59.001Z</time></trkpt><trkpt lat="41.18523758456945" lon="15.024778507204195"><ele>376.2</ele><time>2026-03-22T13:33:00.001Z</time></trkpt><trkpt lat="41.18513566289253" lon="15.02476955024073"><ele>370.6</ele><time>2026-03-22T13:33:01.001Z</time></trkpt><trkpt lat="41.18503037291269" lon="15.02479031982263"><ele>365.0</ele><time>2026-03-22T13:33:02.001Z</time></trkpt><trkpt lat="41.1849599507966" lon="15.024804837146798"><ele>365.0</ele><time>2026-03-22T13:33:03.001Z</time></trkpt><trkpt lat="41.184891511658165" lon="15.02481894569772"><ele>365.0</ele><time>2026-03-22T13:33:04.001Z</time></trkpt><trkpt lat="41.18479296791227" lon="15.024839260367283"><ele>365.0</ele><time>2026-03-22T13:33:05.001Z</time></trkpt><trkpt lat="41.18469303859555" lon="15.024859860664385"><ele>365.0</ele><time>2026-03-22T13:33:06.001Z</time></trkpt><trkpt lat="41.18460770133034" lon="15.024970063213832"><ele>365.0</ele><time>2026-03-22T13:33:07.001Z</time></trkpt><trkpt lat="41.18452190024398" lon="15.024989883034538"><ele>361.0</ele><time>2026-03-22T13:33:08.001Z</time></trkpt><trkpt lat="41.184434879621364" lon="15.024997755957196"><ele>357.0</ele><time>2026-03-22T13:33:09.001Z</time></trkpt><trkpt lat="41.1843493482605" lon="15.025003474413406"><ele>353.0</ele><time>2026-03-22T13:33:10.001Z</time></trkpt><trkpt lat="41.18427007645076" lon="15.024999829710605"><ele>349.0</ele><time>2026-03-22T13:33:11.001Z</time></trkpt><trkpt lat="41.18419952998414" lon="15.024972874508816"><ele>345.0</ele><time>2026-03-22T13:33:12.001Z</time></trkpt><trkpt lat="41.184108139645765" lon="15.02492989095615"><ele>341.0</ele><time>2026-03-22T13:33:13.001Z</time></trkpt><trkpt lat="41.18402237734521" lon="15.024867331936388"><ele>338.83333333333337</ele><time>2026-03-22T13:33:14.001Z</time></trkpt><trkpt lat="41.1839256525363" lon="15.024838305695793"><ele>336.6666666666667</ele><time>2026-03-22T13:33:15.001Z</time></trkpt><trkpt lat="41.183823789851076" lon="15.024820835311864"><ele>334.5</ele><time>2026-03-22T13:33:16.001Z</time></trkpt><trkpt lat="41.183738765840694" lon="15.024807123763374"><ele>332.3333333333333</ele><time>2026-03-22T13:33:17.001Z</time></trkpt><trkpt lat="41.18366239391877" lon="15.024780452332637"><ele>330.16666666666663</ele><time>2026-03-22T13:33:18.001Z</time></trkpt><trkpt lat="41.1835987483453" lon="15.024729726056897"><ele>328.0</ele><time>2026-03-22T13:33:19.001Z</time></trkpt><trkpt lat="41.18354350244667" lon="15.024661886497412"><ele>328.0</ele><time>2026-03-22T13:33:20.001Z</time></trkpt><trkpt lat="41.18345038639722" lon="15.02455428478181"><ele>328.0</ele><time>2026-03-22T13:33:22.001Z</time></trkpt><trkpt lat="41.18338579341109" lon="15.024511201719127"><ele>328.0</ele><time>2026-03-22T13:33:23.001Z</time></trkpt><trkpt lat="41.18331286877597" lon="15.024497833681128"><ele>328.0</ele><time>2026-03-22T13:33:24.001Z</time></trkpt><trkpt lat="41.183235722263895" lon="15.024497507513823"><ele>328.0</ele><time>2026-03-22T13:33:25.001Z</time></trkpt><trkpt lat="41.18315269768652" lon="15.024495754383118"><ele>328.0</ele><time>2026-03-22T13:33:26.001Z</time></trkpt><trkpt lat="41.18307300287812" lon="15.024491430149022"><ele>328.66666666666663</ele><time>2026-03-22T13:33:27.001Z</time></trkpt><trkpt lat="41.18301410938988" lon="15.024526613854274"><ele>329.3333333333333</ele><time>2026-03-22T13:33:29.001Z</time></trkpt><trkpt lat="41.183012689456554" lon="15.024634137181687"><ele>330.0</ele><time>2026-03-22T13:33:32.001Z</time></trkpt><trkpt lat="41.18306385271389" lon="15.024745319811348"><ele>330.6666666666667</ele><time>2026-03-22T13:34:09Z</time></trkpt><trkpt lat="41.1830841119758" lon="15.024826889740497"><ele>331.33333333333337</ele><time>2026-03-22T13:34:10Z</time></trkpt><trkpt lat="41.183113837000604" lon="15.02492802035751"><ele>332.0</ele><time>2026-03-22T13:34:11Z</time></trkpt><trkpt lat="41.18314157967145" lon="15.025090691154455"><ele>332.0</ele><time>2026-03-22T13:34:13Z</time></trkpt><trkpt lat="41.18312332020969" lon="15.025185325732558"><ele>332.0</ele><time>2026-03-22T13:34:14Z</time></trkpt><trkpt lat="41.183088856759184" lon="15.025303758555834"><ele>332.0</ele><time>2026-03-22T13:34:15Z</time></trkpt><trkpt lat="41.183034865552465" lon="15.02542576949618"><ele>332.0</ele><time>2026-03-22T13:34:16Z</time></trkpt><trkpt lat="41.18295295791877" lon="15.025559449632926"><ele>332.0</ele><time>2026-03-22T13:34:17Z</time></trkpt><trkpt lat="41.182901516265865" lon="15.02571927585383"><ele>335.0</ele><time>2026-03-22T13:34:18Z</time></trkpt><trkpt lat="41.182869562205525" lon="15.025872251070743"><ele>338.0</ele><time>2026-03-22T13:34:19Z</time></trkpt><trkpt lat="41.18282136762867" lon="15.02598093762693"><ele>341.0</ele><time>2026-03-22T13:34:20Z</time></trkpt><trkpt lat="41.182749317013204" lon="15.026045687345103"><ele>344.0</ele><time>2026-03-22T13:34:21Z</time></trkpt><trkpt lat="41.18265909718547" lon="15.026079799524556"><ele>347.0</ele><time>2026-03-22T13:34:22Z</time></trkpt><trkpt lat="41.18255353058187" lon="15.026083531137761"><ele>347.0</ele><time>2026-03-22T13:34:23Z</time></trkpt><trkpt lat="41.18243494888279" lon="15.026081182261814"><ele>347.0</ele><time>2026-03-22T13:34:24Z</time></trkpt><trkpt lat="41.18228724892243" lon="15.026129895111938"><ele>347.0</ele><time>2026-03-22T13:34:25Z</time></trkpt><trkpt lat="41.182171971867675" lon="15.026163631022904"><ele>347.0</ele><time>2026-03-22T13:34:26Z</time></trkpt><trkpt lat="41.18207445165239" lon="15.026156629538292"><ele>346.83333333333337</ele><time>2026-03-22T13:34:27Z</time></trkpt><trkpt lat="41.18198489359619" lon="15.026130887041637"><ele>346.6666666666667</ele><time>2026-03-22T13:34:28.001Z</time></trkpt><trkpt lat="41.181899379544454" lon="15.026103819101582"><ele>346.5</ele><time>2026-03-22T13:34:30.001Z</time></trkpt><trkpt lat="41.18183420935757" lon="15.026116278736732"><ele>346.3333333333333</ele><time>2026-03-22T13:34:32.001Z</time></trkpt><trkpt lat="41.181756005392735" lon="15.026232542006547"><ele>346.16666666666663</ele><time>2026-03-22T13:34:34.001Z</time></trkpt><trkpt lat="41.18171924699833" lon="15.02633297849467"><ele>346.0</ele><time>2026-03-22T13:34:35.001Z</time></trkpt><trkpt lat="41.181679778531866" lon="15.026409631484253"><ele>346.0</ele><time>2026-03-22T13:34:36.001Z</time></trkpt><trkpt lat="41.18163000422384" lon="15.026499933406539"><ele>346.0</ele><time>2026-03-22T13:34:37.001Z</time></trkpt><trkpt lat="41.1815644267294" lon="15.026562428486775"><ele>346.0</ele><time>2026-03-22T13:34:38.001Z</time></trkpt><trkpt lat="41.18147194085812" lon="15.026612709620364"><ele>346.0</ele><time>2026-03-22T13:34:39.001Z</time></trkpt><trkpt lat="41.181375350580346" lon="15.026663479802899"><ele>346.0</ele><time>2026-03-22T13:34:40.001Z</time></trkpt><trkpt lat="41.18127532147668" lon="15.026723864229746"><ele>353.0</ele><time>2026-03-22T13:34:41.001Z</time></trkpt><trkpt lat="41.18118630180317" lon="15.026789859124854"><ele>360.0</ele><time>2026-03-22T13:34:42.001Z</time></trkpt><trkpt lat="41.18107315717151" lon="15.026869220329392"><ele>367.0</ele><time>2026-03-22T13:34:43.001Z</time></trkpt><trkpt lat="41.180949190630145" lon="15.026968874804261"><ele>374.0</ele><time>2026-03-22T13:34:44.001Z</time></trkpt><trkpt lat="41.180831815387094" lon="15.027063958030144"><ele>374.0</ele><time>2026-03-22T13:34:45.001Z</time></trkpt><trkpt lat="41.18072002956149" lon="15.027167957388679"><ele>374.0</ele><time>2026-03-22T13:34:46.001Z</time></trkpt><trkpt lat="41.18060972910183" lon="15.027302280197112"><ele>374.0</ele><time>2026-03-22T13:34:47.001Z</time></trkpt><trkpt lat="41.18049631478745" lon="15.027432109237152"><ele>374.0</ele><time>2026-03-22T13:34:48.001Z</time></trkpt><trkpt lat="41.180391297276074" lon="15.0275461356064"><ele>380.5</ele><time>2026-03-22T13:34:49.001Z</time></trkpt><trkpt lat="41.180278972292896" lon="15.027656620421038"><ele>387.0</ele><time>2026-03-22T13:34:50.001Z</time></trkpt><trkpt lat="41.1801612598373" lon="15.027770503147634"><ele>393.5</ele><time>2026-03-22T13:34:51.001Z</time></trkpt><trkpt lat="41.18004874623024" lon="15.027876955343546"><ele>400.0</ele><time>2026-03-22T13:34:52.001Z</time></trkpt><trkpt lat="41.17993358911217" lon="15.027976241160275"><ele>400.75</ele><time>2026-03-22T13:34:53.001Z</time></trkpt><trkpt lat="41.17982364383802" lon="15.028040890216074"><ele>401.5</ele><time>2026-03-22T13:34:54.001Z</time></trkpt><trkpt lat="41.17971402060955" lon="15.02806007775825"><ele>402.25</ele><time>2026-03-22T13:34:55.001Z</time></trkpt><trkpt lat="41.179587518595376" lon="15.028058991840618"><ele>403.0</ele><time>2026-03-22T13:34:56.001Z</time></trkpt><trkpt lat="41.179465125187534" lon="15.028087684952606"><ele>403.0</ele><time>2026-03-22T13:34:57.001Z</time></trkpt><trkpt lat="41.179385990120984" lon="15.028144576307913"><ele>403.0</ele><time>2026-03-22T13:34:58.001Z</time></trkpt><trkpt lat="41.17929178745336" lon="15.028257917787185"><ele>403.0</ele><time>2026-03-22T13:34:59.001Z</time></trkpt><trkpt lat="41.179192733325664" lon="15.02838809268338"><ele>403.0</ele><time>2026-03-22T13:35:00.001Z</time></trkpt><trkpt lat="41.17909609345346" lon="15.028528033983559"><ele>403.5</ele><time>2026-03-22T13:35:01.001Z</time></trkpt><trkpt lat="41.179037291760224" lon="15.028648231251573"><ele>404.0</ele><time>2026-03-22T13:35:02.001Z</time></trkpt><trkpt lat="41.17898756420287" lon="15.028798939243893"><ele>404.5</ele><time>2026-03-22T13:35:03.001Z</time></trkpt><trkpt lat="41.17891173593102" lon="15.028988193901556"><ele>405.0</ele><time>2026-03-22T13:35:04.001Z</time></trkpt><trkpt lat="41.1788262027791" lon="15.029138314750115"><ele>408.0</ele><time>2026-03-22T13:35:05.001Z</time></trkpt><trkpt lat="41.17876871030495" lon="15.029272374716095"><ele>411.0</ele><time>2026-03-22T13:35:06.001Z</time></trkpt><trkpt lat="41.17873065472873" lon="15.029409841593166"><ele>414.0</ele><time>2026-03-22T13:35:07.001Z</time></trkpt><trkpt lat="41.1787228972935" lon="15.02955430909407"><ele>417.0</ele><time>2026-03-22T13:35:08.001Z</time></trkpt><trkpt lat="41.17874277006684" lon="15.029716094214722"><ele>417.0</ele><time>2026-03-22T13:35:09.001Z</time></trkpt><trkpt lat="41.178760039231555" lon="15.029912130749109"><ele>417.0</ele><time>2026-03-22T13:35:10.001Z</time></trkpt><trkpt lat="41.178759155244734" lon="15.030116112399346"><ele>417.0</ele><time>2026-03-22T13:35:11.001Z</time></trkpt><trkpt lat="41.178744300304466" lon="15.030284721265536"><ele>417.0</ele><time>2026-03-22T13:35:12.001Z</time></trkpt><trkpt lat="41.17874211800221" lon="15.0304509105235"><ele>418.6</ele><time>2026-03-22T13:35:13.001Z</time></trkpt><trkpt lat="41.17876456318377" lon="15.030599639487285"><ele>420.20000000000005</ele><time>2026-03-22T13:35:14.001Z</time></trkpt><trkpt lat="41.178762503857385" lon="15.030724394623398"><ele>421.8</ele><time>2026-03-22T13:35:15.001Z</time></trkpt><trkpt lat="41.17873973340466" lon="15.03084577316529"><ele>423.4</ele><time>2026-03-22T13:35:16.001Z</time></trkpt><trkpt lat="41.17868271557116" lon="15.030954838668986"><ele>425.0</ele><time>2026-03-22T13:35:17.001Z</time></trkpt><trkpt lat="41.17860528048954" lon="15.031062926591982"><ele>428.6</ele><time>2026-03-22T13:35:18.001Z</time></trkpt><trkpt lat="41.17850813188727" lon="15.031174632516727"><ele>432.2</ele><time>2026-03-22T13:35:19.001Z</time></trkpt><trkpt lat="41.178428394305925" lon="15.031287464777268"><ele>435.79999999999995</ele><time>2026-03-22T13:35:20.001Z</time></trkpt><trkpt lat="41.17838654036504" lon="15.031378913211283"><ele>439.4</ele><time>2026-03-22T13:35:21.001Z</time></trkpt><trkpt lat="41.17835020766899" lon="15.031452634899722"><ele>443.0</ele><time>2026-03-22T13:35:23.001Z</time></trkpt><trkpt lat="41.178311544268105" lon="15.031530044866381"><ele>446.0</ele><time>2026-03-22T13:35:25.001Z</time></trkpt><trkpt lat="41.178268676395035" lon="15.031672204401433"><ele>448.99999999999994</ele><time>2026-03-22T13:35:28.001Z</time></trkpt><trkpt lat="41.178262291667174" lon="15.0317762245217"><ele>451.99999999999994</ele><time>2026-03-22T13:35:31.001Z</time></trkpt><trkpt lat="41.17824990711052" lon="15.031882294451435"><ele>455.0</ele><time>2026-03-22T13:35:33.001Z</time></trkpt><trkpt lat="41.178205808707844" lon="15.032023144370246"><ele>458.0</ele><time>2026-03-22T13:35:35.001Z</time></trkpt><trkpt lat="41.17813665643868" lon="15.032072407328231"><ele>455.3333333333333</ele><time>2026-03-22T13:35:37.001Z</time></trkpt><trkpt lat="41.17812641027319" lon="15.032174702591522"><ele>452.66666666666663</ele><time>2026-03-22T13:35:55Z</time></trkpt><trkpt lat="41.178113978599974" lon="15.032267338611478"><ele>450.0</ele><time>2026-03-22T13:36:07Z</time></trkpt><trkpt lat="41.1780929710756" lon="15.032420834578664"><ele>447.33333333333337</ele><time>2026-03-22T13:36:30Z</time></trkpt><trkpt lat="41.17808486192833" lon="15.032528491818454"><ele>444.6666666666667</ele><time>2026-03-22T13:36:33Z</time></trkpt><trkpt lat="41.178080512834434" lon="15.032643827690725"><ele>442.0</ele><time>2026-03-22T13:36:35Z</time></trkpt><trkpt lat="41.178108390856906" lon="15.032751700313307"><ele>447.8</ele><time>2026-03-22T13:36:37Z</time></trkpt><trkpt lat="41.17818957219629" lon="15.032785668804962"><ele>453.6</ele><time>2026-03-22T13:36:39Z</time></trkpt><trkpt lat="41.17828140316372" lon="15.03278528130111"><ele>459.40000000000003</ele><time>2026-03-22T13:36:53Z</time></trkpt><trkpt lat="41.17829190952099" lon="15.032899843441188"><ele>465.20000000000005</ele><time>2026-03-22T13:36:55Z</time></trkpt><trkpt lat="41.17829106534209" lon="15.03303498061588"><ele>471.0</ele><time>2026-03-22T13:36:57Z</time></trkpt><trkpt lat="41.17829819681419" lon="15.03317130859793"><ele>471.0</ele><time>2026-03-22T13:36:59Z</time></trkpt><trkpt lat="41.17831102291325" lon="15.033268975079771"><ele>471.0</ele><time>2026-03-22T13:37:01Z</time></trkpt><trkpt lat="41.17826441334365" lon="15.033348796034836"><ele>471.0</ele><time>2026-03-22T13:37:03Z</time></trkpt><trkpt lat="41.178192116071074" lon="15.033419898423958"><ele>471.0</ele><time>2026-03-22T13:37:05Z</time></trkpt><trkpt lat="41.17812476598177" lon="15.03345077359365"><ele>471.0</ele><time>2026-03-22T13:37:06Z</time></trkpt><trkpt lat="41.178031304431464" lon="15.033501766374581"><ele>471.0</ele><time>2026-03-22T13:37:07Z</time></trkpt><trkpt lat="41.17792740874326" lon="15.033542672807064"><ele>469.8333333333333</ele><time>2026-03-22T13:37:08Z</time></trkpt><trkpt lat="41.17783129075962" lon="15.033591722531188"><ele>468.66666666666663</ele><time>2026-03-22T13:37:09Z</time></trkpt><trkpt lat="41.17775757859434" lon="15.033632403769701"><ele>467.5</ele><time>2026-03-22T13:37:10Z</time></trkpt><trkpt lat="41.177695840797206" lon="15.03367614463409"><ele>466.3333333333333</ele><time>2026-03-22T13:37:11Z</time></trkpt><trkpt lat="41.17765227846834" lon="15.033741271093204"><ele>465.16666666666663</ele><time>2026-03-22T13:37:12Z</time></trkpt><trkpt lat="41.17760904790956" lon="15.033852148393832"><ele>464.0</ele><time>2026-03-22T13:37:13Z</time></trkpt><trkpt lat="41.17757670601583" lon="15.033982551787716"><ele>463.99999999999994</ele><time>2026-03-22T13:37:14Z</time></trkpt><trkpt lat="41.17754055013102" lon="15.034111388271985"><ele>464.0</ele><time>2026-03-22T13:37:15Z</time></trkpt><trkpt lat="41.17752410561794" lon="15.034209952211016"><ele>464.0</ele><time>2026-03-22T13:37:16Z</time></trkpt><trkpt lat="41.17752407898155" lon="15.034328332162627"><ele>464.0</ele><time>2026-03-22T13:37:18Z</time></trkpt><trkpt lat="41.17751370608038" lon="15.03441261645305"><ele>463.99999999999994</ele><time>2026-03-22T13:37:19Z</time></trkpt><trkpt lat="41.17752651115696" lon="15.034540010398919"><ele>464.0</ele><time>2026-03-22T13:37:20Z</time></trkpt><trkpt lat="41.177535464639035" lon="15.034692695431216"><ele>466.0</ele><time>2026-03-22T13:37:21Z</time></trkpt><trkpt lat="41.177542589315124" lon="15.034838050687965"><ele>468.0</ele><time>2026-03-22T13:37:22Z</time></trkpt><trkpt lat="41.17756347073139" lon="15.035007603092213"><ele>470.0</ele><time>2026-03-22T13:37:23Z</time></trkpt><trkpt lat="41.17757621170032" lon="15.035140546742465"><ele>472.0</ele><time>2026-03-22T13:37:24Z</time></trkpt><trkpt lat="41.17759098542804" lon="15.035233315135374"><ele>474.0</ele><time>2026-03-22T13:37:25Z</time></trkpt><trkpt lat="41.1776524413379" lon="15.035339458860598"><ele>474.0</ele><time>2026-03-22T13:37:27Z</time></trkpt><trkpt lat="41.17775776740599" lon="15.035377554580705"><ele>474.0</ele><time>2026-03-22T13:37:29Z</time></trkpt><trkpt lat="41.17784283450199" lon="15.035375029747744"><ele>474.0</ele><time>2026-03-22T13:37:30Z</time></trkpt><trkpt lat="41.177929420609125" lon="15.035368832661304"><ele>474.0</ele><time>2026-03-22T13:37:31Z</time></trkpt><trkpt lat="41.178029457157095" lon="15.03535361016928"><ele>474.0</ele><time>2026-03-22T13:37:32Z</time></trkpt><trkpt lat="41.178105043859595" lon="15.035335527550929"><ele>479.2</ele><time>2026-03-22T13:37:33Z</time></trkpt><trkpt lat="41.178196722121875" lon="15.035333148920955"><ele>484.4</ele><time>2026-03-22T13:37:34Z</time></trkpt><trkpt lat="41.17829025179139" lon="15.035351047390597"><ele>489.6</ele><time>2026-03-22T13:37:35.001Z</time></trkpt><trkpt lat="41.178379957981534" lon="15.035374109672528"><ele>494.8</ele><time>2026-03-22T13:37:36.001Z</time></trkpt><trkpt lat="41.178466592884796" lon="15.03539141189683"><ele>500.0</ele><time>2026-03-22T13:37:37.001Z</time></trkpt><trkpt lat="41.17856754852325" lon="15.035399386333548"><ele>499.99999999999994</ele><time>2026-03-22T13:37:38.001Z</time></trkpt><trkpt lat="41.17865973145771" lon="15.035418326705653"><ele>500.0</ele><time>2026-03-22T13:37:39.001Z</time></trkpt><trkpt lat="41.17877292177376" lon="15.035429090968005"><ele>500.0</ele><time>2026-03-22T13:37:40.001Z</time></trkpt><trkpt lat="41.17887341164378" lon="15.035437181576327"><ele>500.0</ele><time>2026-03-22T13:37:41Z</time></trkpt><trkpt lat="41.178930629308084" lon="15.035473332596386"><ele>499.99999999999994</ele><time>2026-03-22T13:37:42Z</time></trkpt><trkpt lat="41.17896547439669" lon="15.03554437916529"><ele>500.0</ele><time>2026-03-22T13:37:43Z</time></trkpt><trkpt lat="41.178970042329176" lon="15.035653976680134"><ele>500.0</ele><time>2026-03-22T13:37:44Z</time></trkpt><trkpt lat="41.17897079294658" lon="15.035747567303009"><ele>500.0</ele><time>2026-03-22T13:37:45Z</time></trkpt><trkpt lat="41.17902209289699" lon="15.035818922177418"><ele>500.0</ele><time>2026-03-22T13:37:46Z</time></trkpt><trkpt lat="41.1791065696171" lon="15.035885032557536"><ele>500.0</ele><time>2026-03-22T13:37:47Z</time></trkpt><trkpt lat="41.179168356054085" lon="15.036014636316409"><ele>500.0</ele><time>2026-03-22T13:37:49Z</time></trkpt><trkpt lat="41.17925337755625" lon="15.036170029828016"><ele>501.5</ele><time>2026-03-22T13:37:51Z</time></trkpt><trkpt lat="41.179257429476934" lon="15.03632281969499"><ele>503.0</ele><time>2026-03-22T13:37:52Z</time></trkpt><trkpt lat="41.17924783635236" lon="15.03649322222512"><ele>504.5</ele><time>2026-03-22T13:37:53Z</time></trkpt><trkpt lat="41.17922630782565" lon="15.036681349816037"><ele>506.0</ele><time>2026-03-22T13:37:54Z</time></trkpt><trkpt lat="41.17920518440795" lon="15.036842411271898"><ele>507.6</ele><time>2026-03-22T13:37:55Z</time></trkpt><trkpt lat="41.17921002942514" lon="15.036935811167977"><ele>509.20000000000005</ele><time>2026-03-22T13:37:56Z</time></trkpt><trkpt lat="41.179244297557766" lon="15.037017039474025"><ele>510.79999999999995</ele><time>2026-03-22T13:37:57Z</time></trkpt><trkpt lat="41.17930861849028" lon="15.037108154932568"><ele>512.4</ele><time>2026-03-22T13:37:58Z</time></trkpt><trkpt lat="41.17939266031551" lon="15.037199109507307"><ele>514.0</ele><time>2026-03-22T13:37:59Z</time></trkpt><trkpt lat="41.17948250946802" lon="15.037303742870305"><ele>514.0</ele><time>2026-03-22T13:38:00Z</time></trkpt><trkpt lat="41.17956835825825" lon="15.037441253708606"><ele>514.0</ele><time>2026-03-22T13:38:01Z</time></trkpt><trkpt lat="41.179627495250905" lon="15.03756273915616"><ele>514.0</ele><time>2026-03-22T13:38:02Z</time></trkpt><trkpt lat="41.17963665325953" lon="15.037659511184135"><ele>514.0</ele><time>2026-03-22T13:38:03Z</time></trkpt><trkpt lat="41.17961344577824" lon="15.037757887041524"><ele>514.0</ele><time>2026-03-22T13:38:04Z</time></trkpt><trkpt lat="41.17955705850867" lon="15.037873364535978"><ele>516.75</ele><time>2026-03-22T13:38:05Z</time></trkpt><trkpt lat="41.17946969618465" lon="15.037998847251902"><ele>519.5</ele><time>2026-03-22T13:38:06Z</time></trkpt><trkpt lat="41.17947978395567" lon="15.038145552010485"><ele>522.25</ele><time>2026-03-22T13:38:07Z</time></trkpt><trkpt lat="41.17953013811574" lon="15.038267000710773"><ele>525.0</ele><time>2026-03-22T13:38:08Z</time></trkpt><trkpt lat="41.1795975977395" lon="15.03841082111844"><ele>526.0</ele><time>2026-03-22T13:38:09Z</time></trkpt><trkpt lat="41.179684477071206" lon="15.038581925817375"><ele>527.0</ele><time>2026-03-22T13:38:10Z</time></trkpt><trkpt lat="41.17973369561509" lon="15.03877590038326"><ele>528.0</ele><time>2026-03-22T13:38:11Z</time></trkpt><trkpt lat="41.17977022093582" lon="15.038936036041815"><ele>529.0</ele><time>2026-03-22T13:38:12Z</time></trkpt><trkpt lat="41.17977861234579" lon="15.039099303822407"><ele>530.0</ele><time>2026-03-22T13:38:13Z</time></trkpt><trkpt lat="41.17978854661105" lon="15.039272383401412"><ele>531.0</ele><time>2026-03-22T13:38:14Z</time></trkpt><trkpt lat="41.17980920159965" lon="15.039404155399676"><ele>532.0</ele><time>2026-03-22T13:38:15Z</time></trkpt><trkpt lat="41.17980762714463" lon="15.039491782108946"><ele>533.0</ele><time>2026-03-22T13:38:17Z</time></trkpt><trkpt lat="41.17970886653504" lon="15.039378998869331"><ele>534.0</ele><time>2026-03-22T13:38:18Z</time></trkpt><trkpt lat="41.17964461837441" lon="15.039416539265094"><ele>534.0</ele><time>2026-03-22T13:38:19Z</time></trkpt><trkpt lat="41.17953351490969" lon="15.039503124283085"><ele>534.0</ele><time>2026-03-22T13:38:20Z</time></trkpt><trkpt lat="41.17941775568873" lon="15.03960703289896"><ele>534.0</ele><time>2026-03-22T13:38:21Z</time></trkpt><trkpt lat="41.17927272052203" lon="15.039746700141034"><ele>534.0</ele><time>2026-03-22T13:38:22Z</time></trkpt><trkpt lat="41.179146703393975" lon="15.039874454374567"><ele>535.75</ele><time>2026-03-22T13:38:23Z</time></trkpt><trkpt lat="41.17903733907994" lon="15.039972287922065"><ele>537.5</ele><time>2026-03-22T13:38:24Z</time></trkpt><trkpt lat="41.17893098928635" lon="15.040058947944011"><ele>539.25</ele><time>2026-03-22T13:38:25Z</time></trkpt><trkpt lat="41.17882532498959" lon="15.040149709523353"><ele>541.0</ele><time>2026-03-22T13:38:26Z</time></trkpt><trkpt lat="41.178740439837206" lon="15.040233142650228"><ele>536.75</ele><time>2026-03-22T13:38:27Z</time></trkpt><trkpt lat="41.1786607603456" lon="15.040356600605936"><ele>532.5</ele><time>2026-03-22T13:38:28Z</time></trkpt><trkpt lat="41.178581364498804" lon="15.040473543126001"><ele>528.25</ele><time>2026-03-22T13:38:29Z</time></trkpt><trkpt lat="41.178494354567" lon="15.040599931446575"><ele>524.0</ele><time>2026-03-22T13:38:30Z</time></trkpt><trkpt lat="41.178418535240226" lon="15.040714815058402"><ele>524.0</ele><time>2026-03-22T13:38:31Z</time></trkpt><trkpt lat="41.17835601217337" lon="15.04079673087042"><ele>524.0</ele><time>2026-03-22T13:38:32Z</time></trkpt><trkpt lat="41.17829503698785" lon="15.040838354484887"><ele>524.0</ele><time>2026-03-22T13:38:33Z</time></trkpt><trkpt lat="41.1782307099912" lon="15.040859223774712"><ele>524.0</ele><time>2026-03-22T13:38:34Z</time></trkpt><trkpt lat="41.178149768119006" lon="15.04092683327002"><ele>524.0</ele><time>2026-03-22T13:38:35Z</time></trkpt><trkpt lat="41.17811528591396" lon="15.040838234514153"><ele>524.0</ele><time>2026-03-22T13:38:36Z</time></trkpt><trkpt lat="41.1780454416425" lon="15.04075204546222"><ele>521.1666666666666</ele><time>2026-03-22T13:38:37Z</time></trkpt><trkpt lat="41.177956662781604" lon="15.040719812835711"><ele>518.3333333333333</ele><time>2026-03-22T13:38:38Z</time></trkpt><trkpt lat="41.177877952992446" lon="15.040677521702538"><ele>515.5</ele><time>2026-03-22T13:38:39Z</time></trkpt><trkpt lat="41.17783382019469" lon="15.040615113895097"><ele>512.6666666666666</ele><time>2026-03-22T13:38:40Z</time></trkpt><trkpt lat="41.17779091533952" lon="15.040546946292267"><ele>509.8333333333333</ele><time>2026-03-22T13:38:41Z</time></trkpt><trkpt lat="41.177736249398606" lon="15.040430592077987"><ele>507.0</ele><time>2026-03-22T13:38:43Z</time></trkpt><trkpt lat="41.1776826384382" lon="15.0403759373674"><ele>510.0</ele><time>2026-03-22T13:38:44Z</time></trkpt><trkpt lat="41.17719175579762" lon="15.040680089634368"><ele>510.0</ele><time>2026-03-22T13:38:46Z</time></trkpt><trkpt lat="41.177145427572185" lon="15.040618080870447"><ele>510.0</ele><time>2026-03-22T13:38:47Z</time></trkpt><trkpt lat="41.177031328930184" lon="15.040547593786124"><ele>510.0</ele><time>2026-03-22T13:38:49Z</time></trkpt><trkpt lat="41.1769446524973" lon="15.04053175105308"><ele>510.0</ele><time>2026-03-22T13:38:50Z</time></trkpt><trkpt lat="41.17685863566245" lon="15.040512686723995"><ele>510.0</ele><time>2026-03-22T13:38:51Z</time></trkpt><trkpt lat="41.17675975260544" lon="15.040444689715798"><ele>510.0</ele><time>2026-03-22T13:38:52Z</time></trkpt><trkpt lat="41.17667426948344" lon="15.040348722505772"><ele>510.0</ele><time>2026-03-22T13:38:53Z</time></trkpt><trkpt lat="41.17658632365195" lon="15.040266682854405"><ele>510.0</ele><time>2026-03-22T13:38:54Z</time></trkpt><trkpt lat="41.176523044914454" lon="15.040235195083271"><ele>510.0</ele><time>2026-03-22T13:38:55Z</time></trkpt><trkpt lat="41.176442927095216" lon="15.040191651786664"><ele>510.0</ele><time>2026-03-22T13:38:56Z</time></trkpt><trkpt lat="41.176386334923315" lon="15.040131841243179"><ele>510.0</ele><time>2026-03-22T13:38:57Z</time></trkpt><trkpt lat="41.17630195043752" lon="15.04014764251849"><ele>510.0</ele><time>2026-03-22T13:38:59Z</time></trkpt><trkpt lat="41.17635057366545" lon="15.040208007745765"><ele>510.0</ele><time>2026-03-22T13:39:05Z</time></trkpt><trkpt lat="41.17648844694849" lon="15.040370420414979"><ele>510.0</ele><time>2026-03-22T13:39:07Z</time></trkpt><trkpt lat="41.17656626560929" lon="15.040461565107716"><ele>510.0</ele><time>2026-03-22T13:39:08Z</time></trkpt><trkpt lat="41.176566874192844" lon="15.040558740617929"><ele>510.0</ele><time>2026-03-22T13:39:09Z</time></trkpt><trkpt lat="41.176568905833925" lon="15.04066273881328"><ele>510.0</ele><time>2026-03-22T13:39:10Z</time></trkpt><trkpt lat="41.17652467159217" lon="15.040746220529876"><ele>510.0</ele><time>2026-03-22T13:39:11Z</time></trkpt><trkpt lat="41.176403744840606" lon="15.040867544701825"><ele>510.0</ele><time>2026-03-22T13:39:13Z</time></trkpt><trkpt lat="41.17633053840238" lon="15.040956432814822"><ele>510.0</ele><time>2026-03-22T13:39:15Z</time></trkpt><trkpt lat="41.176291913587804" lon="15.041067539332548"><ele>510.0</ele><time>2026-03-22T13:39:17Z</time></trkpt><trkpt lat="41.176267854085125" lon="15.041146380232439"><ele>516.3333333333334</ele><time>2026-03-22T13:39:18Z</time></trkpt><trkpt lat="41.176190412099245" lon="15.041181137560184"><ele>522.6666666666666</ele><time>2026-03-22T13:39:19Z</time></trkpt><trkpt lat="41.17617826030989" lon="15.041285595712578"><ele>529.0</ele><time>2026-03-22T13:39:20Z</time></trkpt><trkpt lat="41.176110640431816" lon="15.041358007097372"><ele>535.3333333333333</ele><time>2026-03-22T13:39:21Z</time></trkpt><trkpt lat="41.17605552809271" lon="15.041414200413168"><ele>541.6666666666666</ele><time>2026-03-22T13:39:22Z</time></trkpt><trkpt lat="41.17604823629019" lon="15.041557961696112"><ele>548.0</ele><time>2026-03-22T13:39:24Z</time></trkpt><trkpt lat="41.17598330050258" lon="15.041637924438923"><ele>551.1666666666666</ele><time>2026-03-22T13:39:25Z</time></trkpt><trkpt lat="41.175949014610815" lon="15.041722560152067"><ele>554.3333333333333</ele><time>2026-03-22T13:39:26Z</time></trkpt><trkpt lat="41.175946201764326" lon="15.041850563454167"><ele>557.5</ele><time>2026-03-22T13:39:28Z</time></trkpt><trkpt lat="41.176028707996586" lon="15.041911260603792"><ele>560.6666666666666</ele><time>2026-03-22T13:39:29Z</time></trkpt><trkpt lat="41.17610978508237" lon="15.04195710151058"><ele>563.8333333333334</ele><time>2026-03-22T13:39:30Z</time></trkpt><trkpt lat="41.17619390419584" lon="15.04197757365792"><ele>567.0</ele><time>2026-03-22T13:39:31Z</time></trkpt><trkpt lat="41.17626398549661" lon="15.04197663893351"><ele>567.0</ele><time>2026-03-22T13:39:32Z</time></trkpt><trkpt lat="41.176258281959946" lon="15.042088732536177"><ele>567.0</ele><time>2026-03-22T13:39:34Z</time></trkpt><trkpt lat="41.1762731395829" lon="15.042193021293826"><ele>567.0</ele><time>2026-03-22T13:39:35Z</time></trkpt><trkpt lat="41.1763529029282" lon="15.04227685562618"><ele>567.0</ele><time>2026-03-22T13:39:37Z</time></trkpt><trkpt lat="41.17648343628254" lon="15.042363086075229"><ele>567.0</ele><time>2026-03-22T13:39:39Z</time></trkpt><trkpt lat="41.17655043736953" lon="15.042415687532612"><ele>568.6</ele><time>2026-03-22T13:39:40Z</time></trkpt><trkpt lat="41.176643251834555" lon="15.042443052742387"><ele>570.2</ele><time>2026-03-22T13:39:41Z</time></trkpt><trkpt lat="41.17674791947168" lon="15.042471636594637"><ele>571.8</ele><time>2026-03-22T13:39:42Z</time></trkpt><trkpt lat="41.17683535430817" lon="15.04252891606833"><ele>573.4</ele><time>2026-03-22T13:39:43Z</time></trkpt><trkpt lat="41.17695941539046" lon="15.042568362116594"><ele>575.0</ele><time>2026-03-22T13:39:45Z</time></trkpt><trkpt lat="41.17708054660042" lon="15.042507943270033"><ele>575.0</ele><time>2026-03-22T13:39:47Z</time></trkpt><trkpt lat="41.17714538577961" lon="15.042474629750929"><ele>575.0</ele><time>2026-03-22T13:39:48Z</time></trkpt><trkpt lat="41.177243482469066" lon="15.042397575844822"><ele>575.0</ele><time>2026-03-22T13:39:50Z</time></trkpt><trkpt lat="41.17731669940718" lon="15.042447996823416"><ele>575.0</ele><time>2026-03-22T13:39:57Z</time></trkpt><trkpt lat="41.17723479790464" lon="15.04255327661652"><ele>575.0</ele><time>2026-03-22T13:40:00Z</time></trkpt><trkpt lat="41.17716913331965" lon="15.042698481497847"><ele>575.0</ele><time>2026-03-22T13:40:02Z</time></trkpt><trkpt lat="41.17709394243631" lon="15.042837318317735"><ele>575.0</ele><time>2026-03-22T13:40:03Z</time></trkpt><trkpt lat="41.17702865670429" lon="15.042950975451303"><ele>575.0</ele><time>2026-03-22T13:40:05Z</time></trkpt><trkpt lat="41.17693766182219" lon="15.043034269144052"><ele>575.0</ele><time>2026-03-22T13:40:07Z</time></trkpt><trkpt lat="41.17683366065462" lon="15.043066281252917"><ele>575.0</ele><time>2026-03-22T13:40:09Z</time></trkpt><trkpt lat="41.1767599348739" lon="15.043119755209874"><ele>575.0</ele><time>2026-03-22T13:40:11Z</time></trkpt><trkpt lat="41.176632765705534" lon="15.043144792203956"><ele>575.0</ele><time>2026-03-22T13:40:13Z</time></trkpt><trkpt lat="41.17662755030461" lon="15.04325804194319"><ele>575.0</ele><time>2026-03-22T13:40:15Z</time></trkpt><trkpt lat="41.17669018734351" lon="15.043296441634475"><ele>575.0</ele><time>2026-03-22T13:40:16Z</time></trkpt><trkpt lat="41.176807160508766" lon="15.043364864835043"><ele>580.0</ele><time>2026-03-22T13:40:18Z</time></trkpt><trkpt lat="41.176870916464075" lon="15.04340778315919"><ele>585.0</ele><time>2026-03-22T13:40:19Z</time></trkpt><trkpt lat="41.17693728311031" lon="15.043459738380824"><ele>590.0</ele><time>2026-03-22T13:40:20Z</time></trkpt><trkpt lat="41.17703745006417" lon="15.043471063919366"><ele>595.0</ele><time>2026-03-22T13:40:22Z</time></trkpt><trkpt lat="41.177111380820406" lon="15.043444038159924"><ele>600.0</ele><time>2026-03-22T13:40:23Z</time></trkpt><trkpt lat="41.17720694340112" lon="15.043423753537613"><ele>605.0</ele><time>2026-03-22T13:40:25Z</time></trkpt><trkpt lat="41.17719893898907" lon="15.043542587139363"><ele>605.0</ele><time>2026-03-22T13:40:27Z</time></trkpt><trkpt lat="41.177150807545345" lon="15.043605101836174"><ele>605.0</ele><time>2026-03-22T13:40:28Z</time></trkpt><trkpt lat="41.17707277055616" lon="15.043635297148496"><ele>605.0</ele><time>2026-03-22T13:40:29Z</time></trkpt><trkpt lat="41.17700485582202" lon="15.04365906215812"><ele>605.0</ele><time>2026-03-22T13:40:30Z</time></trkpt><trkpt lat="41.176883871782515" lon="15.043691826499174"><ele>605.0</ele><time>2026-03-22T13:40:32Z</time></trkpt><trkpt lat="41.176806753551936" lon="15.043695726007027"><ele>605.0</ele><time>2026-03-22T13:40:33Z</time></trkpt><trkpt lat="41.176727108902256" lon="15.04377740188186"><ele>605.0</ele><time>2026-03-22T13:40:35Z</time></trkpt><trkpt lat="41.176716783477204" lon="15.043863907341386"><ele>605.0</ele><time>2026-03-22T13:40:36Z</time></trkpt><trkpt lat="41.176736163657075" lon="15.043948146075326"><ele>605.0</ele><time>2026-03-22T13:40:37Z</time></trkpt><trkpt lat="41.17681636237439" lon="15.044068060299558"><ele>605.0</ele><time>2026-03-22T13:40:39Z</time></trkpt><trkpt lat="41.176826381865894" lon="15.044152000217734"><ele>605.0</ele><time>2026-03-22T13:40:40Z</time></trkpt><trkpt lat="41.176816170112524" lon="15.04424108416362"><ele>605.0</ele><time>2026-03-22T13:40:41Z</time></trkpt><trkpt lat="41.17680034334493" lon="15.04432348740082"><ele>605.0</ele><time>2026-03-22T13:40:42Z</time></trkpt><trkpt lat="41.17675757013243" lon="15.044398967812668"><ele>607.6666666666666</ele><time>2026-03-22T13:40:44Z</time></trkpt><trkpt lat="41.176663084118964" lon="15.044424979229563"><ele>610.3333333333333</ele><time>2026-03-22T13:40:46Z</time></trkpt><trkpt lat="41.176589639286654" lon="15.044443639669291"><ele>613.0</ele><time>2026-03-22T13:40:47Z</time></trkpt><trkpt lat="41.17651740570019" lon="15.044456962486597"><ele>615.6666666666666</ele><time>2026-03-22T13:40:48Z</time></trkpt><trkpt lat="41.17644715918578" lon="15.044463490666118"><ele>618.3333333333334</ele><time>2026-03-22T13:40:49Z</time></trkpt><trkpt lat="41.17638559137005" lon="15.044481235385224"><ele>621.0</ele><time>2026-03-22T13:40:50Z</time></trkpt><trkpt lat="41.17626928475389" lon="15.044521376562335"><ele>621.0</ele><time>2026-03-22T13:40:52Z</time></trkpt><trkpt lat="41.17616115866253" lon="15.044560675748617"><ele>621.0</ele><time>2026-03-22T13:40:54Z</time></trkpt><trkpt lat="41.17606499825841" lon="15.044609553003172"><ele>621.0</ele><time>2026-03-22T13:40:56Z</time></trkpt><trkpt lat="41.175991818904045" lon="15.044684568244639"><ele>621.0</ele><time>2026-03-22T13:40:58Z</time></trkpt><trkpt lat="41.17595739913327" lon="15.044796618298669"><ele>621.0</ele><time>2026-03-22T13:41:00Z</time></trkpt><trkpt lat="41.17597855583159" lon="15.044879984536378"><ele>619.3333333333334</ele><time>2026-03-22T13:41:03Z</time></trkpt><trkpt lat="41.176076588269126" lon="15.04497437159187"><ele>617.6666666666666</ele><time>2026-03-22T13:41:05Z</time></trkpt><trkpt lat="41.17612761609906" lon="15.045038097551448"><ele>616.0</ele><time>2026-03-22T13:41:06Z</time></trkpt><trkpt lat="41.17617365593658" lon="15.045099969538791"><ele>614.3333333333333</ele><time>2026-03-22T13:41:07Z</time></trkpt><trkpt lat="41.176242563962326" lon="15.045187237360462"><ele>612.6666666666666</ele><time>2026-03-22T13:41:09Z</time></trkpt><trkpt lat="41.17620517367527" lon="15.045280006447236"><ele>611.0</ele><time>2026-03-22T13:41:14Z</time></trkpt><trkpt lat="41.17616954708684" lon="15.045358095913448"><ele>611.0</ele><time>2026-03-22T13:41:15Z</time></trkpt><trkpt lat="41.17612278394748" lon="15.045451551528533"><ele>611.0</ele><time>2026-03-22T13:41:16Z</time></trkpt><trkpt lat="41.17608724214008" lon="15.045540535114089"><ele>611.0</ele><time>2026-03-22T13:41:17Z</time></trkpt><trkpt lat="41.17607528921074" lon="15.045668058475377"><ele>611.0</ele><time>2026-03-22T13:41:19Z</time></trkpt><trkpt lat="41.17611711471294" lon="15.045746602703368"><ele>611.0</ele><time>2026-03-22T13:41:21Z</time></trkpt><trkpt lat="41.17618514859998" lon="15.045712756272673"><ele>611.0</ele><time>2026-03-22T13:41:24Z</time></trkpt><trkpt lat="41.17619827701924" lon="15.045627108713946"><ele>611.0000000000001</ele><time>2026-03-22T13:41:26Z</time></trkpt><trkpt lat="41.176155668490594" lon="15.04556324121813"><ele>611.0</ele><time>2026-03-22T13:41:54Z</time></trkpt><trkpt lat="41.17610105500352" lon="15.045627141464912"><ele>611.0</ele><time>2026-03-22T13:41:57Z</time></trkpt><trkpt lat="41.17617066080997" lon="15.045689690388556"><ele>611.0</ele><time>2026-03-22T13:44:11Z</time></trkpt><trkpt lat="41.176232465262885" lon="15.04572517732623"><ele>611.0</ele><time>2026-03-22T13:44:14Z</time></trkpt><trkpt lat="41.17617492690369" lon="15.045761563669366"><ele>611.0000000000001</ele><time>2026-03-22T13:44:17Z</time></trkpt><trkpt lat="41.17613255874066" lon="15.045668178079888"><ele>611.0</ele><time>2026-03-22T13:46:56Z</time></trkpt><trkpt lat="41.17615970365987" lon="15.04559101960574"><ele>611.0</ele><time>2026-03-22T13:47:19Z</time></trkpt><trkpt lat="41.17613443867391" lon="15.045508813541565"><ele>611.0</ele><time>2026-03-22T13:47:22Z</time></trkpt><trkpt lat="41.17607166597139" lon="15.045549088137243"><ele>611.0</ele><time>2026-03-22T13:47:24Z</time></trkpt><trkpt lat="41.17613942780618" lon="15.045609334543053"><ele>611.0</ele><time>2026-03-22T13:47:27Z</time></trkpt><trkpt lat="41.17621835108867" lon="15.045580696362766"><ele>611.0</ele><time>2026-03-22T13:52:38Z</time></trkpt><trkpt lat="41.176212045654644" lon="15.04549026657761"><ele>611.0</ele><time>2026-03-22T13:53:00Z</time></trkpt><trkpt lat="41.1762809967169" lon="15.045374609647919"><ele>611.0000000000001</ele><time>2026-03-22T13:53:02Z</time></trkpt><trkpt lat="41.17627011753242" lon="15.045457347408874"><ele>611.0</ele><time>2026-03-22T13:53:54Z</time></trkpt><trkpt lat="41.176274608599776" lon="15.045542658291453"><ele>611.0</ele><time>2026-03-22T13:54:09Z</time></trkpt><trkpt lat="41.17623226811889" lon="15.045629411018735"><ele>611.0</ele><time>2026-03-22T13:54:12Z</time></trkpt><trkpt lat="41.17620871999615" lon="15.045714839937467"><ele>611.0</ele><time>2026-03-22T13:54:17Z</time></trkpt><trkpt lat="41.17614496239105" lon="15.045685286094695"><ele>611.0000000000001</ele><time>2026-03-22T13:54:21Z</time></trkpt><trkpt lat="41.17608079850328" lon="15.045717890001503"><ele>611.0</ele><time>2026-03-22T13:56:56Z</time></trkpt><trkpt lat="41.176137835176085" lon="15.04566827514069"><ele>611.0</ele><time>2026-03-22T13:57:09Z</time></trkpt><trkpt lat="41.17615155597056" lon="15.04576264011622"><ele>611.0</ele><time>2026-03-22T13:57:12Z</time></trkpt><trkpt lat="41.17611998066572" lon="15.045684970576785"><ele>611.0</ele><time>2026-03-22T13:57:32Z</time></trkpt><trkpt lat="41.17605751898692" lon="15.045734158660606"><ele>611.0</ele><time>2026-03-22T13:57:36Z</time></trkpt><trkpt lat="41.176054957366716" lon="15.045834072518605"><ele>611.0</ele><time>2026-03-22T13:57:39Z</time></trkpt><trkpt lat="41.17602969002828" lon="15.045949645038462"><ele>611.0</ele><time>2026-03-22T13:57:43Z</time></trkpt><trkpt lat="41.17608707657864" lon="15.04583839637785"><ele>611.0</ele><time>2026-03-22T13:58:14Z</time></trkpt><trkpt lat="41.1761008942593" lon="15.045744859839408"><ele>611.0</ele><time>2026-03-22T13:58:16Z</time></trkpt><trkpt lat="41.17611543331684" lon="15.045631700215885"><ele>611.0</ele><time>2026-03-22T13:58:19Z</time></trkpt><trkpt lat="41.176188020945276" lon="15.045608803858777"><ele>611.0</ele><time>2026-03-22T13:58:22Z</time></trkpt><trkpt lat="41.17623874039489" lon="15.045523810066221"><ele>611.0</ele><time>2026-03-22T13:58:36Z</time></trkpt><trkpt lat="41.17628570581811" lon="15.045456583703615"><ele>611.0</ele><time>2026-03-22T13:58:37Z</time></trkpt><trkpt lat="41.17622101942096" lon="15.045425888466157"><ele>611.0000000000001</ele><time>2026-03-22T13:59:11Z</time></trkpt><trkpt lat="41.17615217369889" lon="15.045477139417562"><ele>611.0</ele><time>2026-03-22T13:59:14Z</time></trkpt><trkpt lat="41.17614746942647" lon="15.045562694029424"><ele>611.0</ele><time>2026-03-22T13:59:17Z</time></trkpt><trkpt lat="41.17613965476797" lon="15.045668345453405"><ele>611.0</ele><time>2026-03-22T13:59:51Z</time></trkpt><trkpt lat="41.17608544374392" lon="15.045740497723113"><ele>611.0</ele><time>2026-03-22T13:59:54Z</time></trkpt><trkpt lat="41.176167443234036" lon="15.045734598822555"><ele>611.0000000000001</ele><time>2026-03-22T14:00:01Z</time></trkpt><trkpt lat="41.176161176915514" lon="15.045648319284423"><ele>611.0</ele><time>2026-03-22T14:00:03Z</time></trkpt><trkpt lat="41.17609061305148" lon="15.045698839816055"><ele>611.0000000000001</ele><time>2026-03-22T14:00:05Z</time></trkpt><trkpt lat="41.176036957708895" lon="15.045766786023599"><ele>611.0</ele><time>2026-03-22T14:00:10Z</time></trkpt><trkpt lat="41.17599331691837" lon="15.045829319371466"><ele>611.0</ele><time>2026-03-22T14:00:14Z</time></trkpt><trkpt lat="41.17591326593688" lon="15.045873749271447"><ele>611.0</ele><time>2026-03-22T14:00:18Z</time></trkpt><trkpt lat="41.17591936536179" lon="15.045966631029582"><ele>611.0</ele><time>2026-03-22T14:00:22Z</time></trkpt><trkpt lat="41.17592252172129" lon="15.04605485140719"><ele>611.0000000000001</ele><time>2026-03-22T14:00:24Z</time></trkpt><trkpt lat="41.17587926226233" lon="15.046138429123937"><ele>611.0</ele><time>2026-03-22T14:00:32Z</time></trkpt><trkpt lat="41.17580653844525" lon="15.046205598477238"><ele>610.3333333333333</ele><time>2026-03-22T14:00:35Z</time></trkpt><trkpt lat="41.17575056583482" lon="15.046308371693373"><ele>609.6666666666666</ele><time>2026-03-22T14:00:38Z</time></trkpt><trkpt lat="41.1757089399504" lon="15.046384851733736"><ele>609.0</ele><time>2026-03-22T14:00:40Z</time></trkpt><trkpt lat="41.1756449161897" lon="15.046438238312017"><ele>608.3333333333334</ele><time>2026-03-22T14:00:42Z</time></trkpt><trkpt lat="41.17558565781468" lon="15.046480380484505"><ele>607.6666666666667</ele><time>2026-03-22T14:00:44Z</time></trkpt><trkpt lat="41.17560767052299" lon="15.046584768136343"><ele>607.0</ele><time>2026-03-22T14:02:28Z</time></trkpt><trkpt lat="41.175623638514736" lon="15.046501807369104"><ele>606.9999999999999</ele><time>2026-03-22T14:27:14Z</time></trkpt><trkpt lat="41.17568648793825" lon="15.04644922197524"><ele>607.0</ele><time>2026-03-22T14:27:20Z</time></trkpt><trkpt lat="41.17575189857666" lon="15.046456824139266"><ele>607.0</ele><time>2026-03-22T14:27:30Z</time></trkpt><trkpt lat="41.17581965599932" lon="15.046480597589314"><ele>607.0</ele><time>2026-03-22T14:27:45Z</time></trkpt><trkpt lat="41.17589021946027" lon="15.046546230621106"><ele>607.0</ele><time>2026-03-22T14:30:09Z</time></trkpt><trkpt lat="41.17595156096401" lon="15.04650830898954"><ele>606.9999999999999</ele><time>2026-03-22T14:33:20Z</time></trkpt><trkpt lat="41.17595860939657" lon="15.046595311871425"><ele>607.0</ele><time>2026-03-22T14:34:25Z</time></trkpt><trkpt lat="41.17593069957232" lon="15.046672101915975"><ele>607.0</ele><time>2026-03-22T14:35:53Z</time></trkpt><trkpt lat="41.175964616809004" lon="15.04674878959905"><ele>607.0</ele><time>2026-03-22T14:36:02Z</time></trkpt><trkpt lat="41.17604396441442" lon="15.04668132494245"><ele>607.0</ele><time>2026-03-22T14:36:23Z</time></trkpt><trkpt lat="41.17594912525013" lon="15.046652261993785"><ele>607.0</ele><time>2026-03-22T14:36:40Z</time></trkpt></trkseg></trk></gpx>